<?xml version="1.0" encoding="UTF-8" standalone="no" ?><gpx xmlns="http://www.topografix.com/GPX/1/1" xmlns:gpxx="http://www.garmin.com/xmlschemas/GpxExtensions/v3" xmlns:wptx1="http://www.garmin.com/xmlschemas/WaypointExtension/v1" xmlns:gpxtpx="http://www.garmin.com/xmlschemas/TrackPointExtension/v1" creator="GuideVTT.com" version="1.1" xmlns:xsi="http://www.w3.org/2001/XMLSchema-instance" xsi:schemaLocation="http://www.topografix.com/GPX/1/1 http://www.topografix.com/GPX/1/1/gpx.xsd http://www.garmin.com/xmlschemas/GpxExtensions/v3 http://www8.garmin.com/xmlschemas/GpxExtensionsv3.xsd http://www.garmin.com/xmlschemas/WaypointExtension/v1 http://www8.garmin.com/xmlschemas/WaypointExtensionv1.xsd http://www.garmin.com/xmlschemas/TrackPointExtension/v1 http://www.garmin.com/xmlschemas/TrackPointExtensionv1.xsd">
<metadata><link href="http://www.garmin.com"><text>Garmin International</text></link><time>2013-06-22T15:13:50Z</time></metadata>
<trk><name>runtastic_20140919_1056_vtt.gpx</name><extensions><gpxx:TrackExtension><gpxx:DisplayColor>Cyan</gpxx:DisplayColor></gpxx:TrackExtension></extensions><trkseg>
<trkpt lat="46.1958160400390625" lon="7.8386955261230469"><ele></ele><time>2014-10-15T19:44:48Z</time></trkpt>
<trkpt lat="46.1957893371582031" lon="7.8386816978454590"><ele></ele><time>2014-10-15T19:44:51Z</time></trkpt>
<trkpt lat="46.1957969665527344" lon="7.8386988639831543"><ele></ele><time>2014-10-15T19:44:54Z</time></trkpt>
<trkpt lat="46.1957740783691406" lon="7.8386702537536621"><ele></ele><time>2014-10-15T19:44:57Z</time></trkpt>
<trkpt lat="46.1957626342773438" lon="7.8386473655700684"><ele></ele><time>2014-10-15T19:45:0Z</time></trkpt>
<trkpt lat="46.1957473754882812" lon="7.8386816978454590"><ele></ele><time>2014-10-15T19:45:3Z</time></trkpt>
<trkpt lat="46.1957283020019531" lon="7.8386487960815430"><ele></ele><time>2014-10-15T19:45:6Z</time></trkpt>
<trkpt lat="46.1956748962402344" lon="7.8385858535766602"><ele></ele><time>2014-10-15T19:45:9Z</time></trkpt>
<trkpt lat="46.1956443786621094" lon="7.8385324478149414"><ele></ele><time>2014-10-15T19:45:12Z</time></trkpt>
<trkpt lat="46.1956443786621094" lon="7.8384089469909668"><ele></ele><time>2014-10-15T19:45:15Z</time></trkpt>
<trkpt lat="46.1956329345703125" lon="7.8383307456970215"><ele></ele><time>2014-10-15T19:45:18Z</time></trkpt>
<trkpt lat="46.1956253051757812" lon="7.8383030891418457"><ele></ele><time>2014-10-15T19:45:21Z</time></trkpt>
<trkpt lat="46.1956291198730469" lon="7.8382868766784668"><ele></ele><time>2014-10-15T19:45:24Z</time></trkpt>
<trkpt lat="46.1955795288085938" lon="7.8383846282958984"><ele></ele><time>2014-10-15T19:45:27Z</time></trkpt>
<trkpt lat="46.1955718994140625" lon="7.8384180068969727"><ele></ele><time>2014-10-15T19:45:30Z</time></trkpt>
<trkpt lat="46.1955718994140625" lon="7.8384423255920410"><ele></ele><time>2014-10-15T19:45:33Z</time></trkpt>
<trkpt lat="46.1955795288085938" lon="7.8384776115417480"><ele></ele><time>2014-10-15T19:45:36Z</time></trkpt>
<trkpt lat="46.1955871582031250" lon="7.8385014533996582"><ele></ele><time>2014-10-15T19:45:39Z</time></trkpt>
<trkpt lat="46.1955947875976562" lon="7.8385224342346191"><ele></ele><time>2014-10-15T19:45:42Z</time></trkpt>
<trkpt lat="46.1955947875976562" lon="7.8385438919067383"><ele></ele><time>2014-10-15T19:45:45Z</time></trkpt>
<trkpt lat="46.1956062316894531" lon="7.8385310173034668"><ele></ele><time>2014-10-15T19:45:48Z</time></trkpt>
<trkpt lat="46.1956100463867188" lon="7.8385596275329590"><ele></ele><time>2014-10-15T19:45:51Z</time></trkpt>
<trkpt lat="46.1956214904785156" lon="7.8385581970214844"><ele></ele><time>2014-10-15T19:45:54Z</time></trkpt>
<trkpt lat="46.1956291198730469" lon="7.8385486602783203"><ele></ele><time>2014-10-15T19:45:57Z</time></trkpt>
<trkpt lat="46.1956443786621094" lon="7.8385429382324219"><ele></ele><time>2014-10-15T19:46:0Z</time></trkpt>
<trkpt lat="46.1956634521484375" lon="7.8385524749755859"><ele></ele><time>2014-10-15T19:46:3Z</time></trkpt>
<trkpt lat="46.1956405639648438" lon="7.8386120796203613"><ele></ele><time>2014-10-15T19:46:6Z</time></trkpt>
<trkpt lat="46.1955947875976562" lon="7.8386187553405762"><ele></ele><time>2014-10-15T19:46:9Z</time></trkpt>
<trkpt lat="46.1955642700195312" lon="7.8386554718017578"><ele></ele><time>2014-10-15T19:46:12Z</time></trkpt>
<trkpt lat="46.1955604553222656" lon="7.8386816978454590"><ele></ele><time>2014-10-15T19:46:15Z</time></trkpt>
<trkpt lat="46.1955604553222656" lon="7.8387203216552734"><ele></ele><time>2014-10-15T19:46:18Z</time></trkpt>
<trkpt lat="46.1955795288085938" lon="7.8387794494628906"><ele></ele><time>2014-10-15T19:46:21Z</time></trkpt>
<trkpt lat="46.1955947875976562" lon="7.8388247489929199"><ele></ele><time>2014-10-15T19:46:24Z</time></trkpt>
<trkpt lat="46.1956405639648438" lon="7.8389267921447754"><ele></ele><time>2014-10-15T19:46:27Z</time></trkpt>
<trkpt lat="46.1957244873046875" lon="7.8390474319458008"><ele></ele><time>2014-10-15T19:46:30Z</time></trkpt>
<trkpt lat="46.1957969665527344" lon="7.8391680717468262"><ele></ele><time>2014-10-15T19:46:33Z</time></trkpt>
<trkpt lat="46.1961669921875000" lon="7.8396191596984863"><ele></ele><time>2014-10-15T19:46:36Z</time></trkpt>
<trkpt lat="46.1963272094726562" lon="7.8398256301879883"><ele></ele><time>2014-10-15T19:46:39Z</time></trkpt>
<trkpt lat="46.1965560913085938" lon="7.8400979042053223"><ele></ele><time>2014-10-15T19:46:42Z</time></trkpt>
<trkpt lat="46.1966209411621094" lon="7.8404083251953125"><ele></ele><time>2014-10-15T19:46:45Z</time></trkpt>
<trkpt lat="46.1966972351074219" lon="7.8405532836914062"><ele></ele><time>2014-10-15T19:46:48Z</time></trkpt>
<trkpt lat="46.1967391967773438" lon="7.8407316207885742"><ele></ele><time>2014-10-15T19:46:51Z</time></trkpt>
<trkpt lat="46.1968002319335938" lon="7.8409709930419922"><ele></ele><time>2014-10-15T19:46:54Z</time></trkpt>
<trkpt lat="46.1968345642089844" lon="7.8411216735839844"><ele></ele><time>2014-10-15T19:46:57Z</time></trkpt>
<trkpt lat="46.1968612670898438" lon="7.8412299156188965"><ele></ele><time>2014-10-15T19:47:0Z</time></trkpt>
<trkpt lat="46.1967010498046875" lon="7.8413295745849609"><ele></ele><time>2014-10-15T19:47:3Z</time></trkpt>
<trkpt lat="46.1966285705566406" lon="7.8413524627685547"><ele></ele><time>2014-10-15T19:47:6Z</time></trkpt>
<trkpt lat="46.1965637207031250" lon="7.8413715362548828"><ele></ele><time>2014-10-15T19:47:9Z</time></trkpt>
<trkpt lat="46.1965026855468750" lon="7.8413901329040527"><ele></ele><time>2014-10-15T19:47:12Z</time></trkpt>
<trkpt lat="46.1964492797851562" lon="7.8414068222045898"><ele></ele><time>2014-10-15T19:47:15Z</time></trkpt>
<trkpt lat="46.1964149475097656" lon="7.8414192199707031"><ele></ele><time>2014-10-15T19:47:18Z</time></trkpt>
<trkpt lat="46.1963615417480469" lon="7.8414387702941895"><ele></ele><time>2014-10-15T19:47:21Z</time></trkpt>
<trkpt lat="46.1963233947753906" lon="7.8414540290832520"><ele></ele><time>2014-10-15T19:47:24Z</time></trkpt>
<trkpt lat="46.1962661743164062" lon="7.8414926528930664"><ele></ele><time>2014-10-15T19:47:27Z</time></trkpt>
<trkpt lat="46.1962127685546875" lon="7.8415322303771973"><ele></ele><time>2014-10-15T19:47:30Z</time></trkpt>
<trkpt lat="46.1961517333984375" lon="7.8415880203247070"><ele></ele><time>2014-10-15T19:47:33Z</time></trkpt>
<trkpt lat="46.1961135864257812" lon="7.8416223526000977"><ele></ele><time>2014-10-15T19:47:36Z</time></trkpt>
<trkpt lat="46.1960563659667969" lon="7.8416752815246582"><ele></ele><time>2014-10-15T19:47:39Z</time></trkpt>
<trkpt lat="46.1959991455078125" lon="7.8417172431945801"><ele></ele><time>2014-10-15T19:47:42Z</time></trkpt>
<trkpt lat="46.1959533691406250" lon="7.8417344093322754"><ele></ele><time>2014-10-15T19:47:45Z</time></trkpt>
<trkpt lat="46.1959114074707031" lon="7.8417291641235352"><ele></ele><time>2014-10-15T19:47:48Z</time></trkpt>
<trkpt lat="46.1958580017089844" lon="7.8416919708251953"><ele></ele><time>2014-10-15T19:47:51Z</time></trkpt>
<trkpt lat="46.1958312988281250" lon="7.8416652679443359"><ele></ele><time>2014-10-15T19:47:54Z</time></trkpt>
<trkpt lat="46.1957855224609375" lon="7.8416185379028320"><ele></ele><time>2014-10-15T19:47:57Z</time></trkpt>
<trkpt lat="46.1957397460937500" lon="7.8415703773498535"><ele></ele><time>2014-10-15T19:48:0Z</time></trkpt>
<trkpt lat="46.1957168579101562" lon="7.8415160179138184"><ele></ele><time>2014-10-15T19:48:3Z</time></trkpt>
<trkpt lat="46.1956443786621094" lon="7.8414721488952637"><ele></ele><time>2014-10-15T19:48:6Z</time></trkpt>
<trkpt lat="46.1955947875976562" lon="7.8414540290832520"><ele></ele><time>2014-10-15T19:48:9Z</time></trkpt>
<trkpt lat="46.1955451965332031" lon="7.8414430618286133"><ele></ele><time>2014-10-15T19:48:12Z</time></trkpt>
<trkpt lat="46.1954994201660156" lon="7.8414278030395508"><ele></ele><time>2014-10-15T19:48:15Z</time></trkpt>
<trkpt lat="46.1954193115234375" lon="7.8414187431335449"><ele></ele><time>2014-10-15T19:48:18Z</time></trkpt>
<trkpt lat="46.1953353881835938" lon="7.8414139747619629"><ele></ele><time>2014-10-15T19:48:21Z</time></trkpt>
<trkpt lat="46.1952972412109375" lon="7.8414049148559570"><ele></ele><time>2014-10-15T19:48:24Z</time></trkpt>
<trkpt lat="46.1952629089355469" lon="7.8414068222045898"><ele></ele><time>2014-10-15T19:48:27Z</time></trkpt>
<trkpt lat="46.1952056884765625" lon="7.8413972854614258"><ele></ele><time>2014-10-15T19:48:30Z</time></trkpt>
<trkpt lat="46.1951599121093750" lon="7.8413848876953125"><ele></ele><time>2014-10-15T19:48:33Z</time></trkpt>
<trkpt lat="46.1950874328613281" lon="7.8413572311401367"><ele></ele><time>2014-10-15T19:48:36Z</time></trkpt>
<trkpt lat="46.1950263977050781" lon="7.8413181304931641"><ele></ele><time>2014-10-15T19:48:39Z</time></trkpt>
<trkpt lat="46.1949844360351562" lon="7.8412880897521973"><ele></ele><time>2014-10-15T19:48:42Z</time></trkpt>
<trkpt lat="46.1949119567871094" lon="7.8412637710571289"><ele></ele><time>2014-10-15T19:48:45Z</time></trkpt>
<trkpt lat="46.1948356628417969" lon="7.8412251472473145"><ele></ele><time>2014-10-15T19:48:48Z</time></trkpt>
<trkpt lat="46.1947860717773438" lon="7.8411974906921387"><ele></ele><time>2014-10-15T19:48:51Z</time></trkpt>
<trkpt lat="46.1947059631347656" lon="7.8411622047424316"><ele></ele><time>2014-10-15T19:48:54Z</time></trkpt>
<trkpt lat="46.1946601867675781" lon="7.8411269187927246"><ele></ele><time>2014-10-15T19:48:57Z</time></trkpt>
<trkpt lat="46.1946144104003906" lon="7.8410944938659668"><ele></ele><time>2014-10-15T19:49:0Z</time></trkpt>
<trkpt lat="46.1945610046386719" lon="7.8410549163818359"><ele></ele><time>2014-10-15T19:49:3Z</time></trkpt>
<trkpt lat="46.1945075988769531" lon="7.8409862518310547"><ele></ele><time>2014-10-15T19:49:6Z</time></trkpt>
<trkpt lat="46.1944580078125000" lon="7.8409090042114258"><ele></ele><time>2014-10-15T19:49:9Z</time></trkpt>
<trkpt lat="46.1944122314453125" lon="7.8408350944519043"><ele></ele><time>2014-10-15T19:49:12Z</time></trkpt>
<trkpt lat="46.1943626403808594" lon="7.8407664299011230"><ele></ele><time>2014-10-15T19:49:15Z</time></trkpt>
<trkpt lat="46.1943359375000000" lon="7.8407025337219238"><ele></ele><time>2014-10-15T19:49:18Z</time></trkpt>
<trkpt lat="46.1943016052246094" lon="7.8406281471252441"><ele></ele><time>2014-10-15T19:49:21Z</time></trkpt>
<trkpt lat="46.1942214965820312" lon="7.8405141830444336"><ele></ele><time>2014-10-15T19:49:24Z</time></trkpt>
<trkpt lat="46.1941757202148438" lon="7.8404536247253418"><ele></ele><time>2014-10-15T19:49:27Z</time></trkpt>
<trkpt lat="46.1941184997558594" lon="7.8404049873352051"><ele></ele><time>2014-10-15T19:49:30Z</time></trkpt>
<trkpt lat="46.1940345764160156" lon="7.8403367996215820"><ele></ele><time>2014-10-15T19:49:33Z</time></trkpt>
<trkpt lat="46.1939849853515625" lon="7.8402948379516602"><ele></ele><time>2014-10-15T19:49:36Z</time></trkpt>
<trkpt lat="46.1939315795898438" lon="7.8402605056762695"><ele></ele><time>2014-10-15T19:49:39Z</time></trkpt>
<trkpt lat="46.1938743591308594" lon="7.8402342796325684"><ele></ele><time>2014-10-15T19:49:42Z</time></trkpt>
<trkpt lat="46.1937675476074219" lon="7.8401966094970703"><ele></ele><time>2014-10-15T19:49:45Z</time></trkpt>
<trkpt lat="46.1936912536621094" lon="7.8401713371276855"><ele></ele><time>2014-10-15T19:49:48Z</time></trkpt>
<trkpt lat="46.1936302185058594" lon="7.8401441574096680"><ele></ele><time>2014-10-15T19:49:51Z</time></trkpt>
<trkpt lat="46.1935653686523438" lon="7.8401088714599609"><ele></ele><time>2014-10-15T19:49:54Z</time></trkpt>
<trkpt lat="46.1934814453125000" lon="7.8400716781616211"><ele></ele><time>2014-10-15T19:49:57Z</time></trkpt>
<trkpt lat="46.1934318542480469" lon="7.8400545120239258"><ele></ele><time>2014-10-15T19:50:0Z</time></trkpt>
<trkpt lat="46.1933860778808594" lon="7.8400454521179199"><ele></ele><time>2014-10-15T19:50:3Z</time></trkpt>
<trkpt lat="46.1933097839355469" lon="7.8400373458862305"><ele></ele><time>2014-10-15T19:50:6Z</time></trkpt>
<trkpt lat="46.1932334899902344" lon="7.8400192260742188"><ele></ele><time>2014-10-15T19:50:9Z</time></trkpt>
<trkpt lat="46.1931724548339844" lon="7.8399996757507324"><ele></ele><time>2014-10-15T19:50:12Z</time></trkpt>
<trkpt lat="46.1931037902832031" lon="7.8399872779846191"><ele></ele><time>2014-10-15T19:50:15Z</time></trkpt>
<trkpt lat="46.1930618286132812" lon="7.8399672508239746"><ele></ele><time>2014-10-15T19:50:18Z</time></trkpt>
<trkpt lat="46.1930236816406250" lon="7.8399462699890137"><ele></ele><time>2014-10-15T19:50:21Z</time></trkpt>
<trkpt lat="46.1929473876953125" lon="7.8399267196655273"><ele></ele><time>2014-10-15T19:50:24Z</time></trkpt>
<trkpt lat="46.1928596496582031" lon="7.8399124145507812"><ele></ele><time>2014-10-15T19:50:27Z</time></trkpt>
<trkpt lat="46.1927871704101562" lon="7.8398852348327637"><ele></ele><time>2014-10-15T19:50:30Z</time></trkpt>
<trkpt lat="46.1927146911621094" lon="7.8398604393005371"><ele></ele><time>2014-10-15T19:50:33Z</time></trkpt>
<trkpt lat="46.1926574707031250" lon="7.8398523330688477"><ele></ele><time>2014-10-15T19:50:36Z</time></trkpt>
<trkpt lat="46.1925964355468750" lon="7.8398394584655762"><ele></ele><time>2014-10-15T19:50:39Z</time></trkpt>
<trkpt lat="46.1925315856933594" lon="7.8398256301879883"><ele></ele><time>2014-10-15T19:50:42Z</time></trkpt>
<trkpt lat="46.1924362182617188" lon="7.8398013114929199"><ele></ele><time>2014-10-15T19:50:45Z</time></trkpt>
<trkpt lat="46.1923789978027344" lon="7.8397860527038574"><ele></ele><time>2014-10-15T19:50:48Z</time></trkpt>
<trkpt lat="46.1922950744628906" lon="7.8397712707519531"><ele></ele><time>2014-10-15T19:50:51Z</time></trkpt>
<trkpt lat="46.1921997070312500" lon="7.8397650718688965"><ele></ele><time>2014-10-15T19:50:54Z</time></trkpt>
<trkpt lat="46.1921386718750000" lon="7.8397631645202637"><ele></ele><time>2014-10-15T19:50:57Z</time></trkpt>
<trkpt lat="46.1920738220214844" lon="7.8397660255432129"><ele></ele><time>2014-10-15T19:51:0Z</time></trkpt>
<trkpt lat="46.1920127868652344" lon="7.8397688865661621"><ele></ele><time>2014-10-15T19:51:3Z</time></trkpt>
<trkpt lat="46.1919555664062500" lon="7.8397588729858398"><ele></ele><time>2014-10-15T19:51:6Z</time></trkpt>
<trkpt lat="46.1918563842773438" lon="7.8397498130798340"><ele></ele><time>2014-10-15T19:51:9Z</time></trkpt>
<trkpt lat="46.1917839050292969" lon="7.8397483825683594"><ele></ele><time>2014-10-15T19:51:12Z</time></trkpt>
<trkpt lat="46.1916732788085938" lon="7.8397397994995117"><ele></ele><time>2014-10-15T19:51:15Z</time></trkpt>
<trkpt lat="46.1915931701660156" lon="7.8397264480590820"><ele></ele><time>2014-10-15T19:51:18Z</time></trkpt>
<trkpt lat="46.1915092468261719" lon="7.8397107124328613"><ele></ele><time>2014-10-15T19:51:21Z</time></trkpt>
<trkpt lat="46.1913795471191406" lon="7.8396644592285156"><ele></ele><time>2014-10-15T19:51:24Z</time></trkpt>
<trkpt lat="46.1912994384765625" lon="7.8396215438842773"><ele></ele><time>2014-10-15T19:51:27Z</time></trkpt>
<trkpt lat="46.1911926269531250" lon="7.8395605087280273"><ele></ele><time>2014-10-15T19:51:30Z</time></trkpt>
<trkpt lat="46.1910858154296875" lon="7.8395009040832520"><ele></ele><time>2014-10-15T19:51:33Z</time></trkpt>
<trkpt lat="46.1910095214843750" lon="7.8394579887390137"><ele></ele><time>2014-10-15T19:51:36Z</time></trkpt>
<trkpt lat="46.1909408569335938" lon="7.8394021987915039"><ele></ele><time>2014-10-15T19:51:39Z</time></trkpt>
<trkpt lat="46.1908340454101562" lon="7.8393197059631348"><ele></ele><time>2014-10-15T19:51:42Z</time></trkpt>
<trkpt lat="46.1907539367675781" lon="7.8392667770385742"><ele></ele><time>2014-10-15T19:51:45Z</time></trkpt>
<trkpt lat="46.1906814575195312" lon="7.8392100334167480"><ele></ele><time>2014-10-15T19:51:48Z</time></trkpt>
<trkpt lat="46.1905593872070312" lon="7.8391237258911133"><ele></ele><time>2014-10-15T19:51:51Z</time></trkpt>
<trkpt lat="46.1904487609863281" lon="7.8390288352966309"><ele></ele><time>2014-10-15T19:51:54Z</time></trkpt>
<trkpt lat="46.1903495788574219" lon="7.8389220237731934"><ele></ele><time>2014-10-15T19:51:57Z</time></trkpt>
<trkpt lat="46.1902580261230469" lon="7.8388285636901855"><ele></ele><time>2014-10-15T19:52:0Z</time></trkpt>
<trkpt lat="46.1901969909667969" lon="7.8388447761535645"><ele></ele><time>2014-10-15T19:52:3Z</time></trkpt>
<trkpt lat="46.1901741027832031" lon="7.8389468193054199"><ele></ele><time>2014-10-15T19:52:6Z</time></trkpt>
<trkpt lat="46.1902046203613281" lon="7.8390817642211914"><ele></ele><time>2014-10-15T19:52:9Z</time></trkpt>
<trkpt lat="46.1902465820312500" lon="7.8392000198364258"><ele></ele><time>2014-10-15T19:52:12Z</time></trkpt>
<trkpt lat="46.1902618408203125" lon="7.8392777442932129"><ele></ele><time>2014-10-15T19:52:15Z</time></trkpt>
<trkpt lat="46.1903038024902344" lon="7.8394126892089844"><ele></ele><time>2014-10-15T19:52:18Z</time></trkpt>
<trkpt lat="46.1903648376464844" lon="7.8394875526428223"><ele></ele><time>2014-10-15T19:52:21Z</time></trkpt>
<trkpt lat="46.1904296875000000" lon="7.8395733833312988"><ele></ele><time>2014-10-15T19:52:24Z</time></trkpt>
<trkpt lat="46.1904792785644531" lon="7.8396563529968262"><ele></ele><time>2014-10-15T19:52:27Z</time></trkpt>
<trkpt lat="46.1905632019042969" lon="7.8397831916809082"><ele></ele><time>2014-10-15T19:52:30Z</time></trkpt>
<trkpt lat="46.1906280517578125" lon="7.8398628234863281"><ele></ele><time>2014-10-15T19:52:33Z</time></trkpt>
<trkpt lat="46.1906852722167969" lon="7.8399548530578613"><ele></ele><time>2014-10-15T19:52:36Z</time></trkpt>
<trkpt lat="46.1907539367675781" lon="7.8401207923889160"><ele></ele><time>2014-10-15T19:52:39Z</time></trkpt>
<trkpt lat="46.1908035278320312" lon="7.8402318954467773"><ele></ele><time>2014-10-15T19:52:42Z</time></trkpt>
<trkpt lat="46.1908454895019531" lon="7.8403544425964355"><ele></ele><time>2014-10-15T19:52:45Z</time></trkpt>
<trkpt lat="46.1909027099609375" lon="7.8405218124389648"><ele></ele><time>2014-10-15T19:52:48Z</time></trkpt>
<trkpt lat="46.1909446716308594" lon="7.8405947685241699"><ele></ele><time>2014-10-15T19:52:51Z</time></trkpt>
<trkpt lat="46.1909790039062500" lon="7.8406367301940918"><ele></ele><time>2014-10-15T19:52:54Z</time></trkpt>
<trkpt lat="46.1910629272460938" lon="7.8407216072082520"><ele></ele><time>2014-10-15T19:52:57Z</time></trkpt>
<trkpt lat="46.1911163330078125" lon="7.8408126831054688"><ele></ele><time>2014-10-15T19:53:0Z</time></trkpt>
<trkpt lat="46.1911506652832031" lon="7.8408608436584473"><ele></ele><time>2014-10-15T19:53:3Z</time></trkpt>
<trkpt lat="46.1911926269531250" lon="7.8409037590026855"><ele></ele><time>2014-10-15T19:53:6Z</time></trkpt>
<trkpt lat="46.1912574768066406" lon="7.8409724235534668"><ele></ele><time>2014-10-15T19:53:9Z</time></trkpt>
<trkpt lat="46.1914215087890625" lon="7.8412098884582520"><ele></ele><time>2014-10-15T19:53:12Z</time></trkpt>
<trkpt lat="46.1916046142578125" lon="7.8415055274963379"><ele></ele><time>2014-10-15T19:53:15Z</time></trkpt>
<trkpt lat="46.1916580200195312" lon="7.8415842056274414"><ele></ele><time>2014-10-15T19:53:18Z</time></trkpt>
<trkpt lat="46.1916847229003906" lon="7.8416805267333984"><ele></ele><time>2014-10-15T19:53:21Z</time></trkpt>
<trkpt lat="46.1917152404785156" lon="7.8417525291442871"><ele></ele><time>2014-10-15T19:53:24Z</time></trkpt>
<trkpt lat="46.1917762756347656" lon="7.8418288230895996"><ele></ele><time>2014-10-15T19:53:27Z</time></trkpt>
<trkpt lat="46.1918678283691406" lon="7.8418817520141602"><ele></ele><time>2014-10-15T19:53:30Z</time></trkpt>
<trkpt lat="46.1919403076171875" lon="7.8419222831726074"><ele></ele><time>2014-10-15T19:53:33Z</time></trkpt>
<trkpt lat="46.1920394897460938" lon="7.8419771194458008"><ele></ele><time>2014-10-15T19:53:36Z</time></trkpt>
<trkpt lat="46.1920852661132812" lon="7.8420019149780273"><ele></ele><time>2014-10-15T19:53:39Z</time></trkpt>
<trkpt lat="46.1921005249023438" lon="7.8419933319091797"><ele></ele><time>2014-10-15T19:53:42Z</time></trkpt>
<trkpt lat="46.1921615600585938" lon="7.8419470787048340"><ele></ele><time>2014-10-15T19:53:45Z</time></trkpt>
<trkpt lat="46.1922149658203125" lon="7.8419966697692871"><ele></ele><time>2014-10-15T19:53:48Z</time></trkpt>
<trkpt lat="46.1922416687011719" lon="7.8420529365539551"><ele></ele><time>2014-10-15T19:53:51Z</time></trkpt>
<trkpt lat="46.1922874450683594" lon="7.8420991897583008"><ele></ele><time>2014-10-15T19:53:54Z</time></trkpt>
<trkpt lat="46.1923751831054688" lon="7.8421463966369629"><ele></ele><time>2014-10-15T19:53:57Z</time></trkpt>
<trkpt lat="46.1924285888671875" lon="7.8421878814697266"><ele></ele><time>2014-10-15T19:54:0Z</time></trkpt>
<trkpt lat="46.1924552917480469" lon="7.8422203063964844"><ele></ele><time>2014-10-15T19:54:3Z</time></trkpt>
<trkpt lat="46.1925125122070312" lon="7.8422713279724121"><ele></ele><time>2014-10-15T19:54:6Z</time></trkpt>
<trkpt lat="46.1925773620605469" lon="7.8423371315002441"><ele></ele><time>2014-10-15T19:54:9Z</time></trkpt>
<trkpt lat="46.1926536560058594" lon="7.8423900604248047"><ele></ele><time>2014-10-15T19:54:12Z</time></trkpt>
<trkpt lat="46.1927108764648438" lon="7.8424534797668457"><ele></ele><time>2014-10-15T19:54:15Z</time></trkpt>
<trkpt lat="46.1927337646484375" lon="7.8425083160400391"><ele></ele><time>2014-10-15T19:54:18Z</time></trkpt>
<trkpt lat="46.1927680969238281" lon="7.8425178527832031"><ele></ele><time>2014-10-15T19:54:21Z</time></trkpt>
<trkpt lat="46.1928253173828125" lon="7.8425455093383789"><ele></ele><time>2014-10-15T19:54:24Z</time></trkpt>
<trkpt lat="46.1928825378417969" lon="7.8425889015197754"><ele></ele><time>2014-10-15T19:54:27Z</time></trkpt>
<trkpt lat="46.1929321289062500" lon="7.8426189422607422"><ele></ele><time>2014-10-15T19:54:30Z</time></trkpt>
<trkpt lat="46.1930160522460938" lon="7.8426594734191895"><ele></ele><time>2014-10-15T19:54:33Z</time></trkpt>
<trkpt lat="46.1930694580078125" lon="7.8426833152770996"><ele></ele><time>2014-10-15T19:54:36Z</time></trkpt>
<trkpt lat="46.1931457519531250" lon="7.8427138328552246"><ele></ele><time>2014-10-15T19:54:39Z</time></trkpt>
<trkpt lat="46.1932106018066406" lon="7.8427715301513672"><ele></ele><time>2014-10-15T19:54:42Z</time></trkpt>
<trkpt lat="46.1932601928710938" lon="7.8428316116333008"><ele></ele><time>2014-10-15T19:54:45Z</time></trkpt>
<trkpt lat="46.1933441162109375" lon="7.8429203033447266"><ele></ele><time>2014-10-15T19:54:48Z</time></trkpt>
<trkpt lat="46.1934127807617188" lon="7.8429765701293945"><ele></ele><time>2014-10-15T19:54:51Z</time></trkpt>
<trkpt lat="46.1934394836425781" lon="7.8429994583129883"><ele></ele><time>2014-10-15T19:54:54Z</time></trkpt>
<trkpt lat="46.1934852600097656" lon="7.8430352210998535"><ele></ele><time>2014-10-15T19:54:57Z</time></trkpt>
<trkpt lat="46.1935310363769531" lon="7.8430962562561035"><ele></ele><time>2014-10-15T19:55:0Z</time></trkpt>
<trkpt lat="46.1936264038085938" lon="7.8431835174560547"><ele></ele><time>2014-10-15T19:55:3Z</time></trkpt>
<trkpt lat="46.1937217712402344" lon="7.8432855606079102"><ele></ele><time>2014-10-15T19:55:6Z</time></trkpt>
<trkpt lat="46.1937637329101562" lon="7.8433470726013184"><ele></ele><time>2014-10-15T19:55:9Z</time></trkpt>
<trkpt lat="46.1937866210937500" lon="7.8434042930603027"><ele></ele><time>2014-10-15T19:55:12Z</time></trkpt>
<trkpt lat="46.1938209533691406" lon="7.8434567451477051"><ele></ele><time>2014-10-15T19:55:15Z</time></trkpt>
<trkpt lat="46.1939086914062500" lon="7.8435277938842773"><ele></ele><time>2014-10-15T19:55:18Z</time></trkpt>
<trkpt lat="46.1939659118652344" lon="7.8435654640197754"><ele></ele><time>2014-10-15T19:55:21Z</time></trkpt>
<trkpt lat="46.1940422058105469" lon="7.8436307907104492"><ele></ele><time>2014-10-15T19:55:24Z</time></trkpt>
<trkpt lat="46.1940994262695312" lon="7.8436760902404785"><ele></ele><time>2014-10-15T19:55:27Z</time></trkpt>
<trkpt lat="46.1941452026367188" lon="7.8436965942382812"><ele></ele><time>2014-10-15T19:55:30Z</time></trkpt>
<trkpt lat="46.1941833496093750" lon="7.8437147140502930"><ele></ele><time>2014-10-15T19:55:33Z</time></trkpt>
<trkpt lat="46.1942329406738281" lon="7.8437404632568359"><ele></ele><time>2014-10-15T19:55:36Z</time></trkpt>
<trkpt lat="46.1942443847656250" lon="7.8437457084655762"><ele></ele><time>2014-10-15T19:55:39Z</time></trkpt>
<trkpt lat="46.1942825317382812" lon="7.8437733650207520"><ele></ele><time>2014-10-15T19:55:42Z</time></trkpt>
<trkpt lat="46.1943969726562500" lon="7.8438487052917480"><ele></ele><time>2014-10-15T19:55:45Z</time></trkpt>
<trkpt lat="46.1944656372070312" lon="7.8439064025878906"><ele></ele><time>2014-10-15T19:55:48Z</time></trkpt>
<trkpt lat="46.1945190429687500" lon="7.8439655303955078"><ele></ele><time>2014-10-15T19:55:51Z</time></trkpt>
<trkpt lat="46.1945953369140625" lon="7.8440418243408203"><ele></ele><time>2014-10-15T19:55:54Z</time></trkpt>
<trkpt lat="46.1946678161621094" lon="7.8440842628479004"><ele></ele><time>2014-10-15T19:55:57Z</time></trkpt>
<trkpt lat="46.1947250366210938" lon="7.8441333770751953"><ele></ele><time>2014-10-15T19:56:0Z</time></trkpt>
<trkpt lat="46.1947746276855469" lon="7.8442292213439941"><ele></ele><time>2014-10-15T19:56:3Z</time></trkpt>
<trkpt lat="46.1947555541992188" lon="7.8443613052368164"><ele></ele><time>2014-10-15T19:56:6Z</time></trkpt>
<trkpt lat="46.1947059631347656" lon="7.8445725440979004"><ele></ele><time>2014-10-15T19:56:9Z</time></trkpt>
<trkpt lat="46.1947441101074219" lon="7.8448171615600586"><ele></ele><time>2014-10-15T19:56:12Z</time></trkpt>
<trkpt lat="46.1948738098144531" lon="7.8450126647949219"><ele></ele><time>2014-10-15T19:56:15Z</time></trkpt>
<trkpt lat="46.1949729919433594" lon="7.8451232910156250"><ele></ele><time>2014-10-15T19:56:18Z</time></trkpt>
<trkpt lat="46.1951332092285156" lon="7.8452763557434082"><ele></ele><time>2014-10-15T19:56:21Z</time></trkpt>
<trkpt lat="46.1953086853027344" lon="7.8454446792602539"><ele></ele><time>2014-10-15T19:56:24Z</time></trkpt>
<trkpt lat="46.1954345703125000" lon="7.8456149101257324"><ele></ele><time>2014-10-15T19:56:27Z</time></trkpt>
<trkpt lat="46.1954994201660156" lon="7.8457622528076172"><ele></ele><time>2014-10-15T19:56:30Z</time></trkpt>
<trkpt lat="46.1955184936523438" lon="7.8457903861999512"><ele></ele><time>2014-10-15T19:56:33Z</time></trkpt>
<trkpt lat="46.1956062316894531" lon="7.8457999229431152"><ele></ele><time>2014-10-15T19:56:36Z</time></trkpt>
<trkpt lat="46.1957054138183594" lon="7.8458123207092285"><ele></ele><time>2014-10-15T19:56:39Z</time></trkpt>
<trkpt lat="46.1957817077636719" lon="7.8458094596862793"><ele></ele><time>2014-10-15T19:56:42Z</time></trkpt>
<trkpt lat="46.1959152221679688" lon="7.8457684516906738"><ele></ele><time>2014-10-15T19:56:45Z</time></trkpt>
<trkpt lat="46.1960754394531250" lon="7.8457980155944824"><ele></ele><time>2014-10-15T19:56:48Z</time></trkpt>
<trkpt lat="46.1961708068847656" lon="7.8458561897277832"><ele></ele><time>2014-10-15T19:56:51Z</time></trkpt>
<trkpt lat="46.1962547302246094" lon="7.8458962440490723"><ele></ele><time>2014-10-15T19:56:54Z</time></trkpt>
<trkpt lat="46.1963577270507812" lon="7.8459143638610840"><ele></ele><time>2014-10-15T19:56:57Z</time></trkpt>
<trkpt lat="46.1964035034179688" lon="7.8459506034851074"><ele></ele><time>2014-10-15T19:57:0Z</time></trkpt>
<trkpt lat="46.1964111328125000" lon="7.8459720611572266"><ele></ele><time>2014-10-15T19:57:3Z</time></trkpt>
<trkpt lat="46.1964187622070312" lon="7.8460187911987305"><ele></ele><time>2014-10-15T19:57:6Z</time></trkpt>
<trkpt lat="46.1964302062988281" lon="7.8460597991943359"><ele></ele><time>2014-10-15T19:57:9Z</time></trkpt>
<trkpt lat="46.1964416503906250" lon="7.8461017608642578"><ele></ele><time>2014-10-15T19:57:12Z</time></trkpt>
<trkpt lat="46.1964530944824219" lon="7.8461661338806152"><ele></ele><time>2014-10-15T19:57:15Z</time></trkpt>
<trkpt lat="46.1964607238769531" lon="7.8462285995483398"><ele></ele><time>2014-10-15T19:57:18Z</time></trkpt>
<trkpt lat="46.1964836120605469" lon="7.8462615013122559"><ele></ele><time>2014-10-15T19:57:21Z</time></trkpt>
<trkpt lat="46.1964988708496094" lon="7.8463072776794434"><ele></ele><time>2014-10-15T19:57:24Z</time></trkpt>
<trkpt lat="46.1964950561523438" lon="7.8463478088378906"><ele></ele><time>2014-10-15T19:57:27Z</time></trkpt>
<trkpt lat="46.1964988708496094" lon="7.8463845252990723"><ele></ele><time>2014-10-15T19:57:30Z</time></trkpt>
<trkpt lat="46.1965026855468750" lon="7.8464155197143555"><ele></ele><time>2014-10-15T19:57:33Z</time></trkpt>
<trkpt lat="46.1965026855468750" lon="7.8464632034301758"><ele></ele><time>2014-10-15T19:57:36Z</time></trkpt>
<trkpt lat="46.1965103149414062" lon="7.8464870452880859"><ele></ele><time>2014-10-15T19:57:39Z</time></trkpt>
<trkpt lat="46.1965141296386719" lon="7.8465080261230469"><ele></ele><time>2014-10-15T19:57:42Z</time></trkpt>
<trkpt lat="46.1965293884277344" lon="7.8465480804443359"><ele></ele><time>2014-10-15T19:57:45Z</time></trkpt>
<trkpt lat="46.1965446472167969" lon="7.8465824127197266"><ele></ele><time>2014-10-15T19:57:48Z</time></trkpt>
<trkpt lat="46.1965637207031250" lon="7.8466396331787109"><ele></ele><time>2014-10-15T19:57:51Z</time></trkpt>
<trkpt lat="46.1965675354003906" lon="7.8466873168945312"><ele></ele><time>2014-10-15T19:57:54Z</time></trkpt>
<trkpt lat="46.1965713500976562" lon="7.8467125892639160"><ele></ele><time>2014-10-15T19:57:57Z</time></trkpt>
<trkpt lat="46.1965789794921875" lon="7.8467435836791992"><ele></ele><time>2014-10-15T19:58:0Z</time></trkpt>
<trkpt lat="46.1965827941894531" lon="7.8468022346496582"><ele></ele><time>2014-10-15T19:58:3Z</time></trkpt>
<trkpt lat="46.1965713500976562" lon="7.8468723297119141"><ele></ele><time>2014-10-15T19:58:6Z</time></trkpt>
<trkpt lat="46.1965675354003906" lon="7.8469343185424805"><ele></ele><time>2014-10-15T19:58:9Z</time></trkpt>
<trkpt lat="46.1965637207031250" lon="7.8469676971435547"><ele></ele><time>2014-10-15T19:58:12Z</time></trkpt>
<trkpt lat="46.1965675354003906" lon="7.8470020294189453"><ele></ele><time>2014-10-15T19:58:15Z</time></trkpt>
<trkpt lat="46.1965637207031250" lon="7.8470411300659180"><ele></ele><time>2014-10-15T19:58:18Z</time></trkpt>
<trkpt lat="46.1965408325195312" lon="7.8470568656921387"><ele></ele><time>2014-10-15T19:58:21Z</time></trkpt>
<trkpt lat="46.1965217590332031" lon="7.8470821380615234"><ele></ele><time>2014-10-15T19:58:24Z</time></trkpt>
<trkpt lat="46.1965065002441406" lon="7.8471255302429199"><ele></ele><time>2014-10-15T19:58:27Z</time></trkpt>
<trkpt lat="46.1965141296386719" lon="7.8471732139587402"><ele></ele><time>2014-10-15T19:58:30Z</time></trkpt>
<trkpt lat="46.1965141296386719" lon="7.8471941947937012"><ele></ele><time>2014-10-15T19:58:33Z</time></trkpt>
<trkpt lat="46.1965408325195312" lon="7.8472290039062500"><ele></ele><time>2014-10-15T19:58:36Z</time></trkpt>
<trkpt lat="46.1965560913085938" lon="7.8472471237182617"><ele></ele><time>2014-10-15T19:58:39Z</time></trkpt>
<trkpt lat="46.1965637207031250" lon="7.8472805023193359"><ele></ele><time>2014-10-15T19:58:42Z</time></trkpt>
<trkpt lat="46.1965599060058594" lon="7.8473048210144043"><ele></ele><time>2014-10-15T19:58:45Z</time></trkpt>
<trkpt lat="46.1965484619140625" lon="7.8473401069641113"><ele></ele><time>2014-10-15T19:58:48Z</time></trkpt>
<trkpt lat="46.1965522766113281" lon="7.8473839759826660"><ele></ele><time>2014-10-15T19:58:51Z</time></trkpt>
<trkpt lat="46.1965522766113281" lon="7.8474211692810059"><ele></ele><time>2014-10-15T19:58:54Z</time></trkpt>
<trkpt lat="46.1965484619140625" lon="7.8474593162536621"><ele></ele><time>2014-10-15T19:58:57Z</time></trkpt>
<trkpt lat="46.1965408325195312" lon="7.8475179672241211"><ele></ele><time>2014-10-15T19:59:0Z</time></trkpt>
<trkpt lat="46.1965408325195312" lon="7.8475842475891113"><ele></ele><time>2014-10-15T19:59:3Z</time></trkpt>
<trkpt lat="46.1965599060058594" lon="7.8476443290710449"><ele></ele><time>2014-10-15T19:59:6Z</time></trkpt>
<trkpt lat="46.1965866088867188" lon="7.8476996421813965"><ele></ele><time>2014-10-15T19:59:9Z</time></trkpt>
<trkpt lat="46.1966018676757812" lon="7.8477406501770020"><ele></ele><time>2014-10-15T19:59:12Z</time></trkpt>
<trkpt lat="46.1966094970703125" lon="7.8477816581726074"><ele></ele><time>2014-10-15T19:59:15Z</time></trkpt>
<trkpt lat="46.1966094970703125" lon="7.8478374481201172"><ele></ele><time>2014-10-15T19:59:18Z</time></trkpt>
<trkpt lat="46.1966247558593750" lon="7.8478803634643555"><ele></ele><time>2014-10-15T19:59:21Z</time></trkpt>
<trkpt lat="46.1966514587402344" lon="7.8479456901550293"><ele></ele><time>2014-10-15T19:59:24Z</time></trkpt>
<trkpt lat="46.1966552734375000" lon="7.8480067253112793"><ele></ele><time>2014-10-15T19:59:27Z</time></trkpt>
<trkpt lat="46.1966552734375000" lon="7.8480582237243652"><ele></ele><time>2014-10-15T19:59:30Z</time></trkpt>
<trkpt lat="46.1966781616210938" lon="7.8481054306030273"><ele></ele><time>2014-10-15T19:59:33Z</time></trkpt>
<trkpt lat="46.1967086791992188" lon="7.8481273651123047"><ele></ele><time>2014-10-15T19:59:36Z</time></trkpt>
<trkpt lat="46.1967163085937500" lon="7.8481640815734863"><ele></ele><time>2014-10-15T19:59:39Z</time></trkpt>
<trkpt lat="46.1967239379882812" lon="7.8481884002685547"><ele></ele><time>2014-10-15T19:59:42Z</time></trkpt>
<trkpt lat="46.1967391967773438" lon="7.8481936454772949"><ele></ele><time>2014-10-15T19:59:45Z</time></trkpt>
<trkpt lat="46.1967544555664062" lon="7.8482146263122559"><ele></ele><time>2014-10-15T19:59:48Z</time></trkpt>
<trkpt lat="46.1967887878417969" lon="7.8482208251953125"><ele></ele><time>2014-10-15T19:59:51Z</time></trkpt>
<trkpt lat="46.1968231201171875" lon="7.8482499122619629"><ele></ele><time>2014-10-15T19:59:54Z</time></trkpt>
<trkpt lat="46.1968574523925781" lon="7.8482890129089355"><ele></ele><time>2014-10-15T19:59:57Z</time></trkpt>
<trkpt lat="46.1969184875488281" lon="7.8483657836914062"><ele></ele><time>2014-10-15T20:0:0Z</time></trkpt>
<trkpt lat="46.1969757080078125" lon="7.8484120368957520"><ele></ele><time>2014-10-15T20:0:3Z</time></trkpt>
<trkpt lat="46.1970291137695312" lon="7.8484559059143066"><ele></ele><time>2014-10-15T20:0:6Z</time></trkpt>
<trkpt lat="46.1970977783203125" lon="7.8485102653503418"><ele></ele><time>2014-10-15T20:0:9Z</time></trkpt>
<trkpt lat="46.1971397399902344" lon="7.8485417366027832"><ele></ele><time>2014-10-15T20:0:12Z</time></trkpt>
<trkpt lat="46.1971855163574219" lon="7.8485665321350098"><ele></ele><time>2014-10-15T20:0:15Z</time></trkpt>
<trkpt lat="46.1972389221191406" lon="7.8486061096191406"><ele></ele><time>2014-10-15T20:0:18Z</time></trkpt>
<trkpt lat="46.1973457336425781" lon="7.8486981391906738"><ele></ele><time>2014-10-15T20:0:21Z</time></trkpt>
<trkpt lat="46.1973953247070312" lon="7.8487462997436523"><ele></ele><time>2014-10-15T20:0:24Z</time></trkpt>
<trkpt lat="46.1974678039550781" lon="7.8487801551818848"><ele></ele><time>2014-10-15T20:0:27Z</time></trkpt>
<trkpt lat="46.1975364685058594" lon="7.8487973213195801"><ele></ele><time>2014-10-15T20:0:30Z</time></trkpt>
<trkpt lat="46.1975975036621094" lon="7.8488206863403320"><ele></ele><time>2014-10-15T20:0:33Z</time></trkpt>
<trkpt lat="46.1976852416992188" lon="7.8488864898681641"><ele></ele><time>2014-10-15T20:0:36Z</time></trkpt>
<trkpt lat="46.1977920532226562" lon="7.8490147590637207"><ele></ele><time>2014-10-15T20:0:39Z</time></trkpt>
<trkpt lat="46.1978454589843750" lon="7.8491244316101074"><ele></ele><time>2014-10-15T20:0:42Z</time></trkpt>
<trkpt lat="46.1978797912597656" lon="7.8492236137390137"><ele></ele><time>2014-10-15T20:0:45Z</time></trkpt>
<trkpt lat="46.1979370117187500" lon="7.8492960929870605"><ele></ele><time>2014-10-15T20:0:48Z</time></trkpt>
<trkpt lat="46.1980285644531250" lon="7.8493204116821289"><ele></ele><time>2014-10-15T20:0:51Z</time></trkpt>
<trkpt lat="46.1981086730957031" lon="7.8493418693542480"><ele></ele><time>2014-10-15T20:0:54Z</time></trkpt>
<trkpt lat="46.1982498168945312" lon="7.8494114875793457"><ele></ele><time>2014-10-15T20:0:57Z</time></trkpt>
<trkpt lat="46.1983871459960938" lon="7.8495240211486816"><ele></ele><time>2014-10-15T20:1:0Z</time></trkpt>
<trkpt lat="46.1984786987304688" lon="7.8496203422546387"><ele></ele><time>2014-10-15T20:1:3Z</time></trkpt>
<trkpt lat="46.1985778808593750" lon="7.8497271537780762"><ele></ele><time>2014-10-15T20:1:6Z</time></trkpt>
<trkpt lat="46.1986465454101562" lon="7.8497719764709473"><ele></ele><time>2014-10-15T20:1:9Z</time></trkpt>
<trkpt lat="46.1987380981445312" lon="7.8497810363769531"><ele></ele><time>2014-10-15T20:1:12Z</time></trkpt>
<trkpt lat="46.1988258361816406" lon="7.8497843742370605"><ele></ele><time>2014-10-15T20:1:15Z</time></trkpt>
<trkpt lat="46.1989479064941406" lon="7.8497953414916992"><ele></ele><time>2014-10-15T20:1:18Z</time></trkpt>
<trkpt lat="46.1990699768066406" lon="7.8497891426086426"><ele></ele><time>2014-10-15T20:1:21Z</time></trkpt>
<trkpt lat="46.1992034912109375" lon="7.8497657775878906"><ele></ele><time>2014-10-15T20:1:24Z</time></trkpt>
<trkpt lat="46.1993331909179688" lon="7.8497924804687500"><ele></ele><time>2014-10-15T20:1:27Z</time></trkpt>
<trkpt lat="46.1994132995605469" lon="7.8498535156250000"><ele></ele><time>2014-10-15T20:1:30Z</time></trkpt>
<trkpt lat="46.1994857788085938" lon="7.8498773574829102"><ele></ele><time>2014-10-15T20:1:33Z</time></trkpt>
<trkpt lat="46.1995277404785156" lon="7.8499264717102051"><ele></ele><time>2014-10-15T20:1:36Z</time></trkpt>
<trkpt lat="46.1995544433593750" lon="7.8499565124511719"><ele></ele><time>2014-10-15T20:1:39Z</time></trkpt>
<trkpt lat="46.1995964050292969" lon="7.8500003814697266"><ele></ele><time>2014-10-15T20:1:42Z</time></trkpt>
<trkpt lat="46.1996459960937500" lon="7.8500318527221680"><ele></ele><time>2014-10-15T20:1:45Z</time></trkpt>
<trkpt lat="46.1997108459472656" lon="7.8500528335571289"><ele></ele><time>2014-10-15T20:1:48Z</time></trkpt>
<trkpt lat="46.1998176574707031" lon="7.8501415252685547"><ele></ele><time>2014-10-15T20:1:51Z</time></trkpt>
<trkpt lat="46.1998977661132812" lon="7.8501658439636230"><ele></ele><time>2014-10-15T20:1:54Z</time></trkpt>
<trkpt lat="46.1999511718750000" lon="7.8501815795898438"><ele></ele><time>2014-10-15T20:1:57Z</time></trkpt>
<trkpt lat="46.2000007629394531" lon="7.8502836227416992"><ele></ele><time>2014-10-15T20:2:0Z</time></trkpt>
<trkpt lat="46.2000541687011719" lon="7.8504171371459961"><ele></ele><time>2014-10-15T20:2:3Z</time></trkpt>
<trkpt lat="46.2001075744628906" lon="7.8504667282104492"><ele></ele><time>2014-10-15T20:2:6Z</time></trkpt>
<trkpt lat="46.2001647949218750" lon="7.8505110740661621"><ele></ele><time>2014-10-15T20:2:9Z</time></trkpt>
<trkpt lat="46.2002563476562500" lon="7.8506302833557129"><ele></ele><time>2014-10-15T20:2:12Z</time></trkpt>
<trkpt lat="46.2003288269042969" lon="7.8507204055786133"><ele></ele><time>2014-10-15T20:2:15Z</time></trkpt>
<trkpt lat="46.2003860473632812" lon="7.8507881164550781"><ele></ele><time>2014-10-15T20:2:18Z</time></trkpt>
<trkpt lat="46.2004470825195312" lon="7.8509364128112793"><ele></ele><time>2014-10-15T20:2:21Z</time></trkpt>
<trkpt lat="46.2005157470703125" lon="7.8510622978210449"><ele></ele><time>2014-10-15T20:2:24Z</time></trkpt>
<trkpt lat="46.2006340026855469" lon="7.8510909080505371"><ele></ele><time>2014-10-15T20:2:27Z</time></trkpt>
<trkpt lat="46.2007102966308594" lon="7.8510913848876953"><ele></ele><time>2014-10-15T20:2:30Z</time></trkpt>
<trkpt lat="46.2008132934570312" lon="7.8510627746582031"><ele></ele><time>2014-10-15T20:2:33Z</time></trkpt>
<trkpt lat="46.2009582519531250" lon="7.8510756492614746"><ele></ele><time>2014-10-15T20:2:36Z</time></trkpt>
<trkpt lat="46.2010574340820312" lon="7.8510885238647461"><ele></ele><time>2014-10-15T20:2:39Z</time></trkpt>
<trkpt lat="46.2012214660644531" lon="7.8511352539062500"><ele></ele><time>2014-10-15T20:2:42Z</time></trkpt>
<trkpt lat="46.2014198303222656" lon="7.8511271476745605"><ele></ele><time>2014-10-15T20:2:45Z</time></trkpt>
<trkpt lat="46.2016067504882812" lon="7.8511204719543457"><ele></ele><time>2014-10-15T20:2:48Z</time></trkpt>
<trkpt lat="46.2017288208007812" lon="7.8511228561401367"><ele></ele><time>2014-10-15T20:2:51Z</time></trkpt>
<trkpt lat="46.2019233703613281" lon="7.8510894775390625"><ele></ele><time>2014-10-15T20:2:54Z</time></trkpt>
<trkpt lat="46.2020874023437500" lon="7.8509898185729980"><ele></ele><time>2014-10-15T20:2:57Z</time></trkpt>
<trkpt lat="46.2021789550781250" lon="7.8510031700134277"><ele></ele><time>2014-10-15T20:3:0Z</time></trkpt>
<trkpt lat="46.2022247314453125" lon="7.8510270118713379"><ele></ele><time>2014-10-15T20:3:3Z</time></trkpt>
<trkpt lat="46.2022705078125000" lon="7.8510413169860840"><ele></ele><time>2014-10-15T20:3:6Z</time></trkpt>
<trkpt lat="46.2022895812988281" lon="7.8510565757751465"><ele></ele><time>2014-10-15T20:3:9Z</time></trkpt>
<trkpt lat="46.2023048400878906" lon="7.8510885238647461"><ele></ele><time>2014-10-15T20:3:12Z</time></trkpt>
<trkpt lat="46.2023849487304688" lon="7.8511705398559570"><ele></ele><time>2014-10-15T20:3:15Z</time></trkpt>
<trkpt lat="46.2024421691894531" lon="7.8512525558471680"><ele></ele><time>2014-10-15T20:3:18Z</time></trkpt>
<trkpt lat="46.2024917602539062" lon="7.8513364791870117"><ele></ele><time>2014-10-15T20:3:21Z</time></trkpt>
<trkpt lat="46.2025451660156250" lon="7.8514485359191895"><ele></ele><time>2014-10-15T20:3:24Z</time></trkpt>
<trkpt lat="46.2025985717773438" lon="7.8516144752502441"><ele></ele><time>2014-10-15T20:3:27Z</time></trkpt>
<trkpt lat="46.2026252746582031" lon="7.8516793251037598"><ele></ele><time>2014-10-15T20:3:30Z</time></trkpt>
<trkpt lat="46.2026824951171875" lon="7.8518819808959961"><ele></ele><time>2014-10-15T20:3:33Z</time></trkpt>
<trkpt lat="46.2027778625488281" lon="7.8519334793090820"><ele></ele><time>2014-10-15T20:3:36Z</time></trkpt>
<trkpt lat="46.2028999328613281" lon="7.8519039154052734"><ele></ele><time>2014-10-15T20:3:39Z</time></trkpt>
<trkpt lat="46.2030258178710938" lon="7.8518357276916504"><ele></ele><time>2014-10-15T20:3:42Z</time></trkpt>
<trkpt lat="46.2032089233398438" lon="7.8516449928283691"><ele></ele><time>2014-10-15T20:3:45Z</time></trkpt>
<trkpt lat="46.2033462524414062" lon="7.8515644073486328"><ele></ele><time>2014-10-15T20:3:48Z</time></trkpt>
<trkpt lat="46.2034416198730469" lon="7.8515338897705078"><ele></ele><time>2014-10-15T20:3:51Z</time></trkpt>
<trkpt lat="46.2035484313964844" lon="7.8516893386840820"><ele></ele><time>2014-10-15T20:3:54Z</time></trkpt>
<trkpt lat="46.2035484313964844" lon="7.8518791198730469"><ele></ele><time>2014-10-15T20:3:57Z</time></trkpt>
<trkpt lat="46.2035140991210938" lon="7.8520908355712891"><ele></ele><time>2014-10-15T20:4:0Z</time></trkpt>
<trkpt lat="46.2035255432128906" lon="7.8522982597351074"><ele></ele><time>2014-10-15T20:4:3Z</time></trkpt>
<trkpt lat="46.2035369873046875" lon="7.8524241447448730"><ele></ele><time>2014-10-15T20:4:6Z</time></trkpt>
<trkpt lat="46.2035827636718750" lon="7.8525037765502930"><ele></ele><time>2014-10-15T20:4:9Z</time></trkpt>
<trkpt lat="46.2036514282226562" lon="7.8525619506835938"><ele></ele><time>2014-10-15T20:4:12Z</time></trkpt>
<trkpt lat="46.2037048339843750" lon="7.8526034355163574"><ele></ele><time>2014-10-15T20:4:15Z</time></trkpt>
<trkpt lat="46.2037887573242188" lon="7.8525266647338867"><ele></ele><time>2014-10-15T20:4:18Z</time></trkpt>
<trkpt lat="46.2038230895996094" lon="7.8524065017700195"><ele></ele><time>2014-10-15T20:4:21Z</time></trkpt>
<trkpt lat="46.2038612365722656" lon="7.8521995544433594"><ele></ele><time>2014-10-15T20:4:24Z</time></trkpt>
<trkpt lat="46.2039108276367188" lon="7.8520689010620117"><ele></ele><time>2014-10-15T20:4:27Z</time></trkpt>
<trkpt lat="46.2039566040039062" lon="7.8519229888916016"><ele></ele><time>2014-10-15T20:4:30Z</time></trkpt>
<trkpt lat="46.2039947509765625" lon="7.8516712188720703"><ele></ele><time>2014-10-15T20:4:33Z</time></trkpt>
<trkpt lat="46.2040138244628906" lon="7.8514776229858398"><ele></ele><time>2014-10-15T20:4:36Z</time></trkpt>
<trkpt lat="46.2040176391601562" lon="7.8511524200439453"><ele></ele><time>2014-10-15T20:4:39Z</time></trkpt>
<trkpt lat="46.2039604187011719" lon="7.8509616851806641"><ele></ele><time>2014-10-15T20:4:42Z</time></trkpt>
<trkpt lat="46.2038955688476562" lon="7.8507952690124512"><ele></ele><time>2014-10-15T20:4:45Z</time></trkpt>
<trkpt lat="46.2037658691406250" lon="7.8506097793579102"><ele></ele><time>2014-10-15T20:4:48Z</time></trkpt>
<trkpt lat="46.2037124633789062" lon="7.8504657745361328"><ele></ele><time>2014-10-15T20:4:51Z</time></trkpt>
<trkpt lat="46.2037544250488281" lon="7.8503789901733398"><ele></ele><time>2014-10-15T20:4:54Z</time></trkpt>
<trkpt lat="46.2038002014160156" lon="7.8503670692443848"><ele></ele><time>2014-10-15T20:4:57Z</time></trkpt>
<trkpt lat="46.2038764953613281" lon="7.8503708839416504"><ele></ele><time>2014-10-15T20:5:0Z</time></trkpt>
<trkpt lat="46.2039260864257812" lon="7.8504352569580078"><ele></ele><time>2014-10-15T20:5:3Z</time></trkpt>
<trkpt lat="46.2039604187011719" lon="7.8505425453186035"><ele></ele><time>2014-10-15T20:5:6Z</time></trkpt>
<trkpt lat="46.2039947509765625" lon="7.8506221771240234"><ele></ele><time>2014-10-15T20:5:9Z</time></trkpt>
<trkpt lat="46.2040405273437500" lon="7.8507218360900879"><ele></ele><time>2014-10-15T20:5:12Z</time></trkpt>
<trkpt lat="46.2040786743164062" lon="7.8507623672485352"><ele></ele><time>2014-10-15T20:5:15Z</time></trkpt>
<trkpt lat="46.2041587829589844" lon="7.8508253097534180"><ele></ele><time>2014-10-15T20:5:18Z</time></trkpt>
<trkpt lat="46.2042198181152344" lon="7.8508710861206055"><ele></ele><time>2014-10-15T20:5:21Z</time></trkpt>
<trkpt lat="46.2043457031250000" lon="7.8509979248046875"><ele></ele><time>2014-10-15T20:5:24Z</time></trkpt>
<trkpt lat="46.2044982910156250" lon="7.8512082099914551"><ele></ele><time>2014-10-15T20:5:27Z</time></trkpt>
<trkpt lat="46.2045936584472656" lon="7.8513417243957520"><ele></ele><time>2014-10-15T20:5:30Z</time></trkpt>
<trkpt lat="46.2047538757324219" lon="7.8515377044677734"><ele></ele><time>2014-10-15T20:5:33Z</time></trkpt>
<trkpt lat="46.2048301696777344" lon="7.8516626358032227"><ele></ele><time>2014-10-15T20:5:36Z</time></trkpt>
<trkpt lat="46.2048683166503906" lon="7.8518795967102051"><ele></ele><time>2014-10-15T20:5:39Z</time></trkpt>
<trkpt lat="46.2048683166503906" lon="7.8520283699035645"><ele></ele><time>2014-10-15T20:5:42Z</time></trkpt>
<trkpt lat="46.2048835754394531" lon="7.8521084785461426"><ele></ele><time>2014-10-15T20:5:45Z</time></trkpt>
<trkpt lat="46.2049064636230469" lon="7.8521857261657715"><ele></ele><time>2014-10-15T20:5:48Z</time></trkpt>
<trkpt lat="46.2049026489257812" lon="7.8523287773132324"><ele></ele><time>2014-10-15T20:5:51Z</time></trkpt>
<trkpt lat="46.2049331665039062" lon="7.8525042533874512"><ele></ele><time>2014-10-15T20:5:54Z</time></trkpt>
<trkpt lat="46.2049407958984375" lon="7.8526377677917480"><ele></ele><time>2014-10-15T20:5:57Z</time></trkpt>
<trkpt lat="46.2049446105957031" lon="7.8527870178222656"><ele></ele><time>2014-10-15T20:6:0Z</time></trkpt>
<trkpt lat="46.2049522399902344" lon="7.8529334068298340"><ele></ele><time>2014-10-15T20:6:3Z</time></trkpt>
<trkpt lat="46.2049598693847656" lon="7.8531932830810547"><ele></ele><time>2014-10-15T20:6:6Z</time></trkpt>
<trkpt lat="46.2049484252929688" lon="7.8534026145935059"><ele></ele><time>2014-10-15T20:6:9Z</time></trkpt>
<trkpt lat="46.2049522399902344" lon="7.8535366058349609"><ele></ele><time>2014-10-15T20:6:12Z</time></trkpt>
<trkpt lat="46.2050056457519531" lon="7.8537678718566895"><ele></ele><time>2014-10-15T20:6:15Z</time></trkpt>
<trkpt lat="46.2050476074218750" lon="7.8539729118347168"><ele></ele><time>2014-10-15T20:6:18Z</time></trkpt>
<trkpt lat="46.2051200866699219" lon="7.8542518615722656"><ele></ele><time>2014-10-15T20:6:21Z</time></trkpt>
<trkpt lat="46.2052268981933594" lon="7.8543963432312012"><ele></ele><time>2014-10-15T20:6:24Z</time></trkpt>
<trkpt lat="46.2054328918457031" lon="7.8546538352966309"><ele></ele><time>2014-10-15T20:6:27Z</time></trkpt>
<trkpt lat="46.2056236267089844" lon="7.8548479080200195"><ele></ele><time>2014-10-15T20:6:30Z</time></trkpt>
<trkpt lat="46.2057723999023438" lon="7.8549494743347168"><ele></ele><time>2014-10-15T20:6:33Z</time></trkpt>
<trkpt lat="46.2059860229492188" lon="7.8551549911499023"><ele></ele><time>2014-10-15T20:6:36Z</time></trkpt>
<trkpt lat="46.2060966491699219" lon="7.8552880287170410"><ele></ele><time>2014-10-15T20:6:39Z</time></trkpt>
<trkpt lat="46.2061729431152344" lon="7.8553614616394043"><ele></ele><time>2014-10-15T20:6:42Z</time></trkpt>
<trkpt lat="46.2062492370605469" lon="7.8554067611694336"><ele></ele><time>2014-10-15T20:6:45Z</time></trkpt>
<trkpt lat="46.2063789367675781" lon="7.8554968833923340"><ele></ele><time>2014-10-15T20:6:48Z</time></trkpt>
<trkpt lat="46.2065315246582031" lon="7.8555645942687988"><ele></ele><time>2014-10-15T20:6:51Z</time></trkpt>
<trkpt lat="46.2066650390625000" lon="7.8555941581726074"><ele></ele><time>2014-10-15T20:6:54Z</time></trkpt>
<trkpt lat="46.2071990966796875" lon="7.8557176589965820"><ele></ele><time>2014-10-15T20:6:57Z</time></trkpt>
<trkpt lat="46.2075309753417969" lon="7.8556761741638184"><ele></ele><time>2014-10-15T20:7:0Z</time></trkpt>
<trkpt lat="46.2077064514160156" lon="7.8558068275451660"><ele></ele><time>2014-10-15T20:7:3Z</time></trkpt>
<trkpt lat="46.2078819274902344" lon="7.8557038307189941"><ele></ele><time>2014-10-15T20:7:6Z</time></trkpt>
<trkpt lat="46.2078933715820312" lon="7.8556494712829590"><ele></ele><time>2014-10-15T20:7:9Z</time></trkpt>
<trkpt lat="46.2079467773437500" lon="7.8555850982666016"><ele></ele><time>2014-10-15T20:7:12Z</time></trkpt>
<trkpt lat="46.2080764770507812" lon="7.8555788993835449"><ele></ele><time>2014-10-15T20:7:15Z</time></trkpt>
<trkpt lat="46.2081794738769531" lon="7.8555774688720703"><ele></ele><time>2014-10-15T20:7:18Z</time></trkpt>
<trkpt lat="46.2083473205566406" lon="7.8555693626403809"><ele></ele><time>2014-10-15T20:7:21Z</time></trkpt>
<trkpt lat="46.2084388732910156" lon="7.8556041717529297"><ele></ele><time>2014-10-15T20:7:24Z</time></trkpt>
<trkpt lat="46.2085647583007812" lon="7.8556118011474609"><ele></ele><time>2014-10-15T20:7:27Z</time></trkpt>
<trkpt lat="46.2092285156250000" lon="7.8558192253112793"><ele></ele><time>2014-10-15T20:7:30Z</time></trkpt>
<trkpt lat="46.2093963623046875" lon="7.8560104370117188"><ele></ele><time>2014-10-15T20:7:33Z</time></trkpt>
<trkpt lat="46.2095146179199219" lon="7.8561763763427734"><ele></ele><time>2014-10-15T20:7:36Z</time></trkpt>
<trkpt lat="46.2097129821777344" lon="7.8563785552978516"><ele></ele><time>2014-10-15T20:7:39Z</time></trkpt>
<trkpt lat="46.2098197937011719" lon="7.8564243316650391"><ele></ele><time>2014-10-15T20:7:42Z</time></trkpt>
<trkpt lat="46.2098846435546875" lon="7.8563284873962402"><ele></ele><time>2014-10-15T20:7:45Z</time></trkpt>
<trkpt lat="46.2101707458496094" lon="7.8562421798706055"><ele></ele><time>2014-10-15T20:7:48Z</time></trkpt>
<trkpt lat="46.2104301452636719" lon="7.8562345504760742"><ele></ele><time>2014-10-15T20:7:51Z</time></trkpt>
<trkpt lat="46.2106513977050781" lon="7.8562388420104980"><ele></ele><time>2014-10-15T20:7:54Z</time></trkpt>
<trkpt lat="46.2108192443847656" lon="7.8561854362487793"><ele></ele><time>2014-10-15T20:7:57Z</time></trkpt>
<trkpt lat="46.2109146118164062" lon="7.8561682701110840"><ele></ele><time>2014-10-15T20:8:0Z</time></trkpt>
<trkpt lat="46.2110748291015625" lon="7.8561224937438965"><ele></ele><time>2014-10-15T20:8:3Z</time></trkpt>
<trkpt lat="46.2111892700195312" lon="7.8560514450073242"><ele></ele><time>2014-10-15T20:8:6Z</time></trkpt>
<trkpt lat="46.2113800048828125" lon="7.8559036254882812"><ele></ele><time>2014-10-15T20:8:9Z</time></trkpt>
<trkpt lat="46.2114982604980469" lon="7.8557968139648438"><ele></ele><time>2014-10-15T20:8:12Z</time></trkpt>
<trkpt lat="46.2116012573242188" lon="7.8557124137878418"><ele></ele><time>2014-10-15T20:8:15Z</time></trkpt>
<trkpt lat="46.2117462158203125" lon="7.8556509017944336"><ele></ele><time>2014-10-15T20:8:18Z</time></trkpt>
<trkpt lat="46.2118453979492188" lon="7.8556413650512695"><ele></ele><time>2014-10-15T20:8:21Z</time></trkpt>
<trkpt lat="46.2119827270507812" lon="7.8556828498840332"><ele></ele><time>2014-10-15T20:8:24Z</time></trkpt>
<trkpt lat="46.2120933532714844" lon="7.8557434082031250"><ele></ele><time>2014-10-15T20:8:27Z</time></trkpt>
<trkpt lat="46.2122421264648438" lon="7.8557891845703125"><ele></ele><time>2014-10-15T20:8:30Z</time></trkpt>
<trkpt lat="46.2123336791992188" lon="7.8558125495910645"><ele></ele><time>2014-10-15T20:8:33Z</time></trkpt>
<trkpt lat="46.2124366760253906" lon="7.8558263778686523"><ele></ele><time>2014-10-15T20:8:36Z</time></trkpt>
<trkpt lat="46.2126083374023438" lon="7.8558011054992676"><ele></ele><time>2014-10-15T20:8:39Z</time></trkpt>
<trkpt lat="46.2127151489257812" lon="7.8557910919189453"><ele></ele><time>2014-10-15T20:8:42Z</time></trkpt>
<trkpt lat="46.2128257751464844" lon="7.8558750152587891"><ele></ele><time>2014-10-15T20:8:45Z</time></trkpt>
<trkpt lat="46.2129287719726562" lon="7.8560013771057129"><ele></ele><time>2014-10-15T20:8:48Z</time></trkpt>
<trkpt lat="46.2129974365234375" lon="7.8561854362487793"><ele></ele><time>2014-10-15T20:8:51Z</time></trkpt>
<trkpt lat="46.2130317687988281" lon="7.8563032150268555"><ele></ele><time>2014-10-15T20:8:54Z</time></trkpt>
<trkpt lat="46.2131805419921875" lon="7.8563389778137207"><ele></ele><time>2014-10-15T20:8:57Z</time></trkpt>
<trkpt lat="46.2133216857910156" lon="7.8563070297241211"><ele></ele><time>2014-10-15T20:9:0Z</time></trkpt>
<trkpt lat="46.2135200500488281" lon="7.8562650680541992"><ele></ele><time>2014-10-15T20:9:3Z</time></trkpt>
<trkpt lat="46.2136497497558594" lon="7.8562436103820801"><ele></ele><time>2014-10-15T20:9:6Z</time></trkpt>
<trkpt lat="46.2138290405273438" lon="7.8561930656433105"><ele></ele><time>2014-10-15T20:9:9Z</time></trkpt>
<trkpt lat="46.2139549255371094" lon="7.8561692237854004"><ele></ele><time>2014-10-15T20:9:12Z</time></trkpt>
<trkpt lat="46.2140388488769531" lon="7.8561863899230957"><ele></ele><time>2014-10-15T20:9:15Z</time></trkpt>
<trkpt lat="46.2141418457031250" lon="7.8562912940979004"><ele></ele><time>2014-10-15T20:9:18Z</time></trkpt>
<trkpt lat="46.2142066955566406" lon="7.8563261032104492"><ele></ele><time>2014-10-15T20:9:21Z</time></trkpt>
<trkpt lat="46.2142982482910156" lon="7.8563523292541504"><ele></ele><time>2014-10-15T20:9:24Z</time></trkpt>
<trkpt lat="46.2143859863281250" lon="7.8564009666442871"><ele></ele><time>2014-10-15T20:9:27Z</time></trkpt>
<trkpt lat="46.2144279479980469" lon="7.8562736511230469"><ele></ele><time>2014-10-15T20:9:30Z</time></trkpt>
<trkpt lat="46.2143325805664062" lon="7.8560471534729004"><ele></ele><time>2014-10-15T20:9:33Z</time></trkpt>
<trkpt lat="46.2142257690429688" lon="7.8556590080261230"><ele></ele><time>2014-10-15T20:9:36Z</time></trkpt>
<trkpt lat="46.2141876220703125" lon="7.8554387092590332"><ele></ele><time>2014-10-15T20:9:39Z</time></trkpt>
<trkpt lat="46.2140960693359375" lon="7.8552937507629395"><ele></ele><time>2014-10-15T20:9:42Z</time></trkpt>
<trkpt lat="46.2140121459960938" lon="7.8552451133728027"><ele></ele><time>2014-10-15T20:9:45Z</time></trkpt>
<trkpt lat="46.2139816284179688" lon="7.8551745414733887"><ele></ele><time>2014-10-15T20:9:48Z</time></trkpt>
<trkpt lat="46.2140617370605469" lon="7.8551440238952637"><ele></ele><time>2014-10-15T20:9:51Z</time></trkpt>
<trkpt lat="46.2142715454101562" lon="7.8552255630493164"><ele></ele><time>2014-10-15T20:9:54Z</time></trkpt>
<trkpt lat="46.2144165039062500" lon="7.8554716110229492"><ele></ele><time>2014-10-15T20:9:57Z</time></trkpt>
<trkpt lat="46.2145919799804688" lon="7.8556432723999023"><ele></ele><time>2014-10-15T20:10:0Z</time></trkpt>
<trkpt lat="46.2147216796875000" lon="7.8555998802185059"><ele></ele><time>2014-10-15T20:10:3Z</time></trkpt>
<trkpt lat="46.2148437500000000" lon="7.8553771972656250"><ele></ele><time>2014-10-15T20:10:6Z</time></trkpt>
<trkpt lat="46.2147750854492188" lon="7.8551239967346191"><ele></ele><time>2014-10-15T20:10:9Z</time></trkpt>
<trkpt lat="46.2146263122558594" lon="7.8549098968505859"><ele></ele><time>2014-10-15T20:10:12Z</time></trkpt>
<trkpt lat="46.2145881652832031" lon="7.8547410964965820"><ele></ele><time>2014-10-15T20:10:15Z</time></trkpt>
<trkpt lat="46.2145690917968750" lon="7.8546504974365234"><ele></ele><time>2014-10-15T20:10:18Z</time></trkpt>
<trkpt lat="46.2145957946777344" lon="7.8546142578125000"><ele></ele><time>2014-10-15T20:10:21Z</time></trkpt>
<trkpt lat="46.2148132324218750" lon="7.8549542427062988"><ele></ele><time>2014-10-15T20:10:24Z</time></trkpt>
<trkpt lat="46.2149581909179688" lon="7.8550677299499512"><ele></ele><time>2014-10-15T20:10:27Z</time></trkpt>
<trkpt lat="46.2151412963867188" lon="7.8551073074340820"><ele></ele><time>2014-10-15T20:10:30Z</time></trkpt>
<trkpt lat="46.2153205871582031" lon="7.8552336692810059"><ele></ele><time>2014-10-15T20:10:33Z</time></trkpt>
<trkpt lat="46.2154388427734375" lon="7.8553695678710938"><ele></ele><time>2014-10-15T20:10:36Z</time></trkpt>
<trkpt lat="46.2155685424804688" lon="7.8554983139038086"><ele></ele><time>2014-10-15T20:10:39Z</time></trkpt>
<trkpt lat="46.2157821655273438" lon="7.8556895256042480"><ele></ele><time>2014-10-15T20:10:42Z</time></trkpt>
<trkpt lat="46.2159385681152344" lon="7.8558216094970703"><ele></ele><time>2014-10-15T20:10:45Z</time></trkpt>
<trkpt lat="46.2161865234375000" lon="7.8561258316040039"><ele></ele><time>2014-10-15T20:10:48Z</time></trkpt>
<trkpt lat="46.2162895202636719" lon="7.8563117980957031"><ele></ele><time>2014-10-15T20:10:51Z</time></trkpt>
<trkpt lat="46.2163619995117188" lon="7.8565254211425781"><ele></ele><time>2014-10-15T20:10:54Z</time></trkpt>
<trkpt lat="46.2163543701171875" lon="7.8567452430725098"><ele></ele><time>2014-10-15T20:10:57Z</time></trkpt>
<trkpt lat="46.2163238525390625" lon="7.8568987846374512"><ele></ele><time>2014-10-15T20:11:0Z</time></trkpt>
<trkpt lat="46.2163124084472656" lon="7.8569021224975586"><ele></ele><time>2014-10-15T20:11:3Z</time></trkpt>
<trkpt lat="46.2163276672363281" lon="7.8569550514221191"><ele></ele><time>2014-10-15T20:11:6Z</time></trkpt>
<trkpt lat="46.2163505554199219" lon="7.8569283485412598"><ele></ele><time>2014-10-15T20:11:9Z</time></trkpt>
<trkpt lat="46.2164115905761719" lon="7.8568224906921387"><ele></ele><time>2014-10-15T20:11:12Z</time></trkpt>
<trkpt lat="46.2164344787597656" lon="7.8567509651184082"><ele></ele><time>2014-10-15T20:11:15Z</time></trkpt>
<trkpt lat="46.2164497375488281" lon="7.8566780090332031"><ele></ele><time>2014-10-15T20:11:18Z</time></trkpt>
<trkpt lat="46.2164535522460938" lon="7.8565673828125000"><ele></ele><time>2014-10-15T20:11:21Z</time></trkpt>
<trkpt lat="46.2164688110351562" lon="7.8563928604125977"><ele></ele><time>2014-10-15T20:11:24Z</time></trkpt>
<trkpt lat="46.2164688110351562" lon="7.8561282157897949"><ele></ele><time>2014-10-15T20:11:27Z</time></trkpt>
<trkpt lat="46.2164497375488281" lon="7.8559536933898926"><ele></ele><time>2014-10-15T20:11:30Z</time></trkpt>
<trkpt lat="46.2164802551269531" lon="7.8557472229003906"><ele></ele><time>2014-10-15T20:11:33Z</time></trkpt>
<trkpt lat="46.2165298461914062" lon="7.8556623458862305"><ele></ele><time>2014-10-15T20:11:36Z</time></trkpt>
<trkpt lat="46.2165298461914062" lon="7.8555359840393066"><ele></ele><time>2014-10-15T20:11:39Z</time></trkpt>
<trkpt lat="46.2164688110351562" lon="7.8552904129028320"><ele></ele><time>2014-10-15T20:11:42Z</time></trkpt>
<trkpt lat="46.2164459228515625" lon="7.8551540374755859"><ele></ele><time>2014-10-15T20:11:45Z</time></trkpt>
<trkpt lat="46.2164840698242188" lon="7.8549528121948242"><ele></ele><time>2014-10-15T20:11:48Z</time></trkpt>
<trkpt lat="46.2164535522460938" lon="7.8546628952026367"><ele></ele><time>2014-10-15T20:11:51Z</time></trkpt>
<trkpt lat="46.2163619995117188" lon="7.8544282913208008"><ele></ele><time>2014-10-15T20:11:54Z</time></trkpt>
<trkpt lat="46.2163352966308594" lon="7.8543009757995605"><ele></ele><time>2014-10-15T20:11:57Z</time></trkpt>
<trkpt lat="46.2163543701171875" lon="7.8540821075439453"><ele></ele><time>2014-10-15T20:12:0Z</time></trkpt>
<trkpt lat="46.2163429260253906" lon="7.8539185523986816"><ele></ele><time>2014-10-15T20:12:3Z</time></trkpt>
<trkpt lat="46.2162857055664062" lon="7.8537030220031738"><ele></ele><time>2014-10-15T20:12:6Z</time></trkpt>
<trkpt lat="46.2162742614746094" lon="7.8535299301147461"><ele></ele><time>2014-10-15T20:12:9Z</time></trkpt>
<trkpt lat="46.2162590026855469" lon="7.8533344268798828"><ele></ele><time>2014-10-15T20:12:12Z</time></trkpt>
<trkpt lat="46.2162132263183594" lon="7.8531990051269531"><ele></ele><time>2014-10-15T20:12:15Z</time></trkpt>
<trkpt lat="46.2161865234375000" lon="7.8530020713806152"><ele></ele><time>2014-10-15T20:12:18Z</time></trkpt>
<trkpt lat="46.2161941528320312" lon="7.8528585433959961"><ele></ele><time>2014-10-15T20:12:21Z</time></trkpt>
<trkpt lat="46.2161674499511719" lon="7.8527107238769531"><ele></ele><time>2014-10-15T20:12:24Z</time></trkpt>
<trkpt lat="46.2161750793457031" lon="7.8525719642639160"><ele></ele><time>2014-10-15T20:12:27Z</time></trkpt>
<trkpt lat="46.2161636352539062" lon="7.8524379730224609"><ele></ele><time>2014-10-15T20:12:30Z</time></trkpt>
<trkpt lat="46.2161026000976562" lon="7.8523168563842773"><ele></ele><time>2014-10-15T20:12:33Z</time></trkpt>
<trkpt lat="46.2160110473632812" lon="7.8522648811340332"><ele></ele><time>2014-10-15T20:12:36Z</time></trkpt>
<trkpt lat="46.2158775329589844" lon="7.8520941734313965"><ele></ele><time>2014-10-15T20:12:39Z</time></trkpt>
<trkpt lat="46.2158012390136719" lon="7.8519711494445801"><ele></ele><time>2014-10-15T20:12:42Z</time></trkpt>
<trkpt lat="46.2157325744628906" lon="7.8518795967102051"><ele></ele><time>2014-10-15T20:12:45Z</time></trkpt>
<trkpt lat="46.2156677246093750" lon="7.8518309593200684"><ele></ele><time>2014-10-15T20:12:48Z</time></trkpt>
<trkpt lat="46.2155799865722656" lon="7.8517818450927734"><ele></ele><time>2014-10-15T20:12:51Z</time></trkpt>
<trkpt lat="46.2155189514160156" lon="7.8516998291015625"><ele></ele><time>2014-10-15T20:12:54Z</time></trkpt>
<trkpt lat="46.2154617309570312" lon="7.8515472412109375"><ele></ele><time>2014-10-15T20:12:57Z</time></trkpt>
<trkpt lat="46.2152976989746094" lon="7.8513469696044922"><ele></ele><time>2014-10-15T20:13:0Z</time></trkpt>
<trkpt lat="46.2151679992675781" lon="7.8512701988220215"><ele></ele><time>2014-10-15T20:13:3Z</time></trkpt>
<trkpt lat="46.2149734497070312" lon="7.8512187004089355"><ele></ele><time>2014-10-15T20:13:6Z</time></trkpt>
<trkpt lat="46.2148513793945312" lon="7.8511548042297363"><ele></ele><time>2014-10-15T20:13:9Z</time></trkpt>
<trkpt lat="46.2146911621093750" lon="7.8509998321533203"><ele></ele><time>2014-10-15T20:13:12Z</time></trkpt>
<trkpt lat="46.2145309448242188" lon="7.8508834838867188"><ele></ele><time>2014-10-15T20:13:15Z</time></trkpt>
<trkpt lat="46.2143783569335938" lon="7.8507771492004395"><ele></ele><time>2014-10-15T20:13:18Z</time></trkpt>
<trkpt lat="46.2142982482910156" lon="7.8507175445556641"><ele></ele><time>2014-10-15T20:13:21Z</time></trkpt>
<trkpt lat="46.2141799926757812" lon="7.8507432937622070"><ele></ele><time>2014-10-15T20:13:24Z</time></trkpt>
<trkpt lat="46.2139816284179688" lon="7.8509202003479004"><ele></ele><time>2014-10-15T20:13:27Z</time></trkpt>
<trkpt lat="46.2138023376464844" lon="7.8510155677795410"><ele></ele><time>2014-10-15T20:13:30Z</time></trkpt>
<trkpt lat="46.2136917114257812" lon="7.8509855270385742"><ele></ele><time>2014-10-15T20:13:33Z</time></trkpt>
<trkpt lat="46.2136001586914062" lon="7.8510155677795410"><ele></ele><time>2014-10-15T20:13:36Z</time></trkpt>
<trkpt lat="46.2135124206542969" lon="7.8510470390319824"><ele></ele><time>2014-10-15T20:13:39Z</time></trkpt>
<trkpt lat="46.2133483886718750" lon="7.8511013984680176"><ele></ele><time>2014-10-15T20:13:42Z</time></trkpt>
<trkpt lat="46.2131843566894531" lon="7.8511843681335449"><ele></ele><time>2014-10-15T20:13:45Z</time></trkpt>
<trkpt lat="46.2130355834960938" lon="7.8512358665466309"><ele></ele><time>2014-10-15T20:13:48Z</time></trkpt>
<trkpt lat="46.2129364013671875" lon="7.8512487411499023"><ele></ele><time>2014-10-15T20:13:51Z</time></trkpt>
<trkpt lat="46.2128295898437500" lon="7.8512358665466309"><ele></ele><time>2014-10-15T20:13:54Z</time></trkpt>
<trkpt lat="46.2127952575683594" lon="7.8511962890625000"><ele></ele><time>2014-10-15T20:13:57Z</time></trkpt>
<trkpt lat="46.2127227783203125" lon="7.8511986732482910"><ele></ele><time>2014-10-15T20:14:0Z</time></trkpt>
<trkpt lat="46.2125663757324219" lon="7.8512673377990723"><ele></ele><time>2014-10-15T20:14:3Z</time></trkpt>
<trkpt lat="46.2124710083007812" lon="7.8513102531433105"><ele></ele><time>2014-10-15T20:14:6Z</time></trkpt>
<trkpt lat="46.2123527526855469" lon="7.8513760566711426"><ele></ele><time>2014-10-15T20:14:9Z</time></trkpt>
<trkpt lat="46.2122535705566406" lon="7.8514299392700195"><ele></ele><time>2014-10-15T20:14:12Z</time></trkpt>
<trkpt lat="46.2121009826660156" lon="7.8515043258666992"><ele></ele><time>2014-10-15T20:14:15Z</time></trkpt>
<trkpt lat="46.2119979858398438" lon="7.8515720367431641"><ele></ele><time>2014-10-15T20:14:18Z</time></trkpt>
<trkpt lat="46.2118606567382812" lon="7.8516316413879395"><ele></ele><time>2014-10-15T20:14:21Z</time></trkpt>
<trkpt lat="46.2117729187011719" lon="7.8516125679016113"><ele></ele><time>2014-10-15T20:14:24Z</time></trkpt>
<trkpt lat="46.2116279602050781" lon="7.8516564369201660"><ele></ele><time>2014-10-15T20:14:27Z</time></trkpt>
<trkpt lat="46.2114830017089844" lon="7.8517212867736816"><ele></ele><time>2014-10-15T20:14:30Z</time></trkpt>
<trkpt lat="46.2113800048828125" lon="7.8516306877136230"><ele></ele><time>2014-10-15T20:14:33Z</time></trkpt>
<trkpt lat="46.2112922668457031" lon="7.8515882492065430"><ele></ele><time>2014-10-15T20:14:36Z</time></trkpt>
<trkpt lat="46.2110977172851562" lon="7.8516273498535156"><ele></ele><time>2014-10-15T20:14:39Z</time></trkpt>
<trkpt lat="46.2109832763671875" lon="7.8516974449157715"><ele></ele><time>2014-10-15T20:14:42Z</time></trkpt>
<trkpt lat="46.2108764648437500" lon="7.8517518043518066"><ele></ele><time>2014-10-15T20:14:45Z</time></trkpt>
<trkpt lat="46.2107963562011719" lon="7.8517985343933105"><ele></ele><time>2014-10-15T20:14:48Z</time></trkpt>
<trkpt lat="46.2107582092285156" lon="7.8518409729003906"><ele></ele><time>2014-10-15T20:14:51Z</time></trkpt>
<trkpt lat="46.2107048034667969" lon="7.8519234657287598"><ele></ele><time>2014-10-15T20:14:54Z</time></trkpt>
<trkpt lat="46.2105445861816406" lon="7.8520750999450684"><ele></ele><time>2014-10-15T20:14:57Z</time></trkpt>
<trkpt lat="46.2104454040527344" lon="7.8521919250488281"><ele></ele><time>2014-10-15T20:15:0Z</time></trkpt>
<trkpt lat="46.2103576660156250" lon="7.8522386550903320"><ele></ele><time>2014-10-15T20:15:3Z</time></trkpt>
<trkpt lat="46.2103652954101562" lon="7.8522286415100098"><ele></ele><time>2014-10-15T20:15:6Z</time></trkpt>
<trkpt lat="46.2103729248046875" lon="7.8522171974182129"><ele></ele><time>2014-10-15T20:15:9Z</time></trkpt>
<trkpt lat="46.2103729248046875" lon="7.8522005081176758"><ele></ele><time>2014-10-15T20:15:12Z</time></trkpt>
<trkpt lat="46.2103462219238281" lon="7.8522076606750488"><ele></ele><time>2014-10-15T20:15:15Z</time></trkpt>
<trkpt lat="46.2103080749511719" lon="7.8522095680236816"><ele></ele><time>2014-10-15T20:15:18Z</time></trkpt>
<trkpt lat="46.2102890014648438" lon="7.8522057533264160"><ele></ele><time>2014-10-15T20:15:21Z</time></trkpt>
<trkpt lat="46.2102584838867188" lon="7.8521833419799805"><ele></ele><time>2014-10-15T20:15:24Z</time></trkpt>
<trkpt lat="46.2102317810058594" lon="7.8521671295166016"><ele></ele><time>2014-10-15T20:15:27Z</time></trkpt>
<trkpt lat="46.2102050781250000" lon="7.8521466255187988"><ele></ele><time>2014-10-15T20:15:30Z</time></trkpt>
<trkpt lat="46.2101593017578125" lon="7.8521351814270020"><ele></ele><time>2014-10-15T20:15:33Z</time></trkpt>
<trkpt lat="46.2101249694824219" lon="7.8521418571472168"><ele></ele><time>2014-10-15T20:15:36Z</time></trkpt>
<trkpt lat="46.2100830078125000" lon="7.8521494865417480"><ele></ele><time>2014-10-15T20:15:39Z</time></trkpt>
<trkpt lat="46.2100524902343750" lon="7.8521509170532227"><ele></ele><time>2014-10-15T20:15:42Z</time></trkpt>
<trkpt lat="46.2100296020507812" lon="7.8521537780761719"><ele></ele><time>2014-10-15T20:15:45Z</time></trkpt>
<trkpt lat="46.2099876403808594" lon="7.8521571159362793"><ele></ele><time>2014-10-15T20:15:48Z</time></trkpt>
<trkpt lat="46.2099685668945312" lon="7.8521585464477539"><ele></ele><time>2014-10-15T20:15:51Z</time></trkpt>
<trkpt lat="46.2099418640136719" lon="7.8521685600280762"><ele></ele><time>2014-10-15T20:15:54Z</time></trkpt>
<trkpt lat="46.2099037170410156" lon="7.8521819114685059"><ele></ele><time>2014-10-15T20:15:57Z</time></trkpt>
<trkpt lat="46.2098541259765625" lon="7.8522047996520996"><ele></ele><time>2014-10-15T20:16:0Z</time></trkpt>
<trkpt lat="46.2097854614257812" lon="7.8522429466247559"><ele></ele><time>2014-10-15T20:16:3Z</time></trkpt>
<trkpt lat="46.2097320556640625" lon="7.8522849082946777"><ele></ele><time>2014-10-15T20:16:6Z</time></trkpt>
<trkpt lat="46.2096366882324219" lon="7.8524117469787598"><ele></ele><time>2014-10-15T20:16:9Z</time></trkpt>
<trkpt lat="46.2095260620117188" lon="7.8525485992431641"><ele></ele><time>2014-10-15T20:16:12Z</time></trkpt>
<trkpt lat="46.2093429565429688" lon="7.8526678085327148"><ele></ele><time>2014-10-15T20:16:15Z</time></trkpt>
<trkpt lat="46.2092399597167969" lon="7.8526353836059570"><ele></ele><time>2014-10-15T20:16:18Z</time></trkpt>
<trkpt lat="46.2091102600097656" lon="7.8525190353393555"><ele></ele><time>2014-10-15T20:16:21Z</time></trkpt>
<trkpt lat="46.2089538574218750" lon="7.8524761199951172"><ele></ele><time>2014-10-15T20:16:24Z</time></trkpt>
<trkpt lat="46.2087059020996094" lon="7.8524966239929199"><ele></ele><time>2014-10-15T20:16:27Z</time></trkpt>
<trkpt lat="46.2085075378417969" lon="7.8524379730224609"><ele></ele><time>2014-10-15T20:16:30Z</time></trkpt>
<trkpt lat="46.2083396911621094" lon="7.8522577285766602"><ele></ele><time>2014-10-15T20:16:33Z</time></trkpt>
<trkpt lat="46.2082748413085938" lon="7.8520956039428711"><ele></ele><time>2014-10-15T20:16:36Z</time></trkpt>
<trkpt lat="46.2082099914550781" lon="7.8518710136413574"><ele></ele><time>2014-10-15T20:16:39Z</time></trkpt>
<trkpt lat="46.2081680297851562" lon="7.8514242172241211"><ele></ele><time>2014-10-15T20:16:42Z</time></trkpt>
<trkpt lat="46.2081413269042969" lon="7.8513669967651367"><ele></ele><time>2014-10-15T20:16:45Z</time></trkpt>
<trkpt lat="46.2080001831054688" lon="7.8513441085815430"><ele></ele><time>2014-10-15T20:16:48Z</time></trkpt>
<trkpt lat="46.2079048156738281" lon="7.8512368202209473"><ele></ele><time>2014-10-15T20:16:51Z</time></trkpt>
<trkpt lat="46.2078056335449219" lon="7.8509054183959961"><ele></ele><time>2014-10-15T20:16:54Z</time></trkpt>
<trkpt lat="46.2077827453613281" lon="7.8505983352661133"><ele></ele><time>2014-10-15T20:16:57Z</time></trkpt>
<trkpt lat="46.2077674865722656" lon="7.8502678871154785"><ele></ele><time>2014-10-15T20:17:0Z</time></trkpt>
<trkpt lat="46.2077789306640625" lon="7.8500452041625977"><ele></ele><time>2014-10-15T20:17:3Z</time></trkpt>
<trkpt lat="46.2077865600585938" lon="7.8497676849365234"><ele></ele><time>2014-10-15T20:17:6Z</time></trkpt>
<trkpt lat="46.2077636718750000" lon="7.8496155738830566"><ele></ele><time>2014-10-15T20:17:9Z</time></trkpt>
<trkpt lat="46.2077064514160156" lon="7.8494772911071777"><ele></ele><time>2014-10-15T20:17:12Z</time></trkpt>
<trkpt lat="46.2076454162597656" lon="7.8493800163269043"><ele></ele><time>2014-10-15T20:17:15Z</time></trkpt>
<trkpt lat="46.2075843811035156" lon="7.8492860794067383"><ele></ele><time>2014-10-15T20:17:18Z</time></trkpt>
<trkpt lat="46.2074851989746094" lon="7.8491377830505371"><ele></ele><time>2014-10-15T20:17:21Z</time></trkpt>
<trkpt lat="46.2074203491210938" lon="7.8490519523620605"><ele></ele><time>2014-10-15T20:17:24Z</time></trkpt>
<trkpt lat="46.2073249816894531" lon="7.8489670753479004"><ele></ele><time>2014-10-15T20:17:27Z</time></trkpt>
<trkpt lat="46.2072525024414062" lon="7.8488440513610840"><ele></ele><time>2014-10-15T20:17:30Z</time></trkpt>
<trkpt lat="46.2072296142578125" lon="7.8487086296081543"><ele></ele><time>2014-10-15T20:17:33Z</time></trkpt>
<trkpt lat="46.2072372436523438" lon="7.8486247062683105"><ele></ele><time>2014-10-15T20:17:36Z</time></trkpt>
<trkpt lat="46.2072257995605469" lon="7.8485364913940430"><ele></ele><time>2014-10-15T20:17:39Z</time></trkpt>
<trkpt lat="46.2071800231933594" lon="7.8484559059143066"><ele></ele><time>2014-10-15T20:17:42Z</time></trkpt>
<trkpt lat="46.2071342468261719" lon="7.8483390808105469"><ele></ele><time>2014-10-15T20:17:45Z</time></trkpt>
<trkpt lat="46.2070922851562500" lon="7.8481659889221191"><ele></ele><time>2014-10-15T20:17:48Z</time></trkpt>
<trkpt lat="46.2070655822753906" lon="7.8480081558227539"><ele></ele><time>2014-10-15T20:17:51Z</time></trkpt>
<trkpt lat="46.2070426940917969" lon="7.8477296829223633"><ele></ele><time>2014-10-15T20:17:54Z</time></trkpt>
<trkpt lat="46.2070312500000000" lon="7.8475790023803711"><ele></ele><time>2014-10-15T20:17:57Z</time></trkpt>
<trkpt lat="46.2070350646972656" lon="7.8474740982055664"><ele></ele><time>2014-10-15T20:18:0Z</time></trkpt>
<trkpt lat="46.2070503234863281" lon="7.8473391532897949"><ele></ele><time>2014-10-15T20:18:3Z</time></trkpt>
<trkpt lat="46.2070617675781250" lon="7.8471717834472656"><ele></ele><time>2014-10-15T20:18:6Z</time></trkpt>
<trkpt lat="46.2070426940917969" lon="7.8470487594604492"><ele></ele><time>2014-10-15T20:18:9Z</time></trkpt>
<trkpt lat="46.2070198059082031" lon="7.8468966484069824"><ele></ele><time>2014-10-15T20:18:12Z</time></trkpt>
<trkpt lat="46.2070236206054688" lon="7.8466362953186035"><ele></ele><time>2014-10-15T20:18:15Z</time></trkpt>
<trkpt lat="46.2069969177246094" lon="7.8464913368225098"><ele></ele><time>2014-10-15T20:18:18Z</time></trkpt>
<trkpt lat="46.2069549560546875" lon="7.8462257385253906"><ele></ele><time>2014-10-15T20:18:21Z</time></trkpt>
<trkpt lat="46.2069244384765625" lon="7.8458895683288574"><ele></ele><time>2014-10-15T20:18:24Z</time></trkpt>
<trkpt lat="46.2069244384765625" lon="7.8456783294677734"><ele></ele><time>2014-10-15T20:18:27Z</time></trkpt>
<trkpt lat="46.2068862915039062" lon="7.8453960418701172"><ele></ele><time>2014-10-15T20:18:30Z</time></trkpt>
<trkpt lat="46.2068290710449219" lon="7.8452482223510742"><ele></ele><time>2014-10-15T20:18:33Z</time></trkpt>
<trkpt lat="46.2067680358886719" lon="7.8450055122375488"><ele></ele><time>2014-10-15T20:18:36Z</time></trkpt>
<trkpt lat="46.2067527770996094" lon="7.8448371887207031"><ele></ele><time>2014-10-15T20:18:39Z</time></trkpt>
<trkpt lat="46.2067298889160156" lon="7.8446555137634277"><ele></ele><time>2014-10-15T20:18:42Z</time></trkpt>
<trkpt lat="46.2066421508789062" lon="7.8438615798950195"><ele></ele><time>2014-10-15T20:18:45Z</time></trkpt>
<trkpt lat="46.2066345214843750" lon="7.8434023857116699"><ele></ele><time>2014-10-15T20:18:48Z</time></trkpt>
<trkpt lat="46.2065124511718750" lon="7.8430347442626953"><ele></ele><time>2014-10-15T20:18:51Z</time></trkpt>
<trkpt lat="46.2063636779785156" lon="7.8426170349121094"><ele></ele><time>2014-10-15T20:18:54Z</time></trkpt>
<trkpt lat="46.2063140869140625" lon="7.8423953056335449"><ele></ele><time>2014-10-15T20:18:57Z</time></trkpt>
<trkpt lat="46.2062492370605469" lon="7.8421382904052734"><ele></ele><time>2014-10-15T20:19:0Z</time></trkpt>
<trkpt lat="46.2061729431152344" lon="7.8418807983398438"><ele></ele><time>2014-10-15T20:19:3Z</time></trkpt>
<trkpt lat="46.2060813903808594" lon="7.8416261672973633"><ele></ele><time>2014-10-15T20:19:6Z</time></trkpt>
<trkpt lat="46.2059059143066406" lon="7.8413052558898926"><ele></ele><time>2014-10-15T20:19:9Z</time></trkpt>
<trkpt lat="46.2058296203613281" lon="7.8410716056823730"><ele></ele><time>2014-10-15T20:19:12Z</time></trkpt>
<trkpt lat="46.2057800292968750" lon="7.8408489227294922"><ele></ele><time>2014-10-15T20:19:15Z</time></trkpt>
<trkpt lat="46.2058029174804688" lon="7.8408527374267578"><ele></ele><time>2014-10-15T20:19:18Z</time></trkpt>
<trkpt lat="46.2058448791503906" lon="7.8408746719360352"><ele></ele><time>2014-10-15T20:19:21Z</time></trkpt>
<trkpt lat="46.2060432434082031" lon="7.8410277366638184"><ele></ele><time>2014-10-15T20:19:24Z</time></trkpt>
<trkpt lat="46.2061080932617188" lon="7.8410687446594238"><ele></ele><time>2014-10-15T20:19:27Z</time></trkpt>
<trkpt lat="46.2061004638671875" lon="7.8409914970397949"><ele></ele><time>2014-10-15T20:19:30Z</time></trkpt>
<trkpt lat="46.2060203552246094" lon="7.8406248092651367"><ele></ele><time>2014-10-15T20:19:33Z</time></trkpt>
<trkpt lat="46.2060203552246094" lon="7.8404011726379395"><ele></ele><time>2014-10-15T20:19:36Z</time></trkpt>
<trkpt lat="46.2060203552246094" lon="7.8402295112609863"><ele></ele><time>2014-10-15T20:19:39Z</time></trkpt>
<trkpt lat="46.2059974670410156" lon="7.8400306701660156"><ele></ele><time>2014-10-15T20:19:42Z</time></trkpt>
<trkpt lat="46.2059440612792969" lon="7.8398275375366211"><ele></ele><time>2014-10-15T20:19:45Z</time></trkpt>
<trkpt lat="46.2058448791503906" lon="7.8396034240722656"><ele></ele><time>2014-10-15T20:19:48Z</time></trkpt>
<trkpt lat="46.2057189941406250" lon="7.8394536972045898"><ele></ele><time>2014-10-15T20:19:51Z</time></trkpt>
<trkpt lat="46.2055587768554688" lon="7.8392224311828613"><ele></ele><time>2014-10-15T20:19:54Z</time></trkpt>
<trkpt lat="46.2054023742675781" lon="7.8389849662780762"><ele></ele><time>2014-10-15T20:19:57Z</time></trkpt>
<trkpt lat="46.2052154541015625" lon="7.8387031555175781"><ele></ele><time>2014-10-15T20:20:0Z</time></trkpt>
<trkpt lat="46.2050437927246094" lon="7.8383836746215820"><ele></ele><time>2014-10-15T20:20:3Z</time></trkpt>
<trkpt lat="46.2048187255859375" lon="7.8381309509277344"><ele></ele><time>2014-10-15T20:20:6Z</time></trkpt>
<trkpt lat="46.2047004699707031" lon="7.8378939628601074"><ele></ele><time>2014-10-15T20:20:9Z</time></trkpt>
<trkpt lat="46.2046012878417969" lon="7.8377389907836914"><ele></ele><time>2014-10-15T20:20:12Z</time></trkpt>
<trkpt lat="46.2044258117675781" lon="7.8375406265258789"><ele></ele><time>2014-10-15T20:20:15Z</time></trkpt>
<trkpt lat="46.2043075561523438" lon="7.8373990058898926"><ele></ele><time>2014-10-15T20:20:18Z</time></trkpt>
<trkpt lat="46.2041473388671875" lon="7.8372755050659180"><ele></ele><time>2014-10-15T20:20:21Z</time></trkpt>
<trkpt lat="46.2040023803710938" lon="7.8371682167053223"><ele></ele><time>2014-10-15T20:20:24Z</time></trkpt>
<trkpt lat="46.2038803100585938" lon="7.8370575904846191"><ele></ele><time>2014-10-15T20:20:27Z</time></trkpt>
<trkpt lat="46.2037391662597656" lon="7.8368082046508789"><ele></ele><time>2014-10-15T20:20:30Z</time></trkpt>
<trkpt lat="46.2036247253417969" lon="7.8366980552673340"><ele></ele><time>2014-10-15T20:20:33Z</time></trkpt>
<trkpt lat="46.2034721374511719" lon="7.8365235328674316"><ele></ele><time>2014-10-15T20:20:36Z</time></trkpt>
<trkpt lat="46.2033233642578125" lon="7.8363804817199707"><ele></ele><time>2014-10-15T20:20:39Z</time></trkpt>
<trkpt lat="46.2032623291015625" lon="7.8363418579101562"><ele></ele><time>2014-10-15T20:20:42Z</time></trkpt>
<trkpt lat="46.2032890319824219" lon="7.8363099098205566"><ele></ele><time>2014-10-15T20:20:45Z</time></trkpt>
<trkpt lat="46.2033309936523438" lon="7.8362541198730469"><ele></ele><time>2014-10-15T20:20:48Z</time></trkpt>
<trkpt lat="46.2032432556152344" lon="7.8361392021179199"><ele></ele><time>2014-10-15T20:20:51Z</time></trkpt>
<trkpt lat="46.2031097412109375" lon="7.8359570503234863"><ele></ele><time>2014-10-15T20:20:54Z</time></trkpt>
<trkpt lat="46.2029380798339844" lon="7.8357129096984863"><ele></ele><time>2014-10-15T20:20:57Z</time></trkpt>
<trkpt lat="46.2027130126953125" lon="7.8353552818298340"><ele></ele><time>2014-10-15T20:21:0Z</time></trkpt>
<trkpt lat="46.2025184631347656" lon="7.8350214958190918"><ele></ele><time>2014-10-15T20:21:3Z</time></trkpt>
<trkpt lat="46.2023735046386719" lon="7.8347654342651367"><ele></ele><time>2014-10-15T20:21:6Z</time></trkpt>
<trkpt lat="46.2022132873535156" lon="7.8344917297363281"><ele></ele><time>2014-10-15T20:21:9Z</time></trkpt>
<trkpt lat="46.2021598815917969" lon="7.8343977928161621"><ele></ele><time>2014-10-15T20:21:12Z</time></trkpt>
<trkpt lat="46.2021446228027344" lon="7.8343696594238281"><ele></ele><time>2014-10-15T20:21:15Z</time></trkpt>
<trkpt lat="46.2021598815917969" lon="7.8344020843505859"><ele></ele><time>2014-10-15T20:21:18Z</time></trkpt>
<trkpt lat="46.2021865844726562" lon="7.8344392776489258"><ele></ele><time>2014-10-15T20:21:21Z</time></trkpt>
<trkpt lat="46.2022628784179688" lon="7.8344230651855469"><ele></ele><time>2014-10-15T20:21:24Z</time></trkpt>
<trkpt lat="46.2022781372070312" lon="7.8344230651855469"><ele></ele><time>2014-10-15T20:21:27Z</time></trkpt>
<trkpt lat="46.2023124694824219" lon="7.8344354629516602"><ele></ele><time>2014-10-15T20:21:30Z</time></trkpt>
<trkpt lat="46.2023315429687500" lon="7.8344216346740723"><ele></ele><time>2014-10-15T20:21:33Z</time></trkpt>
<trkpt lat="46.2023239135742188" lon="7.8343529701232910"><ele></ele><time>2014-10-15T20:21:36Z</time></trkpt>
<trkpt lat="46.2022933959960938" lon="7.8342452049255371"><ele></ele><time>2014-10-15T20:21:39Z</time></trkpt>
<trkpt lat="46.2021141052246094" lon="7.8338489532470703"><ele></ele><time>2014-10-15T20:21:42Z</time></trkpt>
<trkpt lat="46.2020530700683594" lon="7.8337087631225586"><ele></ele><time>2014-10-15T20:21:45Z</time></trkpt>
<trkpt lat="46.2020378112792969" lon="7.8336386680603027"><ele></ele><time>2014-10-15T20:21:48Z</time></trkpt>
<trkpt lat="46.2020225524902344" lon="7.8335394859313965"><ele></ele><time>2014-10-15T20:21:51Z</time></trkpt>
<trkpt lat="46.2019882202148438" lon="7.8334026336669922"><ele></ele><time>2014-10-15T20:21:54Z</time></trkpt>
<trkpt lat="46.2019729614257812" lon="7.8334197998046875"><ele></ele><time>2014-10-15T20:21:57Z</time></trkpt>
<trkpt lat="46.2020111083984375" lon="7.8334321975708008"><ele></ele><time>2014-10-15T20:22:0Z</time></trkpt>
<trkpt lat="46.2020225524902344" lon="7.8333902359008789"><ele></ele><time>2014-10-15T20:22:3Z</time></trkpt>
<trkpt lat="46.2020454406738281" lon="7.8333292007446289"><ele></ele><time>2014-10-15T20:22:6Z</time></trkpt>
<trkpt lat="46.2021102905273438" lon="7.8333358764648438"><ele></ele><time>2014-10-15T20:22:9Z</time></trkpt>
<trkpt lat="46.2022476196289062" lon="7.8334259986877441"><ele></ele><time>2014-10-15T20:22:12Z</time></trkpt>
<trkpt lat="46.2023925781250000" lon="7.8335499763488770"><ele></ele><time>2014-10-15T20:22:15Z</time></trkpt>
<trkpt lat="46.2024726867675781" lon="7.8336396217346191"><ele></ele><time>2014-10-15T20:22:18Z</time></trkpt>
<trkpt lat="46.2025146484375000" lon="7.8336343765258789"><ele></ele><time>2014-10-15T20:22:21Z</time></trkpt>
<trkpt lat="46.2025337219238281" lon="7.8335428237915039"><ele></ele><time>2014-10-15T20:22:24Z</time></trkpt>
<trkpt lat="46.2025146484375000" lon="7.8334302902221680"><ele></ele><time>2014-10-15T20:22:27Z</time></trkpt>
<trkpt lat="46.2025108337402344" lon="7.8333902359008789"><ele></ele><time>2014-10-15T20:22:30Z</time></trkpt>
<trkpt lat="46.2025260925292969" lon="7.8333663940429688"><ele></ele><time>2014-10-15T20:22:33Z</time></trkpt>
<trkpt lat="46.2025680541992188" lon="7.8333907127380371"><ele></ele><time>2014-10-15T20:22:36Z</time></trkpt>
<trkpt lat="46.2026023864746094" lon="7.8334126472473145"><ele></ele><time>2014-10-15T20:22:39Z</time></trkpt>
<trkpt lat="46.2026062011718750" lon="7.8333420753479004"><ele></ele><time>2014-10-15T20:22:42Z</time></trkpt>
<trkpt lat="46.2025680541992188" lon="7.8332500457763672"><ele></ele><time>2014-10-15T20:22:45Z</time></trkpt>
<trkpt lat="46.2025146484375000" lon="7.8331375122070312"><ele></ele><time>2014-10-15T20:22:48Z</time></trkpt>
<trkpt lat="46.2024993896484375" lon="7.8330988883972168"><ele></ele><time>2014-10-15T20:22:51Z</time></trkpt>
<trkpt lat="46.2024841308593750" lon="7.8330678939819336"><ele></ele><time>2014-10-15T20:22:54Z</time></trkpt>
<trkpt lat="46.2025299072265625" lon="7.8330578804016113"><ele></ele><time>2014-10-15T20:22:57Z</time></trkpt>
<trkpt lat="46.2025299072265625" lon="7.8330307006835938"><ele></ele><time>2014-10-15T20:23:0Z</time></trkpt>
<trkpt lat="46.2025070190429688" lon="7.8329863548278809"><ele></ele><time>2014-10-15T20:23:3Z</time></trkpt>
<trkpt lat="46.2025070190429688" lon="7.8329396247863770"><ele></ele><time>2014-10-15T20:23:6Z</time></trkpt>
<trkpt lat="46.2025299072265625" lon="7.8329205513000488"><ele></ele><time>2014-10-15T20:23:9Z</time></trkpt>
<trkpt lat="46.2025451660156250" lon="7.8328456878662109"><ele></ele><time>2014-10-15T20:23:12Z</time></trkpt>
<trkpt lat="46.2025451660156250" lon="7.8327937126159668"><ele></ele><time>2014-10-15T20:23:15Z</time></trkpt>
<trkpt lat="46.2025642395019531" lon="7.8327527046203613"><ele></ele><time>2014-10-15T20:23:18Z</time></trkpt>
<trkpt lat="46.2025909423828125" lon="7.8327589035034180"><ele></ele><time>2014-10-15T20:23:21Z</time></trkpt>
<trkpt lat="46.2026023864746094" lon="7.8327269554138184"><ele></ele><time>2014-10-15T20:23:24Z</time></trkpt>
<trkpt lat="46.2025756835937500" lon="7.8326244354248047"><ele></ele><time>2014-10-15T20:23:27Z</time></trkpt>
<trkpt lat="46.2025489807128906" lon="7.8325233459472656"><ele></ele><time>2014-10-15T20:23:30Z</time></trkpt>
<trkpt lat="46.2025032043457031" lon="7.8324732780456543"><ele></ele><time>2014-10-15T20:23:33Z</time></trkpt>
<trkpt lat="46.2024307250976562" lon="7.8324422836303711"><ele></ele><time>2014-10-15T20:23:36Z</time></trkpt>
<trkpt lat="46.2024116516113281" lon="7.8323836326599121"><ele></ele><time>2014-10-15T20:23:39Z</time></trkpt>
<trkpt lat="46.2023925781250000" lon="7.8322992324829102"><ele></ele><time>2014-10-15T20:23:42Z</time></trkpt>
<trkpt lat="46.2023620605468750" lon="7.8322534561157227"><ele></ele><time>2014-10-15T20:23:45Z</time></trkpt>
<trkpt lat="46.2023582458496094" lon="7.8321943283081055"><ele></ele><time>2014-10-15T20:23:48Z</time></trkpt>
<trkpt lat="46.2023925781250000" lon="7.8321757316589355"><ele></ele><time>2014-10-15T20:23:51Z</time></trkpt>
<trkpt lat="46.2023925781250000" lon="7.8321208953857422"><ele></ele><time>2014-10-15T20:23:54Z</time></trkpt>
<trkpt lat="46.2023811340332031" lon="7.8320727348327637"><ele></ele><time>2014-10-15T20:23:57Z</time></trkpt>
<trkpt lat="46.2023124694824219" lon="7.8317799568176270"><ele></ele><time>2014-10-15T20:24:0Z</time></trkpt>
<trkpt lat="46.2022666931152344" lon="7.8316588401794434"><ele></ele><time>2014-10-15T20:24:3Z</time></trkpt>
<trkpt lat="46.2022438049316406" lon="7.8316478729248047"><ele></ele><time>2014-10-15T20:24:6Z</time></trkpt>
<trkpt lat="46.2022438049316406" lon="7.8315892219543457"><ele></ele><time>2014-10-15T20:24:9Z</time></trkpt>
<trkpt lat="46.2022705078125000" lon="7.8315548896789551"><ele></ele><time>2014-10-15T20:24:12Z</time></trkpt>
<trkpt lat="46.2022476196289062" lon="7.8315286636352539"><ele></ele><time>2014-10-15T20:24:15Z</time></trkpt>
<trkpt lat="46.2022323608398438" lon="7.8314790725708008"><ele></ele><time>2014-10-15T20:24:18Z</time></trkpt>
<trkpt lat="46.2022819519042969" lon="7.8314452171325684"><ele></ele><time>2014-10-15T20:24:21Z</time></trkpt>
<trkpt lat="46.2023506164550781" lon="7.8314485549926758"><ele></ele><time>2014-10-15T20:24:24Z</time></trkpt>
<trkpt lat="46.2024192810058594" lon="7.8314371109008789"><ele></ele><time>2014-10-15T20:24:27Z</time></trkpt>
<trkpt lat="46.2024459838867188" lon="7.8314385414123535"><ele></ele><time>2014-10-15T20:24:30Z</time></trkpt>
<trkpt lat="46.2024650573730469" lon="7.8314223289489746"><ele></ele><time>2014-10-15T20:24:33Z</time></trkpt>
<trkpt lat="46.2025108337402344" lon="7.8314304351806641"><ele></ele><time>2014-10-15T20:24:36Z</time></trkpt>
<trkpt lat="46.2025833129882812" lon="7.8314552307128906"><ele></ele><time>2014-10-15T20:24:39Z</time></trkpt>
<trkpt lat="46.2026977539062500" lon="7.8314542770385742"><ele></ele><time>2014-10-15T20:24:42Z</time></trkpt>
<trkpt lat="46.2027320861816406" lon="7.8313908576965332"><ele></ele><time>2014-10-15T20:24:45Z</time></trkpt>
<trkpt lat="46.2026901245117188" lon="7.8312625885009766"><ele></ele><time>2014-10-15T20:24:48Z</time></trkpt>
<trkpt lat="46.2026329040527344" lon="7.8311567306518555"><ele></ele><time>2014-10-15T20:24:51Z</time></trkpt>
<trkpt lat="46.2026062011718750" lon="7.8310885429382324"><ele></ele><time>2014-10-15T20:24:54Z</time></trkpt>
<trkpt lat="46.2026290893554688" lon="7.8311038017272949"><ele></ele><time>2014-10-15T20:24:57Z</time></trkpt>
<trkpt lat="46.2027091979980469" lon="7.8311882019042969"><ele></ele><time>2014-10-15T20:25:0Z</time></trkpt>
<trkpt lat="46.2028045654296875" lon="7.8312563896179199"><ele></ele><time>2014-10-15T20:25:3Z</time></trkpt>
<trkpt lat="46.2029266357421875" lon="7.8314003944396973"><ele></ele><time>2014-10-15T20:25:6Z</time></trkpt>
<trkpt lat="46.2029647827148438" lon="7.8313298225402832"><ele></ele><time>2014-10-15T20:25:9Z</time></trkpt>
<trkpt lat="46.2029457092285156" lon="7.8310813903808594"><ele></ele><time>2014-10-15T20:25:12Z</time></trkpt>
<trkpt lat="46.2028579711914062" lon="7.8308739662170410"><ele></ele><time>2014-10-15T20:25:15Z</time></trkpt>
<trkpt lat="46.2027854919433594" lon="7.8307809829711914"><ele></ele><time>2014-10-15T20:25:18Z</time></trkpt>
<trkpt lat="46.2028045654296875" lon="7.8307971954345703"><ele></ele><time>2014-10-15T20:25:21Z</time></trkpt>
<trkpt lat="46.2028350830078125" lon="7.8308362960815430"><ele></ele><time>2014-10-15T20:25:24Z</time></trkpt>
<trkpt lat="46.2029151916503906" lon="7.8308901786804199"><ele></ele><time>2014-10-15T20:25:27Z</time></trkpt>
<trkpt lat="46.2029685974121094" lon="7.8309154510498047"><ele></ele><time>2014-10-15T20:25:30Z</time></trkpt>
<trkpt lat="46.2030334472656250" lon="7.8309588432312012"><ele></ele><time>2014-10-15T20:25:33Z</time></trkpt>
<trkpt lat="46.2031517028808594" lon="7.8310456275939941"><ele></ele><time>2014-10-15T20:25:36Z</time></trkpt>
<trkpt lat="46.2032089233398438" lon="7.8310904502868652"><ele></ele><time>2014-10-15T20:25:39Z</time></trkpt>
<trkpt lat="46.2032279968261719" lon="7.8310499191284180"><ele></ele><time>2014-10-15T20:25:42Z</time></trkpt>
<trkpt lat="46.2031936645507812" lon="7.8309102058410645"><ele></ele><time>2014-10-15T20:25:45Z</time></trkpt>
<trkpt lat="46.2031555175781250" lon="7.8307557106018066"><ele></ele><time>2014-10-15T20:25:48Z</time></trkpt>
<trkpt lat="46.2030677795410156" lon="7.8305907249450684"><ele></ele><time>2014-10-15T20:25:51Z</time></trkpt>
<trkpt lat="46.2030563354492188" lon="7.8305325508117676"><ele></ele><time>2014-10-15T20:25:54Z</time></trkpt>
<trkpt lat="46.2030143737792969" lon="7.8304305076599121"><ele></ele><time>2014-10-15T20:25:57Z</time></trkpt>
<trkpt lat="46.2029380798339844" lon="7.8303470611572266"><ele></ele><time>2014-10-15T20:26:0Z</time></trkpt>
<trkpt lat="46.2029037475585938" lon="7.8303089141845703"><ele></ele><time>2014-10-15T20:26:3Z</time></trkpt>
<trkpt lat="46.2028808593750000" lon="7.8303046226501465"><ele></ele><time>2014-10-15T20:26:6Z</time></trkpt>
<trkpt lat="46.2028923034667969" lon="7.8303499221801758"><ele></ele><time>2014-10-15T20:26:9Z</time></trkpt>
<trkpt lat="46.2030105590820312" lon="7.8303904533386230"><ele></ele><time>2014-10-15T20:26:12Z</time></trkpt>
<trkpt lat="46.2031288146972656" lon="7.8304433822631836"><ele></ele><time>2014-10-15T20:26:15Z</time></trkpt>
<trkpt lat="46.2031898498535156" lon="7.8304858207702637"><ele></ele><time>2014-10-15T20:26:18Z</time></trkpt>
<trkpt lat="46.2032814025878906" lon="7.8305883407592773"><ele></ele><time>2014-10-15T20:26:21Z</time></trkpt>
<trkpt lat="46.2033653259277344" lon="7.8306708335876465"><ele></ele><time>2014-10-15T20:26:24Z</time></trkpt>
<trkpt lat="46.2034721374511719" lon="7.8307552337646484"><ele></ele><time>2014-10-15T20:26:27Z</time></trkpt>
<trkpt lat="46.2035789489746094" lon="7.8308043479919434"><ele></ele><time>2014-10-15T20:26:30Z</time></trkpt>
<trkpt lat="46.2035865783691406" lon="7.8306727409362793"><ele></ele><time>2014-10-15T20:26:33Z</time></trkpt>
<trkpt lat="46.2034988403320312" lon="7.8304634094238281"><ele></ele><time>2014-10-15T20:26:36Z</time></trkpt>
<trkpt lat="46.2034492492675781" lon="7.8303437232971191"><ele></ele><time>2014-10-15T20:26:39Z</time></trkpt>
<trkpt lat="46.2034111022949219" lon="7.8302249908447266"><ele></ele><time>2014-10-15T20:26:42Z</time></trkpt>
<trkpt lat="46.2033424377441406" lon="7.8299937248229980"><ele></ele><time>2014-10-15T20:26:45Z</time></trkpt>
<trkpt lat="46.2032661437988281" lon="7.8298435211181641"><ele></ele><time>2014-10-15T20:26:48Z</time></trkpt>
<trkpt lat="46.2032165527343750" lon="7.8296823501586914"><ele></ele><time>2014-10-15T20:26:51Z</time></trkpt>
<trkpt lat="46.2031631469726562" lon="7.8295288085937500"><ele></ele><time>2014-10-15T20:26:54Z</time></trkpt>
<trkpt lat="46.2031059265136719" lon="7.8293952941894531"><ele></ele><time>2014-10-15T20:26:57Z</time></trkpt>
<trkpt lat="46.2030448913574219" lon="7.8292708396911621"><ele></ele><time>2014-10-15T20:27:0Z</time></trkpt>
<trkpt lat="46.2029342651367188" lon="7.8291716575622559"><ele></ele><time>2014-10-15T20:27:3Z</time></trkpt>
<trkpt lat="46.2029075622558594" lon="7.8291440010070801"><ele></ele><time>2014-10-15T20:27:6Z</time></trkpt>
<trkpt lat="46.2029647827148438" lon="7.8291535377502441"><ele></ele><time>2014-10-15T20:27:9Z</time></trkpt>
<trkpt lat="46.2032051086425781" lon="7.8293042182922363"><ele></ele><time>2014-10-15T20:27:12Z</time></trkpt>
<trkpt lat="46.2035636901855469" lon="7.8295149803161621"><ele></ele><time>2014-10-15T20:27:15Z</time></trkpt>
<trkpt lat="46.2036743164062500" lon="7.8296546936035156"><ele></ele><time>2014-10-15T20:27:18Z</time></trkpt>
<trkpt lat="46.2037658691406250" lon="7.8296995162963867"><ele></ele><time>2014-10-15T20:27:21Z</time></trkpt>
<trkpt lat="46.2038383483886719" lon="7.8297457695007324"><ele></ele><time>2014-10-15T20:27:24Z</time></trkpt>
<trkpt lat="46.2039146423339844" lon="7.8297891616821289"><ele></ele><time>2014-10-15T20:27:27Z</time></trkpt>
<trkpt lat="46.2039947509765625" lon="7.8298478126525879"><ele></ele><time>2014-10-15T20:27:30Z</time></trkpt>
<trkpt lat="46.2041053771972656" lon="7.8299174308776855"><ele></ele><time>2014-10-15T20:27:33Z</time></trkpt>
<trkpt lat="46.2041931152343750" lon="7.8299655914306641"><ele></ele><time>2014-10-15T20:27:36Z</time></trkpt>
<trkpt lat="46.2043037414550781" lon="7.8300619125366211"><ele></ele><time>2014-10-15T20:27:39Z</time></trkpt>
<trkpt lat="46.2043762207031250" lon="7.8301305770874023"><ele></ele><time>2014-10-15T20:27:42Z</time></trkpt>
<trkpt lat="46.2044982910156250" lon="7.8302373886108398"><ele></ele><time>2014-10-15T20:27:45Z</time></trkpt>
<trkpt lat="46.2046089172363281" lon="7.8303318023681641"><ele></ele><time>2014-10-15T20:27:48Z</time></trkpt>
<trkpt lat="46.2047119140625000" lon="7.8304862976074219"><ele></ele><time>2014-10-15T20:27:51Z</time></trkpt>
<trkpt lat="46.2047615051269531" lon="7.8305902481079102"><ele></ele><time>2014-10-15T20:27:54Z</time></trkpt>
<trkpt lat="46.2048110961914062" lon="7.8306875228881836"><ele></ele><time>2014-10-15T20:27:57Z</time></trkpt>
<trkpt lat="46.2048950195312500" lon="7.8308515548706055"><ele></ele><time>2014-10-15T20:28:0Z</time></trkpt>
<trkpt lat="46.2050094604492188" lon="7.8310017585754395"><ele></ele><time>2014-10-15T20:28:3Z</time></trkpt>
<trkpt lat="46.2051391601562500" lon="7.8311629295349121"><ele></ele><time>2014-10-15T20:28:6Z</time></trkpt>
<trkpt lat="46.2051925659179688" lon="7.8312063217163086"><ele></ele><time>2014-10-15T20:28:9Z</time></trkpt>
<trkpt lat="46.2052383422851562" lon="7.8312602043151855"><ele></ele><time>2014-10-15T20:28:12Z</time></trkpt>
<trkpt lat="46.2052078247070312" lon="7.8313183784484863"><ele></ele><time>2014-10-15T20:28:15Z</time></trkpt>
<trkpt lat="46.2052154541015625" lon="7.8314476013183594"><ele></ele><time>2014-10-15T20:28:18Z</time></trkpt>
<trkpt lat="46.2052726745605469" lon="7.8317265510559082"><ele></ele><time>2014-10-15T20:28:21Z</time></trkpt>
<trkpt lat="46.2053718566894531" lon="7.8319554328918457"><ele></ele><time>2014-10-15T20:28:24Z</time></trkpt>
<trkpt lat="46.2055473327636719" lon="7.8321065902709961"><ele></ele><time>2014-10-15T20:28:27Z</time></trkpt>
<trkpt lat="46.2056655883789062" lon="7.8322272300720215"><ele></ele><time>2014-10-15T20:28:30Z</time></trkpt>
<trkpt lat="46.2057685852050781" lon="7.8323349952697754"><ele></ele><time>2014-10-15T20:28:33Z</time></trkpt>
<trkpt lat="46.2060737609863281" lon="7.8322424888610840"><ele></ele><time>2014-10-15T20:28:36Z</time></trkpt>
<trkpt lat="46.2061920166015625" lon="7.8321480751037598"><ele></ele><time>2014-10-15T20:28:39Z</time></trkpt>
<trkpt lat="46.2062377929687500" lon="7.8320970535278320"><ele></ele><time>2014-10-15T20:28:42Z</time></trkpt>
<trkpt lat="46.2063102722167969" lon="7.8320846557617188"><ele></ele><time>2014-10-15T20:28:45Z</time></trkpt>
<trkpt lat="46.2064056396484375" lon="7.8321084976196289"><ele></ele><time>2014-10-15T20:28:48Z</time></trkpt>
<trkpt lat="46.2064895629882812" lon="7.8321285247802734"><ele></ele><time>2014-10-15T20:28:51Z</time></trkpt>
<trkpt lat="46.2066078186035156" lon="7.8321523666381836"><ele></ele><time>2014-10-15T20:28:54Z</time></trkpt>
<trkpt lat="46.2067108154296875" lon="7.8321876525878906"><ele></ele><time>2014-10-15T20:28:57Z</time></trkpt>
<trkpt lat="46.2068557739257812" lon="7.8322353363037109"><ele></ele><time>2014-10-15T20:29:0Z</time></trkpt>
<trkpt lat="46.2069740295410156" lon="7.8322958946228027"><ele></ele><time>2014-10-15T20:29:3Z</time></trkpt>
<trkpt lat="46.2071342468261719" lon="7.8323745727539062"><ele></ele><time>2014-10-15T20:29:6Z</time></trkpt>
<trkpt lat="46.2072715759277344" lon="7.8324561119079590"><ele></ele><time>2014-10-15T20:29:9Z</time></trkpt>
<trkpt lat="46.2073898315429688" lon="7.8326315879821777"><ele></ele><time>2014-10-15T20:29:12Z</time></trkpt>
<trkpt lat="46.2074851989746094" lon="7.8327121734619141"><ele></ele><time>2014-10-15T20:29:15Z</time></trkpt>
<trkpt lat="46.2076225280761719" lon="7.8327693939208984"><ele></ele><time>2014-10-15T20:29:18Z</time></trkpt>
<trkpt lat="46.2077789306640625" lon="7.8328137397766113"><ele></ele><time>2014-10-15T20:29:21Z</time></trkpt>
<trkpt lat="46.2078933715820312" lon="7.8328905105590820"><ele></ele><time>2014-10-15T20:29:24Z</time></trkpt>
<trkpt lat="46.2079772949218750" lon="7.8329911231994629"><ele></ele><time>2014-10-15T20:29:27Z</time></trkpt>
<trkpt lat="46.2080459594726562" lon="7.8330430984497070"><ele></ele><time>2014-10-15T20:29:30Z</time></trkpt>
<trkpt lat="46.2081413269042969" lon="7.8331370353698730"><ele></ele><time>2014-10-15T20:29:33Z</time></trkpt>
<trkpt lat="46.2082138061523438" lon="7.8332152366638184"><ele></ele><time>2014-10-15T20:29:36Z</time></trkpt>
<trkpt lat="46.2082633972167969" lon="7.8333096504211426"><ele></ele><time>2014-10-15T20:29:39Z</time></trkpt>
<trkpt lat="46.2082862854003906" lon="7.8334274291992188"><ele></ele><time>2014-10-15T20:29:42Z</time></trkpt>
<trkpt lat="46.2083320617675781" lon="7.8335094451904297"><ele></ele><time>2014-10-15T20:29:45Z</time></trkpt>
<trkpt lat="46.2083549499511719" lon="7.8335680961608887"><ele></ele><time>2014-10-15T20:29:48Z</time></trkpt>
<trkpt lat="46.2084007263183594" lon="7.8336510658264160"><ele></ele><time>2014-10-15T20:29:51Z</time></trkpt>
<trkpt lat="46.2084617614746094" lon="7.8337783813476562"><ele></ele><time>2014-10-15T20:29:54Z</time></trkpt>
<trkpt lat="46.2085189819335938" lon="7.8339538574218750"><ele></ele><time>2014-10-15T20:29:57Z</time></trkpt>
<trkpt lat="46.2085647583007812" lon="7.8340377807617188"><ele></ele><time>2014-10-15T20:30:0Z</time></trkpt>
<trkpt lat="46.2086334228515625" lon="7.8341093063354492"><ele></ele><time>2014-10-15T20:30:3Z</time></trkpt>
<trkpt lat="46.2087211608886719" lon="7.8341541290283203"><ele></ele><time>2014-10-15T20:30:6Z</time></trkpt>
<trkpt lat="46.2087821960449219" lon="7.8341999053955078"><ele></ele><time>2014-10-15T20:30:9Z</time></trkpt>
<trkpt lat="46.2089309692382812" lon="7.8343791961669922"><ele></ele><time>2014-10-15T20:30:12Z</time></trkpt>
<trkpt lat="46.2091293334960938" lon="7.8345947265625000"><ele></ele><time>2014-10-15T20:30:15Z</time></trkpt>
<trkpt lat="46.2092361450195312" lon="7.8347907066345215"><ele></ele><time>2014-10-15T20:30:18Z</time></trkpt>
<trkpt lat="46.2092742919921875" lon="7.8348588943481445"><ele></ele><time>2014-10-15T20:30:21Z</time></trkpt>
<trkpt lat="46.2093811035156250" lon="7.8349361419677734"><ele></ele><time>2014-10-15T20:30:24Z</time></trkpt>
<trkpt lat="46.2094879150390625" lon="7.8349347114562988"><ele></ele><time>2014-10-15T20:30:27Z</time></trkpt>
<trkpt lat="46.2096710205078125" lon="7.8349356651306152"><ele></ele><time>2014-10-15T20:30:30Z</time></trkpt>
<trkpt lat="46.2098693847656250" lon="7.8350005149841309"><ele></ele><time>2014-10-15T20:30:33Z</time></trkpt>
<trkpt lat="46.2099685668945312" lon="7.8350601196289062"><ele></ele><time>2014-10-15T20:30:36Z</time></trkpt>
<trkpt lat="46.2100639343261719" lon="7.8351531028747559"><ele></ele><time>2014-10-15T20:30:39Z</time></trkpt>
<trkpt lat="46.2101402282714844" lon="7.8352146148681641"><ele></ele><time>2014-10-15T20:30:42Z</time></trkpt>
<trkpt lat="46.2101135253906250" lon="7.8353114128112793"><ele></ele><time>2014-10-15T20:30:45Z</time></trkpt>
<trkpt lat="46.2100715637207031" lon="7.8353414535522461"><ele></ele><time>2014-10-15T20:30:48Z</time></trkpt>
<trkpt lat="46.2100791931152344" lon="7.8353643417358398"><ele></ele><time>2014-10-15T20:30:51Z</time></trkpt>
<trkpt lat="46.2101020812988281" lon="7.8354315757751465"><ele></ele><time>2014-10-15T20:30:54Z</time></trkpt>
<trkpt lat="46.2101821899414062" lon="7.8355493545532227"><ele></ele><time>2014-10-15T20:30:57Z</time></trkpt>
<trkpt lat="46.2101898193359375" lon="7.8356118202209473"><ele></ele><time>2014-10-15T20:31:0Z</time></trkpt>
<trkpt lat="46.2102279663085938" lon="7.8356728553771973"><ele></ele><time>2014-10-15T20:31:3Z</time></trkpt>
<trkpt lat="46.2103118896484375" lon="7.8357505798339844"><ele></ele><time>2014-10-15T20:31:6Z</time></trkpt>
<trkpt lat="46.2106513977050781" lon="7.8359394073486328"><ele></ele><time>2014-10-15T20:31:9Z</time></trkpt>
<trkpt lat="46.2108001708984375" lon="7.8361020088195801"><ele></ele><time>2014-10-15T20:31:12Z</time></trkpt>
<trkpt lat="46.2109107971191406" lon="7.8362627029418945"><ele></ele><time>2014-10-15T20:31:15Z</time></trkpt>
<trkpt lat="46.2110939025878906" lon="7.8364725112915039"><ele></ele><time>2014-10-15T20:31:18Z</time></trkpt>
<trkpt lat="46.2112045288085938" lon="7.8365378379821777"><ele></ele><time>2014-10-15T20:31:21Z</time></trkpt>
<trkpt lat="46.2113113403320312" lon="7.8365764617919922"><ele></ele><time>2014-10-15T20:31:24Z</time></trkpt>
<trkpt lat="46.2114334106445312" lon="7.8366808891296387"><ele></ele><time>2014-10-15T20:31:27Z</time></trkpt>
<trkpt lat="46.2114868164062500" lon="7.8368034362792969"><ele></ele><time>2014-10-15T20:31:30Z</time></trkpt>
<trkpt lat="46.2115936279296875" lon="7.8369407653808594"><ele></ele><time>2014-10-15T20:31:33Z</time></trkpt>
<trkpt lat="46.2117385864257812" lon="7.8370113372802734"><ele></ele><time>2014-10-15T20:31:36Z</time></trkpt>
<trkpt lat="46.2119026184082031" lon="7.8371415138244629"><ele></ele><time>2014-10-15T20:31:39Z</time></trkpt>
<trkpt lat="46.2119674682617188" lon="7.8372616767883301"><ele></ele><time>2014-10-15T20:31:42Z</time></trkpt>
<trkpt lat="46.2120437622070312" lon="7.8374409675598145"><ele></ele><time>2014-10-15T20:31:45Z</time></trkpt>
<trkpt lat="46.2121238708496094" lon="7.8375253677368164"><ele></ele><time>2014-10-15T20:31:48Z</time></trkpt>
<trkpt lat="46.2122879028320312" lon="7.8376045227050781"><ele></ele><time>2014-10-15T20:31:51Z</time></trkpt>
<trkpt lat="46.2124519348144531" lon="7.8375935554504395"><ele></ele><time>2014-10-15T20:31:54Z</time></trkpt>
<trkpt lat="46.2125549316406250" lon="7.8376088142395020"><ele></ele><time>2014-10-15T20:31:57Z</time></trkpt>
<trkpt lat="46.2127037048339844" lon="7.8376836776733398"><ele></ele><time>2014-10-15T20:32:0Z</time></trkpt>
<trkpt lat="46.2128295898437500" lon="7.8378067016601562"><ele></ele><time>2014-10-15T20:32:3Z</time></trkpt>
<trkpt lat="46.2128791809082031" lon="7.8379344940185547"><ele></ele><time>2014-10-15T20:32:6Z</time></trkpt>
<trkpt lat="46.2129287719726562" lon="7.8380947113037109"><ele></ele><time>2014-10-15T20:32:9Z</time></trkpt>
<trkpt lat="46.2131042480468750" lon="7.8383474349975586"><ele></ele><time>2014-10-15T20:32:12Z</time></trkpt>
<trkpt lat="46.2131652832031250" lon="7.8385009765625000"><ele></ele><time>2014-10-15T20:32:15Z</time></trkpt>
<trkpt lat="46.2132186889648438" lon="7.8386335372924805"><ele></ele><time>2014-10-15T20:32:18Z</time></trkpt>
<trkpt lat="46.2132492065429688" lon="7.8387098312377930"><ele></ele><time>2014-10-15T20:32:21Z</time></trkpt>
<trkpt lat="46.2132568359375000" lon="7.8387384414672852"><ele></ele><time>2014-10-15T20:32:24Z</time></trkpt>
<trkpt lat="46.2132835388183594" lon="7.8388252258300781"><ele></ele><time>2014-10-15T20:32:27Z</time></trkpt>
<trkpt lat="46.2132949829101562" lon="7.8388681411743164"><ele></ele><time>2014-10-15T20:32:30Z</time></trkpt>
<trkpt lat="46.2133102416992188" lon="7.8389449119567871"><ele></ele><time>2014-10-15T20:32:33Z</time></trkpt>
<trkpt lat="46.2133255004882812" lon="7.8390035629272461"><ele></ele><time>2014-10-15T20:32:36Z</time></trkpt>
<trkpt lat="46.2133483886718750" lon="7.8390660285949707"><ele></ele><time>2014-10-15T20:32:39Z</time></trkpt>
<trkpt lat="46.2133941650390625" lon="7.8391795158386230"><ele></ele><time>2014-10-15T20:32:42Z</time></trkpt>
<trkpt lat="46.2134399414062500" lon="7.8392591476440430"><ele></ele><time>2014-10-15T20:32:45Z</time></trkpt>
<trkpt lat="46.2135047912597656" lon="7.8393492698669434"><ele></ele><time>2014-10-15T20:32:48Z</time></trkpt>
<trkpt lat="46.2135429382324219" lon="7.8394112586975098"><ele></ele><time>2014-10-15T20:32:51Z</time></trkpt>
<trkpt lat="46.2135658264160156" lon="7.8394522666931152"><ele></ele><time>2014-10-15T20:32:54Z</time></trkpt>
<trkpt lat="46.2135848999023438" lon="7.8394818305969238"><ele></ele><time>2014-10-15T20:32:57Z</time></trkpt>
<trkpt lat="46.2136116027832031" lon="7.8395266532897949"><ele></ele><time>2014-10-15T20:33:0Z</time></trkpt>
<trkpt lat="46.2136230468750000" lon="7.8395495414733887"><ele></ele><time>2014-10-15T20:33:3Z</time></trkpt>
<trkpt lat="46.2136383056640625" lon="7.8395738601684570"><ele></ele><time>2014-10-15T20:33:6Z</time></trkpt>
<trkpt lat="46.2136573791503906" lon="7.8396081924438477"><ele></ele><time>2014-10-15T20:33:9Z</time></trkpt>
<trkpt lat="46.2137336730957031" lon="7.8397111892700195"><ele></ele><time>2014-10-15T20:33:12Z</time></trkpt>
<trkpt lat="46.2138023376464844" lon="7.8398027420043945"><ele></ele><time>2014-10-15T20:33:15Z</time></trkpt>
<trkpt lat="46.2138404846191406" lon="7.8398571014404297"><ele></ele><time>2014-10-15T20:33:18Z</time></trkpt>
<trkpt lat="46.2138862609863281" lon="7.8399186134338379"><ele></ele><time>2014-10-15T20:33:21Z</time></trkpt>
<trkpt lat="46.2139205932617188" lon="7.8399672508239746"><ele></ele><time>2014-10-15T20:33:24Z</time></trkpt>
<trkpt lat="46.2139739990234375" lon="7.8400368690490723"><ele></ele><time>2014-10-15T20:33:27Z</time></trkpt>
<trkpt lat="46.2140502929687500" lon="7.8401436805725098"><ele></ele><time>2014-10-15T20:33:30Z</time></trkpt>
<trkpt lat="46.2140960693359375" lon="7.8402042388916016"><ele></ele><time>2014-10-15T20:33:33Z</time></trkpt>
<trkpt lat="46.2141418457031250" lon="7.8402686119079590"><ele></ele><time>2014-10-15T20:33:36Z</time></trkpt>
<trkpt lat="46.2141838073730469" lon="7.8403234481811523"><ele></ele><time>2014-10-15T20:33:39Z</time></trkpt>
<trkpt lat="46.2142333984375000" lon="7.8403897285461426"><ele></ele><time>2014-10-15T20:33:42Z</time></trkpt>
<trkpt lat="46.2143020629882812" lon="7.8404846191406250"><ele></ele><time>2014-10-15T20:33:45Z</time></trkpt>
<trkpt lat="46.2143363952636719" lon="7.8405289649963379"><ele></ele><time>2014-10-15T20:33:48Z</time></trkpt>
<trkpt lat="46.2144203186035156" lon="7.8406291007995605"><ele></ele><time>2014-10-15T20:33:51Z</time></trkpt>
<trkpt lat="46.2144584655761719" lon="7.8406767845153809"><ele></ele><time>2014-10-15T20:33:54Z</time></trkpt>
<trkpt lat="46.2145080566406250" lon="7.8407335281372070"><ele></ele><time>2014-10-15T20:33:57Z</time></trkpt>
<trkpt lat="46.2145309448242188" lon="7.8407578468322754"><ele></ele><time>2014-10-15T20:34:0Z</time></trkpt>
<trkpt lat="46.2145843505859375" lon="7.8408169746398926"><ele></ele><time>2014-10-15T20:34:3Z</time></trkpt>
<trkpt lat="46.2145385742187500" lon="7.8409819602966309"><ele></ele><time>2014-10-15T20:34:6Z</time></trkpt>
<trkpt lat="46.2145805358886719" lon="7.8410282135009766"><ele></ele><time>2014-10-15T20:34:9Z</time></trkpt>
<trkpt lat="46.2146186828613281" lon="7.8410787582397461"><ele></ele><time>2014-10-15T20:34:12Z</time></trkpt>
<trkpt lat="46.2146530151367188" lon="7.8411097526550293"><ele></ele><time>2014-10-15T20:34:15Z</time></trkpt>
<trkpt lat="46.2146797180175781" lon="7.8411254882812500"><ele></ele><time>2014-10-15T20:34:18Z</time></trkpt>
<trkpt lat="46.2147178649902344" lon="7.8411307334899902"><ele></ele><time>2014-10-15T20:34:21Z</time></trkpt>
<trkpt lat="46.2147789001464844" lon="7.8411569595336914"><ele></ele><time>2014-10-15T20:34:24Z</time></trkpt>
<trkpt lat="46.2148513793945312" lon="7.8412065505981445"><ele></ele><time>2014-10-15T20:34:27Z</time></trkpt>
<trkpt lat="46.2149276733398438" lon="7.8412599563598633"><ele></ele><time>2014-10-15T20:34:30Z</time></trkpt>
<trkpt lat="46.2149772644042969" lon="7.8413105010986328"><ele></ele><time>2014-10-15T20:34:33Z</time></trkpt>
<trkpt lat="46.2150497436523438" lon="7.8413653373718262"><ele></ele><time>2014-10-15T20:34:36Z</time></trkpt>
<trkpt lat="46.2150878906250000" lon="7.8414015769958496"><ele></ele><time>2014-10-15T20:34:39Z</time></trkpt>
<trkpt lat="46.2151184082031250" lon="7.8414487838745117"><ele></ele><time>2014-10-15T20:34:42Z</time></trkpt>
<trkpt lat="46.2151527404785156" lon="7.8415179252624512"><ele></ele><time>2014-10-15T20:34:45Z</time></trkpt>
<trkpt lat="46.2151756286621094" lon="7.8415613174438477"><ele></ele><time>2014-10-15T20:34:48Z</time></trkpt>
<trkpt lat="46.2152175903320312" lon="7.8416256904602051"><ele></ele><time>2014-10-15T20:34:51Z</time></trkpt>
<trkpt lat="46.2152366638183594" lon="7.8416666984558105"><ele></ele><time>2014-10-15T20:34:54Z</time></trkpt>
<trkpt lat="46.2152671813964844" lon="7.8417239189147949"><ele></ele><time>2014-10-15T20:34:57Z</time></trkpt>
<trkpt lat="46.2152862548828125" lon="7.8417587280273438"><ele></ele><time>2014-10-15T20:35:0Z</time></trkpt>
<trkpt lat="46.2152976989746094" lon="7.8417925834655762"><ele></ele><time>2014-10-15T20:35:3Z</time></trkpt>
<trkpt lat="46.2153015136718750" lon="7.8418245315551758"><ele></ele><time>2014-10-15T20:35:6Z</time></trkpt>
<trkpt lat="46.2153015136718750" lon="7.8418593406677246"><ele></ele><time>2014-10-15T20:35:9Z</time></trkpt>
<trkpt lat="46.2152786254882812" lon="7.8419084548950195"><ele></ele><time>2014-10-15T20:35:12Z</time></trkpt>
<trkpt lat="46.2152671813964844" lon="7.8419332504272461"><ele></ele><time>2014-10-15T20:35:15Z</time></trkpt>
<trkpt lat="46.2152786254882812" lon="7.8419909477233887"><ele></ele><time>2014-10-15T20:35:18Z</time></trkpt>
<trkpt lat="46.2152862548828125" lon="7.8420300483703613"><ele></ele><time>2014-10-15T20:35:21Z</time></trkpt>
<trkpt lat="46.2152824401855469" lon="7.8420982360839844"><ele></ele><time>2014-10-15T20:35:24Z</time></trkpt>
<trkpt lat="46.2152786254882812" lon="7.8421459197998047"><ele></ele><time>2014-10-15T20:35:27Z</time></trkpt>
<trkpt lat="46.2152671813964844" lon="7.8422341346740723"><ele></ele><time>2014-10-15T20:35:30Z</time></trkpt>
<trkpt lat="46.2152557373046875" lon="7.8423352241516113"><ele></ele><time>2014-10-15T20:35:33Z</time></trkpt>
<trkpt lat="46.2152404785156250" lon="7.8424286842346191"><ele></ele><time>2014-10-15T20:35:36Z</time></trkpt>
<trkpt lat="46.2152290344238281" lon="7.8424668312072754"><ele></ele><time>2014-10-15T20:35:39Z</time></trkpt>
<trkpt lat="46.2152595520019531" lon="7.8425416946411133"><ele></ele><time>2014-10-15T20:35:42Z</time></trkpt>
<trkpt lat="46.2153205871582031" lon="7.8426017761230469"><ele></ele><time>2014-10-15T20:35:45Z</time></trkpt>
<trkpt lat="46.2153625488281250" lon="7.8426671028137207"><ele></ele><time>2014-10-15T20:35:48Z</time></trkpt>
<trkpt lat="46.2153892517089844" lon="7.8427233695983887"><ele></ele><time>2014-10-15T20:35:51Z</time></trkpt>
<trkpt lat="46.2154235839843750" lon="7.8427920341491699"><ele></ele><time>2014-10-15T20:35:54Z</time></trkpt>
<trkpt lat="46.2154159545898438" lon="7.8428907394409180"><ele></ele><time>2014-10-15T20:35:57Z</time></trkpt>
<trkpt lat="46.2153892517089844" lon="7.8429555892944336"><ele></ele><time>2014-10-15T20:36:0Z</time></trkpt>
<trkpt lat="46.2153701782226562" lon="7.8430132865905762"><ele></ele><time>2014-10-15T20:36:3Z</time></trkpt>
<trkpt lat="46.2153816223144531" lon="7.8430948257446289"><ele></ele><time>2014-10-15T20:36:6Z</time></trkpt>
<trkpt lat="46.2154197692871094" lon="7.8431482315063477"><ele></ele><time>2014-10-15T20:36:9Z</time></trkpt>
<trkpt lat="46.2154617309570312" lon="7.8432240486145020"><ele></ele><time>2014-10-15T20:36:12Z</time></trkpt>
<trkpt lat="46.2154884338378906" lon="7.8432540893554688"><ele></ele><time>2014-10-15T20:36:15Z</time></trkpt>
<trkpt lat="46.2155265808105469" lon="7.8433136940002441"><ele></ele><time>2014-10-15T20:36:18Z</time></trkpt>
<trkpt lat="46.2155647277832031" lon="7.8433799743652344"><ele></ele><time>2014-10-15T20:36:21Z</time></trkpt>
<trkpt lat="46.2156028747558594" lon="7.8434286117553711"><ele></ele><time>2014-10-15T20:36:24Z</time></trkpt>
<trkpt lat="46.2156333923339844" lon="7.8434829711914062"><ele></ele><time>2014-10-15T20:36:27Z</time></trkpt>
<trkpt lat="46.2156944274902344" lon="7.8435478210449219"><ele></ele><time>2014-10-15T20:36:30Z</time></trkpt>
<trkpt lat="46.2157249450683594" lon="7.8435935974121094"><ele></ele><time>2014-10-15T20:36:33Z</time></trkpt>
<trkpt lat="46.2157402038574219" lon="7.8436217308044434"><ele></ele><time>2014-10-15T20:36:36Z</time></trkpt>
<trkpt lat="46.2157325744628906" lon="7.8436551094055176"><ele></ele><time>2014-10-15T20:36:39Z</time></trkpt>
<trkpt lat="46.2158508300781250" lon="7.8437118530273438"><ele></ele><time>2014-10-15T20:36:42Z</time></trkpt>
<trkpt lat="46.2159385681152344" lon="7.8437471389770508"><ele></ele><time>2014-10-15T20:36:45Z</time></trkpt>
<trkpt lat="46.2160377502441406" lon="7.8438053131103516"><ele></ele><time>2014-10-15T20:36:48Z</time></trkpt>
<trkpt lat="46.2160987854003906" lon="7.8438386917114258"><ele></ele><time>2014-10-15T20:36:51Z</time></trkpt>
<trkpt lat="46.2161712646484375" lon="7.8438925743103027"><ele></ele><time>2014-10-15T20:36:54Z</time></trkpt>
<trkpt lat="46.2161979675292969" lon="7.8439984321594238"><ele></ele><time>2014-10-15T20:36:57Z</time></trkpt>
<trkpt lat="46.2162170410156250" lon="7.8441286087036133"><ele></ele><time>2014-10-15T20:37:0Z</time></trkpt>
<trkpt lat="46.2162246704101562" lon="7.8442115783691406"><ele></ele><time>2014-10-15T20:37:3Z</time></trkpt>
<trkpt lat="46.2162895202636719" lon="7.8443927764892578"><ele></ele><time>2014-10-15T20:37:6Z</time></trkpt>
<trkpt lat="46.2163581848144531" lon="7.8445305824279785"><ele></ele><time>2014-10-15T20:37:9Z</time></trkpt>
<trkpt lat="46.2165298461914062" lon="7.8447408676147461"><ele></ele><time>2014-10-15T20:37:12Z</time></trkpt>
<trkpt lat="46.2170257568359375" lon="7.8451313972473145"><ele></ele><time>2014-10-15T20:37:15Z</time></trkpt>
<trkpt lat="46.2171325683593750" lon="7.8452596664428711"><ele></ele><time>2014-10-15T20:37:18Z</time></trkpt>
<trkpt lat="46.2171096801757812" lon="7.8452134132385254"><ele></ele><time>2014-10-15T20:37:21Z</time></trkpt>
<trkpt lat="46.2172279357910156" lon="7.8453459739685059"><ele></ele><time>2014-10-15T20:37:24Z</time></trkpt>
<trkpt lat="46.2172737121582031" lon="7.8453860282897949"><ele></ele><time>2014-10-15T20:37:27Z</time></trkpt>
<trkpt lat="46.2180709838867188" lon="7.8465752601623535"><ele></ele><time>2014-10-15T20:37:30Z</time></trkpt>
<trkpt lat="46.2181777954101562" lon="7.8468222618103027"><ele></ele><time>2014-10-15T20:37:33Z</time></trkpt>
<trkpt lat="46.2182312011718750" lon="7.8469624519348145"><ele></ele><time>2014-10-15T20:37:36Z</time></trkpt>
<trkpt lat="46.2183418273925781" lon="7.8471846580505371"><ele></ele><time>2014-10-15T20:37:39Z</time></trkpt>
<trkpt lat="46.2185173034667969" lon="7.8474555015563965"><ele></ele><time>2014-10-15T20:37:42Z</time></trkpt>
<trkpt lat="46.2186813354492188" lon="7.8477020263671875"><ele></ele><time>2014-10-15T20:37:45Z</time></trkpt>
<trkpt lat="46.2188072204589844" lon="7.8478798866271973"><ele></ele><time>2014-10-15T20:37:48Z</time></trkpt>
<trkpt lat="46.2189102172851562" lon="7.8480277061462402"><ele></ele><time>2014-10-15T20:37:51Z</time></trkpt>
<trkpt lat="46.2190284729003906" lon="7.8482508659362793"><ele></ele><time>2014-10-15T20:37:54Z</time></trkpt>
<trkpt lat="46.2191085815429688" lon="7.8486027717590332"><ele></ele><time>2014-10-15T20:37:57Z</time></trkpt>
<trkpt lat="46.2191505432128906" lon="7.8488264083862305"><ele></ele><time>2014-10-15T20:38:0Z</time></trkpt>
<trkpt lat="46.2192153930664062" lon="7.8490681648254395"><ele></ele><time>2014-10-15T20:38:3Z</time></trkpt>
<trkpt lat="46.2194862365722656" lon="7.8494987487792969"><ele></ele><time>2014-10-15T20:38:6Z</time></trkpt>
<trkpt lat="46.2196693420410156" lon="7.8497476577758789"><ele></ele><time>2014-10-15T20:38:9Z</time></trkpt>
<trkpt lat="46.2198066711425781" lon="7.8499298095703125"><ele></ele><time>2014-10-15T20:38:12Z</time></trkpt>
<trkpt lat="46.2199897766113281" lon="7.8501939773559570"><ele></ele><time>2014-10-15T20:38:15Z</time></trkpt>
<trkpt lat="46.2201423645019531" lon="7.8504185676574707"><ele></ele><time>2014-10-15T20:38:18Z</time></trkpt>
<trkpt lat="46.2202644348144531" lon="7.8506069183349609"><ele></ele><time>2014-10-15T20:38:21Z</time></trkpt>
<trkpt lat="46.2204132080078125" lon="7.8508715629577637"><ele></ele><time>2014-10-15T20:38:24Z</time></trkpt>
<trkpt lat="46.2205238342285156" lon="7.8511266708374023"><ele></ele><time>2014-10-15T20:38:27Z</time></trkpt>
<trkpt lat="46.2206420898437500" lon="7.8514165878295898"><ele></ele><time>2014-10-15T20:38:30Z</time></trkpt>
<trkpt lat="46.2207107543945312" lon="7.8516230583190918"><ele></ele><time>2014-10-15T20:38:33Z</time></trkpt>
<trkpt lat="46.2207679748535156" lon="7.8519086837768555"><ele></ele><time>2014-10-15T20:38:36Z</time></trkpt>
<trkpt lat="46.2208137512207031" lon="7.8521313667297363"><ele></ele><time>2014-10-15T20:38:39Z</time></trkpt>
<trkpt lat="46.2208633422851562" lon="7.8524007797241211"><ele></ele><time>2014-10-15T20:38:42Z</time></trkpt>
<trkpt lat="46.2209014892578125" lon="7.8525876998901367"><ele></ele><time>2014-10-15T20:38:45Z</time></trkpt>
<trkpt lat="46.2209625244140625" lon="7.8528933525085449"><ele></ele><time>2014-10-15T20:38:48Z</time></trkpt>
<trkpt lat="46.2210083007812500" lon="7.8530716896057129"><ele></ele><time>2014-10-15T20:38:51Z</time></trkpt>
<trkpt lat="46.2211265563964844" lon="7.8533873558044434"><ele></ele><time>2014-10-15T20:38:54Z</time></trkpt>
<trkpt lat="46.2212715148925781" lon="7.8536520004272461"><ele></ele><time>2014-10-15T20:38:57Z</time></trkpt>
<trkpt lat="46.2214279174804688" lon="7.8538775444030762"><ele></ele><time>2014-10-15T20:39:0Z</time></trkpt>
<trkpt lat="46.2216377258300781" lon="7.8540678024291992"><ele></ele><time>2014-10-15T20:39:3Z</time></trkpt>
<trkpt lat="46.2218399047851562" lon="7.8542003631591797"><ele></ele><time>2014-10-15T20:39:6Z</time></trkpt>
<trkpt lat="46.2219848632812500" lon="7.8542819023132324"><ele></ele><time>2014-10-15T20:39:9Z</time></trkpt>
<trkpt lat="46.2221641540527344" lon="7.8543858528137207"><ele></ele><time>2014-10-15T20:39:12Z</time></trkpt>
<trkpt lat="46.2223434448242188" lon="7.8544917106628418"><ele></ele><time>2014-10-15T20:39:15Z</time></trkpt>
<trkpt lat="46.2224693298339844" lon="7.8545703887939453"><ele></ele><time>2014-10-15T20:39:18Z</time></trkpt>
<trkpt lat="46.2226562500000000" lon="7.8547253608703613"><ele></ele><time>2014-10-15T20:39:21Z</time></trkpt>
<trkpt lat="46.2228240966796875" lon="7.8548846244812012"><ele></ele><time>2014-10-15T20:39:24Z</time></trkpt>
<trkpt lat="46.2229537963867188" lon="7.8550229072570801"><ele></ele><time>2014-10-15T20:39:27Z</time></trkpt>
<trkpt lat="46.2230758666992188" lon="7.8551893234252930"><ele></ele><time>2014-10-15T20:39:30Z</time></trkpt>
<trkpt lat="46.2232170104980469" lon="7.8554525375366211"><ele></ele><time>2014-10-15T20:39:33Z</time></trkpt>
<trkpt lat="46.2232856750488281" lon="7.8556604385375977"><ele></ele><time>2014-10-15T20:39:36Z</time></trkpt>
<trkpt lat="46.2233390808105469" lon="7.8559346199035645"><ele></ele><time>2014-10-15T20:39:39Z</time></trkpt>
<trkpt lat="46.2233581542968750" lon="7.8560938835144043"><ele></ele><time>2014-10-15T20:39:42Z</time></trkpt>
<trkpt lat="46.2233581542968750" lon="7.8563766479492188"><ele></ele><time>2014-10-15T20:39:45Z</time></trkpt>
<trkpt lat="46.2233314514160156" lon="7.8567357063293457"><ele></ele><time>2014-10-15T20:39:48Z</time></trkpt>
<trkpt lat="46.2233161926269531" lon="7.8568668365478516"><ele></ele><time>2014-10-15T20:39:51Z</time></trkpt>
<trkpt lat="46.2232780456542969" lon="7.8570685386657715"><ele></ele><time>2014-10-15T20:39:54Z</time></trkpt>
<trkpt lat="46.2231674194335938" lon="7.8571610450744629"><ele></ele><time>2014-10-15T20:39:57Z</time></trkpt>
<trkpt lat="46.2231025695800781" lon="7.8572463989257812"><ele></ele><time>2014-10-15T20:40:0Z</time></trkpt>
<trkpt lat="46.2230949401855469" lon="7.8573169708251953"><ele></ele><time>2014-10-15T20:40:3Z</time></trkpt>
<trkpt lat="46.2230873107910156" lon="7.8573894500732422"><ele></ele><time>2014-10-15T20:40:6Z</time></trkpt>
<trkpt lat="46.2230606079101562" lon="7.8574900627136230"><ele></ele><time>2014-10-15T20:40:9Z</time></trkpt>
<trkpt lat="46.2230491638183594" lon="7.8575701713562012"><ele></ele><time>2014-10-15T20:40:12Z</time></trkpt>
<trkpt lat="46.2230377197265625" lon="7.8576450347900391"><ele></ele><time>2014-10-15T20:40:15Z</time></trkpt>
<trkpt lat="46.2230224609375000" lon="7.8577179908752441"><ele></ele><time>2014-10-15T20:40:18Z</time></trkpt>
<trkpt lat="46.2230033874511719" lon="7.8577861785888672"><ele></ele><time>2014-10-15T20:40:21Z</time></trkpt>
<trkpt lat="46.2229652404785156" lon="7.8578939437866211"><ele></ele><time>2014-10-15T20:40:24Z</time></trkpt>
<trkpt lat="46.2229385375976562" lon="7.8579688072204590"><ele></ele><time>2014-10-15T20:40:27Z</time></trkpt>
<trkpt lat="46.2229118347167969" lon="7.8581032752990723"><ele></ele><time>2014-10-15T20:40:30Z</time></trkpt>
<trkpt lat="46.2229042053222656" lon="7.8582105636596680"><ele></ele><time>2014-10-15T20:40:33Z</time></trkpt>
<trkpt lat="46.2228965759277344" lon="7.8583040237426758"><ele></ele><time>2014-10-15T20:40:36Z</time></trkpt>
<trkpt lat="46.2229347229003906" lon="7.8584361076354980"><ele></ele><time>2014-10-15T20:40:39Z</time></trkpt>
<trkpt lat="46.2229766845703125" lon="7.8585252761840820"><ele></ele><time>2014-10-15T20:40:42Z</time></trkpt>
<trkpt lat="46.2230110168457031" lon="7.8586173057556152"><ele></ele><time>2014-10-15T20:40:45Z</time></trkpt>
<trkpt lat="46.2230491638183594" lon="7.8587613105773926"><ele></ele><time>2014-10-15T20:40:48Z</time></trkpt>
<trkpt lat="46.2230758666992188" lon="7.8589010238647461"><ele></ele><time>2014-10-15T20:40:51Z</time></trkpt>
<trkpt lat="46.2231025695800781" lon="7.8590154647827148"><ele></ele><time>2014-10-15T20:40:54Z</time></trkpt>
<trkpt lat="46.2231483459472656" lon="7.8591203689575195"><ele></ele><time>2014-10-15T20:40:57Z</time></trkpt>
<trkpt lat="46.2232017517089844" lon="7.8592224121093750"><ele></ele><time>2014-10-15T20:41:0Z</time></trkpt>
<trkpt lat="46.2232437133789062" lon="7.8593077659606934"><ele></ele><time>2014-10-15T20:41:3Z</time></trkpt>
<trkpt lat="46.2233009338378906" lon="7.8594150543212891"><ele></ele><time>2014-10-15T20:41:6Z</time></trkpt>
<trkpt lat="46.2232894897460938" lon="7.8594875335693359"><ele></ele><time>2014-10-15T20:41:9Z</time></trkpt>
<trkpt lat="46.2232475280761719" lon="7.8595218658447266"><ele></ele><time>2014-10-15T20:41:12Z</time></trkpt>
<trkpt lat="46.2232170104980469" lon="7.8595309257507324"><ele></ele><time>2014-10-15T20:41:15Z</time></trkpt>
<trkpt lat="46.2232017517089844" lon="7.8595457077026367"><ele></ele><time>2014-10-15T20:41:18Z</time></trkpt>
<trkpt lat="46.2231788635253906" lon="7.8595719337463379"><ele></ele><time>2014-10-15T20:41:21Z</time></trkpt>
<trkpt lat="46.2231559753417969" lon="7.8595933914184570"><ele></ele><time>2014-10-15T20:41:24Z</time></trkpt>
<trkpt lat="46.2231101989746094" lon="7.8596296310424805"><ele></ele><time>2014-10-15T20:41:27Z</time></trkpt>
<trkpt lat="46.2230758666992188" lon="7.8596491813659668"><ele></ele><time>2014-10-15T20:41:30Z</time></trkpt>
<trkpt lat="46.2230377197265625" lon="7.8596558570861816"><ele></ele><time>2014-10-15T20:41:33Z</time></trkpt>
<trkpt lat="46.2229919433593750" lon="7.8596658706665039"><ele></ele><time>2014-10-15T20:41:36Z</time></trkpt>
<trkpt lat="46.2229537963867188" lon="7.8596568107604980"><ele></ele><time>2014-10-15T20:41:39Z</time></trkpt>
<trkpt lat="46.2229309082031250" lon="7.8596391677856445"><ele></ele><time>2014-10-15T20:41:42Z</time></trkpt>
<trkpt lat="46.2229194641113281" lon="7.8596210479736328"><ele></ele><time>2014-10-15T20:41:45Z</time></trkpt>
<trkpt lat="46.2229042053222656" lon="7.8595862388610840"><ele></ele><time>2014-10-15T20:41:48Z</time></trkpt>
<trkpt lat="46.2228851318359375" lon="7.8595609664916992"><ele></ele><time>2014-10-15T20:41:51Z</time></trkpt>
<trkpt lat="46.2228660583496094" lon="7.8595490455627441"><ele></ele><time>2014-10-15T20:41:54Z</time></trkpt>
<trkpt lat="46.2228469848632812" lon="7.8595366477966309"><ele></ele><time>2014-10-15T20:41:57Z</time></trkpt>
<trkpt lat="46.2228240966796875" lon="7.8595285415649414"><ele></ele><time>2014-10-15T20:42:0Z</time></trkpt>
<trkpt lat="46.2227973937988281" lon="7.8595399856567383"><ele></ele><time>2014-10-15T20:42:3Z</time></trkpt>
<trkpt lat="46.2227859497070312" lon="7.8595414161682129"><ele></ele><time>2014-10-15T20:42:6Z</time></trkpt>
<trkpt lat="46.2227745056152344" lon="7.8595352172851562"><ele></ele><time>2014-10-15T20:42:9Z</time></trkpt>
<trkpt lat="46.2227478027343750" lon="7.8595395088195801"><ele></ele><time>2014-10-15T20:42:12Z</time></trkpt>
<trkpt lat="46.2226943969726562" lon="7.8595728874206543"><ele></ele><time>2014-10-15T20:42:15Z</time></trkpt>
<trkpt lat="46.2226638793945312" lon="7.8596086502075195"><ele></ele><time>2014-10-15T20:42:18Z</time></trkpt>
<trkpt lat="46.2226524353027344" lon="7.8596467971801758"><ele></ele><time>2014-10-15T20:42:21Z</time></trkpt>
<trkpt lat="46.2226333618164062" lon="7.8597011566162109"><ele></ele><time>2014-10-15T20:42:24Z</time></trkpt>
<trkpt lat="46.2226371765136719" lon="7.8597440719604492"><ele></ele><time>2014-10-15T20:42:27Z</time></trkpt>
<trkpt lat="46.2226448059082031" lon="7.8598012924194336"><ele></ele><time>2014-10-15T20:42:30Z</time></trkpt>
<trkpt lat="46.2226448059082031" lon="7.8599576950073242"><ele></ele><time>2014-10-15T20:42:33Z</time></trkpt>
<trkpt lat="46.2226905822753906" lon="7.8600797653198242"><ele></ele><time>2014-10-15T20:42:36Z</time></trkpt>
<trkpt lat="46.2227439880371094" lon="7.8602232933044434"><ele></ele><time>2014-10-15T20:42:39Z</time></trkpt>
<trkpt lat="46.2228240966796875" lon="7.8604001998901367"><ele></ele><time>2014-10-15T20:42:42Z</time></trkpt>
<trkpt lat="46.2228622436523438" lon="7.8606548309326172"><ele></ele><time>2014-10-15T20:42:45Z</time></trkpt>
<trkpt lat="46.2229499816894531" lon="7.8608412742614746"><ele></ele><time>2014-10-15T20:42:48Z</time></trkpt>
<trkpt lat="46.2230644226074219" lon="7.8610086441040039"><ele></ele><time>2014-10-15T20:42:51Z</time></trkpt>
<trkpt lat="46.2231597900390625" lon="7.8611745834350586"><ele></ele><time>2014-10-15T20:42:54Z</time></trkpt>
<trkpt lat="46.2234191894531250" lon="7.8613924980163574"><ele></ele><time>2014-10-15T20:42:57Z</time></trkpt>
<trkpt lat="46.2235832214355469" lon="7.8615002632141113"><ele></ele><time>2014-10-15T20:43:0Z</time></trkpt>
<trkpt lat="46.2237434387207031" lon="7.8615918159484863"><ele></ele><time>2014-10-15T20:43:3Z</time></trkpt>
<trkpt lat="46.2239265441894531" lon="7.8618412017822266"><ele></ele><time>2014-10-15T20:43:6Z</time></trkpt>
<trkpt lat="46.2240905761718750" lon="7.8620715141296387"><ele></ele><time>2014-10-15T20:43:9Z</time></trkpt>
<trkpt lat="46.2243041992187500" lon="7.8622064590454102"><ele></ele><time>2014-10-15T20:43:12Z</time></trkpt>
<trkpt lat="46.2244071960449219" lon="7.8624224662780762"><ele></ele><time>2014-10-15T20:43:15Z</time></trkpt>
<trkpt lat="46.2243919372558594" lon="7.8626093864440918"><ele></ele><time>2014-10-15T20:43:18Z</time></trkpt>
<trkpt lat="46.2244071960449219" lon="7.8627676963806152"><ele></ele><time>2014-10-15T20:43:21Z</time></trkpt>
<trkpt lat="46.2245597839355469" lon="7.8630404472351074"><ele></ele><time>2014-10-15T20:43:24Z</time></trkpt>
<trkpt lat="46.2251548767089844" lon="7.8633961677551270"><ele></ele><time>2014-10-15T20:43:27Z</time></trkpt>
<trkpt lat="46.2252807617187500" lon="7.8635349273681641"><ele></ele><time>2014-10-15T20:43:30Z</time></trkpt>
<trkpt lat="46.2253608703613281" lon="7.8636856079101562"><ele></ele><time>2014-10-15T20:43:33Z</time></trkpt>
<trkpt lat="46.2254676818847656" lon="7.8639855384826660"><ele></ele><time>2014-10-15T20:43:36Z</time></trkpt>
<trkpt lat="46.2255249023437500" lon="7.8642120361328125"><ele></ele><time>2014-10-15T20:43:39Z</time></trkpt>
<trkpt lat="46.2255516052246094" lon="7.8645544052124023"><ele></ele><time>2014-10-15T20:43:42Z</time></trkpt>
<trkpt lat="46.2257194519042969" lon="7.8647403717041016"><ele></ele><time>2014-10-15T20:43:45Z</time></trkpt>
<trkpt lat="46.2259407043457031" lon="7.8648099899291992"><ele></ele><time>2014-10-15T20:43:48Z</time></trkpt>
<trkpt lat="46.2261848449707031" lon="7.8649163246154785"><ele></ele><time>2014-10-15T20:43:51Z</time></trkpt>
<trkpt lat="46.2263221740722656" lon="7.8650488853454590"><ele></ele><time>2014-10-15T20:43:54Z</time></trkpt>
<trkpt lat="46.2264785766601562" lon="7.8651666641235352"><ele></ele><time>2014-10-15T20:43:57Z</time></trkpt>
<trkpt lat="46.2266654968261719" lon="7.8653531074523926"><ele></ele><time>2014-10-15T20:44:0Z</time></trkpt>
<trkpt lat="46.2267990112304688" lon="7.8655362129211426"><ele></ele><time>2014-10-15T20:44:3Z</time></trkpt>
<trkpt lat="46.2269210815429688" lon="7.8656826019287109"><ele></ele><time>2014-10-15T20:44:6Z</time></trkpt>
<trkpt lat="46.2270965576171875" lon="7.8658418655395508"><ele></ele><time>2014-10-15T20:44:9Z</time></trkpt>
<trkpt lat="46.2272186279296875" lon="7.8659834861755371"><ele></ele><time>2014-10-15T20:44:12Z</time></trkpt>
<trkpt lat="46.2273635864257812" lon="7.8661675453186035"><ele></ele><time>2014-10-15T20:44:15Z</time></trkpt>
<trkpt lat="46.2273788452148438" lon="7.8663558959960938"><ele></ele><time>2014-10-15T20:44:18Z</time></trkpt>
<trkpt lat="46.2273406982421875" lon="7.8666286468505859"><ele></ele><time>2014-10-15T20:44:21Z</time></trkpt>
<trkpt lat="46.2273254394531250" lon="7.8668255805969238"><ele></ele><time>2014-10-15T20:44:24Z</time></trkpt>
<trkpt lat="46.2273063659667969" lon="7.8671441078186035"><ele></ele><time>2014-10-15T20:44:27Z</time></trkpt>
<trkpt lat="46.2271575927734375" lon="7.8673615455627441"><ele></ele><time>2014-10-15T20:44:30Z</time></trkpt>
<trkpt lat="46.2269439697265625" lon="7.8675379753112793"><ele></ele><time>2014-10-15T20:44:33Z</time></trkpt>
<trkpt lat="46.2267913818359375" lon="7.8686852455139160"><ele></ele><time>2014-10-15T20:44:36Z</time></trkpt>
<trkpt lat="46.2267303466796875" lon="7.8689203262329102"><ele></ele><time>2014-10-15T20:44:39Z</time></trkpt>
<trkpt lat="46.2268028259277344" lon="7.8691196441650391"><ele></ele><time>2014-10-15T20:44:42Z</time></trkpt>
<trkpt lat="46.2270202636718750" lon="7.8692708015441895"><ele></ele><time>2014-10-15T20:44:45Z</time></trkpt>
<trkpt lat="46.2273216247558594" lon="7.8693933486938477"><ele></ele><time>2014-10-15T20:44:48Z</time></trkpt>
<trkpt lat="46.2276039123535156" lon="7.8694043159484863"><ele></ele><time>2014-10-15T20:44:51Z</time></trkpt>
<trkpt lat="46.2276802062988281" lon="7.8695483207702637"><ele></ele><time>2014-10-15T20:44:54Z</time></trkpt>
<trkpt lat="46.2276763916015625" lon="7.8698706626892090"><ele></ele><time>2014-10-15T20:44:57Z</time></trkpt>
<trkpt lat="46.2276649475097656" lon="7.8701291084289551"><ele></ele><time>2014-10-15T20:45:0Z</time></trkpt>
<trkpt lat="46.2275009155273438" lon="7.8703393936157227"><ele></ele><time>2014-10-15T20:45:3Z</time></trkpt>
<trkpt lat="46.2273979187011719" lon="7.8705010414123535"><ele></ele><time>2014-10-15T20:45:6Z</time></trkpt>
<trkpt lat="46.2272987365722656" lon="7.8707580566406250"><ele></ele><time>2014-10-15T20:45:9Z</time></trkpt>
<trkpt lat="46.2273635864257812" lon="7.8708496093750000"><ele></ele><time>2014-10-15T20:45:12Z</time></trkpt>
<trkpt lat="46.2276611328125000" lon="7.8710074424743652"><ele></ele><time>2014-10-15T20:45:15Z</time></trkpt>
<trkpt lat="46.2278099060058594" lon="7.8712081909179688"><ele></ele><time>2014-10-15T20:45:18Z</time></trkpt>
<trkpt lat="46.2278900146484375" lon="7.8713202476501465"><ele></ele><time>2014-10-15T20:45:21Z</time></trkpt>
<trkpt lat="46.2279281616210938" lon="7.8714833259582520"><ele></ele><time>2014-10-15T20:45:24Z</time></trkpt>
<trkpt lat="46.2280311584472656" lon="7.8715581893920898"><ele></ele><time>2014-10-15T20:45:27Z</time></trkpt>
<trkpt lat="46.2281799316406250" lon="7.8715877532958984"><ele></ele><time>2014-10-15T20:45:30Z</time></trkpt>
<trkpt lat="46.2284317016601562" lon="7.8715109825134277"><ele></ele><time>2014-10-15T20:45:33Z</time></trkpt>
<trkpt lat="46.2286567687988281" lon="7.8714456558227539"><ele></ele><time>2014-10-15T20:45:36Z</time></trkpt>
<trkpt lat="46.2288856506347656" lon="7.8714795112609863"><ele></ele><time>2014-10-15T20:45:39Z</time></trkpt>
<trkpt lat="46.2290382385253906" lon="7.8717250823974609"><ele></ele><time>2014-10-15T20:45:42Z</time></trkpt>
<trkpt lat="46.2291831970214844" lon="7.8717894554138184"><ele></ele><time>2014-10-15T20:45:45Z</time></trkpt>
<trkpt lat="46.2294921875000000" lon="7.8717303276062012"><ele></ele><time>2014-10-15T20:45:48Z</time></trkpt>
<trkpt lat="46.2295799255371094" lon="7.8716731071472168"><ele></ele><time>2014-10-15T20:45:51Z</time></trkpt>
<trkpt lat="46.2295532226562500" lon="7.8714942932128906"><ele></ele><time>2014-10-15T20:45:54Z</time></trkpt>
<trkpt lat="46.2294616699218750" lon="7.8708605766296387"><ele></ele><time>2014-10-15T20:45:57Z</time></trkpt>
<trkpt lat="46.2294464111328125" lon="7.8706774711608887"><ele></ele><time>2014-10-15T20:46:0Z</time></trkpt>
<trkpt lat="46.2294578552246094" lon="7.8705806732177734"><ele></ele><time>2014-10-15T20:46:3Z</time></trkpt>
<trkpt lat="46.2295036315917969" lon="7.8705019950866699"><ele></ele><time>2014-10-15T20:46:6Z</time></trkpt>
<trkpt lat="46.2295837402343750" lon="7.8704557418823242"><ele></ele><time>2014-10-15T20:46:9Z</time></trkpt>
<trkpt lat="46.2296180725097656" lon="7.8704352378845215"><ele></ele><time>2014-10-15T20:46:12Z</time></trkpt>
<trkpt lat="46.2296791076660156" lon="7.8704099655151367"><ele></ele><time>2014-10-15T20:46:15Z</time></trkpt>
<trkpt lat="46.2297172546386719" lon="7.8703932762145996"><ele></ele><time>2014-10-15T20:46:18Z</time></trkpt>
<trkpt lat="46.2297515869140625" lon="7.8703823089599609"><ele></ele><time>2014-10-15T20:46:21Z</time></trkpt>
<trkpt lat="46.2296943664550781" lon="7.8701982498168945"><ele></ele><time>2014-10-15T20:46:24Z</time></trkpt>
<trkpt lat="46.2297935485839844" lon="7.8702387809753418"><ele></ele><time>2014-10-15T20:46:27Z</time></trkpt>
<trkpt lat="46.2298889160156250" lon="7.8702683448791504"><ele></ele><time>2014-10-15T20:46:30Z</time></trkpt>
<trkpt lat="46.2300109863281250" lon="7.8703336715698242"><ele></ele><time>2014-10-15T20:46:33Z</time></trkpt>
<trkpt lat="46.2300567626953125" lon="7.8703331947326660"><ele></ele><time>2014-10-15T20:46:36Z</time></trkpt>
<trkpt lat="46.2302055358886719" lon="7.8703427314758301"><ele></ele><time>2014-10-15T20:46:39Z</time></trkpt>
<trkpt lat="46.2304954528808594" lon="7.8708701133728027"><ele></ele><time>2014-10-15T20:46:42Z</time></trkpt>
<trkpt lat="46.2306594848632812" lon="7.8709583282470703"><ele></ele><time>2014-10-15T20:46:45Z</time></trkpt>
<trkpt lat="46.2308273315429688" lon="7.8710541725158691"><ele></ele><time>2014-10-15T20:46:48Z</time></trkpt>
<trkpt lat="46.2310943603515625" lon="7.8712921142578125"><ele></ele><time>2014-10-15T20:46:51Z</time></trkpt>
<trkpt lat="46.2312202453613281" lon="7.8715043067932129"><ele></ele><time>2014-10-15T20:46:54Z</time></trkpt>
<trkpt lat="46.2314033508300781" lon="7.8718409538269043"><ele></ele><time>2014-10-15T20:46:57Z</time></trkpt>
<trkpt lat="46.2315902709960938" lon="7.8721575736999512"><ele></ele><time>2014-10-15T20:47:0Z</time></trkpt>
<trkpt lat="46.2317848205566406" lon="7.8724122047424316"><ele></ele><time>2014-10-15T20:47:3Z</time></trkpt>
<trkpt lat="46.2321052551269531" lon="7.8726139068603516"><ele></ele><time>2014-10-15T20:47:6Z</time></trkpt>
<trkpt lat="46.2322998046875000" lon="7.8726882934570312"><ele></ele><time>2014-10-15T20:47:9Z</time></trkpt>
<trkpt lat="46.2326049804687500" lon="7.8727321624755859"><ele></ele><time>2014-10-15T20:47:12Z</time></trkpt>
<trkpt lat="46.2329101562500000" lon="7.8727817535400391"><ele></ele><time>2014-10-15T20:47:15Z</time></trkpt>
<trkpt lat="46.2331237792968750" lon="7.8728828430175781"><ele></ele><time>2014-10-15T20:47:18Z</time></trkpt>
<trkpt lat="46.2334442138671875" lon="7.8731312751770020"><ele></ele><time>2014-10-15T20:47:21Z</time></trkpt>
<trkpt lat="46.2336235046386719" lon="7.8733429908752441"><ele></ele><time>2014-10-15T20:47:24Z</time></trkpt>
<trkpt lat="46.2339096069335938" lon="7.8736686706542969"><ele></ele><time>2014-10-15T20:47:27Z</time></trkpt>
<trkpt lat="46.2341079711914062" lon="7.8738636970520020"><ele></ele><time>2014-10-15T20:47:30Z</time></trkpt>
<trkpt lat="46.2344474792480469" lon="7.8740901947021484"><ele></ele><time>2014-10-15T20:47:33Z</time></trkpt>
<trkpt lat="46.2346801757812500" lon="7.8741407394409180"><ele></ele><time>2014-10-15T20:47:36Z</time></trkpt>
<trkpt lat="46.2349281311035156" lon="7.8741173744201660"><ele></ele><time>2014-10-15T20:47:39Z</time></trkpt>
<trkpt lat="46.2351684570312500" lon="7.8741416931152344"><ele></ele><time>2014-10-15T20:47:42Z</time></trkpt>
<trkpt lat="46.2355728149414062" lon="7.8742995262145996"><ele></ele><time>2014-10-15T20:47:45Z</time></trkpt>
<trkpt lat="46.2357749938964844" lon="7.8745117187500000"><ele></ele><time>2014-10-15T20:47:48Z</time></trkpt>
<trkpt lat="46.2359924316406250" lon="7.8747873306274414"><ele></ele><time>2014-10-15T20:47:51Z</time></trkpt>
<trkpt lat="46.2358970642089844" lon="7.8750700950622559"><ele></ele><time>2014-10-15T20:47:54Z</time></trkpt>
<trkpt lat="46.2357864379882812" lon="7.8753266334533691"><ele></ele><time>2014-10-15T20:47:57Z</time></trkpt>
<trkpt lat="46.2357139587402344" lon="7.8753962516784668"><ele></ele><time>2014-10-15T20:48:0Z</time></trkpt>
<trkpt lat="46.2357025146484375" lon="7.8755340576171875"><ele></ele><time>2014-10-15T20:48:3Z</time></trkpt>
<trkpt lat="46.2357215881347656" lon="7.8755617141723633"><ele></ele><time>2014-10-15T20:48:6Z</time></trkpt>
<trkpt lat="46.2357292175292969" lon="7.8755602836608887"><ele></ele><time>2014-10-15T20:48:9Z</time></trkpt>
<trkpt lat="46.2356910705566406" lon="7.8756413459777832"><ele></ele><time>2014-10-15T20:48:12Z</time></trkpt>
<trkpt lat="46.2357292175292969" lon="7.8757276535034180"><ele></ele><time>2014-10-15T20:48:15Z</time></trkpt>
<trkpt lat="46.2357635498046875" lon="7.8757214546203613"><ele></ele><time>2014-10-15T20:48:18Z</time></trkpt>
<trkpt lat="46.2358665466308594" lon="7.8757491111755371"><ele></ele><time>2014-10-15T20:48:21Z</time></trkpt>
<trkpt lat="46.2359428405761719" lon="7.8757038116455078"><ele></ele><time>2014-10-15T20:48:24Z</time></trkpt>
<trkpt lat="46.2359924316406250" lon="7.8756823539733887"><ele></ele><time>2014-10-15T20:48:27Z</time></trkpt>
<trkpt lat="46.2360877990722656" lon="7.8756642341613770"><ele></ele><time>2014-10-15T20:48:30Z</time></trkpt>
<trkpt lat="46.2361564636230469" lon="7.8756842613220215"><ele></ele><time>2014-10-15T20:48:33Z</time></trkpt>
<trkpt lat="46.2362442016601562" lon="7.8756947517395020"><ele></ele><time>2014-10-15T20:48:36Z</time></trkpt>
<trkpt lat="46.2363090515136719" lon="7.8757410049438477"><ele></ele><time>2014-10-15T20:48:39Z</time></trkpt>
<trkpt lat="46.2363090515136719" lon="7.8757910728454590"><ele></ele><time>2014-10-15T20:48:42Z</time></trkpt>
<trkpt lat="46.2362365722656250" lon="7.8758425712585449"><ele></ele><time>2014-10-15T20:48:45Z</time></trkpt>
<trkpt lat="46.2362098693847656" lon="7.8758959770202637"><ele></ele><time>2014-10-15T20:48:48Z</time></trkpt>
<trkpt lat="46.2361793518066406" lon="7.8758969306945801"><ele></ele><time>2014-10-15T20:48:51Z</time></trkpt>
<trkpt lat="46.2361640930175781" lon="7.8759055137634277"><ele></ele><time>2014-10-15T20:48:54Z</time></trkpt>
<trkpt lat="46.2361335754394531" lon="7.8759369850158691"><ele></ele><time>2014-10-15T20:48:57Z</time></trkpt>
<trkpt lat="46.2360877990722656" lon="7.8759665489196777"><ele></ele><time>2014-10-15T20:49:0Z</time></trkpt>
<trkpt lat="46.2360420227050781" lon="7.8759994506835938"><ele></ele><time>2014-10-15T20:49:3Z</time></trkpt>
<trkpt lat="46.2359924316406250" lon="7.8760519027709961"><ele></ele><time>2014-10-15T20:49:6Z</time></trkpt>
<trkpt lat="46.2359313964843750" lon="7.8761396408081055"><ele></ele><time>2014-10-15T20:49:9Z</time></trkpt>
<trkpt lat="46.2358856201171875" lon="7.8762226104736328"><ele></ele><time>2014-10-15T20:49:12Z</time></trkpt>
<trkpt lat="46.2358474731445312" lon="7.8762845993041992"><ele></ele><time>2014-10-15T20:49:15Z</time></trkpt>
<trkpt lat="46.2357864379882812" lon="7.8763709068298340"><ele></ele><time>2014-10-15T20:49:18Z</time></trkpt>
<trkpt lat="46.2357368469238281" lon="7.8764648437500000"><ele></ele><time>2014-10-15T20:49:21Z</time></trkpt>
<trkpt lat="46.2356758117675781" lon="7.8765401840209961"><ele></ele><time>2014-10-15T20:49:24Z</time></trkpt>
<trkpt lat="46.2356224060058594" lon="7.8765659332275391"><ele></ele><time>2014-10-15T20:49:27Z</time></trkpt>
<trkpt lat="46.2355384826660156" lon="7.8765296936035156"><ele></ele><time>2014-10-15T20:49:30Z</time></trkpt>
<trkpt lat="46.2354965209960938" lon="7.8764595985412598"><ele></ele><time>2014-10-15T20:49:33Z</time></trkpt>
<trkpt lat="46.2354698181152344" lon="7.8763475418090820"><ele></ele><time>2014-10-15T20:49:36Z</time></trkpt>
<trkpt lat="46.2354583740234375" lon="7.8762803077697754"><ele></ele><time>2014-10-15T20:49:39Z</time></trkpt>
<trkpt lat="46.2354545593261719" lon="7.8762173652648926"><ele></ele><time>2014-10-15T20:49:42Z</time></trkpt>
<trkpt lat="46.2354660034179688" lon="7.8761415481567383"><ele></ele><time>2014-10-15T20:49:45Z</time></trkpt>
<trkpt lat="46.2354927062988281" lon="7.8760876655578613"><ele></ele><time>2014-10-15T20:49:48Z</time></trkpt>
<trkpt lat="46.2355117797851562" lon="7.8760328292846680"><ele></ele><time>2014-10-15T20:49:51Z</time></trkpt>
<trkpt lat="46.2355117797851562" lon="7.8759779930114746"><ele></ele><time>2014-10-15T20:49:54Z</time></trkpt>
<trkpt lat="46.2355041503906250" lon="7.8759245872497559"><ele></ele><time>2014-10-15T20:49:57Z</time></trkpt>
<trkpt lat="46.2354736328125000" lon="7.8758468627929688"><ele></ele><time>2014-10-15T20:50:0Z</time></trkpt>
<trkpt lat="46.2354507446289062" lon="7.8757939338684082"><ele></ele><time>2014-10-15T20:50:3Z</time></trkpt>
<trkpt lat="46.2354164123535156" lon="7.8757143020629883"><ele></ele><time>2014-10-15T20:50:6Z</time></trkpt>
<trkpt lat="46.2354011535644531" lon="7.8756599426269531"><ele></ele><time>2014-10-15T20:50:9Z</time></trkpt>
<trkpt lat="46.2353706359863281" lon="7.8755855560302734"><ele></ele><time>2014-10-15T20:50:12Z</time></trkpt>
<trkpt lat="46.2353248596191406" lon="7.8755140304565430"><ele></ele><time>2014-10-15T20:50:15Z</time></trkpt>
<trkpt lat="46.2352790832519531" lon="7.8754324913024902"><ele></ele><time>2014-10-15T20:50:18Z</time></trkpt>
<trkpt lat="46.2352409362792969" lon="7.8753819465637207"><ele></ele><time>2014-10-15T20:50:21Z</time></trkpt>
<trkpt lat="46.2351722717285156" lon="7.8753385543823242"><ele></ele><time>2014-10-15T20:50:24Z</time></trkpt>
<trkpt lat="46.2350883483886719" lon="7.8753285408020020"><ele></ele><time>2014-10-15T20:50:27Z</time></trkpt>
<trkpt lat="46.2350044250488281" lon="7.8753404617309570"><ele></ele><time>2014-10-15T20:50:30Z</time></trkpt>
<trkpt lat="46.2349357604980469" lon="7.8753695487976074"><ele></ele><time>2014-10-15T20:50:33Z</time></trkpt>
<trkpt lat="46.2348937988281250" lon="7.8753890991210938"><ele></ele><time>2014-10-15T20:50:36Z</time></trkpt>
<trkpt lat="46.2348442077636719" lon="7.8754076957702637"><ele></ele><time>2014-10-15T20:50:39Z</time></trkpt>
<trkpt lat="46.2347717285156250" lon="7.8754372596740723"><ele></ele><time>2014-10-15T20:50:42Z</time></trkpt>
<trkpt lat="46.2347183227539062" lon="7.8754525184631348"><ele></ele><time>2014-10-15T20:50:45Z</time></trkpt>
<trkpt lat="46.2346572875976562" lon="7.8754558563232422"><ele></ele><time>2014-10-15T20:50:48Z</time></trkpt>
<trkpt lat="46.2346229553222656" lon="7.8754277229309082"><ele></ele><time>2014-10-15T20:50:51Z</time></trkpt>
<trkpt lat="46.2346038818359375" lon="7.8753747940063477"><ele></ele><time>2014-10-15T20:50:54Z</time></trkpt>
<trkpt lat="46.2345886230468750" lon="7.8753156661987305"><ele></ele><time>2014-10-15T20:50:57Z</time></trkpt>
<trkpt lat="46.2345695495605469" lon="7.8752431869506836"><ele></ele><time>2014-10-15T20:51:0Z</time></trkpt>
<trkpt lat="46.2345352172851562" lon="7.8751707077026367"><ele></ele><time>2014-10-15T20:51:3Z</time></trkpt>
<trkpt lat="46.2344779968261719" lon="7.8751325607299805"><ele></ele><time>2014-10-15T20:51:6Z</time></trkpt>
<trkpt lat="46.2343902587890625" lon="7.8751463890075684"><ele></ele><time>2014-10-15T20:51:9Z</time></trkpt>
<trkpt lat="46.2343063354492188" lon="7.8751792907714844"><ele></ele><time>2014-10-15T20:51:12Z</time></trkpt>
<trkpt lat="46.2342071533203125" lon="7.8752231597900391"><ele></ele><time>2014-10-15T20:51:15Z</time></trkpt>
<trkpt lat="46.2341232299804688" lon="7.8752336502075195"><ele></ele><time>2014-10-15T20:51:18Z</time></trkpt>
<trkpt lat="46.2340431213378906" lon="7.8752241134643555"><ele></ele><time>2014-10-15T20:51:21Z</time></trkpt>
<trkpt lat="46.2339935302734375" lon="7.8752164840698242"><ele></ele><time>2014-10-15T20:51:24Z</time></trkpt>
<trkpt lat="46.2339515686035156" lon="7.8751945495605469"><ele></ele><time>2014-10-15T20:51:27Z</time></trkpt>
<trkpt lat="46.2338981628417969" lon="7.8751406669616699"><ele></ele><time>2014-10-15T20:51:30Z</time></trkpt>
<trkpt lat="46.2338638305664062" lon="7.8751006126403809"><ele></ele><time>2014-10-15T20:51:33Z</time></trkpt>
<trkpt lat="46.2337875366210938" lon="7.8750777244567871"><ele></ele><time>2014-10-15T20:51:36Z</time></trkpt>
<trkpt lat="46.2337188720703125" lon="7.8750548362731934"><ele></ele><time>2014-10-15T20:51:39Z</time></trkpt>
<trkpt lat="46.2336540222167969" lon="7.8750214576721191"><ele></ele><time>2014-10-15T20:51:42Z</time></trkpt>
<trkpt lat="46.2336082458496094" lon="7.8750066757202148"><ele></ele><time>2014-10-15T20:51:45Z</time></trkpt>
<trkpt lat="46.2335357666015625" lon="7.8749828338623047"><ele></ele><time>2014-10-15T20:51:48Z</time></trkpt>
<trkpt lat="46.2334899902343750" lon="7.8749632835388184"><ele></ele><time>2014-10-15T20:51:51Z</time></trkpt>
<trkpt lat="46.2334175109863281" lon="7.8749561309814453"><ele></ele><time>2014-10-15T20:51:54Z</time></trkpt>
<trkpt lat="46.2333641052246094" lon="7.8749580383300781"><ele></ele><time>2014-10-15T20:51:57Z</time></trkpt>
<trkpt lat="46.2332839965820312" lon="7.8749418258666992"><ele></ele><time>2014-10-15T20:52:0Z</time></trkpt>
<trkpt lat="46.2332077026367188" lon="7.8749313354492188"><ele></ele><time>2014-10-15T20:52:3Z</time></trkpt>
<trkpt lat="46.2331581115722656" lon="7.8749318122863770"><ele></ele><time>2014-10-15T20:52:6Z</time></trkpt>
<trkpt lat="46.2330741882324219" lon="7.8749475479125977"><ele></ele><time>2014-10-15T20:52:9Z</time></trkpt>
<trkpt lat="46.2330169677734375" lon="7.8749475479125977"><ele></ele><time>2014-10-15T20:52:12Z</time></trkpt>
<trkpt lat="46.2329330444335938" lon="7.8749294281005859"><ele></ele><time>2014-10-15T20:52:15Z</time></trkpt>
<trkpt lat="46.2328872680664062" lon="7.8749089241027832"><ele></ele><time>2014-10-15T20:52:18Z</time></trkpt>
<trkpt lat="46.2328071594238281" lon="7.8748831748962402"><ele></ele><time>2014-10-15T20:52:21Z</time></trkpt>
<trkpt lat="46.2327537536621094" lon="7.8748731613159180"><ele></ele><time>2014-10-15T20:52:24Z</time></trkpt>
<trkpt lat="46.2326965332031250" lon="7.8748588562011719"><ele></ele><time>2014-10-15T20:52:27Z</time></trkpt>
<trkpt lat="46.2326469421386719" lon="7.8748340606689453"><ele></ele><time>2014-10-15T20:52:30Z</time></trkpt>
<trkpt lat="46.2325782775878906" lon="7.8747992515563965"><ele></ele><time>2014-10-15T20:52:33Z</time></trkpt>
<trkpt lat="46.2325210571289062" lon="7.8747801780700684"><ele></ele><time>2014-10-15T20:52:36Z</time></trkpt>
<trkpt lat="46.2324676513671875" lon="7.8747568130493164"><ele></ele><time>2014-10-15T20:52:39Z</time></trkpt>
<trkpt lat="46.2323913574218750" lon="7.8747148513793945"><ele></ele><time>2014-10-15T20:52:42Z</time></trkpt>
<trkpt lat="46.2323493957519531" lon="7.8746852874755859"><ele></ele><time>2014-10-15T20:52:45Z</time></trkpt>
<trkpt lat="46.2323074340820312" lon="7.8746418952941895"><ele></ele><time>2014-10-15T20:52:48Z</time></trkpt>
<trkpt lat="46.2322235107421875" lon="7.8746094703674316"><ele></ele><time>2014-10-15T20:52:51Z</time></trkpt>
<trkpt lat="46.2321243286132812" lon="7.8745837211608887"><ele></ele><time>2014-10-15T20:52:54Z</time></trkpt>
<trkpt lat="46.2320442199707031" lon="7.8745927810668945"><ele></ele><time>2014-10-15T20:52:57Z</time></trkpt>
<trkpt lat="46.2319297790527344" lon="7.8745856285095215"><ele></ele><time>2014-10-15T20:53:0Z</time></trkpt>
<trkpt lat="46.2318382263183594" lon="7.8745613098144531"><ele></ele><time>2014-10-15T20:53:3Z</time></trkpt>
<trkpt lat="46.2317733764648438" lon="7.8745422363281250"><ele></ele><time>2014-10-15T20:53:6Z</time></trkpt>
<trkpt lat="46.2316894531250000" lon="7.8745074272155762"><ele></ele><time>2014-10-15T20:53:9Z</time></trkpt>
<trkpt lat="46.2316474914550781" lon="7.8744783401489258"><ele></ele><time>2014-10-15T20:53:12Z</time></trkpt>
<trkpt lat="46.2315979003906250" lon="7.8744444847106934"><ele></ele><time>2014-10-15T20:53:15Z</time></trkpt>
<trkpt lat="46.2315444946289062" lon="7.8744220733642578"><ele></ele><time>2014-10-15T20:53:18Z</time></trkpt>
<trkpt lat="46.2314758300781250" lon="7.8744149208068848"><ele></ele><time>2014-10-15T20:53:21Z</time></trkpt>
<trkpt lat="46.2313652038574219" lon="7.8744196891784668"><ele></ele><time>2014-10-15T20:53:24Z</time></trkpt>
<trkpt lat="46.2312927246093750" lon="7.8744411468505859"><ele></ele><time>2014-10-15T20:53:27Z</time></trkpt>
<trkpt lat="46.2312202453613281" lon="7.8744635581970215"><ele></ele><time>2014-10-15T20:53:30Z</time></trkpt>
<trkpt lat="46.2311172485351562" lon="7.8744974136352539"><ele></ele><time>2014-10-15T20:53:33Z</time></trkpt>
<trkpt lat="46.2310523986816406" lon="7.8745203018188477"><ele></ele><time>2014-10-15T20:53:36Z</time></trkpt>
<trkpt lat="46.2309837341308594" lon="7.8745393753051758"><ele></ele><time>2014-10-15T20:53:39Z</time></trkpt>
<trkpt lat="46.2309226989746094" lon="7.8745532035827637"><ele></ele><time>2014-10-15T20:53:42Z</time></trkpt>
<trkpt lat="46.2308578491210938" lon="7.8745732307434082"><ele></ele><time>2014-10-15T20:53:45Z</time></trkpt>
<trkpt lat="46.2307662963867188" lon="7.8746066093444824"><ele></ele><time>2014-10-15T20:53:48Z</time></trkpt>
<trkpt lat="46.2307052612304688" lon="7.8746261596679688"><ele></ele><time>2014-10-15T20:53:51Z</time></trkpt>
<trkpt lat="46.2306022644042969" lon="7.8746619224548340"><ele></ele><time>2014-10-15T20:53:54Z</time></trkpt>
<trkpt lat="46.2305335998535156" lon="7.8746833801269531"><ele></ele><time>2014-10-15T20:53:57Z</time></trkpt>
<trkpt lat="46.2304687500000000" lon="7.8746933937072754"><ele></ele><time>2014-10-15T20:54:0Z</time></trkpt>
<trkpt lat="46.2304039001464844" lon="7.8746852874755859"><ele></ele><time>2014-10-15T20:54:3Z</time></trkpt>
<trkpt lat="46.2303199768066406" lon="7.8746209144592285"><ele></ele><time>2014-10-15T20:54:6Z</time></trkpt>
<trkpt lat="46.2302627563476562" lon="7.8745799064636230"><ele></ele><time>2014-10-15T20:54:9Z</time></trkpt>
<trkpt lat="46.2301940917968750" lon="7.8745851516723633"><ele></ele><time>2014-10-15T20:54:12Z</time></trkpt>
<trkpt lat="46.2301368713378906" lon="7.8746981620788574"><ele></ele><time>2014-10-15T20:54:15Z</time></trkpt>
<trkpt lat="46.2301902770996094" lon="7.8748273849487305"><ele></ele><time>2014-10-15T20:54:18Z</time></trkpt>
<trkpt lat="46.2302970886230469" lon="7.8748788833618164"><ele></ele><time>2014-10-15T20:54:21Z</time></trkpt>
<trkpt lat="46.2304077148437500" lon="7.8749208450317383"><ele></ele><time>2014-10-15T20:54:24Z</time></trkpt>
<trkpt lat="46.2304687500000000" lon="7.8749580383300781"><ele></ele><time>2014-10-15T20:54:27Z</time></trkpt>
<trkpt lat="46.2305374145507812" lon="7.8749661445617676"><ele></ele><time>2014-10-15T20:54:30Z</time></trkpt>
<trkpt lat="46.2306480407714844" lon="7.8749437332153320"><ele></ele><time>2014-10-15T20:54:33Z</time></trkpt>
<trkpt lat="46.2307205200195312" lon="7.8749303817749023"><ele></ele><time>2014-10-15T20:54:36Z</time></trkpt>
<trkpt lat="46.2308273315429688" lon="7.8749237060546875"><ele></ele><time>2014-10-15T20:54:39Z</time></trkpt>
<trkpt lat="46.2309341430664062" lon="7.8749113082885742"><ele></ele><time>2014-10-15T20:54:42Z</time></trkpt>
<trkpt lat="46.2310409545898438" lon="7.8749003410339355"><ele></ele><time>2014-10-15T20:54:45Z</time></trkpt>
<trkpt lat="46.2311096191406250" lon="7.8748998641967773"><ele></ele><time>2014-10-15T20:54:48Z</time></trkpt>
<trkpt lat="46.2311782836914062" lon="7.8749103546142578"><ele></ele><time>2014-10-15T20:54:51Z</time></trkpt>
<trkpt lat="46.2312850952148438" lon="7.8749475479125977"><ele></ele><time>2014-10-15T20:54:54Z</time></trkpt>
<trkpt lat="46.2313537597656250" lon="7.8749761581420898"><ele></ele><time>2014-10-15T20:54:57Z</time></trkpt>
<trkpt lat="46.2314529418945312" lon="7.8750166893005371"><ele></ele><time>2014-10-15T20:55:0Z</time></trkpt>
<trkpt lat="46.2315444946289062" lon="7.8750820159912109"><ele></ele><time>2014-10-15T20:55:3Z</time></trkpt>
<trkpt lat="46.2316169738769531" lon="7.8751831054687500"><ele></ele><time>2014-10-15T20:55:6Z</time></trkpt>
<trkpt lat="46.2316627502441406" lon="7.8752527236938477"><ele></ele><time>2014-10-15T20:55:9Z</time></trkpt>
<trkpt lat="46.2317123413085938" lon="7.8753190040588379"><ele></ele><time>2014-10-15T20:55:12Z</time></trkpt>
<trkpt lat="46.2318000793457031" lon="7.8754272460937500"><ele></ele><time>2014-10-15T20:55:15Z</time></trkpt>
<trkpt lat="46.2318572998046875" lon="7.8754887580871582"><ele></ele><time>2014-10-15T20:55:18Z</time></trkpt>
<trkpt lat="46.2319488525390625" lon="7.8755598068237305"><ele></ele><time>2014-10-15T20:55:21Z</time></trkpt>
<trkpt lat="46.2320098876953125" lon="7.8756008148193359"><ele></ele><time>2014-10-15T20:55:24Z</time></trkpt>
<trkpt lat="46.2320976257324219" lon="7.8756737709045410"><ele></ele><time>2014-10-15T20:55:27Z</time></trkpt>
<trkpt lat="46.2321853637695312" lon="7.8757433891296387"><ele></ele><time>2014-10-15T20:55:30Z</time></trkpt>
<trkpt lat="46.2322425842285156" lon="7.8758025169372559"><ele></ele><time>2014-10-15T20:55:33Z</time></trkpt>
<trkpt lat="46.2323150634765625" lon="7.8759093284606934"><ele></ele><time>2014-10-15T20:55:36Z</time></trkpt>
<trkpt lat="46.2323684692382812" lon="7.8759760856628418"><ele></ele><time>2014-10-15T20:55:39Z</time></trkpt>
<trkpt lat="46.2324447631835938" lon="7.8760724067687988"><ele></ele><time>2014-10-15T20:55:42Z</time></trkpt>
<trkpt lat="46.2324981689453125" lon="7.8761343955993652"><ele></ele><time>2014-10-15T20:55:45Z</time></trkpt>
<trkpt lat="46.2325744628906250" lon="7.8762359619140625"><ele></ele><time>2014-10-15T20:55:48Z</time></trkpt>
<trkpt lat="46.2326278686523438" lon="7.8763060569763184"><ele></ele><time>2014-10-15T20:55:51Z</time></trkpt>
<trkpt lat="46.2327156066894531" lon="7.8764147758483887"><ele></ele><time>2014-10-15T20:55:54Z</time></trkpt>
<trkpt lat="46.2327995300292969" lon="7.8765120506286621"><ele></ele><time>2014-10-15T20:55:57Z</time></trkpt>
<trkpt lat="46.2328491210937500" lon="7.8765969276428223"><ele></ele><time>2014-10-15T20:56:0Z</time></trkpt>
<trkpt lat="46.2329406738281250" lon="7.8766684532165527"><ele></ele><time>2014-10-15T20:56:3Z</time></trkpt>
<trkpt lat="46.2330093383789062" lon="7.8767132759094238"><ele></ele><time>2014-10-15T20:56:6Z</time></trkpt>
<trkpt lat="46.2331047058105469" lon="7.8767757415771484"><ele></ele><time>2014-10-15T20:56:9Z</time></trkpt>
<trkpt lat="46.2331619262695312" lon="7.8768234252929688"><ele></ele><time>2014-10-15T20:56:12Z</time></trkpt>
<trkpt lat="46.2332534790039062" lon="7.8768944740295410"><ele></ele><time>2014-10-15T20:56:15Z</time></trkpt>
<trkpt lat="46.2333145141601562" lon="7.8769407272338867"><ele></ele><time>2014-10-15T20:56:18Z</time></trkpt>
<trkpt lat="46.2333755493164062" lon="7.8769907951354980"><ele></ele><time>2014-10-15T20:56:21Z</time></trkpt>
<trkpt lat="46.2334594726562500" lon="7.8770723342895508"><ele></ele><time>2014-10-15T20:56:24Z</time></trkpt>
<trkpt lat="46.2335090637207031" lon="7.8771424293518066"><ele></ele><time>2014-10-15T20:56:27Z</time></trkpt>
<trkpt lat="46.2335700988769531" lon="7.8771934509277344"><ele></ele><time>2014-10-15T20:56:30Z</time></trkpt>
<trkpt lat="46.2336311340332031" lon="7.8772382736206055"><ele></ele><time>2014-10-15T20:56:33Z</time></trkpt>
<trkpt lat="46.2336883544921875" lon="7.8772954940795898"><ele></ele><time>2014-10-15T20:56:36Z</time></trkpt>
<trkpt lat="46.2337417602539062" lon="7.8773479461669922"><ele></ele><time>2014-10-15T20:56:39Z</time></trkpt>
<trkpt lat="46.2338218688964844" lon="7.8774294853210449"><ele></ele><time>2014-10-15T20:56:42Z</time></trkpt>
<trkpt lat="46.2338752746582031" lon="7.8774914741516113"><ele></ele><time>2014-10-15T20:56:45Z</time></trkpt>
<trkpt lat="46.2339439392089844" lon="7.8775968551635742"><ele></ele><time>2014-10-15T20:56:48Z</time></trkpt>
<trkpt lat="46.2339935302734375" lon="7.8776683807373047"><ele></ele><time>2014-10-15T20:56:51Z</time></trkpt>
<trkpt lat="46.2340431213378906" lon="7.8777327537536621"><ele></ele><time>2014-10-15T20:56:54Z</time></trkpt>
<trkpt lat="46.2341003417968750" lon="7.8777818679809570"><ele></ele><time>2014-10-15T20:56:57Z</time></trkpt>
<trkpt lat="46.2341690063476562" lon="7.8778095245361328"><ele></ele><time>2014-10-15T20:57:0Z</time></trkpt>
<trkpt lat="46.2343063354492188" lon="7.8778233528137207"><ele></ele><time>2014-10-15T20:57:3Z</time></trkpt>
<trkpt lat="46.2343978881835938" lon="7.8778343200683594"><ele></ele><time>2014-10-15T20:57:6Z</time></trkpt>
<trkpt lat="46.2345046997070312" lon="7.8779191970825195"><ele></ele><time>2014-10-15T20:57:9Z</time></trkpt>
<trkpt lat="46.2345123291015625" lon="7.8779959678649902"><ele></ele><time>2014-10-15T20:57:12Z</time></trkpt>
<trkpt lat="46.2344894409179688" lon="7.8780326843261719"><ele></ele><time>2014-10-15T20:57:15Z</time></trkpt>
<trkpt lat="46.2343597412109375" lon="7.8779883384704590"><ele></ele><time>2014-10-15T20:57:18Z</time></trkpt>
<trkpt lat="46.2342376708984375" lon="7.8779320716857910"><ele></ele><time>2014-10-15T20:57:21Z</time></trkpt>
<trkpt lat="46.2341194152832031" lon="7.8778638839721680"><ele></ele><time>2014-10-15T20:57:24Z</time></trkpt>
<trkpt lat="46.2340202331542969" lon="7.8777785301208496"><ele></ele><time>2014-10-15T20:57:27Z</time></trkpt>
<trkpt lat="46.2338981628417969" lon="7.8776426315307617"><ele></ele><time>2014-10-15T20:57:30Z</time></trkpt>
<trkpt lat="46.2338333129882812" lon="7.8775482177734375"><ele></ele><time>2014-10-15T20:57:33Z</time></trkpt>
<trkpt lat="46.2337608337402344" lon="7.8774590492248535"><ele></ele><time>2014-10-15T20:57:36Z</time></trkpt>
<trkpt lat="46.2335510253906250" lon="7.8771581649780273"><ele></ele><time>2014-10-15T20:57:39Z</time></trkpt>
<trkpt lat="46.2333984375000000" lon="7.8770828247070312"><ele></ele><time>2014-10-15T20:57:42Z</time></trkpt>
<trkpt lat="46.2332763671875000" lon="7.8770809173583984"><ele></ele><time>2014-10-15T20:57:45Z</time></trkpt>
<trkpt lat="46.2331504821777344" lon="7.8770656585693359"><ele></ele><time>2014-10-15T20:57:48Z</time></trkpt>
<trkpt lat="46.2330284118652344" lon="7.8770446777343750"><ele></ele><time>2014-10-15T20:57:51Z</time></trkpt>
<trkpt lat="46.2329368591308594" lon="7.8769879341125488"><ele></ele><time>2014-10-15T20:57:54Z</time></trkpt>
<trkpt lat="46.2328720092773438" lon="7.8769526481628418"><ele></ele><time>2014-10-15T20:57:57Z</time></trkpt>
<trkpt lat="46.2328186035156250" lon="7.8769235610961914"><ele></ele><time>2014-10-15T20:58:0Z</time></trkpt>
<trkpt lat="46.2327613830566406" lon="7.8768959045410156"><ele></ele><time>2014-10-15T20:58:3Z</time></trkpt>
<trkpt lat="46.2326622009277344" lon="7.8768782615661621"><ele></ele><time>2014-10-15T20:58:6Z</time></trkpt>
<trkpt lat="46.2325935363769531" lon="7.8768696784973145"><ele></ele><time>2014-10-15T20:58:9Z</time></trkpt>
<trkpt lat="46.2324943542480469" lon="7.8768649101257324"><ele></ele><time>2014-10-15T20:58:12Z</time></trkpt>
<trkpt lat="46.2324104309082031" lon="7.8768472671508789"><ele></ele><time>2014-10-15T20:58:15Z</time></trkpt>
<trkpt lat="46.2323532104492188" lon="7.8768162727355957"><ele></ele><time>2014-10-15T20:58:18Z</time></trkpt>
<trkpt lat="46.2323036193847656" lon="7.8768091201782227"><ele></ele><time>2014-10-15T20:58:21Z</time></trkpt>
<trkpt lat="46.2322311401367188" lon="7.8767900466918945"><ele></ele><time>2014-10-15T20:58:24Z</time></trkpt>
<trkpt lat="46.2321128845214844" lon="7.8767771720886230"><ele></ele><time>2014-10-15T20:58:27Z</time></trkpt>
<trkpt lat="46.2319793701171875" lon="7.8767910003662109"><ele></ele><time>2014-10-15T20:58:30Z</time></trkpt>
<trkpt lat="46.2318916320800781" lon="7.8767967224121094"><ele></ele><time>2014-10-15T20:58:33Z</time></trkpt>
<trkpt lat="46.2318038940429688" lon="7.8767938613891602"><ele></ele><time>2014-10-15T20:58:36Z</time></trkpt>
<trkpt lat="46.2317237854003906" lon="7.8767852783203125"><ele></ele><time>2014-10-15T20:58:39Z</time></trkpt>
<trkpt lat="46.2316246032714844" lon="7.8767690658569336"><ele></ele><time>2014-10-15T20:58:42Z</time></trkpt>
<trkpt lat="46.2315330505371094" lon="7.8767285346984863"><ele></ele><time>2014-10-15T20:58:45Z</time></trkpt>
<trkpt lat="46.2314300537109375" lon="7.8766684532165527"><ele></ele><time>2014-10-15T20:58:48Z</time></trkpt>
<trkpt lat="46.2313652038574219" lon="7.8766312599182129"><ele></ele><time>2014-10-15T20:58:51Z</time></trkpt>
<trkpt lat="46.2312698364257812" lon="7.8765716552734375"><ele></ele><time>2014-10-15T20:58:54Z</time></trkpt>
<trkpt lat="46.2312088012695312" lon="7.8765406608581543"><ele></ele><time>2014-10-15T20:58:57Z</time></trkpt>
<trkpt lat="46.2311058044433594" lon="7.8765254020690918"><ele></ele><time>2014-10-15T20:59:0Z</time></trkpt>
<trkpt lat="46.2310371398925781" lon="7.8765454292297363"><ele></ele><time>2014-10-15T20:59:3Z</time></trkpt>
<trkpt lat="46.2309341430664062" lon="7.8765935897827148"><ele></ele><time>2014-10-15T20:59:6Z</time></trkpt>
<trkpt lat="46.2308273315429688" lon="7.8766479492187500"><ele></ele><time>2014-10-15T20:59:9Z</time></trkpt>
<trkpt lat="46.2307243347167969" lon="7.8766970634460449"><ele></ele><time>2014-10-15T20:59:12Z</time></trkpt>
<trkpt lat="46.2306594848632812" lon="7.8767189979553223"><ele></ele><time>2014-10-15T20:59:15Z</time></trkpt>
<trkpt lat="46.2305603027343750" lon="7.8767518997192383"><ele></ele><time>2014-10-15T20:59:18Z</time></trkpt>
<trkpt lat="46.2304649353027344" lon="7.8768081665039062"><ele></ele><time>2014-10-15T20:59:21Z</time></trkpt>
<trkpt lat="46.2303657531738281" lon="7.8768491744995117"><ele></ele><time>2014-10-15T20:59:24Z</time></trkpt>
<trkpt lat="46.2302970886230469" lon="7.8768701553344727"><ele></ele><time>2014-10-15T20:59:27Z</time></trkpt>
<trkpt lat="46.2302284240722656" lon="7.8768997192382812"><ele></ele><time>2014-10-15T20:59:30Z</time></trkpt>
<trkpt lat="46.2301330566406250" lon="7.8769516944885254"><ele></ele><time>2014-10-15T20:59:33Z</time></trkpt>
<trkpt lat="46.2300682067871094" lon="7.8769860267639160"><ele></ele><time>2014-10-15T20:59:36Z</time></trkpt>
<trkpt lat="46.2299804687500000" lon="7.8770461082458496"><ele></ele><time>2014-10-15T20:59:39Z</time></trkpt>
<trkpt lat="46.2299346923828125" lon="7.8770766258239746"><ele></ele><time>2014-10-15T20:59:42Z</time></trkpt>
<trkpt lat="46.2298545837402344" lon="7.8770990371704102"><ele></ele><time>2014-10-15T20:59:45Z</time></trkpt>
<trkpt lat="46.2297668457031250" lon="7.8771333694458008"><ele></ele><time>2014-10-15T20:59:48Z</time></trkpt>
<trkpt lat="46.2296791076660156" lon="7.8771715164184570"><ele></ele><time>2014-10-15T20:59:51Z</time></trkpt>
<trkpt lat="46.2296218872070312" lon="7.8771953582763672"><ele></ele><time>2014-10-15T20:59:54Z</time></trkpt>
<trkpt lat="46.2295608520507812" lon="7.8772220611572266"><ele></ele><time>2014-10-15T20:59:57Z</time></trkpt>
<trkpt lat="46.2294616699218750" lon="7.8772764205932617"><ele></ele><time>2014-10-15T21:0:0Z</time></trkpt>
<trkpt lat="46.2293891906738281" lon="7.8773345947265625"><ele></ele><time>2014-10-15T21:0:3Z</time></trkpt>
<trkpt lat="46.2292823791503906" lon="7.8774361610412598"><ele></ele><time>2014-10-15T21:0:6Z</time></trkpt>
<trkpt lat="46.2292175292968750" lon="7.8775124549865723"><ele></ele><time>2014-10-15T21:0:9Z</time></trkpt>
<trkpt lat="46.2291221618652344" lon="7.8776273727416992"><ele></ele><time>2014-10-15T21:0:12Z</time></trkpt>
<trkpt lat="46.2290306091308594" lon="7.8777294158935547"><ele></ele><time>2014-10-15T21:0:15Z</time></trkpt>
<trkpt lat="46.2289543151855469" lon="7.8778271675109863"><ele></ele><time>2014-10-15T21:0:18Z</time></trkpt>
<trkpt lat="46.2289085388183594" lon="7.8778986930847168"><ele></ele><time>2014-10-15T21:0:21Z</time></trkpt>
<trkpt lat="46.2288360595703125" lon="7.8779969215393066"><ele></ele><time>2014-10-15T21:0:24Z</time></trkpt>
<trkpt lat="46.2287521362304688" lon="7.8780579566955566"><ele></ele><time>2014-10-15T21:0:27Z</time></trkpt>
<trkpt lat="46.2286605834960938" lon="7.8780941963195801"><ele></ele><time>2014-10-15T21:0:30Z</time></trkpt>
<trkpt lat="46.2285957336425781" lon="7.8781237602233887"><ele></ele><time>2014-10-15T21:0:33Z</time></trkpt>
<trkpt lat="46.2285003662109375" lon="7.8781723976135254"><ele></ele><time>2014-10-15T21:0:36Z</time></trkpt>
<trkpt lat="46.2284317016601562" lon="7.8782052993774414"><ele></ele><time>2014-10-15T21:0:39Z</time></trkpt>
<trkpt lat="46.2283668518066406" lon="7.8782401084899902"><ele></ele><time>2014-10-15T21:0:42Z</time></trkpt>
<trkpt lat="46.2282638549804688" lon="7.8782920837402344"><ele></ele><time>2014-10-15T21:0:45Z</time></trkpt>
<trkpt lat="46.2281761169433594" lon="7.8783502578735352"><ele></ele><time>2014-10-15T21:0:48Z</time></trkpt>
<trkpt lat="46.2280349731445312" lon="7.8784651756286621"><ele></ele><time>2014-10-15T21:0:51Z</time></trkpt>
<trkpt lat="46.2279663085937500" lon="7.8785614967346191"><ele></ele><time>2014-10-15T21:0:54Z</time></trkpt>
<trkpt lat="46.2279052734375000" lon="7.8786635398864746"><ele></ele><time>2014-10-15T21:0:57Z</time></trkpt>
<trkpt lat="46.2278099060058594" lon="7.8788166046142578"><ele></ele><time>2014-10-15T21:1:0Z</time></trkpt>
<trkpt lat="46.2277450561523438" lon="7.8789138793945312"><ele></ele><time>2014-10-15T21:1:3Z</time></trkpt>
<trkpt lat="46.2276687622070312" lon="7.8789973258972168"><ele></ele><time>2014-10-15T21:1:6Z</time></trkpt>
<trkpt lat="46.2275810241699219" lon="7.8790435791015625"><ele></ele><time>2014-10-15T21:1:9Z</time></trkpt>
<trkpt lat="46.2274436950683594" lon="7.8790726661682129"><ele></ele><time>2014-10-15T21:1:12Z</time></trkpt>
<trkpt lat="46.2273597717285156" lon="7.8790793418884277"><ele></ele><time>2014-10-15T21:1:15Z</time></trkpt>
<trkpt lat="46.2272415161132812" lon="7.8791279792785645"><ele></ele><time>2014-10-15T21:1:18Z</time></trkpt>
<trkpt lat="46.2272186279296875" lon="7.8793048858642578"><ele></ele><time>2014-10-15T21:1:21Z</time></trkpt>
<trkpt lat="46.2273330688476562" lon="7.8794131278991699"><ele></ele><time>2014-10-15T21:1:24Z</time></trkpt>
<trkpt lat="46.2274475097656250" lon="7.8794274330139160"><ele></ele><time>2014-10-15T21:1:27Z</time></trkpt>
<trkpt lat="46.2276115417480469" lon="7.8793373107910156"><ele></ele><time>2014-10-15T21:1:30Z</time></trkpt>
<trkpt lat="46.2276916503906250" lon="7.8793091773986816"><ele></ele><time>2014-10-15T21:1:33Z</time></trkpt>
<trkpt lat="46.2278175354003906" lon="7.8792114257812500"><ele></ele><time>2014-10-15T21:1:36Z</time></trkpt>
<trkpt lat="46.2279167175292969" lon="7.8791122436523438"><ele></ele><time>2014-10-15T21:1:39Z</time></trkpt>
<trkpt lat="46.2279777526855469" lon="7.8790464401245117"><ele></ele><time>2014-10-15T21:1:42Z</time></trkpt>
<trkpt lat="46.2280426025390625" lon="7.8789811134338379"><ele></ele><time>2014-10-15T21:1:45Z</time></trkpt>
<trkpt lat="46.2280921936035156" lon="7.8789358139038086"><ele></ele><time>2014-10-15T21:1:48Z</time></trkpt>
<trkpt lat="46.2281875610351562" lon="7.8788685798645020"><ele></ele><time>2014-10-15T21:1:51Z</time></trkpt>
<trkpt lat="46.2282600402832031" lon="7.8788371086120605"><ele></ele><time>2014-10-15T21:1:54Z</time></trkpt>
<trkpt lat="46.2283592224121094" lon="7.8788018226623535"><ele></ele><time>2014-10-15T21:1:57Z</time></trkpt>
<trkpt lat="46.2284660339355469" lon="7.8787670135498047"><ele></ele><time>2014-10-15T21:2:0Z</time></trkpt>
<trkpt lat="46.2285690307617188" lon="7.8787274360656738"><ele></ele><time>2014-10-15T21:2:3Z</time></trkpt>
<trkpt lat="46.2286376953125000" lon="7.8786988258361816"><ele></ele><time>2014-10-15T21:2:6Z</time></trkpt>
<trkpt lat="46.2287368774414062" lon="7.8786511421203613"><ele></ele><time>2014-10-15T21:2:9Z</time></trkpt>
<trkpt lat="46.2288055419921875" lon="7.8786330223083496"><ele></ele><time>2014-10-15T21:2:12Z</time></trkpt>
<trkpt lat="46.2288742065429688" lon="7.8786292076110840"><ele></ele><time>2014-10-15T21:2:15Z</time></trkpt>
<trkpt lat="46.2289772033691406" lon="7.8786506652832031"><ele></ele><time>2014-10-15T21:2:18Z</time></trkpt>
<trkpt lat="46.2290763854980469" lon="7.8787016868591309"><ele></ele><time>2014-10-15T21:2:21Z</time></trkpt>
<trkpt lat="46.2291297912597656" lon="7.8787460327148438"><ele></ele><time>2014-10-15T21:2:24Z</time></trkpt>
<trkpt lat="46.2291870117187500" lon="7.8787884712219238"><ele></ele><time>2014-10-15T21:2:27Z</time></trkpt>
<trkpt lat="46.2292480468750000" lon="7.8788142204284668"><ele></ele><time>2014-10-15T21:2:30Z</time></trkpt>
<trkpt lat="46.2293472290039062" lon="7.8787975311279297"><ele></ele><time>2014-10-15T21:2:33Z</time></trkpt>
<trkpt lat="46.2294387817382812" lon="7.8787164688110352"><ele></ele><time>2014-10-15T21:2:36Z</time></trkpt>
<trkpt lat="46.2294960021972656" lon="7.8786540031433105"><ele></ele><time>2014-10-15T21:2:39Z</time></trkpt>
<trkpt lat="46.2295875549316406" lon="7.8785724639892578"><ele></ele><time>2014-10-15T21:2:42Z</time></trkpt>
<trkpt lat="46.2296447753906250" lon="7.8785104751586914"><ele></ele><time>2014-10-15T21:2:45Z</time></trkpt>
<trkpt lat="46.2297019958496094" lon="7.8784537315368652"><ele></ele><time>2014-10-15T21:2:48Z</time></trkpt>
<trkpt lat="46.2297859191894531" lon="7.8783750534057617"><ele></ele><time>2014-10-15T21:2:51Z</time></trkpt>
<trkpt lat="46.2298469543457031" lon="7.8783445358276367"><ele></ele><time>2014-10-15T21:2:54Z</time></trkpt>
<trkpt lat="46.2299461364746094" lon="7.8783330917358398"><ele></ele><time>2014-10-15T21:2:57Z</time></trkpt>
<trkpt lat="46.2300148010253906" lon="7.8783373832702637"><ele></ele><time>2014-10-15T21:3:0Z</time></trkpt>
<trkpt lat="46.2301177978515625" lon="7.8783555030822754"><ele></ele><time>2014-10-15T21:3:3Z</time></trkpt>
<trkpt lat="46.2301902770996094" lon="7.8783664703369141"><ele></ele><time>2014-10-15T21:3:6Z</time></trkpt>
<trkpt lat="46.2302970886230469" lon="7.8783903121948242"><ele></ele><time>2014-10-15T21:3:9Z</time></trkpt>
<trkpt lat="46.2303657531738281" lon="7.8784070014953613"><ele></ele><time>2014-10-15T21:3:12Z</time></trkpt>
<trkpt lat="46.2304611206054688" lon="7.8784303665161133"><ele></ele><time>2014-10-15T21:3:15Z</time></trkpt>
<trkpt lat="46.2305259704589844" lon="7.8784432411193848"><ele></ele><time>2014-10-15T21:3:18Z</time></trkpt>
<trkpt lat="46.2306251525878906" lon="7.8784580230712891"><ele></ele><time>2014-10-15T21:3:21Z</time></trkpt>
<trkpt lat="46.2307243347167969" lon="7.8784704208374023"><ele></ele><time>2014-10-15T21:3:24Z</time></trkpt>
<trkpt lat="46.2308158874511719" lon="7.8784842491149902"><ele></ele><time>2014-10-15T21:3:27Z</time></trkpt>
<trkpt lat="46.2308769226074219" lon="7.8784952163696289"><ele></ele><time>2014-10-15T21:3:30Z</time></trkpt>
<trkpt lat="46.2309608459472656" lon="7.8785376548767090"><ele></ele><time>2014-10-15T21:3:33Z</time></trkpt>
<trkpt lat="46.2310066223144531" lon="7.8785972595214844"><ele></ele><time>2014-10-15T21:3:36Z</time></trkpt>
<trkpt lat="46.2310752868652344" lon="7.8786878585815430"><ele></ele><time>2014-10-15T21:3:39Z</time></trkpt>
<trkpt lat="46.2311668395996094" lon="7.8787302970886230"><ele></ele><time>2014-10-15T21:3:42Z</time></trkpt>
<trkpt lat="46.2312278747558594" lon="7.8787522315979004"><ele></ele><time>2014-10-15T21:3:45Z</time></trkpt>
<trkpt lat="46.2313003540039062" lon="7.8787884712219238"><ele></ele><time>2014-10-15T21:3:48Z</time></trkpt>
<trkpt lat="46.2313537597656250" lon="7.8787970542907715"><ele></ele><time>2014-10-15T21:3:51Z</time></trkpt>
<trkpt lat="46.2314109802246094" lon="7.8787994384765625"><ele></ele><time>2014-10-15T21:3:54Z</time></trkpt>
<trkpt lat="46.2314987182617188" lon="7.8788113594055176"><ele></ele><time>2014-10-15T21:3:57Z</time></trkpt>
<trkpt lat="46.2315559387207031" lon="7.8788275718688965"><ele></ele><time>2014-10-15T21:4:0Z</time></trkpt>
<trkpt lat="46.2316513061523438" lon="7.8788471221923828"><ele></ele><time>2014-10-15T21:4:3Z</time></trkpt>
<trkpt lat="46.2317123413085938" lon="7.8788681030273438"><ele></ele><time>2014-10-15T21:4:6Z</time></trkpt>
<trkpt lat="46.2317962646484375" lon="7.8789005279541016"><ele></ele><time>2014-10-15T21:4:9Z</time></trkpt>
<trkpt lat="46.2318878173828125" lon="7.8789339065551758"><ele></ele><time>2014-10-15T21:4:12Z</time></trkpt>
<trkpt lat="46.2319908142089844" lon="7.8789987564086914"><ele></ele><time>2014-10-15T21:4:15Z</time></trkpt>
<trkpt lat="46.2320404052734375" lon="7.8791041374206543"><ele></ele><time>2014-10-15T21:4:18Z</time></trkpt>
<trkpt lat="46.2320709228515625" lon="7.8792252540588379"><ele></ele><time>2014-10-15T21:4:21Z</time></trkpt>
<trkpt lat="46.2320671081542969" lon="7.8794140815734863"><ele></ele><time>2014-10-15T21:4:24Z</time></trkpt>
<trkpt lat="46.2320556640625000" lon="7.8795924186706543"><ele></ele><time>2014-10-15T21:4:27Z</time></trkpt>
<trkpt lat="46.2320899963378906" lon="7.8797588348388672"><ele></ele><time>2014-10-15T21:4:30Z</time></trkpt>
<trkpt lat="46.2321128845214844" lon="7.8798623085021973"><ele></ele><time>2014-10-15T21:4:33Z</time></trkpt>
<trkpt lat="46.2321395874023438" lon="7.8799939155578613"><ele></ele><time>2014-10-15T21:4:36Z</time></trkpt>
<trkpt lat="46.2321548461914062" lon="7.8800854682922363"><ele></ele><time>2014-10-15T21:4:39Z</time></trkpt>
<trkpt lat="46.2321739196777344" lon="7.8801779747009277"><ele></ele><time>2014-10-15T21:4:42Z</time></trkpt>
<trkpt lat="46.2322006225585938" lon="7.8803176879882812"><ele></ele><time>2014-10-15T21:4:45Z</time></trkpt>
<trkpt lat="46.2322120666503906" lon="7.8804011344909668"><ele></ele><time>2014-10-15T21:4:48Z</time></trkpt>
<trkpt lat="46.2322273254394531" lon="7.8805279731750488"><ele></ele><time>2014-10-15T21:4:51Z</time></trkpt>
<trkpt lat="46.2322502136230469" lon="7.8806118965148926"><ele></ele><time>2014-10-15T21:4:54Z</time></trkpt>
<trkpt lat="46.2323188781738281" lon="7.8807325363159180"><ele></ele><time>2014-10-15T21:4:57Z</time></trkpt>
<trkpt lat="46.2323989868164062" lon="7.8808436393737793"><ele></ele><time>2014-10-15T21:5:0Z</time></trkpt>
<trkpt lat="46.2324790954589844" lon="7.8809528350830078"><ele></ele><time>2014-10-15T21:5:3Z</time></trkpt>
<trkpt lat="46.2325325012207031" lon="7.8810243606567383"><ele></ele><time>2014-10-15T21:5:6Z</time></trkpt>
<trkpt lat="46.2326164245605469" lon="7.8811364173889160"><ele></ele><time>2014-10-15T21:5:9Z</time></trkpt>
<trkpt lat="46.2326660156250000" lon="7.8812093734741211"><ele></ele><time>2014-10-15T21:5:12Z</time></trkpt>
<trkpt lat="46.2327194213867188" lon="7.8812785148620605"><ele></ele><time>2014-10-15T21:5:15Z</time></trkpt>
<trkpt lat="46.2328033447265625" lon="7.8813772201538086"><ele></ele><time>2014-10-15T21:5:18Z</time></trkpt>
<trkpt lat="46.2328529357910156" lon="7.8814401626586914"><ele></ele><time>2014-10-15T21:5:21Z</time></trkpt>
<trkpt lat="46.2329216003417969" lon="7.8815245628356934"><ele></ele><time>2014-10-15T21:5:24Z</time></trkpt>
<trkpt lat="46.2329673767089844" lon="7.8815946578979492"><ele></ele><time>2014-10-15T21:5:27Z</time></trkpt>
<trkpt lat="46.2330093383789062" lon="7.8816757202148438"><ele></ele><time>2014-10-15T21:5:30Z</time></trkpt>
<trkpt lat="46.2330551147460938" lon="7.8818130493164062"><ele></ele><time>2014-10-15T21:5:33Z</time></trkpt>
<trkpt lat="46.2330932617187500" lon="7.8819808959960938"><ele></ele><time>2014-10-15T21:5:36Z</time></trkpt>
<trkpt lat="46.2331161499023438" lon="7.8820934295654297"><ele></ele><time>2014-10-15T21:5:39Z</time></trkpt>
<trkpt lat="46.2331771850585938" lon="7.8822588920593262"><ele></ele><time>2014-10-15T21:5:42Z</time></trkpt>
<trkpt lat="46.2332153320312500" lon="7.8823604583740234"><ele></ele><time>2014-10-15T21:5:45Z</time></trkpt>
<trkpt lat="46.2332534790039062" lon="7.8824615478515625"><ele></ele><time>2014-10-15T21:5:48Z</time></trkpt>
<trkpt lat="46.2333030700683594" lon="7.8826208114624023"><ele></ele><time>2014-10-15T21:5:51Z</time></trkpt>
<trkpt lat="46.2332916259765625" lon="7.8827199935913086"><ele></ele><time>2014-10-15T21:5:54Z</time></trkpt>
<trkpt lat="46.2332191467285156" lon="7.8826317787170410"><ele></ele><time>2014-10-15T21:5:57Z</time></trkpt>
<trkpt lat="46.2331733703613281" lon="7.8824920654296875"><ele></ele><time>2014-10-15T21:6:0Z</time></trkpt>
<trkpt lat="46.2331581115722656" lon="7.8823537826538086"><ele></ele><time>2014-10-15T21:6:3Z</time></trkpt>
<trkpt lat="46.2331161499023438" lon="7.8821625709533691"><ele></ele><time>2014-10-15T21:6:6Z</time></trkpt>
<trkpt lat="46.2330856323242188" lon="7.8820433616638184"><ele></ele><time>2014-10-15T21:6:9Z</time></trkpt>
<trkpt lat="46.2330398559570312" lon="7.8818812370300293"><ele></ele><time>2014-10-15T21:6:12Z</time></trkpt>
<trkpt lat="46.2330017089843750" lon="7.8817806243896484"><ele></ele><time>2014-10-15T21:6:15Z</time></trkpt>
<trkpt lat="46.2329177856445312" lon="7.8816838264465332"><ele></ele><time>2014-10-15T21:6:18Z</time></trkpt>
<trkpt lat="46.2328491210937500" lon="7.8816432952880859"><ele></ele><time>2014-10-15T21:6:21Z</time></trkpt>
<trkpt lat="46.2327461242675781" lon="7.8816022872924805"><ele></ele><time>2014-10-15T21:6:24Z</time></trkpt>
<trkpt lat="46.2326393127441406" lon="7.8815636634826660"><ele></ele><time>2014-10-15T21:6:27Z</time></trkpt>
<trkpt lat="46.2325668334960938" lon="7.8815345764160156"><ele></ele><time>2014-10-15T21:6:30Z</time></trkpt>
<trkpt lat="46.2324790954589844" lon="7.8814840316772461"><ele></ele><time>2014-10-15T21:6:33Z</time></trkpt>
<trkpt lat="46.2324333190917969" lon="7.8814182281494141"><ele></ele><time>2014-10-15T21:6:36Z</time></trkpt>
<trkpt lat="46.2324028015136719" lon="7.8813676834106445"><ele></ele><time>2014-10-15T21:6:39Z</time></trkpt>
<trkpt lat="46.2323722839355469" lon="7.8813228607177734"><ele></ele><time>2014-10-15T21:6:42Z</time></trkpt>
<trkpt lat="46.2323417663574219" lon="7.8812747001647949"><ele></ele><time>2014-10-15T21:6:45Z</time></trkpt>
<trkpt lat="46.2323112487792969" lon="7.8812251091003418"><ele></ele><time>2014-10-15T21:6:48Z</time></trkpt>
<trkpt lat="46.2322311401367188" lon="7.8811435699462891"><ele></ele><time>2014-10-15T21:6:51Z</time></trkpt>
<trkpt lat="46.2321701049804688" lon="7.8810787200927734"><ele></ele><time>2014-10-15T21:6:54Z</time></trkpt>
<trkpt lat="46.2320938110351562" lon="7.8809814453125000"><ele></ele><time>2014-10-15T21:6:57Z</time></trkpt>
<trkpt lat="46.2320480346679688" lon="7.8809180259704590"><ele></ele><time>2014-10-15T21:7:0Z</time></trkpt>
<trkpt lat="46.2320060729980469" lon="7.8808550834655762"><ele></ele><time>2014-10-15T21:7:3Z</time></trkpt>
<trkpt lat="46.2319679260253906" lon="7.8807911872863770"><ele></ele><time>2014-10-15T21:7:6Z</time></trkpt>
<trkpt lat="46.2319374084472656" lon="7.8807239532470703"><ele></ele><time>2014-10-15T21:7:9Z</time></trkpt>
<trkpt lat="46.2318840026855469" lon="7.8806271553039551"><ele></ele><time>2014-10-15T21:7:12Z</time></trkpt>
<trkpt lat="46.2318496704101562" lon="7.8805613517761230"><ele></ele><time>2014-10-15T21:7:15Z</time></trkpt>
<trkpt lat="46.2317848205566406" lon="7.8804659843444824"><ele></ele><time>2014-10-15T21:7:18Z</time></trkpt>
<trkpt lat="46.2317123413085938" lon="7.8803749084472656"><ele></ele><time>2014-10-15T21:7:21Z</time></trkpt>
<trkpt lat="46.2316665649414062" lon="7.8803162574768066"><ele></ele><time>2014-10-15T21:7:24Z</time></trkpt>
<trkpt lat="46.2315940856933594" lon="7.8802309036254883"><ele></ele><time>2014-10-15T21:7:27Z</time></trkpt>
<trkpt lat="46.2315444946289062" lon="7.8801808357238770"><ele></ele><time>2014-10-15T21:7:30Z</time></trkpt>
<trkpt lat="46.2314643859863281" lon="7.8801159858703613"><ele></ele><time>2014-10-15T21:7:33Z</time></trkpt>
<trkpt lat="46.2314147949218750" lon="7.8800835609436035"><ele></ele><time>2014-10-15T21:7:36Z</time></trkpt>
<trkpt lat="46.2313575744628906" lon="7.8800663948059082"><ele></ele><time>2014-10-15T21:7:39Z</time></trkpt>
<trkpt lat="46.2312736511230469" lon="7.8800530433654785"><ele></ele><time>2014-10-15T21:7:42Z</time></trkpt>
<trkpt lat="46.2312202453613281" lon="7.8800468444824219"><ele></ele><time>2014-10-15T21:7:45Z</time></trkpt>
<trkpt lat="46.2311286926269531" lon="7.8800458908081055"><ele></ele><time>2014-10-15T21:7:48Z</time></trkpt>
<trkpt lat="46.2310638427734375" lon="7.8800663948059082"><ele></ele><time>2014-10-15T21:7:51Z</time></trkpt>
<trkpt lat="46.2310066223144531" lon="7.8800892829895020"><ele></ele><time>2014-10-15T21:7:54Z</time></trkpt>
<trkpt lat="46.2309150695800781" lon="7.8801274299621582"><ele></ele><time>2014-10-15T21:7:57Z</time></trkpt>
<trkpt lat="46.2308273315429688" lon="7.8801674842834473"><ele></ele><time>2014-10-15T21:8:0Z</time></trkpt>
<trkpt lat="46.2307701110839844" lon="7.8801894187927246"><ele></ele><time>2014-10-15T21:8:3Z</time></trkpt>
<trkpt lat="46.2306823730468750" lon="7.8802146911621094"><ele></ele><time>2014-10-15T21:8:6Z</time></trkpt>
<trkpt lat="46.2305946350097656" lon="7.8802523612976074"><ele></ele><time>2014-10-15T21:8:9Z</time></trkpt>
<trkpt lat="46.2305412292480469" lon="7.8802771568298340"><ele></ele><time>2014-10-15T21:8:12Z</time></trkpt>
<trkpt lat="46.2304649353027344" lon="7.8803300857543945"><ele></ele><time>2014-10-15T21:8:15Z</time></trkpt>
<trkpt lat="46.2304153442382812" lon="7.8803687095642090"><ele></ele><time>2014-10-15T21:8:18Z</time></trkpt>
<trkpt lat="46.2303466796875000" lon="7.8804259300231934"><ele></ele><time>2014-10-15T21:8:21Z</time></trkpt>
<trkpt lat="46.2302780151367188" lon="7.8804845809936523"><ele></ele><time>2014-10-15T21:8:24Z</time></trkpt>
<trkpt lat="46.2302322387695312" lon="7.8805251121520996"><ele></ele><time>2014-10-15T21:8:27Z</time></trkpt>
<trkpt lat="46.2301635742187500" lon="7.8805851936340332"><ele></ele><time>2014-10-15T21:8:30Z</time></trkpt>
<trkpt lat="46.2301139831542969" lon="7.8806190490722656"><ele></ele><time>2014-10-15T21:8:33Z</time></trkpt>
<trkpt lat="46.2300643920898438" lon="7.8806538581848145"><ele></ele><time>2014-10-15T21:8:36Z</time></trkpt>
<trkpt lat="46.2300109863281250" lon="7.8806929588317871"><ele></ele><time>2014-10-15T21:8:39Z</time></trkpt>
<trkpt lat="46.2299652099609375" lon="7.8807382583618164"><ele></ele><time>2014-10-15T21:8:42Z</time></trkpt>
<trkpt lat="46.2298927307128906" lon="7.8808155059814453"><ele></ele><time>2014-10-15T21:8:45Z</time></trkpt>
<trkpt lat="46.2298507690429688" lon="7.8808770179748535"><ele></ele><time>2014-10-15T21:8:48Z</time></trkpt>
<trkpt lat="46.2298126220703125" lon="7.8809423446655273"><ele></ele><time>2014-10-15T21:8:51Z</time></trkpt>
<trkpt lat="46.2297592163085938" lon="7.8810391426086426"><ele></ele><time>2014-10-15T21:8:54Z</time></trkpt>
<trkpt lat="46.2297286987304688" lon="7.8811016082763672"><ele></ele><time>2014-10-15T21:8:57Z</time></trkpt>
<trkpt lat="46.2296714782714844" lon="7.8811945915222168"><ele></ele><time>2014-10-15T21:9:0Z</time></trkpt>
<trkpt lat="46.2296333312988281" lon="7.8812494277954102"><ele></ele><time>2014-10-15T21:9:3Z</time></trkpt>
<trkpt lat="46.2295837402343750" lon="7.8812913894653320"><ele></ele><time>2014-10-15T21:9:6Z</time></trkpt>
<trkpt lat="46.2295036315917969" lon="7.8813343048095703"><ele></ele><time>2014-10-15T21:9:9Z</time></trkpt>
<trkpt lat="46.2294120788574219" lon="7.8813600540161133"><ele></ele><time>2014-10-15T21:9:12Z</time></trkpt>
<trkpt lat="46.2293548583984375" lon="7.8813629150390625"><ele></ele><time>2014-10-15T21:9:15Z</time></trkpt>
<trkpt lat="46.2292633056640625" lon="7.8813281059265137"><ele></ele><time>2014-10-15T21:9:18Z</time></trkpt>
<trkpt lat="46.2291717529296875" lon="7.8813099861145020"><ele></ele><time>2014-10-15T21:9:21Z</time></trkpt>
<trkpt lat="46.2291145324707031" lon="7.8813056945800781"><ele></ele><time>2014-10-15T21:9:24Z</time></trkpt>
<trkpt lat="46.2290573120117188" lon="7.8812937736511230"><ele></ele><time>2014-10-15T21:9:27Z</time></trkpt>
<trkpt lat="46.2290000915527344" lon="7.8812904357910156"><ele></ele><time>2014-10-15T21:9:30Z</time></trkpt>
<trkpt lat="46.2289466857910156" lon="7.8812885284423828"><ele></ele><time>2014-10-15T21:9:33Z</time></trkpt>
<trkpt lat="46.2288551330566406" lon="7.8812704086303711"><ele></ele><time>2014-10-15T21:9:36Z</time></trkpt>
<trkpt lat="46.2287979125976562" lon="7.8812537193298340"><ele></ele><time>2014-10-15T21:9:39Z</time></trkpt>
<trkpt lat="46.2287101745605469" lon="7.8812432289123535"><ele></ele><time>2014-10-15T21:9:42Z</time></trkpt>
<trkpt lat="46.2286491394042969" lon="7.8812537193298340"><ele></ele><time>2014-10-15T21:9:45Z</time></trkpt>
<trkpt lat="46.2285957336425781" lon="7.8812799453735352"><ele></ele><time>2014-10-15T21:9:48Z</time></trkpt>
<trkpt lat="46.2285156250000000" lon="7.8813443183898926"><ele></ele><time>2014-10-15T21:9:51Z</time></trkpt>
<trkpt lat="46.2284660339355469" lon="7.8813953399658203"><ele></ele><time>2014-10-15T21:9:54Z</time></trkpt>
<trkpt lat="46.2283935546875000" lon="7.8814764022827148"><ele></ele><time>2014-10-15T21:9:57Z</time></trkpt>
<trkpt lat="46.2283210754394531" lon="7.8815526962280273"><ele></ele><time>2014-10-15T21:10:0Z</time></trkpt>
<trkpt lat="46.2282485961914062" lon="7.8816218376159668"><ele></ele><time>2014-10-15T21:10:3Z</time></trkpt>
<trkpt lat="46.2281990051269531" lon="7.8816728591918945"><ele></ele><time>2014-10-15T21:10:6Z</time></trkpt>
<trkpt lat="46.2281532287597656" lon="7.8817324638366699"><ele></ele><time>2014-10-15T21:10:9Z</time></trkpt>
<trkpt lat="46.2280769348144531" lon="7.8818149566650391"><ele></ele><time>2014-10-15T21:10:12Z</time></trkpt>
<trkpt lat="46.2280044555664062" lon="7.8818864822387695"><ele></ele><time>2014-10-15T21:10:15Z</time></trkpt>
<trkpt lat="46.2279434204101562" lon="7.8819718360900879"><ele></ele><time>2014-10-15T21:10:18Z</time></trkpt>
<trkpt lat="46.2278861999511719" lon="7.8820638656616211"><ele></ele><time>2014-10-15T21:10:21Z</time></trkpt>
<trkpt lat="46.2278442382812500" lon="7.8821182250976562"><ele></ele><time>2014-10-15T21:10:24Z</time></trkpt>
<trkpt lat="46.2277908325195312" lon="7.8822093009948730"><ele></ele><time>2014-10-15T21:10:27Z</time></trkpt>
<trkpt lat="46.2277297973632812" lon="7.8822898864746094"><ele></ele><time>2014-10-15T21:10:30Z</time></trkpt>
<trkpt lat="46.2276725769042969" lon="7.8823781013488770"><ele></ele><time>2014-10-15T21:10:33Z</time></trkpt>
<trkpt lat="46.2276077270507812" lon="7.8824677467346191"><ele></ele><time>2014-10-15T21:10:36Z</time></trkpt>
<trkpt lat="46.2275657653808594" lon="7.8825259208679199"><ele></ele><time>2014-10-15T21:10:39Z</time></trkpt>
<trkpt lat="46.2275161743164062" lon="7.8825740814208984"><ele></ele><time>2014-10-15T21:10:42Z</time></trkpt>
<trkpt lat="46.2274627685546875" lon="7.8826088905334473"><ele></ele><time>2014-10-15T21:10:45Z</time></trkpt>
<trkpt lat="46.2273750305175781" lon="7.8826260566711426"><ele></ele><time>2014-10-15T21:10:48Z</time></trkpt>
<trkpt lat="46.2273178100585938" lon="7.8826127052307129"><ele></ele><time>2014-10-15T21:10:51Z</time></trkpt>
<trkpt lat="46.2272453308105469" lon="7.8825845718383789"><ele></ele><time>2014-10-15T21:10:54Z</time></trkpt>
<trkpt lat="46.2271690368652344" lon="7.8825864791870117"><ele></ele><time>2014-10-15T21:10:57Z</time></trkpt>
<trkpt lat="46.2270889282226562" lon="7.8826227188110352"><ele></ele><time>2014-10-15T21:11:0Z</time></trkpt>
<trkpt lat="46.2270050048828125" lon="7.8826899528503418"><ele></ele><time>2014-10-15T21:11:3Z</time></trkpt>
<trkpt lat="46.2269248962402344" lon="7.8827691078186035"><ele></ele><time>2014-10-15T21:11:6Z</time></trkpt>
<trkpt lat="46.2268714904785156" lon="7.8828282356262207"><ele></ele><time>2014-10-15T21:11:9Z</time></trkpt>
<trkpt lat="46.2267951965332031" lon="7.8829212188720703"><ele></ele><time>2014-10-15T21:11:12Z</time></trkpt>
<trkpt lat="46.2267456054687500" lon="7.8829879760742188"><ele></ele><time>2014-10-15T21:11:15Z</time></trkpt>
<trkpt lat="46.2266883850097656" lon="7.8830561637878418"><ele></ele><time>2014-10-15T21:11:18Z</time></trkpt>
<trkpt lat="46.2265968322753906" lon="7.8831453323364258"><ele></ele><time>2014-10-15T21:11:21Z</time></trkpt>
<trkpt lat="46.2265281677246094" lon="7.8831844329833984"><ele></ele><time>2014-10-15T21:11:24Z</time></trkpt>
<trkpt lat="46.2264213562011719" lon="7.8832254409790039"><ele></ele><time>2014-10-15T21:11:27Z</time></trkpt>
<trkpt lat="46.2263717651367188" lon="7.8832926750183105"><ele></ele><time>2014-10-15T21:11:30Z</time></trkpt>
<trkpt lat="46.2263641357421875" lon="7.8833875656127930"><ele></ele><time>2014-10-15T21:11:33Z</time></trkpt>
<trkpt lat="46.2264404296875000" lon="7.8834867477416992"><ele></ele><time>2014-10-15T21:11:36Z</time></trkpt>
<trkpt lat="46.2265701293945312" lon="7.8835172653198242"><ele></ele><time>2014-10-15T21:11:39Z</time></trkpt>
<trkpt lat="46.2266845703125000" lon="7.8833966255187988"><ele></ele><time>2014-10-15T21:11:42Z</time></trkpt>
<trkpt lat="46.2267570495605469" lon="7.8833193778991699"><ele></ele><time>2014-10-15T21:11:45Z</time></trkpt>
<trkpt lat="46.2268600463867188" lon="7.8832206726074219"><ele></ele><time>2014-10-15T21:11:48Z</time></trkpt>
<trkpt lat="46.2269210815429688" lon="7.8831586837768555"><ele></ele><time>2014-10-15T21:11:51Z</time></trkpt>
<trkpt lat="46.2269783020019531" lon="7.8831005096435547"><ele></ele><time>2014-10-15T21:11:54Z</time></trkpt>
<trkpt lat="46.2270698547363281" lon="7.8830490112304688"><ele></ele><time>2014-10-15T21:11:57Z</time></trkpt>
<trkpt lat="46.2271347045898438" lon="7.8830413818359375"><ele></ele><time>2014-10-15T21:12:0Z</time></trkpt>
<trkpt lat="46.2272300720214844" lon="7.8830685615539551"><ele></ele><time>2014-10-15T21:12:3Z</time></trkpt>
<trkpt lat="46.2272872924804688" lon="7.8831057548522949"><ele></ele><time>2014-10-15T21:12:6Z</time></trkpt>
<trkpt lat="46.2273406982421875" lon="7.8831472396850586"><ele></ele><time>2014-10-15T21:12:9Z</time></trkpt>
<trkpt lat="46.2273941040039062" lon="7.8831806182861328"><ele></ele><time>2014-10-15T21:12:12Z</time></trkpt>
<trkpt lat="46.2274780273437500" lon="7.8832020759582520"><ele></ele><time>2014-10-15T21:12:15Z</time></trkpt>
<trkpt lat="46.2275657653808594" lon="7.8831858634948730"><ele></ele><time>2014-10-15T21:12:18Z</time></trkpt>
<trkpt lat="46.2276191711425781" lon="7.8831620216369629"><ele></ele><time>2014-10-15T21:12:21Z</time></trkpt>
<trkpt lat="46.2276649475097656" lon="7.8831281661987305"><ele></ele><time>2014-10-15T21:12:24Z</time></trkpt>
<trkpt lat="46.2277336120605469" lon="7.8830943107604980"><ele></ele><time>2014-10-15T21:12:27Z</time></trkpt>
<trkpt lat="46.2278099060058594" lon="7.8830871582031250"><ele></ele><time>2014-10-15T21:12:30Z</time></trkpt>
<trkpt lat="46.2278785705566406" lon="7.8830628395080566"><ele></ele><time>2014-10-15T21:12:33Z</time></trkpt>
<trkpt lat="46.2279281616210938" lon="7.8830389976501465"><ele></ele><time>2014-10-15T21:12:36Z</time></trkpt>
<trkpt lat="46.2280044555664062" lon="7.8830046653747559"><ele></ele><time>2014-10-15T21:12:39Z</time></trkpt>
<trkpt lat="46.2280540466308594" lon="7.8829793930053711"><ele></ele><time>2014-10-15T21:12:42Z</time></trkpt>
<trkpt lat="46.2280998229980469" lon="7.8829607963562012"><ele></ele><time>2014-10-15T21:12:45Z</time></trkpt>
<trkpt lat="46.2281799316406250" lon="7.8829379081726074"><ele></ele><time>2014-10-15T21:12:48Z</time></trkpt>
<trkpt lat="46.2282600402832031" lon="7.8829236030578613"><ele></ele><time>2014-10-15T21:12:51Z</time></trkpt>
<trkpt lat="46.2283477783203125" lon="7.8829212188720703"><ele></ele><time>2014-10-15T21:12:54Z</time></trkpt>
<trkpt lat="46.2284049987792969" lon="7.8829331398010254"><ele></ele><time>2014-10-15T21:12:57Z</time></trkpt>
<trkpt lat="46.2284927368164062" lon="7.8829674720764160"><ele></ele><time>2014-10-15T21:13:0Z</time></trkpt>
<trkpt lat="46.2285499572753906" lon="7.8829922676086426"><ele></ele><time>2014-10-15T21:13:3Z</time></trkpt>
<trkpt lat="46.2286338806152344" lon="7.8830237388610840"><ele></ele><time>2014-10-15T21:13:6Z</time></trkpt>
<trkpt lat="46.2286987304687500" lon="7.8830432891845703"><ele></ele><time>2014-10-15T21:13:9Z</time></trkpt>
<trkpt lat="46.2287597656250000" lon="7.8830671310424805"><ele></ele><time>2014-10-15T21:13:12Z</time></trkpt>
<trkpt lat="46.2288513183593750" lon="7.8831019401550293"><ele></ele><time>2014-10-15T21:13:15Z</time></trkpt>
<trkpt lat="46.2289161682128906" lon="7.8831195831298828"><ele></ele><time>2014-10-15T21:13:18Z</time></trkpt>
<trkpt lat="46.2289810180664062" lon="7.8831310272216797"><ele></ele><time>2014-10-15T21:13:21Z</time></trkpt>
<trkpt lat="46.2290458679199219" lon="7.8831377029418945"><ele></ele><time>2014-10-15T21:13:24Z</time></trkpt>
<trkpt lat="46.2291107177734375" lon="7.8831386566162109"><ele></ele><time>2014-10-15T21:13:27Z</time></trkpt>
<trkpt lat="46.2291984558105469" lon="7.8831391334533691"><ele></ele><time>2014-10-15T21:13:30Z</time></trkpt>
<trkpt lat="46.2292785644531250" lon="7.8831481933593750"><ele></ele><time>2014-10-15T21:13:33Z</time></trkpt>
<trkpt lat="46.2293624877929688" lon="7.8831686973571777"><ele></ele><time>2014-10-15T21:13:36Z</time></trkpt>
<trkpt lat="46.2294197082519531" lon="7.8831739425659180"><ele></ele><time>2014-10-15T21:13:39Z</time></trkpt>
<trkpt lat="46.2295074462890625" lon="7.8831729888916016"><ele></ele><time>2014-10-15T21:13:42Z</time></trkpt>
<trkpt lat="46.2295646667480469" lon="7.8831739425659180"><ele></ele><time>2014-10-15T21:13:45Z</time></trkpt>
<trkpt lat="46.2296485900878906" lon="7.8831906318664551"><ele></ele><time>2014-10-15T21:13:48Z</time></trkpt>
<trkpt lat="46.2297096252441406" lon="7.8832044601440430"><ele></ele><time>2014-10-15T21:13:51Z</time></trkpt>
<trkpt lat="46.2297668457031250" lon="7.8832192420959473"><ele></ele><time>2014-10-15T21:13:54Z</time></trkpt>
<trkpt lat="46.2298278808593750" lon="7.8832278251647949"><ele></ele><time>2014-10-15T21:13:57Z</time></trkpt>
<trkpt lat="46.2299156188964844" lon="7.8832464218139648"><ele></ele><time>2014-10-15T21:14:0Z</time></trkpt>
<trkpt lat="46.2299728393554688" lon="7.8832702636718750"><ele></ele><time>2014-10-15T21:14:3Z</time></trkpt>
<trkpt lat="46.2300300598144531" lon="7.8832983970642090"><ele></ele><time>2014-10-15T21:14:6Z</time></trkpt>
<trkpt lat="46.2301139831542969" lon="7.8833327293395996"><ele></ele><time>2014-10-15T21:14:9Z</time></trkpt>
<trkpt lat="46.2301750183105469" lon="7.8833460807800293"><ele></ele><time>2014-10-15T21:14:12Z</time></trkpt>
<trkpt lat="46.2302589416503906" lon="7.8833651542663574"><ele></ele><time>2014-10-15T21:14:15Z</time></trkpt>
<trkpt lat="46.2303161621093750" lon="7.8833799362182617"><ele></ele><time>2014-10-15T21:14:18Z</time></trkpt>
<trkpt lat="46.2304039001464844" lon="7.8834052085876465"><ele></ele><time>2014-10-15T21:14:21Z</time></trkpt>
<trkpt lat="46.2304954528808594" lon="7.8834362030029297"><ele></ele><time>2014-10-15T21:14:24Z</time></trkpt>
<trkpt lat="46.2305831909179688" lon="7.8834886550903320"><ele></ele><time>2014-10-15T21:14:27Z</time></trkpt>
<trkpt lat="46.2306404113769531" lon="7.8835368156433105"><ele></ele><time>2014-10-15T21:14:30Z</time></trkpt>
<trkpt lat="46.2307128906250000" lon="7.8836154937744141"><ele></ele><time>2014-10-15T21:14:33Z</time></trkpt>
<trkpt lat="46.2307586669921875" lon="7.8836679458618164"><ele></ele><time>2014-10-15T21:14:36Z</time></trkpt>
<trkpt lat="46.2308273315429688" lon="7.8837528228759766"><ele></ele><time>2014-10-15T21:14:39Z</time></trkpt>
<trkpt lat="46.2308998107910156" lon="7.8838310241699219"><ele></ele><time>2014-10-15T21:14:42Z</time></trkpt>
<trkpt lat="46.2309722900390625" lon="7.8839144706726074"><ele></ele><time>2014-10-15T21:14:45Z</time></trkpt>
<trkpt lat="46.2310180664062500" lon="7.8839721679687500"><ele></ele><time>2014-10-15T21:14:48Z</time></trkpt>
<trkpt lat="46.2310791015625000" lon="7.8840551376342773"><ele></ele><time>2014-10-15T21:14:51Z</time></trkpt>
<trkpt lat="46.2311439514160156" lon="7.8841304779052734"><ele></ele><time>2014-10-15T21:14:54Z</time></trkpt>
<trkpt lat="46.2312126159667969" lon="7.8842077255249023"><ele></ele><time>2014-10-15T21:14:57Z</time></trkpt>
<trkpt lat="46.2312545776367188" lon="7.8842639923095703"><ele></ele><time>2014-10-15T21:15:0Z</time></trkpt>
<trkpt lat="46.2313194274902344" lon="7.8843474388122559"><ele></ele><time>2014-10-15T21:15:3Z</time></trkpt>
<trkpt lat="46.2313880920410156" lon="7.8844318389892578"><ele></ele><time>2014-10-15T21:15:6Z</time></trkpt>
<trkpt lat="46.2314567565917969" lon="7.8845200538635254"><ele></ele><time>2014-10-15T21:15:9Z</time></trkpt>
<trkpt lat="46.2315292358398438" lon="7.8846063613891602"><ele></ele><time>2014-10-15T21:15:12Z</time></trkpt>
<trkpt lat="46.2315750122070312" lon="7.8846702575683594"><ele></ele><time>2014-10-15T21:15:15Z</time></trkpt>
<trkpt lat="46.2316207885742188" lon="7.8847327232360840"><ele></ele><time>2014-10-15T21:15:18Z</time></trkpt>
<trkpt lat="46.2316589355468750" lon="7.8847942352294922"><ele></ele><time>2014-10-15T21:15:21Z</time></trkpt>
<trkpt lat="46.2317161560058594" lon="7.8848857879638672"><ele></ele><time>2014-10-15T21:15:24Z</time></trkpt>
<trkpt lat="46.2317657470703125" lon="7.8849935531616211"><ele></ele><time>2014-10-15T21:15:27Z</time></trkpt>
<trkpt lat="46.2318038940429688" lon="7.8850984573364258"><ele></ele><time>2014-10-15T21:15:30Z</time></trkpt>
<trkpt lat="46.2318267822265625" lon="7.8851680755615234"><ele></ele><time>2014-10-15T21:15:33Z</time></trkpt>
<trkpt lat="46.2318534851074219" lon="7.8852334022521973"><ele></ele><time>2014-10-15T21:15:36Z</time></trkpt>
<trkpt lat="46.2318801879882812" lon="7.8853039741516113"><ele></ele><time>2014-10-15T21:15:39Z</time></trkpt>
<trkpt lat="46.2319183349609375" lon="7.8854207992553711"><ele></ele><time>2014-10-15T21:15:42Z</time></trkpt>
<trkpt lat="46.2319564819335938" lon="7.8855471611022949"><ele></ele><time>2014-10-15T21:15:45Z</time></trkpt>
<trkpt lat="46.2319908142089844" lon="7.8856782913208008"><ele></ele><time>2014-10-15T21:15:48Z</time></trkpt>
<trkpt lat="46.2320060729980469" lon="7.8857641220092773"><ele></ele><time>2014-10-15T21:15:51Z</time></trkpt>
<trkpt lat="46.2320289611816406" lon="7.8859086036682129"><ele></ele><time>2014-10-15T21:15:54Z</time></trkpt>
<trkpt lat="46.2320594787597656" lon="7.8860597610473633"><ele></ele><time>2014-10-15T21:15:57Z</time></trkpt>
<trkpt lat="46.2321052551269531" lon="7.8862156867980957"><ele></ele><time>2014-10-15T21:16:0Z</time></trkpt>
<trkpt lat="46.2321434020996094" lon="7.8863258361816406"><ele></ele><time>2014-10-15T21:16:3Z</time></trkpt>
<trkpt lat="46.2321624755859375" lon="7.8864879608154297"><ele></ele><time>2014-10-15T21:16:6Z</time></trkpt>
<trkpt lat="46.2321357727050781" lon="7.8865423202514648"><ele></ele><time>2014-10-15T21:16:9Z</time></trkpt>
<trkpt lat="46.2320976257324219" lon="7.8864326477050781"><ele></ele><time>2014-10-15T21:16:12Z</time></trkpt>
<trkpt lat="46.2320632934570312" lon="7.8862724304199219"><ele></ele><time>2014-10-15T21:16:15Z</time></trkpt>
<trkpt lat="46.2320442199707031" lon="7.8861250877380371"><ele></ele><time>2014-10-15T21:16:18Z</time></trkpt>
<trkpt lat="46.2320289611816406" lon="7.8859925270080566"><ele></ele><time>2014-10-15T21:16:21Z</time></trkpt>
<trkpt lat="46.2320289611816406" lon="7.8859229087829590"><ele></ele><time>2014-10-15T21:16:24Z</time></trkpt>
<trkpt lat="46.2320213317871094" lon="7.8858666419982910"><ele></ele><time>2014-10-15T21:16:27Z</time></trkpt>
<trkpt lat="46.2319946289062500" lon="7.8857769966125488"><ele></ele><time>2014-10-15T21:16:30Z</time></trkpt>
<trkpt lat="46.2319602966308594" lon="7.8857159614562988"><ele></ele><time>2014-10-15T21:16:33Z</time></trkpt>
<trkpt lat="46.2318916320800781" lon="7.8856301307678223"><ele></ele><time>2014-10-15T21:16:36Z</time></trkpt>
<trkpt lat="46.2318458557128906" lon="7.8855781555175781"><ele></ele><time>2014-10-15T21:16:39Z</time></trkpt>
<trkpt lat="46.2317848205566406" lon="7.8855156898498535"><ele></ele><time>2014-10-15T21:16:42Z</time></trkpt>
<trkpt lat="46.2317276000976562" lon="7.8854517936706543"><ele></ele><time>2014-10-15T21:16:45Z</time></trkpt>
<trkpt lat="46.2316818237304688" lon="7.8854126930236816"><ele></ele><time>2014-10-15T21:16:48Z</time></trkpt>
<trkpt lat="46.2316093444824219" lon="7.8853635787963867"><ele></ele><time>2014-10-15T21:16:51Z</time></trkpt>
<trkpt lat="46.2315521240234375" lon="7.8853139877319336"><ele></ele><time>2014-10-15T21:16:54Z</time></trkpt>
<trkpt lat="46.2315101623535156" lon="7.8852901458740234"><ele></ele><time>2014-10-15T21:16:57Z</time></trkpt>
<trkpt lat="46.2314529418945312" lon="7.8852591514587402"><ele></ele><time>2014-10-15T21:17:0Z</time></trkpt>
<trkpt lat="46.2313919067382812" lon="7.8852343559265137"><ele></ele><time>2014-10-15T21:17:3Z</time></trkpt>
<trkpt lat="46.2313461303710938" lon="7.8852248191833496"><ele></ele><time>2014-10-15T21:17:6Z</time></trkpt>
<trkpt lat="46.2312774658203125" lon="7.8852167129516602"><ele></ele><time>2014-10-15T21:17:9Z</time></trkpt>
<trkpt lat="46.2312240600585938" lon="7.8852152824401855"><ele></ele><time>2014-10-15T21:17:12Z</time></trkpt>
<trkpt lat="46.2311515808105469" lon="7.8852214813232422"><ele></ele><time>2014-10-15T21:17:15Z</time></trkpt>
<trkpt lat="46.2311058044433594" lon="7.8852343559265137"><ele></ele><time>2014-10-15T21:17:18Z</time></trkpt>
<trkpt lat="46.2310371398925781" lon="7.8852591514587402"><ele></ele><time>2014-10-15T21:17:21Z</time></trkpt>
<trkpt lat="46.2309722900390625" lon="7.8852820396423340"><ele></ele><time>2014-10-15T21:17:24Z</time></trkpt>
<trkpt lat="46.2309112548828125" lon="7.8852939605712891"><ele></ele><time>2014-10-15T21:17:27Z</time></trkpt>
<trkpt lat="46.2308540344238281" lon="7.8853101730346680"><ele></ele><time>2014-10-15T21:17:30Z</time></trkpt>
<trkpt lat="46.2308120727539062" lon="7.8853163719177246"><ele></ele><time>2014-10-15T21:17:33Z</time></trkpt>
<trkpt lat="46.2307472229003906" lon="7.8853316307067871"><ele></ele><time>2014-10-15T21:17:36Z</time></trkpt>
<trkpt lat="46.2307052612304688" lon="7.8853445053100586"><ele></ele><time>2014-10-15T21:17:39Z</time></trkpt>
<trkpt lat="46.2306632995605469" lon="7.8853521347045898"><ele></ele><time>2014-10-15T21:17:42Z</time></trkpt>
<trkpt lat="46.2306213378906250" lon="7.8853549957275391"><ele></ele><time>2014-10-15T21:17:45Z</time></trkpt>
<trkpt lat="46.2305755615234375" lon="7.8853688240051270"><ele></ele><time>2014-10-15T21:17:48Z</time></trkpt>
<trkpt lat="46.2305107116699219" lon="7.8853812217712402"><ele></ele><time>2014-10-15T21:17:51Z</time></trkpt>
<trkpt lat="46.2304649353027344" lon="7.8853774070739746"><ele></ele><time>2014-10-15T21:17:54Z</time></trkpt>
<trkpt lat="46.2304191589355469" lon="7.8853754997253418"><ele></ele><time>2014-10-15T21:17:57Z</time></trkpt>
<trkpt lat="46.2303581237792969" lon="7.8853812217712402"><ele></ele><time>2014-10-15T21:18:0Z</time></trkpt>
<trkpt lat="46.2303161621093750" lon="7.8853940963745117"><ele></ele><time>2014-10-15T21:18:3Z</time></trkpt>
<trkpt lat="46.2302551269531250" lon="7.8854246139526367"><ele></ele><time>2014-10-15T21:18:6Z</time></trkpt>
<trkpt lat="46.2301979064941406" lon="7.8854889869689941"><ele></ele><time>2014-10-15T21:18:9Z</time></trkpt>
<trkpt lat="46.2301406860351562" lon="7.8855619430541992"><ele></ele><time>2014-10-15T21:18:12Z</time></trkpt>
<trkpt lat="46.2300758361816406" lon="7.8856258392333984"><ele></ele><time>2014-10-15T21:18:15Z</time></trkpt>
<trkpt lat="46.2300033569335938" lon="7.8856592178344727"><ele></ele><time>2014-10-15T21:18:18Z</time></trkpt>
<trkpt lat="46.2299537658691406" lon="7.8856592178344727"><ele></ele><time>2014-10-15T21:18:21Z</time></trkpt>
<trkpt lat="46.2298851013183594" lon="7.8856372833251953"><ele></ele><time>2014-10-15T21:18:24Z</time></trkpt>
<trkpt lat="46.2298202514648438" lon="7.8856172561645508"><ele></ele><time>2014-10-15T21:18:27Z</time></trkpt>
<trkpt lat="46.2297782897949219" lon="7.8856062889099121"><ele></ele><time>2014-10-15T21:18:30Z</time></trkpt>
<trkpt lat="46.2297325134277344" lon="7.8856058120727539"><ele></ele><time>2014-10-15T21:18:33Z</time></trkpt>
<trkpt lat="46.2296829223632812" lon="7.8856153488159180"><ele></ele><time>2014-10-15T21:18:36Z</time></trkpt>
<trkpt lat="46.2296142578125000" lon="7.8856124877929688"><ele></ele><time>2014-10-15T21:18:39Z</time></trkpt>
<trkpt lat="46.2295608520507812" lon="7.8856163024902344"><ele></ele><time>2014-10-15T21:18:42Z</time></trkpt>
<trkpt lat="46.2294845581054688" lon="7.8856067657470703"><ele></ele><time>2014-10-15T21:18:45Z</time></trkpt>
<trkpt lat="46.2294120788574219" lon="7.8855872154235840"><ele></ele><time>2014-10-15T21:18:48Z</time></trkpt>
<trkpt lat="46.2293395996093750" lon="7.8855400085449219"><ele></ele><time>2014-10-15T21:18:51Z</time></trkpt>
<trkpt lat="46.2292747497558594" lon="7.8854727745056152"><ele></ele><time>2014-10-15T21:18:54Z</time></trkpt>
<trkpt lat="46.2292175292968750" lon="7.8854227066040039"><ele></ele><time>2014-10-15T21:18:57Z</time></trkpt>
<trkpt lat="46.2291297912597656" lon="7.8853855133056641"><ele></ele><time>2014-10-15T21:19:0Z</time></trkpt>
<trkpt lat="46.2290802001953125" lon="7.8854818344116211"><ele></ele><time>2014-10-15T21:19:3Z</time></trkpt>
<trkpt lat="46.2291297912597656" lon="7.8855953216552734"><ele></ele><time>2014-10-15T21:19:6Z</time></trkpt>
<trkpt lat="46.2292098999023438" lon="7.8856611251831055"><ele></ele><time>2014-10-15T21:19:9Z</time></trkpt>
<trkpt lat="46.2292976379394531" lon="7.8857064247131348"><ele></ele><time>2014-10-15T21:19:12Z</time></trkpt>
<trkpt lat="46.2293510437011719" lon="7.8857369422912598"><ele></ele><time>2014-10-15T21:19:15Z</time></trkpt>
<trkpt lat="46.2294273376464844" lon="7.8858056068420410"><ele></ele><time>2014-10-15T21:19:18Z</time></trkpt>
<trkpt lat="46.2294692993164062" lon="7.8858566284179688"><ele></ele><time>2014-10-15T21:19:21Z</time></trkpt>
<trkpt lat="46.2295379638671875" lon="7.8859190940856934"><ele></ele><time>2014-10-15T21:19:24Z</time></trkpt>
<trkpt lat="46.2295799255371094" lon="7.8859434127807617"><ele></ele><time>2014-10-15T21:19:27Z</time></trkpt>
<trkpt lat="46.2296218872070312" lon="7.8859772682189941"><ele></ele><time>2014-10-15T21:19:30Z</time></trkpt>
<trkpt lat="46.2296752929687500" lon="7.8860387802124023"><ele></ele><time>2014-10-15T21:19:33Z</time></trkpt>
<trkpt lat="46.2297286987304688" lon="7.8861041069030762"><ele></ele><time>2014-10-15T21:19:36Z</time></trkpt>
<trkpt lat="46.2297859191894531" lon="7.8861665725708008"><ele></ele><time>2014-10-15T21:19:39Z</time></trkpt>
<trkpt lat="46.2298278808593750" lon="7.8862075805664062"><ele></ele><time>2014-10-15T21:19:42Z</time></trkpt>
<trkpt lat="46.2298774719238281" lon="7.8862748146057129"><ele></ele><time>2014-10-15T21:19:45Z</time></trkpt>
<trkpt lat="46.2299079895019531" lon="7.8863105773925781"><ele></ele><time>2014-10-15T21:19:48Z</time></trkpt>
<trkpt lat="46.2299423217773438" lon="7.8863162994384766"><ele></ele><time>2014-10-15T21:19:51Z</time></trkpt>
<trkpt lat="46.2299804687500000" lon="7.8863048553466797"><ele></ele><time>2014-10-15T21:19:54Z</time></trkpt>
<trkpt lat="46.2300415039062500" lon="7.8862862586975098"><ele></ele><time>2014-10-15T21:19:57Z</time></trkpt>
<trkpt lat="46.2301063537597656" lon="7.8862676620483398"><ele></ele><time>2014-10-15T21:20:0Z</time></trkpt>
<trkpt lat="46.2301597595214844" lon="7.8862495422363281"><ele></ele><time>2014-10-15T21:20:3Z</time></trkpt>
<trkpt lat="46.2302398681640625" lon="7.8862309455871582"><ele></ele><time>2014-10-15T21:20:6Z</time></trkpt>
<trkpt lat="46.2303123474121094" lon="7.8862247467041016"><ele></ele><time>2014-10-15T21:20:9Z</time></trkpt>
<trkpt lat="46.2303848266601562" lon="7.8862257003784180"><ele></ele><time>2014-10-15T21:20:12Z</time></trkpt>
<trkpt lat="46.2304611206054688" lon="7.8862195014953613"><ele></ele><time>2014-10-15T21:20:15Z</time></trkpt>
<trkpt lat="46.2305335998535156" lon="7.8862056732177734"><ele></ele><time>2014-10-15T21:20:18Z</time></trkpt>
<trkpt lat="46.2305793762207031" lon="7.8862071037292480"><ele></ele><time>2014-10-15T21:20:21Z</time></trkpt>
<trkpt lat="46.2306175231933594" lon="7.8862023353576660"><ele></ele><time>2014-10-15T21:20:24Z</time></trkpt>
<trkpt lat="46.2306251525878906" lon="7.8861889839172363"><ele></ele><time>2014-10-15T21:20:27Z</time></trkpt>
<trkpt lat="46.2307472229003906" lon="7.8861856460571289"><ele></ele><time>2014-10-15T21:20:30Z</time></trkpt>
<trkpt lat="46.2307929992675781" lon="7.8862185478210449"><ele></ele><time>2014-10-15T21:20:33Z</time></trkpt>
<trkpt lat="46.2308387756347656" lon="7.8862485885620117"><ele></ele><time>2014-10-15T21:20:36Z</time></trkpt>
<trkpt lat="46.2309112548828125" lon="7.8862919807434082"><ele></ele><time>2014-10-15T21:20:39Z</time></trkpt>
<trkpt lat="46.2309570312500000" lon="7.8863158226013184"><ele></ele><time>2014-10-15T21:20:42Z</time></trkpt>
<trkpt lat="46.2310256958007812" lon="7.8863601684570312"><ele></ele><time>2014-10-15T21:20:45Z</time></trkpt>
<trkpt lat="46.2310676574707031" lon="7.8863906860351562"><ele></ele><time>2014-10-15T21:20:48Z</time></trkpt>
<trkpt lat="46.2311248779296875" lon="7.8864517211914062"><ele></ele><time>2014-10-15T21:20:51Z</time></trkpt>
<trkpt lat="46.2311820983886719" lon="7.8865165710449219"><ele></ele><time>2014-10-15T21:20:54Z</time></trkpt>
<trkpt lat="46.2312431335449219" lon="7.8865799903869629"><ele></ele><time>2014-10-15T21:20:57Z</time></trkpt>
<trkpt lat="46.2312774658203125" lon="7.8866219520568848"><ele></ele><time>2014-10-15T21:21:0Z</time></trkpt>
<trkpt lat="46.2313270568847656" lon="7.8866920471191406"><ele></ele><time>2014-10-15T21:21:3Z</time></trkpt>
<trkpt lat="46.2313690185546875" lon="7.8867411613464355"><ele></ele><time>2014-10-15T21:21:6Z</time></trkpt>
<trkpt lat="46.2314109802246094" lon="7.8867912292480469"><ele></ele><time>2014-10-15T21:21:9Z</time></trkpt>
<trkpt lat="46.2314682006835938" lon="7.8868765830993652"><ele></ele><time>2014-10-15T21:21:12Z</time></trkpt>
<trkpt lat="46.2314834594726562" lon="7.8869519233703613"><ele></ele><time>2014-10-15T21:21:15Z</time></trkpt>
<trkpt lat="46.2314338684082031" lon="7.8870382308959961"><ele></ele><time>2014-10-15T21:21:18Z</time></trkpt>
<trkpt lat="46.2313804626464844" lon="7.8870334625244141"><ele></ele><time>2014-10-15T21:21:21Z</time></trkpt>
<trkpt lat="46.2312927246093750" lon="7.8870019912719727"><ele></ele><time>2014-10-15T21:21:24Z</time></trkpt>
<trkpt lat="46.2311935424804688" lon="7.8869624137878418"><ele></ele><time>2014-10-15T21:21:27Z</time></trkpt>
<trkpt lat="46.2311019897460938" lon="7.8869171142578125"><ele></ele><time>2014-10-15T21:21:30Z</time></trkpt>
<trkpt lat="46.2310409545898438" lon="7.8868966102600098"><ele></ele><time>2014-10-15T21:21:33Z</time></trkpt>
<trkpt lat="46.2309837341308594" lon="7.8868846893310547"><ele></ele><time>2014-10-15T21:21:36Z</time></trkpt>
<trkpt lat="46.2309226989746094" lon="7.8868770599365234"><ele></ele><time>2014-10-15T21:21:39Z</time></trkpt>
<trkpt lat="46.2308311462402344" lon="7.8868536949157715"><ele></ele><time>2014-10-15T21:21:42Z</time></trkpt>
<trkpt lat="46.2307434082031250" lon="7.8868398666381836"><ele></ele><time>2014-10-15T21:21:45Z</time></trkpt>
<trkpt lat="46.2306518554687500" lon="7.8868584632873535"><ele></ele><time>2014-10-15T21:21:48Z</time></trkpt>
<trkpt lat="46.2305946350097656" lon="7.8868832588195801"><ele></ele><time>2014-10-15T21:21:51Z</time></trkpt>
<trkpt lat="46.2305107116699219" lon="7.8869333267211914"><ele></ele><time>2014-10-15T21:21:54Z</time></trkpt>
<trkpt lat="46.2304534912109375" lon="7.8869681358337402"><ele></ele><time>2014-10-15T21:21:57Z</time></trkpt>
<trkpt lat="46.2303733825683594" lon="7.8870186805725098"><ele></ele><time>2014-10-15T21:22:0Z</time></trkpt>
<trkpt lat="46.2302970886230469" lon="7.8870754241943359"><ele></ele><time>2014-10-15T21:22:3Z</time></trkpt>
<trkpt lat="46.2302207946777344" lon="7.8871207237243652"><ele></ele><time>2014-10-15T21:22:6Z</time></trkpt>
<trkpt lat="46.2301445007324219" lon="7.8871784210205078"><ele></ele><time>2014-10-15T21:22:9Z</time></trkpt>
<trkpt lat="46.2300949096679688" lon="7.8872213363647461"><ele></ele><time>2014-10-15T21:22:12Z</time></trkpt>
<trkpt lat="46.2300415039062500" lon="7.8872570991516113"><ele></ele><time>2014-10-15T21:22:15Z</time></trkpt>
<trkpt lat="46.2299461364746094" lon="7.8872857093811035"><ele></ele><time>2014-10-15T21:22:18Z</time></trkpt>
<trkpt lat="46.2298851013183594" lon="7.8872776031494141"><ele></ele><time>2014-10-15T21:22:21Z</time></trkpt>
<trkpt lat="46.2298240661621094" lon="7.8872556686401367"><ele></ele><time>2014-10-15T21:22:24Z</time></trkpt>
<trkpt lat="46.2297325134277344" lon="7.8872032165527344"><ele></ele><time>2014-10-15T21:22:27Z</time></trkpt>
<trkpt lat="46.2296752929687500" lon="7.8871617317199707"><ele></ele><time>2014-10-15T21:22:30Z</time></trkpt>
<trkpt lat="46.2295951843261719" lon="7.8870959281921387"><ele></ele><time>2014-10-15T21:22:33Z</time></trkpt>
<trkpt lat="46.2295265197753906" lon="7.8870253562927246"><ele></ele><time>2014-10-15T21:22:36Z</time></trkpt>
<trkpt lat="46.2294807434082031" lon="7.8869905471801758"><ele></ele><time>2014-10-15T21:22:39Z</time></trkpt>
<trkpt lat="46.2294311523437500" lon="7.8869524002075195"><ele></ele><time>2014-10-15T21:22:42Z</time></trkpt>
<trkpt lat="46.2293624877929688" lon="7.8868885040283203"><ele></ele><time>2014-10-15T21:22:45Z</time></trkpt>
<trkpt lat="46.2293205261230469" lon="7.8868546485900879"><ele></ele><time>2014-10-15T21:22:48Z</time></trkpt>
<trkpt lat="46.2292709350585938" lon="7.8868260383605957"><ele></ele><time>2014-10-15T21:22:51Z</time></trkpt>
<trkpt lat="46.2292022705078125" lon="7.8867940902709961"><ele></ele><time>2014-10-15T21:22:54Z</time></trkpt>
<trkpt lat="46.2291564941406250" lon="7.8867745399475098"><ele></ele><time>2014-10-15T21:22:57Z</time></trkpt>
<trkpt lat="46.2290687561035156" lon="7.8867478370666504"><ele></ele><time>2014-10-15T21:23:0Z</time></trkpt>
<trkpt lat="46.2290115356445312" lon="7.8867220878601074"><ele></ele><time>2014-10-15T21:23:3Z</time></trkpt>
<trkpt lat="46.2289314270019531" lon="7.8866720199584961"><ele></ele><time>2014-10-15T21:23:6Z</time></trkpt>
<trkpt lat="46.2288551330566406" lon="7.8866319656372070"><ele></ele><time>2014-10-15T21:23:9Z</time></trkpt>
<trkpt lat="46.2287750244140625" lon="7.8865947723388672"><ele></ele><time>2014-10-15T21:23:12Z</time></trkpt>
<trkpt lat="46.2287292480468750" lon="7.8865752220153809"><ele></ele><time>2014-10-15T21:23:15Z</time></trkpt>
<trkpt lat="46.2287025451660156" lon="7.8865618705749512"><ele></ele><time>2014-10-15T21:23:18Z</time></trkpt>
<trkpt lat="46.2286643981933594" lon="7.8865461349487305"><ele></ele><time>2014-10-15T21:23:21Z</time></trkpt>
<trkpt lat="46.2285957336425781" lon="7.8865242004394531"><ele></ele><time>2014-10-15T21:23:24Z</time></trkpt>
<trkpt lat="46.2285308837890625" lon="7.8865132331848145"><ele></ele><time>2014-10-15T21:23:27Z</time></trkpt>
<trkpt lat="46.2284812927246094" lon="7.8865060806274414"><ele></ele><time>2014-10-15T21:23:30Z</time></trkpt>
<trkpt lat="46.2284355163574219" lon="7.8864989280700684"><ele></ele><time>2014-10-15T21:23:33Z</time></trkpt>
<trkpt lat="46.2283706665039062" lon="7.8864846229553223"><ele></ele><time>2014-10-15T21:23:36Z</time></trkpt>
<trkpt lat="46.2283248901367188" lon="7.8864822387695312"><ele></ele><time>2014-10-15T21:23:39Z</time></trkpt>
<trkpt lat="46.2282524108886719" lon="7.8864736557006836"><ele></ele><time>2014-10-15T21:23:42Z</time></trkpt>
<trkpt lat="46.2282066345214844" lon="7.8864707946777344"><ele></ele><time>2014-10-15T21:23:45Z</time></trkpt>
<trkpt lat="46.2281417846679688" lon="7.8864622116088867"><ele></ele><time>2014-10-15T21:23:48Z</time></trkpt>
<trkpt lat="46.2280960083007812" lon="7.8864583969116211"><ele></ele><time>2014-10-15T21:23:51Z</time></trkpt>
<trkpt lat="46.2280120849609375" lon="7.8864541053771973"><ele></ele><time>2014-10-15T21:23:54Z</time></trkpt>
<trkpt lat="46.2279510498046875" lon="7.8864564895629883"><ele></ele><time>2014-10-15T21:23:57Z</time></trkpt>
<trkpt lat="46.2278861999511719" lon="7.8864645957946777"><ele></ele><time>2014-10-15T21:24:0Z</time></trkpt>
<trkpt lat="46.2277832031250000" lon="7.8864645957946777"><ele></ele><time>2014-10-15T21:24:3Z</time></trkpt>
<trkpt lat="46.2277183532714844" lon="7.8864574432373047"><ele></ele><time>2014-10-15T21:24:6Z</time></trkpt>
<trkpt lat="46.2276115417480469" lon="7.8864455223083496"><ele></ele><time>2014-10-15T21:24:9Z</time></trkpt>
<trkpt lat="46.2275390625000000" lon="7.8864345550537109"><ele></ele><time>2014-10-15T21:24:12Z</time></trkpt>
<trkpt lat="46.2274360656738281" lon="7.8864111900329590"><ele></ele><time>2014-10-15T21:24:15Z</time></trkpt>
<trkpt lat="46.2273635864257812" lon="7.8863925933837891"><ele></ele><time>2014-10-15T21:24:18Z</time></trkpt>
<trkpt lat="46.2272567749023438" lon="7.8863701820373535"><ele></ele><time>2014-10-15T21:24:21Z</time></trkpt>
<trkpt lat="46.2271537780761719" lon="7.8863725662231445"><ele></ele><time>2014-10-15T21:24:24Z</time></trkpt>
<trkpt lat="46.2271041870117188" lon="7.8863735198974609"><ele></ele><time>2014-10-15T21:24:27Z</time></trkpt>
<trkpt lat="46.2270278930664062" lon="7.8863840103149414"><ele></ele><time>2014-10-15T21:24:30Z</time></trkpt>
<trkpt lat="46.2269554138183594" lon="7.8864040374755859"><ele></ele><time>2014-10-15T21:24:33Z</time></trkpt>
<trkpt lat="46.2269096374511719" lon="7.8864121437072754"><ele></ele><time>2014-10-15T21:24:36Z</time></trkpt>
<trkpt lat="46.2268600463867188" lon="7.8864121437072754"><ele></ele><time>2014-10-15T21:24:39Z</time></trkpt>
<trkpt lat="46.2268104553222656" lon="7.8864135742187500"><ele></ele><time>2014-10-15T21:24:42Z</time></trkpt>
<trkpt lat="46.2267646789550781" lon="7.8864259719848633"><ele></ele><time>2014-10-15T21:24:45Z</time></trkpt>
<trkpt lat="46.2266960144042969" lon="7.8864612579345703"><ele></ele><time>2014-10-15T21:24:48Z</time></trkpt>
<trkpt lat="46.2266540527343750" lon="7.8864946365356445"><ele></ele><time>2014-10-15T21:24:51Z</time></trkpt>
<trkpt lat="46.2265968322753906" lon="7.8865461349487305"><ele></ele><time>2014-10-15T21:24:54Z</time></trkpt>
<trkpt lat="46.2265586853027344" lon="7.8865880966186523"><ele></ele><time>2014-10-15T21:24:57Z</time></trkpt>
<trkpt lat="46.2265243530273438" lon="7.8866338729858398"><ele></ele><time>2014-10-15T21:25:0Z</time></trkpt>
<trkpt lat="46.2264709472656250" lon="7.8867039680480957"><ele></ele><time>2014-10-15T21:25:3Z</time></trkpt>
<trkpt lat="46.2264328002929688" lon="7.8867473602294922"><ele></ele><time>2014-10-15T21:25:6Z</time></trkpt>
<trkpt lat="46.2263984680175781" lon="7.8867921829223633"><ele></ele><time>2014-10-15T21:25:9Z</time></trkpt>
<trkpt lat="46.2263603210449219" lon="7.8868379592895508"><ele></ele><time>2014-10-15T21:25:12Z</time></trkpt>
<trkpt lat="46.2262992858886719" lon="7.8868918418884277"><ele></ele><time>2014-10-15T21:25:15Z</time></trkpt>
<trkpt lat="46.2262573242187500" lon="7.8869223594665527"><ele></ele><time>2014-10-15T21:25:18Z</time></trkpt>
<trkpt lat="46.2262153625488281" lon="7.8869466781616211"><ele></ele><time>2014-10-15T21:25:21Z</time></trkpt>
<trkpt lat="46.2261428833007812" lon="7.8869609832763672"><ele></ele><time>2014-10-15T21:25:24Z</time></trkpt>
<trkpt lat="46.2260971069335938" lon="7.8869791030883789"><ele></ele><time>2014-10-15T21:25:27Z</time></trkpt>
<trkpt lat="46.2260551452636719" lon="7.8870224952697754"><ele></ele><time>2014-10-15T21:25:30Z</time></trkpt>
<trkpt lat="46.2260398864746094" lon="7.8871269226074219"><ele></ele><time>2014-10-15T21:25:33Z</time></trkpt>
<trkpt lat="46.2261047363281250" lon="7.8871955871582031"><ele></ele><time>2014-10-15T21:25:36Z</time></trkpt>
<trkpt lat="46.2261657714843750" lon="7.8871712684631348"><ele></ele><time>2014-10-15T21:25:39Z</time></trkpt>
<trkpt lat="46.2262573242187500" lon="7.8871107101440430"><ele></ele><time>2014-10-15T21:25:42Z</time></trkpt>
<trkpt lat="46.2263221740722656" lon="7.8870730400085449"><ele></ele><time>2014-10-15T21:25:45Z</time></trkpt>
<trkpt lat="46.2264099121093750" lon="7.8870229721069336"><ele></ele><time>2014-10-15T21:25:48Z</time></trkpt>
<trkpt lat="46.2264671325683594" lon="7.8869991302490234"><ele></ele><time>2014-10-15T21:25:51Z</time></trkpt>
<trkpt lat="46.2265205383300781" lon="7.8869700431823730"><ele></ele><time>2014-10-15T21:25:54Z</time></trkpt>
<trkpt lat="46.2266006469726562" lon="7.8869194984436035"><ele></ele><time>2014-10-15T21:25:57Z</time></trkpt>
<trkpt lat="46.2266502380371094" lon="7.8868894577026367"><ele></ele><time>2014-10-15T21:26:0Z</time></trkpt>
<trkpt lat="46.2267074584960938" lon="7.8868627548217773"><ele></ele><time>2014-10-15T21:26:3Z</time></trkpt>
<trkpt lat="46.2267646789550781" lon="7.8868417739868164"><ele></ele><time>2014-10-15T21:26:6Z</time></trkpt>
<trkpt lat="46.2268180847167969" lon="7.8868255615234375"><ele></ele><time>2014-10-15T21:26:9Z</time></trkpt>
<trkpt lat="46.2269020080566406" lon="7.8868088722229004"><ele></ele><time>2014-10-15T21:26:12Z</time></trkpt>
<trkpt lat="46.2269592285156250" lon="7.8868227005004883"><ele></ele><time>2014-10-15T21:26:15Z</time></trkpt>
<trkpt lat="46.2270393371582031" lon="7.8868622779846191"><ele></ele><time>2014-10-15T21:26:18Z</time></trkpt>
<trkpt lat="46.2270927429199219" lon="7.8868942260742188"><ele></ele><time>2014-10-15T21:26:21Z</time></trkpt>
<trkpt lat="46.2271690368652344" lon="7.8869538307189941"><ele></ele><time>2014-10-15T21:26:24Z</time></trkpt>
<trkpt lat="46.2272148132324219" lon="7.8869962692260742"><ele></ele><time>2014-10-15T21:26:27Z</time></trkpt>
<trkpt lat="46.2272834777832031" lon="7.8870644569396973"><ele></ele><time>2014-10-15T21:26:30Z</time></trkpt>
<trkpt lat="46.2273521423339844" lon="7.8871355056762695"><ele></ele><time>2014-10-15T21:26:33Z</time></trkpt>
<trkpt lat="46.2274208068847656" lon="7.8872051239013672"><ele></ele><time>2014-10-15T21:26:36Z</time></trkpt>
<trkpt lat="46.2274780273437500" lon="7.8872318267822266"><ele></ele><time>2014-10-15T21:26:39Z</time></trkpt>
<trkpt lat="46.2275657653808594" lon="7.8872385025024414"><ele></ele><time>2014-10-15T21:26:42Z</time></trkpt>
<trkpt lat="46.2276229858398438" lon="7.8872308731079102"><ele></ele><time>2014-10-15T21:26:45Z</time></trkpt>
<trkpt lat="46.2277069091796875" lon="7.8872265815734863"><ele></ele><time>2014-10-15T21:26:48Z</time></trkpt>
<trkpt lat="46.2277755737304688" lon="7.8872156143188477"><ele></ele><time>2014-10-15T21:26:51Z</time></trkpt>
<trkpt lat="46.2278442382812500" lon="7.8871989250183105"><ele></ele><time>2014-10-15T21:26:54Z</time></trkpt>
<trkpt lat="46.2278900146484375" lon="7.8871936798095703"><ele></ele><time>2014-10-15T21:26:57Z</time></trkpt>
<trkpt lat="46.2279586791992188" lon="7.8872213363647461"><ele></ele><time>2014-10-15T21:27:0Z</time></trkpt>
<trkpt lat="46.2280006408691406" lon="7.8872470855712891"><ele></ele><time>2014-10-15T21:27:3Z</time></trkpt>
<trkpt lat="46.2280654907226562" lon="7.8872880935668945"><ele></ele><time>2014-10-15T21:27:6Z</time></trkpt>
<trkpt lat="46.2281303405761719" lon="7.8873457908630371"><ele></ele><time>2014-10-15T21:27:9Z</time></trkpt>
<trkpt lat="46.2281875610351562" lon="7.8873982429504395"><ele></ele><time>2014-10-15T21:27:12Z</time></trkpt>
<trkpt lat="46.2282257080078125" lon="7.8874120712280273"><ele></ele><time>2014-10-15T21:27:15Z</time></trkpt>
<trkpt lat="46.2282714843750000" lon="7.8874115943908691"><ele></ele><time>2014-10-15T21:27:18Z</time></trkpt>
<trkpt lat="46.2283401489257812" lon="7.8874001502990723"><ele></ele><time>2014-10-15T21:27:21Z</time></trkpt>
<trkpt lat="46.2284049987792969" lon="7.8874011039733887"><ele></ele><time>2014-10-15T21:27:24Z</time></trkpt>
<trkpt lat="46.2284469604492188" lon="7.8874373435974121"><ele></ele><time>2014-10-15T21:27:27Z</time></trkpt>
<trkpt lat="46.2284584045410156" lon="7.8875126838684082"><ele></ele><time>2014-10-15T21:27:30Z</time></trkpt>
<trkpt lat="46.2284202575683594" lon="7.8875746726989746"><ele></ele><time>2014-10-15T21:27:33Z</time></trkpt>
<trkpt lat="46.2283439636230469" lon="7.8876109123229980"><ele></ele><time>2014-10-15T21:27:36Z</time></trkpt>
<trkpt lat="46.2282829284667969" lon="7.8876075744628906"><ele></ele><time>2014-10-15T21:27:39Z</time></trkpt>
<trkpt lat="46.2281990051269531" lon="7.8875765800476074"><ele></ele><time>2014-10-15T21:27:42Z</time></trkpt>
<trkpt lat="46.2281265258789062" lon="7.8875217437744141"><ele></ele><time>2014-10-15T21:27:45Z</time></trkpt>
<trkpt lat="46.2280426025390625" lon="7.8874931335449219"><ele></ele><time>2014-10-15T21:27:48Z</time></trkpt>
<trkpt lat="46.2279891967773438" lon="7.8875160217285156"><ele></ele><time>2014-10-15T21:27:51Z</time></trkpt>
<trkpt lat="46.2279281616210938" lon="7.8876032829284668"><ele></ele><time>2014-10-15T21:27:54Z</time></trkpt>
<trkpt lat="46.2279090881347656" lon="7.8877220153808594"><ele></ele><time>2014-10-15T21:27:57Z</time></trkpt>
<trkpt lat="46.2279090881347656" lon="7.8878326416015625"><ele></ele><time>2014-10-15T21:28:0Z</time></trkpt>
<trkpt lat="46.2279014587402344" lon="7.8878979682922363"><ele></ele><time>2014-10-15T21:28:3Z</time></trkpt>
<trkpt lat="46.2278633117675781" lon="7.8879785537719727"><ele></ele><time>2014-10-15T21:28:6Z</time></trkpt>
<trkpt lat="46.2277984619140625" lon="7.8880357742309570"><ele></ele><time>2014-10-15T21:28:9Z</time></trkpt>
<trkpt lat="46.2277259826660156" lon="7.8880543708801270"><ele></ele><time>2014-10-15T21:28:12Z</time></trkpt>
<trkpt lat="46.2276725769042969" lon="7.8880462646484375"><ele></ele><time>2014-10-15T21:28:15Z</time></trkpt>
<trkpt lat="46.2275962829589844" lon="7.8880200386047363"><ele></ele><time>2014-10-15T21:28:18Z</time></trkpt>
<trkpt lat="46.2275238037109375" lon="7.8879833221435547"><ele></ele><time>2014-10-15T21:28:21Z</time></trkpt>
<trkpt lat="46.2274513244628906" lon="7.8879394531250000"><ele></ele><time>2014-10-15T21:28:24Z</time></trkpt>
<trkpt lat="46.2274017333984375" lon="7.8879146575927734"><ele></ele><time>2014-10-15T21:28:27Z</time></trkpt>
<trkpt lat="46.2273254394531250" lon="7.8878870010375977"><ele></ele><time>2014-10-15T21:28:30Z</time></trkpt>
<trkpt lat="46.2272720336914062" lon="7.8878765106201172"><ele></ele><time>2014-10-15T21:28:33Z</time></trkpt>
<trkpt lat="46.2271919250488281" lon="7.8878812789916992"><ele></ele><time>2014-10-15T21:28:36Z</time></trkpt>
<trkpt lat="46.2271347045898438" lon="7.8878984451293945"><ele></ele><time>2014-10-15T21:28:39Z</time></trkpt>
<trkpt lat="46.2270812988281250" lon="7.8879246711730957"><ele></ele><time>2014-10-15T21:28:42Z</time></trkpt>
<trkpt lat="46.2270011901855469" lon="7.8879756927490234"><ele></ele><time>2014-10-15T21:28:45Z</time></trkpt>
<trkpt lat="46.2269439697265625" lon="7.8880143165588379"><ele></ele><time>2014-10-15T21:28:48Z</time></trkpt>
<trkpt lat="46.2268905639648438" lon="7.8880553245544434"><ele></ele><time>2014-10-15T21:28:51Z</time></trkpt>
<trkpt lat="46.2268180847167969" lon="7.8881225585937500"><ele></ele><time>2014-10-15T21:28:54Z</time></trkpt>
<trkpt lat="46.2267494201660156" lon="7.8881974220275879"><ele></ele><time>2014-10-15T21:28:57Z</time></trkpt>
<trkpt lat="46.2266807556152344" lon="7.8882765769958496"><ele></ele><time>2014-10-15T21:29:0Z</time></trkpt>
<trkpt lat="46.2266120910644531" lon="7.8883528709411621"><ele></ele><time>2014-10-15T21:29:3Z</time></trkpt>
<trkpt lat="46.2265586853027344" lon="7.8883972167968750"><ele></ele><time>2014-10-15T21:29:6Z</time></trkpt>
<trkpt lat="46.2264747619628906" lon="7.8884353637695312"><ele></ele><time>2014-10-15T21:29:9Z</time></trkpt>
<trkpt lat="46.2263908386230469" lon="7.8884282112121582"><ele></ele><time>2014-10-15T21:29:12Z</time></trkpt>
<trkpt lat="46.2263336181640625" lon="7.8884129524230957"><ele></ele><time>2014-10-15T21:29:15Z</time></trkpt>
<trkpt lat="46.2262535095214844" lon="7.8883810043334961"><ele></ele><time>2014-10-15T21:29:18Z</time></trkpt>
<trkpt lat="46.2261734008789062" lon="7.8883042335510254"><ele></ele><time>2014-10-15T21:29:21Z</time></trkpt>
<trkpt lat="46.2261199951171875" lon="7.8882479667663574"><ele></ele><time>2014-10-15T21:29:24Z</time></trkpt>
<trkpt lat="46.2260360717773438" lon="7.8881602287292480"><ele></ele><time>2014-10-15T21:29:27Z</time></trkpt>
<trkpt lat="46.2259826660156250" lon="7.8881149291992188"><ele></ele><time>2014-10-15T21:29:30Z</time></trkpt>
<trkpt lat="46.2258949279785156" lon="7.8880734443664551"><ele></ele><time>2014-10-15T21:29:33Z</time></trkpt>
<trkpt lat="46.2257690429687500" lon="7.8880805969238281"><ele></ele><time>2014-10-15T21:29:36Z</time></trkpt>
<trkpt lat="46.2256927490234375" lon="7.8880858421325684"><ele></ele><time>2014-10-15T21:29:39Z</time></trkpt>
<trkpt lat="46.2256164550781250" lon="7.8881058692932129"><ele></ele><time>2014-10-15T21:29:42Z</time></trkpt>
<trkpt lat="46.2255363464355469" lon="7.8882093429565430"><ele></ele><time>2014-10-15T21:29:45Z</time></trkpt>
<trkpt lat="46.2255592346191406" lon="7.8883633613586426"><ele></ele><time>2014-10-15T21:29:48Z</time></trkpt>
<trkpt lat="46.2256546020507812" lon="7.8883819580078125"><ele></ele><time>2014-10-15T21:29:51Z</time></trkpt>
<trkpt lat="46.2257461547851562" lon="7.8883581161499023"><ele></ele><time>2014-10-15T21:29:54Z</time></trkpt>
<trkpt lat="46.2258682250976562" lon="7.8883337974548340"><ele></ele><time>2014-10-15T21:29:57Z</time></trkpt>
<trkpt lat="46.2259445190429688" lon="7.8883309364318848"><ele></ele><time>2014-10-15T21:30:0Z</time></trkpt>
<trkpt lat="46.2260322570800781" lon="7.8883485794067383"><ele></ele><time>2014-10-15T21:30:3Z</time></trkpt>
<trkpt lat="46.2261199951171875" lon="7.8883838653564453"><ele></ele><time>2014-10-15T21:30:6Z</time></trkpt>
<trkpt lat="46.2261772155761719" lon="7.8884277343750000"><ele></ele><time>2014-10-15T21:30:9Z</time></trkpt>
<trkpt lat="46.2262496948242188" lon="7.8885149955749512"><ele></ele><time>2014-10-15T21:30:12Z</time></trkpt>
<trkpt lat="46.2263145446777344" lon="7.8886084556579590"><ele></ele><time>2014-10-15T21:30:15Z</time></trkpt>
<trkpt lat="46.2263565063476562" lon="7.8886632919311523"><ele></ele><time>2014-10-15T21:30:18Z</time></trkpt>
<trkpt lat="46.2263984680175781" lon="7.8887186050415039"><ele></ele><time>2014-10-15T21:30:21Z</time></trkpt>
<trkpt lat="46.2264328002929688" lon="7.8887572288513184"><ele></ele><time>2014-10-15T21:30:24Z</time></trkpt>
<trkpt lat="46.2265052795410156" lon="7.8888087272644043"><ele></ele><time>2014-10-15T21:30:27Z</time></trkpt>
<trkpt lat="46.2265548706054688" lon="7.8888454437255859"><ele></ele><time>2014-10-15T21:30:30Z</time></trkpt>
<trkpt lat="46.2266349792480469" lon="7.8888826370239258"><ele></ele><time>2014-10-15T21:30:33Z</time></trkpt>
<trkpt lat="46.2267112731933594" lon="7.8889007568359375"><ele></ele><time>2014-10-15T21:30:36Z</time></trkpt>
<trkpt lat="46.2267875671386719" lon="7.8889369964599609"><ele></ele><time>2014-10-15T21:30:39Z</time></trkpt>
<trkpt lat="46.2268333435058594" lon="7.8889803886413574"><ele></ele><time>2014-10-15T21:30:42Z</time></trkpt>
<trkpt lat="46.2268753051757812" lon="7.8890314102172852"><ele></ele><time>2014-10-15T21:30:45Z</time></trkpt>
<trkpt lat="46.2269439697265625" lon="7.8891115188598633"><ele></ele><time>2014-10-15T21:30:48Z</time></trkpt>
<trkpt lat="46.2269973754882812" lon="7.8892116546630859"><ele></ele><time>2014-10-15T21:30:51Z</time></trkpt>
<trkpt lat="46.2270317077636719" lon="7.8892812728881836"><ele></ele><time>2014-10-15T21:30:54Z</time></trkpt>
<trkpt lat="46.2270736694335938" lon="7.8893442153930664"><ele></ele><time>2014-10-15T21:30:57Z</time></trkpt>
<trkpt lat="46.2271308898925781" lon="7.8893909454345703"><ele></ele><time>2014-10-15T21:31:0Z</time></trkpt>
<trkpt lat="46.2271881103515625" lon="7.8894133567810059"><ele></ele><time>2014-10-15T21:31:3Z</time></trkpt>
<trkpt lat="46.2272758483886719" lon="7.8893952369689941"><ele></ele><time>2014-10-15T21:31:6Z</time></trkpt>
<trkpt lat="46.2273635864257812" lon="7.8893499374389648"><ele></ele><time>2014-10-15T21:31:9Z</time></trkpt>
<trkpt lat="46.2274475097656250" lon="7.8893289566040039"><ele></ele><time>2014-10-15T21:31:12Z</time></trkpt>
<trkpt lat="46.2275009155273438" lon="7.8893456459045410"><ele></ele><time>2014-10-15T21:31:15Z</time></trkpt>
<trkpt lat="46.2275581359863281" lon="7.8893752098083496"><ele></ele><time>2014-10-15T21:31:18Z</time></trkpt>
<trkpt lat="46.2276420593261719" lon="7.8894186019897461"><ele></ele><time>2014-10-15T21:31:21Z</time></trkpt>
<trkpt lat="46.2276954650878906" lon="7.8894538879394531"><ele></ele><time>2014-10-15T21:31:24Z</time></trkpt>
<trkpt lat="46.2277679443359375" lon="7.8895082473754883"><ele></ele><time>2014-10-15T21:31:27Z</time></trkpt>
<trkpt lat="46.2278213500976562" lon="7.8895440101623535"><ele></ele><time>2014-10-15T21:31:30Z</time></trkpt>
<trkpt lat="46.2279014587402344" lon="7.8895878791809082"><ele></ele><time>2014-10-15T21:31:33Z</time></trkpt>
<trkpt lat="46.2279815673828125" lon="7.8896360397338867"><ele></ele><time>2014-10-15T21:31:36Z</time></trkpt>
<trkpt lat="46.2280654907226562" lon="7.8896770477294922"><ele></ele><time>2014-10-15T21:31:39Z</time></trkpt>
<trkpt lat="46.2281265258789062" lon="7.8896956443786621"><ele></ele><time>2014-10-15T21:31:42Z</time></trkpt>
<trkpt lat="46.2282142639160156" lon="7.8897013664245605"><ele></ele><time>2014-10-15T21:31:45Z</time></trkpt>
<trkpt lat="46.2282981872558594" lon="7.8896889686584473"><ele></ele><time>2014-10-15T21:31:48Z</time></trkpt>
<trkpt lat="46.2283554077148438" lon="7.8896741867065430"><ele></ele><time>2014-10-15T21:31:51Z</time></trkpt>
<trkpt lat="46.2284126281738281" lon="7.8896598815917969"><ele></ele><time>2014-10-15T21:31:54Z</time></trkpt>
<trkpt lat="46.2284736633300781" lon="7.8896498680114746"><ele></ele><time>2014-10-15T21:31:57Z</time></trkpt>
<trkpt lat="46.2285614013671875" lon="7.8896441459655762"><ele></ele><time>2014-10-15T21:32:0Z</time></trkpt>
<trkpt lat="46.2286186218261719" lon="7.8896512985229492"><ele></ele><time>2014-10-15T21:32:3Z</time></trkpt>
<trkpt lat="46.2287139892578125" lon="7.8896679878234863"><ele></ele><time>2014-10-15T21:32:6Z</time></trkpt>
<trkpt lat="46.2287788391113281" lon="7.8896813392639160"><ele></ele><time>2014-10-15T21:32:9Z</time></trkpt>
<trkpt lat="46.2288665771484375" lon="7.8897213935852051"><ele></ele><time>2014-10-15T21:32:12Z</time></trkpt>
<trkpt lat="46.2289199829101562" lon="7.8897490501403809"><ele></ele><time>2014-10-15T21:32:15Z</time></trkpt>
<trkpt lat="46.2290115356445312" lon="7.8897833824157715"><ele></ele><time>2014-10-15T21:32:18Z</time></trkpt>
<trkpt lat="46.2290992736816406" lon="7.8898239135742188"><ele></ele><time>2014-10-15T21:32:21Z</time></trkpt>
<trkpt lat="46.2291488647460938" lon="7.8898439407348633"><ele></ele><time>2014-10-15T21:32:24Z</time></trkpt>
<trkpt lat="46.2291908264160156" lon="7.8898653984069824"><ele></ele><time>2014-10-15T21:32:27Z</time></trkpt>
<trkpt lat="46.2292480468750000" lon="7.8899106979370117"><ele></ele><time>2014-10-15T21:32:30Z</time></trkpt>
<trkpt lat="46.2292900085449219" lon="7.8899359703063965"><ele></ele><time>2014-10-15T21:32:33Z</time></trkpt>
<trkpt lat="46.2293319702148438" lon="7.8899564743041992"><ele></ele><time>2014-10-15T21:32:36Z</time></trkpt>
<trkpt lat="46.2293891906738281" lon="7.8900036811828613"><ele></ele><time>2014-10-15T21:32:39Z</time></trkpt>
<trkpt lat="46.2294311523437500" lon="7.8900661468505859"><ele></ele><time>2014-10-15T21:32:42Z</time></trkpt>
<trkpt lat="46.2294731140136719" lon="7.8901348114013672"><ele></ele><time>2014-10-15T21:32:45Z</time></trkpt>
<trkpt lat="46.2295074462890625" lon="7.8901524543762207"><ele></ele><time>2014-10-15T21:32:48Z</time></trkpt>
<trkpt lat="46.2295646667480469" lon="7.8901815414428711"><ele></ele><time>2014-10-15T21:32:51Z</time></trkpt>
<trkpt lat="46.2296066284179688" lon="7.8902244567871094"><ele></ele><time>2014-10-15T21:32:54Z</time></trkpt>
<trkpt lat="46.2296409606933594" lon="7.8902711868286133"><ele></ele><time>2014-10-15T21:32:57Z</time></trkpt>
<trkpt lat="46.2296943664550781" lon="7.8903336524963379"><ele></ele><time>2014-10-15T21:33:0Z</time></trkpt>
<trkpt lat="46.2297401428222656" lon="7.8903770446777344"><ele></ele><time>2014-10-15T21:33:3Z</time></trkpt>
<trkpt lat="46.2298126220703125" lon="7.8904395103454590"><ele></ele><time>2014-10-15T21:33:6Z</time></trkpt>
<trkpt lat="46.2298660278320312" lon="7.8904747962951660"><ele></ele><time>2014-10-15T21:33:9Z</time></trkpt>
<trkpt lat="46.2299346923828125" lon="7.8905215263366699"><ele></ele><time>2014-10-15T21:33:12Z</time></trkpt>
<trkpt lat="46.2299728393554688" lon="7.8905682563781738"><ele></ele><time>2014-10-15T21:33:15Z</time></trkpt>
<trkpt lat="46.2299690246582031" lon="7.8906683921813965"><ele></ele><time>2014-10-15T21:33:18Z</time></trkpt>
<trkpt lat="46.2298698425292969" lon="7.8906722068786621"><ele></ele><time>2014-10-15T21:33:21Z</time></trkpt>
<trkpt lat="46.2298088073730469" lon="7.8906216621398926"><ele></ele><time>2014-10-15T21:33:24Z</time></trkpt>
<trkpt lat="46.2297058105468750" lon="7.8905472755432129"><ele></ele><time>2014-10-15T21:33:27Z</time></trkpt>
<trkpt lat="46.2296409606933594" lon="7.8904953002929688"><ele></ele><time>2014-10-15T21:33:30Z</time></trkpt>
<trkpt lat="46.2295684814453125" lon="7.8903932571411133"><ele></ele><time>2014-10-15T21:33:33Z</time></trkpt>
<trkpt lat="46.2294960021972656" lon="7.8902993202209473"><ele></ele><time>2014-10-15T21:33:36Z</time></trkpt>
<trkpt lat="46.2294464111328125" lon="7.8902440071105957"><ele></ele><time>2014-10-15T21:33:39Z</time></trkpt>
<trkpt lat="46.2293663024902344" lon="7.8901729583740234"><ele></ele><time>2014-10-15T21:33:42Z</time></trkpt>
<trkpt lat="46.2293090820312500" lon="7.8901414871215820"><ele></ele><time>2014-10-15T21:33:45Z</time></trkpt>
<trkpt lat="46.2292213439941406" lon="7.8901391029357910"><ele></ele><time>2014-10-15T21:33:48Z</time></trkpt>
<trkpt lat="46.2291641235351562" lon="7.8901648521423340"><ele></ele><time>2014-10-15T21:33:51Z</time></trkpt>
<trkpt lat="46.2290916442871094" lon="7.8902406692504883"><ele></ele><time>2014-10-15T21:33:54Z</time></trkpt>
<trkpt lat="46.2290458679199219" lon="7.8903040885925293"><ele></ele><time>2014-10-15T21:33:57Z</time></trkpt>
<trkpt lat="46.2289848327636719" lon="7.8903884887695312"><ele></ele><time>2014-10-15T21:34:0Z</time></trkpt>
<trkpt lat="46.2289314270019531" lon="7.8904404640197754"><ele></ele><time>2014-10-15T21:34:3Z</time></trkpt>
<trkpt lat="46.2288513183593750" lon="7.8905191421508789"><ele></ele><time>2014-10-15T21:34:6Z</time></trkpt>
<trkpt lat="46.2287597656250000" lon="7.8905892372131348"><ele></ele><time>2014-10-15T21:34:9Z</time></trkpt>
<trkpt lat="46.2286911010742188" lon="7.8906192779541016"><ele></ele><time>2014-10-15T21:34:12Z</time></trkpt>
<trkpt lat="46.2285957336425781" lon="7.8906226158142090"><ele></ele><time>2014-10-15T21:34:15Z</time></trkpt>
<trkpt lat="46.2285308837890625" lon="7.8906087875366211"><ele></ele><time>2014-10-15T21:34:18Z</time></trkpt>
<trkpt lat="46.2284393310546875" lon="7.8906059265136719"><ele></ele><time>2014-10-15T21:34:21Z</time></trkpt>
<trkpt lat="46.2283554077148438" lon="7.8906431198120117"><ele></ele><time>2014-10-15T21:34:24Z</time></trkpt>
<trkpt lat="46.2282943725585938" lon="7.8907423019409180"><ele></ele><time>2014-10-15T21:34:27Z</time></trkpt>
<trkpt lat="46.2282524108886719" lon="7.8908147811889648"><ele></ele><time>2014-10-15T21:34:30Z</time></trkpt>
<trkpt lat="46.2282180786132812" lon="7.8908853530883789"><ele></ele><time>2014-10-15T21:34:33Z</time></trkpt>
<trkpt lat="46.2281532287597656" lon="7.8909621238708496"><ele></ele><time>2014-10-15T21:34:36Z</time></trkpt>
<trkpt lat="46.2280883789062500" lon="7.8909654617309570"><ele></ele><time>2014-10-15T21:34:39Z</time></trkpt>
<trkpt lat="46.2279930114746094" lon="7.8909459114074707"><ele></ele><time>2014-10-15T21:34:42Z</time></trkpt>
<trkpt lat="46.2279243469238281" lon="7.8909201622009277"><ele></ele><time>2014-10-15T21:34:45Z</time></trkpt>
<trkpt lat="46.2278594970703125" lon="7.8908929824829102"><ele></ele><time>2014-10-15T21:34:48Z</time></trkpt>
<trkpt lat="46.2277717590332031" lon="7.8908600807189941"><ele></ele><time>2014-10-15T21:34:51Z</time></trkpt>
<trkpt lat="46.2277107238769531" lon="7.8908390998840332"><ele></ele><time>2014-10-15T21:34:54Z</time></trkpt>
<trkpt lat="46.2276191711425781" lon="7.8908076286315918"><ele></ele><time>2014-10-15T21:34:57Z</time></trkpt>
<trkpt lat="46.2275505065917969" lon="7.8907933235168457"><ele></ele><time>2014-10-15T21:35:0Z</time></trkpt>
<trkpt lat="46.2274742126464844" lon="7.8907895088195801"><ele></ele><time>2014-10-15T21:35:3Z</time></trkpt>
<trkpt lat="46.2274093627929688" lon="7.8908028602600098"><ele></ele><time>2014-10-15T21:35:6Z</time></trkpt>
<trkpt lat="46.2273483276367188" lon="7.8908324241638184"><ele></ele><time>2014-10-15T21:35:9Z</time></trkpt>
<trkpt lat="46.2272758483886719" lon="7.8909511566162109"><ele></ele><time>2014-10-15T21:35:12Z</time></trkpt>
<trkpt lat="46.2272720336914062" lon="7.8911113739013672"><ele></ele><time>2014-10-15T21:35:15Z</time></trkpt>
<trkpt lat="46.2273712158203125" lon="7.8911647796630859"><ele></ele><time>2014-10-15T21:35:18Z</time></trkpt>
<trkpt lat="46.2275238037109375" lon="7.8911538124084473"><ele></ele><time>2014-10-15T21:35:21Z</time></trkpt>
<trkpt lat="46.2276649475097656" lon="7.8911690711975098"><ele></ele><time>2014-10-15T21:35:24Z</time></trkpt>
<trkpt lat="46.2277488708496094" lon="7.8911929130554199"><ele></ele><time>2014-10-15T21:35:27Z</time></trkpt>
<trkpt lat="46.2278594970703125" lon="7.8912305831909180"><ele></ele><time>2014-10-15T21:35:30Z</time></trkpt>
<trkpt lat="46.2279243469238281" lon="7.8912677764892578"><ele></ele><time>2014-10-15T21:35:33Z</time></trkpt>
<trkpt lat="46.2280158996582031" lon="7.8913216590881348"><ele></ele><time>2014-10-15T21:35:36Z</time></trkpt>
<trkpt lat="46.2281150817871094" lon="7.8913660049438477"><ele></ele><time>2014-10-15T21:35:39Z</time></trkpt>
<trkpt lat="46.2282066345214844" lon="7.8914165496826172"><ele></ele><time>2014-10-15T21:35:42Z</time></trkpt>
<trkpt lat="46.2282638549804688" lon="7.8914628028869629"><ele></ele><time>2014-10-15T21:35:45Z</time></trkpt>
<trkpt lat="46.2283515930175781" lon="7.8915228843688965"><ele></ele><time>2014-10-15T21:35:48Z</time></trkpt>
<trkpt lat="46.2284088134765625" lon="7.8915586471557617"><ele></ele><time>2014-10-15T21:35:51Z</time></trkpt>
<trkpt lat="46.2285041809082031" lon="7.8915977478027344"><ele></ele><time>2014-10-15T21:35:54Z</time></trkpt>
<trkpt lat="46.2285652160644531" lon="7.8916344642639160"><ele></ele><time>2014-10-15T21:35:57Z</time></trkpt>
<trkpt lat="46.2286224365234375" lon="7.8916783332824707"><ele></ele><time>2014-10-15T21:36:0Z</time></trkpt>
<trkpt lat="46.2287101745605469" lon="7.8917326927185059"><ele></ele><time>2014-10-15T21:36:3Z</time></trkpt>
<trkpt lat="46.2287940979003906" lon="7.8917922973632812"><ele></ele><time>2014-10-15T21:36:6Z</time></trkpt>
<trkpt lat="46.2288780212402344" lon="7.8918247222900391"><ele></ele><time>2014-10-15T21:36:9Z</time></trkpt>
<trkpt lat="46.2289581298828125" lon="7.8918561935424805"><ele></ele><time>2014-10-15T21:36:12Z</time></trkpt>
<trkpt lat="46.2290153503417969" lon="7.8918638229370117"><ele></ele><time>2014-10-15T21:36:15Z</time></trkpt>
<trkpt lat="46.2290649414062500" lon="7.8918867111206055"><ele></ele><time>2014-10-15T21:36:18Z</time></trkpt>
<trkpt lat="46.2291526794433594" lon="7.8919110298156738"><ele></ele><time>2014-10-15T21:36:21Z</time></trkpt>
<trkpt lat="46.2292327880859375" lon="7.8918938636779785"><ele></ele><time>2014-10-15T21:36:24Z</time></trkpt>
<trkpt lat="46.2292823791503906" lon="7.8918809890747070"><ele></ele><time>2014-10-15T21:36:27Z</time></trkpt>
<trkpt lat="46.2293319702148438" lon="7.8918728828430176"><ele></ele><time>2014-10-15T21:36:30Z</time></trkpt>
<trkpt lat="46.2294082641601562" lon="7.8918576240539551"><ele></ele><time>2014-10-15T21:36:33Z</time></trkpt>
<trkpt lat="46.2294578552246094" lon="7.8918523788452148"><ele></ele><time>2014-10-15T21:36:36Z</time></trkpt>
<trkpt lat="46.2295303344726562" lon="7.8918433189392090"><ele></ele><time>2014-10-15T21:36:39Z</time></trkpt>
<trkpt lat="46.2295799255371094" lon="7.8918361663818359"><ele></ele><time>2014-10-15T21:36:42Z</time></trkpt>
<trkpt lat="46.2296562194824219" lon="7.8918280601501465"><ele></ele><time>2014-10-15T21:36:45Z</time></trkpt>
<trkpt lat="46.2297019958496094" lon="7.8918247222900391"><ele></ele><time>2014-10-15T21:36:48Z</time></trkpt>
<trkpt lat="46.2297744750976562" lon="7.8918190002441406"><ele></ele><time>2014-10-15T21:36:51Z</time></trkpt>
<trkpt lat="46.2298431396484375" lon="7.8918299674987793"><ele></ele><time>2014-10-15T21:36:54Z</time></trkpt>
<trkpt lat="46.2298889160156250" lon="7.8918542861938477"><ele></ele><time>2014-10-15T21:36:57Z</time></trkpt>
<trkpt lat="46.2299499511718750" lon="7.8919157981872559"><ele></ele><time>2014-10-15T21:37:0Z</time></trkpt>
<trkpt lat="46.2299842834472656" lon="7.8919754028320312"><ele></ele><time>2014-10-15T21:37:3Z</time></trkpt>
<trkpt lat="46.2300300598144531" lon="7.8920698165893555"><ele></ele><time>2014-10-15T21:37:6Z</time></trkpt>
<trkpt lat="46.2300567626953125" lon="7.8921461105346680"><ele></ele><time>2014-10-15T21:37:9Z</time></trkpt>
<trkpt lat="46.2300682067871094" lon="7.8922815322875977"><ele></ele><time>2014-10-15T21:37:12Z</time></trkpt>
<trkpt lat="46.2300453186035156" lon="7.8924117088317871"><ele></ele><time>2014-10-15T21:37:15Z</time></trkpt>
<trkpt lat="46.2300300598144531" lon="7.8924984931945801"><ele></ele><time>2014-10-15T21:37:18Z</time></trkpt>
<trkpt lat="46.2300186157226562" lon="7.8926305770874023"><ele></ele><time>2014-10-15T21:37:21Z</time></trkpt>
<trkpt lat="46.2300376892089844" lon="7.8927698135375977"><ele></ele><time>2014-10-15T21:37:24Z</time></trkpt>
<trkpt lat="46.2300758361816406" lon="7.8928594589233398"><ele></ele><time>2014-10-15T21:37:27Z</time></trkpt>
<trkpt lat="46.2301216125488281" lon="7.8929343223571777"><ele></ele><time>2014-10-15T21:37:30Z</time></trkpt>
<trkpt lat="46.2302284240722656" lon="7.8929896354675293"><ele></ele><time>2014-10-15T21:37:33Z</time></trkpt>
<trkpt lat="46.2303123474121094" lon="7.8929891586303711"><ele></ele><time>2014-10-15T21:37:36Z</time></trkpt>
<trkpt lat="46.2304191589355469" lon="7.8929820060729980"><ele></ele><time>2014-10-15T21:37:39Z</time></trkpt>
<trkpt lat="46.2305183410644531" lon="7.8929991722106934"><ele></ele><time>2014-10-15T21:37:42Z</time></trkpt>
<trkpt lat="46.2306175231933594" lon="7.8930492401123047"><ele></ele><time>2014-10-15T21:37:45Z</time></trkpt>
<trkpt lat="46.2307014465332031" lon="7.8931264877319336"><ele></ele><time>2014-10-15T21:37:48Z</time></trkpt>
<trkpt lat="46.2307701110839844" lon="7.8932161331176758"><ele></ele><time>2014-10-15T21:37:51Z</time></trkpt>
<trkpt lat="46.2308235168457031" lon="7.8932967185974121"><ele></ele><time>2014-10-15T21:37:54Z</time></trkpt>
<trkpt lat="46.2308502197265625" lon="7.8934178352355957"><ele></ele><time>2014-10-15T21:37:57Z</time></trkpt>
<trkpt lat="46.2308731079101562" lon="7.8934879302978516"><ele></ele><time>2014-10-15T21:38:0Z</time></trkpt>
<trkpt lat="46.2309036254882812" lon="7.8935632705688477"><ele></ele><time>2014-10-15T21:38:3Z</time></trkpt>
<trkpt lat="46.2309265136718750" lon="7.8936414718627930"><ele></ele><time>2014-10-15T21:38:6Z</time></trkpt>
<trkpt lat="46.2309608459472656" lon="7.8937249183654785"><ele></ele><time>2014-10-15T21:38:9Z</time></trkpt>
<trkpt lat="46.2310104370117188" lon="7.8938322067260742"><ele></ele><time>2014-10-15T21:38:12Z</time></trkpt>
<trkpt lat="46.2310447692871094" lon="7.8938937187194824"><ele></ele><time>2014-10-15T21:38:15Z</time></trkpt>
<trkpt lat="46.2311019897460938" lon="7.8939695358276367"><ele></ele><time>2014-10-15T21:38:18Z</time></trkpt>
<trkpt lat="46.2311515808105469" lon="7.8939862251281738"><ele></ele><time>2014-10-15T21:38:21Z</time></trkpt>
<trkpt lat="46.2312011718750000" lon="7.8939709663391113"><ele></ele><time>2014-10-15T21:38:24Z</time></trkpt>
<trkpt lat="46.2312736511230469" lon="7.8939232826232910"><ele></ele><time>2014-10-15T21:38:27Z</time></trkpt>
<trkpt lat="46.2313499450683594" lon="7.8938884735107422"><ele></ele><time>2014-10-15T21:38:30Z</time></trkpt>
<trkpt lat="46.2314071655273438" lon="7.8938827514648438"><ele></ele><time>2014-10-15T21:38:33Z</time></trkpt>
<trkpt lat="46.2314987182617188" lon="7.8938817977905273"><ele></ele><time>2014-10-15T21:38:36Z</time></trkpt>
<trkpt lat="46.2315597534179688" lon="7.8938932418823242"><ele></ele><time>2014-10-15T21:38:39Z</time></trkpt>
<trkpt lat="46.2316398620605469" lon="7.8939342498779297"><ele></ele><time>2014-10-15T21:38:42Z</time></trkpt>
<trkpt lat="46.2316856384277344" lon="7.8939676284790039"><ele></ele><time>2014-10-15T21:38:45Z</time></trkpt>
<trkpt lat="46.2317314147949219" lon="7.8939876556396484"><ele></ele><time>2014-10-15T21:38:48Z</time></trkpt>
<trkpt lat="46.2318077087402344" lon="7.8939719200134277"><ele></ele><time>2014-10-15T21:38:51Z</time></trkpt>
<trkpt lat="46.2318611145019531" lon="7.8939552307128906"><ele></ele><time>2014-10-15T21:38:54Z</time></trkpt>
<trkpt lat="46.2319450378417969" lon="7.8939442634582520"><ele></ele><time>2014-10-15T21:38:57Z</time></trkpt>
<trkpt lat="46.2320022583007812" lon="7.8939418792724609"><ele></ele><time>2014-10-15T21:39:0Z</time></trkpt>
<trkpt lat="46.2320861816406250" lon="7.8939652442932129"><ele></ele><time>2014-10-15T21:39:3Z</time></trkpt>
<trkpt lat="46.2321472167968750" lon="7.8939909934997559"><ele></ele><time>2014-10-15T21:39:6Z</time></trkpt>
<trkpt lat="46.2322502136230469" lon="7.8940358161926270"><ele></ele><time>2014-10-15T21:39:9Z</time></trkpt>
<trkpt lat="46.2323265075683594" lon="7.8940577507019043"><ele></ele><time>2014-10-15T21:39:12Z</time></trkpt>
<trkpt lat="46.2323989868164062" lon="7.8940649032592773"><ele></ele><time>2014-10-15T21:39:15Z</time></trkpt>
<trkpt lat="46.2325134277343750" lon="7.8940367698669434"><ele></ele><time>2014-10-15T21:39:18Z</time></trkpt>
<trkpt lat="46.2325859069824219" lon="7.8940353393554688"><ele></ele><time>2014-10-15T21:39:21Z</time></trkpt>
<trkpt lat="46.2326927185058594" lon="7.8940663337707520"><ele></ele><time>2014-10-15T21:39:24Z</time></trkpt>
<trkpt lat="46.2327613830566406" lon="7.8940682411193848"><ele></ele><time>2014-10-15T21:39:27Z</time></trkpt>
<trkpt lat="46.2328224182128906" lon="7.8940410614013672"><ele></ele><time>2014-10-15T21:39:30Z</time></trkpt>
<trkpt lat="46.2329101562500000" lon="7.8939723968505859"><ele></ele><time>2014-10-15T21:39:33Z</time></trkpt>
<trkpt lat="46.2329750061035156" lon="7.8939123153686523"><ele></ele><time>2014-10-15T21:39:36Z</time></trkpt>
<trkpt lat="46.2330932617187500" lon="7.8938007354736328"><ele></ele><time>2014-10-15T21:39:39Z</time></trkpt>
<trkpt lat="46.2331771850585938" lon="7.8936939239501953"><ele></ele><time>2014-10-15T21:39:42Z</time></trkpt>
<trkpt lat="46.2333068847656250" lon="7.8934993743896484"><ele></ele><time>2014-10-15T21:39:45Z</time></trkpt>
<trkpt lat="46.2334251403808594" lon="7.8932819366455078"><ele></ele><time>2014-10-15T21:39:48Z</time></trkpt>
<trkpt lat="46.2335891723632812" lon="7.8931498527526855"><ele></ele><time>2014-10-15T21:39:51Z</time></trkpt>
<trkpt lat="46.2337875366210938" lon="7.8931074142456055"><ele></ele><time>2014-10-15T21:39:54Z</time></trkpt>
<trkpt lat="46.2339363098144531" lon="7.8931050300598145"><ele></ele><time>2014-10-15T21:39:57Z</time></trkpt>
<trkpt lat="46.2340621948242188" lon="7.8930740356445312"><ele></ele><time>2014-10-15T21:40:0Z</time></trkpt>
<trkpt lat="46.2341804504394531" lon="7.8930258750915527"><ele></ele><time>2014-10-15T21:40:3Z</time></trkpt>
<trkpt lat="46.2343482971191406" lon="7.8930435180664062"><ele></ele><time>2014-10-15T21:40:6Z</time></trkpt>
<trkpt lat="46.2343940734863281" lon="7.8929891586303711"><ele></ele><time>2014-10-15T21:40:9Z</time></trkpt>
<trkpt lat="46.2344627380371094" lon="7.8929166793823242"><ele></ele><time>2014-10-15T21:40:12Z</time></trkpt>
<trkpt lat="46.2345085144042969" lon="7.8928661346435547"><ele></ele><time>2014-10-15T21:40:15Z</time></trkpt>
<trkpt lat="46.2345771789550781" lon="7.8927803039550781"><ele></ele><time>2014-10-15T21:40:18Z</time></trkpt>
<trkpt lat="46.2346267700195312" lon="7.8927307128906250"><ele></ele><time>2014-10-15T21:40:21Z</time></trkpt>
<trkpt lat="46.2347068786621094" lon="7.8926539421081543"><ele></ele><time>2014-10-15T21:40:24Z</time></trkpt>
<trkpt lat="46.2347564697265625" lon="7.8926029205322266"><ele></ele><time>2014-10-15T21:40:27Z</time></trkpt>
<trkpt lat="46.2348327636718750" lon="7.8925375938415527"><ele></ele><time>2014-10-15T21:40:30Z</time></trkpt>
<trkpt lat="46.2349052429199219" lon="7.8924832344055176"><ele></ele><time>2014-10-15T21:40:33Z</time></trkpt>
<trkpt lat="46.2349586486816406" lon="7.8924508094787598"><ele></ele><time>2014-10-15T21:40:36Z</time></trkpt>
<trkpt lat="46.2350082397460938" lon="7.8924179077148438"><ele></ele><time>2014-10-15T21:40:39Z</time></trkpt>
<trkpt lat="46.2350578308105469" lon="7.8923859596252441"><ele></ele><time>2014-10-15T21:40:42Z</time></trkpt>
<trkpt lat="46.2351074218750000" lon="7.8923549652099609"><ele></ele><time>2014-10-15T21:40:45Z</time></trkpt>
<trkpt lat="46.2351799011230469" lon="7.8923101425170898"><ele></ele><time>2014-10-15T21:40:48Z</time></trkpt>
<trkpt lat="46.2352561950683594" lon="7.8922657966613770"><ele></ele><time>2014-10-15T21:40:51Z</time></trkpt>
<trkpt lat="46.2353057861328125" lon="7.8922419548034668"><ele></ele><time>2014-10-15T21:40:54Z</time></trkpt>
<trkpt lat="46.2353591918945312" lon="7.8922238349914551"><ele></ele><time>2014-10-15T21:40:57Z</time></trkpt>
<trkpt lat="46.2354125976562500" lon="7.8922142982482910"><ele></ele><time>2014-10-15T21:41:0Z</time></trkpt>
<trkpt lat="46.2355003356933594" lon="7.8922009468078613"><ele></ele><time>2014-10-15T21:41:3Z</time></trkpt>
<trkpt lat="46.2355575561523438" lon="7.8921933174133301"><ele></ele><time>2014-10-15T21:41:6Z</time></trkpt>
<trkpt lat="46.2356452941894531" lon="7.8921928405761719"><ele></ele><time>2014-10-15T21:41:9Z</time></trkpt>
<trkpt lat="46.2356986999511719" lon="7.8921866416931152"><ele></ele><time>2014-10-15T21:41:12Z</time></trkpt>
<trkpt lat="46.2357826232910156" lon="7.8921709060668945"><ele></ele><time>2014-10-15T21:41:15Z</time></trkpt>
<trkpt lat="46.2358627319335938" lon="7.8921203613281250"><ele></ele><time>2014-10-15T21:41:18Z</time></trkpt>
<trkpt lat="46.2359428405761719" lon="7.8920540809631348"><ele></ele><time>2014-10-15T21:41:21Z</time></trkpt>
<trkpt lat="46.2360076904296875" lon="7.8920102119445801"><ele></ele><time>2014-10-15T21:41:24Z</time></trkpt>
<trkpt lat="46.2360954284667969" lon="7.8919663429260254"><ele></ele><time>2014-10-15T21:41:27Z</time></trkpt>
<trkpt lat="46.2361793518066406" lon="7.8919591903686523"><ele></ele><time>2014-10-15T21:41:30Z</time></trkpt>
<trkpt lat="46.2362670898437500" lon="7.8919787406921387"><ele></ele><time>2014-10-15T21:41:33Z</time></trkpt>
<trkpt lat="46.2363243103027344" lon="7.8919925689697266"><ele></ele><time>2014-10-15T21:41:36Z</time></trkpt>
<trkpt lat="46.2363815307617188" lon="7.8919892311096191"><ele></ele><time>2014-10-15T21:41:39Z</time></trkpt>
<trkpt lat="46.2364578247070312" lon="7.8919754028320312"><ele></ele><time>2014-10-15T21:41:42Z</time></trkpt>
<trkpt lat="46.2365074157714844" lon="7.8919596672058105"><ele></ele><time>2014-10-15T21:41:45Z</time></trkpt>
<trkpt lat="46.2365798950195312" lon="7.8919272422790527"><ele></ele><time>2014-10-15T21:41:48Z</time></trkpt>
<trkpt lat="46.2366371154785156" lon="7.8919124603271484"><ele></ele><time>2014-10-15T21:41:51Z</time></trkpt>
<trkpt lat="46.2366943359375000" lon="7.8919119834899902"><ele></ele><time>2014-10-15T21:41:54Z</time></trkpt>
<trkpt lat="46.2367858886718750" lon="7.8919019699096680"><ele></ele><time>2014-10-15T21:41:57Z</time></trkpt>
<trkpt lat="46.2368431091308594" lon="7.8918781280517578"><ele></ele><time>2014-10-15T21:42:0Z</time></trkpt>
<trkpt lat="46.2369003295898438" lon="7.8918504714965820"><ele></ele><time>2014-10-15T21:42:3Z</time></trkpt>
<trkpt lat="46.2369537353515625" lon="7.8918323516845703"><ele></ele><time>2014-10-15T21:42:6Z</time></trkpt>
<trkpt lat="46.2369995117187500" lon="7.8918018341064453"><ele></ele><time>2014-10-15T21:42:9Z</time></trkpt>
<trkpt lat="46.2370758056640625" lon="7.8917684555053711"><ele></ele><time>2014-10-15T21:42:12Z</time></trkpt>
<trkpt lat="46.2371253967285156" lon="7.8917484283447266"><ele></ele><time>2014-10-15T21:42:15Z</time></trkpt>
<trkpt lat="46.2372055053710938" lon="7.8917264938354492"><ele></ele><time>2014-10-15T21:42:18Z</time></trkpt>
<trkpt lat="46.2372589111328125" lon="7.8916988372802734"><ele></ele><time>2014-10-15T21:42:21Z</time></trkpt>
<trkpt lat="46.2373123168945312" lon="7.8916721343994141"><ele></ele><time>2014-10-15T21:42:24Z</time></trkpt>
<trkpt lat="46.2374038696289062" lon="7.8916277885437012"><ele></ele><time>2014-10-15T21:42:27Z</time></trkpt>
<trkpt lat="46.2374954223632812" lon="7.8915858268737793"><ele></ele><time>2014-10-15T21:42:30Z</time></trkpt>
<trkpt lat="46.2375831604003906" lon="7.8915629386901855"><ele></ele><time>2014-10-15T21:42:33Z</time></trkpt>
<trkpt lat="46.2376403808593750" lon="7.8915457725524902"><ele></ele><time>2014-10-15T21:42:36Z</time></trkpt>
<trkpt lat="46.2377243041992188" lon="7.8915114402770996"><ele></ele><time>2014-10-15T21:42:39Z</time></trkpt>
<trkpt lat="46.2377815246582031" lon="7.8914785385131836"><ele></ele><time>2014-10-15T21:42:42Z</time></trkpt>
<trkpt lat="46.2378349304199219" lon="7.8914427757263184"><ele></ele><time>2014-10-15T21:42:45Z</time></trkpt>
<trkpt lat="46.2379150390625000" lon="7.8913984298706055"><ele></ele><time>2014-10-15T21:42:48Z</time></trkpt>
<trkpt lat="46.2379722595214844" lon="7.8913741111755371"><ele></ele><time>2014-10-15T21:42:51Z</time></trkpt>
<trkpt lat="46.2380256652832031" lon="7.8913512229919434"><ele></ele><time>2014-10-15T21:42:54Z</time></trkpt>
<trkpt lat="46.2380790710449219" lon="7.8913383483886719"><ele></ele><time>2014-10-15T21:42:57Z</time></trkpt>
<trkpt lat="46.2381324768066406" lon="7.8913412094116211"><ele></ele><time>2014-10-15T21:43:0Z</time></trkpt>
<trkpt lat="46.2382202148437500" lon="7.8913607597351074"><ele></ele><time>2014-10-15T21:43:3Z</time></trkpt>
<trkpt lat="46.2382812500000000" lon="7.8913741111755371"><ele></ele><time>2014-10-15T21:43:6Z</time></trkpt>
<trkpt lat="46.2383766174316406" lon="7.8913917541503906"><ele></ele><time>2014-10-15T21:43:9Z</time></trkpt>
<trkpt lat="46.2384414672851562" lon="7.8914055824279785"><ele></ele><time>2014-10-15T21:43:12Z</time></trkpt>
<trkpt lat="46.2385063171386719" lon="7.8914256095886230"><ele></ele><time>2014-10-15T21:43:15Z</time></trkpt>
<trkpt lat="46.2386054992675781" lon="7.8914532661437988"><ele></ele><time>2014-10-15T21:43:18Z</time></trkpt>
<trkpt lat="46.2386703491210938" lon="7.8914704322814941"><ele></ele><time>2014-10-15T21:43:21Z</time></trkpt>
<trkpt lat="46.2387428283691406" lon="7.8914823532104492"><ele></ele><time>2014-10-15T21:43:24Z</time></trkpt>
<trkpt lat="46.2388153076171875" lon="7.8914651870727539"><ele></ele><time>2014-10-15T21:43:27Z</time></trkpt>
<trkpt lat="46.2388839721679688" lon="7.8914165496826172"><ele></ele><time>2014-10-15T21:43:30Z</time></trkpt>
<trkpt lat="46.2389755249023438" lon="7.8913416862487793"><ele></ele><time>2014-10-15T21:43:33Z</time></trkpt>
<trkpt lat="46.2390785217285156" lon="7.8913030624389648"><ele></ele><time>2014-10-15T21:43:36Z</time></trkpt>
<trkpt lat="46.2391662597656250" lon="7.8912553787231445"><ele></ele><time>2014-10-15T21:43:39Z</time></trkpt>
<trkpt lat="46.2392196655273438" lon="7.8912210464477539"><ele></ele><time>2014-10-15T21:43:42Z</time></trkpt>
<trkpt lat="46.2392959594726562" lon="7.8911781311035156"><ele></ele><time>2014-10-15T21:43:45Z</time></trkpt>
<trkpt lat="46.2393722534179688" lon="7.8911571502685547"><ele></ele><time>2014-10-15T21:43:48Z</time></trkpt>
<trkpt lat="46.2394294738769531" lon="7.8911514282226562"><ele></ele><time>2014-10-15T21:43:51Z</time></trkpt>
<trkpt lat="46.2394828796386719" lon="7.8911404609680176"><ele></ele><time>2014-10-15T21:43:54Z</time></trkpt>
<trkpt lat="46.2395324707031250" lon="7.8911395072937012"><ele></ele><time>2014-10-15T21:43:57Z</time></trkpt>
<trkpt lat="46.2396049499511719" lon="7.8911576271057129"><ele></ele><time>2014-10-15T21:44:0Z</time></trkpt>
<trkpt lat="46.2396736145019531" lon="7.8911828994750977"><ele></ele><time>2014-10-15T21:44:3Z</time></trkpt>
<trkpt lat="46.2397384643554688" lon="7.8912086486816406"><ele></ele><time>2014-10-15T21:44:6Z</time></trkpt>
<trkpt lat="46.2397804260253906" lon="7.8912343978881836"><ele></ele><time>2014-10-15T21:44:9Z</time></trkpt>
<trkpt lat="46.2398376464843750" lon="7.8912577629089355"><ele></ele><time>2014-10-15T21:44:12Z</time></trkpt>
<trkpt lat="46.2398796081542969" lon="7.8912677764892578"><ele></ele><time>2014-10-15T21:44:15Z</time></trkpt>
<trkpt lat="46.2399597167968750" lon="7.8912725448608398"><ele></ele><time>2014-10-15T21:44:18Z</time></trkpt>
<trkpt lat="46.2400321960449219" lon="7.8912763595581055"><ele></ele><time>2014-10-15T21:44:21Z</time></trkpt>
<trkpt lat="46.2400779724121094" lon="7.8912801742553711"><ele></ele><time>2014-10-15T21:44:24Z</time></trkpt>
<trkpt lat="46.2401466369628906" lon="7.8912835121154785"><ele></ele><time>2014-10-15T21:44:27Z</time></trkpt>
<trkpt lat="46.2401924133300781" lon="7.8912920951843262"><ele></ele><time>2014-10-15T21:44:30Z</time></trkpt>
<trkpt lat="46.2402420043945312" lon="7.8912978172302246"><ele></ele><time>2014-10-15T21:44:33Z</time></trkpt>
<trkpt lat="46.2403182983398438" lon="7.8913006782531738"><ele></ele><time>2014-10-15T21:44:36Z</time></trkpt>
<trkpt lat="46.2403945922851562" lon="7.8912992477416992"><ele></ele><time>2014-10-15T21:44:39Z</time></trkpt>
<trkpt lat="46.2404441833496094" lon="7.8912887573242188"><ele></ele><time>2014-10-15T21:44:42Z</time></trkpt>
<trkpt lat="46.2405128479003906" lon="7.8912639617919922"><ele></ele><time>2014-10-15T21:44:45Z</time></trkpt>
<trkpt lat="46.2405815124511719" lon="7.8912334442138672"><ele></ele><time>2014-10-15T21:44:48Z</time></trkpt>
<trkpt lat="46.2406311035156250" lon="7.8912158012390137"><ele></ele><time>2014-10-15T21:44:51Z</time></trkpt>
<trkpt lat="46.2407150268554688" lon="7.8911919593811035"><ele></ele><time>2014-10-15T21:44:54Z</time></trkpt>
<trkpt lat="46.2407684326171875" lon="7.8911762237548828"><ele></ele><time>2014-10-15T21:44:57Z</time></trkpt>
<trkpt lat="46.2408447265625000" lon="7.8911495208740234"><ele></ele><time>2014-10-15T21:45:0Z</time></trkpt>
<trkpt lat="46.2409210205078125" lon="7.8911223411560059"><ele></ele><time>2014-10-15T21:45:3Z</time></trkpt>
<trkpt lat="46.2410011291503906" lon="7.8911142349243164"><ele></ele><time>2014-10-15T21:45:6Z</time></trkpt>
<trkpt lat="46.2410812377929688" lon="7.8911218643188477"><ele></ele><time>2014-10-15T21:45:9Z</time></trkpt>
<trkpt lat="46.2411651611328125" lon="7.8911328315734863"><ele></ele><time>2014-10-15T21:45:12Z</time></trkpt>
<trkpt lat="46.2412452697753906" lon="7.8911457061767578"><ele></ele><time>2014-10-15T21:45:15Z</time></trkpt>
<trkpt lat="46.2413024902343750" lon="7.8911571502685547"><ele></ele><time>2014-10-15T21:45:18Z</time></trkpt>
<trkpt lat="46.2413864135742188" lon="7.8911828994750977"><ele></ele><time>2014-10-15T21:45:21Z</time></trkpt>
<trkpt lat="46.2414436340332031" lon="7.8912010192871094"><ele></ele><time>2014-10-15T21:45:24Z</time></trkpt>
<trkpt lat="46.2414970397949219" lon="7.8912324905395508"><ele></ele><time>2014-10-15T21:45:27Z</time></trkpt>
<trkpt lat="46.2415428161621094" lon="7.8913292884826660"><ele></ele><time>2014-10-15T21:45:30Z</time></trkpt>
<trkpt lat="46.2414894104003906" lon="7.8914179801940918"><ele></ele><time>2014-10-15T21:45:33Z</time></trkpt>
<trkpt lat="46.2414398193359375" lon="7.8914384841918945"><ele></ele><time>2014-10-15T21:45:36Z</time></trkpt>
<trkpt lat="46.2413558959960938" lon="7.8914513587951660"><ele></ele><time>2014-10-15T21:45:39Z</time></trkpt>
<trkpt lat="46.2412757873535156" lon="7.8914413452148438"><ele></ele><time>2014-10-15T21:45:42Z</time></trkpt>
<trkpt lat="46.2412300109863281" lon="7.8914499282836914"><ele></ele><time>2014-10-15T21:45:45Z</time></trkpt>
<trkpt lat="46.2411575317382812" lon="7.8914628028869629"><ele></ele><time>2014-10-15T21:45:48Z</time></trkpt>
<trkpt lat="46.2411041259765625" lon="7.8914732933044434"><ele></ele><time>2014-10-15T21:45:51Z</time></trkpt>
<trkpt lat="46.2410240173339844" lon="7.8914809226989746"><ele></ele><time>2014-10-15T21:45:54Z</time></trkpt>
<trkpt lat="46.2409477233886719" lon="7.8914957046508789"><ele></ele><time>2014-10-15T21:45:57Z</time></trkpt>
<trkpt lat="46.2408981323242188" lon="7.8915138244628906"><ele></ele><time>2014-10-15T21:46:0Z</time></trkpt>
<trkpt lat="46.2408561706542969" lon="7.8915357589721680"><ele></ele><time>2014-10-15T21:46:3Z</time></trkpt>
<trkpt lat="46.2408103942871094" lon="7.8915634155273438"><ele></ele><time>2014-10-15T21:46:6Z</time></trkpt>
<trkpt lat="46.2407531738281250" lon="7.8916239738464355"><ele></ele><time>2014-10-15T21:46:9Z</time></trkpt>
<trkpt lat="46.2407150268554688" lon="7.8916716575622559"><ele></ele><time>2014-10-15T21:46:12Z</time></trkpt>
<trkpt lat="46.2406806945800781" lon="7.8917169570922852"><ele></ele><time>2014-10-15T21:46:15Z</time></trkpt>
<trkpt lat="46.2406272888183594" lon="7.8917770385742188"><ele></ele><time>2014-10-15T21:46:18Z</time></trkpt>
<trkpt lat="46.2405929565429688" lon="7.8918199539184570"><ele></ele><time>2014-10-15T21:46:21Z</time></trkpt>
<trkpt lat="46.2405433654785156" lon="7.8918967247009277"><ele></ele><time>2014-10-15T21:46:24Z</time></trkpt>
<trkpt lat="46.2404937744140625" lon="7.8919825553894043"><ele></ele><time>2014-10-15T21:46:27Z</time></trkpt>
<trkpt lat="46.2404441833496094" lon="7.8920702934265137"><ele></ele><time>2014-10-15T21:46:30Z</time></trkpt>
<trkpt lat="46.2404098510742188" lon="7.8921251296997070"><ele></ele><time>2014-10-15T21:46:33Z</time></trkpt>
<trkpt lat="46.2403602600097656" lon="7.8922023773193359"><ele></ele><time>2014-10-15T21:46:36Z</time></trkpt>
<trkpt lat="46.2403259277343750" lon="7.8922500610351562"><ele></ele><time>2014-10-15T21:46:39Z</time></trkpt>
<trkpt lat="46.2402915954589844" lon="7.8922972679138184"><ele></ele><time>2014-10-15T21:46:42Z</time></trkpt>
<trkpt lat="46.2402343750000000" lon="7.8923649787902832"><ele></ele><time>2014-10-15T21:46:45Z</time></trkpt>
<trkpt lat="46.2402000427246094" lon="7.8924126625061035"><ele></ele><time>2014-10-15T21:46:48Z</time></trkpt>
<trkpt lat="46.2401618957519531" lon="7.8924598693847656"><ele></ele><time>2014-10-15T21:46:51Z</time></trkpt>
<trkpt lat="46.2401008605957031" lon="7.8925185203552246"><ele></ele><time>2014-10-15T21:46:54Z</time></trkpt>
<trkpt lat="46.2400398254394531" lon="7.8925738334655762"><ele></ele><time>2014-10-15T21:46:57Z</time></trkpt>
<trkpt lat="46.2399978637695312" lon="7.8926119804382324"><ele></ele><time>2014-10-15T21:47:0Z</time></trkpt>
<trkpt lat="46.2399253845214844" lon="7.8926620483398438"><ele></ele><time>2014-10-15T21:47:3Z</time></trkpt>
<trkpt lat="46.2398796081542969" lon="7.8926887512207031"><ele></ele><time>2014-10-15T21:47:6Z</time></trkpt>
<trkpt lat="46.2398300170898438" lon="7.8927083015441895"><ele></ele><time>2014-10-15T21:47:9Z</time></trkpt>
<trkpt lat="46.2397537231445312" lon="7.8927307128906250"><ele></ele><time>2014-10-15T21:47:12Z</time></trkpt>
<trkpt lat="46.2396812438964844" lon="7.8927602767944336"><ele></ele><time>2014-10-15T21:47:15Z</time></trkpt>
<trkpt lat="46.2396316528320312" lon="7.8927836418151855"><ele></ele><time>2014-10-15T21:47:18Z</time></trkpt>
<trkpt lat="46.2395553588867188" lon="7.8928165435791016"><ele></ele><time>2014-10-15T21:47:21Z</time></trkpt>
<trkpt lat="46.2394790649414062" lon="7.8928508758544922"><ele></ele><time>2014-10-15T21:47:24Z</time></trkpt>
<trkpt lat="46.2394294738769531" lon="7.8928713798522949"><ele></ele><time>2014-10-15T21:47:27Z</time></trkpt>
<trkpt lat="46.2393531799316406" lon="7.8928980827331543"><ele></ele><time>2014-10-15T21:47:30Z</time></trkpt>
<trkpt lat="46.2393035888671875" lon="7.8929209709167480"><ele></ele><time>2014-10-15T21:47:33Z</time></trkpt>
<trkpt lat="46.2392539978027344" lon="7.8929405212402344"><ele></ele><time>2014-10-15T21:47:36Z</time></trkpt>
<trkpt lat="46.2392005920410156" lon="7.8929581642150879"><ele></ele><time>2014-10-15T21:47:39Z</time></trkpt>
<trkpt lat="46.2391281127929688" lon="7.8929891586303711"><ele></ele><time>2014-10-15T21:47:42Z</time></trkpt>
<trkpt lat="46.2390518188476562" lon="7.8930301666259766"><ele></ele><time>2014-10-15T21:47:45Z</time></trkpt>
<trkpt lat="46.2390060424804688" lon="7.8930583000183105"><ele></ele><time>2014-10-15T21:47:48Z</time></trkpt>
<trkpt lat="46.2389373779296875" lon="7.8930907249450684"><ele></ele><time>2014-10-15T21:47:51Z</time></trkpt>
<trkpt lat="46.2388877868652344" lon="7.8931145668029785"><ele></ele><time>2014-10-15T21:47:54Z</time></trkpt>
<trkpt lat="46.2388381958007812" lon="7.8931412696838379"><ele></ele><time>2014-10-15T21:47:57Z</time></trkpt>
<trkpt lat="46.2387580871582031" lon="7.8931756019592285"><ele></ele><time>2014-10-15T21:48:0Z</time></trkpt>
<trkpt lat="46.2386779785156250" lon="7.8931999206542969"><ele></ele><time>2014-10-15T21:48:3Z</time></trkpt>
<trkpt lat="46.2386207580566406" lon="7.8932056427001953"><ele></ele><time>2014-10-15T21:48:6Z</time></trkpt>
<trkpt lat="46.2385673522949219" lon="7.8932075500488281"><ele></ele><time>2014-10-15T21:48:9Z</time></trkpt>
<trkpt lat="46.2384757995605469" lon="7.8932123184204102"><ele></ele><time>2014-10-15T21:48:12Z</time></trkpt>
<trkpt lat="46.2384147644042969" lon="7.8932127952575684"><ele></ele><time>2014-10-15T21:48:15Z</time></trkpt>
<trkpt lat="46.2383537292480469" lon="7.8932151794433594"><ele></ele><time>2014-10-15T21:48:18Z</time></trkpt>
<trkpt lat="46.2382659912109375" lon="7.8932161331176758"><ele></ele><time>2014-10-15T21:48:21Z</time></trkpt>
<trkpt lat="46.2382087707519531" lon="7.8932104110717773"><ele></ele><time>2014-10-15T21:48:24Z</time></trkpt>
<trkpt lat="46.2381210327148438" lon="7.8932042121887207"><ele></ele><time>2014-10-15T21:48:27Z</time></trkpt>
<trkpt lat="46.2380638122558594" lon="7.8931994438171387"><ele></ele><time>2014-10-15T21:48:30Z</time></trkpt>
<trkpt lat="46.2379951477050781" lon="7.8932442665100098"><ele></ele><time>2014-10-15T21:48:33Z</time></trkpt>
<trkpt lat="46.2379989624023438" lon="7.8933305740356445"><ele></ele><time>2014-10-15T21:48:36Z</time></trkpt>
<trkpt lat="46.2380409240722656" lon="7.8933987617492676"><ele></ele><time>2014-10-15T21:48:39Z</time></trkpt>
<trkpt lat="46.2381401062011719" lon="7.8934183120727539"><ele></ele><time>2014-10-15T21:48:42Z</time></trkpt>
<trkpt lat="46.2382011413574219" lon="7.8934226036071777"><ele></ele><time>2014-10-15T21:48:45Z</time></trkpt>
<trkpt lat="46.2382621765136719" lon="7.8934340476989746"><ele></ele><time>2014-10-15T21:48:48Z</time></trkpt>
<trkpt lat="46.2383155822753906" lon="7.8934412002563477"><ele></ele><time>2014-10-15T21:48:51Z</time></trkpt>
<trkpt lat="46.2383728027343750" lon="7.8934564590454102"><ele></ele><time>2014-10-15T21:48:54Z</time></trkpt>
<trkpt lat="46.2384605407714844" lon="7.8934845924377441"><ele></ele><time>2014-10-15T21:48:57Z</time></trkpt>
<trkpt lat="46.2385177612304688" lon="7.8934969902038574"><ele></ele><time>2014-10-15T21:49:0Z</time></trkpt>
<trkpt lat="46.2386054992675781" lon="7.8935132026672363"><ele></ele><time>2014-10-15T21:49:3Z</time></trkpt>
<trkpt lat="46.2386665344238281" lon="7.8935217857360840"><ele></ele><time>2014-10-15T21:49:6Z</time></trkpt>
<trkpt lat="46.2387237548828125" lon="7.8935394287109375"><ele></ele><time>2014-10-15T21:49:9Z</time></trkpt>
<trkpt lat="46.2388114929199219" lon="7.8935580253601074"><ele></ele><time>2014-10-15T21:49:12Z</time></trkpt>
<trkpt lat="46.2388954162597656" lon="7.8935713768005371"><ele></ele><time>2014-10-15T21:49:15Z</time></trkpt>
<trkpt lat="46.2389793395996094" lon="7.8935899734497070"><ele></ele><time>2014-10-15T21:49:18Z</time></trkpt>
<trkpt lat="46.2390327453613281" lon="7.8936052322387695"><ele></ele><time>2014-10-15T21:49:21Z</time></trkpt>
<trkpt lat="46.2391090393066406" lon="7.8936376571655273"><ele></ele><time>2014-10-15T21:49:24Z</time></trkpt>
<trkpt lat="46.2391548156738281" lon="7.8936672210693359"><ele></ele><time>2014-10-15T21:49:27Z</time></trkpt>
<trkpt lat="46.2392005920410156" lon="7.8937058448791504"><ele></ele><time>2014-10-15T21:49:30Z</time></trkpt>
<trkpt lat="46.2392616271972656" lon="7.8937659263610840"><ele></ele><time>2014-10-15T21:49:33Z</time></trkpt>
<trkpt lat="46.2392959594726562" lon="7.8938035964965820"><ele></ele><time>2014-10-15T21:49:36Z</time></trkpt>
<trkpt lat="46.2393455505371094" lon="7.8938746452331543"><ele></ele><time>2014-10-15T21:49:39Z</time></trkpt>
<trkpt lat="46.2393913269042969" lon="7.8939409255981445"><ele></ele><time>2014-10-15T21:49:42Z</time></trkpt>
<trkpt lat="46.2394294738769531" lon="7.8940191268920898"><ele></ele><time>2014-10-15T21:49:45Z</time></trkpt>
<trkpt lat="46.2394447326660156" lon="7.8940925598144531"><ele></ele><time>2014-10-15T21:49:48Z</time></trkpt>
<trkpt lat="46.2394790649414062" lon="7.8942170143127441"><ele></ele><time>2014-10-15T21:49:51Z</time></trkpt>
<trkpt lat="46.2395095825195312" lon="7.8942837715148926"><ele></ele><time>2014-10-15T21:49:54Z</time></trkpt>
<trkpt lat="46.2395477294921875" lon="7.8943910598754883"><ele></ele><time>2014-10-15T21:49:57Z</time></trkpt>
<trkpt lat="46.2396011352539062" lon="7.8945050239562988"><ele></ele><time>2014-10-15T21:50:0Z</time></trkpt>
<trkpt lat="46.2396736145019531" lon="7.8946037292480469"><ele></ele><time>2014-10-15T21:50:3Z</time></trkpt>
<trkpt lat="46.2397232055664062" lon="7.8946642875671387"><ele></ele><time>2014-10-15T21:50:6Z</time></trkpt>
<trkpt lat="46.2397956848144531" lon="7.8947496414184570"><ele></ele><time>2014-10-15T21:50:9Z</time></trkpt>
<trkpt lat="46.2398452758789062" lon="7.8948054313659668"><ele></ele><time>2014-10-15T21:50:12Z</time></trkpt>
<trkpt lat="46.2399253845214844" lon="7.8948769569396973"><ele></ele><time>2014-10-15T21:50:15Z</time></trkpt>
<trkpt lat="46.2400016784667969" lon="7.8949580192565918"><ele></ele><time>2014-10-15T21:50:18Z</time></trkpt>
<trkpt lat="46.2400779724121094" lon="7.8950471878051758"><ele></ele><time>2014-10-15T21:50:21Z</time></trkpt>
<trkpt lat="46.2401542663574219" lon="7.8951334953308105"><ele></ele><time>2014-10-15T21:50:24Z</time></trkpt>
<trkpt lat="46.2402000427246094" lon="7.8951978683471680"><ele></ele><time>2014-10-15T21:50:27Z</time></trkpt>
<trkpt lat="46.2402572631835938" lon="7.8953080177307129"><ele></ele><time>2014-10-15T21:50:30Z</time></trkpt>
<trkpt lat="46.2402915954589844" lon="7.8953881263732910"><ele></ele><time>2014-10-15T21:50:33Z</time></trkpt>
<trkpt lat="46.2403411865234375" lon="7.8954977989196777"><ele></ele><time>2014-10-15T21:50:36Z</time></trkpt>
<trkpt lat="46.2403755187988281" lon="7.8955683708190918"><ele></ele><time>2014-10-15T21:50:39Z</time></trkpt>
<trkpt lat="46.2404174804687500" lon="7.8956866264343262"><ele></ele><time>2014-10-15T21:50:42Z</time></trkpt>
<trkpt lat="46.2404556274414062" lon="7.8958125114440918"><ele></ele><time>2014-10-15T21:50:45Z</time></trkpt>
<trkpt lat="46.2404823303222656" lon="7.8959417343139648"><ele></ele><time>2014-10-15T21:50:48Z</time></trkpt>
<trkpt lat="46.2404899597167969" lon="7.8960804939270020"><ele></ele><time>2014-10-15T21:50:51Z</time></trkpt>
<trkpt lat="46.2404823303222656" lon="7.8962221145629883"><ele></ele><time>2014-10-15T21:50:54Z</time></trkpt>
<trkpt lat="46.2404708862304688" lon="7.8963103294372559"><ele></ele><time>2014-10-15T21:50:57Z</time></trkpt>
<trkpt lat="46.2404403686523438" lon="7.8964309692382812"><ele></ele><time>2014-10-15T21:51:0Z</time></trkpt>
<trkpt lat="46.2404365539550781" lon="7.8965001106262207"><ele></ele><time>2014-10-15T21:51:3Z</time></trkpt>
<trkpt lat="46.2404365539550781" lon="7.8965291976928711"><ele></ele><time>2014-10-15T21:51:6Z</time></trkpt>
<trkpt lat="46.2404441833496094" lon="7.8965187072753906"><ele></ele><time>2014-10-15T21:51:9Z</time></trkpt>
<trkpt lat="46.2403602600097656" lon="7.8966832160949707"><ele></ele><time>2014-10-15T21:51:12Z</time></trkpt>
<trkpt lat="46.2403411865234375" lon="7.8967537879943848"><ele></ele><time>2014-10-15T21:51:15Z</time></trkpt>
<trkpt lat="46.2403221130371094" lon="7.8968148231506348"><ele></ele><time>2014-10-15T21:51:18Z</time></trkpt>
<trkpt lat="46.2402915954589844" lon="7.8968896865844727"><ele></ele><time>2014-10-15T21:51:21Z</time></trkpt>
<trkpt lat="46.2402763366699219" lon="7.8969469070434570"><ele></ele><time>2014-10-15T21:51:24Z</time></trkpt>
<trkpt lat="46.2402534484863281" lon="7.8970580101013184"><ele></ele><time>2014-10-15T21:51:27Z</time></trkpt>
<trkpt lat="46.2402267456054688" lon="7.8971643447875977"><ele></ele><time>2014-10-15T21:51:30Z</time></trkpt>
<trkpt lat="46.2401885986328125" lon="7.8972835540771484"><ele></ele><time>2014-10-15T21:51:33Z</time></trkpt>
<trkpt lat="46.2401809692382812" lon="7.8974156379699707"><ele></ele><time>2014-10-15T21:51:36Z</time></trkpt>
<trkpt lat="46.2401733398437500" lon="7.8975014686584473"><ele></ele><time>2014-10-15T21:51:39Z</time></trkpt>
<trkpt lat="46.2401390075683594" lon="7.8976163864135742"><ele></ele><time>2014-10-15T21:51:42Z</time></trkpt>
<trkpt lat="46.2401123046875000" lon="7.8976821899414062"><ele></ele><time>2014-10-15T21:51:45Z</time></trkpt>
<trkpt lat="46.2400856018066406" lon="7.8977837562561035"><ele></ele><time>2014-10-15T21:51:48Z</time></trkpt>
<trkpt lat="46.2400703430175781" lon="7.8978819847106934"><ele></ele><time>2014-10-15T21:51:51Z</time></trkpt>
<trkpt lat="46.2400665283203125" lon="7.8979396820068359"><ele></ele><time>2014-10-15T21:51:54Z</time></trkpt>
<trkpt lat="46.2400512695312500" lon="7.8980131149291992"><ele></ele><time>2014-10-15T21:51:57Z</time></trkpt>
<trkpt lat="46.2400398254394531" lon="7.8981208801269531"><ele></ele><time>2014-10-15T21:52:0Z</time></trkpt>
<trkpt lat="46.2400321960449219" lon="7.8982195854187012"><ele></ele><time>2014-10-15T21:52:3Z</time></trkpt>
<trkpt lat="46.2400321960449219" lon="7.8983664512634277"><ele></ele><time>2014-10-15T21:52:6Z</time></trkpt>
<trkpt lat="46.2400398254394531" lon="7.8984513282775879"><ele></ele><time>2014-10-15T21:52:9Z</time></trkpt>
<trkpt lat="46.2400360107421875" lon="7.8985395431518555"><ele></ele><time>2014-10-15T21:52:12Z</time></trkpt>
<trkpt lat="46.2400398254394531" lon="7.8986849784851074"><ele></ele><time>2014-10-15T21:52:15Z</time></trkpt>
<trkpt lat="46.2400207519531250" lon="7.8987727165222168"><ele></ele><time>2014-10-15T21:52:18Z</time></trkpt>
<trkpt lat="46.2399673461914062" lon="7.8987965583801270"><ele></ele><time>2014-10-15T21:52:21Z</time></trkpt>
<trkpt lat="46.2399253845214844" lon="7.8987569808959961"><ele></ele><time>2014-10-15T21:52:24Z</time></trkpt>
<trkpt lat="46.2399253845214844" lon="7.8986935615539551"><ele></ele><time>2014-10-15T21:52:27Z</time></trkpt>
<trkpt lat="46.2399101257324219" lon="7.8986034393310547"><ele></ele><time>2014-10-15T21:52:30Z</time></trkpt>
<trkpt lat="46.2398834228515625" lon="7.8984947204589844"><ele></ele><time>2014-10-15T21:52:33Z</time></trkpt>
<trkpt lat="46.2398643493652344" lon="7.8984322547912598"><ele></ele><time>2014-10-15T21:52:36Z</time></trkpt>
<trkpt lat="46.2398452758789062" lon="7.8983750343322754"><ele></ele><time>2014-10-15T21:52:39Z</time></trkpt>
<trkpt lat="46.2398376464843750" lon="7.8983383178710938"><ele></ele><time>2014-10-15T21:52:42Z</time></trkpt>
<trkpt lat="46.2398376464843750" lon="7.8982620239257812"><ele></ele><time>2014-10-15T21:52:45Z</time></trkpt>
<trkpt lat="46.2398262023925781" lon="7.8982129096984863"><ele></ele><time>2014-10-15T21:52:48Z</time></trkpt>
<trkpt lat="46.2398109436035156" lon="7.8981561660766602"><ele></ele><time>2014-10-15T21:52:51Z</time></trkpt>
<trkpt lat="46.2398147583007812" lon="7.8980560302734375"><ele></ele><time>2014-10-15T21:52:54Z</time></trkpt>
<trkpt lat="46.2398147583007812" lon="7.8979496955871582"><ele></ele><time>2014-10-15T21:52:57Z</time></trkpt>
<trkpt lat="46.2398033142089844" lon="7.8978343009948730"><ele></ele><time>2014-10-15T21:53:0Z</time></trkpt>
<trkpt lat="46.2397804260253906" lon="7.8977599143981934"><ele></ele><time>2014-10-15T21:53:3Z</time></trkpt>
<trkpt lat="46.2397384643554688" lon="7.8976545333862305"><ele></ele><time>2014-10-15T21:53:6Z</time></trkpt>
<trkpt lat="46.2397003173828125" lon="7.8975596427917480"><ele></ele><time>2014-10-15T21:53:9Z</time></trkpt>
<trkpt lat="46.2396850585937500" lon="7.8974971771240234"><ele></ele><time>2014-10-15T21:53:12Z</time></trkpt>
<trkpt lat="46.2396545410156250" lon="7.8974065780639648"><ele></ele><time>2014-10-15T21:53:15Z</time></trkpt>
<trkpt lat="46.2396354675292969" lon="7.8973479270935059"><ele></ele><time>2014-10-15T21:53:18Z</time></trkpt>
<trkpt lat="46.2396049499511719" lon="7.8972911834716797"><ele></ele><time>2014-10-15T21:53:21Z</time></trkpt>
<trkpt lat="46.2395668029785156" lon="7.8972139358520508"><ele></ele><time>2014-10-15T21:53:24Z</time></trkpt>
<trkpt lat="46.2395629882812500" lon="7.8971076011657715"><ele></ele><time>2014-10-15T21:53:27Z</time></trkpt>
<trkpt lat="46.2395515441894531" lon="7.8969950675964355"><ele></ele><time>2014-10-15T21:53:30Z</time></trkpt>
<trkpt lat="46.2395095825195312" lon="7.8969078063964844"><ele></ele><time>2014-10-15T21:53:33Z</time></trkpt>
<trkpt lat="46.2394790649414062" lon="7.8968591690063477"><ele></ele><time>2014-10-15T21:53:36Z</time></trkpt>
<trkpt lat="46.2394485473632812" lon="7.8967828750610352"><ele></ele><time>2014-10-15T21:53:39Z</time></trkpt>
<trkpt lat="46.2394294738769531" lon="7.8967366218566895"><ele></ele><time>2014-10-15T21:53:42Z</time></trkpt>
<trkpt lat="46.2394104003906250" lon="7.8966884613037109"><ele></ele><time>2014-10-15T21:53:45Z</time></trkpt>
<trkpt lat="46.2393646240234375" lon="7.8966226577758789"><ele></ele><time>2014-10-15T21:53:48Z</time></trkpt>
<trkpt lat="46.2393302917480469" lon="7.8965477943420410"><ele></ele><time>2014-10-15T21:53:51Z</time></trkpt>
<trkpt lat="46.2393035888671875" lon="7.8964648246765137"><ele></ele><time>2014-10-15T21:53:54Z</time></trkpt>
<trkpt lat="46.2392730712890625" lon="7.8964247703552246"><ele></ele><time>2014-10-15T21:53:57Z</time></trkpt>
<trkpt lat="46.2392234802246094" lon="7.8963632583618164"><ele></ele><time>2014-10-15T21:54:0Z</time></trkpt>
<trkpt lat="46.2391700744628906" lon="7.8962960243225098"><ele></ele><time>2014-10-15T21:54:3Z</time></trkpt>
<trkpt lat="46.2391204833984375" lon="7.8962292671203613"><ele></ele><time>2014-10-15T21:54:6Z</time></trkpt>
<trkpt lat="46.2390632629394531" lon="7.8961486816406250"><ele></ele><time>2014-10-15T21:54:9Z</time></trkpt>
<trkpt lat="46.2390060424804688" lon="7.8960795402526855"><ele></ele><time>2014-10-15T21:54:12Z</time></trkpt>
<trkpt lat="46.2389793395996094" lon="7.8960347175598145"><ele></ele><time>2014-10-15T21:54:15Z</time></trkpt>
<trkpt lat="46.2389373779296875" lon="7.8959708213806152"><ele></ele><time>2014-10-15T21:54:18Z</time></trkpt>
<trkpt lat="46.2389106750488281" lon="7.8959288597106934"><ele></ele><time>2014-10-15T21:54:21Z</time></trkpt>
<trkpt lat="46.2388687133789062" lon="7.8958730697631836"><ele></ele><time>2014-10-15T21:54:24Z</time></trkpt>
<trkpt lat="46.2388305664062500" lon="7.8958058357238770"><ele></ele><time>2014-10-15T21:54:27Z</time></trkpt>
<trkpt lat="46.2387847900390625" lon="7.8957414627075195"><ele></ele><time>2014-10-15T21:54:30Z</time></trkpt>
<trkpt lat="46.2387275695800781" lon="7.8956856727600098"><ele></ele><time>2014-10-15T21:54:33Z</time></trkpt>
<trkpt lat="46.2386703491210938" lon="7.8956503868103027"><ele></ele><time>2014-10-15T21:54:36Z</time></trkpt>
<trkpt lat="46.2386360168457031" lon="7.8956108093261719"><ele></ele><time>2014-10-15T21:54:39Z</time></trkpt>
<trkpt lat="46.2385902404785156" lon="7.8955149650573730"><ele></ele><time>2014-10-15T21:54:42Z</time></trkpt>
<trkpt lat="46.2385559082031250" lon="7.8954534530639648"><ele></ele><time>2014-10-15T21:54:45Z</time></trkpt>
<trkpt lat="46.2385139465332031" lon="7.8954162597656250"><ele></ele><time>2014-10-15T21:54:48Z</time></trkpt>
<trkpt lat="46.2384567260742188" lon="7.8953671455383301"><ele></ele><time>2014-10-15T21:54:51Z</time></trkpt>
<trkpt lat="46.2384262084960938" lon="7.8953371047973633"><ele></ele><time>2014-10-15T21:54:54Z</time></trkpt>
<trkpt lat="46.2383766174316406" lon="7.8953003883361816"><ele></ele><time>2014-10-15T21:54:57Z</time></trkpt>
<trkpt lat="46.2383499145507812" lon="7.8952851295471191"><ele></ele><time>2014-10-15T21:55:0Z</time></trkpt>
<trkpt lat="46.2383270263671875" lon="7.8952593803405762"><ele></ele><time>2014-10-15T21:55:3Z</time></trkpt>
<trkpt lat="46.2382736206054688" lon="7.8952383995056152"><ele></ele><time>2014-10-15T21:55:6Z</time></trkpt>
<trkpt lat="46.2382278442382812" lon="7.8952407836914062"><ele></ele><time>2014-10-15T21:55:9Z</time></trkpt>
<trkpt lat="46.2381591796875000" lon="7.8952469825744629"><ele></ele><time>2014-10-15T21:55:12Z</time></trkpt>
<trkpt lat="46.2381210327148438" lon="7.8952465057373047"><ele></ele><time>2014-10-15T21:55:15Z</time></trkpt>
<trkpt lat="46.2380867004394531" lon="7.8952527046203613"><ele></ele><time>2014-10-15T21:55:18Z</time></trkpt>
<trkpt lat="46.2380294799804688" lon="7.8952469825744629"><ele></ele><time>2014-10-15T21:55:21Z</time></trkpt>
<trkpt lat="46.2379913330078125" lon="7.8952322006225586"><ele></ele><time>2014-10-15T21:55:24Z</time></trkpt>
<trkpt lat="46.2379150390625000" lon="7.8952145576477051"><ele></ele><time>2014-10-15T21:55:27Z</time></trkpt>
<trkpt lat="46.2378692626953125" lon="7.8952059745788574"><ele></ele><time>2014-10-15T21:55:30Z</time></trkpt>
<trkpt lat="46.2378311157226562" lon="7.8951964378356934"><ele></ele><time>2014-10-15T21:55:33Z</time></trkpt>
<trkpt lat="46.2377777099609375" lon="7.8951849937438965"><ele></ele><time>2014-10-15T21:55:36Z</time></trkpt>
<trkpt lat="46.2377243041992188" lon="7.8951678276062012"><ele></ele><time>2014-10-15T21:55:39Z</time></trkpt>
<trkpt lat="46.2376632690429688" lon="7.8951611518859863"><ele></ele><time>2014-10-15T21:55:42Z</time></trkpt>
<trkpt lat="46.2376098632812500" lon="7.8951759338378906"><ele></ele><time>2014-10-15T21:55:45Z</time></trkpt>
<trkpt lat="46.2375831604003906" lon="7.8951768875122070"><ele></ele><time>2014-10-15T21:55:48Z</time></trkpt>
<trkpt lat="46.2375450134277344" lon="7.8951630592346191"><ele></ele><time>2014-10-15T21:55:51Z</time></trkpt>
<trkpt lat="46.2374877929687500" lon="7.8951368331909180"><ele></ele><time>2014-10-15T21:55:54Z</time></trkpt>
<trkpt lat="46.2374343872070312" lon="7.8951482772827148"><ele></ele><time>2014-10-15T21:55:57Z</time></trkpt>
<trkpt lat="46.2373771667480469" lon="7.8951830863952637"><ele></ele><time>2014-10-15T21:56:0Z</time></trkpt>
<trkpt lat="46.2372970581054688" lon="7.8952617645263672"><ele></ele><time>2014-10-15T21:56:3Z</time></trkpt>
<trkpt lat="46.2372207641601562" lon="7.8953542709350586"><ele></ele><time>2014-10-15T21:56:6Z</time></trkpt>
<trkpt lat="46.2371788024902344" lon="7.8954100608825684"><ele></ele><time>2014-10-15T21:56:9Z</time></trkpt>
<trkpt lat="46.2371177673339844" lon="7.8954467773437500"><ele></ele><time>2014-10-15T21:56:12Z</time></trkpt>
<trkpt lat="46.2370338439941406" lon="7.8955121040344238"><ele></ele><time>2014-10-15T21:56:15Z</time></trkpt>
<trkpt lat="46.2369804382324219" lon="7.8955740928649902"><ele></ele><time>2014-10-15T21:56:18Z</time></trkpt>
<trkpt lat="46.2369041442871094" lon="7.8956389427185059"><ele></ele><time>2014-10-15T21:56:21Z</time></trkpt>
<trkpt lat="46.2368469238281250" lon="7.8957085609436035"><ele></ele><time>2014-10-15T21:56:24Z</time></trkpt>
<trkpt lat="46.2367935180664062" lon="7.8957896232604980"><ele></ele><time>2014-10-15T21:56:27Z</time></trkpt>
<trkpt lat="46.2367591857910156" lon="7.8958325386047363"><ele></ele><time>2014-10-15T21:56:30Z</time></trkpt>
<trkpt lat="46.2366981506347656" lon="7.8958802223205566"><ele></ele><time>2014-10-15T21:56:33Z</time></trkpt>
<trkpt lat="46.2366523742675781" lon="7.8959116935729980"><ele></ele><time>2014-10-15T21:56:36Z</time></trkpt>
<trkpt lat="46.2366027832031250" lon="7.8959779739379883"><ele></ele><time>2014-10-15T21:56:39Z</time></trkpt>
<trkpt lat="46.2365608215332031" lon="7.8960165977478027"><ele></ele><time>2014-10-15T21:56:42Z</time></trkpt>
<trkpt lat="46.2365074157714844" lon="7.8960609436035156"><ele></ele><time>2014-10-15T21:56:45Z</time></trkpt>
<trkpt lat="46.2364540100097656" lon="7.8961119651794434"><ele></ele><time>2014-10-15T21:56:48Z</time></trkpt>
<trkpt lat="46.2363815307617188" lon="7.8961720466613770"><ele></ele><time>2014-10-15T21:56:51Z</time></trkpt>
<trkpt lat="46.2362976074218750" lon="7.8961958885192871"><ele></ele><time>2014-10-15T21:56:54Z</time></trkpt>
<trkpt lat="46.2362403869628906" lon="7.8962421417236328"><ele></ele><time>2014-10-15T21:56:57Z</time></trkpt>
<trkpt lat="46.2361679077148438" lon="7.8962779045104980"><ele></ele><time>2014-10-15T21:57:0Z</time></trkpt>
<trkpt lat="46.2360763549804688" lon="7.8962917327880859"><ele></ele><time>2014-10-15T21:57:3Z</time></trkpt>
<trkpt lat="46.2360229492187500" lon="7.8963003158569336"><ele></ele><time>2014-10-15T21:57:6Z</time></trkpt>
<trkpt lat="46.2359733581542969" lon="7.8963313102722168"><ele></ele><time>2014-10-15T21:57:9Z</time></trkpt>
<trkpt lat="46.2358932495117188" lon="7.8963594436645508"><ele></ele><time>2014-10-15T21:57:12Z</time></trkpt>
<trkpt lat="46.2358398437500000" lon="7.8963871002197266"><ele></ele><time>2014-10-15T21:57:15Z</time></trkpt>
<trkpt lat="46.2357940673828125" lon="7.8964285850524902"><ele></ele><time>2014-10-15T21:57:18Z</time></trkpt>
<trkpt lat="46.2357177734375000" lon="7.8964691162109375"><ele></ele><time>2014-10-15T21:57:21Z</time></trkpt>
<trkpt lat="46.2356719970703125" lon="7.8964767456054688"><ele></ele><time>2014-10-15T21:57:24Z</time></trkpt>
<trkpt lat="46.2356224060058594" lon="7.8964848518371582"><ele></ele><time>2014-10-15T21:57:27Z</time></trkpt>
<trkpt lat="46.2355728149414062" lon="7.8964958190917969"><ele></ele><time>2014-10-15T21:57:30Z</time></trkpt>
<trkpt lat="46.2355270385742188" lon="7.8965110778808594"><ele></ele><time>2014-10-15T21:57:33Z</time></trkpt>
<trkpt lat="46.2354507446289062" lon="7.8965282440185547"><ele></ele><time>2014-10-15T21:57:36Z</time></trkpt>
<trkpt lat="46.2353973388671875" lon="7.8965358734130859"><ele></ele><time>2014-10-15T21:57:39Z</time></trkpt>
<trkpt lat="46.2353286743164062" lon="7.8965601921081543"><ele></ele><time>2014-10-15T21:57:42Z</time></trkpt>
<trkpt lat="46.2352752685546875" lon="7.8965964317321777"><ele></ele><time>2014-10-15T21:57:45Z</time></trkpt>
<trkpt lat="46.2352256774902344" lon="7.8966307640075684"><ele></ele><time>2014-10-15T21:57:48Z</time></trkpt>
<trkpt lat="46.2351226806640625" lon="7.8966755867004395"><ele></ele><time>2014-10-15T21:57:51Z</time></trkpt>
<trkpt lat="46.2350540161132812" lon="7.8967242240905762"><ele></ele><time>2014-10-15T21:57:54Z</time></trkpt>
<trkpt lat="46.2349891662597656" lon="7.8967642784118652"><ele></ele><time>2014-10-15T21:57:57Z</time></trkpt>
<trkpt lat="46.2349243164062500" lon="7.8967933654785156"><ele></ele><time>2014-10-15T21:58:0Z</time></trkpt>
<trkpt lat="46.2348670959472656" lon="7.8968248367309570"><ele></ele><time>2014-10-15T21:58:3Z</time></trkpt>
<trkpt lat="46.2347831726074219" lon="7.8968572616577148"><ele></ele><time>2014-10-15T21:58:6Z</time></trkpt>
<trkpt lat="46.2347259521484375" lon="7.8968820571899414"><ele></ele><time>2014-10-15T21:58:9Z</time></trkpt>
<trkpt lat="46.2346725463867188" lon="7.8969140052795410"><ele></ele><time>2014-10-15T21:58:12Z</time></trkpt>
<trkpt lat="46.2345809936523438" lon="7.8969292640686035"><ele></ele><time>2014-10-15T21:58:15Z</time></trkpt>
<trkpt lat="46.2345199584960938" lon="7.8969268798828125"><ele></ele><time>2014-10-15T21:58:18Z</time></trkpt>
<trkpt lat="46.2344665527343750" lon="7.8969240188598633"><ele></ele><time>2014-10-15T21:58:21Z</time></trkpt>
<trkpt lat="46.2344017028808594" lon="7.8969783782958984"><ele></ele><time>2014-10-15T21:58:24Z</time></trkpt>
<trkpt lat="46.2343521118164062" lon="7.8970327377319336"><ele></ele><time>2014-10-15T21:58:27Z</time></trkpt>
<trkpt lat="46.2342681884765625" lon="7.8971061706542969"><ele></ele><time>2014-10-15T21:58:30Z</time></trkpt>
<trkpt lat="46.2341918945312500" lon="7.8971624374389648"><ele></ele><time>2014-10-15T21:58:33Z</time></trkpt>
<trkpt lat="46.2341156005859375" lon="7.8972086906433105"><ele></ele><time>2014-10-15T21:58:36Z</time></trkpt>
<trkpt lat="46.2340583801269531" lon="7.8972516059875488"><ele></ele><time>2014-10-15T21:58:39Z</time></trkpt>
<trkpt lat="46.2339973449707031" lon="7.8973131179809570"><ele></ele><time>2014-10-15T21:58:42Z</time></trkpt>
<trkpt lat="46.2339210510253906" lon="7.8974161148071289"><ele></ele><time>2014-10-15T21:58:45Z</time></trkpt>
<trkpt lat="46.2338714599609375" lon="7.8974862098693848"><ele></ele><time>2014-10-15T21:58:48Z</time></trkpt>
<trkpt lat="46.2338104248046875" lon="7.8975925445556641"><ele></ele><time>2014-10-15T21:58:51Z</time></trkpt>
<trkpt lat="46.2337570190429688" lon="7.8977088928222656"><ele></ele><time>2014-10-15T21:58:54Z</time></trkpt>
<trkpt lat="46.2337303161621094" lon="7.8978233337402344"><ele></ele><time>2014-10-15T21:58:57Z</time></trkpt>
<trkpt lat="46.2337493896484375" lon="7.8978929519653320"><ele></ele><time>2014-10-15T21:59:0Z</time></trkpt>
<trkpt lat="46.2337989807128906" lon="7.8979105949401855"><ele></ele><time>2014-10-15T21:59:3Z</time></trkpt>
<trkpt lat="46.2338180541992188" lon="7.8978590965270996"><ele></ele><time>2014-10-15T21:59:6Z</time></trkpt>
<trkpt lat="46.2338409423828125" lon="7.8977432250976562"><ele></ele><time>2014-10-15T21:59:9Z</time></trkpt>
<trkpt lat="46.2338562011718750" lon="7.8976635932922363"><ele></ele><time>2014-10-15T21:59:12Z</time></trkpt>
<trkpt lat="46.2338752746582031" lon="7.8975863456726074"><ele></ele><time>2014-10-15T21:59:15Z</time></trkpt>
<trkpt lat="46.2339286804199219" lon="7.8974847793579102"><ele></ele><time>2014-10-15T21:59:18Z</time></trkpt>
<trkpt lat="46.2339935302734375" lon="7.8974018096923828"><ele></ele><time>2014-10-15T21:59:21Z</time></trkpt>
<trkpt lat="46.2340621948242188" lon="7.8973460197448730"><ele></ele><time>2014-10-15T21:59:24Z</time></trkpt>
<trkpt lat="46.2341156005859375" lon="7.8973221778869629"><ele></ele><time>2014-10-15T21:59:27Z</time></trkpt>
<trkpt lat="46.2341766357421875" lon="7.8972911834716797"><ele></ele><time>2014-10-15T21:59:30Z</time></trkpt>
<trkpt lat="46.2342643737792969" lon="7.8972187042236328"><ele></ele><time>2014-10-15T21:59:33Z</time></trkpt>
<trkpt lat="46.2343521118164062" lon="7.8971648216247559"><ele></ele><time>2014-10-15T21:59:36Z</time></trkpt>
<trkpt lat="46.2344093322753906" lon="7.8971414566040039"><ele></ele><time>2014-10-15T21:59:39Z</time></trkpt>
<trkpt lat="46.2345046997070312" lon="7.8971400260925293"><ele></ele><time>2014-10-15T21:59:42Z</time></trkpt>
<trkpt lat="46.2345962524414062" lon="7.8971590995788574"><ele></ele><time>2014-10-15T21:59:45Z</time></trkpt>
<trkpt lat="46.2346572875976562" lon="7.8971705436706543"><ele></ele><time>2014-10-15T21:59:48Z</time></trkpt>
<trkpt lat="46.2347412109375000" lon="7.8971815109252930"><ele></ele><time>2014-10-15T21:59:51Z</time></trkpt>
<trkpt lat="46.2348213195800781" lon="7.8971929550170898"><ele></ele><time>2014-10-15T21:59:54Z</time></trkpt>
<trkpt lat="46.2349014282226562" lon="7.8972282409667969"><ele></ele><time>2014-10-15T21:59:57Z</time></trkpt>
<trkpt lat="46.2349586486816406" lon="7.8972401618957520"><ele></ele><time>2014-10-15T22:0:0Z</time></trkpt>
<trkpt lat="46.2350273132324219" lon="7.8972706794738770"><ele></ele><time>2014-10-15T22:0:3Z</time></trkpt>
<trkpt lat="46.2350997924804688" lon="7.8972978591918945"><ele></ele><time>2014-10-15T22:0:6Z</time></trkpt>
<trkpt lat="46.2351570129394531" lon="7.8973135948181152"><ele></ele><time>2014-10-15T22:0:9Z</time></trkpt>
<trkpt lat="46.2352409362792969" lon="7.8973541259765625"><ele></ele><time>2014-10-15T22:0:12Z</time></trkpt>
<trkpt lat="46.2353439331054688" lon="7.8973851203918457"><ele></ele><time>2014-10-15T22:0:15Z</time></trkpt>
<trkpt lat="46.2354240417480469" lon="7.8973832130432129"><ele></ele><time>2014-10-15T22:0:18Z</time></trkpt>
<trkpt lat="46.2354927062988281" lon="7.8973922729492188"><ele></ele><time>2014-10-15T22:0:21Z</time></trkpt>
<trkpt lat="46.2355918884277344" lon="7.8973851203918457"><ele></ele><time>2014-10-15T22:0:24Z</time></trkpt>
<trkpt lat="46.2356452941894531" lon="7.8973641395568848"><ele></ele><time>2014-10-15T22:0:27Z</time></trkpt>
<trkpt lat="46.2356872558593750" lon="7.8973531723022461"><ele></ele><time>2014-10-15T22:0:30Z</time></trkpt>
<trkpt lat="46.2357215881347656" lon="7.8973331451416016"><ele></ele><time>2014-10-15T22:0:33Z</time></trkpt>
<trkpt lat="46.2357673645019531" lon="7.8972883224487305"><ele></ele><time>2014-10-15T22:0:36Z</time></trkpt>
<trkpt lat="46.2358360290527344" lon="7.8972287178039551"><ele></ele><time>2014-10-15T22:0:39Z</time></trkpt>
<trkpt lat="46.2358818054199219" lon="7.8971996307373047"><ele></ele><time>2014-10-15T22:0:42Z</time></trkpt>
<trkpt lat="46.2359504699707031" lon="7.8971657752990723"><ele></ele><time>2014-10-15T22:0:45Z</time></trkpt>
<trkpt lat="46.2360267639160156" lon="7.8971381187438965"><ele></ele><time>2014-10-15T22:0:48Z</time></trkpt>
<trkpt lat="46.2360877990722656" lon="7.8971590995788574"><ele></ele><time>2014-10-15T22:0:51Z</time></trkpt>
<trkpt lat="46.2361526489257812" lon="7.8971710205078125"><ele></ele><time>2014-10-15T22:0:54Z</time></trkpt>
<trkpt lat="46.2361907958984375" lon="7.8971910476684570"><ele></ele><time>2014-10-15T22:0:57Z</time></trkpt>
<trkpt lat="46.2362251281738281" lon="7.8972182273864746"><ele></ele><time>2014-10-15T22:1:0Z</time></trkpt>
<trkpt lat="46.2362594604492188" lon="7.8972487449645996"><ele></ele><time>2014-10-15T22:1:3Z</time></trkpt>
<trkpt lat="46.2363128662109375" lon="7.8972549438476562"><ele></ele><time>2014-10-15T22:1:6Z</time></trkpt>
<trkpt lat="46.2363357543945312" lon="7.8972411155700684"><ele></ele><time>2014-10-15T22:1:9Z</time></trkpt>
<trkpt lat="46.2363510131835938" lon="7.8972291946411133"><ele></ele><time>2014-10-15T22:1:12Z</time></trkpt>
<trkpt lat="46.2363662719726562" lon="7.8972172737121582"><ele></ele><time>2014-10-15T22:1:15Z</time></trkpt>
<trkpt lat="46.2363967895507812" lon="7.8971800804138184"><ele></ele><time>2014-10-15T22:1:18Z</time></trkpt>
<trkpt lat="46.2364807128906250" lon="7.8970789909362793"><ele></ele><time>2014-10-15T22:1:21Z</time></trkpt>
<trkpt lat="46.2365455627441406" lon="7.8970375061035156"><ele></ele><time>2014-10-15T22:1:24Z</time></trkpt>
<trkpt lat="46.2366333007812500" lon="7.8970217704772949"><ele></ele><time>2014-10-15T22:1:27Z</time></trkpt>
<trkpt lat="46.2366790771484375" lon="7.8970317840576172"><ele></ele><time>2014-10-15T22:1:30Z</time></trkpt>
<trkpt lat="46.2367248535156250" lon="7.8970479965209961"><ele></ele><time>2014-10-15T22:1:33Z</time></trkpt>
<trkpt lat="46.2367744445800781" lon="7.8970565795898438"><ele></ele><time>2014-10-15T22:1:36Z</time></trkpt>
<trkpt lat="46.2368202209472656" lon="7.8970851898193359"><ele></ele><time>2014-10-15T22:1:39Z</time></trkpt>
<trkpt lat="46.2368850708007812" lon="7.8971209526062012"><ele></ele><time>2014-10-15T22:1:42Z</time></trkpt>
<trkpt lat="46.2369270324707031" lon="7.8971366882324219"><ele></ele><time>2014-10-15T22:1:45Z</time></trkpt>
<trkpt lat="46.2369689941406250" lon="7.8971662521362305"><ele></ele><time>2014-10-15T22:1:48Z</time></trkpt>
<trkpt lat="46.2370300292968750" lon="7.8972020149230957"><ele></ele><time>2014-10-15T22:1:51Z</time></trkpt>
<trkpt lat="46.2370796203613281" lon="7.8972034454345703"><ele></ele><time>2014-10-15T22:1:54Z</time></trkpt>
<trkpt lat="46.2371482849121094" lon="7.8971962928771973"><ele></ele><time>2014-10-15T22:1:57Z</time></trkpt>
<trkpt lat="46.2372131347656250" lon="7.8971991539001465"><ele></ele><time>2014-10-15T22:2:0Z</time></trkpt>
<trkpt lat="46.2372627258300781" lon="7.8972120285034180"><ele></ele><time>2014-10-15T22:2:3Z</time></trkpt>
<trkpt lat="46.2373008728027344" lon="7.8972206115722656"><ele></ele><time>2014-10-15T22:2:6Z</time></trkpt>
<trkpt lat="46.2373580932617188" lon="7.8972387313842773"><ele></ele><time>2014-10-15T22:2:9Z</time></trkpt>
<trkpt lat="46.2373962402343750" lon="7.8972711563110352"><ele></ele><time>2014-10-15T22:2:12Z</time></trkpt>
<trkpt lat="46.2374687194824219" lon="7.8973150253295898"><ele></ele><time>2014-10-15T22:2:15Z</time></trkpt>
<trkpt lat="46.2375488281250000" lon="7.8973522186279297"><ele></ele><time>2014-10-15T22:2:18Z</time></trkpt>
<trkpt lat="46.2376098632812500" lon="7.8974137306213379"><ele></ele><time>2014-10-15T22:2:21Z</time></trkpt>
<trkpt lat="46.2376480102539062" lon="7.8974580764770508"><ele></ele><time>2014-10-15T22:2:24Z</time></trkpt>
<trkpt lat="46.2376670837402344" lon="7.8975253105163574"><ele></ele><time>2014-10-15T22:2:27Z</time></trkpt>
<trkpt lat="46.2376518249511719" lon="7.8975629806518555"><ele></ele><time>2014-10-15T22:2:30Z</time></trkpt>
<trkpt lat="46.2376136779785156" lon="7.8975739479064941"><ele></ele><time>2014-10-15T22:2:33Z</time></trkpt>
<trkpt lat="46.2375717163085938" lon="7.8975429534912109"><ele></ele><time>2014-10-15T22:2:36Z</time></trkpt>
<trkpt lat="46.2375373840332031" lon="7.8975319862365723"><ele></ele><time>2014-10-15T22:2:39Z</time></trkpt>
<trkpt lat="46.2374687194824219" lon="7.8975248336791992"><ele></ele><time>2014-10-15T22:2:42Z</time></trkpt>
<trkpt lat="46.2374305725097656" lon="7.8975300788879395"><ele></ele><time>2014-10-15T22:2:45Z</time></trkpt>
<trkpt lat="46.2373847961425781" lon="7.8975410461425781"><ele></ele><time>2014-10-15T22:2:48Z</time></trkpt>
<trkpt lat="46.2373580932617188" lon="7.8975472450256348"><ele></ele><time>2014-10-15T22:2:51Z</time></trkpt>
<trkpt lat="46.2373123168945312" lon="7.8975811004638672"><ele></ele><time>2014-10-15T22:2:54Z</time></trkpt>
<trkpt lat="46.2372741699218750" lon="7.8975987434387207"><ele></ele><time>2014-10-15T22:2:57Z</time></trkpt>
<trkpt lat="46.2372207641601562" lon="7.8976268768310547"><ele></ele><time>2014-10-15T22:3:0Z</time></trkpt>
<trkpt lat="46.2371826171875000" lon="7.8976640701293945"><ele></ele><time>2014-10-15T22:3:3Z</time></trkpt>
<trkpt lat="46.2371482849121094" lon="7.8976774215698242"><ele></ele><time>2014-10-15T22:3:6Z</time></trkpt>
<trkpt lat="46.2371215820312500" lon="7.8976831436157227"><ele></ele><time>2014-10-15T22:3:9Z</time></trkpt>
<trkpt lat="46.2370910644531250" lon="7.8977012634277344"><ele></ele><time>2014-10-15T22:3:12Z</time></trkpt>
<trkpt lat="46.2370529174804688" lon="7.8977360725402832"><ele></ele><time>2014-10-15T22:3:15Z</time></trkpt>
<trkpt lat="46.2369804382324219" lon="7.8978095054626465"><ele></ele><time>2014-10-15T22:3:18Z</time></trkpt>
<trkpt lat="46.2369651794433594" lon="7.8978338241577148"><ele></ele><time>2014-10-15T22:3:21Z</time></trkpt>
<trkpt lat="46.2369575500488281" lon="7.8978567123413086"><ele></ele><time>2014-10-15T22:3:24Z</time></trkpt>
<trkpt lat="46.2369232177734375" lon="7.8978629112243652"><ele></ele><time>2014-10-15T22:3:27Z</time></trkpt>
<trkpt lat="46.2368545532226562" lon="7.8978738784790039"><ele></ele><time>2014-10-15T22:3:30Z</time></trkpt>
<trkpt lat="46.2368049621582031" lon="7.8978829383850098"><ele></ele><time>2014-10-15T22:3:33Z</time></trkpt>
<trkpt lat="46.2367630004882812" lon="7.8979201316833496"><ele></ele><time>2014-10-15T22:3:36Z</time></trkpt>
<trkpt lat="46.2367324829101562" lon="7.8979611396789551"><ele></ele><time>2014-10-15T22:3:39Z</time></trkpt>
<trkpt lat="46.2366905212402344" lon="7.8980212211608887"><ele></ele><time>2014-10-15T22:3:42Z</time></trkpt>
<trkpt lat="46.2366561889648438" lon="7.8980631828308105"><ele></ele><time>2014-10-15T22:3:45Z</time></trkpt>
<trkpt lat="46.2366180419921875" lon="7.8980989456176758"><ele></ele><time>2014-10-15T22:3:48Z</time></trkpt>
<trkpt lat="46.2365646362304688" lon="7.8981542587280273"><ele></ele><time>2014-10-15T22:3:51Z</time></trkpt>
<trkpt lat="46.2365379333496094" lon="7.8981952667236328"><ele></ele><time>2014-10-15T22:3:54Z</time></trkpt>
<trkpt lat="46.2365150451660156" lon="7.8982381820678711"><ele></ele><time>2014-10-15T22:3:57Z</time></trkpt>
<trkpt lat="46.2364883422851562" lon="7.8982677459716797"><ele></ele><time>2014-10-15T22:4:0Z</time></trkpt>
<trkpt lat="46.2364578247070312" lon="7.8983130455017090"><ele></ele><time>2014-10-15T22:4:3Z</time></trkpt>
<trkpt lat="46.2364387512207031" lon="7.8983411788940430"><ele></ele><time>2014-10-15T22:4:6Z</time></trkpt>
<trkpt lat="46.2364196777343750" lon="7.8983712196350098"><ele></ele><time>2014-10-15T22:4:9Z</time></trkpt>
<trkpt lat="46.2363967895507812" lon="7.8984045982360840"><ele></ele><time>2014-10-15T22:4:12Z</time></trkpt>
<trkpt lat="46.2363586425781250" lon="7.8984384536743164"><ele></ele><time>2014-10-15T22:4:15Z</time></trkpt>
<trkpt lat="46.2363319396972656" lon="7.8984613418579102"><ele></ele><time>2014-10-15T22:4:18Z</time></trkpt>
<trkpt lat="46.2363128662109375" lon="7.8984894752502441"><ele></ele><time>2014-10-15T22:4:21Z</time></trkpt>
<trkpt lat="46.2362976074218750" lon="7.8985166549682617"><ele></ele><time>2014-10-15T22:4:24Z</time></trkpt>
<trkpt lat="46.2362785339355469" lon="7.8985371589660645"><ele></ele><time>2014-10-15T22:4:27Z</time></trkpt>
<trkpt lat="46.2362480163574219" lon="7.8985676765441895"><ele></ele><time>2014-10-15T22:4:30Z</time></trkpt>
<trkpt lat="46.2362251281738281" lon="7.8985810279846191"><ele></ele><time>2014-10-15T22:4:33Z</time></trkpt>
<trkpt lat="46.2361984252929688" lon="7.8986282348632812"><ele></ele><time>2014-10-15T22:4:36Z</time></trkpt>
<trkpt lat="46.2361717224121094" lon="7.8986496925354004"><ele></ele><time>2014-10-15T22:4:39Z</time></trkpt>
<trkpt lat="46.2361450195312500" lon="7.8986763954162598"><ele></ele><time>2014-10-15T22:4:42Z</time></trkpt>
<trkpt lat="46.2361030578613281" lon="7.8987269401550293"><ele></ele><time>2014-10-15T22:4:45Z</time></trkpt>
<trkpt lat="46.2360763549804688" lon="7.8987522125244141"><ele></ele><time>2014-10-15T22:4:48Z</time></trkpt>
<trkpt lat="46.2360496520996094" lon="7.8987703323364258"><ele></ele><time>2014-10-15T22:4:51Z</time></trkpt>
<trkpt lat="46.2360420227050781" lon="7.8987722396850586"><ele></ele><time>2014-10-15T22:4:54Z</time></trkpt>
<trkpt lat="46.2360267639160156" lon="7.8987746238708496"><ele></ele><time>2014-10-15T22:4:57Z</time></trkpt>
<trkpt lat="46.2360076904296875" lon="7.8987774848937988"><ele></ele><time>2014-10-15T22:5:0Z</time></trkpt>
<trkpt lat="46.2359809875488281" lon="7.8987755775451660"><ele></ele><time>2014-10-15T22:5:3Z</time></trkpt>
<trkpt lat="46.2359580993652344" lon="7.8987722396850586"><ele></ele><time>2014-10-15T22:5:6Z</time></trkpt>
<trkpt lat="46.2359313964843750" lon="7.8987770080566406"><ele></ele><time>2014-10-15T22:5:9Z</time></trkpt>
<trkpt lat="46.2358970642089844" lon="7.8987903594970703"><ele></ele><time>2014-10-15T22:5:12Z</time></trkpt>
<trkpt lat="46.2358703613281250" lon="7.8987970352172852"><ele></ele><time>2014-10-15T22:5:15Z</time></trkpt>
<trkpt lat="46.2358360290527344" lon="7.8988323211669922"><ele></ele><time>2014-10-15T22:5:18Z</time></trkpt>
<trkpt lat="46.2358131408691406" lon="7.8988676071166992"><ele></ele><time>2014-10-15T22:5:21Z</time></trkpt>
<trkpt lat="46.2357749938964844" lon="7.8988952636718750"><ele></ele><time>2014-10-15T22:5:24Z</time></trkpt>
<trkpt lat="46.2357292175292969" lon="7.8988947868347168"><ele></ele><time>2014-10-15T22:5:27Z</time></trkpt>
<trkpt lat="46.2356834411621094" lon="7.8988938331604004"><ele></ele><time>2014-10-15T22:5:30Z</time></trkpt>
<trkpt lat="46.2356529235839844" lon="7.8989038467407227"><ele></ele><time>2014-10-15T22:5:33Z</time></trkpt>
<trkpt lat="46.2355995178222656" lon="7.8989067077636719"><ele></ele><time>2014-10-15T22:5:36Z</time></trkpt>
<trkpt lat="46.2355613708496094" lon="7.8989129066467285"><ele></ele><time>2014-10-15T22:5:39Z</time></trkpt>
<trkpt lat="46.2355194091796875" lon="7.8989129066467285"><ele></ele><time>2014-10-15T22:5:42Z</time></trkpt>
<trkpt lat="46.2354583740234375" lon="7.8989319801330566"><ele></ele><time>2014-10-15T22:5:45Z</time></trkpt>
<trkpt lat="46.2353897094726562" lon="7.8989949226379395"><ele></ele><time>2014-10-15T22:5:48Z</time></trkpt>
<trkpt lat="46.2353477478027344" lon="7.8990292549133301"><ele></ele><time>2014-10-15T22:5:51Z</time></trkpt>
<trkpt lat="46.2353172302246094" lon="7.8990612030029297"><ele></ele><time>2014-10-15T22:5:54Z</time></trkpt>
<trkpt lat="46.2352790832519531" lon="7.8990921974182129"><ele></ele><time>2014-10-15T22:5:57Z</time></trkpt>
<trkpt lat="46.2352561950683594" lon="7.8991098403930664"><ele></ele><time>2014-10-15T22:6:0Z</time></trkpt>
<trkpt lat="46.2352218627929688" lon="7.8991384506225586"><ele></ele><time>2014-10-15T22:6:3Z</time></trkpt>
<trkpt lat="46.2351951599121094" lon="7.8991594314575195"><ele></ele><time>2014-10-15T22:6:6Z</time></trkpt>
<trkpt lat="46.2351570129394531" lon="7.8992004394531250"><ele></ele><time>2014-10-15T22:6:9Z</time></trkpt>
<trkpt lat="46.2351188659667969" lon="7.8992424011230469"><ele></ele><time>2014-10-15T22:6:12Z</time></trkpt>
<trkpt lat="46.2350845336914062" lon="7.8992958068847656"><ele></ele><time>2014-10-15T22:6:15Z</time></trkpt>
<trkpt lat="46.2350616455078125" lon="7.8993606567382812"><ele></ele><time>2014-10-15T22:6:18Z</time></trkpt>
<trkpt lat="46.2350234985351562" lon="7.8994193077087402"><ele></ele><time>2014-10-15T22:6:21Z</time></trkpt>
<trkpt lat="46.2349967956542969" lon="7.8994522094726562"><ele></ele><time>2014-10-15T22:6:24Z</time></trkpt>
<trkpt lat="46.2349548339843750" lon="7.8995060920715332"><ele></ele><time>2014-10-15T22:6:27Z</time></trkpt>
<trkpt lat="46.2349319458007812" lon="7.8995370864868164"><ele></ele><time>2014-10-15T22:6:30Z</time></trkpt>
<trkpt lat="46.2348937988281250" lon="7.8995742797851562"><ele></ele><time>2014-10-15T22:6:33Z</time></trkpt>
<trkpt lat="46.2348709106445312" lon="7.8996095657348633"><ele></ele><time>2014-10-15T22:6:36Z</time></trkpt>
<trkpt lat="46.2348442077636719" lon="7.8996672630310059"><ele></ele><time>2014-10-15T22:6:39Z</time></trkpt>
<trkpt lat="46.2348251342773438" lon="7.8997049331665039"><ele></ele><time>2014-10-15T22:6:42Z</time></trkpt>
<trkpt lat="46.2348060607910156" lon="7.8997330665588379"><ele></ele><time>2014-10-15T22:6:45Z</time></trkpt>
<trkpt lat="46.2347679138183594" lon="7.8997640609741211"><ele></ele><time>2014-10-15T22:6:48Z</time></trkpt>
<trkpt lat="46.2347488403320312" lon="7.8997979164123535"><ele></ele><time>2014-10-15T22:6:51Z</time></trkpt>
<trkpt lat="46.2347335815429688" lon="7.8998303413391113"><ele></ele><time>2014-10-15T22:6:54Z</time></trkpt>
<trkpt lat="46.2346992492675781" lon="7.8998727798461914"><ele></ele><time>2014-10-15T22:6:57Z</time></trkpt>
<trkpt lat="46.2346611022949219" lon="7.8999357223510742"><ele></ele><time>2014-10-15T22:7:0Z</time></trkpt>
<trkpt lat="46.2346305847167969" lon="7.9000024795532227"><ele></ele><time>2014-10-15T22:7:3Z</time></trkpt>
<trkpt lat="46.2346076965332031" lon="7.9000673294067383"><ele></ele><time>2014-10-15T22:7:6Z</time></trkpt>
<trkpt lat="46.2345962524414062" lon="7.9001145362854004"><ele></ele><time>2014-10-15T22:7:9Z</time></trkpt>
<trkpt lat="46.2345848083496094" lon="7.9001612663269043"><ele></ele><time>2014-10-15T22:7:12Z</time></trkpt>
<trkpt lat="46.2345619201660156" lon="7.9002346992492676"><ele></ele><time>2014-10-15T22:7:15Z</time></trkpt>
<trkpt lat="46.2345466613769531" lon="7.9002785682678223"><ele></ele><time>2014-10-15T22:7:18Z</time></trkpt>
<trkpt lat="46.2345390319824219" lon="7.9003100395202637"><ele></ele><time>2014-10-15T22:7:21Z</time></trkpt>
<trkpt lat="46.2345237731933594" lon="7.9003643989562988"><ele></ele><time>2014-10-15T22:7:24Z</time></trkpt>
<trkpt lat="46.2345199584960938" lon="7.9003953933715820"><ele></ele><time>2014-10-15T22:7:27Z</time></trkpt>
<trkpt lat="46.2345161437988281" lon="7.9004321098327637"><ele></ele><time>2014-10-15T22:7:30Z</time></trkpt>
<trkpt lat="46.2345008850097656" lon="7.9004597663879395"><ele></ele><time>2014-10-15T22:7:33Z</time></trkpt>
<trkpt lat="46.2344627380371094" lon="7.9005222320556641"><ele></ele><time>2014-10-15T22:7:36Z</time></trkpt>
<trkpt lat="46.2344436645507812" lon="7.9005737304687500"><ele></ele><time>2014-10-15T22:7:39Z</time></trkpt>
<trkpt lat="46.2344245910644531" lon="7.9006457328796387"><ele></ele><time>2014-10-15T22:7:42Z</time></trkpt>
<trkpt lat="46.2344017028808594" lon="7.9007115364074707"><ele></ele><time>2014-10-15T22:7:45Z</time></trkpt>
<trkpt lat="46.2343826293945312" lon="7.9007511138916016"><ele></ele><time>2014-10-15T22:7:48Z</time></trkpt>
<trkpt lat="46.2343597412109375" lon="7.9008250236511230"><ele></ele><time>2014-10-15T22:7:51Z</time></trkpt>
<trkpt lat="46.2343406677246094" lon="7.9008693695068359"><ele></ele><time>2014-10-15T22:7:54Z</time></trkpt>
<trkpt lat="46.2343025207519531" lon="7.9009327888488770"><ele></ele><time>2014-10-15T22:7:57Z</time></trkpt>
<trkpt lat="46.2342834472656250" lon="7.9010066986083984"><ele></ele><time>2014-10-15T22:8:0Z</time></trkpt>
<trkpt lat="46.2342643737792969" lon="7.9010519981384277"><ele></ele><time>2014-10-15T22:8:3Z</time></trkpt>
<trkpt lat="46.2342185974121094" lon="7.9011058807373047"><ele></ele><time>2014-10-15T22:8:6Z</time></trkpt>
<trkpt lat="46.2341995239257812" lon="7.9011449813842773"><ele></ele><time>2014-10-15T22:8:9Z</time></trkpt>
<trkpt lat="46.2341766357421875" lon="7.9011707305908203"><ele></ele><time>2014-10-15T22:8:12Z</time></trkpt>
<trkpt lat="46.2341384887695312" lon="7.9012074470520020"><ele></ele><time>2014-10-15T22:8:15Z</time></trkpt>
<trkpt lat="46.2341003417968750" lon="7.9012479782104492"><ele></ele><time>2014-10-15T22:8:18Z</time></trkpt>
<trkpt lat="46.2340507507324219" lon="7.9013109207153320"><ele></ele><time>2014-10-15T22:8:21Z</time></trkpt>
<trkpt lat="46.2340049743652344" lon="7.9013485908508301"><ele></ele><time>2014-10-15T22:8:24Z</time></trkpt>
<trkpt lat="46.2339477539062500" lon="7.9014048576354980"><ele></ele><time>2014-10-15T22:8:27Z</time></trkpt>
<trkpt lat="46.2338790893554688" lon="7.9014825820922852"><ele></ele><time>2014-10-15T22:8:30Z</time></trkpt>
<trkpt lat="46.2338409423828125" lon="7.9015221595764160"><ele></ele><time>2014-10-15T22:8:33Z</time></trkpt>
<trkpt lat="46.2337875366210938" lon="7.9015564918518066"><ele></ele><time>2014-10-15T22:8:36Z</time></trkpt>
<trkpt lat="46.2337455749511719" lon="7.9016017913818359"><ele></ele><time>2014-10-15T22:8:39Z</time></trkpt>
<trkpt lat="46.2337226867675781" lon="7.9016609191894531"><ele></ele><time>2014-10-15T22:8:42Z</time></trkpt>
<trkpt lat="46.2336921691894531" lon="7.9016861915588379"><ele></ele><time>2014-10-15T22:8:45Z</time></trkpt>
<trkpt lat="46.2336730957031250" lon="7.9016995429992676"><ele></ele><time>2014-10-15T22:8:48Z</time></trkpt>
<trkpt lat="46.2336311340332031" lon="7.9017424583435059"><ele></ele><time>2014-10-15T22:8:51Z</time></trkpt>
<trkpt lat="46.2335891723632812" lon="7.9017605781555176"><ele></ele><time>2014-10-15T22:8:54Z</time></trkpt>
<trkpt lat="46.2335548400878906" lon="7.9017739295959473"><ele></ele><time>2014-10-15T22:8:57Z</time></trkpt>
<trkpt lat="46.2335128784179688" lon="7.9017791748046875"><ele></ele><time>2014-10-15T22:9:0Z</time></trkpt>
<trkpt lat="46.2334785461425781" lon="7.9018049240112305"><ele></ele><time>2014-10-15T22:9:3Z</time></trkpt>
<trkpt lat="46.2334480285644531" lon="7.9018244743347168"><ele></ele><time>2014-10-15T22:9:6Z</time></trkpt>
<trkpt lat="46.2334136962890625" lon="7.9018592834472656"><ele></ele><time>2014-10-15T22:9:9Z</time></trkpt>
<trkpt lat="46.2333755493164062" lon="7.9018993377685547"><ele></ele><time>2014-10-15T22:9:12Z</time></trkpt>
<trkpt lat="46.2333335876464844" lon="7.9019446372985840"><ele></ele><time>2014-10-15T22:9:15Z</time></trkpt>
<trkpt lat="46.2332954406738281" lon="7.9020028114318848"><ele></ele><time>2014-10-15T22:9:18Z</time></trkpt>
<trkpt lat="46.2332496643066406" lon="7.9020333290100098"><ele></ele><time>2014-10-15T22:9:21Z</time></trkpt>
<trkpt lat="46.2332382202148438" lon="7.9020671844482422"><ele></ele><time>2014-10-15T22:9:24Z</time></trkpt>
<trkpt lat="46.2332305908203125" lon="7.9021039009094238"><ele></ele><time>2014-10-15T22:9:27Z</time></trkpt>
<trkpt lat="46.2332229614257812" lon="7.9021282196044922"><ele></ele><time>2014-10-15T22:9:30Z</time></trkpt>
<trkpt lat="46.2331924438476562" lon="7.9021472930908203"><ele></ele><time>2014-10-15T22:9:33Z</time></trkpt>
<trkpt lat="46.2331504821777344" lon="7.9021668434143066"><ele></ele><time>2014-10-15T22:9:36Z</time></trkpt>
<trkpt lat="46.2330932617187500" lon="7.9021935462951660"><ele></ele><time>2014-10-15T22:9:39Z</time></trkpt>
<trkpt lat="46.2330513000488281" lon="7.9022169113159180"><ele></ele><time>2014-10-15T22:9:42Z</time></trkpt>
<trkpt lat="46.2330131530761719" lon="7.9022359848022461"><ele></ele><time>2014-10-15T22:9:45Z</time></trkpt>
<trkpt lat="46.2329826354980469" lon="7.9022512435913086"><ele></ele><time>2014-10-15T22:9:48Z</time></trkpt>
<trkpt lat="46.2329292297363281" lon="7.9022960662841797"><ele></ele><time>2014-10-15T22:9:51Z</time></trkpt>
<trkpt lat="46.2328987121582031" lon="7.9023222923278809"><ele></ele><time>2014-10-15T22:9:54Z</time></trkpt>
<trkpt lat="46.2328567504882812" lon="7.9023590087890625"><ele></ele><time>2014-10-15T22:9:57Z</time></trkpt>
<trkpt lat="46.2328300476074219" lon="7.9023842811584473"><ele></ele><time>2014-10-15T22:10:0Z</time></trkpt>
<trkpt lat="46.2327995300292969" lon="7.9024057388305664"><ele></ele><time>2014-10-15T22:10:3Z</time></trkpt>
<trkpt lat="46.2327613830566406" lon="7.9023990631103516"><ele></ele><time>2014-10-15T22:10:6Z</time></trkpt>
<trkpt lat="46.2327003479003906" lon="7.9023919105529785"><ele></ele><time>2014-10-15T22:10:9Z</time></trkpt>
<trkpt lat="46.2326583862304688" lon="7.9024424552917480"><ele></ele><time>2014-10-15T22:10:12Z</time></trkpt>
<trkpt lat="46.2326164245605469" lon="7.9024810791015625"><ele></ele><time>2014-10-15T22:10:15Z</time></trkpt>
<trkpt lat="46.2325744628906250" lon="7.9025106430053711"><ele></ele><time>2014-10-15T22:10:18Z</time></trkpt>
<trkpt lat="46.2325553894042969" lon="7.9025449752807617"><ele></ele><time>2014-10-15T22:10:21Z</time></trkpt>
<trkpt lat="46.2325172424316406" lon="7.9025917053222656"><ele></ele><time>2014-10-15T22:10:24Z</time></trkpt>
<trkpt lat="46.2324752807617188" lon="7.9026303291320801"><ele></ele><time>2014-10-15T22:10:27Z</time></trkpt>
<trkpt lat="46.2324485778808594" lon="7.9026622772216797"><ele></ele><time>2014-10-15T22:10:30Z</time></trkpt>
<trkpt lat="46.2324180603027344" lon="7.9026889801025391"><ele></ele><time>2014-10-15T22:10:33Z</time></trkpt>
<trkpt lat="46.2323760986328125" lon="7.9027152061462402"><ele></ele><time>2014-10-15T22:10:36Z</time></trkpt>
<trkpt lat="46.2323493957519531" lon="7.9027128219604492"><ele></ele><time>2014-10-15T22:10:39Z</time></trkpt>
<trkpt lat="46.2323188781738281" lon="7.9027180671691895"><ele></ele><time>2014-10-15T22:10:42Z</time></trkpt>
<trkpt lat="46.2322769165039062" lon="7.9027433395385742"><ele></ele><time>2014-10-15T22:10:45Z</time></trkpt>
<trkpt lat="46.2322463989257812" lon="7.9027514457702637"><ele></ele><time>2014-10-15T22:10:48Z</time></trkpt>
<trkpt lat="46.2322158813476562" lon="7.9027690887451172"><ele></ele><time>2014-10-15T22:10:51Z</time></trkpt>
<trkpt lat="46.2321853637695312" lon="7.9027962684631348"><ele></ele><time>2014-10-15T22:10:54Z</time></trkpt>
<trkpt lat="46.2321662902832031" lon="7.9028182029724121"><ele></ele><time>2014-10-15T22:10:57Z</time></trkpt>
<trkpt lat="46.2321319580078125" lon="7.9028444290161133"><ele></ele><time>2014-10-15T22:11:0Z</time></trkpt>
<trkpt lat="46.2320976257324219" lon="7.9028797149658203"><ele></ele><time>2014-10-15T22:11:3Z</time></trkpt>
<trkpt lat="46.2320747375488281" lon="7.9029145240783691"><ele></ele><time>2014-10-15T22:11:6Z</time></trkpt>
<trkpt lat="46.2320480346679688" lon="7.9029321670532227"><ele></ele><time>2014-10-15T22:11:9Z</time></trkpt>
<trkpt lat="46.2320060729980469" lon="7.9029364585876465"><ele></ele><time>2014-10-15T22:11:12Z</time></trkpt>
<trkpt lat="46.2319335937500000" lon="7.9029626846313477"><ele></ele><time>2014-10-15T22:11:15Z</time></trkpt>
<trkpt lat="46.2318954467773438" lon="7.9029426574707031"><ele></ele><time>2014-10-15T22:11:18Z</time></trkpt>
<trkpt lat="46.2318649291992188" lon="7.9028697013854980"><ele></ele><time>2014-10-15T22:11:21Z</time></trkpt>
<trkpt lat="46.2318382263183594" lon="7.9028449058532715"><ele></ele><time>2014-10-15T22:11:24Z</time></trkpt>
<trkpt lat="46.2317962646484375" lon="7.9028196334838867"><ele></ele><time>2014-10-15T22:11:27Z</time></trkpt>
<trkpt lat="46.2317619323730469" lon="7.9028182029724121"><ele></ele><time>2014-10-15T22:11:30Z</time></trkpt>
<trkpt lat="46.2317276000976562" lon="7.9028325080871582"><ele></ele><time>2014-10-15T22:11:33Z</time></trkpt>
<trkpt lat="46.2316818237304688" lon="7.9028139114379883"><ele></ele><time>2014-10-15T22:11:36Z</time></trkpt>
<trkpt lat="46.2316513061523438" lon="7.9028139114379883"><ele></ele><time>2014-10-15T22:11:39Z</time></trkpt>
<trkpt lat="46.2316093444824219" lon="7.9028396606445312"><ele></ele><time>2014-10-15T22:11:42Z</time></trkpt>
<trkpt lat="46.2315750122070312" lon="7.9028310775756836"><ele></ele><time>2014-10-15T22:11:45Z</time></trkpt>
<trkpt lat="46.2315597534179688" lon="7.9028153419494629"><ele></ele><time>2014-10-15T22:11:48Z</time></trkpt>
<trkpt lat="46.2315368652343750" lon="7.9028162956237793"><ele></ele><time>2014-10-15T22:11:51Z</time></trkpt>
<trkpt lat="46.2315063476562500" lon="7.9028224945068359"><ele></ele><time>2014-10-15T22:11:54Z</time></trkpt>
<trkpt lat="46.2314643859863281" lon="7.9028272628784180"><ele></ele><time>2014-10-15T22:11:57Z</time></trkpt>
<trkpt lat="46.2314414978027344" lon="7.9028277397155762"><ele></ele><time>2014-10-15T22:12:0Z</time></trkpt>
<trkpt lat="46.2314224243164062" lon="7.9028258323669434"><ele></ele><time>2014-10-15T22:12:3Z</time></trkpt>
<trkpt lat="46.2313804626464844" lon="7.9028024673461914"><ele></ele><time>2014-10-15T22:12:6Z</time></trkpt>
<trkpt lat="46.2313461303710938" lon="7.9028024673461914"><ele></ele><time>2014-10-15T22:12:9Z</time></trkpt>
<trkpt lat="46.2312889099121094" lon="7.9027938842773438"><ele></ele><time>2014-10-15T22:12:12Z</time></trkpt>
<trkpt lat="46.2312507629394531" lon="7.9027976989746094"><ele></ele><time>2014-10-15T22:12:15Z</time></trkpt>
<trkpt lat="46.2312240600585938" lon="7.9027848243713379"><ele></ele><time>2014-10-15T22:12:18Z</time></trkpt>
<trkpt lat="46.2311820983886719" lon="7.9027690887451172"><ele></ele><time>2014-10-15T22:12:21Z</time></trkpt>
<trkpt lat="46.2311515808105469" lon="7.9027647972106934"><ele></ele><time>2014-10-15T22:12:24Z</time></trkpt>
<trkpt lat="46.2311286926269531" lon="7.9027523994445801"><ele></ele><time>2014-10-15T22:12:27Z</time></trkpt>
<trkpt lat="46.2311096191406250" lon="7.9027252197265625"><ele></ele><time>2014-10-15T22:12:30Z</time></trkpt>
<trkpt lat="46.2310676574707031" lon="7.9026875495910645"><ele></ele><time>2014-10-15T22:12:33Z</time></trkpt>
<trkpt lat="46.2310409545898438" lon="7.9026699066162109"><ele></ele><time>2014-10-15T22:12:36Z</time></trkpt>
<trkpt lat="46.2309913635253906" lon="7.9026889801025391"><ele></ele><time>2014-10-15T22:12:39Z</time></trkpt>
<trkpt lat="46.2309646606445312" lon="7.9026823043823242"><ele></ele><time>2014-10-15T22:12:42Z</time></trkpt>
<trkpt lat="46.2309417724609375" lon="7.9026622772216797"><ele></ele><time>2014-10-15T22:12:45Z</time></trkpt>
<trkpt lat="46.2309188842773438" lon="7.9026088714599609"><ele></ele><time>2014-10-15T22:12:48Z</time></trkpt>
<trkpt lat="46.2308883666992188" lon="7.9025597572326660"><ele></ele><time>2014-10-15T22:12:51Z</time></trkpt>
<trkpt lat="46.2308464050292969" lon="7.9025182723999023"><ele></ele><time>2014-10-15T22:12:54Z</time></trkpt>
<trkpt lat="46.2308197021484375" lon="7.9024915695190430"><ele></ele><time>2014-10-15T22:12:57Z</time></trkpt>
<trkpt lat="46.2307777404785156" lon="7.9024772644042969"><ele></ele><time>2014-10-15T22:13:0Z</time></trkpt>
<trkpt lat="46.2307510375976562" lon="7.9024643898010254"><ele></ele><time>2014-10-15T22:13:3Z</time></trkpt>
<trkpt lat="46.2307128906250000" lon="7.9024353027343750"><ele></ele><time>2014-10-15T22:13:6Z</time></trkpt>
<trkpt lat="46.2306671142578125" lon="7.9024095535278320"><ele></ele><time>2014-10-15T22:13:9Z</time></trkpt>
<trkpt lat="46.2306365966796875" lon="7.9023985862731934"><ele></ele><time>2014-10-15T22:13:12Z</time></trkpt>
<trkpt lat="46.2305908203125000" lon="7.9023919105529785"><ele></ele><time>2014-10-15T22:13:15Z</time></trkpt>
<trkpt lat="46.2305564880371094" lon="7.9023904800415039"><ele></ele><time>2014-10-15T22:13:18Z</time></trkpt>
<trkpt lat="46.2305183410644531" lon="7.9023604393005371"><ele></ele><time>2014-10-15T22:13:21Z</time></trkpt>
<trkpt lat="46.2304878234863281" lon="7.9023070335388184"><ele></ele><time>2014-10-15T22:13:24Z</time></trkpt>
<trkpt lat="46.2304649353027344" lon="7.9022817611694336"><ele></ele><time>2014-10-15T22:13:27Z</time></trkpt>
<trkpt lat="46.2304153442382812" lon="7.9022717475891113"><ele></ele><time>2014-10-15T22:13:30Z</time></trkpt>
<trkpt lat="46.2303810119628906" lon="7.9022593498229980"><ele></ele><time>2014-10-15T22:13:33Z</time></trkpt>
<trkpt lat="46.2303543090820312" lon="7.9021930694580078"><ele></ele><time>2014-10-15T22:13:36Z</time></trkpt>
<trkpt lat="46.2303314208984375" lon="7.9021553993225098"><ele></ele><time>2014-10-15T22:13:39Z</time></trkpt>
<trkpt lat="46.2302932739257812" lon="7.9021286964416504"><ele></ele><time>2014-10-15T22:13:42Z</time></trkpt>
<trkpt lat="46.2302703857421875" lon="7.9021244049072266"><ele></ele><time>2014-10-15T22:13:45Z</time></trkpt>
<trkpt lat="46.2302474975585938" lon="7.9021139144897461"><ele></ele><time>2014-10-15T22:13:48Z</time></trkpt>
<trkpt lat="46.2302246093750000" lon="7.9021005630493164"><ele></ele><time>2014-10-15T22:13:51Z</time></trkpt>
<trkpt lat="46.2301979064941406" lon="7.9020671844482422"><ele></ele><time>2014-10-15T22:13:54Z</time></trkpt>
<trkpt lat="46.2301788330078125" lon="7.9020395278930664"><ele></ele><time>2014-10-15T22:13:57Z</time></trkpt>
<trkpt lat="46.2301483154296875" lon="7.9020013809204102"><ele></ele><time>2014-10-15T22:14:0Z</time></trkpt>
<trkpt lat="46.2301216125488281" lon="7.9019622802734375"><ele></ele><time>2014-10-15T22:14:3Z</time></trkpt>
<trkpt lat="46.2300910949707031" lon="7.9019203186035156"><ele></ele><time>2014-10-15T22:14:6Z</time></trkpt>
<trkpt lat="46.2300682067871094" lon="7.9018955230712891"><ele></ele><time>2014-10-15T22:14:9Z</time></trkpt>
<trkpt lat="46.2300453186035156" lon="7.9018335342407227"><ele></ele><time>2014-10-15T22:14:12Z</time></trkpt>
<trkpt lat="46.2300338745117188" lon="7.9017910957336426"><ele></ele><time>2014-10-15T22:14:15Z</time></trkpt>
<trkpt lat="46.2300224304199219" lon="7.9017505645751953"><ele></ele><time>2014-10-15T22:14:18Z</time></trkpt>
<trkpt lat="46.2299995422363281" lon="7.9016981124877930"><ele></ele><time>2014-10-15T22:14:21Z</time></trkpt>
<trkpt lat="46.2299804687500000" lon="7.9016427993774414"><ele></ele><time>2014-10-15T22:14:24Z</time></trkpt>
<trkpt lat="46.2299728393554688" lon="7.9016017913818359"><ele></ele><time>2014-10-15T22:14:27Z</time></trkpt>
<trkpt lat="46.2299575805664062" lon="7.9015622138977051"><ele></ele><time>2014-10-15T22:14:30Z</time></trkpt>
<trkpt lat="46.2299499511718750" lon="7.9015259742736816"><ele></ele><time>2014-10-15T22:14:33Z</time></trkpt>
<trkpt lat="46.2299385070800781" lon="7.9014687538146973"><ele></ele><time>2014-10-15T22:14:36Z</time></trkpt>
<trkpt lat="46.2299308776855469" lon="7.9014124870300293"><ele></ele><time>2014-10-15T22:14:39Z</time></trkpt>
<trkpt lat="46.2298965454101562" lon="7.9013752937316895"><ele></ele><time>2014-10-15T22:14:42Z</time></trkpt>
<trkpt lat="46.2298736572265625" lon="7.9013481140136719"><ele></ele><time>2014-10-15T22:14:45Z</time></trkpt>
<trkpt lat="46.2298507690429688" lon="7.9013218879699707"><ele></ele><time>2014-10-15T22:14:48Z</time></trkpt>
<trkpt lat="46.2298278808593750" lon="7.9012908935546875"><ele></ele><time>2014-10-15T22:14:51Z</time></trkpt>
<trkpt lat="46.2297973632812500" lon="7.9012370109558105"><ele></ele><time>2014-10-15T22:14:54Z</time></trkpt>
<trkpt lat="46.2297859191894531" lon="7.9011850357055664"><ele></ele><time>2014-10-15T22:14:57Z</time></trkpt>
<trkpt lat="46.2297859191894531" lon="7.9011106491088867"><ele></ele><time>2014-10-15T22:15:0Z</time></trkpt>
<trkpt lat="46.2297935485839844" lon="7.9010634422302246"><ele></ele><time>2014-10-15T22:15:3Z</time></trkpt>
<trkpt lat="46.2297897338867188" lon="7.9010214805603027"><ele></ele><time>2014-10-15T22:15:6Z</time></trkpt>
<trkpt lat="46.2297821044921875" lon="7.9009733200073242"><ele></ele><time>2014-10-15T22:15:9Z</time></trkpt>
<trkpt lat="46.2297668457031250" lon="7.9009070396423340"><ele></ele><time>2014-10-15T22:15:12Z</time></trkpt>
<trkpt lat="46.2297554016113281" lon="7.9008388519287109"><ele></ele><time>2014-10-15T22:15:15Z</time></trkpt>
<trkpt lat="46.2297172546386719" lon="7.9007983207702637"><ele></ele><time>2014-10-15T22:15:18Z</time></trkpt>
<trkpt lat="46.2296905517578125" lon="7.9007992744445801"><ele></ele><time>2014-10-15T22:15:21Z</time></trkpt>
<trkpt lat="46.2296600341796875" lon="7.9008293151855469"><ele></ele><time>2014-10-15T22:15:24Z</time></trkpt>
<trkpt lat="46.2296257019042969" lon="7.9008650779724121"><ele></ele><time>2014-10-15T22:15:27Z</time></trkpt>
<trkpt lat="46.2295989990234375" lon="7.9008760452270508"><ele></ele><time>2014-10-15T22:15:30Z</time></trkpt>
<trkpt lat="46.2295532226562500" lon="7.9008827209472656"><ele></ele><time>2014-10-15T22:15:33Z</time></trkpt>
<trkpt lat="46.2295074462890625" lon="7.9008769989013672"><ele></ele><time>2014-10-15T22:15:36Z</time></trkpt>
<trkpt lat="46.2294425964355469" lon="7.9008760452270508"><ele></ele><time>2014-10-15T22:15:39Z</time></trkpt>
<trkpt lat="46.2293930053710938" lon="7.9008765220642090"><ele></ele><time>2014-10-15T22:15:42Z</time></trkpt>
<trkpt lat="46.2293205261230469" lon="7.9008712768554688"><ele></ele><time>2014-10-15T22:15:45Z</time></trkpt>
<trkpt lat="46.2292823791503906" lon="7.9008626937866211"><ele></ele><time>2014-10-15T22:15:48Z</time></trkpt>
<trkpt lat="46.2292480468750000" lon="7.9008579254150391"><ele></ele><time>2014-10-15T22:15:51Z</time></trkpt>
<trkpt lat="46.2292022705078125" lon="7.9008536338806152"><ele></ele><time>2014-10-15T22:15:54Z</time></trkpt>
<trkpt lat="46.2291488647460938" lon="7.9008674621582031"><ele></ele><time>2014-10-15T22:15:57Z</time></trkpt>
<trkpt lat="46.2291030883789062" lon="7.9008736610412598"><ele></ele><time>2014-10-15T22:16:0Z</time></trkpt>
<trkpt lat="46.2290077209472656" lon="7.9008889198303223"><ele></ele><time>2014-10-15T22:16:3Z</time></trkpt>
<trkpt lat="46.2289466857910156" lon="7.9009118080139160"><ele></ele><time>2014-10-15T22:16:6Z</time></trkpt>
<trkpt lat="46.2288627624511719" lon="7.9009470939636230"><ele></ele><time>2014-10-15T22:16:9Z</time></trkpt>
<trkpt lat="46.2287559509277344" lon="7.9009766578674316"><ele></ele><time>2014-10-15T22:16:12Z</time></trkpt>
<trkpt lat="46.2286453247070312" lon="7.9010076522827148"><ele></ele><time>2014-10-15T22:16:15Z</time></trkpt>
<trkpt lat="46.2285461425781250" lon="7.9010138511657715"><ele></ele><time>2014-10-15T22:16:18Z</time></trkpt>
<trkpt lat="46.2284507751464844" lon="7.9010252952575684"><ele></ele><time>2014-10-15T22:16:21Z</time></trkpt>
<trkpt lat="46.2283744812011719" lon="7.9010405540466309"><ele></ele><time>2014-10-15T22:16:24Z</time></trkpt>
<trkpt lat="46.2282638549804688" lon="7.9010615348815918"><ele></ele><time>2014-10-15T22:16:27Z</time></trkpt>
<trkpt lat="46.2281188964843750" lon="7.9010910987854004"><ele></ele><time>2014-10-15T22:16:30Z</time></trkpt>
<trkpt lat="46.2280311584472656" lon="7.9011173248291016"><ele></ele><time>2014-10-15T22:16:33Z</time></trkpt>
<trkpt lat="46.2279052734375000" lon="7.9011425971984863"><ele></ele><time>2014-10-15T22:16:36Z</time></trkpt>
<trkpt lat="46.2278289794921875" lon="7.9011459350585938"><ele></ele><time>2014-10-15T22:16:39Z</time></trkpt>
<trkpt lat="46.2277069091796875" lon="7.9011297225952148"><ele></ele><time>2014-10-15T22:16:42Z</time></trkpt>
<trkpt lat="46.2275924682617188" lon="7.9011349678039551"><ele></ele><time>2014-10-15T22:16:45Z</time></trkpt>
<trkpt lat="46.2275161743164062" lon="7.9011373519897461"><ele></ele><time>2014-10-15T22:16:48Z</time></trkpt>
<trkpt lat="46.2273941040039062" lon="7.9011545181274414"><ele></ele><time>2014-10-15T22:16:51Z</time></trkpt>
<trkpt lat="46.2272682189941406" lon="7.9011397361755371"><ele></ele><time>2014-10-15T22:16:54Z</time></trkpt>
<trkpt lat="46.2271766662597656" lon="7.9011163711547852"><ele></ele><time>2014-10-15T22:16:57Z</time></trkpt>
<trkpt lat="46.2270965576171875" lon="7.9010953903198242"><ele></ele><time>2014-10-15T22:17:0Z</time></trkpt>
<trkpt lat="46.2269897460937500" lon="7.9010338783264160"><ele></ele><time>2014-10-15T22:17:3Z</time></trkpt>
<trkpt lat="46.2268867492675781" lon="7.9010148048400879"><ele></ele><time>2014-10-15T22:17:6Z</time></trkpt>
<trkpt lat="46.2267684936523438" lon="7.9010272026062012"><ele></ele><time>2014-10-15T22:17:9Z</time></trkpt>
<trkpt lat="46.2266349792480469" lon="7.9010715484619141"><ele></ele><time>2014-10-15T22:17:12Z</time></trkpt>
<trkpt lat="46.2265586853027344" lon="7.9011096954345703"><ele></ele><time>2014-10-15T22:17:15Z</time></trkpt>
<trkpt lat="46.2264328002929688" lon="7.9012298583984375"><ele></ele><time>2014-10-15T22:17:18Z</time></trkpt>
<trkpt lat="46.2263488769531250" lon="7.9013690948486328"><ele></ele><time>2014-10-15T22:17:21Z</time></trkpt>
<trkpt lat="46.2263298034667969" lon="7.9014320373535156"><ele></ele><time>2014-10-15T22:17:24Z</time></trkpt>
<trkpt lat="46.2263298034667969" lon="7.9014782905578613"><ele></ele><time>2014-10-15T22:17:27Z</time></trkpt>
<trkpt lat="46.2263298034667969" lon="7.9015474319458008"><ele></ele><time>2014-10-15T22:17:30Z</time></trkpt>
<trkpt lat="46.2263336181640625" lon="7.9016137123107910"><ele></ele><time>2014-10-15T22:17:33Z</time></trkpt>
<trkpt lat="46.2263221740722656" lon="7.9016757011413574"><ele></ele><time>2014-10-15T22:17:36Z</time></trkpt>
<trkpt lat="46.2263069152832031" lon="7.9017128944396973"><ele></ele><time>2014-10-15T22:17:39Z</time></trkpt>
<trkpt lat="46.2262725830078125" lon="7.9017629623413086"><ele></ele><time>2014-10-15T22:17:42Z</time></trkpt>
<trkpt lat="46.2262496948242188" lon="7.9018197059631348"><ele></ele><time>2014-10-15T22:17:45Z</time></trkpt>
<trkpt lat="46.2262306213378906" lon="7.9018936157226562"><ele></ele><time>2014-10-15T22:17:48Z</time></trkpt>
<trkpt lat="46.2262268066406250" lon="7.9019417762756348"><ele></ele><time>2014-10-15T22:17:51Z</time></trkpt>
<trkpt lat="46.2262229919433594" lon="7.9020185470581055"><ele></ele><time>2014-10-15T22:17:54Z</time></trkpt>
<trkpt lat="46.2262573242187500" lon="7.9020748138427734"><ele></ele><time>2014-10-15T22:17:57Z</time></trkpt>
<trkpt lat="46.2263183593750000" lon="7.9020819664001465"><ele></ele><time>2014-10-15T22:18:0Z</time></trkpt>
<trkpt lat="46.2263717651367188" lon="7.9021039009094238"><ele></ele><time>2014-10-15T22:18:3Z</time></trkpt>
<trkpt lat="46.2263908386230469" lon="7.9021439552307129"><ele></ele><time>2014-10-15T22:18:6Z</time></trkpt>
<trkpt lat="46.2263717651367188" lon="7.9022178649902344"><ele></ele><time>2014-10-15T22:18:9Z</time></trkpt>
<trkpt lat="46.2263679504394531" lon="7.9022612571716309"><ele></ele><time>2014-10-15T22:18:12Z</time></trkpt>
<trkpt lat="46.2263908386230469" lon="7.9022870063781738"><ele></ele><time>2014-10-15T22:18:15Z</time></trkpt>
<trkpt lat="46.2264328002929688" lon="7.9023127555847168"><ele></ele><time>2014-10-15T22:18:18Z</time></trkpt>
<trkpt lat="46.2264747619628906" lon="7.9023022651672363"><ele></ele><time>2014-10-15T22:18:21Z</time></trkpt>
<trkpt lat="46.2265014648437500" lon="7.9022994041442871"><ele></ele><time>2014-10-15T22:18:24Z</time></trkpt>
<trkpt lat="46.2265243530273438" lon="7.9022803306579590"><ele></ele><time>2014-10-15T22:18:27Z</time></trkpt>
<trkpt lat="46.2265586853027344" lon="7.9022655487060547"><ele></ele><time>2014-10-15T22:18:30Z</time></trkpt>
<trkpt lat="46.2265853881835938" lon="7.9022474288940430"><ele></ele><time>2014-10-15T22:18:33Z</time></trkpt>
<trkpt lat="46.2266159057617188" lon="7.9022264480590820"><ele></ele><time>2014-10-15T22:18:36Z</time></trkpt>
<trkpt lat="46.2266464233398438" lon="7.9021840095520020"><ele></ele><time>2014-10-15T22:18:39Z</time></trkpt>
<trkpt lat="46.2266616821289062" lon="7.9021525382995605"><ele></ele><time>2014-10-15T22:18:42Z</time></trkpt>
<trkpt lat="46.2266883850097656" lon="7.9021024703979492"><ele></ele><time>2014-10-15T22:18:45Z</time></trkpt>
<trkpt lat="46.2267227172851562" lon="7.9020686149597168"><ele></ele><time>2014-10-15T22:18:48Z</time></trkpt>
<trkpt lat="46.2267379760742188" lon="7.9020352363586426"><ele></ele><time>2014-10-15T22:18:51Z</time></trkpt>
<trkpt lat="46.2267570495605469" lon="7.9020018577575684"><ele></ele><time>2014-10-15T22:18:54Z</time></trkpt>
<trkpt lat="46.2267913818359375" lon="7.9019703865051270"><ele></ele><time>2014-10-15T22:18:57Z</time></trkpt>
<trkpt lat="46.2268371582031250" lon="7.9019584655761719"><ele></ele><time>2014-10-15T22:19:0Z</time></trkpt>
<trkpt lat="46.2268829345703125" lon="7.9019856452941895"><ele></ele><time>2014-10-15T22:19:3Z</time></trkpt>
<trkpt lat="46.2269210815429688" lon="7.9020400047302246"><ele></ele><time>2014-10-15T22:19:6Z</time></trkpt>
<trkpt lat="46.2269554138183594" lon="7.9020962715148926"><ele></ele><time>2014-10-15T22:19:9Z</time></trkpt>
<trkpt lat="46.2269744873046875" lon="7.9021310806274414"><ele></ele><time>2014-10-15T22:19:12Z</time></trkpt>
<trkpt lat="46.2270050048828125" lon="7.9021735191345215"><ele></ele><time>2014-10-15T22:19:15Z</time></trkpt>
<trkpt lat="46.2270278930664062" lon="7.9022073745727539"><ele></ele><time>2014-10-15T22:19:18Z</time></trkpt>
<trkpt lat="46.2270774841308594" lon="7.9022679328918457"><ele></ele><time>2014-10-15T22:19:21Z</time></trkpt>
<trkpt lat="46.2271080017089844" lon="7.9022884368896484"><ele></ele><time>2014-10-15T22:19:24Z</time></trkpt>
<trkpt lat="46.2271385192871094" lon="7.9023022651672363"><ele></ele><time>2014-10-15T22:19:27Z</time></trkpt>
<trkpt lat="46.2271804809570312" lon="7.9023146629333496"><ele></ele><time>2014-10-15T22:19:30Z</time></trkpt>
<trkpt lat="46.2272682189941406" lon="7.9023351669311523"><ele></ele><time>2014-10-15T22:19:33Z</time></trkpt>
<trkpt lat="46.2272949218750000" lon="7.9023637771606445"><ele></ele><time>2014-10-15T22:19:36Z</time></trkpt>
<trkpt lat="46.2273139953613281" lon="7.9023919105529785"><ele></ele><time>2014-10-15T22:19:39Z</time></trkpt>
<trkpt lat="46.2273674011230469" lon="7.9024209976196289"><ele></ele><time>2014-10-15T22:19:42Z</time></trkpt>
<trkpt lat="46.2274055480957031" lon="7.9024262428283691"><ele></ele><time>2014-10-15T22:19:45Z</time></trkpt>
<trkpt lat="46.2274665832519531" lon="7.9024386405944824"><ele></ele><time>2014-10-15T22:19:48Z</time></trkpt>
<trkpt lat="46.2275352478027344" lon="7.9024553298950195"><ele></ele><time>2014-10-15T22:19:51Z</time></trkpt>
<trkpt lat="46.2276115417480469" lon="7.9024639129638672"><ele></ele><time>2014-10-15T22:19:54Z</time></trkpt>
<trkpt lat="46.2276802062988281" lon="7.9023990631103516"><ele></ele><time>2014-10-15T22:19:57Z</time></trkpt>
<trkpt lat="46.2277832031250000" lon="7.9022293090820312"><ele></ele><time>2014-10-15T22:20:0Z</time></trkpt>
<trkpt lat="46.2279243469238281" lon="7.9021797180175781"><ele></ele><time>2014-10-15T22:20:3Z</time></trkpt>
<trkpt lat="46.2280197143554688" lon="7.9021697044372559"><ele></ele><time>2014-10-15T22:20:6Z</time></trkpt>
<trkpt lat="46.2280921936035156" lon="7.9021735191345215"><ele></ele><time>2014-10-15T22:20:9Z</time></trkpt>
<trkpt lat="46.2281494140625000" lon="7.9021716117858887"><ele></ele><time>2014-10-15T22:20:12Z</time></trkpt>
<trkpt lat="46.2282142639160156" lon="7.9022021293640137"><ele></ele><time>2014-10-15T22:20:15Z</time></trkpt>
<trkpt lat="46.2282676696777344" lon="7.9022221565246582"><ele></ele><time>2014-10-15T22:20:18Z</time></trkpt>
<trkpt lat="46.2283058166503906" lon="7.9022407531738281"><ele></ele><time>2014-10-15T22:20:21Z</time></trkpt>
<trkpt lat="46.2283477783203125" lon="7.9022688865661621"><ele></ele><time>2014-10-15T22:20:24Z</time></trkpt>
<trkpt lat="46.2283897399902344" lon="7.9023103713989258"><ele></ele><time>2014-10-15T22:20:27Z</time></trkpt>
<trkpt lat="46.2284164428710938" lon="7.9023342132568359"><ele></ele><time>2014-10-15T22:20:30Z</time></trkpt>
<trkpt lat="46.2284622192382812" lon="7.9023590087890625"><ele></ele><time>2014-10-15T22:20:33Z</time></trkpt>
<trkpt lat="46.2284965515136719" lon="7.9023642539978027"><ele></ele><time>2014-10-15T22:20:36Z</time></trkpt>
<trkpt lat="46.2285461425781250" lon="7.9023675918579102"><ele></ele><time>2014-10-15T22:20:39Z</time></trkpt>
<trkpt lat="46.2285995483398438" lon="7.9023780822753906"><ele></ele><time>2014-10-15T22:20:42Z</time></trkpt>
<trkpt lat="46.2286338806152344" lon="7.9024276733398438"><ele></ele><time>2014-10-15T22:20:45Z</time></trkpt>
<trkpt lat="46.2286720275878906" lon="7.9024853706359863"><ele></ele><time>2014-10-15T22:20:48Z</time></trkpt>
<trkpt lat="46.2287025451660156" lon="7.9025130271911621"><ele></ele><time>2014-10-15T22:20:51Z</time></trkpt>
<trkpt lat="46.2287406921386719" lon="7.9025363922119141"><ele></ele><time>2014-10-15T22:20:54Z</time></trkpt>
<trkpt lat="46.2288017272949219" lon="7.9025654792785645"><ele></ele><time>2014-10-15T22:20:57Z</time></trkpt>
<trkpt lat="46.2288665771484375" lon="7.9025950431823730"><ele></ele><time>2014-10-15T22:21:0Z</time></trkpt>
<trkpt lat="46.2289009094238281" lon="7.9026274681091309"><ele></ele><time>2014-10-15T22:21:3Z</time></trkpt>
<trkpt lat="46.2289581298828125" lon="7.9026613235473633"><ele></ele><time>2014-10-15T22:21:6Z</time></trkpt>
<trkpt lat="46.2289848327636719" lon="7.9026794433593750"><ele></ele><time>2014-10-15T22:21:9Z</time></trkpt>
<trkpt lat="46.2290267944335938" lon="7.9027128219604492"><ele></ele><time>2014-10-15T22:21:12Z</time></trkpt>
<trkpt lat="46.2290534973144531" lon="7.9027323722839355"><ele></ele><time>2014-10-15T22:21:15Z</time></trkpt>
<trkpt lat="46.2290954589843750" lon="7.9027552604675293"><ele></ele><time>2014-10-15T22:21:18Z</time></trkpt>
<trkpt lat="46.2291450500488281" lon="7.9027829170227051"><ele></ele><time>2014-10-15T22:21:21Z</time></trkpt>
<trkpt lat="46.2291793823242188" lon="7.9028034210205078"><ele></ele><time>2014-10-15T22:21:24Z</time></trkpt>
<trkpt lat="46.2292327880859375" lon="7.9028377532958984"><ele></ele><time>2014-10-15T22:21:27Z</time></trkpt>
<trkpt lat="46.2292556762695312" lon="7.9028673171997070"><ele></ele><time>2014-10-15T22:21:30Z</time></trkpt>
<trkpt lat="46.2292823791503906" lon="7.9028882980346680"><ele></ele><time>2014-10-15T22:21:33Z</time></trkpt>
<trkpt lat="46.2293357849121094" lon="7.9029164314270020"><ele></ele><time>2014-10-15T22:21:36Z</time></trkpt>
<trkpt lat="46.2293815612792969" lon="7.9029474258422852"><ele></ele><time>2014-10-15T22:21:39Z</time></trkpt>
<trkpt lat="46.2294044494628906" lon="7.9029803276062012"><ele></ele><time>2014-10-15T22:21:42Z</time></trkpt>
<trkpt lat="46.2294502258300781" lon="7.9030222892761230"><ele></ele><time>2014-10-15T22:21:45Z</time></trkpt>
<trkpt lat="46.2294883728027344" lon="7.9030709266662598"><ele></ele><time>2014-10-15T22:21:48Z</time></trkpt>
<trkpt lat="46.2295150756835938" lon="7.9031853675842285"><ele></ele><time>2014-10-15T22:21:51Z</time></trkpt>
<trkpt lat="46.2295379638671875" lon="7.9033422470092773"><ele></ele><time>2014-10-15T22:21:54Z</time></trkpt>
<trkpt lat="46.2295799255371094" lon="7.9034409523010254"><ele></ele><time>2014-10-15T22:21:57Z</time></trkpt>
<trkpt lat="46.2297096252441406" lon="7.9036240577697754"><ele></ele><time>2014-10-15T22:22:0Z</time></trkpt>
<trkpt lat="46.2297782897949219" lon="7.9037704467773438"><ele></ele><time>2014-10-15T22:22:3Z</time></trkpt>
<trkpt lat="46.2298202514648438" lon="7.9038367271423340"><ele></ele><time>2014-10-15T22:22:6Z</time></trkpt>
<trkpt lat="46.2298774719238281" lon="7.9039192199707031"><ele></ele><time>2014-10-15T22:22:9Z</time></trkpt>
<trkpt lat="46.2299041748046875" lon="7.9039731025695801"><ele></ele><time>2014-10-15T22:22:12Z</time></trkpt>
<trkpt lat="46.2299346923828125" lon="7.9040555953979492"><ele></ele><time>2014-10-15T22:22:15Z</time></trkpt>
<trkpt lat="46.2299575805664062" lon="7.9041547775268555"><ele></ele><time>2014-10-15T22:22:18Z</time></trkpt>
<trkpt lat="46.2299804687500000" lon="7.9042210578918457"><ele></ele><time>2014-10-15T22:22:21Z</time></trkpt>
<trkpt lat="46.2300224304199219" lon="7.9043111801147461"><ele></ele><time>2014-10-15T22:22:24Z</time></trkpt>
<trkpt lat="46.2300491333007812" lon="7.9043707847595215"><ele></ele><time>2014-10-15T22:22:27Z</time></trkpt>
<trkpt lat="46.2300796508789062" lon="7.9044260978698730"><ele></ele><time>2014-10-15T22:22:30Z</time></trkpt>
<trkpt lat="46.2301101684570312" lon="7.9045042991638184"><ele></ele><time>2014-10-15T22:22:33Z</time></trkpt>
<trkpt lat="46.2301254272460938" lon="7.9045701026916504"><ele></ele><time>2014-10-15T22:22:36Z</time></trkpt>
<trkpt lat="46.2301406860351562" lon="7.9046058654785156"><ele></ele><time>2014-10-15T22:22:39Z</time></trkpt>
<trkpt lat="46.2301559448242188" lon="7.9046387672424316"><ele></ele><time>2014-10-15T22:22:42Z</time></trkpt>
<trkpt lat="46.2301826477050781" lon="7.9046859741210938"><ele></ele><time>2014-10-15T22:22:45Z</time></trkpt>
<trkpt lat="46.2301979064941406" lon="7.9047179222106934"><ele></ele><time>2014-10-15T22:22:48Z</time></trkpt>
<trkpt lat="46.2302169799804688" lon="7.9047622680664062"><ele></ele><time>2014-10-15T22:22:51Z</time></trkpt>
<trkpt lat="46.2302398681640625" lon="7.9047889709472656"><ele></ele><time>2014-10-15T22:22:54Z</time></trkpt>
<trkpt lat="46.2302703857421875" lon="7.9048099517822266"><ele></ele><time>2014-10-15T22:22:57Z</time></trkpt>
<trkpt lat="46.2303009033203125" lon="7.9048271179199219"><ele></ele><time>2014-10-15T22:23:0Z</time></trkpt>
<trkpt lat="46.2303504943847656" lon="7.9048571586608887"><ele></ele><time>2014-10-15T22:23:3Z</time></trkpt>
<trkpt lat="46.2303924560546875" lon="7.9049048423767090"><ele></ele><time>2014-10-15T22:23:6Z</time></trkpt>
<trkpt lat="46.2304191589355469" lon="7.9049401283264160"><ele></ele><time>2014-10-15T22:23:9Z</time></trkpt>
<trkpt lat="46.2304496765136719" lon="7.9049763679504395"><ele></ele><time>2014-10-15T22:23:12Z</time></trkpt>
<trkpt lat="46.2304801940917969" lon="7.9050025939941406"><ele></ele><time>2014-10-15T22:23:15Z</time></trkpt>
<trkpt lat="46.2305107116699219" lon="7.9050197601318359"><ele></ele><time>2014-10-15T22:23:18Z</time></trkpt>
<trkpt lat="46.2305412292480469" lon="7.9050326347351074"><ele></ele><time>2014-10-15T22:23:21Z</time></trkpt>
<trkpt lat="46.2305946350097656" lon="7.9050450325012207"><ele></ele><time>2014-10-15T22:23:24Z</time></trkpt>
<trkpt lat="46.2306289672851562" lon="7.9050545692443848"><ele></ele><time>2014-10-15T22:23:27Z</time></trkpt>
<trkpt lat="46.2306594848632812" lon="7.9050807952880859"><ele></ele><time>2014-10-15T22:23:30Z</time></trkpt>
<trkpt lat="46.2307090759277344" lon="7.9051241874694824"><ele></ele><time>2014-10-15T22:23:33Z</time></trkpt>
<trkpt lat="46.2307357788085938" lon="7.9051580429077148"><ele></ele><time>2014-10-15T22:23:36Z</time></trkpt>
<trkpt lat="46.2307624816894531" lon="7.9051980972290039"><ele></ele><time>2014-10-15T22:23:39Z</time></trkpt>
<trkpt lat="46.2307929992675781" lon="7.9052362442016602"><ele></ele><time>2014-10-15T22:23:42Z</time></trkpt>
<trkpt lat="46.2308387756347656" lon="7.9052782058715820"><ele></ele><time>2014-10-15T22:23:45Z</time></trkpt>
<trkpt lat="46.2308692932128906" lon="7.9052925109863281"><ele></ele><time>2014-10-15T22:23:48Z</time></trkpt>
<trkpt lat="46.2309188842773438" lon="7.9052982330322266"><ele></ele><time>2014-10-15T22:23:51Z</time></trkpt>
<trkpt lat="46.2309532165527344" lon="7.9052929878234863"><ele></ele><time>2014-10-15T22:23:54Z</time></trkpt>
<trkpt lat="46.2310028076171875" lon="7.9053139686584473"><ele></ele><time>2014-10-15T22:23:57Z</time></trkpt>
<trkpt lat="46.2310333251953125" lon="7.9053378105163574"><ele></ele><time>2014-10-15T22:24:0Z</time></trkpt>
<trkpt lat="46.2310791015625000" lon="7.9053630828857422"><ele></ele><time>2014-10-15T22:24:3Z</time></trkpt>
<trkpt lat="46.2311134338378906" lon="7.9053840637207031"><ele></ele><time>2014-10-15T22:24:6Z</time></trkpt>
<trkpt lat="46.2311668395996094" lon="7.9054074287414551"><ele></ele><time>2014-10-15T22:24:9Z</time></trkpt>
<trkpt lat="46.2311935424804688" lon="7.9054346084594727"><ele></ele><time>2014-10-15T22:24:12Z</time></trkpt>
<trkpt lat="46.2312202453613281" lon="7.9054980278015137"><ele></ele><time>2014-10-15T22:24:15Z</time></trkpt>
<trkpt lat="46.2312049865722656" lon="7.9055528640747070"><ele></ele><time>2014-10-15T22:24:18Z</time></trkpt>
<trkpt lat="46.2311782836914062" lon="7.9055838584899902"><ele></ele><time>2014-10-15T22:24:21Z</time></trkpt>
<trkpt lat="46.2311248779296875" lon="7.9055953025817871"><ele></ele><time>2014-10-15T22:24:24Z</time></trkpt>
<trkpt lat="46.2310791015625000" lon="7.9056091308593750"><ele></ele><time>2014-10-15T22:24:27Z</time></trkpt>
<trkpt lat="46.2310600280761719" lon="7.9056172370910645"><ele></ele><time>2014-10-15T22:24:30Z</time></trkpt>
<trkpt lat="46.2310371398925781" lon="7.9056277275085449"><ele></ele><time>2014-10-15T22:24:33Z</time></trkpt>
<trkpt lat="46.2310028076171875" lon="7.9056386947631836"><ele></ele><time>2014-10-15T22:24:36Z</time></trkpt>
<trkpt lat="46.2309722900390625" lon="7.9056425094604492"><ele></ele><time>2014-10-15T22:24:39Z</time></trkpt>
<trkpt lat="46.2309303283691406" lon="7.9056563377380371"><ele></ele><time>2014-10-15T22:24:42Z</time></trkpt>
<trkpt lat="46.2309036254882812" lon="7.9056582450866699"><ele></ele><time>2014-10-15T22:24:45Z</time></trkpt>
<trkpt lat="46.2308540344238281" lon="7.9056706428527832"><ele></ele><time>2014-10-15T22:24:48Z</time></trkpt>
<trkpt lat="46.2307929992675781" lon="7.9056773185729980"><ele></ele><time>2014-10-15T22:24:51Z</time></trkpt>
<trkpt lat="46.2307167053222656" lon="7.9056715965270996"><ele></ele><time>2014-10-15T22:24:54Z</time></trkpt>
<trkpt lat="46.2306785583496094" lon="7.9056553840637207"><ele></ele><time>2014-10-15T22:24:57Z</time></trkpt>
<trkpt lat="46.2306327819824219" lon="7.9056410789489746"><ele></ele><time>2014-10-15T22:25:0Z</time></trkpt>
<trkpt lat="46.2305831909179688" lon="7.9056406021118164"><ele></ele><time>2014-10-15T22:25:3Z</time></trkpt>
<trkpt lat="46.2305259704589844" lon="7.9056496620178223"><ele></ele><time>2014-10-15T22:25:6Z</time></trkpt>
<trkpt lat="46.2304687500000000" lon="7.9056434631347656"><ele></ele><time>2014-10-15T22:25:9Z</time></trkpt>
<trkpt lat="46.2304153442382812" lon="7.9056396484375000"><ele></ele><time>2014-10-15T22:25:12Z</time></trkpt>
<trkpt lat="46.2303886413574219" lon="7.9056482315063477"><ele></ele><time>2014-10-15T22:25:15Z</time></trkpt>
<trkpt lat="46.2303466796875000" lon="7.9056277275085449"><ele></ele><time>2014-10-15T22:25:18Z</time></trkpt>
<trkpt lat="46.2303085327148438" lon="7.9056043624877930"><ele></ele><time>2014-10-15T22:25:21Z</time></trkpt>
<trkpt lat="46.2302551269531250" lon="7.9055833816528320"><ele></ele><time>2014-10-15T22:25:24Z</time></trkpt>
<trkpt lat="46.2302169799804688" lon="7.9055685997009277"><ele></ele><time>2014-10-15T22:25:27Z</time></trkpt>
<trkpt lat="46.2301788330078125" lon="7.9055209159851074"><ele></ele><time>2014-10-15T22:25:30Z</time></trkpt>
<trkpt lat="46.2301292419433594" lon="7.9054865837097168"><ele></ele><time>2014-10-15T22:25:33Z</time></trkpt>
<trkpt lat="46.2300910949707031" lon="7.9054670333862305"><ele></ele><time>2014-10-15T22:25:36Z</time></trkpt>
<trkpt lat="46.2300491333007812" lon="7.9054164886474609"><ele></ele><time>2014-10-15T22:25:39Z</time></trkpt>
<trkpt lat="46.2300262451171875" lon="7.9053759574890137"><ele></ele><time>2014-10-15T22:25:42Z</time></trkpt>
<trkpt lat="46.2299880981445312" lon="7.9053192138671875"><ele></ele><time>2014-10-15T22:25:45Z</time></trkpt>
<trkpt lat="46.2299423217773438" lon="7.9052715301513672"><ele></ele><time>2014-10-15T22:25:48Z</time></trkpt>
<trkpt lat="46.2299118041992188" lon="7.9052414894104004"><ele></ele><time>2014-10-15T22:25:51Z</time></trkpt>
<trkpt lat="46.2298545837402344" lon="7.9052095413208008"><ele></ele><time>2014-10-15T22:25:54Z</time></trkpt>
<trkpt lat="46.2298126220703125" lon="7.9051637649536133"><ele></ele><time>2014-10-15T22:25:57Z</time></trkpt>
<trkpt lat="46.2297821044921875" lon="7.9051342010498047"><ele></ele><time>2014-10-15T22:26:0Z</time></trkpt>
<trkpt lat="46.2297325134277344" lon="7.9050955772399902"><ele></ele><time>2014-10-15T22:26:3Z</time></trkpt>
<trkpt lat="46.2296943664550781" lon="7.9050745964050293"><ele></ele><time>2014-10-15T22:26:6Z</time></trkpt>
<trkpt lat="46.2296638488769531" lon="7.9050507545471191"><ele></ele><time>2014-10-15T22:26:9Z</time></trkpt>
<trkpt lat="46.2296180725097656" lon="7.9050183296203613"><ele></ele><time>2014-10-15T22:26:12Z</time></trkpt>
<trkpt lat="46.2295913696289062" lon="7.9050006866455078"><ele></ele><time>2014-10-15T22:26:15Z</time></trkpt>
<trkpt lat="46.2295532226562500" lon="7.9049749374389648"><ele></ele><time>2014-10-15T22:26:18Z</time></trkpt>
<trkpt lat="46.2295150756835938" lon="7.9049506187438965"><ele></ele><time>2014-10-15T22:26:21Z</time></trkpt>
<trkpt lat="46.2294921875000000" lon="7.9049305915832520"><ele></ele><time>2014-10-15T22:26:24Z</time></trkpt>
<trkpt lat="46.2294540405273438" lon="7.9049119949340820"><ele></ele><time>2014-10-15T22:26:27Z</time></trkpt>
<trkpt lat="46.2294158935546875" lon="7.9048895835876465"><ele></ele><time>2014-10-15T22:26:30Z</time></trkpt>
<trkpt lat="46.2293815612792969" lon="7.9048557281494141"><ele></ele><time>2014-10-15T22:26:33Z</time></trkpt>
<trkpt lat="46.2293548583984375" lon="7.9048333168029785"><ele></ele><time>2014-10-15T22:26:36Z</time></trkpt>
<trkpt lat="46.2293128967285156" lon="7.9048032760620117"><ele></ele><time>2014-10-15T22:26:39Z</time></trkpt>
<trkpt lat="46.2292785644531250" lon="7.9047679901123047"><ele></ele><time>2014-10-15T22:26:42Z</time></trkpt>
<trkpt lat="46.2292518615722656" lon="7.9047522544860840"><ele></ele><time>2014-10-15T22:26:45Z</time></trkpt>
<trkpt lat="46.2292251586914062" lon="7.9047369956970215"><ele></ele><time>2014-10-15T22:26:48Z</time></trkpt>
<trkpt lat="46.2291755676269531" lon="7.9047451019287109"><ele></ele><time>2014-10-15T22:26:51Z</time></trkpt>
<trkpt lat="46.2291297912597656" lon="7.9047718048095703"><ele></ele><time>2014-10-15T22:26:54Z</time></trkpt>
<trkpt lat="46.2291145324707031" lon="7.9048032760620117"><ele></ele><time>2014-10-15T22:26:57Z</time></trkpt>
<trkpt lat="46.2291526794433594" lon="7.9048457145690918"><ele></ele><time>2014-10-15T22:27:0Z</time></trkpt>
<trkpt lat="46.2292175292968750" lon="7.9048643112182617"><ele></ele><time>2014-10-15T22:27:3Z</time></trkpt>
<trkpt lat="46.2292709350585938" lon="7.9048857688903809"><ele></ele><time>2014-10-15T22:27:6Z</time></trkpt>
<trkpt lat="46.2293434143066406" lon="7.9049444198608398"><ele></ele><time>2014-10-15T22:27:9Z</time></trkpt>
<trkpt lat="46.2293891906738281" lon="7.9049983024597168"><ele></ele><time>2014-10-15T22:27:12Z</time></trkpt>
<trkpt lat="46.2294349670410156" lon="7.9050650596618652"><ele></ele><time>2014-10-15T22:27:15Z</time></trkpt>
<trkpt lat="46.2295112609863281" lon="7.9051771163940430"><ele></ele><time>2014-10-15T22:27:18Z</time></trkpt>
<trkpt lat="46.2296066284179688" lon="7.9053130149841309"><ele></ele><time>2014-10-15T22:27:21Z</time></trkpt>
<trkpt lat="46.2296676635742188" lon="7.9054212570190430"><ele></ele><time>2014-10-15T22:27:24Z</time></trkpt>
<trkpt lat="46.2297286987304688" lon="7.9055409431457520"><ele></ele><time>2014-10-15T22:27:27Z</time></trkpt>
<trkpt lat="46.2298240661621094" lon="7.9056954383850098"><ele></ele><time>2014-10-15T22:27:30Z</time></trkpt>
<trkpt lat="46.2298812866210938" lon="7.9057879447937012"><ele></ele><time>2014-10-15T22:27:33Z</time></trkpt>
<trkpt lat="46.2299804687500000" lon="7.9059243202209473"><ele></ele><time>2014-10-15T22:27:36Z</time></trkpt>
<trkpt lat="46.2300529479980469" lon="7.9059858322143555"><ele></ele><time>2014-10-15T22:27:39Z</time></trkpt>
<trkpt lat="46.2301406860351562" lon="7.9060635566711426"><ele></ele><time>2014-10-15T22:27:42Z</time></trkpt>
<trkpt lat="46.2301788330078125" lon="7.9061403274536133"><ele></ele><time>2014-10-15T22:27:45Z</time></trkpt>
<trkpt lat="46.2302284240722656" lon="7.9062585830688477"><ele></ele><time>2014-10-15T22:27:48Z</time></trkpt>
<trkpt lat="46.2302856445312500" lon="7.9063510894775391"><ele></ele><time>2014-10-15T22:27:51Z</time></trkpt>
<trkpt lat="46.2303276062011719" lon="7.9064421653747559"><ele></ele><time>2014-10-15T22:27:54Z</time></trkpt>
<trkpt lat="46.2303504943847656" lon="7.9065127372741699"><ele></ele><time>2014-10-15T22:27:57Z</time></trkpt>
<trkpt lat="46.2303810119628906" lon="7.9066262245178223"><ele></ele><time>2014-10-15T22:28:0Z</time></trkpt>
<trkpt lat="46.2303810119628906" lon="7.9066953659057617"><ele></ele><time>2014-10-15T22:28:3Z</time></trkpt>
<trkpt lat="46.2303924560546875" lon="7.9068560600280762"><ele></ele><time>2014-10-15T22:28:6Z</time></trkpt>
<trkpt lat="46.2303886413574219" lon="7.9069967269897461"><ele></ele><time>2014-10-15T22:28:9Z</time></trkpt>
<trkpt lat="46.2303428649902344" lon="7.9071173667907715"><ele></ele><time>2014-10-15T22:28:12Z</time></trkpt>
<trkpt lat="46.2302627563476562" lon="7.9072713851928711"><ele></ele><time>2014-10-15T22:28:15Z</time></trkpt>
<trkpt lat="46.2302017211914062" lon="7.9073596000671387"><ele></ele><time>2014-10-15T22:28:18Z</time></trkpt>
<trkpt lat="46.2301368713378906" lon="7.9074406623840332"><ele></ele><time>2014-10-15T22:28:21Z</time></trkpt>
<trkpt lat="46.2300300598144531" lon="7.9075851440429688"><ele></ele><time>2014-10-15T22:28:24Z</time></trkpt>
<trkpt lat="46.2299804687500000" lon="7.9077138900756836"><ele></ele><time>2014-10-15T22:28:27Z</time></trkpt>
<trkpt lat="46.2299194335937500" lon="7.9079198837280273"><ele></ele><time>2014-10-15T22:28:30Z</time></trkpt>
<trkpt lat="46.2298355102539062" lon="7.9080090522766113"><ele></ele><time>2014-10-15T22:28:33Z</time></trkpt>
<trkpt lat="46.2297286987304688" lon="7.9081606864929199"><ele></ele><time>2014-10-15T22:28:36Z</time></trkpt>
<trkpt lat="46.2296638488769531" lon="7.9083547592163086"><ele></ele><time>2014-10-15T22:28:39Z</time></trkpt>
<trkpt lat="46.2295989990234375" lon="7.9085597991943359"><ele></ele><time>2014-10-15T22:28:42Z</time></trkpt>
<trkpt lat="46.2295112609863281" lon="7.9087510108947754"><ele></ele><time>2014-10-15T22:28:45Z</time></trkpt>
<trkpt lat="46.2294464111328125" lon="7.9088611602783203"><ele></ele><time>2014-10-15T22:28:48Z</time></trkpt>
<trkpt lat="46.2293510437011719" lon="7.9090380668640137"><ele></ele><time>2014-10-15T22:28:51Z</time></trkpt>
<trkpt lat="46.2293090820312500" lon="7.9091763496398926"><ele></ele><time>2014-10-15T22:28:54Z</time></trkpt>
<trkpt lat="46.2292327880859375" lon="7.9093599319458008"><ele></ele><time>2014-10-15T22:28:57Z</time></trkpt>
<trkpt lat="46.2291831970214844" lon="7.9094777107238770"><ele></ele><time>2014-10-15T22:29:0Z</time></trkpt>
<trkpt lat="46.2291297912597656" lon="7.9096970558166504"><ele></ele><time>2014-10-15T22:29:3Z</time></trkpt>
<trkpt lat="46.2290916442871094" lon="7.9099311828613281"><ele></ele><time>2014-10-15T22:29:6Z</time></trkpt>
<trkpt lat="46.2290458679199219" lon="7.9101505279541016"><ele></ele><time>2014-10-15T22:29:9Z</time></trkpt>
<trkpt lat="46.2289886474609375" lon="7.9103741645812988"><ele></ele><time>2014-10-15T22:29:12Z</time></trkpt>
<trkpt lat="46.2289161682128906" lon="7.9106035232543945"><ele></ele><time>2014-10-15T22:29:15Z</time></trkpt>
<trkpt lat="46.2288818359375000" lon="7.9108252525329590"><ele></ele><time>2014-10-15T22:29:18Z</time></trkpt>
<trkpt lat="46.2288932800292969" lon="7.9109697341918945"><ele></ele><time>2014-10-15T22:29:21Z</time></trkpt>
<trkpt lat="46.2289123535156250" lon="7.9111084938049316"><ele></ele><time>2014-10-15T22:29:24Z</time></trkpt>
<trkpt lat="46.2289276123046875" lon="7.9113321304321289"><ele></ele><time>2014-10-15T22:29:27Z</time></trkpt>
<trkpt lat="46.2289085388183594" lon="7.9115562438964844"><ele></ele><time>2014-10-15T22:29:30Z</time></trkpt>
<trkpt lat="46.2288589477539062" lon="7.9116859436035156"><ele></ele><time>2014-10-15T22:29:33Z</time></trkpt>
<trkpt lat="46.2287712097167969" lon="7.9118757247924805"><ele></ele><time>2014-10-15T22:29:36Z</time></trkpt>
<trkpt lat="46.2286949157714844" lon="7.9119858741760254"><ele></ele><time>2014-10-15T22:29:39Z</time></trkpt>
<trkpt lat="46.2286109924316406" lon="7.9121780395507812"><ele></ele><time>2014-10-15T22:29:42Z</time></trkpt>
<trkpt lat="46.2285614013671875" lon="7.9124045372009277"><ele></ele><time>2014-10-15T22:29:45Z</time></trkpt>
<trkpt lat="46.2285308837890625" lon="7.9125604629516602"><ele></ele><time>2014-10-15T22:29:48Z</time></trkpt>
<trkpt lat="46.2284698486328125" lon="7.9127802848815918"><ele></ele><time>2014-10-15T22:29:51Z</time></trkpt>
<trkpt lat="46.2284317016601562" lon="7.9128928184509277"><ele></ele><time>2014-10-15T22:29:54Z</time></trkpt>
<trkpt lat="46.2284202575683594" lon="7.9129676818847656"><ele></ele><time>2014-10-15T22:29:57Z</time></trkpt>
<trkpt lat="46.2284317016601562" lon="7.9130120277404785"><ele></ele><time>2014-10-15T22:30:0Z</time></trkpt>
<trkpt lat="46.2284507751464844" lon="7.9130835533142090"><ele></ele><time>2014-10-15T22:30:3Z</time></trkpt>
<trkpt lat="46.2284622192382812" lon="7.9131355285644531"><ele></ele><time>2014-10-15T22:30:6Z</time></trkpt>
<trkpt lat="46.2284736633300781" lon="7.9132151603698730"><ele></ele><time>2014-10-15T22:30:9Z</time></trkpt>
<trkpt lat="46.2284736633300781" lon="7.9132666587829590"><ele></ele><time>2014-10-15T22:30:12Z</time></trkpt>
<trkpt lat="46.2284736633300781" lon="7.9133148193359375"><ele></ele><time>2014-10-15T22:30:15Z</time></trkpt>
<trkpt lat="46.2284660339355469" lon="7.9133796691894531"><ele></ele><time>2014-10-15T22:30:18Z</time></trkpt>
<trkpt lat="46.2284469604492188" lon="7.9134449958801270"><ele></ele><time>2014-10-15T22:30:21Z</time></trkpt>
<trkpt lat="46.2284317016601562" lon="7.9134926795959473"><ele></ele><time>2014-10-15T22:30:24Z</time></trkpt>
<trkpt lat="46.2284049987792969" lon="7.9135560989379883"><ele></ele><time>2014-10-15T22:30:27Z</time></trkpt>
<trkpt lat="46.2283973693847656" lon="7.9136228561401367"><ele></ele><time>2014-10-15T22:30:30Z</time></trkpt>
<trkpt lat="46.2283935546875000" lon="7.9136939048767090"><ele></ele><time>2014-10-15T22:30:33Z</time></trkpt>
<trkpt lat="46.2284049987792969" lon="7.9137620925903320"><ele></ele><time>2014-10-15T22:30:36Z</time></trkpt>
<trkpt lat="46.2284240722656250" lon="7.9138851165771484"><ele></ele><time>2014-10-15T22:30:39Z</time></trkpt>
<trkpt lat="46.2284317016601562" lon="7.9140052795410156"><ele></ele><time>2014-10-15T22:30:42Z</time></trkpt>
<trkpt lat="46.2284469604492188" lon="7.9140763282775879"><ele></ele><time>2014-10-15T22:30:45Z</time></trkpt>
<trkpt lat="46.2284698486328125" lon="7.9141454696655273"><ele></ele><time>2014-10-15T22:30:48Z</time></trkpt>
<trkpt lat="46.2285041809082031" lon="7.9142398834228516"><ele></ele><time>2014-10-15T22:30:51Z</time></trkpt>
<trkpt lat="46.2285194396972656" lon="7.9143033027648926"><ele></ele><time>2014-10-15T22:30:54Z</time></trkpt>
<trkpt lat="46.2285232543945312" lon="7.9143733978271484"><ele></ele><time>2014-10-15T22:30:57Z</time></trkpt>
<trkpt lat="46.2285194396972656" lon="7.9144577980041504"><ele></ele><time>2014-10-15T22:31:0Z</time></trkpt>
<trkpt lat="46.2285118103027344" lon="7.9145236015319824"><ele></ele><time>2014-10-15T22:31:3Z</time></trkpt>
<trkpt lat="46.2284965515136719" lon="7.9145727157592773"><ele></ele><time>2014-10-15T22:31:6Z</time></trkpt>
<trkpt lat="46.2284812927246094" lon="7.9146399497985840"><ele></ele><time>2014-10-15T22:31:9Z</time></trkpt>
<trkpt lat="46.2284622192382812" lon="7.9146976470947266"><ele></ele><time>2014-10-15T22:31:12Z</time></trkpt>
<trkpt lat="46.2284584045410156" lon="7.9147467613220215"><ele></ele><time>2014-10-15T22:31:15Z</time></trkpt>
<trkpt lat="46.2284584045410156" lon="7.9148025512695312"><ele></ele><time>2014-10-15T22:31:18Z</time></trkpt>
<trkpt lat="46.2284545898437500" lon="7.9148931503295898"><ele></ele><time>2014-10-15T22:31:21Z</time></trkpt>
<trkpt lat="46.2284469604492188" lon="7.9149570465087891"><ele></ele><time>2014-10-15T22:31:24Z</time></trkpt>
<trkpt lat="46.2284355163574219" lon="7.9150452613830566"><ele></ele><time>2014-10-15T22:31:27Z</time></trkpt>
<trkpt lat="46.2284317016601562" lon="7.9151220321655273"><ele></ele><time>2014-10-15T22:31:30Z</time></trkpt>
<trkpt lat="46.2284126281738281" lon="7.9151911735534668"><ele></ele><time>2014-10-15T22:31:33Z</time></trkpt>
<trkpt lat="46.2283935546875000" lon="7.9152345657348633"><ele></ele><time>2014-10-15T22:31:36Z</time></trkpt>
<trkpt lat="46.2283668518066406" lon="7.9153027534484863"><ele></ele><time>2014-10-15T22:31:39Z</time></trkpt>
<trkpt lat="46.2283477783203125" lon="7.9153466224670410"><ele></ele><time>2014-10-15T22:31:42Z</time></trkpt>
<trkpt lat="46.2283363342285156" lon="7.9153923988342285"><ele></ele><time>2014-10-15T22:31:45Z</time></trkpt>
<trkpt lat="46.2283096313476562" lon="7.9154572486877441"><ele></ele><time>2014-10-15T22:31:48Z</time></trkpt>
<trkpt lat="46.2282943725585938" lon="7.9155178070068359"><ele></ele><time>2014-10-15T22:31:51Z</time></trkpt>
<trkpt lat="46.2282867431640625" lon="7.9155817031860352"><ele></ele><time>2014-10-15T22:31:54Z</time></trkpt>
<trkpt lat="46.2282752990722656" lon="7.9156274795532227"><ele></ele><time>2014-10-15T22:31:57Z</time></trkpt>
<trkpt lat="46.2282638549804688" lon="7.9156947135925293"><ele></ele><time>2014-10-15T22:32:0Z</time></trkpt>
<trkpt lat="46.2282600402832031" lon="7.9157700538635254"><ele></ele><time>2014-10-15T22:32:3Z</time></trkpt>
<trkpt lat="46.2282485961914062" lon="7.9158239364624023"><ele></ele><time>2014-10-15T22:32:6Z</time></trkpt>
<trkpt lat="46.2282295227050781" lon="7.9158949851989746"><ele></ele><time>2014-10-15T22:32:9Z</time></trkpt>
<trkpt lat="46.2281875610351562" lon="7.9159979820251465"><ele></ele><time>2014-10-15T22:32:12Z</time></trkpt>
<trkpt lat="46.2281608581542969" lon="7.9160728454589844"><ele></ele><time>2014-10-15T22:32:15Z</time></trkpt>
<trkpt lat="46.2281112670898438" lon="7.9162006378173828"><ele></ele><time>2014-10-15T22:32:18Z</time></trkpt>
<trkpt lat="46.2280807495117188" lon="7.9163212776184082"><ele></ele><time>2014-10-15T22:32:21Z</time></trkpt>
<trkpt lat="46.2280654907226562" lon="7.9163975715637207"><ele></ele><time>2014-10-15T22:32:24Z</time></trkpt>
<trkpt lat="46.2280311584472656" lon="7.9165019989013672"><ele></ele><time>2014-10-15T22:32:27Z</time></trkpt>
<trkpt lat="46.2280044555664062" lon="7.9165687561035156"><ele></ele><time>2014-10-15T22:32:30Z</time></trkpt>
<trkpt lat="46.2279853820800781" lon="7.9166216850280762"><ele></ele><time>2014-10-15T22:32:33Z</time></trkpt>
<trkpt lat="46.2279586791992188" lon="7.9166636466979980"><ele></ele><time>2014-10-15T22:32:36Z</time></trkpt>
<trkpt lat="46.2279319763183594" lon="7.9166965484619141"><ele></ele><time>2014-10-15T22:32:39Z</time></trkpt>
<trkpt lat="46.2279052734375000" lon="7.9167346954345703"><ele></ele><time>2014-10-15T22:32:42Z</time></trkpt>
<trkpt lat="46.2278671264648438" lon="7.9167966842651367"><ele></ele><time>2014-10-15T22:32:45Z</time></trkpt>
<trkpt lat="46.2278442382812500" lon="7.9168334007263184"><ele></ele><time>2014-10-15T22:32:48Z</time></trkpt>
<trkpt lat="46.2278099060058594" lon="7.9168810844421387"><ele></ele><time>2014-10-15T22:32:51Z</time></trkpt>
<trkpt lat="46.2277984619140625" lon="7.9169454574584961"><ele></ele><time>2014-10-15T22:32:54Z</time></trkpt>
<trkpt lat="46.2277870178222656" lon="7.9169836044311523"><ele></ele><time>2014-10-15T22:32:57Z</time></trkpt>
<trkpt lat="46.2277641296386719" lon="7.9170331954956055"><ele></ele><time>2014-10-15T22:33:0Z</time></trkpt>
<trkpt lat="46.2277488708496094" lon="7.9170646667480469"><ele></ele><time>2014-10-15T22:33:3Z</time></trkpt>
<trkpt lat="46.2277374267578125" lon="7.9171228408813477"><ele></ele><time>2014-10-15T22:33:6Z</time></trkpt>
<trkpt lat="46.2277259826660156" lon="7.9171609878540039"><ele></ele><time>2014-10-15T22:33:9Z</time></trkpt>
<trkpt lat="46.2277030944824219" lon="7.9172077178955078"><ele></ele><time>2014-10-15T22:33:12Z</time></trkpt>
<trkpt lat="46.2276802062988281" lon="7.9172606468200684"><ele></ele><time>2014-10-15T22:33:15Z</time></trkpt>
<trkpt lat="46.2276649475097656" lon="7.9172949790954590"><ele></ele><time>2014-10-15T22:33:18Z</time></trkpt>
<trkpt lat="46.2276420593261719" lon="7.9173469543457031"><ele></ele><time>2014-10-15T22:33:21Z</time></trkpt>
<trkpt lat="46.2276191711425781" lon="7.9173960685729980"><ele></ele><time>2014-10-15T22:33:24Z</time></trkpt>
<trkpt lat="46.2276077270507812" lon="7.9174280166625977"><ele></ele><time>2014-10-15T22:33:27Z</time></trkpt>
<trkpt lat="46.2275924682617188" lon="7.9174656867980957"><ele></ele><time>2014-10-15T22:33:30Z</time></trkpt>
<trkpt lat="46.2275772094726562" lon="7.9175081253051758"><ele></ele><time>2014-10-15T22:33:33Z</time></trkpt>
<trkpt lat="46.2275733947753906" lon="7.9175429344177246"><ele></ele><time>2014-10-15T22:33:36Z</time></trkpt>
<trkpt lat="46.2275924682617188" lon="7.9175910949707031"><ele></ele><time>2014-10-15T22:33:39Z</time></trkpt>
<trkpt lat="46.2276000976562500" lon="7.9176244735717773"><ele></ele><time>2014-10-15T22:33:42Z</time></trkpt>
<trkpt lat="46.2276153564453125" lon="7.9176793098449707"><ele></ele><time>2014-10-15T22:33:45Z</time></trkpt>
<trkpt lat="46.2276229858398438" lon="7.9177331924438477"><ele></ele><time>2014-10-15T22:33:48Z</time></trkpt>
<trkpt lat="46.2276306152343750" lon="7.9177694320678711"><ele></ele><time>2014-10-15T22:33:51Z</time></trkpt>
<trkpt lat="46.2276420593261719" lon="7.9178071022033691"><ele></ele><time>2014-10-15T22:33:54Z</time></trkpt>
<trkpt lat="46.2276496887207031" lon="7.9178643226623535"><ele></ele><time>2014-10-15T22:33:57Z</time></trkpt>
<trkpt lat="46.2276687622070312" lon="7.9179172515869141"><ele></ele><time>2014-10-15T22:34:0Z</time></trkpt>
<trkpt lat="46.2276725769042969" lon="7.9179787635803223"><ele></ele><time>2014-10-15T22:34:3Z</time></trkpt>
<trkpt lat="46.2276687622070312" lon="7.9180421829223633"><ele></ele><time>2014-10-15T22:34:6Z</time></trkpt>
<trkpt lat="46.2276535034179688" lon="7.9181251525878906"><ele></ele><time>2014-10-15T22:34:9Z</time></trkpt>
<trkpt lat="46.2276496887207031" lon="7.9182338714599609"><ele></ele><time>2014-10-15T22:34:12Z</time></trkpt>
<trkpt lat="46.2276687622070312" lon="7.9183588027954102"><ele></ele><time>2014-10-15T22:34:15Z</time></trkpt>
<trkpt lat="46.2276878356933594" lon="7.9184045791625977"><ele></ele><time>2014-10-15T22:34:18Z</time></trkpt>
<trkpt lat="46.2276992797851562" lon="7.9184746742248535"><ele></ele><time>2014-10-15T22:34:21Z</time></trkpt>
<trkpt lat="46.2276992797851562" lon="7.9185175895690918"><ele></ele><time>2014-10-15T22:34:24Z</time></trkpt>
<trkpt lat="46.2276802062988281" lon="7.9185814857482910"><ele></ele><time>2014-10-15T22:34:27Z</time></trkpt>
<trkpt lat="46.2276687622070312" lon="7.9186420440673828"><ele></ele><time>2014-10-15T22:34:30Z</time></trkpt>
<trkpt lat="46.2276687622070312" lon="7.9186792373657227"><ele></ele><time>2014-10-15T22:34:33Z</time></trkpt>
<trkpt lat="46.2276687622070312" lon="7.9187388420104980"><ele></ele><time>2014-10-15T22:34:36Z</time></trkpt>
<trkpt lat="46.2276763916015625" lon="7.9187798500061035"><ele></ele><time>2014-10-15T22:34:39Z</time></trkpt>
<trkpt lat="46.2276878356933594" lon="7.9188408851623535"><ele></ele><time>2014-10-15T22:34:42Z</time></trkpt>
<trkpt lat="46.2276763916015625" lon="7.9189062118530273"><ele></ele><time>2014-10-15T22:34:45Z</time></trkpt>
<trkpt lat="46.2276878356933594" lon="7.9189453125000000"><ele></ele><time>2014-10-15T22:34:48Z</time></trkpt>
<trkpt lat="46.2276992797851562" lon="7.9189863204956055"><ele></ele><time>2014-10-15T22:34:51Z</time></trkpt>
<trkpt lat="46.2277069091796875" lon="7.9190464019775391"><ele></ele><time>2014-10-15T22:34:54Z</time></trkpt>
<trkpt lat="46.2277107238769531" lon="7.9191079139709473"><ele></ele><time>2014-10-15T22:34:57Z</time></trkpt>
<trkpt lat="46.2277030944824219" lon="7.9191780090332031"><ele></ele><time>2014-10-15T22:35:0Z</time></trkpt>
<trkpt lat="46.2276802062988281" lon="7.9192762374877930"><ele></ele><time>2014-10-15T22:35:3Z</time></trkpt>
<trkpt lat="46.2276802062988281" lon="7.9194016456604004"><ele></ele><time>2014-10-15T22:35:6Z</time></trkpt>
<trkpt lat="46.2277030944824219" lon="7.9194483757019043"><ele></ele><time>2014-10-15T22:35:9Z</time></trkpt>
<trkpt lat="46.2277526855468750" lon="7.9194593429565430"><ele></ele><time>2014-10-15T22:35:12Z</time></trkpt>
<trkpt lat="46.2277870178222656" lon="7.9194650650024414"><ele></ele><time>2014-10-15T22:35:15Z</time></trkpt>
<trkpt lat="46.2278327941894531" lon="7.9194951057434082"><ele></ele><time>2014-10-15T22:35:18Z</time></trkpt>
<trkpt lat="46.2278556823730469" lon="7.9195170402526855"><ele></ele><time>2014-10-15T22:35:21Z</time></trkpt>
<trkpt lat="46.2278938293457031" lon="7.9195356369018555"><ele></ele><time>2014-10-15T22:35:24Z</time></trkpt>
<trkpt lat="46.2279243469238281" lon="7.9195280075073242"><ele></ele><time>2014-10-15T22:35:27Z</time></trkpt>
<trkpt lat="46.2279624938964844" lon="7.9195432662963867"><ele></ele><time>2014-10-15T22:35:30Z</time></trkpt>
<trkpt lat="46.2279434204101562" lon="7.9195852279663086"><ele></ele><time>2014-10-15T22:35:33Z</time></trkpt>
<trkpt lat="46.2279014587402344" lon="7.9195866584777832"><ele></ele><time>2014-10-15T22:35:36Z</time></trkpt>
<trkpt lat="46.2278633117675781" lon="7.9196000099182129"><ele></ele><time>2014-10-15T22:35:39Z</time></trkpt>
<trkpt lat="46.2278289794921875" lon="7.9196038246154785"><ele></ele><time>2014-10-15T22:35:42Z</time></trkpt>
<trkpt lat="46.2278099060058594" lon="7.9196105003356934"><ele></ele><time>2014-10-15T22:35:45Z</time></trkpt>
<trkpt lat="46.2277870178222656" lon="7.9196228981018066"><ele></ele><time>2014-10-15T22:35:48Z</time></trkpt>
<trkpt lat="46.2277641296386719" lon="7.9196329116821289"><ele></ele><time>2014-10-15T22:35:51Z</time></trkpt>
<trkpt lat="46.2277259826660156" lon="7.9196586608886719"><ele></ele><time>2014-10-15T22:35:54Z</time></trkpt>
<trkpt lat="46.2276916503906250" lon="7.9196724891662598"><ele></ele><time>2014-10-15T22:35:57Z</time></trkpt>
<trkpt lat="46.2276458740234375" lon="7.9196958541870117"><ele></ele><time>2014-10-15T22:36:0Z</time></trkpt>
<trkpt lat="46.2276191711425781" lon="7.9197020530700684"><ele></ele><time>2014-10-15T22:36:3Z</time></trkpt>
<trkpt lat="46.2275962829589844" lon="7.9197087287902832"><ele></ele><time>2014-10-15T22:36:6Z</time></trkpt>
<trkpt lat="46.2275695800781250" lon="7.9197134971618652"><ele></ele><time>2014-10-15T22:36:9Z</time></trkpt>
<trkpt lat="46.2275466918945312" lon="7.9197297096252441"><ele></ele><time>2014-10-15T22:36:12Z</time></trkpt>
<trkpt lat="46.2275390625000000" lon="7.9197678565979004"><ele></ele><time>2014-10-15T22:36:15Z</time></trkpt>
<trkpt lat="46.2275810241699219" lon="7.9197950363159180"><ele></ele><time>2014-10-15T22:36:18Z</time></trkpt>
<trkpt lat="46.2276153564453125" lon="7.9197969436645508"><ele></ele><time>2014-10-15T22:36:21Z</time></trkpt>
<trkpt lat="46.2276649475097656" lon="7.9197959899902344"><ele></ele><time>2014-10-15T22:36:24Z</time></trkpt>
<trkpt lat="46.2277145385742188" lon="7.9198031425476074"><ele></ele><time>2014-10-15T22:36:27Z</time></trkpt>
<trkpt lat="46.2277450561523438" lon="7.9198069572448730"><ele></ele><time>2014-10-15T22:36:30Z</time></trkpt>
<trkpt lat="46.2277984619140625" lon="7.9198246002197266"><ele></ele><time>2014-10-15T22:36:33Z</time></trkpt>
<trkpt lat="46.2278327941894531" lon="7.9198503494262695"><ele></ele><time>2014-10-15T22:36:36Z</time></trkpt>
<trkpt lat="46.2278671264648438" lon="7.9198732376098633"><ele></ele><time>2014-10-15T22:36:39Z</time></trkpt>
<trkpt lat="46.2279090881347656" lon="7.9198827743530273"><ele></ele><time>2014-10-15T22:36:42Z</time></trkpt>
<trkpt lat="46.2279472351074219" lon="7.9198884963989258"><ele></ele><time>2014-10-15T22:36:45Z</time></trkpt>
<trkpt lat="46.2279968261718750" lon="7.9198813438415527"><ele></ele><time>2014-10-15T22:36:48Z</time></trkpt>
<trkpt lat="46.2280273437500000" lon="7.9198522567749023"><ele></ele><time>2014-10-15T22:36:51Z</time></trkpt>
<trkpt lat="46.2280807495117188" lon="7.9197988510131836"><ele></ele><time>2014-10-15T22:36:54Z</time></trkpt>
<trkpt lat="46.2281303405761719" lon="7.9197902679443359"><ele></ele><time>2014-10-15T22:36:57Z</time></trkpt>
<trkpt lat="46.2281608581542969" lon="7.9197988510131836"><ele></ele><time>2014-10-15T22:37:0Z</time></trkpt>
<trkpt lat="46.2282066345214844" lon="7.9198026657104492"><ele></ele><time>2014-10-15T22:37:3Z</time></trkpt>
<trkpt lat="46.2282562255859375" lon="7.9198246002197266"><ele></ele><time>2014-10-15T22:37:6Z</time></trkpt>
<trkpt lat="46.2282905578613281" lon="7.9198303222656250"><ele></ele><time>2014-10-15T22:37:9Z</time></trkpt>
<trkpt lat="46.2283363342285156" lon="7.9198355674743652"><ele></ele><time>2014-10-15T22:37:12Z</time></trkpt>
<trkpt lat="46.2283630371093750" lon="7.9198398590087891"><ele></ele><time>2014-10-15T22:37:15Z</time></trkpt>
<trkpt lat="46.2283859252929688" lon="7.9198665618896484"><ele></ele><time>2014-10-15T22:37:18Z</time></trkpt>
<trkpt lat="46.2283973693847656" lon="7.9199013710021973"><ele></ele><time>2014-10-15T22:37:21Z</time></trkpt>
<trkpt lat="46.2284164428710938" lon="7.9199562072753906"><ele></ele><time>2014-10-15T22:37:24Z</time></trkpt>
<trkpt lat="46.2284393310546875" lon="7.9200129508972168"><ele></ele><time>2014-10-15T22:37:27Z</time></trkpt>
<trkpt lat="46.2284545898437500" lon="7.9200773239135742"><ele></ele><time>2014-10-15T22:37:30Z</time></trkpt>
<trkpt lat="46.2284698486328125" lon="7.9201354980468750"><ele></ele><time>2014-10-15T22:37:33Z</time></trkpt>
<trkpt lat="46.2284851074218750" lon="7.9201893806457520"><ele></ele><time>2014-10-15T22:37:36Z</time></trkpt>
<trkpt lat="46.2285079956054688" lon="7.9202494621276855"><ele></ele><time>2014-10-15T22:37:39Z</time></trkpt>
<trkpt lat="46.2285423278808594" lon="7.9203081130981445"><ele></ele><time>2014-10-15T22:37:42Z</time></trkpt>
<trkpt lat="46.2285842895507812" lon="7.9203686714172363"><ele></ele><time>2014-10-15T22:37:45Z</time></trkpt>
<trkpt lat="46.2286071777343750" lon="7.9204130172729492"><ele></ele><time>2014-10-15T22:37:48Z</time></trkpt>
<trkpt lat="46.2286338806152344" lon="7.9204754829406738"><ele></ele><time>2014-10-15T22:37:51Z</time></trkpt>
<trkpt lat="46.2286567687988281" lon="7.9205346107482910"><ele></ele><time>2014-10-15T22:37:54Z</time></trkpt>
<trkpt lat="46.2286796569824219" lon="7.9205913543701172"><ele></ele><time>2014-10-15T22:37:57Z</time></trkpt>
<trkpt lat="46.2286911010742188" lon="7.9206309318542480"><ele></ele><time>2014-10-15T22:38:0Z</time></trkpt>
<trkpt lat="46.2287025451660156" lon="7.9206738471984863"><ele></ele><time>2014-10-15T22:38:3Z</time></trkpt>
<trkpt lat="46.2287292480468750" lon="7.9207339286804199"><ele></ele><time>2014-10-15T22:38:6Z</time></trkpt>
<trkpt lat="46.2287559509277344" lon="7.9207901954650879"><ele></ele><time>2014-10-15T22:38:9Z</time></trkpt>
<trkpt lat="46.2287788391113281" lon="7.9208321571350098"><ele></ele><time>2014-10-15T22:38:12Z</time></trkpt>
<trkpt lat="46.2287979125976562" lon="7.9208774566650391"><ele></ele><time>2014-10-15T22:38:15Z</time></trkpt>
<trkpt lat="46.2288208007812500" lon="7.9209442138671875"><ele></ele><time>2014-10-15T22:38:18Z</time></trkpt>
<trkpt lat="46.2288475036621094" lon="7.9209980964660645"><ele></ele><time>2014-10-15T22:38:21Z</time></trkpt>
<trkpt lat="46.2288970947265625" lon="7.9210681915283203"><ele></ele><time>2014-10-15T22:38:24Z</time></trkpt>
<trkpt lat="46.2289390563964844" lon="7.9211373329162598"><ele></ele><time>2014-10-15T22:38:27Z</time></trkpt>
<trkpt lat="46.2289848327636719" lon="7.9212093353271484"><ele></ele><time>2014-10-15T22:38:30Z</time></trkpt>
<trkpt lat="46.2290306091308594" lon="7.9213032722473145"><ele></ele><time>2014-10-15T22:38:33Z</time></trkpt>
<trkpt lat="46.2290573120117188" lon="7.9213604927062988"><ele></ele><time>2014-10-15T22:38:36Z</time></trkpt>
<trkpt lat="46.2290992736816406" lon="7.9214539527893066"><ele></ele><time>2014-10-15T22:38:39Z</time></trkpt>
<trkpt lat="46.2291259765625000" lon="7.9215836524963379"><ele></ele><time>2014-10-15T22:38:42Z</time></trkpt>
<trkpt lat="46.2291374206542969" lon="7.9216833114624023"><ele></ele><time>2014-10-15T22:38:45Z</time></trkpt>
<trkpt lat="46.2291603088378906" lon="7.9218211174011230"><ele></ele><time>2014-10-15T22:38:48Z</time></trkpt>
<trkpt lat="46.2292022705078125" lon="7.9219436645507812"><ele></ele><time>2014-10-15T22:38:51Z</time></trkpt>
<trkpt lat="46.2292327880859375" lon="7.9220266342163086"><ele></ele><time>2014-10-15T22:38:54Z</time></trkpt>
<trkpt lat="46.2292785644531250" lon="7.9221577644348145"><ele></ele><time>2014-10-15T22:38:57Z</time></trkpt>
<trkpt lat="46.2293090820312500" lon="7.9222898483276367"><ele></ele><time>2014-10-15T22:39:0Z</time></trkpt>
<trkpt lat="46.2293319702148438" lon="7.9223713874816895"><ele></ele><time>2014-10-15T22:39:3Z</time></trkpt>
<trkpt lat="46.2293624877929688" lon="7.9225006103515625"><ele></ele><time>2014-10-15T22:39:6Z</time></trkpt>
<trkpt lat="46.2294464111328125" lon="7.9225559234619141"><ele></ele><time>2014-10-15T22:39:9Z</time></trkpt>
<trkpt lat="46.2295379638671875" lon="7.9225406646728516"><ele></ele><time>2014-10-15T22:39:12Z</time></trkpt>
<trkpt lat="46.2296409606933594" lon="7.9225382804870605"><ele></ele><time>2014-10-15T22:39:15Z</time></trkpt>
<trkpt lat="46.2297515869140625" lon="7.9225344657897949"><ele></ele><time>2014-10-15T22:39:18Z</time></trkpt>
<trkpt lat="46.2298088073730469" lon="7.9225158691406250"><ele></ele><time>2014-10-15T22:39:21Z</time></trkpt>
<trkpt lat="46.2298736572265625" lon="7.9224643707275391"><ele></ele><time>2014-10-15T22:39:24Z</time></trkpt>
<trkpt lat="46.2299270629882812" lon="7.9224200248718262"><ele></ele><time>2014-10-15T22:39:27Z</time></trkpt>
<trkpt lat="46.2299842834472656" lon="7.9223723411560059"><ele></ele><time>2014-10-15T22:39:30Z</time></trkpt>
<trkpt lat="46.2300643920898438" lon="7.9223008155822754"><ele></ele><time>2014-10-15T22:39:33Z</time></trkpt>
<trkpt lat="46.2301368713378906" lon="7.9222187995910645"><ele></ele><time>2014-10-15T22:39:36Z</time></trkpt>
<trkpt lat="46.2302207946777344" lon="7.9221577644348145"><ele></ele><time>2014-10-15T22:39:39Z</time></trkpt>
<trkpt lat="46.2303161621093750" lon="7.9221177101135254"><ele></ele><time>2014-10-15T22:39:42Z</time></trkpt>
<trkpt lat="46.2303695678710938" lon="7.9220862388610840"><ele></ele><time>2014-10-15T22:39:45Z</time></trkpt>
<trkpt lat="46.2304306030273438" lon="7.9220781326293945"><ele></ele><time>2014-10-15T22:39:48Z</time></trkpt>
<trkpt lat="46.2304725646972656" lon="7.9220757484436035"><ele></ele><time>2014-10-15T22:39:51Z</time></trkpt>
<trkpt lat="46.2305335998535156" lon="7.9220538139343262"><ele></ele><time>2014-10-15T22:39:54Z</time></trkpt>
<trkpt lat="46.2305641174316406" lon="7.9220266342163086"><ele></ele><time>2014-10-15T22:39:57Z</time></trkpt>
<trkpt lat="46.2305984497070312" lon="7.9219894409179688"><ele></ele><time>2014-10-15T22:40:0Z</time></trkpt>
<trkpt lat="46.2306365966796875" lon="7.9219546318054199"><ele></ele><time>2014-10-15T22:40:3Z</time></trkpt>
<trkpt lat="46.2306823730468750" lon="7.9219202995300293"><ele></ele><time>2014-10-15T22:40:6Z</time></trkpt>
<trkpt lat="46.2307090759277344" lon="7.9219064712524414"><ele></ele><time>2014-10-15T22:40:9Z</time></trkpt>
<trkpt lat="46.2307510375976562" lon="7.9219141006469727"><ele></ele><time>2014-10-15T22:40:12Z</time></trkpt>
<trkpt lat="46.2307624816894531" lon="7.9218811988830566"><ele></ele><time>2014-10-15T22:40:15Z</time></trkpt>
<trkpt lat="46.2307853698730469" lon="7.9218339920043945"><ele></ele><time>2014-10-15T22:40:18Z</time></trkpt>
<trkpt lat="46.2308082580566406" lon="7.9218225479125977"><ele></ele><time>2014-10-15T22:40:21Z</time></trkpt>
<trkpt lat="46.2308311462402344" lon="7.9218163490295410"><ele></ele><time>2014-10-15T22:40:24Z</time></trkpt>
<trkpt lat="46.2308616638183594" lon="7.9217882156372070"><ele></ele><time>2014-10-15T22:40:27Z</time></trkpt>
<trkpt lat="46.2308731079101562" lon="7.9217643737792969"><ele></ele><time>2014-10-15T22:40:30Z</time></trkpt>
<trkpt lat="46.2308921813964844" lon="7.9217400550842285"><ele></ele><time>2014-10-15T22:40:33Z</time></trkpt>
<trkpt lat="46.2309265136718750" lon="7.9217090606689453"><ele></ele><time>2014-10-15T22:40:36Z</time></trkpt>
<trkpt lat="46.2309646606445312" lon="7.9216890335083008"><ele></ele><time>2014-10-15T22:40:39Z</time></trkpt>
<trkpt lat="46.2309951782226562" lon="7.9216833114624023"><ele></ele><time>2014-10-15T22:40:42Z</time></trkpt>
<trkpt lat="46.2310256958007812" lon="7.9216794967651367"><ele></ele><time>2014-10-15T22:40:45Z</time></trkpt>
<trkpt lat="46.2310676574707031" lon="7.9216680526733398"><ele></ele><time>2014-10-15T22:40:48Z</time></trkpt>
<trkpt lat="46.2310943603515625" lon="7.9216547012329102"><ele></ele><time>2014-10-15T22:40:51Z</time></trkpt>
<trkpt lat="46.2311363220214844" lon="7.9216427803039551"><ele></ele><time>2014-10-15T22:40:54Z</time></trkpt>
<trkpt lat="46.2311630249023438" lon="7.9216356277465820"><ele></ele><time>2014-10-15T22:40:57Z</time></trkpt>
<trkpt lat="46.2311935424804688" lon="7.9216389656066895"><ele></ele><time>2014-10-15T22:41:0Z</time></trkpt>
<trkpt lat="46.2312164306640625" lon="7.9216504096984863"><ele></ele><time>2014-10-15T22:41:3Z</time></trkpt>
<trkpt lat="46.2312583923339844" lon="7.9216465950012207"><ele></ele><time>2014-10-15T22:41:6Z</time></trkpt>
<trkpt lat="46.2312850952148438" lon="7.9216413497924805"><ele></ele><time>2014-10-15T22:41:9Z</time></trkpt>
<trkpt lat="46.2313308715820312" lon="7.9216194152832031"><ele></ele><time>2014-10-15T22:41:12Z</time></trkpt>
<trkpt lat="46.2313537597656250" lon="7.9215998649597168"><ele></ele><time>2014-10-15T22:41:15Z</time></trkpt>
<trkpt lat="46.2313880920410156" lon="7.9215660095214844"><ele></ele><time>2014-10-15T22:41:18Z</time></trkpt>
<trkpt lat="46.2314224243164062" lon="7.9215450286865234"><ele></ele><time>2014-10-15T22:41:21Z</time></trkpt>
<trkpt lat="46.2314605712890625" lon="7.9215378761291504"><ele></ele><time>2014-10-15T22:41:24Z</time></trkpt>
<trkpt lat="46.2314987182617188" lon="7.9215431213378906"><ele></ele><time>2014-10-15T22:41:27Z</time></trkpt>
<trkpt lat="46.2315254211425781" lon="7.9215598106384277"><ele></ele><time>2014-10-15T22:41:30Z</time></trkpt>
<trkpt lat="46.2315673828125000" lon="7.9215865135192871"><ele></ele><time>2014-10-15T22:41:33Z</time></trkpt>
<trkpt lat="46.2316131591796875" lon="7.9216203689575195"><ele></ele><time>2014-10-15T22:41:36Z</time></trkpt>
<trkpt lat="46.2316398620605469" lon="7.9216432571411133"><ele></ele><time>2014-10-15T22:41:39Z</time></trkpt>
<trkpt lat="46.2316627502441406" lon="7.9216656684875488"><ele></ele><time>2014-10-15T22:41:42Z</time></trkpt>
<trkpt lat="46.2316932678222656" lon="7.9217057228088379"><ele></ele><time>2014-10-15T22:41:45Z</time></trkpt>
<trkpt lat="46.2317161560058594" lon="7.9217481613159180"><ele></ele><time>2014-10-15T22:41:48Z</time></trkpt>
<trkpt lat="46.2317314147949219" lon="7.9217743873596191"><ele></ele><time>2014-10-15T22:41:51Z</time></trkpt>
<trkpt lat="46.2317504882812500" lon="7.9217953681945801"><ele></ele><time>2014-10-15T22:41:54Z</time></trkpt>
<trkpt lat="46.2317733764648438" lon="7.9218344688415527"><ele></ele><time>2014-10-15T22:41:57Z</time></trkpt>
<trkpt lat="46.2317695617675781" lon="7.9218730926513672"><ele></ele><time>2014-10-15T22:42:0Z</time></trkpt>
<trkpt lat="46.2317314147949219" lon="7.9219112396240234"><ele></ele><time>2014-10-15T22:42:3Z</time></trkpt>
<trkpt lat="46.2317008972167969" lon="7.9219403266906738"><ele></ele><time>2014-10-15T22:42:6Z</time></trkpt>
<trkpt lat="46.2316741943359375" lon="7.9219722747802734"><ele></ele><time>2014-10-15T22:42:9Z</time></trkpt>
<trkpt lat="46.2316398620605469" lon="7.9219965934753418"><ele></ele><time>2014-10-15T22:42:12Z</time></trkpt>
<trkpt lat="46.2316055297851562" lon="7.9220223426818848"><ele></ele><time>2014-10-15T22:42:15Z</time></trkpt>
<trkpt lat="46.2315711975097656" lon="7.9220447540283203"><ele></ele><time>2014-10-15T22:42:18Z</time></trkpt>
<trkpt lat="46.2315559387207031" lon="7.9220719337463379"><ele></ele><time>2014-10-15T22:42:21Z</time></trkpt>
<trkpt lat="46.2315330505371094" lon="7.9221196174621582"><ele></ele><time>2014-10-15T22:42:24Z</time></trkpt>
<trkpt lat="46.2315177917480469" lon="7.9221839904785156"><ele></ele><time>2014-10-15T22:42:27Z</time></trkpt>
<trkpt lat="46.2314949035644531" lon="7.9222507476806641"><ele></ele><time>2014-10-15T22:42:30Z</time></trkpt>
<trkpt lat="46.2314720153808594" lon="7.9223065376281738"><ele></ele><time>2014-10-15T22:42:33Z</time></trkpt>
<trkpt lat="46.2314567565917969" lon="7.9223427772521973"><ele></ele><time>2014-10-15T22:42:36Z</time></trkpt>
<trkpt lat="46.2314491271972656" lon="7.9223966598510742"><ele></ele><time>2014-10-15T22:42:39Z</time></trkpt>
<trkpt lat="46.2314453125000000" lon="7.9224514961242676"><ele></ele><time>2014-10-15T22:42:42Z</time></trkpt>
<trkpt lat="46.2314453125000000" lon="7.9224872589111328"><ele></ele><time>2014-10-15T22:42:45Z</time></trkpt>
<trkpt lat="46.2314529418945312" lon="7.9225220680236816"><ele></ele><time>2014-10-15T22:42:48Z</time></trkpt>
<trkpt lat="46.2314682006835938" lon="7.9225749969482422"><ele></ele><time>2014-10-15T22:42:51Z</time></trkpt>
<trkpt lat="46.2314910888671875" lon="7.9226231575012207"><ele></ele><time>2014-10-15T22:42:54Z</time></trkpt>
<trkpt lat="46.2315139770507812" lon="7.9226770401000977"><ele></ele><time>2014-10-15T22:42:57Z</time></trkpt>
<trkpt lat="46.2315406799316406" lon="7.9227347373962402"><ele></ele><time>2014-10-15T22:43:0Z</time></trkpt>
<trkpt lat="46.2315826416015625" lon="7.9227786064147949"><ele></ele><time>2014-10-15T22:43:3Z</time></trkpt>
<trkpt lat="46.2316284179687500" lon="7.9228167533874512"><ele></ele><time>2014-10-15T22:43:6Z</time></trkpt>
<trkpt lat="46.2316703796386719" lon="7.9228582382202148"><ele></ele><time>2014-10-15T22:43:9Z</time></trkpt>
<trkpt lat="46.2317047119140625" lon="7.9229025840759277"><ele></ele><time>2014-10-15T22:43:12Z</time></trkpt>
<trkpt lat="46.2317199707031250" lon="7.9229555130004883"><ele></ele><time>2014-10-15T22:43:15Z</time></trkpt>
<trkpt lat="46.2317276000976562" lon="7.9230203628540039"><ele></ele><time>2014-10-15T22:43:18Z</time></trkpt>
<trkpt lat="46.2317276000976562" lon="7.9231100082397461"><ele></ele><time>2014-10-15T22:43:21Z</time></trkpt>
<trkpt lat="46.2317314147949219" lon="7.9231724739074707"><ele></ele><time>2014-10-15T22:43:24Z</time></trkpt>
<trkpt lat="46.2317352294921875" lon="7.9232645034790039"><ele></ele><time>2014-10-15T22:43:27Z</time></trkpt>
<trkpt lat="46.2317237854003906" lon="7.9233517646789551"><ele></ele><time>2014-10-15T22:43:30Z</time></trkpt>
<trkpt lat="46.2317047119140625" lon="7.9234032630920410"><ele></ele><time>2014-10-15T22:43:33Z</time></trkpt>
<trkpt lat="46.2316665649414062" lon="7.9234724044799805"><ele></ele><time>2014-10-15T22:43:36Z</time></trkpt>
<trkpt lat="46.2316474914550781" lon="7.9235911369323730"><ele></ele><time>2014-10-15T22:43:39Z</time></trkpt>
<trkpt lat="46.2316627502441406" lon="7.9237217903137207"><ele></ele><time>2014-10-15T22:43:42Z</time></trkpt>
<trkpt lat="46.2316589355468750" lon="7.9239444732666016"><ele></ele><time>2014-10-15T22:43:45Z</time></trkpt>
<trkpt lat="46.2316551208496094" lon="7.9242959022521973"><ele></ele><time>2014-10-15T22:43:48Z</time></trkpt>
<trkpt lat="46.2316894531250000" lon="7.9246678352355957"><ele></ele><time>2014-10-15T22:43:51Z</time></trkpt>
<trkpt lat="46.2316513061523438" lon="7.9250602722167969"><ele></ele><time>2014-10-15T22:43:54Z</time></trkpt>
<trkpt lat="46.2315864562988281" lon="7.9254336357116699"><ele></ele><time>2014-10-15T22:43:57Z</time></trkpt>
<trkpt lat="46.2315788269042969" lon="7.9256148338317871"><ele></ele><time>2014-10-15T22:44:0Z</time></trkpt>
<trkpt lat="46.2315330505371094" lon="7.9258828163146973"><ele></ele><time>2014-10-15T22:44:3Z</time></trkpt>
<trkpt lat="46.2315139770507812" lon="7.9260783195495605"><ele></ele><time>2014-10-15T22:44:6Z</time></trkpt>
<trkpt lat="46.2314872741699219" lon="7.9263553619384766"><ele></ele><time>2014-10-15T22:44:9Z</time></trkpt>
<trkpt lat="46.2314529418945312" lon="7.9265108108520508"><ele></ele><time>2014-10-15T22:44:12Z</time></trkpt>
<trkpt lat="46.2314224243164062" lon="7.9266452789306641"><ele></ele><time>2014-10-15T22:44:15Z</time></trkpt>
<trkpt lat="46.2314109802246094" lon="7.9267573356628418"><ele></ele><time>2014-10-15T22:44:18Z</time></trkpt>
<trkpt lat="46.2313995361328125" lon="7.9269204139709473"><ele></ele><time>2014-10-15T22:44:21Z</time></trkpt>
<trkpt lat="46.2313957214355469" lon="7.9270505905151367"><ele></ele><time>2014-10-15T22:44:24Z</time></trkpt>
<trkpt lat="46.2314109802246094" lon="7.9272947311401367"><ele></ele><time>2014-10-15T22:44:27Z</time></trkpt>
<trkpt lat="46.2314300537109375" lon="7.9274506568908691"><ele></ele><time>2014-10-15T22:44:30Z</time></trkpt>
<trkpt lat="46.2314453125000000" lon="7.9276332855224609"><ele></ele><time>2014-10-15T22:44:33Z</time></trkpt>
<trkpt lat="46.2314796447753906" lon="7.9277396202087402"><ele></ele><time>2014-10-15T22:44:36Z</time></trkpt>
<trkpt lat="46.2315750122070312" lon="7.9278159141540527"><ele></ele><time>2014-10-15T22:44:39Z</time></trkpt>
<trkpt lat="46.2316780090332031" lon="7.9278969764709473"><ele></ele><time>2014-10-15T22:44:42Z</time></trkpt>
<trkpt lat="46.2317924499511719" lon="7.9281396865844727"><ele></ele><time>2014-10-15T22:44:45Z</time></trkpt>
<trkpt lat="46.2319259643554688" lon="7.9283919334411621"><ele></ele><time>2014-10-15T22:44:48Z</time></trkpt>
<trkpt lat="46.2320709228515625" lon="7.9286737442016602"><ele></ele><time>2014-10-15T22:44:51Z</time></trkpt>
<trkpt lat="46.2322006225585938" lon="7.9288506507873535"><ele></ele><time>2014-10-15T22:44:54Z</time></trkpt>
<trkpt lat="46.2323493957519531" lon="7.9290294647216797"><ele></ele><time>2014-10-15T22:44:57Z</time></trkpt>
<trkpt lat="46.2325325012207031" lon="7.9292230606079102"><ele></ele><time>2014-10-15T22:45:0Z</time></trkpt>
<trkpt lat="46.2326774597167969" lon="7.9291834831237793"><ele></ele><time>2014-10-15T22:45:3Z</time></trkpt>
<trkpt lat="46.2328987121582031" lon="7.9291043281555176"><ele></ele><time>2014-10-15T22:45:6Z</time></trkpt>
<trkpt lat="46.2330665588378906" lon="7.9290752410888672"><ele></ele><time>2014-10-15T22:45:9Z</time></trkpt>
<trkpt lat="46.2331466674804688" lon="7.9289565086364746"><ele></ele><time>2014-10-15T22:45:12Z</time></trkpt>
<trkpt lat="46.2332458496093750" lon="7.9289569854736328"><ele></ele><time>2014-10-15T22:45:15Z</time></trkpt>
<trkpt lat="46.2334442138671875" lon="7.9290637969970703"><ele></ele><time>2014-10-15T22:45:18Z</time></trkpt>
<trkpt lat="46.2335510253906250" lon="7.9291968345642090"><ele></ele><time>2014-10-15T22:45:21Z</time></trkpt>
<trkpt lat="46.2337341308593750" lon="7.9293398857116699"><ele></ele><time>2014-10-15T22:45:24Z</time></trkpt>
<trkpt lat="46.2338600158691406" lon="7.9292564392089844"><ele></ele><time>2014-10-15T22:45:27Z</time></trkpt>
<trkpt lat="46.2339782714843750" lon="7.9291777610778809"><ele></ele><time>2014-10-15T22:45:30Z</time></trkpt>
<trkpt lat="46.2341041564941406" lon="7.9293179512023926"><ele></ele><time>2014-10-15T22:45:33Z</time></trkpt>
<trkpt lat="46.2341880798339844" lon="7.9294595718383789"><ele></ele><time>2014-10-15T22:45:36Z</time></trkpt>
<trkpt lat="46.2344093322753906" lon="7.9294047355651855"><ele></ele><time>2014-10-15T22:45:39Z</time></trkpt>
<trkpt lat="46.2345809936523438" lon="7.9294133186340332"><ele></ele><time>2014-10-15T22:45:42Z</time></trkpt>
<trkpt lat="46.2347755432128906" lon="7.9295434951782227"><ele></ele><time>2014-10-15T22:45:45Z</time></trkpt>
<trkpt lat="46.2350425720214844" lon="7.9296588897705078"><ele></ele><time>2014-10-15T22:45:48Z</time></trkpt>
<trkpt lat="46.2351646423339844" lon="7.9297823905944824"><ele></ele><time>2014-10-15T22:45:51Z</time></trkpt>
<trkpt lat="46.2353286743164062" lon="7.9301147460937500"><ele></ele><time>2014-10-15T22:45:54Z</time></trkpt>
<trkpt lat="46.2354812622070312" lon="7.9303793907165527"><ele></ele><time>2014-10-15T22:45:57Z</time></trkpt>
<trkpt lat="46.2355690002441406" lon="7.9305667877197266"><ele></ele><time>2014-10-15T22:46:0Z</time></trkpt>
<trkpt lat="46.2356605529785156" lon="7.9308872222900391"><ele></ele><time>2014-10-15T22:46:3Z</time></trkpt>
<trkpt lat="46.2357368469238281" lon="7.9310703277587891"><ele></ele><time>2014-10-15T22:46:6Z</time></trkpt>
<trkpt lat="46.2357482910156250" lon="7.9311318397521973"><ele></ele><time>2014-10-15T22:46:9Z</time></trkpt>
<trkpt lat="46.2357826232910156" lon="7.9311761856079102"><ele></ele><time>2014-10-15T22:46:12Z</time></trkpt>
<trkpt lat="46.2358169555664062" lon="7.9312205314636230"><ele></ele><time>2014-10-15T22:46:15Z</time></trkpt>
<trkpt lat="46.2358551025390625" lon="7.9312233924865723"><ele></ele><time>2014-10-15T22:46:18Z</time></trkpt>
<trkpt lat="46.2359008789062500" lon="7.9312114715576172"><ele></ele><time>2014-10-15T22:46:21Z</time></trkpt>
<trkpt lat="46.2359352111816406" lon="7.9311938285827637"><ele></ele><time>2014-10-15T22:46:24Z</time></trkpt>
<trkpt lat="46.2359542846679688" lon="7.9311852455139160"><ele></ele><time>2014-10-15T22:46:27Z</time></trkpt>
<trkpt lat="46.2359771728515625" lon="7.9311718940734863"><ele></ele><time>2014-10-15T22:46:30Z</time></trkpt>
<trkpt lat="46.2359962463378906" lon="7.9311642646789551"><ele></ele><time>2014-10-15T22:46:33Z</time></trkpt>
<trkpt lat="46.2360229492187500" lon="7.9311757087707520"><ele></ele><time>2014-10-15T22:46:36Z</time></trkpt>
<trkpt lat="46.2360496520996094" lon="7.9312210083007812"><ele></ele><time>2014-10-15T22:46:39Z</time></trkpt>
<trkpt lat="46.2360801696777344" lon="7.9312558174133301"><ele></ele><time>2014-10-15T22:46:42Z</time></trkpt>
<trkpt lat="46.2360954284667969" lon="7.9313058853149414"><ele></ele><time>2014-10-15T22:46:45Z</time></trkpt>
<trkpt lat="46.2361068725585938" lon="7.9313373565673828"><ele></ele><time>2014-10-15T22:46:48Z</time></trkpt>
<trkpt lat="46.2361145019531250" lon="7.9313683509826660"><ele></ele><time>2014-10-15T22:46:51Z</time></trkpt>
<trkpt lat="46.2361373901367188" lon="7.9314122200012207"><ele></ele><time>2014-10-15T22:46:54Z</time></trkpt>
<trkpt lat="46.2361602783203125" lon="7.9314246177673340"><ele></ele><time>2014-10-15T22:46:57Z</time></trkpt>
<trkpt lat="46.2361984252929688" lon="7.9314093589782715"><ele></ele><time>2014-10-15T22:47:0Z</time></trkpt>
<trkpt lat="46.2362213134765625" lon="7.9313926696777344"><ele></ele><time>2014-10-15T22:47:3Z</time></trkpt>
<trkpt lat="46.2362480163574219" lon="7.9313688278198242"><ele></ele><time>2014-10-15T22:47:6Z</time></trkpt>
<trkpt lat="46.2362785339355469" lon="7.9313292503356934"><ele></ele><time>2014-10-15T22:47:9Z</time></trkpt>
<trkpt lat="46.2363052368164062" lon="7.9313120841979980"><ele></ele><time>2014-10-15T22:47:12Z</time></trkpt>
<trkpt lat="46.2363433837890625" lon="7.9312996864318848"><ele></ele><time>2014-10-15T22:47:15Z</time></trkpt>
<trkpt lat="46.2363739013671875" lon="7.9312849044799805"><ele></ele><time>2014-10-15T22:47:18Z</time></trkpt>
<trkpt lat="46.2363929748535156" lon="7.9312443733215332"><ele></ele><time>2014-10-15T22:47:21Z</time></trkpt>
<trkpt lat="46.2364044189453125" lon="7.9312162399291992"><ele></ele><time>2014-10-15T22:47:24Z</time></trkpt>
<trkpt lat="46.2364196777343750" lon="7.9311871528625488"><ele></ele><time>2014-10-15T22:47:27Z</time></trkpt>
<trkpt lat="46.2364387512207031" lon="7.9311652183532715"><ele></ele><time>2014-10-15T22:47:30Z</time></trkpt>
<trkpt lat="46.2364692687988281" lon="7.9311337471008301"><ele></ele><time>2014-10-15T22:47:33Z</time></trkpt>
<trkpt lat="46.2364921569824219" lon="7.9311156272888184"><ele></ele><time>2014-10-15T22:47:36Z</time></trkpt>
<trkpt lat="46.2365264892578125" lon="7.9311017990112305"><ele></ele><time>2014-10-15T22:47:39Z</time></trkpt>
<trkpt lat="46.2365379333496094" lon="7.9310898780822754"><ele></ele><time>2014-10-15T22:47:42Z</time></trkpt>
<trkpt lat="46.2365570068359375" lon="7.9310827255249023"><ele></ele><time>2014-10-15T22:47:45Z</time></trkpt>
<trkpt lat="46.2365913391113281" lon="7.9310765266418457"><ele></ele><time>2014-10-15T22:47:48Z</time></trkpt>
<trkpt lat="46.2366180419921875" lon="7.9310908317565918"><ele></ele><time>2014-10-15T22:47:51Z</time></trkpt>
<trkpt lat="46.2366523742675781" lon="7.9311189651489258"><ele></ele><time>2014-10-15T22:47:54Z</time></trkpt>
<trkpt lat="46.2366828918457031" lon="7.9311203956604004"><ele></ele><time>2014-10-15T22:47:57Z</time></trkpt>
<trkpt lat="46.2366981506347656" lon="7.9311094284057617"><ele></ele><time>2014-10-15T22:48:0Z</time></trkpt>
<trkpt lat="46.2367362976074219" lon="7.9310894012451172"><ele></ele><time>2014-10-15T22:48:3Z</time></trkpt>
<trkpt lat="46.2367782592773438" lon="7.9310803413391113"><ele></ele><time>2014-10-15T22:48:6Z</time></trkpt>
<trkpt lat="46.2368278503417969" lon="7.9310626983642578"><ele></ele><time>2014-10-15T22:48:9Z</time></trkpt>
<trkpt lat="46.2368583679199219" lon="7.9310412406921387"><ele></ele><time>2014-10-15T22:48:12Z</time></trkpt>
<trkpt lat="46.2368888854980469" lon="7.9310078620910645"><ele></ele><time>2014-10-15T22:48:15Z</time></trkpt>
<trkpt lat="46.2369270324707031" lon="7.9309844970703125"><ele></ele><time>2014-10-15T22:48:18Z</time></trkpt>
<trkpt lat="46.2369499206542969" lon="7.9309716224670410"><ele></ele><time>2014-10-15T22:48:21Z</time></trkpt>
<trkpt lat="46.2369804382324219" lon="7.9309430122375488"><ele></ele><time>2014-10-15T22:48:24Z</time></trkpt>
<trkpt lat="46.2369995117187500" lon="7.9309401512145996"><ele></ele><time>2014-10-15T22:48:27Z</time></trkpt>
<trkpt lat="46.2370223999023438" lon="7.9309468269348145"><ele></ele><time>2014-10-15T22:48:30Z</time></trkpt>
<trkpt lat="46.2370414733886719" lon="7.9309387207031250"><ele></ele><time>2014-10-15T22:48:33Z</time></trkpt>
<trkpt lat="46.2370643615722656" lon="7.9309196472167969"><ele></ele><time>2014-10-15T22:48:36Z</time></trkpt>
<trkpt lat="46.2370910644531250" lon="7.9309015274047852"><ele></ele><time>2014-10-15T22:48:39Z</time></trkpt>
<trkpt lat="46.2371177673339844" lon="7.9308753013610840"><ele></ele><time>2014-10-15T22:48:42Z</time></trkpt>
<trkpt lat="46.2371406555175781" lon="7.9308691024780273"><ele></ele><time>2014-10-15T22:48:45Z</time></trkpt>
<trkpt lat="46.2371788024902344" lon="7.9308724403381348"><ele></ele><time>2014-10-15T22:48:48Z</time></trkpt>
<trkpt lat="46.2372055053710938" lon="7.9308695793151855"><ele></ele><time>2014-10-15T22:48:51Z</time></trkpt>
<trkpt lat="46.2372360229492188" lon="7.9308843612670898"><ele></ele><time>2014-10-15T22:48:54Z</time></trkpt>
<trkpt lat="46.2372665405273438" lon="7.9308924674987793"><ele></ele><time>2014-10-15T22:48:57Z</time></trkpt>
<trkpt lat="46.2373161315917969" lon="7.9308819770812988"><ele></ele><time>2014-10-15T22:49:0Z</time></trkpt>
<trkpt lat="46.2373466491699219" lon="7.9308772087097168"><ele></ele><time>2014-10-15T22:49:3Z</time></trkpt>
<trkpt lat="46.2373962402343750" lon="7.9308643341064453"><ele></ele><time>2014-10-15T22:49:6Z</time></trkpt>
<trkpt lat="46.2374343872070312" lon="7.9308795928955078"><ele></ele><time>2014-10-15T22:49:9Z</time></trkpt>
<trkpt lat="46.2374725341796875" lon="7.9308819770812988"><ele></ele><time>2014-10-15T22:49:12Z</time></trkpt>
<trkpt lat="46.2374954223632812" lon="7.9308853149414062"><ele></ele><time>2014-10-15T22:49:15Z</time></trkpt>
<trkpt lat="46.2375335693359375" lon="7.9309000968933105"><ele></ele><time>2014-10-15T22:49:18Z</time></trkpt>
<trkpt lat="46.2375717163085938" lon="7.9309267997741699"><ele></ele><time>2014-10-15T22:49:21Z</time></trkpt>
<trkpt lat="46.2376098632812500" lon="7.9309473037719727"><ele></ele><time>2014-10-15T22:49:24Z</time></trkpt>
<trkpt lat="46.2376289367675781" lon="7.9309754371643066"><ele></ele><time>2014-10-15T22:49:27Z</time></trkpt>
<trkpt lat="46.2376670837402344" lon="7.9309806823730469"><ele></ele><time>2014-10-15T22:49:30Z</time></trkpt>
<trkpt lat="46.2377090454101562" lon="7.9309763908386230"><ele></ele><time>2014-10-15T22:49:33Z</time></trkpt>
<trkpt lat="46.2377433776855469" lon="7.9309735298156738"><ele></ele><time>2014-10-15T22:49:36Z</time></trkpt>
<trkpt lat="46.2377967834472656" lon="7.9309835433959961"><ele></ele><time>2014-10-15T22:49:39Z</time></trkpt>
<trkpt lat="46.2378540039062500" lon="7.9310173988342285"><ele></ele><time>2014-10-15T22:49:42Z</time></trkpt>
<trkpt lat="46.2378921508789062" lon="7.9310460090637207"><ele></ele><time>2014-10-15T22:49:45Z</time></trkpt>
<trkpt lat="46.2379341125488281" lon="7.9310946464538574"><ele></ele><time>2014-10-15T22:49:48Z</time></trkpt>
<trkpt lat="46.2379570007324219" lon="7.9311251640319824"><ele></ele><time>2014-10-15T22:49:51Z</time></trkpt>
<trkpt lat="46.2379875183105469" lon="7.9311776161193848"><ele></ele><time>2014-10-15T22:49:54Z</time></trkpt>
<trkpt lat="46.2380294799804688" lon="7.9312300682067871"><ele></ele><time>2014-10-15T22:49:57Z</time></trkpt>
<trkpt lat="46.2380943298339844" lon="7.9312973022460938"><ele></ele><time>2014-10-15T22:50:0Z</time></trkpt>
<trkpt lat="46.2382736206054688" lon="7.9313831329345703"><ele></ele><time>2014-10-15T22:50:3Z</time></trkpt>
<trkpt lat="46.2383651733398438" lon="7.9312973022460938"><ele></ele><time>2014-10-15T22:50:6Z</time></trkpt>
<trkpt lat="46.2384300231933594" lon="7.9312415122985840"><ele></ele><time>2014-10-15T22:50:9Z</time></trkpt>
<trkpt lat="46.2384948730468750" lon="7.9311704635620117"><ele></ele><time>2014-10-15T22:50:12Z</time></trkpt>
<trkpt lat="46.2385406494140625" lon="7.9311165809631348"><ele></ele><time>2014-10-15T22:50:15Z</time></trkpt>
<trkpt lat="46.2385940551757812" lon="7.9310364723205566"><ele></ele><time>2014-10-15T22:50:18Z</time></trkpt>
<trkpt lat="46.2386474609375000" lon="7.9309630393981934"><ele></ele><time>2014-10-15T22:50:21Z</time></trkpt>
<trkpt lat="46.2387313842773438" lon="7.9308786392211914"><ele></ele><time>2014-10-15T22:50:24Z</time></trkpt>
<trkpt lat="46.2387619018554688" lon="7.9308180809020996"><ele></ele><time>2014-10-15T22:50:27Z</time></trkpt>
<trkpt lat="46.2387695312500000" lon="7.9307541847229004"><ele></ele><time>2014-10-15T22:50:30Z</time></trkpt>
<trkpt lat="46.2387733459472656" lon="7.9306755065917969"><ele></ele><time>2014-10-15T22:50:33Z</time></trkpt>
<trkpt lat="46.2388458251953125" lon="7.9306654930114746"><ele></ele><time>2014-10-15T22:50:36Z</time></trkpt>
<trkpt lat="46.2388954162597656" lon="7.9306540489196777"><ele></ele><time>2014-10-15T22:50:39Z</time></trkpt>
<trkpt lat="46.2389106750488281" lon="7.9305686950683594"><ele></ele><time>2014-10-15T22:50:42Z</time></trkpt>
<trkpt lat="46.2389068603515625" lon="7.9305071830749512"><ele></ele><time>2014-10-15T22:50:45Z</time></trkpt>
<trkpt lat="46.2389144897460938" lon="7.9304447174072266"><ele></ele><time>2014-10-15T22:50:48Z</time></trkpt>
<trkpt lat="46.2389259338378906" lon="7.9303207397460938"><ele></ele><time>2014-10-15T22:50:51Z</time></trkpt>
<trkpt lat="46.2389106750488281" lon="7.9302468299865723"><ele></ele><time>2014-10-15T22:50:54Z</time></trkpt>
<trkpt lat="46.2389030456542969" lon="7.9301929473876953"><ele></ele><time>2014-10-15T22:50:57Z</time></trkpt>
<trkpt lat="46.2389183044433594" lon="7.9301323890686035"><ele></ele><time>2014-10-15T22:51:0Z</time></trkpt>
<trkpt lat="46.2389450073242188" lon="7.9300742149353027"><ele></ele><time>2014-10-15T22:51:3Z</time></trkpt>
<trkpt lat="46.2389411926269531" lon="7.9299964904785156"><ele></ele><time>2014-10-15T22:51:6Z</time></trkpt>
<trkpt lat="46.2389411926269531" lon="7.9299163818359375"><ele></ele><time>2014-10-15T22:51:9Z</time></trkpt>
<trkpt lat="46.2389297485351562" lon="7.9298334121704102"><ele></ele><time>2014-10-15T22:51:12Z</time></trkpt>
<trkpt lat="46.2389297485351562" lon="7.9297823905944824"><ele></ele><time>2014-10-15T22:51:15Z</time></trkpt>
<trkpt lat="46.2389297485351562" lon="7.9297394752502441"><ele></ele><time>2014-10-15T22:51:18Z</time></trkpt>
<trkpt lat="46.2389297485351562" lon="7.9296884536743164"><ele></ele><time>2014-10-15T22:51:21Z</time></trkpt>
<trkpt lat="46.2389183044433594" lon="7.9295701980590820"><ele></ele><time>2014-10-15T22:51:24Z</time></trkpt>
<trkpt lat="46.2389335632324219" lon="7.9294557571411133"><ele></ele><time>2014-10-15T22:51:27Z</time></trkpt>
<trkpt lat="46.2390441894531250" lon="7.9292941093444824"><ele></ele><time>2014-10-15T22:51:30Z</time></trkpt>
<trkpt lat="46.2391815185546875" lon="7.9291038513183594"><ele></ele><time>2014-10-15T22:51:33Z</time></trkpt>
<trkpt lat="46.2392387390136719" lon="7.9290080070495605"><ele></ele><time>2014-10-15T22:51:36Z</time></trkpt>
<trkpt lat="46.2393379211425781" lon="7.9288811683654785"><ele></ele><time>2014-10-15T22:51:39Z</time></trkpt>
<trkpt lat="46.2394409179687500" lon="7.9287767410278320"><ele></ele><time>2014-10-15T22:51:42Z</time></trkpt>
<trkpt lat="46.2394981384277344" lon="7.9287242889404297"><ele></ele><time>2014-10-15T22:51:45Z</time></trkpt>
<trkpt lat="46.2395362854003906" lon="7.9286775588989258"><ele></ele><time>2014-10-15T22:51:48Z</time></trkpt>
<trkpt lat="46.2395324707031250" lon="7.9286627769470215"><ele></ele><time>2014-10-15T22:51:51Z</time></trkpt>
<trkpt lat="46.2396316528320312" lon="7.9285488128662109"><ele></ele><time>2014-10-15T22:51:54Z</time></trkpt>
<trkpt lat="46.2397346496582031" lon="7.9284772872924805"><ele></ele><time>2014-10-15T22:51:57Z</time></trkpt>
<trkpt lat="46.2398262023925781" lon="7.9283876419067383"><ele></ele><time>2014-10-15T22:52:0Z</time></trkpt>
<trkpt lat="46.2399063110351562" lon="7.9282994270324707"><ele></ele><time>2014-10-15T22:52:3Z</time></trkpt>
<trkpt lat="46.2399559020996094" lon="7.9282398223876953"><ele></ele><time>2014-10-15T22:52:6Z</time></trkpt>
<trkpt lat="46.2400703430175781" lon="7.9281387329101562"><ele></ele><time>2014-10-15T22:52:9Z</time></trkpt>
<trkpt lat="46.2401618957519531" lon="7.9280781745910645"><ele></ele><time>2014-10-15T22:52:12Z</time></trkpt>
<trkpt lat="46.2403030395507812" lon="7.9280037879943848"><ele></ele><time>2014-10-15T22:52:15Z</time></trkpt>
<trkpt lat="46.2404403686523438" lon="7.9279017448425293"><ele></ele><time>2014-10-15T22:52:18Z</time></trkpt>
<trkpt lat="46.2405357360839844" lon="7.9278388023376465"><ele></ele><time>2014-10-15T22:52:21Z</time></trkpt>
<trkpt lat="46.2406730651855469" lon="7.9277267456054688"><ele></ele><time>2014-10-15T22:52:24Z</time></trkpt>
<trkpt lat="46.2408065795898438" lon="7.9276905059814453"><ele></ele><time>2014-10-15T22:52:27Z</time></trkpt>
<trkpt lat="46.2409324645996094" lon="7.9276976585388184"><ele></ele><time>2014-10-15T22:52:30Z</time></trkpt>
<trkpt lat="46.2409973144531250" lon="7.9276895523071289"><ele></ele><time>2014-10-15T22:52:33Z</time></trkpt>
<trkpt lat="46.2410621643066406" lon="7.9277591705322266"><ele></ele><time>2014-10-15T22:52:36Z</time></trkpt>
<trkpt lat="46.2411613464355469" lon="7.9278941154479980"><ele></ele><time>2014-10-15T22:52:39Z</time></trkpt>
<trkpt lat="46.2412528991699219" lon="7.9280319213867188"><ele></ele><time>2014-10-15T22:52:42Z</time></trkpt>
<trkpt lat="46.2413940429687500" lon="7.9282026290893555"><ele></ele><time>2014-10-15T22:52:45Z</time></trkpt>
<trkpt lat="46.2415237426757812" lon="7.9282841682434082"><ele></ele><time>2014-10-15T22:52:48Z</time></trkpt>
<trkpt lat="46.2416572570800781" lon="7.9283647537231445"><ele></ele><time>2014-10-15T22:52:51Z</time></trkpt>
<trkpt lat="46.2418251037597656" lon="7.9285583496093750"><ele></ele><time>2014-10-15T22:52:54Z</time></trkpt>
<trkpt lat="46.2419509887695312" lon="7.9285736083984375"><ele></ele><time>2014-10-15T22:52:57Z</time></trkpt>
<trkpt lat="46.2420578002929688" lon="7.9285464286804199"><ele></ele><time>2014-10-15T22:53:0Z</time></trkpt>
<trkpt lat="46.2422218322753906" lon="7.9285688400268555"><ele></ele><time>2014-10-15T22:53:3Z</time></trkpt>
<trkpt lat="46.2423057556152344" lon="7.9285907745361328"><ele></ele><time>2014-10-15T22:53:6Z</time></trkpt>
<trkpt lat="46.2423667907714844" lon="7.9285984039306641"><ele></ele><time>2014-10-15T22:53:9Z</time></trkpt>
<trkpt lat="46.2424125671386719" lon="7.9286270141601562"><ele></ele><time>2014-10-15T22:53:12Z</time></trkpt>
<trkpt lat="46.2424926757812500" lon="7.9286537170410156"><ele></ele><time>2014-10-15T22:53:15Z</time></trkpt>
<trkpt lat="46.2425422668457031" lon="7.9286131858825684"><ele></ele><time>2014-10-15T22:53:18Z</time></trkpt>
<trkpt lat="46.2426795959472656" lon="7.9285387992858887"><ele></ele><time>2014-10-15T22:53:21Z</time></trkpt>
<trkpt lat="46.2428741455078125" lon="7.9285068511962891"><ele></ele><time>2014-10-15T22:53:24Z</time></trkpt>
<trkpt lat="46.2429962158203125" lon="7.9285211563110352"><ele></ele><time>2014-10-15T22:53:27Z</time></trkpt>
<trkpt lat="46.2430992126464844" lon="7.9285922050476074"><ele></ele><time>2014-10-15T22:53:30Z</time></trkpt>
<trkpt lat="46.2432060241699219" lon="7.9287366867065430"><ele></ele><time>2014-10-15T22:53:33Z</time></trkpt>
<trkpt lat="46.2432899475097656" lon="7.9288382530212402"><ele></ele><time>2014-10-15T22:53:36Z</time></trkpt>
<trkpt lat="46.2433662414550781" lon="7.9288916587829590"><ele></ele><time>2014-10-15T22:53:39Z</time></trkpt>
<trkpt lat="46.2434501647949219" lon="7.9290103912353516"><ele></ele><time>2014-10-15T22:53:42Z</time></trkpt>
<trkpt lat="46.2435722351074219" lon="7.9290981292724609"><ele></ele><time>2014-10-15T22:53:45Z</time></trkpt>
<trkpt lat="46.2436752319335938" lon="7.9291343688964844"><ele></ele><time>2014-10-15T22:53:48Z</time></trkpt>
<trkpt lat="46.2438774108886719" lon="7.9292182922363281"><ele></ele><time>2014-10-15T22:53:51Z</time></trkpt>
<trkpt lat="46.2440376281738281" lon="7.9293479919433594"><ele></ele><time>2014-10-15T22:53:54Z</time></trkpt>
<trkpt lat="46.2441978454589844" lon="7.9294919967651367"><ele></ele><time>2014-10-15T22:53:57Z</time></trkpt>
<trkpt lat="46.2444038391113281" lon="7.9296097755432129"><ele></ele><time>2014-10-15T22:54:0Z</time></trkpt>
<trkpt lat="46.2445297241210938" lon="7.9296870231628418"><ele></ele><time>2014-10-15T22:54:3Z</time></trkpt>
<trkpt lat="46.2446250915527344" lon="7.9297046661376953"><ele></ele><time>2014-10-15T22:54:6Z</time></trkpt>
<trkpt lat="46.2446861267089844" lon="7.9297232627868652"><ele></ele><time>2014-10-15T22:54:9Z</time></trkpt>
<trkpt lat="46.2447547912597656" lon="7.9297432899475098"><ele></ele><time>2014-10-15T22:54:12Z</time></trkpt>
<trkpt lat="46.2448654174804688" lon="7.9297361373901367"><ele></ele><time>2014-10-15T22:54:15Z</time></trkpt>
<trkpt lat="46.2449836730957031" lon="7.9297442436218262"><ele></ele><time>2014-10-15T22:54:18Z</time></trkpt>
<trkpt lat="46.2451019287109375" lon="7.9297652244567871"><ele></ele><time>2014-10-15T22:54:21Z</time></trkpt>
<trkpt lat="46.2452964782714844" lon="7.9298233985900879"><ele></ele><time>2014-10-15T22:54:24Z</time></trkpt>
<trkpt lat="46.2453765869140625" lon="7.9299111366271973"><ele></ele><time>2014-10-15T22:54:27Z</time></trkpt>
<trkpt lat="46.2454376220703125" lon="7.9299736022949219"><ele></ele><time>2014-10-15T22:54:30Z</time></trkpt>
<trkpt lat="46.2455024719238281" lon="7.9300184249877930"><ele></ele><time>2014-10-15T22:54:33Z</time></trkpt>
<trkpt lat="46.2455787658691406" lon="7.9300532341003418"><ele></ele><time>2014-10-15T22:54:36Z</time></trkpt>
<trkpt lat="46.2456970214843750" lon="7.9300985336303711"><ele></ele><time>2014-10-15T22:54:39Z</time></trkpt>
<trkpt lat="46.2457809448242188" lon="7.9301514625549316"><ele></ele><time>2014-10-15T22:54:42Z</time></trkpt>
<trkpt lat="46.2458877563476562" lon="7.9302539825439453"><ele></ele><time>2014-10-15T22:54:45Z</time></trkpt>
<trkpt lat="46.2459526062011719" lon="7.9303359985351562"><ele></ele><time>2014-10-15T22:54:48Z</time></trkpt>
<trkpt lat="46.2460632324218750" lon="7.9304137229919434"><ele></ele><time>2014-10-15T22:54:51Z</time></trkpt>
<trkpt lat="46.2461585998535156" lon="7.9304914474487305"><ele></ele><time>2014-10-15T22:54:54Z</time></trkpt>
<trkpt lat="46.2462654113769531" lon="7.9306011199951172"><ele></ele><time>2014-10-15T22:54:57Z</time></trkpt>
<trkpt lat="46.2463798522949219" lon="7.9307117462158203"><ele></ele><time>2014-10-15T22:55:0Z</time></trkpt>
<trkpt lat="46.2464904785156250" lon="7.9307951927185059"><ele></ele><time>2014-10-15T22:55:3Z</time></trkpt>
<trkpt lat="46.2465858459472656" lon="7.9308395385742188"><ele></ele><time>2014-10-15T22:55:6Z</time></trkpt>
<trkpt lat="46.2466735839843750" lon="7.9308943748474121"><ele></ele><time>2014-10-15T22:55:9Z</time></trkpt>
<trkpt lat="46.2467384338378906" lon="7.9309420585632324"><ele></ele><time>2014-10-15T22:55:12Z</time></trkpt>
<trkpt lat="46.2468261718750000" lon="7.9310159683227539"><ele></ele><time>2014-10-15T22:55:15Z</time></trkpt>
<trkpt lat="46.2468833923339844" lon="7.9310603141784668"><ele></ele><time>2014-10-15T22:55:18Z</time></trkpt>
<trkpt lat="46.2469482421875000" lon="7.9310984611511230"><ele></ele><time>2014-10-15T22:55:21Z</time></trkpt>
<trkpt lat="46.2470703125000000" lon="7.9312152862548828"><ele></ele><time>2014-10-15T22:55:24Z</time></trkpt>
<trkpt lat="46.2471275329589844" lon="7.9313631057739258"><ele></ele><time>2014-10-15T22:55:27Z</time></trkpt>
<trkpt lat="46.2472419738769531" lon="7.9315533638000488"><ele></ele><time>2014-10-15T22:55:30Z</time></trkpt>
<trkpt lat="46.2473564147949219" lon="7.9316830635070801"><ele></ele><time>2014-10-15T22:55:33Z</time></trkpt>
<trkpt lat="46.2474746704101562" lon="7.9317870140075684"><ele></ele><time>2014-10-15T22:55:36Z</time></trkpt>
<trkpt lat="46.2475585937500000" lon="7.9318537712097168"><ele></ele><time>2014-10-15T22:55:39Z</time></trkpt>
<trkpt lat="46.2476654052734375" lon="7.9318704605102539"><ele></ele><time>2014-10-15T22:55:42Z</time></trkpt>
<trkpt lat="46.2478103637695312" lon="7.9318528175354004"><ele></ele><time>2014-10-15T22:55:45Z</time></trkpt>
<trkpt lat="46.2479515075683594" lon="7.9318289756774902"><ele></ele><time>2014-10-15T22:55:48Z</time></trkpt>
<trkpt lat="46.2480392456054688" lon="7.9318237304687500"><ele></ele><time>2014-10-15T22:55:51Z</time></trkpt>
<trkpt lat="46.2481079101562500" lon="7.9318699836730957"><ele></ele><time>2014-10-15T22:55:54Z</time></trkpt>
<trkpt lat="46.2481994628906250" lon="7.9319038391113281"><ele></ele><time>2014-10-15T22:55:57Z</time></trkpt>
<trkpt lat="46.2482452392578125" lon="7.9318032264709473"><ele></ele><time>2014-10-15T22:56:0Z</time></trkpt>
<trkpt lat="46.2484283447265625" lon="7.9316186904907227"><ele></ele><time>2014-10-15T22:56:3Z</time></trkpt>
<trkpt lat="46.2486076354980469" lon="7.9315137863159180"><ele></ele><time>2014-10-15T22:56:6Z</time></trkpt>
<trkpt lat="46.2488365173339844" lon="7.9313492774963379"><ele></ele><time>2014-10-15T22:56:9Z</time></trkpt>
<trkpt lat="46.2490196228027344" lon="7.9311747550964355"><ele></ele><time>2014-10-15T22:56:12Z</time></trkpt>
<trkpt lat="46.2491722106933594" lon="7.9310126304626465"><ele></ele><time>2014-10-15T22:56:15Z</time></trkpt>
<trkpt lat="46.2493362426757812" lon="7.9308772087097168"><ele></ele><time>2014-10-15T22:56:18Z</time></trkpt>
<trkpt lat="46.2495155334472656" lon="7.9307699203491211"><ele></ele><time>2014-10-15T22:56:21Z</time></trkpt>
<trkpt lat="46.2497100830078125" lon="7.9306392669677734"><ele></ele><time>2014-10-15T22:56:24Z</time></trkpt>
<trkpt lat="46.2498474121093750" lon="7.9304933547973633"><ele></ele><time>2014-10-15T22:56:27Z</time></trkpt>
<trkpt lat="46.2500991821289062" lon="7.9304080009460449"><ele></ele><time>2014-10-15T22:56:30Z</time></trkpt>
<trkpt lat="46.2503662109375000" lon="7.9303560256958008"><ele></ele><time>2014-10-15T22:56:33Z</time></trkpt>
<trkpt lat="46.2505302429199219" lon="7.9303140640258789"><ele></ele><time>2014-10-15T22:56:36Z</time></trkpt>
<trkpt lat="46.2506713867187500" lon="7.9302787780761719"><ele></ele><time>2014-10-15T22:56:39Z</time></trkpt>
<trkpt lat="46.2507934570312500" lon="7.9301028251647949"><ele></ele><time>2014-10-15T22:56:42Z</time></trkpt>
<trkpt lat="46.2508239746093750" lon="7.9299149513244629"><ele></ele><time>2014-10-15T22:56:45Z</time></trkpt>
<trkpt lat="46.2508506774902344" lon="7.9297752380371094"><ele></ele><time>2014-10-15T22:56:48Z</time></trkpt>
<trkpt lat="46.2509155273437500" lon="7.9295625686645508"><ele></ele><time>2014-10-15T22:56:51Z</time></trkpt>
<trkpt lat="46.2509994506835938" lon="7.9293737411499023"><ele></ele><time>2014-10-15T22:56:54Z</time></trkpt>
<trkpt lat="46.2510414123535156" lon="7.9292969703674316"><ele></ele><time>2014-10-15T22:56:57Z</time></trkpt>
<trkpt lat="46.2510528564453125" lon="7.9292068481445312"><ele></ele><time>2014-10-15T22:57:0Z</time></trkpt>
<trkpt lat="46.2510414123535156" lon="7.9292097091674805"><ele></ele><time>2014-10-15T22:57:3Z</time></trkpt>
<trkpt lat="46.2510070800781250" lon="7.9291677474975586"><ele></ele><time>2014-10-15T22:57:6Z</time></trkpt>
<trkpt lat="46.2510070800781250" lon="7.9291090965270996"><ele></ele><time>2014-10-15T22:57:9Z</time></trkpt>
<trkpt lat="46.2510528564453125" lon="7.9290385246276855"><ele></ele><time>2014-10-15T22:57:12Z</time></trkpt>
<trkpt lat="46.2510833740234375" lon="7.9289331436157227"><ele></ele><time>2014-10-15T22:57:15Z</time></trkpt>
<trkpt lat="46.2511253356933594" lon="7.9288067817687988"><ele></ele><time>2014-10-15T22:57:18Z</time></trkpt>
<trkpt lat="46.2511596679687500" lon="7.9286046028137207"><ele></ele><time>2014-10-15T22:57:21Z</time></trkpt>
<trkpt lat="46.2511672973632812" lon="7.9284162521362305"><ele></ele><time>2014-10-15T22:57:24Z</time></trkpt>
<trkpt lat="46.2511787414550781" lon="7.9283380508422852"><ele></ele><time>2014-10-15T22:57:27Z</time></trkpt>
<trkpt lat="46.2512054443359375" lon="7.9283103942871094"><ele></ele><time>2014-10-15T22:57:30Z</time></trkpt>
<trkpt lat="46.2512931823730469" lon="7.9282312393188477"><ele></ele><time>2014-10-15T22:57:33Z</time></trkpt>
<trkpt lat="46.2513999938964844" lon="7.9281702041625977"><ele></ele><time>2014-10-15T22:57:36Z</time></trkpt>
<trkpt lat="46.2514724731445312" lon="7.9281067848205566"><ele></ele><time>2014-10-15T22:57:39Z</time></trkpt>
<trkpt lat="46.2515754699707031" lon="7.9278955459594727"><ele></ele><time>2014-10-15T22:57:42Z</time></trkpt>
<trkpt lat="46.2516365051269531" lon="7.9277410507202148"><ele></ele><time>2014-10-15T22:57:45Z</time></trkpt>
<trkpt lat="46.2517166137695312" lon="7.9275298118591309"><ele></ele><time>2014-10-15T22:57:48Z</time></trkpt>
<trkpt lat="46.2517700195312500" lon="7.9273939132690430"><ele></ele><time>2014-10-15T22:57:51Z</time></trkpt>
<trkpt lat="46.2518997192382812" lon="7.9272747039794922"><ele></ele><time>2014-10-15T22:57:54Z</time></trkpt>
<trkpt lat="46.2520523071289062" lon="7.9272756576538086"><ele></ele><time>2014-10-15T22:57:57Z</time></trkpt>
<trkpt lat="46.2522926330566406" lon="7.9272284507751465"><ele></ele><time>2014-10-15T22:58:0Z</time></trkpt>
<trkpt lat="46.2524681091308594" lon="7.9268965721130371"><ele></ele><time>2014-10-15T22:58:3Z</time></trkpt>
<trkpt lat="46.2525901794433594" lon="7.9267401695251465"><ele></ele><time>2014-10-15T22:58:6Z</time></trkpt>
<trkpt lat="46.2528266906738281" lon="7.9265294075012207"><ele></ele><time>2014-10-15T22:58:9Z</time></trkpt>
<trkpt lat="46.2531242370605469" lon="7.9263362884521484"><ele></ele><time>2014-10-15T22:58:12Z</time></trkpt>
<trkpt lat="46.2534141540527344" lon="7.9261527061462402"><ele></ele><time>2014-10-15T22:58:15Z</time></trkpt>
<trkpt lat="46.2536659240722656" lon="7.9259982109069824"><ele></ele><time>2014-10-15T22:58:18Z</time></trkpt>
<trkpt lat="46.2538642883300781" lon="7.9259552955627441"><ele></ele><time>2014-10-15T22:58:21Z</time></trkpt>
<trkpt lat="46.2540016174316406" lon="7.9258522987365723"><ele></ele><time>2014-10-15T22:58:24Z</time></trkpt>
<trkpt lat="46.2540740966796875" lon="7.9257397651672363"><ele></ele><time>2014-10-15T22:58:27Z</time></trkpt>
<trkpt lat="46.2542762756347656" lon="7.9255175590515137"><ele></ele><time>2014-10-15T22:58:30Z</time></trkpt>
<trkpt lat="46.2544136047363281" lon="7.9253768920898438"><ele></ele><time>2014-10-15T22:58:33Z</time></trkpt>
<trkpt lat="46.2545166015625000" lon="7.9252071380615234"><ele></ele><time>2014-10-15T22:58:36Z</time></trkpt>
<trkpt lat="46.2546005249023438" lon="7.9251031875610352"><ele></ele><time>2014-10-15T22:58:39Z</time></trkpt>
<trkpt lat="46.2546310424804688" lon="7.9250326156616211"><ele></ele><time>2014-10-15T22:58:42Z</time></trkpt>
<trkpt lat="46.2547340393066406" lon="7.9248847961425781"><ele></ele><time>2014-10-15T22:58:45Z</time></trkpt>
<trkpt lat="46.2547988891601562" lon="7.9248089790344238"><ele></ele><time>2014-10-15T22:58:48Z</time></trkpt>
<trkpt lat="46.2548904418945312" lon="7.9246921539306641"><ele></ele><time>2014-10-15T22:58:51Z</time></trkpt>
<trkpt lat="46.2549667358398438" lon="7.9245862960815430"><ele></ele><time>2014-10-15T22:58:54Z</time></trkpt>
<trkpt lat="46.2550354003906250" lon="7.9244995117187500"><ele></ele><time>2014-10-15T22:58:57Z</time></trkpt>
<trkpt lat="46.2550811767578125" lon="7.9243416786193848"><ele></ele><time>2014-10-15T22:59:0Z</time></trkpt>
<trkpt lat="46.2551574707031250" lon="7.9241952896118164"><ele></ele><time>2014-10-15T22:59:3Z</time></trkpt>
<trkpt lat="46.2552566528320312" lon="7.9241008758544922"><ele></ele><time>2014-10-15T22:59:6Z</time></trkpt>
<trkpt lat="46.2553176879882812" lon="7.9239988327026367"><ele></ele><time>2014-10-15T22:59:9Z</time></trkpt>
<trkpt lat="46.2552909851074219" lon="7.9239172935485840"><ele></ele><time>2014-10-15T22:59:12Z</time></trkpt>
<trkpt lat="46.2553367614746094" lon="7.9238815307617188"><ele></ele><time>2014-10-15T22:59:15Z</time></trkpt>
<trkpt lat="46.2554397583007812" lon="7.9237756729125977"><ele></ele><time>2014-10-15T22:59:18Z</time></trkpt>
<trkpt lat="46.2555351257324219" lon="7.9235863685607910"><ele></ele><time>2014-10-15T22:59:21Z</time></trkpt>
<trkpt lat="46.2555923461914062" lon="7.9233870506286621"><ele></ele><time>2014-10-15T22:59:24Z</time></trkpt>
<trkpt lat="46.2556877136230469" lon="7.9232678413391113"><ele></ele><time>2014-10-15T22:59:27Z</time></trkpt>
<trkpt lat="46.2556991577148438" lon="7.9232726097106934"><ele></ele><time>2014-10-15T22:59:30Z</time></trkpt>
<trkpt lat="46.2556991577148438" lon="7.9232864379882812"><ele></ele><time>2014-10-15T22:59:33Z</time></trkpt>
<trkpt lat="46.2556228637695312" lon="7.9232296943664551"><ele></ele><time>2014-10-15T22:59:36Z</time></trkpt>
<trkpt lat="46.2556190490722656" lon="7.9232535362243652"><ele></ele><time>2014-10-15T22:59:39Z</time></trkpt>
<trkpt lat="46.2556762695312500" lon="7.9233083724975586"><ele></ele><time>2014-10-15T22:59:42Z</time></trkpt>
<trkpt lat="46.2556953430175781" lon="7.9233016967773438"><ele></ele><time>2014-10-15T22:59:45Z</time></trkpt>
<trkpt lat="46.2557067871093750" lon="7.9232907295227051"><ele></ele><time>2014-10-15T22:59:48Z</time></trkpt>
<trkpt lat="46.2557220458984375" lon="7.9229431152343750"><ele></ele><time>2014-10-15T22:59:51Z</time></trkpt>
<trkpt lat="46.2558441162109375" lon="7.9226884841918945"><ele></ele><time>2014-10-15T22:59:54Z</time></trkpt>
<trkpt lat="46.2559509277343750" lon="7.9223814010620117"><ele></ele><time>2014-10-15T22:59:57Z</time></trkpt>
<trkpt lat="46.2560348510742188" lon="7.9220757484436035"><ele></ele><time>2014-10-15T23:0:0Z</time></trkpt>
<trkpt lat="46.2562026977539062" lon="7.9218821525573730"><ele></ele><time>2014-10-15T23:0:3Z</time></trkpt>
<trkpt lat="46.2562828063964844" lon="7.9216928482055664"><ele></ele><time>2014-10-15T23:0:6Z</time></trkpt>
<trkpt lat="46.2562866210937500" lon="7.9216156005859375"><ele></ele><time>2014-10-15T23:0:9Z</time></trkpt>
<trkpt lat="46.2561798095703125" lon="7.9214673042297363"><ele></ele><time>2014-10-15T23:0:12Z</time></trkpt>
<trkpt lat="46.2560043334960938" lon="7.9212365150451660"><ele></ele><time>2014-10-15T23:0:15Z</time></trkpt>
<trkpt lat="46.2558479309082031" lon="7.9209828376770020"><ele></ele><time>2014-10-15T23:0:18Z</time></trkpt>
<trkpt lat="46.2557334899902344" lon="7.9208288192749023"><ele></ele><time>2014-10-15T23:0:21Z</time></trkpt>
<trkpt lat="46.2555389404296875" lon="7.9206752777099609"><ele></ele><time>2014-10-15T23:0:24Z</time></trkpt>
<trkpt lat="46.2554092407226562" lon="7.9205789566040039"><ele></ele><time>2014-10-15T23:0:27Z</time></trkpt>
<trkpt lat="46.2552642822265625" lon="7.9204540252685547"><ele></ele><time>2014-10-15T23:0:30Z</time></trkpt>
<trkpt lat="46.2550811767578125" lon="7.9202513694763184"><ele></ele><time>2014-10-15T23:0:33Z</time></trkpt>
<trkpt lat="46.2550239562988281" lon="7.9201846122741699"><ele></ele><time>2014-10-15T23:0:36Z</time></trkpt>
<trkpt lat="46.2550430297851562" lon="7.9201359748840332"><ele></ele><time>2014-10-15T23:0:39Z</time></trkpt>
<trkpt lat="46.2551078796386719" lon="7.9201564788818359"><ele></ele><time>2014-10-15T23:0:42Z</time></trkpt>
<trkpt lat="46.2552185058593750" lon="7.9201827049255371"><ele></ele><time>2014-10-15T23:0:45Z</time></trkpt>
<trkpt lat="46.2553596496582031" lon="7.9201517105102539"><ele></ele><time>2014-10-15T23:0:48Z</time></trkpt>
<trkpt lat="46.2554512023925781" lon="7.9201130867004395"><ele></ele><time>2014-10-15T23:0:51Z</time></trkpt>
<trkpt lat="46.2555618286132812" lon="7.9201030731201172"><ele></ele><time>2014-10-15T23:0:54Z</time></trkpt>
<trkpt lat="46.2556838989257812" lon="7.9201755523681641"><ele></ele><time>2014-10-15T23:0:57Z</time></trkpt>
<trkpt lat="46.2558250427246094" lon="7.9202518463134766"><ele></ele><time>2014-10-15T23:1:0Z</time></trkpt>
<trkpt lat="46.2559013366699219" lon="7.9202666282653809"><ele></ele><time>2014-10-15T23:1:3Z</time></trkpt>
<trkpt lat="46.2559700012207031" lon="7.9202752113342285"><ele></ele><time>2014-10-15T23:1:6Z</time></trkpt>
<trkpt lat="46.2560882568359375" lon="7.9202976226806641"><ele></ele><time>2014-10-15T23:1:9Z</time></trkpt>
<trkpt lat="46.2561759948730469" lon="7.9203243255615234"><ele></ele><time>2014-10-15T23:1:12Z</time></trkpt>
<trkpt lat="46.2562980651855469" lon="7.9203882217407227"><ele></ele><time>2014-10-15T23:1:15Z</time></trkpt>
<trkpt lat="46.2564086914062500" lon="7.9204883575439453"><ele></ele><time>2014-10-15T23:1:18Z</time></trkpt>
<trkpt lat="46.2564773559570312" lon="7.9205579757690430"><ele></ele><time>2014-10-15T23:1:21Z</time></trkpt>
<trkpt lat="46.2566032409667969" lon="7.9206132888793945"><ele></ele><time>2014-10-15T23:1:24Z</time></trkpt>
<trkpt lat="46.2567176818847656" lon="7.9207124710083008"><ele></ele><time>2014-10-15T23:1:27Z</time></trkpt>
<trkpt lat="46.2568588256835938" lon="7.9207792282104492"><ele></ele><time>2014-10-15T23:1:30Z</time></trkpt>
<trkpt lat="46.2569694519042969" lon="7.9208335876464844"><ele></ele><time>2014-10-15T23:1:33Z</time></trkpt>
<trkpt lat="46.2571105957031250" lon="7.9209237098693848"><ele></ele><time>2014-10-15T23:1:36Z</time></trkpt>
<trkpt lat="46.2571945190429688" lon="7.9209747314453125"><ele></ele><time>2014-10-15T23:1:39Z</time></trkpt>
<trkpt lat="46.2572860717773438" lon="7.9209914207458496"><ele></ele><time>2014-10-15T23:1:42Z</time></trkpt>
<trkpt lat="46.2573699951171875" lon="7.9210309982299805"><ele></ele><time>2014-10-15T23:1:45Z</time></trkpt>
<trkpt lat="46.2574424743652344" lon="7.9210858345031738"><ele></ele><time>2014-10-15T23:1:48Z</time></trkpt>
<trkpt lat="46.2575035095214844" lon="7.9210968017578125"><ele></ele><time>2014-10-15T23:1:51Z</time></trkpt>
<trkpt lat="46.2576026916503906" lon="7.9210991859436035"><ele></ele><time>2014-10-15T23:1:54Z</time></trkpt>
<trkpt lat="46.2576713562011719" lon="7.9211068153381348"><ele></ele><time>2014-10-15T23:1:57Z</time></trkpt>
<trkpt lat="46.2577285766601562" lon="7.9211311340332031"><ele></ele><time>2014-10-15T23:2:0Z</time></trkpt>
<trkpt lat="46.2578086853027344" lon="7.9211506843566895"><ele></ele><time>2014-10-15T23:2:3Z</time></trkpt>
<trkpt lat="46.2578659057617188" lon="7.9210925102233887"><ele></ele><time>2014-10-15T23:2:6Z</time></trkpt>
<trkpt lat="46.2579460144042969" lon="7.9210147857666016"><ele></ele><time>2014-10-15T23:2:9Z</time></trkpt>
<trkpt lat="46.2580757141113281" lon="7.9209666252136230"><ele></ele><time>2014-10-15T23:2:12Z</time></trkpt>
<trkpt lat="46.2581710815429688" lon="7.9209866523742676"><ele></ele><time>2014-10-15T23:2:15Z</time></trkpt>
<trkpt lat="46.2583122253417969" lon="7.9210271835327148"><ele></ele><time>2014-10-15T23:2:18Z</time></trkpt>
<trkpt lat="46.2584533691406250" lon="7.9209833145141602"><ele></ele><time>2014-10-15T23:2:21Z</time></trkpt>
<trkpt lat="46.2585906982421875" lon="7.9209837913513184"><ele></ele><time>2014-10-15T23:2:24Z</time></trkpt>
<trkpt lat="46.2586288452148438" lon="7.9210271835327148"><ele></ele><time>2014-10-15T23:2:27Z</time></trkpt>
<trkpt lat="46.2586669921875000" lon="7.9211397171020508"><ele></ele><time>2014-10-15T23:2:30Z</time></trkpt>
<trkpt lat="46.2588043212890625" lon="7.9211955070495605"><ele></ele><time>2014-10-15T23:2:33Z</time></trkpt>
<trkpt lat="46.2589950561523438" lon="7.9211974143981934"><ele></ele><time>2014-10-15T23:2:36Z</time></trkpt>
<trkpt lat="46.2591133117675781" lon="7.9211225509643555"><ele></ele><time>2014-10-15T23:2:39Z</time></trkpt>
<trkpt lat="46.2592506408691406" lon="7.9209184646606445"><ele></ele><time>2014-10-15T23:2:42Z</time></trkpt>
<trkpt lat="46.2593193054199219" lon="7.9207677841186523"><ele></ele><time>2014-10-15T23:2:45Z</time></trkpt>
<trkpt lat="46.2593231201171875" lon="7.9204654693603516"><ele></ele><time>2014-10-15T23:2:48Z</time></trkpt>
<trkpt lat="46.2592468261718750" lon="7.9202284812927246"><ele></ele><time>2014-10-15T23:2:51Z</time></trkpt>
<trkpt lat="46.2593002319335938" lon="7.9201354980468750"><ele></ele><time>2014-10-15T23:2:54Z</time></trkpt>
<trkpt lat="46.2593765258789062" lon="7.9200835227966309"><ele></ele><time>2014-10-15T23:2:57Z</time></trkpt>
<trkpt lat="46.2594108581542969" lon="7.9200229644775391"><ele></ele><time>2014-10-15T23:3:0Z</time></trkpt>
<trkpt lat="46.2594261169433594" lon="7.9199748039245605"><ele></ele><time>2014-10-15T23:3:3Z</time></trkpt>
<trkpt lat="46.2594871520996094" lon="7.9199147224426270"><ele></ele><time>2014-10-15T23:3:6Z</time></trkpt>
<trkpt lat="46.2595710754394531" lon="7.9199199676513672"><ele></ele><time>2014-10-15T23:3:9Z</time></trkpt>
<trkpt lat="46.2596473693847656" lon="7.9199442863464355"><ele></ele><time>2014-10-15T23:3:12Z</time></trkpt>
<trkpt lat="46.2597007751464844" lon="7.9199476242065430"><ele></ele><time>2014-10-15T23:3:15Z</time></trkpt>
<trkpt lat="46.2597846984863281" lon="7.9198713302612305"><ele></ele><time>2014-10-15T23:3:18Z</time></trkpt>
<trkpt lat="46.2598266601562500" lon="7.9198102951049805"><ele></ele><time>2014-10-15T23:3:21Z</time></trkpt>
<trkpt lat="46.2598953247070312" lon="7.9195532798767090"><ele></ele><time>2014-10-15T23:3:24Z</time></trkpt>
<trkpt lat="46.2599258422851562" lon="7.9184579849243164"><ele></ele><time>2014-10-15T23:3:27Z</time></trkpt>
<trkpt lat="46.2600440979003906" lon="7.9182925224304199"><ele></ele><time>2014-10-15T23:3:30Z</time></trkpt>
<trkpt lat="46.2601509094238281" lon="7.9181156158447266"><ele></ele><time>2014-10-15T23:3:33Z</time></trkpt>
<trkpt lat="46.2602195739746094" lon="7.9177942276000977"><ele></ele><time>2014-10-15T23:3:36Z</time></trkpt>
<trkpt lat="46.2603912353515625" lon="7.9175114631652832"><ele></ele><time>2014-10-15T23:3:39Z</time></trkpt>
<trkpt lat="46.2602996826171875" lon="7.9171829223632812"><ele></ele><time>2014-10-15T23:3:42Z</time></trkpt>
<trkpt lat="46.2603416442871094" lon="7.9167914390563965"><ele></ele><time>2014-10-15T23:3:45Z</time></trkpt>
<trkpt lat="46.2603874206542969" lon="7.9165143966674805"><ele></ele><time>2014-10-15T23:3:48Z</time></trkpt>
<trkpt lat="46.2604942321777344" lon="7.9164323806762695"><ele></ele><time>2014-10-15T23:3:51Z</time></trkpt>
<trkpt lat="46.2605628967285156" lon="7.9164214134216309"><ele></ele><time>2014-10-15T23:3:54Z</time></trkpt>
<trkpt lat="46.2606124877929688" lon="7.9163484573364258"><ele></ele><time>2014-10-15T23:3:57Z</time></trkpt>
<trkpt lat="46.2606353759765625" lon="7.9161391258239746"><ele></ele><time>2014-10-15T23:4:0Z</time></trkpt>
<trkpt lat="46.2606468200683594" lon="7.9158945083618164"><ele></ele><time>2014-10-15T23:4:3Z</time></trkpt>
<trkpt lat="46.2607574462890625" lon="7.9156985282897949"><ele></ele><time>2014-10-15T23:4:6Z</time></trkpt>
<trkpt lat="46.2608375549316406" lon="7.9155364036560059"><ele></ele><time>2014-10-15T23:4:9Z</time></trkpt>
<trkpt lat="46.2609291076660156" lon="7.9152250289916992"><ele></ele><time>2014-10-15T23:4:12Z</time></trkpt>
<trkpt lat="46.2609863281250000" lon="7.9149713516235352"><ele></ele><time>2014-10-15T23:4:15Z</time></trkpt>
<trkpt lat="46.2611122131347656" lon="7.9146800041198730"><ele></ele><time>2014-10-15T23:4:18Z</time></trkpt>
<trkpt lat="46.2612113952636719" lon="7.9144425392150879"><ele></ele><time>2014-10-15T23:4:21Z</time></trkpt>
<trkpt lat="46.2612113952636719" lon="7.9142575263977051"><ele></ele><time>2014-10-15T23:4:24Z</time></trkpt>
<trkpt lat="46.2612075805664062" lon="7.9141020774841309"><ele></ele><time>2014-10-15T23:4:27Z</time></trkpt>
<trkpt lat="46.2612762451171875" lon="7.9140620231628418"><ele></ele><time>2014-10-15T23:4:30Z</time></trkpt>
<trkpt lat="46.2613754272460938" lon="7.9139852523803711"><ele></ele><time>2014-10-15T23:4:33Z</time></trkpt>
<trkpt lat="46.2613410949707031" lon="7.9138026237487793"><ele></ele><time>2014-10-15T23:4:36Z</time></trkpt>
<trkpt lat="46.2613105773925781" lon="7.9137115478515625"><ele></ele><time>2014-10-15T23:4:39Z</time></trkpt>
<trkpt lat="46.2613487243652344" lon="7.9136185646057129"><ele></ele><time>2014-10-15T23:4:42Z</time></trkpt>
<trkpt lat="46.2615318298339844" lon="7.9135413169860840"><ele></ele><time>2014-10-15T23:4:45Z</time></trkpt>
<trkpt lat="46.2617912292480469" lon="7.9135613441467285"><ele></ele><time>2014-10-15T23:4:48Z</time></trkpt>
<trkpt lat="46.2619934082031250" lon="7.9138584136962891"><ele></ele><time>2014-10-15T23:4:51Z</time></trkpt>
<trkpt lat="46.2620925903320312" lon="7.9141697883605957"><ele></ele><time>2014-10-15T23:4:54Z</time></trkpt>
<trkpt lat="46.2621650695800781" lon="7.9144043922424316"><ele></ele><time>2014-10-15T23:4:57Z</time></trkpt>
<trkpt lat="46.2622146606445312" lon="7.9145689010620117"><ele></ele><time>2014-10-15T23:5:0Z</time></trkpt>
<trkpt lat="46.2622566223144531" lon="7.9147610664367676"><ele></ele><time>2014-10-15T23:5:3Z</time></trkpt>
<trkpt lat="46.2622795104980469" lon="7.9150834083557129"><ele></ele><time>2014-10-15T23:5:6Z</time></trkpt>
<trkpt lat="46.2622985839843750" lon="7.9152855873107910"><ele></ele><time>2014-10-15T23:5:9Z</time></trkpt>
<trkpt lat="46.2623863220214844" lon="7.9155259132385254"><ele></ele><time>2014-10-15T23:5:12Z</time></trkpt>
<trkpt lat="46.2624244689941406" lon="7.9157342910766602"><ele></ele><time>2014-10-15T23:5:15Z</time></trkpt>
<trkpt lat="46.2624015808105469" lon="7.9158830642700195"><ele></ele><time>2014-10-15T23:5:18Z</time></trkpt>
<trkpt lat="46.2623939514160156" lon="7.9161224365234375"><ele></ele><time>2014-10-15T23:5:21Z</time></trkpt>
<trkpt lat="46.2624397277832031" lon="7.9163336753845215"><ele></ele><time>2014-10-15T23:5:24Z</time></trkpt>
<trkpt lat="46.2624549865722656" lon="7.9164762496948242"><ele></ele><time>2014-10-15T23:5:27Z</time></trkpt>
<trkpt lat="46.2624511718750000" lon="7.9166831970214844"><ele></ele><time>2014-10-15T23:5:30Z</time></trkpt>
<trkpt lat="46.2624549865722656" lon="7.9167242050170898"><ele></ele><time>2014-10-15T23:5:33Z</time></trkpt>
<trkpt lat="46.2624473571777344" lon="7.9165701866149902"><ele></ele><time>2014-10-15T23:5:36Z</time></trkpt>
<trkpt lat="46.2625198364257812" lon="7.9157552719116211"><ele></ele><time>2014-10-15T23:5:39Z</time></trkpt>
<trkpt lat="46.2625312805175781" lon="7.9154944419860840"><ele></ele><time>2014-10-15T23:5:42Z</time></trkpt>
<trkpt lat="46.2626075744628906" lon="7.9155154228210449"><ele></ele><time>2014-10-15T23:5:45Z</time></trkpt>
<trkpt lat="46.2625846862792969" lon="7.9156050682067871"><ele></ele><time>2014-10-15T23:5:48Z</time></trkpt>
<trkpt lat="46.2625465393066406" lon="7.9156875610351562"><ele></ele><time>2014-10-15T23:5:51Z</time></trkpt>
<trkpt lat="46.2625236511230469" lon="7.9158029556274414"><ele></ele><time>2014-10-15T23:5:54Z</time></trkpt>
<trkpt lat="46.2625236511230469" lon="7.9159183502197266"><ele></ele><time>2014-10-15T23:5:57Z</time></trkpt>
<trkpt lat="46.2625198364257812" lon="7.9159936904907227"><ele></ele><time>2014-10-15T23:6:0Z</time></trkpt>
<trkpt lat="46.2625083923339844" lon="7.9160752296447754"><ele></ele><time>2014-10-15T23:6:3Z</time></trkpt>
<trkpt lat="46.2625083923339844" lon="7.9161620140075684"><ele></ele><time>2014-10-15T23:6:6Z</time></trkpt>
<trkpt lat="46.2625198364257812" lon="7.9162502288818359"><ele></ele><time>2014-10-15T23:6:9Z</time></trkpt>
<trkpt lat="46.2625350952148438" lon="7.9163298606872559"><ele></ele><time>2014-10-15T23:6:12Z</time></trkpt>
<trkpt lat="46.2625274658203125" lon="7.9164476394653320"><ele></ele><time>2014-10-15T23:6:15Z</time></trkpt>
<trkpt lat="46.2625312805175781" lon="7.9165554046630859"><ele></ele><time>2014-10-15T23:6:18Z</time></trkpt>
<trkpt lat="46.2625389099121094" lon="7.9166269302368164"><ele></ele><time>2014-10-15T23:6:21Z</time></trkpt>
<trkpt lat="46.2625350952148438" lon="7.9167008399963379"><ele></ele><time>2014-10-15T23:6:24Z</time></trkpt>
<trkpt lat="46.2625236511230469" lon="7.9168157577514648"><ele></ele><time>2014-10-15T23:6:27Z</time></trkpt>
<trkpt lat="46.2625007629394531" lon="7.9169278144836426"><ele></ele><time>2014-10-15T23:6:30Z</time></trkpt>
<trkpt lat="46.2624702453613281" lon="7.9170575141906738"><ele></ele><time>2014-10-15T23:6:33Z</time></trkpt>
<trkpt lat="46.2624626159667969" lon="7.9171490669250488"><ele></ele><time>2014-10-15T23:6:36Z</time></trkpt>
<trkpt lat="46.2624702453613281" lon="7.9172334671020508"><ele></ele><time>2014-10-15T23:6:39Z</time></trkpt>
<trkpt lat="46.2624549865722656" lon="7.9173655509948730"><ele></ele><time>2014-10-15T23:6:42Z</time></trkpt>
<trkpt lat="46.2624168395996094" lon="7.9175510406494141"><ele></ele><time>2014-10-15T23:6:45Z</time></trkpt>
<trkpt lat="46.2623786926269531" lon="7.9176692962646484"><ele></ele><time>2014-10-15T23:6:48Z</time></trkpt>
<trkpt lat="46.2623252868652344" lon="7.9177665710449219"><ele></ele><time>2014-10-15T23:6:51Z</time></trkpt>
<trkpt lat="46.2622642517089844" lon="7.9179248809814453"><ele></ele><time>2014-10-15T23:6:54Z</time></trkpt>
<trkpt lat="46.2622566223144531" lon="7.9181189537048340"><ele></ele><time>2014-10-15T23:6:57Z</time></trkpt>
<trkpt lat="46.2622032165527344" lon="7.9183731079101562"><ele></ele><time>2014-10-15T23:7:0Z</time></trkpt>
<trkpt lat="46.2621841430664062" lon="7.9186539649963379"><ele></ele><time>2014-10-15T23:7:3Z</time></trkpt>
<trkpt lat="46.2622032165527344" lon="7.9189419746398926"><ele></ele><time>2014-10-15T23:7:6Z</time></trkpt>
<trkpt lat="46.2621383666992188" lon="7.9191904067993164"><ele></ele><time>2014-10-15T23:7:9Z</time></trkpt>
<trkpt lat="46.2620353698730469" lon="7.9194045066833496"><ele></ele><time>2014-10-15T23:7:12Z</time></trkpt>
<trkpt lat="46.2620544433593750" lon="7.9196567535400391"><ele></ele><time>2014-10-15T23:7:15Z</time></trkpt>
<trkpt lat="46.2621383666992188" lon="7.9197988510131836"><ele></ele><time>2014-10-15T23:7:18Z</time></trkpt>
<trkpt lat="46.2622222900390625" lon="7.9200248718261719"><ele></ele><time>2014-10-15T23:7:21Z</time></trkpt>
<trkpt lat="46.2622642517089844" lon="7.9202704429626465"><ele></ele><time>2014-10-15T23:7:24Z</time></trkpt>
<trkpt lat="46.2622909545898438" lon="7.9205369949340820"><ele></ele><time>2014-10-15T23:7:27Z</time></trkpt>
<trkpt lat="46.2622909545898438" lon="7.9208579063415527"><ele></ele><time>2014-10-15T23:7:30Z</time></trkpt>
<trkpt lat="46.2623519897460938" lon="7.9209794998168945"><ele></ele><time>2014-10-15T23:7:33Z</time></trkpt>
<trkpt lat="46.2624855041503906" lon="7.9208102226257324"><ele></ele><time>2014-10-15T23:7:36Z</time></trkpt>
<trkpt lat="46.2625656127929688" lon="7.9206452369689941"><ele></ele><time>2014-10-15T23:7:39Z</time></trkpt>
<trkpt lat="46.2626876831054688" lon="7.9204320907592773"><ele></ele><time>2014-10-15T23:7:42Z</time></trkpt>
<trkpt lat="46.2627868652343750" lon="7.9202871322631836"><ele></ele><time>2014-10-15T23:7:45Z</time></trkpt>
<trkpt lat="46.2629470825195312" lon="7.9200549125671387"><ele></ele><time>2014-10-15T23:7:48Z</time></trkpt>
<trkpt lat="46.2632293701171875" lon="7.9195671081542969"><ele></ele><time>2014-10-15T23:7:51Z</time></trkpt>
<trkpt lat="46.2633247375488281" lon="7.9194254875183105"><ele></ele><time>2014-10-15T23:7:54Z</time></trkpt>
<trkpt lat="46.2634620666503906" lon="7.9194593429565430"><ele></ele><time>2014-10-15T23:7:57Z</time></trkpt>
<trkpt lat="46.2636032104492188" lon="7.9194941520690918"><ele></ele><time>2014-10-15T23:8:0Z</time></trkpt>
<trkpt lat="46.2636337280273438" lon="7.9192886352539062"><ele></ele><time>2014-10-15T23:8:3Z</time></trkpt>
<trkpt lat="46.2635841369628906" lon="7.9189362525939941"><ele></ele><time>2014-10-15T23:8:6Z</time></trkpt>
<trkpt lat="46.2636375427246094" lon="7.9187374114990234"><ele></ele><time>2014-10-15T23:8:9Z</time></trkpt>
<trkpt lat="46.2638587951660156" lon="7.9184875488281250"><ele></ele><time>2014-10-15T23:8:12Z</time></trkpt>
<trkpt lat="46.2640838623046875" lon="7.9182128906250000"><ele></ele><time>2014-10-15T23:8:15Z</time></trkpt>
<trkpt lat="46.2642631530761719" lon="7.9180316925048828"><ele></ele><time>2014-10-15T23:8:18Z</time></trkpt>
<trkpt lat="46.2645263671875000" lon="7.9177613258361816"><ele></ele><time>2014-10-15T23:8:21Z</time></trkpt>
<trkpt lat="46.2647056579589844" lon="7.9175491333007812"><ele></ele><time>2014-10-15T23:8:24Z</time></trkpt>
<trkpt lat="46.2648925781250000" lon="7.9173727035522461"><ele></ele><time>2014-10-15T23:8:27Z</time></trkpt>
<trkpt lat="46.2652206420898438" lon="7.9171924591064453"><ele></ele><time>2014-10-15T23:8:30Z</time></trkpt>
<trkpt lat="46.2654762268066406" lon="7.9169135093688965"><ele></ele><time>2014-10-15T23:8:33Z</time></trkpt>
<trkpt lat="46.2656402587890625" lon="7.9167237281799316"><ele></ele><time>2014-10-15T23:8:36Z</time></trkpt>
<trkpt lat="46.2658424377441406" lon="7.9165759086608887"><ele></ele><time>2014-10-15T23:8:39Z</time></trkpt>
<trkpt lat="46.2661514282226562" lon="7.9164066314697266"><ele></ele><time>2014-10-15T23:8:42Z</time></trkpt>
<trkpt lat="46.2663383483886719" lon="7.9162473678588867"><ele></ele><time>2014-10-15T23:8:45Z</time></trkpt>
<trkpt lat="46.2665481567382812" lon="7.9159054756164551"><ele></ele><time>2014-10-15T23:8:48Z</time></trkpt>
<trkpt lat="46.2668075561523438" lon="7.9156661033630371"><ele></ele><time>2014-10-15T23:8:51Z</time></trkpt>
<trkpt lat="46.2669219970703125" lon="7.9153385162353516"><ele></ele><time>2014-10-15T23:8:54Z</time></trkpt>
<trkpt lat="46.2669601440429688" lon="7.9149503707885742"><ele></ele><time>2014-10-15T23:8:57Z</time></trkpt>
<trkpt lat="46.2672424316406250" lon="7.9146885871887207"><ele></ele><time>2014-10-15T23:9:0Z</time></trkpt>
<trkpt lat="46.2674903869628906" lon="7.9144363403320312"><ele></ele><time>2014-10-15T23:9:3Z</time></trkpt>
<trkpt lat="46.2677078247070312" lon="7.9139933586120605"><ele></ele><time>2014-10-15T23:9:6Z</time></trkpt>
<trkpt lat="46.2678527832031250" lon="7.9137077331542969"><ele></ele><time>2014-10-15T23:9:9Z</time></trkpt>
<trkpt lat="46.2679977416992188" lon="7.9134192466735840"><ele></ele><time>2014-10-15T23:9:12Z</time></trkpt>
<trkpt lat="46.2681388854980469" lon="7.9131379127502441"><ele></ele><time>2014-10-15T23:9:15Z</time></trkpt>
<trkpt lat="46.2683448791503906" lon="7.9128885269165039"><ele></ele><time>2014-10-15T23:9:18Z</time></trkpt>
<trkpt lat="46.2684707641601562" lon="7.9129085540771484"><ele></ele><time>2014-10-15T23:9:21Z</time></trkpt>
<trkpt lat="46.2686004638671875" lon="7.9131283760070801"><ele></ele><time>2014-10-15T23:9:24Z</time></trkpt>
<trkpt lat="46.2686805725097656" lon="7.9135403633117676"><ele></ele><time>2014-10-15T23:9:27Z</time></trkpt>
<trkpt lat="46.2687339782714844" lon="7.9137806892395020"><ele></ele><time>2014-10-15T23:9:30Z</time></trkpt>
<trkpt lat="46.2689056396484375" lon="7.9139881134033203"><ele></ele><time>2014-10-15T23:9:33Z</time></trkpt>
<trkpt lat="46.2691917419433594" lon="7.9138202667236328"><ele></ele><time>2014-10-15T23:9:36Z</time></trkpt>
<trkpt lat="46.2694549560546875" lon="7.9136495590209961"><ele></ele><time>2014-10-15T23:9:39Z</time></trkpt>
<trkpt lat="46.2697601318359375" lon="7.9136152267456055"><ele></ele><time>2014-10-15T23:9:42Z</time></trkpt>
<trkpt lat="46.2699317932128906" lon="7.9136204719543457"><ele></ele><time>2014-10-15T23:9:45Z</time></trkpt>
<trkpt lat="46.2700157165527344" lon="7.9137053489685059"><ele></ele><time>2014-10-15T23:9:48Z</time></trkpt>
<trkpt lat="46.2700309753417969" lon="7.9139895439147949"><ele></ele><time>2014-10-15T23:9:51Z</time></trkpt>
<trkpt lat="46.2701110839843750" lon="7.9141559600830078"><ele></ele><time>2014-10-15T23:9:54Z</time></trkpt>
<trkpt lat="46.2701835632324219" lon="7.9141759872436523"><ele></ele><time>2014-10-15T23:9:57Z</time></trkpt>
<trkpt lat="46.2703971862792969" lon="7.9139695167541504"><ele></ele><time>2014-10-15T23:10:0Z</time></trkpt>
<trkpt lat="46.2704582214355469" lon="7.9139189720153809"><ele></ele><time>2014-10-15T23:10:3Z</time></trkpt>
<trkpt lat="46.2705039978027344" lon="7.9138960838317871"><ele></ele><time>2014-10-15T23:10:6Z</time></trkpt>
<trkpt lat="46.2705955505371094" lon="7.9138717651367188"><ele></ele><time>2014-10-15T23:10:9Z</time></trkpt>
<trkpt lat="46.2707443237304688" lon="7.9138603210449219"><ele></ele><time>2014-10-15T23:10:12Z</time></trkpt>
<trkpt lat="46.2708244323730469" lon="7.9138793945312500"><ele></ele><time>2014-10-15T23:10:15Z</time></trkpt>
<trkpt lat="46.2709884643554688" lon="7.9139418601989746"><ele></ele><time>2014-10-15T23:10:18Z</time></trkpt>
<trkpt lat="46.2710914611816406" lon="7.9139714241027832"><ele></ele><time>2014-10-15T23:10:21Z</time></trkpt>
<trkpt lat="46.2712287902832031" lon="7.9139752388000488"><ele></ele><time>2014-10-15T23:10:24Z</time></trkpt>
<trkpt lat="46.2712974548339844" lon="7.9139523506164551"><ele></ele><time>2014-10-15T23:10:27Z</time></trkpt>
<trkpt lat="46.2714195251464844" lon="7.9138760566711426"><ele></ele><time>2014-10-15T23:10:30Z</time></trkpt>
<trkpt lat="46.2715911865234375" lon="7.9138140678405762"><ele></ele><time>2014-10-15T23:10:33Z</time></trkpt>
<trkpt lat="46.2716789245605469" lon="7.9138073921203613"><ele></ele><time>2014-10-15T23:10:36Z</time></trkpt>
<trkpt lat="46.2716941833496094" lon="7.9138236045837402"><ele></ele><time>2014-10-15T23:10:39Z</time></trkpt>
<trkpt lat="46.2719917297363281" lon="7.9144577980041504"><ele></ele><time>2014-10-15T23:10:42Z</time></trkpt>
<trkpt lat="46.2721328735351562" lon="7.9145464897155762"><ele></ele><time>2014-10-15T23:10:45Z</time></trkpt>
<trkpt lat="46.2722053527832031" lon="7.9145107269287109"><ele></ele><time>2014-10-15T23:10:48Z</time></trkpt>
<trkpt lat="46.2722740173339844" lon="7.9144229888916016"><ele></ele><time>2014-10-15T23:10:51Z</time></trkpt>
<trkpt lat="46.2723922729492188" lon="7.9142727851867676"><ele></ele><time>2014-10-15T23:10:54Z</time></trkpt>
<trkpt lat="46.2725296020507812" lon="7.9142374992370605"><ele></ele><time>2014-10-15T23:10:57Z</time></trkpt>
<trkpt lat="46.2726936340332031" lon="7.9143810272216797"><ele></ele><time>2014-10-15T23:11:0Z</time></trkpt>
<trkpt lat="46.2727546691894531" lon="7.9144949913024902"><ele></ele><time>2014-10-15T23:11:3Z</time></trkpt>
<trkpt lat="46.2728881835937500" lon="7.9146265983581543"><ele></ele><time>2014-10-15T23:11:6Z</time></trkpt>
<trkpt lat="46.2730140686035156" lon="7.9145545959472656"><ele></ele><time>2014-10-15T23:11:9Z</time></trkpt>
<trkpt lat="46.2731857299804688" lon="7.9144320487976074"><ele></ele><time>2014-10-15T23:11:12Z</time></trkpt>
<trkpt lat="46.2732849121093750" lon="7.9144182205200195"><ele></ele><time>2014-10-15T23:11:15Z</time></trkpt>
<trkpt lat="46.2734375000000000" lon="7.9145469665527344"><ele></ele><time>2014-10-15T23:11:18Z</time></trkpt>
<trkpt lat="46.2736015319824219" lon="7.9144988059997559"><ele></ele><time>2014-10-15T23:11:21Z</time></trkpt>
<trkpt lat="46.2737884521484375" lon="7.9145255088806152"><ele></ele><time>2014-10-15T23:11:24Z</time></trkpt>
<trkpt lat="46.2738838195800781" lon="7.9146161079406738"><ele></ele><time>2014-10-15T23:11:27Z</time></trkpt>
<trkpt lat="46.2740364074707031" lon="7.9147415161132812"><ele></ele><time>2014-10-15T23:11:30Z</time></trkpt>
<trkpt lat="46.2741928100585938" lon="7.9147415161132812"><ele></ele><time>2014-10-15T23:11:33Z</time></trkpt>
<trkpt lat="46.2743148803710938" lon="7.9146275520324707"><ele></ele><time>2014-10-15T23:11:36Z</time></trkpt>
<trkpt lat="46.2744369506835938" lon="7.9145293235778809"><ele></ele><time>2014-10-15T23:11:39Z</time></trkpt>
<trkpt lat="46.2745666503906250" lon="7.9144639968872070"><ele></ele><time>2014-10-15T23:11:42Z</time></trkpt>
<trkpt lat="46.2747230529785156" lon="7.9142947196960449"><ele></ele><time>2014-10-15T23:11:45Z</time></trkpt>
<trkpt lat="46.2747993469238281" lon="7.9141798019409180"><ele></ele><time>2014-10-15T23:11:48Z</time></trkpt>
<trkpt lat="46.2749290466308594" lon="7.9140405654907227"><ele></ele><time>2014-10-15T23:11:51Z</time></trkpt>
<trkpt lat="46.2750778198242188" lon="7.9140090942382812"><ele></ele><time>2014-10-15T23:11:54Z</time></trkpt>
<trkpt lat="46.2752113342285156" lon="7.9140167236328125"><ele></ele><time>2014-10-15T23:11:57Z</time></trkpt>
<trkpt lat="46.2753753662109375" lon="7.9140272140502930"><ele></ele><time>2014-10-15T23:12:0Z</time></trkpt>
<trkpt lat="46.2755622863769531" lon="7.9139528274536133"><ele></ele><time>2014-10-15T23:12:3Z</time></trkpt>
<trkpt lat="46.2757682800292969" lon="7.9138531684875488"><ele></ele><time>2014-10-15T23:12:6Z</time></trkpt>
<trkpt lat="46.2759399414062500" lon="7.9139513969421387"><ele></ele><time>2014-10-15T23:12:9Z</time></trkpt>
<trkpt lat="46.2761497497558594" lon="7.9140396118164062"><ele></ele><time>2014-10-15T23:12:12Z</time></trkpt>
<trkpt lat="46.2762756347656250" lon="7.9140920639038086"><ele></ele><time>2014-10-15T23:12:15Z</time></trkpt>
<trkpt lat="46.2764968872070312" lon="7.9141407012939453"><ele></ele><time>2014-10-15T23:12:18Z</time></trkpt>
<trkpt lat="46.2766227722167969" lon="7.9140777587890625"><ele></ele><time>2014-10-15T23:12:21Z</time></trkpt>
<trkpt lat="46.2767448425292969" lon="7.9140081405639648"><ele></ele><time>2014-10-15T23:12:24Z</time></trkpt>
<trkpt lat="46.2768402099609375" lon="7.9139976501464844"><ele></ele><time>2014-10-15T23:12:27Z</time></trkpt>
<trkpt lat="46.2770004272460938" lon="7.9139971733093262"><ele></ele><time>2014-10-15T23:12:30Z</time></trkpt>
<trkpt lat="46.2771797180175781" lon="7.9141416549682617"><ele></ele><time>2014-10-15T23:12:33Z</time></trkpt>
<trkpt lat="46.2772979736328125" lon="7.9142470359802246"><ele></ele><time>2014-10-15T23:12:36Z</time></trkpt>
<trkpt lat="46.2774314880371094" lon="7.9142503738403320"><ele></ele><time>2014-10-15T23:12:39Z</time></trkpt>
<trkpt lat="46.2775650024414062" lon="7.9142365455627441"><ele></ele><time>2014-10-15T23:12:42Z</time></trkpt>
<trkpt lat="46.2777481079101562" lon="7.9142279624938965"><ele></ele><time>2014-10-15T23:12:45Z</time></trkpt>
<trkpt lat="46.2778663635253906" lon="7.9142379760742188"><ele></ele><time>2014-10-15T23:12:48Z</time></trkpt>
<trkpt lat="46.2779769897460938" lon="7.9142541885375977"><ele></ele><time>2014-10-15T23:12:51Z</time></trkpt>
<trkpt lat="46.2781677246093750" lon="7.9142689704895020"><ele></ele><time>2014-10-15T23:12:54Z</time></trkpt>
<trkpt lat="46.2782859802246094" lon="7.9142684936523438"><ele></ele><time>2014-10-15T23:12:57Z</time></trkpt>
<trkpt lat="46.2784500122070312" lon="7.9143610000610352"><ele></ele><time>2014-10-15T23:13:0Z</time></trkpt>
<trkpt lat="46.2786216735839844" lon="7.9144797325134277"><ele></ele><time>2014-10-15T23:13:3Z</time></trkpt>
<trkpt lat="46.2787513732910156" lon="7.9145131111145020"><ele></ele><time>2014-10-15T23:13:6Z</time></trkpt>
<trkpt lat="46.2789573669433594" lon="7.9145579338073730"><ele></ele><time>2014-10-15T23:13:9Z</time></trkpt>
<trkpt lat="46.2791290283203125" lon="7.9146342277526855"><ele></ele><time>2014-10-15T23:13:12Z</time></trkpt>
<trkpt lat="46.2792015075683594" lon="7.9146876335144043"><ele></ele><time>2014-10-15T23:13:15Z</time></trkpt>
<trkpt lat="46.2792854309082031" lon="7.9147133827209473"><ele></ele><time>2014-10-15T23:13:18Z</time></trkpt>
<trkpt lat="46.2793960571289062" lon="7.9147062301635742"><ele></ele><time>2014-10-15T23:13:21Z</time></trkpt>
<trkpt lat="46.2794609069824219" lon="7.9147472381591797"><ele></ele><time>2014-10-15T23:13:24Z</time></trkpt>
<trkpt lat="46.2795639038085938" lon="7.9148397445678711"><ele></ele><time>2014-10-15T23:13:27Z</time></trkpt>
<trkpt lat="46.2796211242675781" lon="7.9149060249328613"><ele></ele><time>2014-10-15T23:13:30Z</time></trkpt>
<trkpt lat="46.2796592712402344" lon="7.9149951934814453"><ele></ele><time>2014-10-15T23:13:33Z</time></trkpt>
<trkpt lat="46.2796669006347656" lon="7.9150233268737793"><ele></ele><time>2014-10-15T23:13:36Z</time></trkpt>
<trkpt lat="46.2796554565429688" lon="7.9150390625000000"><ele></ele><time>2014-10-15T23:13:39Z</time></trkpt>
<trkpt lat="46.2796096801757812" lon="7.9150004386901855"><ele></ele><time>2014-10-15T23:13:42Z</time></trkpt>
<trkpt lat="46.2795677185058594" lon="7.9149060249328613"><ele></ele><time>2014-10-15T23:13:45Z</time></trkpt>
<trkpt lat="46.2795486450195312" lon="7.9148068428039551"><ele></ele><time>2014-10-15T23:13:48Z</time></trkpt>
<trkpt lat="46.2795295715332031" lon="7.9146265983581543"><ele></ele><time>2014-10-15T23:13:51Z</time></trkpt>
<trkpt lat="46.2795219421386719" lon="7.9144663810729980"><ele></ele><time>2014-10-15T23:13:54Z</time></trkpt>
<trkpt lat="46.2795372009277344" lon="7.9142408370971680"><ele></ele><time>2014-10-15T23:13:57Z</time></trkpt>
<trkpt lat="46.2795791625976562" lon="7.9140529632568359"><ele></ele><time>2014-10-15T23:14:0Z</time></trkpt>
<trkpt lat="46.2796401977539062" lon="7.9136791229248047"><ele></ele><time>2014-10-15T23:14:3Z</time></trkpt>
<trkpt lat="46.2797012329101562" lon="7.9132156372070312"><ele></ele><time>2014-10-15T23:14:6Z</time></trkpt>
<trkpt lat="46.2797508239746094" lon="7.9129343032836914"><ele></ele><time>2014-10-15T23:14:9Z</time></trkpt>
<trkpt lat="46.2798957824707031" lon="7.9126434326171875"><ele></ele><time>2014-10-15T23:14:12Z</time></trkpt>
<trkpt lat="46.2800140380859375" lon="7.9124698638916016"><ele></ele><time>2014-10-15T23:14:15Z</time></trkpt>
<trkpt lat="46.2800979614257812" lon="7.9124150276184082"><ele></ele><time>2014-10-15T23:14:18Z</time></trkpt>
<trkpt lat="46.2801666259765625" lon="7.9123415946960449"><ele></ele><time>2014-10-15T23:14:21Z</time></trkpt>
<trkpt lat="46.2802314758300781" lon="7.9122433662414551"><ele></ele><time>2014-10-15T23:14:24Z</time></trkpt>
<trkpt lat="46.2802772521972656" lon="7.9121780395507812"><ele></ele><time>2014-10-15T23:14:27Z</time></trkpt>
<trkpt lat="46.2804031372070312" lon="7.9120664596557617"><ele></ele><time>2014-10-15T23:14:30Z</time></trkpt>
<trkpt lat="46.2805023193359375" lon="7.9119610786437988"><ele></ele><time>2014-10-15T23:14:33Z</time></trkpt>
<trkpt lat="46.2805633544921875" lon="7.9118933677673340"><ele></ele><time>2014-10-15T23:14:36Z</time></trkpt>
<trkpt lat="46.2806434631347656" lon="7.9117708206176758"><ele></ele><time>2014-10-15T23:14:39Z</time></trkpt>
<trkpt lat="46.2807617187500000" lon="7.9115085601806641"><ele></ele><time>2014-10-15T23:14:42Z</time></trkpt>
<trkpt lat="46.2808456420898438" lon="7.9113197326660156"><ele></ele><time>2014-10-15T23:14:45Z</time></trkpt>
<trkpt lat="46.2808799743652344" lon="7.9110803604125977"><ele></ele><time>2014-10-15T23:14:48Z</time></trkpt>
<trkpt lat="46.2808647155761719" lon="7.9108295440673828"><ele></ele><time>2014-10-15T23:14:51Z</time></trkpt>
<trkpt lat="46.2809448242187500" lon="7.9105892181396484"><ele></ele><time>2014-10-15T23:14:54Z</time></trkpt>
<trkpt lat="46.2810173034667969" lon="7.9104385375976562"><ele></ele><time>2014-10-15T23:14:57Z</time></trkpt>
<trkpt lat="46.2811546325683594" lon="7.9102458953857422"><ele></ele><time>2014-10-15T23:15:0Z</time></trkpt>
<trkpt lat="46.2812232971191406" lon="7.9100990295410156"><ele></ele><time>2014-10-15T23:15:3Z</time></trkpt>
<trkpt lat="46.2813453674316406" lon="7.9099106788635254"><ele></ele><time>2014-10-15T23:15:6Z</time></trkpt>
<trkpt lat="46.2814216613769531" lon="7.9097704887390137"><ele></ele><time>2014-10-15T23:15:9Z</time></trkpt>
<trkpt lat="46.2814941406250000" lon="7.9096131324768066"><ele></ele><time>2014-10-15T23:15:12Z</time></trkpt>
<trkpt lat="46.2815628051757812" lon="7.9093947410583496"><ele></ele><time>2014-10-15T23:15:15Z</time></trkpt>
<trkpt lat="46.2818069458007812" lon="7.9089260101318359"><ele></ele><time>2014-10-15T23:15:18Z</time></trkpt>
<trkpt lat="46.2818870544433594" lon="7.9087719917297363"><ele></ele><time>2014-10-15T23:15:21Z</time></trkpt>
<trkpt lat="46.2820014953613281" lon="7.9085502624511719"><ele></ele><time>2014-10-15T23:15:24Z</time></trkpt>
<trkpt lat="46.2821006774902344" lon="7.9083762168884277"><ele></ele><time>2014-10-15T23:15:27Z</time></trkpt>
<trkpt lat="46.2822799682617188" lon="7.9081630706787109"><ele></ele><time>2014-10-15T23:15:30Z</time></trkpt>
<trkpt lat="46.2823562622070312" lon="7.9080266952514648"><ele></ele><time>2014-10-15T23:15:33Z</time></trkpt>
<trkpt lat="46.2824249267578125" lon="7.9079222679138184"><ele></ele><time>2014-10-15T23:15:36Z</time></trkpt>
<trkpt lat="46.2825050354003906" lon="7.9077854156494141"><ele></ele><time>2014-10-15T23:15:39Z</time></trkpt>
<trkpt lat="46.2825584411621094" lon="7.9076824188232422"><ele></ele><time>2014-10-15T23:15:42Z</time></trkpt>
<trkpt lat="46.2826461791992188" lon="7.9075512886047363"><ele></ele><time>2014-10-15T23:15:45Z</time></trkpt>
<trkpt lat="46.2827033996582031" lon="7.9074945449829102"><ele></ele><time>2014-10-15T23:15:48Z</time></trkpt>
<trkpt lat="46.2827644348144531" lon="7.9074387550354004"><ele></ele><time>2014-10-15T23:15:51Z</time></trkpt>
<trkpt lat="46.2828559875488281" lon="7.9072432518005371"><ele></ele><time>2014-10-15T23:15:54Z</time></trkpt>
<trkpt lat="46.2829170227050781" lon="7.9069385528564453"><ele></ele><time>2014-10-15T23:15:57Z</time></trkpt>
<trkpt lat="46.2829513549804688" lon="7.9067144393920898"><ele></ele><time>2014-10-15T23:16:0Z</time></trkpt>
<trkpt lat="46.2829971313476562" lon="7.9064831733703613"><ele></ele><time>2014-10-15T23:16:3Z</time></trkpt>
<trkpt lat="46.2831001281738281" lon="7.9060688018798828"><ele></ele><time>2014-10-15T23:16:6Z</time></trkpt>
<trkpt lat="46.2831230163574219" lon="7.9059338569641113"><ele></ele><time>2014-10-15T23:16:9Z</time></trkpt>
<trkpt lat="46.2830505371093750" lon="7.9059371948242188"><ele></ele><time>2014-10-15T23:16:12Z</time></trkpt>
<trkpt lat="46.2829132080078125" lon="7.9060111045837402"><ele></ele><time>2014-10-15T23:16:15Z</time></trkpt>
<trkpt lat="46.2827987670898438" lon="7.9060611724853516"><ele></ele><time>2014-10-15T23:16:18Z</time></trkpt>
<trkpt lat="46.2826957702636719" lon="7.9061584472656250"><ele></ele><time>2014-10-15T23:16:21Z</time></trkpt>
<trkpt lat="46.2826194763183594" lon="7.9062008857727051"><ele></ele><time>2014-10-15T23:16:24Z</time></trkpt>
<trkpt lat="46.2824630737304688" lon="7.9063167572021484"><ele></ele><time>2014-10-15T23:16:27Z</time></trkpt>
<trkpt lat="46.2823143005371094" lon="7.9065093994140625"><ele></ele><time>2014-10-15T23:16:30Z</time></trkpt>
<trkpt lat="46.2822303771972656" lon="7.9066843986511230"><ele></ele><time>2014-10-15T23:16:33Z</time></trkpt>
<trkpt lat="46.2821311950683594" lon="7.9067773818969727"><ele></ele><time>2014-10-15T23:16:36Z</time></trkpt>
<trkpt lat="46.2820091247558594" lon="7.9068636894226074"><ele></ele><time>2014-10-15T23:16:39Z</time></trkpt>
<trkpt lat="46.2818260192871094" lon="7.9069685935974121"><ele></ele><time>2014-10-15T23:16:42Z</time></trkpt>
<trkpt lat="46.2816352844238281" lon="7.9070215225219727"><ele></ele><time>2014-10-15T23:16:45Z</time></trkpt>
<trkpt lat="46.2815132141113281" lon="7.9070539474487305"><ele></ele><time>2014-10-15T23:16:48Z</time></trkpt>
<trkpt lat="46.2813377380371094" lon="7.9070119857788086"><ele></ele><time>2014-10-15T23:16:51Z</time></trkpt>
<trkpt lat="46.2812004089355469" lon="7.9068832397460938"><ele></ele><time>2014-10-15T23:16:54Z</time></trkpt>
<trkpt lat="46.2811050415039062" lon="7.9068446159362793"><ele></ele><time>2014-10-15T23:16:57Z</time></trkpt>
<trkpt lat="46.2809982299804688" lon="7.9068527221679688"><ele></ele><time>2014-10-15T23:17:0Z</time></trkpt>
<trkpt lat="46.2809829711914062" lon="7.9067873954772949"><ele></ele><time>2014-10-15T23:17:3Z</time></trkpt>
<trkpt lat="46.2811889648437500" lon="7.9066472053527832"><ele></ele><time>2014-10-15T23:17:6Z</time></trkpt>
<trkpt lat="46.2812881469726562" lon="7.9065890312194824"><ele></ele><time>2014-10-15T23:17:9Z</time></trkpt>
<trkpt lat="46.2813606262207031" lon="7.9064226150512695"><ele></ele><time>2014-10-15T23:17:12Z</time></trkpt>
<trkpt lat="46.2814216613769531" lon="7.9061994552612305"><ele></ele><time>2014-10-15T23:17:15Z</time></trkpt>
<trkpt lat="46.2814636230468750" lon="7.9060139656066895"><ele></ele><time>2014-10-15T23:17:18Z</time></trkpt>
<trkpt lat="46.2814598083496094" lon="7.9059939384460449"><ele></ele><time>2014-10-15T23:17:21Z</time></trkpt>
<trkpt lat="46.2814483642578125" lon="7.9060091972351074"><ele></ele><time>2014-10-15T23:17:24Z</time></trkpt>
<trkpt lat="46.2812461853027344" lon="7.9062423706054688"><ele></ele><time>2014-10-15T23:17:27Z</time></trkpt>
<trkpt lat="46.2811431884765625" lon="7.9062590599060059"><ele></ele><time>2014-10-15T23:17:30Z</time></trkpt>
<trkpt lat="46.2809638977050781" lon="7.9062194824218750"><ele></ele><time>2014-10-15T23:17:33Z</time></trkpt>
<trkpt lat="46.2806930541992188" lon="7.9062118530273438"><ele></ele><time>2014-10-15T23:17:36Z</time></trkpt>
<trkpt lat="46.2804565429687500" lon="7.9063277244567871"><ele></ele><time>2014-10-15T23:17:39Z</time></trkpt>
<trkpt lat="46.2803497314453125" lon="7.9063515663146973"><ele></ele><time>2014-10-15T23:17:42Z</time></trkpt>
<trkpt lat="46.2803268432617188" lon="7.9062795639038086"><ele></ele><time>2014-10-15T23:17:45Z</time></trkpt>
<trkpt lat="46.2803573608398438" lon="7.9062004089355469"><ele></ele><time>2014-10-15T23:17:48Z</time></trkpt>
<trkpt lat="46.2804260253906250" lon="7.9060301780700684"><ele></ele><time>2014-10-15T23:17:51Z</time></trkpt>
<trkpt lat="46.2804336547851562" lon="7.9059014320373535"><ele></ele><time>2014-10-15T23:17:54Z</time></trkpt>
<trkpt lat="46.2804985046386719" lon="7.9057340621948242"><ele></ele><time>2014-10-15T23:17:57Z</time></trkpt>
<trkpt lat="46.2806053161621094" lon="7.9057154655456543"><ele></ele><time>2014-10-15T23:18:0Z</time></trkpt>
<trkpt lat="46.2807579040527344" lon="7.9056925773620605"><ele></ele><time>2014-10-15T23:18:3Z</time></trkpt>
<trkpt lat="46.2808341979980469" lon="7.9056673049926758"><ele></ele><time>2014-10-15T23:18:6Z</time></trkpt>
<trkpt lat="46.2808723449707031" lon="7.9055876731872559"><ele></ele><time>2014-10-15T23:18:9Z</time></trkpt>
<trkpt lat="46.2808609008789062" lon="7.9054980278015137"><ele></ele><time>2014-10-15T23:18:12Z</time></trkpt>
<trkpt lat="46.2806129455566406" lon="7.9053339958190918"><ele></ele><time>2014-10-15T23:18:15Z</time></trkpt>
<trkpt lat="46.2804450988769531" lon="7.9053292274475098"><ele></ele><time>2014-10-15T23:18:18Z</time></trkpt>
<trkpt lat="46.2803802490234375" lon="7.9053487777709961"><ele></ele><time>2014-10-15T23:18:21Z</time></trkpt>
<trkpt lat="46.2803230285644531" lon="7.9053540229797363"><ele></ele><time>2014-10-15T23:18:24Z</time></trkpt>
<trkpt lat="46.2803230285644531" lon="7.9053354263305664"><ele></ele><time>2014-10-15T23:18:27Z</time></trkpt>
<trkpt lat="46.2803840637207031" lon="7.9053258895874023"><ele></ele><time>2014-10-15T23:18:30Z</time></trkpt>
<trkpt lat="46.2804603576660156" lon="7.9053092002868652"><ele></ele><time>2014-10-15T23:18:33Z</time></trkpt>
<trkpt lat="46.2805900573730469" lon="7.9052891731262207"><ele></ele><time>2014-10-15T23:18:36Z</time></trkpt>
<trkpt lat="46.2806930541992188" lon="7.9052786827087402"><ele></ele><time>2014-10-15T23:18:39Z</time></trkpt>
<trkpt lat="46.2808036804199219" lon="7.9052028656005859"><ele></ele><time>2014-10-15T23:18:42Z</time></trkpt>
<trkpt lat="46.2808876037597656" lon="7.9050207138061523"><ele></ele><time>2014-10-15T23:18:45Z</time></trkpt>
<trkpt lat="46.2809295654296875" lon="7.9048981666564941"><ele></ele><time>2014-10-15T23:18:48Z</time></trkpt>
<trkpt lat="46.2809753417968750" lon="7.9047846794128418"><ele></ele><time>2014-10-15T23:18:51Z</time></trkpt>
<trkpt lat="46.2809677124023438" lon="7.9045948982238770"><ele></ele><time>2014-10-15T23:18:54Z</time></trkpt>
<trkpt lat="46.2809371948242188" lon="7.9043488502502441"><ele></ele><time>2014-10-15T23:18:57Z</time></trkpt>
<trkpt lat="46.2809333801269531" lon="7.9040575027465820"><ele></ele><time>2014-10-15T23:19:0Z</time></trkpt>
<trkpt lat="46.2809371948242188" lon="7.9038224220275879"><ele></ele><time>2014-10-15T23:19:3Z</time></trkpt>
<trkpt lat="46.2810134887695312" lon="7.9035181999206543"><ele></ele><time>2014-10-15T23:19:6Z</time></trkpt>
<trkpt lat="46.2810745239257812" lon="7.9033279418945312"><ele></ele><time>2014-10-15T23:19:9Z</time></trkpt>
<trkpt lat="46.2810974121093750" lon="7.9031300544738770"><ele></ele><time>2014-10-15T23:19:12Z</time></trkpt>
<trkpt lat="46.2810974121093750" lon="7.9029259681701660"><ele></ele><time>2014-10-15T23:19:15Z</time></trkpt>
<trkpt lat="46.2811241149902344" lon="7.9027190208435059"><ele></ele><time>2014-10-15T23:19:18Z</time></trkpt>
<trkpt lat="46.2812538146972656" lon="7.9024629592895508"><ele></ele><time>2014-10-15T23:19:21Z</time></trkpt>
<trkpt lat="46.2813415527343750" lon="7.9022736549377441"><ele></ele><time>2014-10-15T23:19:24Z</time></trkpt>
<trkpt lat="46.2814369201660156" lon="7.9019427299499512"><ele></ele><time>2014-10-15T23:19:27Z</time></trkpt>
<trkpt lat="46.2814941406250000" lon="7.9016566276550293"><ele></ele><time>2014-10-15T23:19:30Z</time></trkpt>
<trkpt lat="46.2816085815429688" lon="7.9015192985534668"><ele></ele><time>2014-10-15T23:19:33Z</time></trkpt>
<trkpt lat="46.2817115783691406" lon="7.9013695716857910"><ele></ele><time>2014-10-15T23:19:36Z</time></trkpt>
<trkpt lat="46.2818603515625000" lon="7.9011292457580566"><ele></ele><time>2014-10-15T23:19:39Z</time></trkpt>
<trkpt lat="46.2819747924804688" lon="7.9009871482849121"><ele></ele><time>2014-10-15T23:19:42Z</time></trkpt>
<trkpt lat="46.2821464538574219" lon="7.9008641242980957"><ele></ele><time>2014-10-15T23:19:45Z</time></trkpt>
<trkpt lat="46.2822799682617188" lon="7.9008016586303711"><ele></ele><time>2014-10-15T23:19:48Z</time></trkpt>
<trkpt lat="46.2824401855468750" lon="7.9006948471069336"><ele></ele><time>2014-10-15T23:19:51Z</time></trkpt>
<trkpt lat="46.2826423645019531" lon="7.9004979133605957"><ele></ele><time>2014-10-15T23:19:54Z</time></trkpt>
<trkpt lat="46.2827682495117188" lon="7.9004168510437012"><ele></ele><time>2014-10-15T23:19:57Z</time></trkpt>
<trkpt lat="46.2829856872558594" lon="7.9003982543945312"><ele></ele><time>2014-10-15T23:20:0Z</time></trkpt>
<trkpt lat="46.2834205627441406" lon="7.9001564979553223"><ele></ele><time>2014-10-15T23:20:3Z</time></trkpt>
<trkpt lat="46.2835464477539062" lon="7.8999443054199219"><ele></ele><time>2014-10-15T23:20:6Z</time></trkpt>
<trkpt lat="46.2836799621582031" lon="7.8997154235839844"><ele></ele><time>2014-10-15T23:20:9Z</time></trkpt>
<trkpt lat="46.2837638854980469" lon="7.8995113372802734"><ele></ele><time>2014-10-15T23:20:12Z</time></trkpt>
<trkpt lat="46.2838554382324219" lon="7.8993487358093262"><ele></ele><time>2014-10-15T23:20:15Z</time></trkpt>
<trkpt lat="46.2839775085449219" lon="7.8991937637329102"><ele></ele><time>2014-10-15T23:20:18Z</time></trkpt>
<trkpt lat="46.2841072082519531" lon="7.8991236686706543"><ele></ele><time>2014-10-15T23:20:21Z</time></trkpt>
<trkpt lat="46.2843742370605469" lon="7.8988175392150879"><ele></ele><time>2014-10-15T23:20:24Z</time></trkpt>
<trkpt lat="46.2845382690429688" lon="7.8987140655517578"><ele></ele><time>2014-10-15T23:20:27Z</time></trkpt>
<trkpt lat="46.2847213745117188" lon="7.8986434936523438"><ele></ele><time>2014-10-15T23:20:30Z</time></trkpt>
<trkpt lat="46.2849311828613281" lon="7.8986420631408691"><ele></ele><time>2014-10-15T23:20:33Z</time></trkpt>
<trkpt lat="46.2851867675781250" lon="7.8986616134643555"><ele></ele><time>2014-10-15T23:20:36Z</time></trkpt>
<trkpt lat="46.2853431701660156" lon="7.8986482620239258"><ele></ele><time>2014-10-15T23:20:39Z</time></trkpt>
<trkpt lat="46.2855644226074219" lon="7.8986692428588867"><ele></ele><time>2014-10-15T23:20:42Z</time></trkpt>
<trkpt lat="46.2857208251953125" lon="7.8986816406250000"><ele></ele><time>2014-10-15T23:20:45Z</time></trkpt>
<trkpt lat="46.2857971191406250" lon="7.8986968994140625"><ele></ele><time>2014-10-15T23:20:48Z</time></trkpt>
<trkpt lat="46.2859039306640625" lon="7.8987221717834473"><ele></ele><time>2014-10-15T23:20:51Z</time></trkpt>
<trkpt lat="46.2860260009765625" lon="7.8987526893615723"><ele></ele><time>2014-10-15T23:20:54Z</time></trkpt>
<trkpt lat="46.2860908508300781" lon="7.8988065719604492"><ele></ele><time>2014-10-15T23:20:57Z</time></trkpt>
<trkpt lat="46.2861938476562500" lon="7.8988256454467773"><ele></ele><time>2014-10-15T23:21:0Z</time></trkpt>
<trkpt lat="46.2863006591796875" lon="7.8988518714904785"><ele></ele><time>2014-10-15T23:21:3Z</time></trkpt>
<trkpt lat="46.2863693237304688" lon="7.8988795280456543"><ele></ele><time>2014-10-15T23:21:6Z</time></trkpt>
<trkpt lat="46.2864685058593750" lon="7.8989329338073730"><ele></ele><time>2014-10-15T23:21:9Z</time></trkpt>
<trkpt lat="46.2865943908691406" lon="7.8988828659057617"><ele></ele><time>2014-10-15T23:21:12Z</time></trkpt>
<trkpt lat="46.2867202758789062" lon="7.8987574577331543"><ele></ele><time>2014-10-15T23:21:15Z</time></trkpt>
<trkpt lat="46.2868423461914062" lon="7.8986558914184570"><ele></ele><time>2014-10-15T23:21:18Z</time></trkpt>
<trkpt lat="46.2868843078613281" lon="7.8985724449157715"><ele></ele><time>2014-10-15T23:21:21Z</time></trkpt>
<trkpt lat="46.2868347167968750" lon="7.8985133171081543"><ele></ele><time>2014-10-15T23:21:24Z</time></trkpt>
<trkpt lat="46.2867927551269531" lon="7.8984613418579102"><ele></ele><time>2014-10-15T23:21:27Z</time></trkpt>
<trkpt lat="46.2868499755859375" lon="7.8984551429748535"><ele></ele><time>2014-10-15T23:21:30Z</time></trkpt>
<trkpt lat="46.2869300842285156" lon="7.8984789848327637"><ele></ele><time>2014-10-15T23:21:33Z</time></trkpt>
<trkpt lat="46.2870101928710938" lon="7.8985514640808105"><ele></ele><time>2014-10-15T23:21:36Z</time></trkpt>
<trkpt lat="46.2870521545410156" lon="7.8985590934753418"><ele></ele><time>2014-10-15T23:21:39Z</time></trkpt>
<trkpt lat="46.2870368957519531" lon="7.8985280990600586"><ele></ele><time>2014-10-15T23:21:42Z</time></trkpt>
<trkpt lat="46.2869911193847656" lon="7.8983750343322754"><ele></ele><time>2014-10-15T23:21:45Z</time></trkpt>
<trkpt lat="46.2869300842285156" lon="7.8982138633728027"><ele></ele><time>2014-10-15T23:21:48Z</time></trkpt>
<trkpt lat="46.2868156433105469" lon="7.8981027603149414"><ele></ele><time>2014-10-15T23:21:51Z</time></trkpt>
<trkpt lat="46.2865943908691406" lon="7.8979964256286621"><ele></ele><time>2014-10-15T23:21:54Z</time></trkpt>
<trkpt lat="46.2863655090332031" lon="7.8978948593139648"><ele></ele><time>2014-10-15T23:21:57Z</time></trkpt>
<trkpt lat="46.2861862182617188" lon="7.8978428840637207"><ele></ele><time>2014-10-15T23:22:0Z</time></trkpt>
<trkpt lat="46.2858772277832031" lon="7.8977007865905762"><ele></ele><time>2014-10-15T23:22:3Z</time></trkpt>
<trkpt lat="46.2857170104980469" lon="7.8976178169250488"><ele></ele><time>2014-10-15T23:22:6Z</time></trkpt>
<trkpt lat="46.2855148315429688" lon="7.8975186347961426"><ele></ele><time>2014-10-15T23:22:9Z</time></trkpt>
<trkpt lat="46.2852439880371094" lon="7.8972721099853516"><ele></ele><time>2014-10-15T23:22:12Z</time></trkpt>
<trkpt lat="46.2852210998535156" lon="7.8973278999328613"><ele></ele><time>2014-10-15T23:22:15Z</time></trkpt>
<trkpt lat="46.2851676940917969" lon="7.8973422050476074"><ele></ele><time>2014-10-15T23:22:18Z</time></trkpt>
<trkpt lat="46.2851562500000000" lon="7.8972649574279785"><ele></ele><time>2014-10-15T23:22:21Z</time></trkpt>
<trkpt lat="46.2850189208984375" lon="7.8971242904663086"><ele></ele><time>2014-10-15T23:22:24Z</time></trkpt>
<trkpt lat="46.2849197387695312" lon="7.8970394134521484"><ele></ele><time>2014-10-15T23:22:27Z</time></trkpt>
<trkpt lat="46.2849197387695312" lon="7.8969225883483887"><ele></ele><time>2014-10-15T23:22:30Z</time></trkpt>
<trkpt lat="46.2847518920898438" lon="7.8967289924621582"><ele></ele><time>2014-10-15T23:22:33Z</time></trkpt>
<trkpt lat="46.2848892211914062" lon="7.8966884613037109"><ele></ele><time>2014-10-15T23:22:36Z</time></trkpt>
<trkpt lat="46.2849960327148438" lon="7.8967313766479492"><ele></ele><time>2014-10-15T23:22:39Z</time></trkpt>
<trkpt lat="46.2850570678710938" lon="7.8967051506042480"><ele></ele><time>2014-10-15T23:22:42Z</time></trkpt>
<trkpt lat="46.2851524353027344" lon="7.8966832160949707"><ele></ele><time>2014-10-15T23:22:45Z</time></trkpt>
<trkpt lat="46.2853164672851562" lon="7.8966922760009766"><ele></ele><time>2014-10-15T23:22:48Z</time></trkpt>
<trkpt lat="46.2854194641113281" lon="7.8967084884643555"><ele></ele><time>2014-10-15T23:22:51Z</time></trkpt>
<trkpt lat="46.2855339050292969" lon="7.8967013359069824"><ele></ele><time>2014-10-15T23:22:54Z</time></trkpt>
<trkpt lat="46.2856101989746094" lon="7.8966860771179199"><ele></ele><time>2014-10-15T23:22:57Z</time></trkpt>
<trkpt lat="46.2859191894531250" lon="7.8966398239135742"><ele></ele><time>2014-10-15T23:23:0Z</time></trkpt>
<trkpt lat="46.2860946655273438" lon="7.8966517448425293"><ele></ele><time>2014-10-15T23:23:3Z</time></trkpt>
<trkpt lat="46.2862739562988281" lon="7.8966856002807617"><ele></ele><time>2014-10-15T23:23:6Z</time></trkpt>
<trkpt lat="46.2863464355468750" lon="7.8966407775878906"><ele></ele><time>2014-10-15T23:23:9Z</time></trkpt>
<trkpt lat="46.2863807678222656" lon="7.8965749740600586"><ele></ele><time>2014-10-15T23:23:12Z</time></trkpt>
<trkpt lat="46.2863578796386719" lon="7.8964862823486328"><ele></ele><time>2014-10-15T23:23:15Z</time></trkpt>
<trkpt lat="46.2862586975097656" lon="7.8962783813476562"><ele></ele><time>2014-10-15T23:23:18Z</time></trkpt>
<trkpt lat="46.2861251831054688" lon="7.8962001800537109"><ele></ele><time>2014-10-15T23:23:21Z</time></trkpt>
<trkpt lat="46.2860145568847656" lon="7.8961715698242188"><ele></ele><time>2014-10-15T23:23:24Z</time></trkpt>
<trkpt lat="46.2858238220214844" lon="7.8959898948669434"><ele></ele><time>2014-10-15T23:23:27Z</time></trkpt>
<trkpt lat="46.2856178283691406" lon="7.8957467079162598"><ele></ele><time>2014-10-15T23:23:30Z</time></trkpt>
<trkpt lat="46.2854194641113281" lon="7.8955273628234863"><ele></ele><time>2014-10-15T23:23:33Z</time></trkpt>
<trkpt lat="46.2853546142578125" lon="7.8953323364257812"><ele></ele><time>2014-10-15T23:23:36Z</time></trkpt>
<trkpt lat="46.2852287292480469" lon="7.8951511383056641"><ele></ele><time>2014-10-15T23:23:39Z</time></trkpt>
<trkpt lat="46.2851257324218750" lon="7.8951587677001953"><ele></ele><time>2014-10-15T23:23:42Z</time></trkpt>
<trkpt lat="46.2849884033203125" lon="7.8952946662902832"><ele></ele><time>2014-10-15T23:23:45Z</time></trkpt>
<trkpt lat="46.2848281860351562" lon="7.8954086303710938"><ele></ele><time>2014-10-15T23:23:48Z</time></trkpt>
<trkpt lat="46.2847404479980469" lon="7.8953256607055664"><ele></ele><time>2014-10-15T23:23:51Z</time></trkpt>
<trkpt lat="46.2845573425292969" lon="7.8951606750488281"><ele></ele><time>2014-10-15T23:23:54Z</time></trkpt>
<trkpt lat="46.2843933105468750" lon="7.8951711654663086"><ele></ele><time>2014-10-15T23:23:57Z</time></trkpt>
<trkpt lat="46.2842597961425781" lon="7.8952636718750000"><ele></ele><time>2014-10-15T23:24:0Z</time></trkpt>
<trkpt lat="46.2840499877929688" lon="7.8953862190246582"><ele></ele><time>2014-10-15T23:24:3Z</time></trkpt>
<trkpt lat="46.2839126586914062" lon="7.8954305648803711"><ele></ele><time>2014-10-15T23:24:6Z</time></trkpt>
<trkpt lat="46.2837562561035156" lon="7.8954691886901855"><ele></ele><time>2014-10-15T23:24:9Z</time></trkpt>
<trkpt lat="46.2836494445800781" lon="7.8954992294311523"><ele></ele><time>2014-10-15T23:24:12Z</time></trkpt>
<trkpt lat="46.2835502624511719" lon="7.8954620361328125"><ele></ele><time>2014-10-15T23:24:15Z</time></trkpt>
<trkpt lat="46.2834777832031250" lon="7.8953247070312500"><ele></ele><time>2014-10-15T23:24:18Z</time></trkpt>
<trkpt lat="46.2834014892578125" lon="7.8951473236083984"><ele></ele><time>2014-10-15T23:24:21Z</time></trkpt>
<trkpt lat="46.2832870483398438" lon="7.8950695991516113"><ele></ele><time>2014-10-15T23:24:24Z</time></trkpt>
<trkpt lat="46.2831382751464844" lon="7.8950395584106445"><ele></ele><time>2014-10-15T23:24:27Z</time></trkpt>
<trkpt lat="46.2829284667968750" lon="7.8949861526489258"><ele></ele><time>2014-10-15T23:24:30Z</time></trkpt>
<trkpt lat="46.2827911376953125" lon="7.8949513435363770"><ele></ele><time>2014-10-15T23:24:33Z</time></trkpt>
<trkpt lat="46.2826652526855469" lon="7.8949007987976074"><ele></ele><time>2014-10-15T23:24:36Z</time></trkpt>
<trkpt lat="46.2825164794921875" lon="7.8946805000305176"><ele></ele><time>2014-10-15T23:24:39Z</time></trkpt>
<trkpt lat="46.2824821472167969" lon="7.8945293426513672"><ele></ele><time>2014-10-15T23:24:42Z</time></trkpt>
<trkpt lat="46.2823410034179688" lon="7.8944153785705566"><ele></ele><time>2014-10-15T23:24:45Z</time></trkpt>
<trkpt lat="46.2822494506835938" lon="7.8943347930908203"><ele></ele><time>2014-10-15T23:24:48Z</time></trkpt>
<trkpt lat="46.2821693420410156" lon="7.8942065238952637"><ele></ele><time>2014-10-15T23:24:51Z</time></trkpt>
<trkpt lat="46.2820396423339844" lon="7.8940520286560059"><ele></ele><time>2014-10-15T23:24:54Z</time></trkpt>
<trkpt lat="46.2819557189941406" lon="7.8940029144287109"><ele></ele><time>2014-10-15T23:24:57Z</time></trkpt>
<trkpt lat="46.2818832397460938" lon="7.8939371109008789"><ele></ele><time>2014-10-15T23:25:0Z</time></trkpt>
<trkpt lat="46.2818489074707031" lon="7.8938941955566406"><ele></ele><time>2014-10-15T23:25:3Z</time></trkpt>
<trkpt lat="46.2818870544433594" lon="7.8938765525817871"><ele></ele><time>2014-10-15T23:25:6Z</time></trkpt>
<trkpt lat="46.2819709777832031" lon="7.8938627243041992"><ele></ele><time>2014-10-15T23:25:9Z</time></trkpt>
<trkpt lat="46.2821693420410156" lon="7.8938288688659668"><ele></ele><time>2014-10-15T23:25:12Z</time></trkpt>
<trkpt lat="46.2823448181152344" lon="7.8938465118408203"><ele></ele><time>2014-10-15T23:25:15Z</time></trkpt>
<trkpt lat="46.2824478149414062" lon="7.8939156532287598"><ele></ele><time>2014-10-15T23:25:18Z</time></trkpt>
<trkpt lat="46.2825965881347656" lon="7.8939390182495117"><ele></ele><time>2014-10-15T23:25:21Z</time></trkpt>
<trkpt lat="46.2826919555664062" lon="7.8939089775085449"><ele></ele><time>2014-10-15T23:25:24Z</time></trkpt>
<trkpt lat="46.2827911376953125" lon="7.8939905166625977"><ele></ele><time>2014-10-15T23:25:27Z</time></trkpt>
<trkpt lat="46.2828559875488281" lon="7.8940768241882324"><ele></ele><time>2014-10-15T23:25:30Z</time></trkpt>
<trkpt lat="46.2829895019531250" lon="7.8940448760986328"><ele></ele><time>2014-10-15T23:25:33Z</time></trkpt>
<trkpt lat="46.2831497192382812" lon="7.8939828872680664"><ele></ele><time>2014-10-15T23:25:36Z</time></trkpt>
<trkpt lat="46.2832984924316406" lon="7.8939886093139648"><ele></ele><time>2014-10-15T23:25:39Z</time></trkpt>
<trkpt lat="46.2834701538085938" lon="7.8940353393554688"><ele></ele><time>2014-10-15T23:25:42Z</time></trkpt>
<trkpt lat="46.2835502624511719" lon="7.8940577507019043"><ele></ele><time>2014-10-15T23:25:45Z</time></trkpt>
<trkpt lat="46.2836456298828125" lon="7.8939819335937500"><ele></ele><time>2014-10-15T23:25:48Z</time></trkpt>
<trkpt lat="46.2836761474609375" lon="7.8939132690429688"><ele></ele><time>2014-10-15T23:25:51Z</time></trkpt>
<trkpt lat="46.2836837768554688" lon="7.8937420845031738"><ele></ele><time>2014-10-15T23:25:54Z</time></trkpt>
<trkpt lat="46.2838020324707031" lon="7.8933253288269043"><ele></ele><time>2014-10-15T23:25:57Z</time></trkpt>
<trkpt lat="46.2838592529296875" lon="7.8931188583374023"><ele></ele><time>2014-10-15T23:26:0Z</time></trkpt>
<trkpt lat="46.2839088439941406" lon="7.8929219245910645"><ele></ele><time>2014-10-15T23:26:3Z</time></trkpt>
<trkpt lat="46.2840538024902344" lon="7.8927159309387207"><ele></ele><time>2014-10-15T23:26:6Z</time></trkpt>
<trkpt lat="46.2841949462890625" lon="7.8925762176513672"><ele></ele><time>2014-10-15T23:26:9Z</time></trkpt>
<trkpt lat="46.2843170166015625" lon="7.8924102783203125"><ele></ele><time>2014-10-15T23:26:12Z</time></trkpt>
<trkpt lat="46.2844924926757812" lon="7.8922958374023438"><ele></ele><time>2014-10-15T23:26:15Z</time></trkpt>
<trkpt lat="46.2845764160156250" lon="7.8922982215881348"><ele></ele><time>2014-10-15T23:26:18Z</time></trkpt>
<trkpt lat="46.2847175598144531" lon="7.8923950195312500"><ele></ele><time>2014-10-15T23:26:21Z</time></trkpt>
<trkpt lat="46.2848320007324219" lon="7.8925075531005859"><ele></ele><time>2014-10-15T23:26:24Z</time></trkpt>
<trkpt lat="46.2849082946777344" lon="7.8924341201782227"><ele></ele><time>2014-10-15T23:26:27Z</time></trkpt>
<trkpt lat="46.2850494384765625" lon="7.8922009468078613"><ele></ele><time>2014-10-15T23:26:30Z</time></trkpt>
<trkpt lat="46.2851562500000000" lon="7.8920378684997559"><ele></ele><time>2014-10-15T23:26:33Z</time></trkpt>
<trkpt lat="46.2853584289550781" lon="7.8918142318725586"><ele></ele><time>2014-10-15T23:26:36Z</time></trkpt>
<trkpt lat="46.2854995727539062" lon="7.8917226791381836"><ele></ele><time>2014-10-15T23:26:39Z</time></trkpt>
<trkpt lat="46.2856483459472656" lon="7.8916511535644531"><ele></ele><time>2014-10-15T23:26:42Z</time></trkpt>
<trkpt lat="46.2857131958007812" lon="7.8915686607360840"><ele></ele><time>2014-10-15T23:26:45Z</time></trkpt>
<trkpt lat="46.2858123779296875" lon="7.8916134834289551"><ele></ele><time>2014-10-15T23:26:48Z</time></trkpt>
<trkpt lat="46.2858352661132812" lon="7.8917713165283203"><ele></ele><time>2014-10-15T23:26:51Z</time></trkpt>
<trkpt lat="46.2858772277832031" lon="7.8918380737304688"><ele></ele><time>2014-10-15T23:26:54Z</time></trkpt>
<trkpt lat="46.2859001159667969" lon="7.8918476104736328"><ele></ele><time>2014-10-15T23:26:57Z</time></trkpt>
<trkpt lat="46.2859268188476562" lon="7.8918695449829102"><ele></ele><time>2014-10-15T23:27:0Z</time></trkpt>
<trkpt lat="46.2859191894531250" lon="7.8918480873107910"><ele></ele><time>2014-10-15T23:27:3Z</time></trkpt>
<trkpt lat="46.2858963012695312" lon="7.8918042182922363"><ele></ele><time>2014-10-15T23:27:6Z</time></trkpt>
<trkpt lat="46.2859153747558594" lon="7.8917965888977051"><ele></ele><time>2014-10-15T23:27:9Z</time></trkpt>
<trkpt lat="46.2859420776367188" lon="7.8918409347534180"><ele></ele><time>2014-10-15T23:27:12Z</time></trkpt>
<trkpt lat="46.2859764099121094" lon="7.8919191360473633"><ele></ele><time>2014-10-15T23:27:15Z</time></trkpt>
<trkpt lat="46.2860488891601562" lon="7.8919453620910645"><ele></ele><time>2014-10-15T23:27:18Z</time></trkpt>
<trkpt lat="46.2860832214355469" lon="7.8919172286987305"><ele></ele><time>2014-10-15T23:27:21Z</time></trkpt>
<trkpt lat="46.2860946655273438" lon="7.8919038772583008"><ele></ele><time>2014-10-15T23:27:24Z</time></trkpt>
<trkpt lat="46.2861099243164062" lon="7.8918981552124023"><ele></ele><time>2014-10-15T23:27:27Z</time></trkpt>
<trkpt lat="46.2861480712890625" lon="7.8918976783752441"><ele></ele><time>2014-10-15T23:27:30Z</time></trkpt>
<trkpt lat="46.2861976623535156" lon="7.8918981552124023"><ele></ele><time>2014-10-15T23:27:33Z</time></trkpt>
<trkpt lat="46.2862243652343750" lon="7.8918762207031250"><ele></ele><time>2014-10-15T23:27:36Z</time></trkpt>
<trkpt lat="46.2863082885742188" lon="7.8918461799621582"><ele></ele><time>2014-10-15T23:27:39Z</time></trkpt>
<trkpt lat="46.2863502502441406" lon="7.8918442726135254"><ele></ele><time>2014-10-15T23:27:42Z</time></trkpt>
<trkpt lat="46.2863998413085938" lon="7.8918585777282715"><ele></ele><time>2014-10-15T23:27:45Z</time></trkpt>
<trkpt lat="46.2865066528320312" lon="7.8919181823730469"><ele></ele><time>2014-10-15T23:27:48Z</time></trkpt>
<trkpt lat="46.2866096496582031" lon="7.8918700218200684"><ele></ele><time>2014-10-15T23:27:51Z</time></trkpt>
<trkpt lat="46.2867317199707031" lon="7.8918604850769043"><ele></ele><time>2014-10-15T23:27:54Z</time></trkpt>
<trkpt lat="46.2869033813476562" lon="7.8918414115905762"><ele></ele><time>2014-10-15T23:27:57Z</time></trkpt>
<trkpt lat="46.2870712280273438" lon="7.8917593955993652"><ele></ele><time>2014-10-15T23:28:0Z</time></trkpt>
<trkpt lat="46.2871551513671875" lon="7.8917899131774902"><ele></ele><time>2014-10-15T23:28:3Z</time></trkpt>
<trkpt lat="46.2872619628906250" lon="7.8918719291687012"><ele></ele><time>2014-10-15T23:28:6Z</time></trkpt>
<trkpt lat="46.2873191833496094" lon="7.8918738365173340"><ele></ele><time>2014-10-15T23:28:9Z</time></trkpt>
<trkpt lat="46.2873268127441406" lon="7.8918461799621582"><ele></ele><time>2014-10-15T23:28:12Z</time></trkpt>
<trkpt lat="46.2872886657714844" lon="7.8918304443359375"><ele></ele><time>2014-10-15T23:28:15Z</time></trkpt>
<trkpt lat="46.2871360778808594" lon="7.8916287422180176"><ele></ele><time>2014-10-15T23:28:18Z</time></trkpt>
<trkpt lat="46.2870292663574219" lon="7.8915047645568848"><ele></ele><time>2014-10-15T23:28:21Z</time></trkpt>
<trkpt lat="46.2869033813476562" lon="7.8913984298706055"><ele></ele><time>2014-10-15T23:28:24Z</time></trkpt>
<trkpt lat="46.2868423461914062" lon="7.8913016319274902"><ele></ele><time>2014-10-15T23:28:27Z</time></trkpt>
<trkpt lat="46.2867393493652344" lon="7.8911876678466797"><ele></ele><time>2014-10-15T23:28:30Z</time></trkpt>
<trkpt lat="46.2865829467773438" lon="7.8911428451538086"><ele></ele><time>2014-10-15T23:28:33Z</time></trkpt>
<trkpt lat="46.2864608764648438" lon="7.8911061286926270"><ele></ele><time>2014-10-15T23:28:36Z</time></trkpt>
<trkpt lat="46.2863578796386719" lon="7.8910527229309082"><ele></ele><time>2014-10-15T23:28:39Z</time></trkpt>
<trkpt lat="46.2863769531250000" lon="7.8910322189331055"><ele></ele><time>2014-10-15T23:28:42Z</time></trkpt>
<trkpt lat="46.2865600585937500" lon="7.8909220695495605"><ele></ele><time>2014-10-15T23:28:45Z</time></trkpt>
<trkpt lat="46.2867317199707031" lon="7.8908362388610840"><ele></ele><time>2014-10-15T23:28:48Z</time></trkpt>
<trkpt lat="46.2868461608886719" lon="7.8908281326293945"><ele></ele><time>2014-10-15T23:28:51Z</time></trkpt>
<trkpt lat="46.2869453430175781" lon="7.8908505439758301"><ele></ele><time>2014-10-15T23:28:54Z</time></trkpt>
<trkpt lat="46.2869796752929688" lon="7.8908638954162598"><ele></ele><time>2014-10-15T23:28:57Z</time></trkpt>
<trkpt lat="46.2869758605957031" lon="7.8908510208129883"><ele></ele><time>2014-10-15T23:29:0Z</time></trkpt>
<trkpt lat="46.2869567871093750" lon="7.8908343315124512"><ele></ele><time>2014-10-15T23:29:3Z</time></trkpt>
<trkpt lat="46.2868690490722656" lon="7.8907408714294434"><ele></ele><time>2014-10-15T23:29:6Z</time></trkpt>
<trkpt lat="46.2867507934570312" lon="7.8906188011169434"><ele></ele><time>2014-10-15T23:29:9Z</time></trkpt>
<trkpt lat="46.2866554260253906" lon="7.8905711174011230"><ele></ele><time>2014-10-15T23:29:12Z</time></trkpt>
<trkpt lat="46.2865028381347656" lon="7.8905510902404785"><ele></ele><time>2014-10-15T23:29:15Z</time></trkpt>
<trkpt lat="46.2863807678222656" lon="7.8905596733093262"><ele></ele><time>2014-10-15T23:29:18Z</time></trkpt>
<trkpt lat="46.2862930297851562" lon="7.8905797004699707"><ele></ele><time>2014-10-15T23:29:21Z</time></trkpt>
<trkpt lat="46.2861251831054688" lon="7.8905158042907715"><ele></ele><time>2014-10-15T23:29:24Z</time></trkpt>
<trkpt lat="46.2860298156738281" lon="7.8904280662536621"><ele></ele><time>2014-10-15T23:29:27Z</time></trkpt>
<trkpt lat="46.2858695983886719" lon="7.8902959823608398"><ele></ele><time>2014-10-15T23:29:30Z</time></trkpt>
<trkpt lat="46.2857017517089844" lon="7.8901572227478027"><ele></ele><time>2014-10-15T23:29:33Z</time></trkpt>
<trkpt lat="46.2856864929199219" lon="7.8901443481445312"><ele></ele><time>2014-10-15T23:29:36Z</time></trkpt>
<trkpt lat="46.2857131958007812" lon="7.8901591300964355"><ele></ele><time>2014-10-15T23:29:39Z</time></trkpt>
<trkpt lat="46.2858085632324219" lon="7.8901829719543457"><ele></ele><time>2014-10-15T23:29:42Z</time></trkpt>
<trkpt lat="46.2861099243164062" lon="7.8901915550231934"><ele></ele><time>2014-10-15T23:29:45Z</time></trkpt>
<trkpt lat="46.2862319946289062" lon="7.8901886940002441"><ele></ele><time>2014-10-15T23:29:48Z</time></trkpt>
<trkpt lat="46.2863044738769531" lon="7.8901786804199219"><ele></ele><time>2014-10-15T23:29:51Z</time></trkpt>
<trkpt lat="46.2864189147949219" lon="7.8901085853576660"><ele></ele><time>2014-10-15T23:29:54Z</time></trkpt>
<trkpt lat="46.2865219116210938" lon="7.8900256156921387"><ele></ele><time>2014-10-15T23:29:57Z</time></trkpt>
<trkpt lat="46.2866096496582031" lon="7.8900108337402344"><ele></ele><time>2014-10-15T23:30:0Z</time></trkpt>
<trkpt lat="46.2867012023925781" lon="7.8899812698364258"><ele></ele><time>2014-10-15T23:30:3Z</time></trkpt>
<trkpt lat="46.2868652343750000" lon="7.8899369239807129"><ele></ele><time>2014-10-15T23:30:6Z</time></trkpt>
<trkpt lat="46.2870750427246094" lon="7.8900270462036133"><ele></ele><time>2014-10-15T23:30:9Z</time></trkpt>
<trkpt lat="46.2872848510742188" lon="7.8900580406188965"><ele></ele><time>2014-10-15T23:30:12Z</time></trkpt>
<trkpt lat="46.2873344421386719" lon="7.8900480270385742"><ele></ele><time>2014-10-15T23:30:15Z</time></trkpt>
<trkpt lat="46.2873268127441406" lon="7.8900384902954102"><ele></ele><time>2014-10-15T23:30:18Z</time></trkpt>
<trkpt lat="46.2872848510742188" lon="7.8900132179260254"><ele></ele><time>2014-10-15T23:30:21Z</time></trkpt>
<trkpt lat="46.2871589660644531" lon="7.8899083137512207"><ele></ele><time>2014-10-15T23:30:24Z</time></trkpt>
<trkpt lat="46.2870483398437500" lon="7.8897905349731445"><ele></ele><time>2014-10-15T23:30:27Z</time></trkpt>
<trkpt lat="46.2868576049804688" lon="7.8896255493164062"><ele></ele><time>2014-10-15T23:30:30Z</time></trkpt>
<trkpt lat="46.2867507934570312" lon="7.8895101547241211"><ele></ele><time>2014-10-15T23:30:33Z</time></trkpt>
<trkpt lat="46.2866744995117188" lon="7.8894796371459961"><ele></ele><time>2014-10-15T23:30:36Z</time></trkpt>
<trkpt lat="46.2866210937500000" lon="7.8894762992858887"><ele></ele><time>2014-10-15T23:30:39Z</time></trkpt>
<trkpt lat="46.2865257263183594" lon="7.8894224166870117"><ele></ele><time>2014-10-15T23:30:42Z</time></trkpt>
<trkpt lat="46.2864799499511719" lon="7.8894152641296387"><ele></ele><time>2014-10-15T23:30:45Z</time></trkpt>
<trkpt lat="46.2864799499511719" lon="7.8893747329711914"><ele></ele><time>2014-10-15T23:30:48Z</time></trkpt>
<trkpt lat="46.2865943908691406" lon="7.8893380165100098"><ele></ele><time>2014-10-15T23:30:51Z</time></trkpt>
<trkpt lat="46.2866859436035156" lon="7.8893141746520996"><ele></ele><time>2014-10-15T23:30:54Z</time></trkpt>
<trkpt lat="46.2868385314941406" lon="7.8891606330871582"><ele></ele><time>2014-10-15T23:30:57Z</time></trkpt>
<trkpt lat="46.2869300842285156" lon="7.8890857696533203"><ele></ele><time>2014-10-15T23:31:0Z</time></trkpt>
<trkpt lat="46.2870903015136719" lon="7.8891878128051758"><ele></ele><time>2014-10-15T23:31:3Z</time></trkpt>
<trkpt lat="46.2872238159179688" lon="7.8892407417297363"><ele></ele><time>2014-10-15T23:31:6Z</time></trkpt>
<trkpt lat="46.2874336242675781" lon="7.8892660140991211"><ele></ele><time>2014-10-15T23:31:9Z</time></trkpt>
<trkpt lat="46.2875785827636719" lon="7.8892717361450195"><ele></ele><time>2014-10-15T23:31:12Z</time></trkpt>
<trkpt lat="46.2877159118652344" lon="7.8892664909362793"><ele></ele><time>2014-10-15T23:31:15Z</time></trkpt>
<trkpt lat="46.2878456115722656" lon="7.8893175125122070"><ele></ele><time>2014-10-15T23:31:18Z</time></trkpt>
<trkpt lat="46.2879638671875000" lon="7.8894391059875488"><ele></ele><time>2014-10-15T23:31:21Z</time></trkpt>
<trkpt lat="46.2879791259765625" lon="7.8894677162170410"><ele></ele><time>2014-10-15T23:31:24Z</time></trkpt>
<trkpt lat="46.2880134582519531" lon="7.8894534111022949"><ele></ele><time>2014-10-15T23:31:27Z</time></trkpt>
<trkpt lat="46.2879981994628906" lon="7.8893942832946777"><ele></ele><time>2014-10-15T23:31:30Z</time></trkpt>
<trkpt lat="46.2876663208007812" lon="7.8889422416687012"><ele></ele><time>2014-10-15T23:31:33Z</time></trkpt>
<trkpt lat="46.2875289916992188" lon="7.8887953758239746"><ele></ele><time>2014-10-15T23:31:36Z</time></trkpt>
<trkpt lat="46.2874031066894531" lon="7.8886590003967285"><ele></ele><time>2014-10-15T23:31:39Z</time></trkpt>
<trkpt lat="46.2872619628906250" lon="7.8885765075683594"><ele></ele><time>2014-10-15T23:31:42Z</time></trkpt>
<trkpt lat="46.2871398925781250" lon="7.8883647918701172"><ele></ele><time>2014-10-15T23:31:45Z</time></trkpt>
<trkpt lat="46.2870941162109375" lon="7.8882756233215332"><ele></ele><time>2014-10-15T23:31:48Z</time></trkpt>
<trkpt lat="46.2870559692382812" lon="7.8882317543029785"><ele></ele><time>2014-10-15T23:31:51Z</time></trkpt>
<trkpt lat="46.2870368957519531" lon="7.8882894515991211"><ele></ele><time>2014-10-15T23:31:54Z</time></trkpt>
<trkpt lat="46.2869644165039062" lon="7.8883872032165527"><ele></ele><time>2014-10-15T23:31:57Z</time></trkpt>
<trkpt lat="46.2869224548339844" lon="7.8884391784667969"><ele></ele><time>2014-10-15T23:32:0Z</time></trkpt>
<trkpt lat="46.2868881225585938" lon="7.8884925842285156"><ele></ele><time>2014-10-15T23:32:3Z</time></trkpt>
<trkpt lat="46.2868385314941406" lon="7.8885049819946289"><ele></ele><time>2014-10-15T23:32:6Z</time></trkpt>
<trkpt lat="46.2867660522460938" lon="7.8884930610656738"><ele></ele><time>2014-10-15T23:32:9Z</time></trkpt>
<trkpt lat="46.2866668701171875" lon="7.8884782791137695"><ele></ele><time>2014-10-15T23:32:12Z</time></trkpt>
<trkpt lat="46.2865829467773438" lon="7.8884701728820801"><ele></ele><time>2014-10-15T23:32:15Z</time></trkpt>
<trkpt lat="46.2865333557128906" lon="7.8884620666503906"><ele></ele><time>2014-10-15T23:32:18Z</time></trkpt>
<trkpt lat="46.2864570617675781" lon="7.8884611129760742"><ele></ele><time>2014-10-15T23:32:21Z</time></trkpt>
<trkpt lat="46.2864112854003906" lon="7.8884415626525879"><ele></ele><time>2014-10-15T23:32:24Z</time></trkpt>
<trkpt lat="46.2863578796386719" lon="7.8884229660034180"><ele></ele><time>2014-10-15T23:32:27Z</time></trkpt>
<trkpt lat="46.2862281799316406" lon="7.8883700370788574"><ele></ele><time>2014-10-15T23:32:30Z</time></trkpt>
<trkpt lat="46.2860717773437500" lon="7.8883752822875977"><ele></ele><time>2014-10-15T23:32:33Z</time></trkpt>
<trkpt lat="46.2859840393066406" lon="7.8884057998657227"><ele></ele><time>2014-10-15T23:32:36Z</time></trkpt>
<trkpt lat="46.2859077453613281" lon="7.8884353637695312"><ele></ele><time>2014-10-15T23:32:39Z</time></trkpt>
<trkpt lat="46.2857856750488281" lon="7.8884334564208984"><ele></ele><time>2014-10-15T23:32:42Z</time></trkpt>
<trkpt lat="46.2856445312500000" lon="7.8883872032165527"><ele></ele><time>2014-10-15T23:32:45Z</time></trkpt>
<trkpt lat="46.2855186462402344" lon="7.8883147239685059"><ele></ele><time>2014-10-15T23:32:48Z</time></trkpt>
<trkpt lat="46.2854156494140625" lon="7.8881721496582031"><ele></ele><time>2014-10-15T23:32:51Z</time></trkpt>
<trkpt lat="46.2853851318359375" lon="7.8880314826965332"><ele></ele><time>2014-10-15T23:32:54Z</time></trkpt>
<trkpt lat="46.2854957580566406" lon="7.8878588676452637"><ele></ele><time>2014-10-15T23:32:57Z</time></trkpt>
<trkpt lat="46.2856216430664062" lon="7.8876729011535645"><ele></ele><time>2014-10-15T23:33:0Z</time></trkpt>
<trkpt lat="46.2856483459472656" lon="7.8875455856323242"><ele></ele><time>2014-10-15T23:33:3Z</time></trkpt>
<trkpt lat="46.2857284545898438" lon="7.8875308036804199"><ele></ele><time>2014-10-15T23:33:6Z</time></trkpt>
<trkpt lat="46.2858085632324219" lon="7.8874945640563965"><ele></ele><time>2014-10-15T23:33:9Z</time></trkpt>
<trkpt lat="46.2858123779296875" lon="7.8873786926269531"><ele></ele><time>2014-10-15T23:33:12Z</time></trkpt>
<trkpt lat="46.2855529785156250" lon="7.8871035575866699"><ele></ele><time>2014-10-15T23:33:15Z</time></trkpt>
<trkpt lat="46.2857131958007812" lon="7.8871860504150391"><ele></ele><time>2014-10-15T23:33:18Z</time></trkpt>
<trkpt lat="46.2858047485351562" lon="7.8871951103210449"><ele></ele><time>2014-10-15T23:33:21Z</time></trkpt>
<trkpt lat="46.2858467102050781" lon="7.8871479034423828"><ele></ele><time>2014-10-15T23:33:24Z</time></trkpt>
<trkpt lat="46.2857856750488281" lon="7.8870639801025391"><ele></ele><time>2014-10-15T23:33:27Z</time></trkpt>
<trkpt lat="46.2856369018554688" lon="7.8868918418884277"><ele></ele><time>2014-10-15T23:33:30Z</time></trkpt>
<trkpt lat="46.2855949401855469" lon="7.8867835998535156"><ele></ele><time>2014-10-15T23:33:33Z</time></trkpt>
<trkpt lat="46.2857589721679688" lon="7.8868360519409180"><ele></ele><time>2014-10-15T23:33:36Z</time></trkpt>
<trkpt lat="46.2859992980957031" lon="7.8867087364196777"><ele></ele><time>2014-10-15T23:33:39Z</time></trkpt>
<trkpt lat="46.2860870361328125" lon="7.8867793083190918"><ele></ele><time>2014-10-15T23:33:42Z</time></trkpt>
<trkpt lat="46.2859611511230469" lon="7.8867092132568359"><ele></ele><time>2014-10-15T23:33:45Z</time></trkpt>
<trkpt lat="46.2857360839843750" lon="7.8866529464721680"><ele></ele><time>2014-10-15T23:33:48Z</time></trkpt>
<trkpt lat="46.2855300903320312" lon="7.8866143226623535"><ele></ele><time>2014-10-15T23:33:51Z</time></trkpt>
<trkpt lat="46.2855377197265625" lon="7.8865585327148438"><ele></ele><time>2014-10-15T23:33:54Z</time></trkpt>
<trkpt lat="46.2857627868652344" lon="7.8866486549377441"><ele></ele><time>2014-10-15T23:33:57Z</time></trkpt>
<trkpt lat="46.2859039306640625" lon="7.8866806030273438"><ele></ele><time>2014-10-15T23:34:0Z</time></trkpt>
<trkpt lat="46.2860412597656250" lon="7.8866982460021973"><ele></ele><time>2014-10-15T23:34:3Z</time></trkpt>
<trkpt lat="46.2861557006835938" lon="7.8867163658142090"><ele></ele><time>2014-10-15T23:34:6Z</time></trkpt>
<trkpt lat="46.2863311767578125" lon="7.8866777420043945"><ele></ele><time>2014-10-15T23:34:9Z</time></trkpt>
<trkpt lat="46.2863311767578125" lon="7.8866534233093262"><ele></ele><time>2014-10-15T23:34:12Z</time></trkpt>
<trkpt lat="46.2863388061523438" lon="7.8866453170776367"><ele></ele><time>2014-10-15T23:34:15Z</time></trkpt>
<trkpt lat="46.2863349914550781" lon="7.8866167068481445"><ele></ele><time>2014-10-15T23:34:18Z</time></trkpt>
<trkpt lat="46.2862701416015625" lon="7.8865818977355957"><ele></ele><time>2014-10-15T23:34:21Z</time></trkpt>
<trkpt lat="46.2862167358398438" lon="7.8863472938537598"><ele></ele><time>2014-10-15T23:34:24Z</time></trkpt>
<trkpt lat="46.2861747741699219" lon="7.8860592842102051"><ele></ele><time>2014-10-15T23:34:27Z</time></trkpt>
<trkpt lat="46.2860870361328125" lon="7.8858222961425781"><ele></ele><time>2014-10-15T23:34:30Z</time></trkpt>
<trkpt lat="46.2860145568847656" lon="7.8855228424072266"><ele></ele><time>2014-10-15T23:34:33Z</time></trkpt>
<trkpt lat="46.2859649658203125" lon="7.8850016593933105"><ele></ele><time>2014-10-15T23:34:36Z</time></trkpt>
<trkpt lat="46.2859420776367188" lon="7.8845467567443848"><ele></ele><time>2014-10-15T23:34:39Z</time></trkpt>
<trkpt lat="46.2859840393066406" lon="7.8844037055969238"><ele></ele><time>2014-10-15T23:34:42Z</time></trkpt>
<trkpt lat="46.2863273620605469" lon="7.8841471672058105"><ele></ele><time>2014-10-15T23:34:45Z</time></trkpt>
<trkpt lat="46.2865638732910156" lon="7.8838610649108887"><ele></ele><time>2014-10-15T23:34:48Z</time></trkpt>
<trkpt lat="46.2867393493652344" lon="7.8836374282836914"><ele></ele><time>2014-10-15T23:34:51Z</time></trkpt>
<trkpt lat="46.2868652343750000" lon="7.8834104537963867"><ele></ele><time>2014-10-15T23:34:54Z</time></trkpt>
<trkpt lat="46.2868881225585938" lon="7.8829574584960938"><ele></ele><time>2014-10-15T23:34:57Z</time></trkpt>
<trkpt lat="46.2869033813476562" lon="7.8827047348022461"><ele></ele><time>2014-10-15T23:35:0Z</time></trkpt>
<trkpt lat="46.2869873046875000" lon="7.8824877738952637"><ele></ele><time>2014-10-15T23:35:3Z</time></trkpt>
<trkpt lat="46.2871017456054688" lon="7.8823843002319336"><ele></ele><time>2014-10-15T23:35:6Z</time></trkpt>
<trkpt lat="46.2870903015136719" lon="7.8823571205139160"><ele></ele><time>2014-10-15T23:35:9Z</time></trkpt>
<trkpt lat="46.2867927551269531" lon="7.8822875022888184"><ele></ele><time>2014-10-15T23:35:12Z</time></trkpt>
<trkpt lat="46.2866859436035156" lon="7.8822631835937500"><ele></ele><time>2014-10-15T23:35:15Z</time></trkpt>
<trkpt lat="46.2866439819335938" lon="7.8822293281555176"><ele></ele><time>2014-10-15T23:35:18Z</time></trkpt>
<trkpt lat="46.2864646911621094" lon="7.8822536468505859"><ele></ele><time>2014-10-15T23:35:21Z</time></trkpt>
<trkpt lat="46.2863578796386719" lon="7.8822965621948242"><ele></ele><time>2014-10-15T23:35:24Z</time></trkpt>
<trkpt lat="46.2862434387207031" lon="7.8823757171630859"><ele></ele><time>2014-10-15T23:35:27Z</time></trkpt>
<trkpt lat="46.2861289978027344" lon="7.8824748992919922"><ele></ele><time>2014-10-15T23:35:30Z</time></trkpt>
<trkpt lat="46.2859764099121094" lon="7.8825941085815430"><ele></ele><time>2014-10-15T23:35:33Z</time></trkpt>
<trkpt lat="46.2858238220214844" lon="7.8826937675476074"><ele></ele><time>2014-10-15T23:35:36Z</time></trkpt>
<trkpt lat="46.2856979370117188" lon="7.8827776908874512"><ele></ele><time>2014-10-15T23:35:39Z</time></trkpt>
<trkpt lat="46.2854881286621094" lon="7.8829345703125000"><ele></ele><time>2014-10-15T23:35:42Z</time></trkpt>
<trkpt lat="46.2854042053222656" lon="7.8830084800720215"><ele></ele><time>2014-10-15T23:35:45Z</time></trkpt>
<trkpt lat="46.2849845886230469" lon="7.8832006454467773"><ele></ele><time>2014-10-15T23:35:48Z</time></trkpt>
<trkpt lat="46.2847480773925781" lon="7.8824286460876465"><ele></ele><time>2014-10-15T23:35:51Z</time></trkpt>
<trkpt lat="46.2846717834472656" lon="7.8823866844177246"><ele></ele><time>2014-10-15T23:35:54Z</time></trkpt>
<trkpt lat="46.2845153808593750" lon="7.8823981285095215"><ele></ele><time>2014-10-15T23:35:57Z</time></trkpt>
<trkpt lat="46.2844161987304688" lon="7.8824481964111328"><ele></ele><time>2014-10-15T23:36:0Z</time></trkpt>
<trkpt lat="46.2843208312988281" lon="7.8825068473815918"><ele></ele><time>2014-10-15T23:36:3Z</time></trkpt>
<trkpt lat="46.2841644287109375" lon="7.8825411796569824"><ele></ele><time>2014-10-15T23:36:6Z</time></trkpt>
<trkpt lat="46.2840309143066406" lon="7.8825640678405762"><ele></ele><time>2014-10-15T23:36:9Z</time></trkpt>
<trkpt lat="46.2839241027832031" lon="7.8826975822448730"><ele></ele><time>2014-10-15T23:36:12Z</time></trkpt>
<trkpt lat="46.2837791442871094" lon="7.8828153610229492"><ele></ele><time>2014-10-15T23:36:15Z</time></trkpt>
<trkpt lat="46.2836647033691406" lon="7.8828539848327637"><ele></ele><time>2014-10-15T23:36:18Z</time></trkpt>
<trkpt lat="46.2835235595703125" lon="7.8828983306884766"><ele></ele><time>2014-10-15T23:36:21Z</time></trkpt>
<trkpt lat="46.2833900451660156" lon="7.8829474449157715"><ele></ele><time>2014-10-15T23:36:24Z</time></trkpt>
<trkpt lat="46.2832374572753906" lon="7.8830161094665527"><ele></ele><time>2014-10-15T23:36:27Z</time></trkpt>
<trkpt lat="46.2831306457519531" lon="7.8830509185791016"><ele></ele><time>2014-10-15T23:36:30Z</time></trkpt>
<trkpt lat="46.2830123901367188" lon="7.8830852508544922"><ele></ele><time>2014-10-15T23:36:33Z</time></trkpt>
<trkpt lat="46.2828636169433594" lon="7.8831357955932617"><ele></ele><time>2014-10-15T23:36:36Z</time></trkpt>
<trkpt lat="46.2827301025390625" lon="7.8832335472106934"><ele></ele><time>2014-10-15T23:36:39Z</time></trkpt>
<trkpt lat="46.2826271057128906" lon="7.8832621574401855"><ele></ele><time>2014-10-15T23:36:42Z</time></trkpt>
<trkpt lat="46.2825202941894531" lon="7.8832507133483887"><ele></ele><time>2014-10-15T23:36:45Z</time></trkpt>
<trkpt lat="46.2824058532714844" lon="7.8832311630249023"><ele></ele><time>2014-10-15T23:36:48Z</time></trkpt>
<trkpt lat="46.2822914123535156" lon="7.8832464218139648"><ele></ele><time>2014-10-15T23:36:51Z</time></trkpt>
<trkpt lat="46.2822189331054688" lon="7.8832216262817383"><ele></ele><time>2014-10-15T23:36:54Z</time></trkpt>
<trkpt lat="46.2821083068847656" lon="7.8831300735473633"><ele></ele><time>2014-10-15T23:36:57Z</time></trkpt>
<trkpt lat="46.2820320129394531" lon="7.8830752372741699"><ele></ele><time>2014-10-15T23:37:0Z</time></trkpt>
<trkpt lat="46.2819633483886719" lon="7.8830060958862305"><ele></ele><time>2014-10-15T23:37:3Z</time></trkpt>
<trkpt lat="46.2818565368652344" lon="7.8829317092895508"><ele></ele><time>2014-10-15T23:37:6Z</time></trkpt>
<trkpt lat="46.2815933227539062" lon="7.8827953338623047"><ele></ele><time>2014-10-15T23:37:9Z</time></trkpt>
<trkpt lat="46.2815704345703125" lon="7.8827919960021973"><ele></ele><time>2014-10-15T23:37:12Z</time></trkpt>
<trkpt lat="46.2815475463867188" lon="7.8828711509704590"><ele></ele><time>2014-10-15T23:37:15Z</time></trkpt>
<trkpt lat="46.2815513610839844" lon="7.8829188346862793"><ele></ele><time>2014-10-15T23:37:18Z</time></trkpt>
<trkpt lat="46.2813568115234375" lon="7.8829007148742676"><ele></ele><time>2014-10-15T23:37:21Z</time></trkpt>
<trkpt lat="46.2812156677246094" lon="7.8829064369201660"><ele></ele><time>2014-10-15T23:37:24Z</time></trkpt>
<trkpt lat="46.2809829711914062" lon="7.8828887939453125"><ele></ele><time>2014-10-15T23:37:27Z</time></trkpt>
<trkpt lat="46.2808532714843750" lon="7.8828921318054199"><ele></ele><time>2014-10-15T23:37:30Z</time></trkpt>
<trkpt lat="46.2806816101074219" lon="7.8829169273376465"><ele></ele><time>2014-10-15T23:37:33Z</time></trkpt>
<trkpt lat="46.2804489135742188" lon="7.8830223083496094"><ele></ele><time>2014-10-15T23:37:36Z</time></trkpt>
<trkpt lat="46.2802467346191406" lon="7.8831682205200195"><ele></ele><time>2014-10-15T23:37:39Z</time></trkpt>
<trkpt lat="46.2801055908203125" lon="7.8832736015319824"><ele></ele><time>2014-10-15T23:37:42Z</time></trkpt>
<trkpt lat="46.2799148559570312" lon="7.8834509849548340"><ele></ele><time>2014-10-15T23:37:45Z</time></trkpt>
<trkpt lat="46.2797851562500000" lon="7.8836841583251953"><ele></ele><time>2014-10-15T23:37:48Z</time></trkpt>
<trkpt lat="46.2796478271484375" lon="7.8838958740234375"><ele></ele><time>2014-10-15T23:37:51Z</time></trkpt>
<trkpt lat="46.2795906066894531" lon="7.8840093612670898"><ele></ele><time>2014-10-15T23:37:54Z</time></trkpt>
<trkpt lat="46.2794532775878906" lon="7.8840985298156738"><ele></ele><time>2014-10-15T23:37:57Z</time></trkpt>
<trkpt lat="46.2793197631835938" lon="7.8841509819030762"><ele></ele><time>2014-10-15T23:38:0Z</time></trkpt>
<trkpt lat="46.2791862487792969" lon="7.8841857910156250"><ele></ele><time>2014-10-15T23:38:3Z</time></trkpt>
<trkpt lat="46.2790260314941406" lon="7.8841633796691895"><ele></ele><time>2014-10-15T23:38:6Z</time></trkpt>
<trkpt lat="46.2789268493652344" lon="7.8841314315795898"><ele></ele><time>2014-10-15T23:38:9Z</time></trkpt>
<trkpt lat="46.2788009643554688" lon="7.8841042518615723"><ele></ele><time>2014-10-15T23:38:12Z</time></trkpt>
<trkpt lat="46.2787246704101562" lon="7.8840475082397461"><ele></ele><time>2014-10-15T23:38:15Z</time></trkpt>
<trkpt lat="46.2786331176757812" lon="7.8839640617370605"><ele></ele><time>2014-10-15T23:38:18Z</time></trkpt>
<trkpt lat="46.2785491943359375" lon="7.8839054107666016"><ele></ele><time>2014-10-15T23:38:21Z</time></trkpt>
<trkpt lat="46.2784156799316406" lon="7.8838219642639160"><ele></ele><time>2014-10-15T23:38:24Z</time></trkpt>
<trkpt lat="46.2783164978027344" lon="7.8837738037109375"><ele></ele><time>2014-10-15T23:38:27Z</time></trkpt>
<trkpt lat="46.2782173156738281" lon="7.8837370872497559"><ele></ele><time>2014-10-15T23:38:30Z</time></trkpt>
<trkpt lat="46.2781219482421875" lon="7.8837132453918457"><ele></ele><time>2014-10-15T23:38:33Z</time></trkpt>
<trkpt lat="46.2779998779296875" lon="7.8836808204650879"><ele></ele><time>2014-10-15T23:38:36Z</time></trkpt>
<trkpt lat="46.2779388427734375" lon="7.8836355209350586"><ele></ele><time>2014-10-15T23:38:39Z</time></trkpt>
<trkpt lat="46.2778968811035156" lon="7.8835215568542480"><ele></ele><time>2014-10-15T23:38:42Z</time></trkpt>
<trkpt lat="46.2779464721679688" lon="7.8832149505615234"><ele></ele><time>2014-10-15T23:38:45Z</time></trkpt>
<trkpt lat="46.2780494689941406" lon="7.8828797340393066"><ele></ele><time>2014-10-15T23:38:48Z</time></trkpt>
<trkpt lat="46.2781181335449219" lon="7.8827915191650391"><ele></ele><time>2014-10-15T23:38:51Z</time></trkpt>
<trkpt lat="46.2781677246093750" lon="7.8827681541442871"><ele></ele><time>2014-10-15T23:38:54Z</time></trkpt>
<trkpt lat="46.2781982421875000" lon="7.8827438354492188"><ele></ele><time>2014-10-15T23:38:57Z</time></trkpt>
<trkpt lat="46.2782554626464844" lon="7.8826379776000977"><ele></ele><time>2014-10-15T23:39:0Z</time></trkpt>
<trkpt lat="46.2782211303710938" lon="7.8826537132263184"><ele></ele><time>2014-10-15T23:39:3Z</time></trkpt>
<trkpt lat="46.2781982421875000" lon="7.8826270103454590"><ele></ele><time>2014-10-15T23:39:6Z</time></trkpt>
<trkpt lat="46.2781715393066406" lon="7.8825969696044922"><ele></ele><time>2014-10-15T23:39:9Z</time></trkpt>
<trkpt lat="46.2781333923339844" lon="7.8825812339782715"><ele></ele><time>2014-10-15T23:39:12Z</time></trkpt>
<trkpt lat="46.2781143188476562" lon="7.8825788497924805"><ele></ele><time>2014-10-15T23:39:15Z</time></trkpt>
<trkpt lat="46.2781028747558594" lon="7.8825569152832031"><ele></ele><time>2014-10-15T23:39:18Z</time></trkpt>
<trkpt lat="46.2780685424804688" lon="7.8825454711914062"><ele></ele><time>2014-10-15T23:39:21Z</time></trkpt>
<trkpt lat="46.2780532836914062" lon="7.8825421333312988"><ele></ele><time>2014-10-15T23:39:24Z</time></trkpt>
<trkpt lat="46.2780494689941406" lon="7.8825244903564453"><ele></ele><time>2014-10-15T23:39:27Z</time></trkpt>
<trkpt lat="46.2780494689941406" lon="7.8825078010559082"><ele></ele><time>2014-10-15T23:39:30Z</time></trkpt>
<trkpt lat="46.2780456542968750" lon="7.8824934959411621"><ele></ele><time>2014-10-15T23:39:33Z</time></trkpt>
<trkpt lat="46.2778892517089844" lon="7.8825802803039551"><ele></ele><time>2014-10-15T23:39:36Z</time></trkpt>
<trkpt lat="46.2777786254882812" lon="7.8826193809509277"><ele></ele><time>2014-10-15T23:39:39Z</time></trkpt>
<trkpt lat="46.2776908874511719" lon="7.8826298713684082"><ele></ele><time>2014-10-15T23:39:42Z</time></trkpt>
<trkpt lat="46.2775688171386719" lon="7.8826336860656738"><ele></ele><time>2014-10-15T23:39:45Z</time></trkpt>
<trkpt lat="46.2774925231933594" lon="7.8826150894165039"><ele></ele><time>2014-10-15T23:39:48Z</time></trkpt>
<trkpt lat="46.2773742675781250" lon="7.8826031684875488"><ele></ele><time>2014-10-15T23:39:51Z</time></trkpt>
<trkpt lat="46.2772407531738281" lon="7.8825750350952148"><ele></ele><time>2014-10-15T23:39:54Z</time></trkpt>
<trkpt lat="46.2771339416503906" lon="7.8825345039367676"><ele></ele><time>2014-10-15T23:39:57Z</time></trkpt>
<trkpt lat="46.2769775390625000" lon="7.8825006484985352"><ele></ele><time>2014-10-15T23:40:0Z</time></trkpt>
<trkpt lat="46.2768745422363281" lon="7.8824625015258789"><ele></ele><time>2014-10-15T23:40:3Z</time></trkpt>
<trkpt lat="46.2767715454101562" lon="7.8824133872985840"><ele></ele><time>2014-10-15T23:40:6Z</time></trkpt>
<trkpt lat="46.2766304016113281" lon="7.8823208808898926"><ele></ele><time>2014-10-15T23:40:9Z</time></trkpt>
<trkpt lat="46.2764739990234375" lon="7.8822994232177734"><ele></ele><time>2014-10-15T23:40:12Z</time></trkpt>
<trkpt lat="46.2763633728027344" lon="7.8822970390319824"><ele></ele><time>2014-10-15T23:40:15Z</time></trkpt>
<trkpt lat="46.2761993408203125" lon="7.8822598457336426"><ele></ele><time>2014-10-15T23:40:18Z</time></trkpt>
<trkpt lat="46.2761039733886719" lon="7.8822288513183594"><ele></ele><time>2014-10-15T23:40:21Z</time></trkpt>
<trkpt lat="46.2760581970214844" lon="7.8821973800659180"><ele></ele><time>2014-10-15T23:40:24Z</time></trkpt>
<trkpt lat="46.2760429382324219" lon="7.8821191787719727"><ele></ele><time>2014-10-15T23:40:27Z</time></trkpt>
<trkpt lat="46.2760543823242188" lon="7.8819260597229004"><ele></ele><time>2014-10-15T23:40:30Z</time></trkpt>
<trkpt lat="46.2760734558105469" lon="7.8817048072814941"><ele></ele><time>2014-10-15T23:40:33Z</time></trkpt>
<trkpt lat="46.2761001586914062" lon="7.8815536499023438"><ele></ele><time>2014-10-15T23:40:36Z</time></trkpt>
<trkpt lat="46.2760391235351562" lon="7.8813776969909668"><ele></ele><time>2014-10-15T23:40:39Z</time></trkpt>
<trkpt lat="46.2759170532226562" lon="7.8814105987548828"><ele></ele><time>2014-10-15T23:40:42Z</time></trkpt>
<trkpt lat="46.2758026123046875" lon="7.8814311027526855"><ele></ele><time>2014-10-15T23:40:45Z</time></trkpt>
<trkpt lat="46.2756233215332031" lon="7.8814291954040527"><ele></ele><time>2014-10-15T23:40:48Z</time></trkpt>
<trkpt lat="46.2754402160644531" lon="7.8814258575439453"><ele></ele><time>2014-10-15T23:40:51Z</time></trkpt>
<trkpt lat="46.2753067016601562" lon="7.8814191818237305"><ele></ele><time>2014-10-15T23:40:54Z</time></trkpt>
<trkpt lat="46.2751007080078125" lon="7.8814077377319336"><ele></ele><time>2014-10-15T23:40:57Z</time></trkpt>
<trkpt lat="46.2748832702636719" lon="7.8814001083374023"><ele></ele><time>2014-10-15T23:41:0Z</time></trkpt>
<trkpt lat="46.2747421264648438" lon="7.8813853263854980"><ele></ele><time>2014-10-15T23:41:3Z</time></trkpt>
<trkpt lat="46.2745437622070312" lon="7.8813781738281250"><ele></ele><time>2014-10-15T23:41:6Z</time></trkpt>
<trkpt lat="46.2744178771972656" lon="7.8813796043395996"><ele></ele><time>2014-10-15T23:41:9Z</time></trkpt>
<trkpt lat="46.2742233276367188" lon="7.8813576698303223"><ele></ele><time>2014-10-15T23:41:12Z</time></trkpt>
<trkpt lat="46.2740325927734375" lon="7.8814163208007812"><ele></ele><time>2014-10-15T23:41:15Z</time></trkpt>
<trkpt lat="46.2739028930664062" lon="7.8814001083374023"><ele></ele><time>2014-10-15T23:41:18Z</time></trkpt>
<trkpt lat="46.2737083435058594" lon="7.8813710212707520"><ele></ele><time>2014-10-15T23:41:21Z</time></trkpt>
<trkpt lat="46.2735710144042969" lon="7.8813490867614746"><ele></ele><time>2014-10-15T23:41:24Z</time></trkpt>
<trkpt lat="46.2734413146972656" lon="7.8813281059265137"><ele></ele><time>2014-10-15T23:41:27Z</time></trkpt>
<trkpt lat="46.2733039855957031" lon="7.8813052177429199"><ele></ele><time>2014-10-15T23:41:30Z</time></trkpt>
<trkpt lat="46.2730979919433594" lon="7.8812699317932129"><ele></ele><time>2014-10-15T23:41:33Z</time></trkpt>
<trkpt lat="46.2728919982910156" lon="7.8812341690063477"><ele></ele><time>2014-10-15T23:41:36Z</time></trkpt>
<trkpt lat="46.2727546691894531" lon="7.8812103271484375"><ele></ele><time>2014-10-15T23:41:39Z</time></trkpt>
<trkpt lat="46.2726211547851562" lon="7.8811879158020020"><ele></ele><time>2014-10-15T23:41:42Z</time></trkpt>
<trkpt lat="46.2724227905273438" lon="7.8811540603637695"><ele></ele><time>2014-10-15T23:41:45Z</time></trkpt>
<trkpt lat="46.2722396850585938" lon="7.8811120986938477"><ele></ele><time>2014-10-15T23:41:48Z</time></trkpt>
<trkpt lat="46.2720527648925781" lon="7.8810653686523438"><ele></ele><time>2014-10-15T23:41:51Z</time></trkpt>
<trkpt lat="46.2718620300292969" lon="7.8810181617736816"><ele></ele><time>2014-10-15T23:41:54Z</time></trkpt>
<trkpt lat="46.2716560363769531" lon="7.8809733390808105"><ele></ele><time>2014-10-15T23:41:57Z</time></trkpt>
<trkpt lat="46.2714500427246094" lon="7.8809309005737305"><ele></ele><time>2014-10-15T23:42:0Z</time></trkpt>
<trkpt lat="46.2713203430175781" lon="7.8809032440185547"><ele></ele><time>2014-10-15T23:42:3Z</time></trkpt>
<trkpt lat="46.2711181640625000" lon="7.8808531761169434"><ele></ele><time>2014-10-15T23:42:6Z</time></trkpt>
<trkpt lat="46.2709846496582031" lon="7.8808150291442871"><ele></ele><time>2014-10-15T23:42:9Z</time></trkpt>
<trkpt lat="46.2709045410156250" lon="7.8807930946350098"><ele></ele><time>2014-10-15T23:42:12Z</time></trkpt>
<trkpt lat="46.2706031799316406" lon="7.8806967735290527"><ele></ele><time>2014-10-15T23:42:15Z</time></trkpt>
<trkpt lat="46.2704772949218750" lon="7.8806800842285156"><ele></ele><time>2014-10-15T23:42:18Z</time></trkpt>
<trkpt lat="46.2703056335449219" lon="7.8806495666503906"><ele></ele><time>2014-10-15T23:42:21Z</time></trkpt>
<trkpt lat="46.2701797485351562" lon="7.8806352615356445"><ele></ele><time>2014-10-15T23:42:24Z</time></trkpt>
<trkpt lat="46.2700080871582031" lon="7.8805422782897949"><ele></ele><time>2014-10-15T23:42:27Z</time></trkpt>
<trkpt lat="46.2698440551757812" lon="7.8805460929870605"><ele></ele><time>2014-10-15T23:42:30Z</time></trkpt>
<trkpt lat="46.2697257995605469" lon="7.8805570602416992"><ele></ele><time>2014-10-15T23:42:33Z</time></trkpt>
<trkpt lat="46.2695655822753906" lon="7.8805818557739258"><ele></ele><time>2014-10-15T23:42:36Z</time></trkpt>
<trkpt lat="46.2694625854492188" lon="7.8806033134460449"><ele></ele><time>2014-10-15T23:42:39Z</time></trkpt>
<trkpt lat="46.2693519592285156" lon="7.8805913925170898"><ele></ele><time>2014-10-15T23:42:42Z</time></trkpt>
<trkpt lat="46.2692794799804688" lon="7.8805341720581055"><ele></ele><time>2014-10-15T23:42:45Z</time></trkpt>
<trkpt lat="46.2689971923828125" lon="7.8805403709411621"><ele></ele><time>2014-10-15T23:42:48Z</time></trkpt>
<trkpt lat="46.2689018249511719" lon="7.8804869651794434"><ele></ele><time>2014-10-15T23:42:51Z</time></trkpt>
<trkpt lat="46.2687797546386719" lon="7.8804311752319336"><ele></ele><time>2014-10-15T23:42:54Z</time></trkpt>
<trkpt lat="46.2685966491699219" lon="7.8803849220275879"><ele></ele><time>2014-10-15T23:42:57Z</time></trkpt>
<trkpt lat="46.2684822082519531" lon="7.8803334236145020"><ele></ele><time>2014-10-15T23:43:0Z</time></trkpt>
<trkpt lat="46.2683219909667969" lon="7.8802251815795898"><ele></ele><time>2014-10-15T23:43:3Z</time></trkpt>
<trkpt lat="46.2682495117187500" lon="7.8801784515380859"><ele></ele><time>2014-10-15T23:43:6Z</time></trkpt>
<trkpt lat="46.2681236267089844" lon="7.8801422119140625"><ele></ele><time>2014-10-15T23:43:9Z</time></trkpt>
<trkpt lat="46.2680473327636719" lon="7.8801274299621582"><ele></ele><time>2014-10-15T23:43:12Z</time></trkpt>
<trkpt lat="46.2679481506347656" lon="7.8801403045654297"><ele></ele><time>2014-10-15T23:43:15Z</time></trkpt>
<trkpt lat="46.2675018310546875" lon="7.8795113563537598"><ele></ele><time>2014-10-15T23:43:18Z</time></trkpt>
<trkpt lat="46.2673683166503906" lon="7.8794322013854980"><ele></ele><time>2014-10-15T23:43:21Z</time></trkpt>
<trkpt lat="46.2672080993652344" lon="7.8792533874511719"><ele></ele><time>2014-10-15T23:43:24Z</time></trkpt>
<trkpt lat="46.2671012878417969" lon="7.8791279792785645"><ele></ele><time>2014-10-15T23:43:27Z</time></trkpt>
<trkpt lat="46.2669830322265625" lon="7.8790268898010254"><ele></ele><time>2014-10-15T23:43:30Z</time></trkpt>
<trkpt lat="46.2667999267578125" lon="7.8789186477661133"><ele></ele><time>2014-10-15T23:43:33Z</time></trkpt>
<trkpt lat="46.2666854858398438" lon="7.8788628578186035"><ele></ele><time>2014-10-15T23:43:36Z</time></trkpt>
<trkpt lat="46.2665100097656250" lon="7.8788084983825684"><ele></ele><time>2014-10-15T23:43:39Z</time></trkpt>
<trkpt lat="46.2663650512695312" lon="7.8787426948547363"><ele></ele><time>2014-10-15T23:43:42Z</time></trkpt>
<trkpt lat="46.2662124633789062" lon="7.8786649703979492"><ele></ele><time>2014-10-15T23:43:45Z</time></trkpt>
<trkpt lat="46.2661170959472656" lon="7.8785834312438965"><ele></ele><time>2014-10-15T23:43:48Z</time></trkpt>
<trkpt lat="46.2660331726074219" lon="7.8785123825073242"><ele></ele><time>2014-10-15T23:43:51Z</time></trkpt>
<trkpt lat="46.2659263610839844" lon="7.8784408569335938"><ele></ele><time>2014-10-15T23:43:54Z</time></trkpt>
<trkpt lat="46.2658538818359375" lon="7.8783903121948242"><ele></ele><time>2014-10-15T23:43:57Z</time></trkpt>
<trkpt lat="46.2657966613769531" lon="7.8782820701599121"><ele></ele><time>2014-10-15T23:44:0Z</time></trkpt>
<trkpt lat="46.2657089233398438" lon="7.8781075477600098"><ele></ele><time>2014-10-15T23:44:3Z</time></trkpt>
<trkpt lat="46.2656326293945312" lon="7.8780145645141602"><ele></ele><time>2014-10-15T23:44:6Z</time></trkpt>
<trkpt lat="46.2654838562011719" lon="7.8778910636901855"><ele></ele><time>2014-10-15T23:44:9Z</time></trkpt>
<trkpt lat="46.2653198242187500" lon="7.8777990341186523"><ele></ele><time>2014-10-15T23:44:12Z</time></trkpt>
<trkpt lat="46.2651481628417969" lon="7.8777103424072266"><ele></ele><time>2014-10-15T23:44:15Z</time></trkpt>
<trkpt lat="46.2650184631347656" lon="7.8776488304138184"><ele></ele><time>2014-10-15T23:44:18Z</time></trkpt>
<trkpt lat="46.2648239135742188" lon="7.8775625228881836"><ele></ele><time>2014-10-15T23:44:21Z</time></trkpt>
<trkpt lat="46.2646865844726562" lon="7.8775186538696289"><ele></ele><time>2014-10-15T23:44:24Z</time></trkpt>
<trkpt lat="46.2645339965820312" lon="7.8774895668029785"><ele></ele><time>2014-10-15T23:44:27Z</time></trkpt>
<trkpt lat="46.2643089294433594" lon="7.8774628639221191"><ele></ele><time>2014-10-15T23:44:30Z</time></trkpt>
<trkpt lat="46.2641601562500000" lon="7.8774294853210449"><ele></ele><time>2014-10-15T23:44:33Z</time></trkpt>
<trkpt lat="46.2639198303222656" lon="7.8773522377014160"><ele></ele><time>2014-10-15T23:44:36Z</time></trkpt>
<trkpt lat="46.2637901306152344" lon="7.8772997856140137"><ele></ele><time>2014-10-15T23:44:39Z</time></trkpt>
<trkpt lat="46.2636451721191406" lon="7.8772511482238770"><ele></ele><time>2014-10-15T23:44:42Z</time></trkpt>
<trkpt lat="46.2635002136230469" lon="7.8772096633911133"><ele></ele><time>2014-10-15T23:44:45Z</time></trkpt>
<trkpt lat="46.2633514404296875" lon="7.8771734237670898"><ele></ele><time>2014-10-15T23:44:48Z</time></trkpt>
<trkpt lat="46.2631187438964844" lon="7.8771429061889648"><ele></ele><time>2014-10-15T23:44:51Z</time></trkpt>
<trkpt lat="46.2629699707031250" lon="7.8771777153015137"><ele></ele><time>2014-10-15T23:44:54Z</time></trkpt>
<trkpt lat="46.2628135681152344" lon="7.8772411346435547"><ele></ele><time>2014-10-15T23:44:57Z</time></trkpt>
<trkpt lat="46.2626647949218750" lon="7.8773069381713867"><ele></ele><time>2014-10-15T23:45:0Z</time></trkpt>
<trkpt lat="46.2624320983886719" lon="7.8774061203002930"><ele></ele><time>2014-10-15T23:45:3Z</time></trkpt>
<trkpt lat="46.2622261047363281" lon="7.8775186538696289"><ele></ele><time>2014-10-15T23:45:6Z</time></trkpt>
<trkpt lat="46.2621116638183594" lon="7.8775768280029297"><ele></ele><time>2014-10-15T23:45:9Z</time></trkpt>
<trkpt lat="46.2619361877441406" lon="7.8776354789733887"><ele></ele><time>2014-10-15T23:45:12Z</time></trkpt>
<trkpt lat="46.2617454528808594" lon="7.8776721954345703"><ele></ele><time>2014-10-15T23:45:15Z</time></trkpt>
<trkpt lat="46.2615966796875000" lon="7.8776812553405762"><ele></ele><time>2014-10-15T23:45:18Z</time></trkpt>
<trkpt lat="46.2613830566406250" lon="7.8776488304138184"><ele></ele><time>2014-10-15T23:45:21Z</time></trkpt>
<trkpt lat="46.2611694335937500" lon="7.8775873184204102"><ele></ele><time>2014-10-15T23:45:24Z</time></trkpt>
<trkpt lat="46.2609519958496094" lon="7.8775334358215332"><ele></ele><time>2014-10-15T23:45:27Z</time></trkpt>
<trkpt lat="46.2607460021972656" lon="7.8774380683898926"><ele></ele><time>2014-10-15T23:45:30Z</time></trkpt>
<trkpt lat="46.2605285644531250" lon="7.8774089813232422"><ele></ele><time>2014-10-15T23:45:33Z</time></trkpt>
<trkpt lat="46.2603149414062500" lon="7.8774175643920898"><ele></ele><time>2014-10-15T23:45:36Z</time></trkpt>
<trkpt lat="46.2601737976074219" lon="7.8774428367614746"><ele></ele><time>2014-10-15T23:45:39Z</time></trkpt>
<trkpt lat="46.2599678039550781" lon="7.8775196075439453"><ele></ele><time>2014-10-15T23:45:42Z</time></trkpt>
<trkpt lat="46.2597618103027344" lon="7.8776245117187500"><ele></ele><time>2014-10-15T23:45:45Z</time></trkpt>
<trkpt lat="46.2595558166503906" lon="7.8777165412902832"><ele></ele><time>2014-10-15T23:45:48Z</time></trkpt>
<trkpt lat="46.2594490051269531" lon="7.8777575492858887"><ele></ele><time>2014-10-15T23:45:51Z</time></trkpt>
<trkpt lat="46.2593193054199219" lon="7.8778195381164551"><ele></ele><time>2014-10-15T23:45:54Z</time></trkpt>
<trkpt lat="46.2591819763183594" lon="7.8779006004333496"><ele></ele><time>2014-10-15T23:45:57Z</time></trkpt>
<trkpt lat="46.2590484619140625" lon="7.8779754638671875"><ele></ele><time>2014-10-15T23:46:0Z</time></trkpt>
<trkpt lat="46.2588424682617188" lon="7.8780779838562012"><ele></ele><time>2014-10-15T23:46:3Z</time></trkpt>
<trkpt lat="46.2586975097656250" lon="7.8781113624572754"><ele></ele><time>2014-10-15T23:46:6Z</time></trkpt>
<trkpt lat="46.2584877014160156" lon="7.8781628608703613"><ele></ele><time>2014-10-15T23:46:9Z</time></trkpt>
<trkpt lat="46.2583618164062500" lon="7.8782072067260742"><ele></ele><time>2014-10-15T23:46:12Z</time></trkpt>
<trkpt lat="46.2582359313964844" lon="7.8782510757446289"><ele></ele><time>2014-10-15T23:46:15Z</time></trkpt>
<trkpt lat="46.2580528259277344" lon="7.8783121109008789"><ele></ele><time>2014-10-15T23:46:18Z</time></trkpt>
<trkpt lat="46.2579345703125000" lon="7.8783721923828125"><ele></ele><time>2014-10-15T23:46:21Z</time></trkpt>
<trkpt lat="46.2577476501464844" lon="7.8785252571105957"><ele></ele><time>2014-10-15T23:46:24Z</time></trkpt>
<trkpt lat="46.2576408386230469" lon="7.8786416053771973"><ele></ele><time>2014-10-15T23:46:27Z</time></trkpt>
<trkpt lat="46.2575492858886719" lon="7.8787550926208496"><ele></ele><time>2014-10-15T23:46:30Z</time></trkpt>
<trkpt lat="46.2573966979980469" lon="7.8788719177246094"><ele></ele><time>2014-10-15T23:46:33Z</time></trkpt>
<trkpt lat="46.2572669982910156" lon="7.8789000511169434"><ele></ele><time>2014-10-15T23:46:36Z</time></trkpt>
<trkpt lat="46.2570762634277344" lon="7.8789339065551758"><ele></ele><time>2014-10-15T23:46:39Z</time></trkpt>
<trkpt lat="46.2569465637207031" lon="7.8789420127868652"><ele></ele><time>2014-10-15T23:46:42Z</time></trkpt>
<trkpt lat="46.2568206787109375" lon="7.8789420127868652"><ele></ele><time>2014-10-15T23:46:45Z</time></trkpt>
<trkpt lat="46.2566375732421875" lon="7.8789119720458984"><ele></ele><time>2014-10-15T23:46:48Z</time></trkpt>
<trkpt lat="46.2564735412597656" lon="7.8788657188415527"><ele></ele><time>2014-10-15T23:46:51Z</time></trkpt>
<trkpt lat="46.2562980651855469" lon="7.8788299560546875"><ele></ele><time>2014-10-15T23:46:54Z</time></trkpt>
<trkpt lat="46.2561073303222656" lon="7.8788132667541504"><ele></ele><time>2014-10-15T23:46:57Z</time></trkpt>
<trkpt lat="46.2559242248535156" lon="7.8787240982055664"><ele></ele><time>2014-10-15T23:47:0Z</time></trkpt>
<trkpt lat="46.2557487487792969" lon="7.8786249160766602"><ele></ele><time>2014-10-15T23:47:3Z</time></trkpt>
<trkpt lat="46.2556304931640625" lon="7.8785619735717773"><ele></ele><time>2014-10-15T23:47:6Z</time></trkpt>
<trkpt lat="46.2554512023925781" lon="7.8784937858581543"><ele></ele><time>2014-10-15T23:47:9Z</time></trkpt>
<trkpt lat="46.2553329467773438" lon="7.8784275054931641"><ele></ele><time>2014-10-15T23:47:12Z</time></trkpt>
<trkpt lat="46.2551765441894531" lon="7.8782672882080078"><ele></ele><time>2014-10-15T23:47:15Z</time></trkpt>
<trkpt lat="46.2550849914550781" lon="7.8781471252441406"><ele></ele><time>2014-10-15T23:47:18Z</time></trkpt>
<trkpt lat="46.2549362182617188" lon="7.8780002593994141"><ele></ele><time>2014-10-15T23:47:21Z</time></trkpt>
<trkpt lat="46.2548294067382812" lon="7.8779044151306152"><ele></ele><time>2014-10-15T23:47:24Z</time></trkpt>
<trkpt lat="46.2546806335449219" lon="7.8777494430541992"><ele></ele><time>2014-10-15T23:47:27Z</time></trkpt>
<trkpt lat="46.2545318603515625" lon="7.8775887489318848"><ele></ele><time>2014-10-15T23:47:30Z</time></trkpt>
<trkpt lat="46.2543945312500000" lon="7.8774275779724121"><ele></ele><time>2014-10-15T23:47:33Z</time></trkpt>
<trkpt lat="46.2543220520019531" lon="7.8773093223571777"><ele></ele><time>2014-10-15T23:47:36Z</time></trkpt>
<trkpt lat="46.2542114257812500" lon="7.8771371841430664"><ele></ele><time>2014-10-15T23:47:39Z</time></trkpt>
<trkpt lat="46.2540817260742188" lon="7.8770003318786621"><ele></ele><time>2014-10-15T23:47:42Z</time></trkpt>
<trkpt lat="46.2539939880371094" lon="7.8769249916076660"><ele></ele><time>2014-10-15T23:47:45Z</time></trkpt>
<trkpt lat="46.2539062500000000" lon="7.8768801689147949"><ele></ele><time>2014-10-15T23:47:48Z</time></trkpt>
<trkpt lat="46.2538299560546875" lon="7.8768415451049805"><ele></ele><time>2014-10-15T23:47:51Z</time></trkpt>
<trkpt lat="46.2537879943847656" lon="7.8768162727355957"><ele></ele><time>2014-10-15T23:47:54Z</time></trkpt>
<trkpt lat="46.2537231445312500" lon="7.8767895698547363"><ele></ele><time>2014-10-15T23:47:57Z</time></trkpt>
<trkpt lat="46.2536659240722656" lon="7.8767547607421875"><ele></ele><time>2014-10-15T23:48:0Z</time></trkpt>
<trkpt lat="46.2536315917968750" lon="7.8767266273498535"><ele></ele><time>2014-10-15T23:48:3Z</time></trkpt>
<trkpt lat="46.2536048889160156" lon="7.8766989707946777"><ele></ele><time>2014-10-15T23:48:6Z</time></trkpt>
<trkpt lat="46.2535591125488281" lon="7.8766622543334961"><ele></ele><time>2014-10-15T23:48:9Z</time></trkpt>
<trkpt lat="46.2535247802734375" lon="7.8766384124755859"><ele></ele><time>2014-10-15T23:48:12Z</time></trkpt>
<trkpt lat="46.2534713745117188" lon="7.8766174316406250"><ele></ele><time>2014-10-15T23:48:15Z</time></trkpt>
<trkpt lat="46.2534255981445312" lon="7.8765702247619629"><ele></ele><time>2014-10-15T23:48:18Z</time></trkpt>
<trkpt lat="46.2533950805664062" lon="7.8765354156494141"><ele></ele><time>2014-10-15T23:48:21Z</time></trkpt>
<trkpt lat="46.2533531188964844" lon="7.8764843940734863"><ele></ele><time>2014-10-15T23:48:24Z</time></trkpt>
<trkpt lat="46.2533149719238281" lon="7.8764429092407227"><ele></ele><time>2014-10-15T23:48:27Z</time></trkpt>
<trkpt lat="46.2532691955566406" lon="7.8764109611511230"><ele></ele><time>2014-10-15T23:48:30Z</time></trkpt>
<trkpt lat="46.2532424926757812" lon="7.8763952255249023"><ele></ele><time>2014-10-15T23:48:33Z</time></trkpt>
<trkpt lat="46.2532043457031250" lon="7.8763689994812012"><ele></ele><time>2014-10-15T23:48:36Z</time></trkpt>
<trkpt lat="46.2531585693359375" lon="7.8763384819030762"><ele></ele><time>2014-10-15T23:48:39Z</time></trkpt>
<trkpt lat="46.2531242370605469" lon="7.8763360977172852"><ele></ele><time>2014-10-15T23:48:42Z</time></trkpt>
<trkpt lat="46.2530899047851562" lon="7.8763303756713867"><ele></ele><time>2014-10-15T23:48:45Z</time></trkpt>
<trkpt lat="46.2530364990234375" lon="7.8763256072998047"><ele></ele><time>2014-10-15T23:48:48Z</time></trkpt>
<trkpt lat="46.2530059814453125" lon="7.8763284683227539"><ele></ele><time>2014-10-15T23:48:51Z</time></trkpt>
<trkpt lat="46.2529678344726562" lon="7.8763289451599121"><ele></ele><time>2014-10-15T23:48:54Z</time></trkpt>
<trkpt lat="46.2529335021972656" lon="7.8763194084167480"><ele></ele><time>2014-10-15T23:48:57Z</time></trkpt>
<trkpt lat="46.2528915405273438" lon="7.8763208389282227"><ele></ele><time>2014-10-15T23:49:0Z</time></trkpt>
<trkpt lat="46.2528419494628906" lon="7.8763461112976074"><ele></ele><time>2014-10-15T23:49:3Z</time></trkpt>
<trkpt lat="46.2527885437011719" lon="7.8763518333435059"><ele></ele><time>2014-10-15T23:49:6Z</time></trkpt>
<trkpt lat="46.2527236938476562" lon="7.8763480186462402"><ele></ele><time>2014-10-15T23:49:9Z</time></trkpt>
<trkpt lat="46.2526473999023438" lon="7.8763608932495117"><ele></ele><time>2014-10-15T23:49:12Z</time></trkpt>
<trkpt lat="46.2525405883789062" lon="7.8763966560363770"><ele></ele><time>2014-10-15T23:49:15Z</time></trkpt>
<trkpt lat="46.2524414062500000" lon="7.8764486312866211"><ele></ele><time>2014-10-15T23:49:18Z</time></trkpt>
<trkpt lat="46.2523078918457031" lon="7.8765306472778320"><ele></ele><time>2014-10-15T23:49:21Z</time></trkpt>
<trkpt lat="46.2520790100097656" lon="7.8767437934875488"><ele></ele><time>2014-10-15T23:49:24Z</time></trkpt>
<trkpt lat="46.2519111633300781" lon="7.8767991065979004"><ele></ele><time>2014-10-15T23:49:27Z</time></trkpt>
<trkpt lat="46.2516937255859375" lon="7.8768181800842285"><ele></ele><time>2014-10-15T23:49:30Z</time></trkpt>
<trkpt lat="46.2515640258789062" lon="7.8768081665039062"><ele></ele><time>2014-10-15T23:49:33Z</time></trkpt>
<trkpt lat="46.2513732910156250" lon="7.8767843246459961"><ele></ele><time>2014-10-15T23:49:36Z</time></trkpt>
<trkpt lat="46.2511863708496094" lon="7.8767066001892090"><ele></ele><time>2014-10-15T23:49:39Z</time></trkpt>
<trkpt lat="46.2510681152343750" lon="7.8766179084777832"><ele></ele><time>2014-10-15T23:49:42Z</time></trkpt>
<trkpt lat="46.2508926391601562" lon="7.8764991760253906"><ele></ele><time>2014-10-15T23:49:45Z</time></trkpt>
<trkpt lat="46.2507171630859375" lon="7.8763551712036133"><ele></ele><time>2014-10-15T23:49:48Z</time></trkpt>
<trkpt lat="46.2505950927734375" lon="7.8762383460998535"><ele></ele><time>2014-10-15T23:49:51Z</time></trkpt>
<trkpt lat="46.2504119873046875" lon="7.8760666847229004"><ele></ele><time>2014-10-15T23:49:54Z</time></trkpt>
<trkpt lat="46.2502403259277344" lon="7.8759074211120605"><ele></ele><time>2014-10-15T23:49:57Z</time></trkpt>
<trkpt lat="46.2500724792480469" lon="7.8757443428039551"><ele></ele><time>2014-10-15T23:50:0Z</time></trkpt>
<trkpt lat="46.2498893737792969" lon="7.8755960464477539"><ele></ele><time>2014-10-15T23:50:3Z</time></trkpt>
<trkpt lat="46.2497520446777344" lon="7.8755335807800293"><ele></ele><time>2014-10-15T23:50:6Z</time></trkpt>
<trkpt lat="46.2495346069335938" lon="7.8754796981811523"><ele></ele><time>2014-10-15T23:50:9Z</time></trkpt>
<trkpt lat="46.2493171691894531" lon="7.8754296302795410"><ele></ele><time>2014-10-15T23:50:12Z</time></trkpt>
<trkpt lat="46.2491798400878906" lon="7.8753895759582520"><ele></ele><time>2014-10-15T23:50:15Z</time></trkpt>
<trkpt lat="46.2489814758300781" lon="7.8753314018249512"><ele></ele><time>2014-10-15T23:50:18Z</time></trkpt>
<trkpt lat="46.2487602233886719" lon="7.8752794265747070"><ele></ele><time>2014-10-15T23:50:21Z</time></trkpt>
<trkpt lat="46.2486190795898438" lon="7.8752355575561523"><ele></ele><time>2014-10-15T23:50:24Z</time></trkpt>
<trkpt lat="46.2484054565429688" lon="7.8751792907714844"><ele></ele><time>2014-10-15T23:50:27Z</time></trkpt>
<trkpt lat="46.2482643127441406" lon="7.8751482963562012"><ele></ele><time>2014-10-15T23:50:30Z</time></trkpt>
<trkpt lat="46.2480506896972656" lon="7.8750772476196289"><ele></ele><time>2014-10-15T23:50:33Z</time></trkpt>
<trkpt lat="46.2479133605957031" lon="7.8750314712524414"><ele></ele><time>2014-10-15T23:50:36Z</time></trkpt>
<trkpt lat="46.2477035522460938" lon="7.8749752044677734"><ele></ele><time>2014-10-15T23:50:39Z</time></trkpt>
<trkpt lat="46.2475700378417969" lon="7.8749246597290039"><ele></ele><time>2014-10-15T23:50:42Z</time></trkpt>
<trkpt lat="46.2473793029785156" lon="7.8748426437377930"><ele></ele><time>2014-10-15T23:50:45Z</time></trkpt>
<trkpt lat="46.2472839355468750" lon="7.8748059272766113"><ele></ele><time>2014-10-15T23:50:48Z</time></trkpt>
<trkpt lat="46.2471542358398438" lon="7.8747344017028809"><ele></ele><time>2014-10-15T23:50:51Z</time></trkpt>
<trkpt lat="46.2470359802246094" lon="7.8746819496154785"><ele></ele><time>2014-10-15T23:50:54Z</time></trkpt>
<trkpt lat="46.2469558715820312" lon="7.8746628761291504"><ele></ele><time>2014-10-15T23:50:57Z</time></trkpt>
<trkpt lat="46.2468338012695312" lon="7.8746571540832520"><ele></ele><time>2014-10-15T23:51:0Z</time></trkpt>
<trkpt lat="46.2467536926269531" lon="7.8746671676635742"><ele></ele><time>2014-10-15T23:51:3Z</time></trkpt>
<trkpt lat="46.2466278076171875" lon="7.8746867179870605"><ele></ele><time>2014-10-15T23:51:6Z</time></trkpt>
<trkpt lat="46.2465438842773438" lon="7.8746948242187500"><ele></ele><time>2014-10-15T23:51:9Z</time></trkpt>
<trkpt lat="46.2464637756347656" lon="7.8747057914733887"><ele></ele><time>2014-10-15T23:51:12Z</time></trkpt>
<trkpt lat="46.2463798522949219" lon="7.8747177124023438"><ele></ele><time>2014-10-15T23:51:15Z</time></trkpt>
<trkpt lat="46.2462654113769531" lon="7.8747019767761230"><ele></ele><time>2014-10-15T23:51:18Z</time></trkpt>
<trkpt lat="46.2461509704589844" lon="7.8746771812438965"><ele></ele><time>2014-10-15T23:51:21Z</time></trkpt>
<trkpt lat="46.2460441589355469" lon="7.8746442794799805"><ele></ele><time>2014-10-15T23:51:24Z</time></trkpt>
<trkpt lat="46.2459373474121094" lon="7.8746137619018555"><ele></ele><time>2014-10-15T23:51:27Z</time></trkpt>
<trkpt lat="46.2458724975585938" lon="7.8745903968811035"><ele></ele><time>2014-10-15T23:51:30Z</time></trkpt>
<trkpt lat="46.2457809448242188" lon="7.8745408058166504"><ele></ele><time>2014-10-15T23:51:33Z</time></trkpt>
<trkpt lat="46.2457122802734375" lon="7.8745169639587402"><ele></ele><time>2014-10-15T23:51:36Z</time></trkpt>
<trkpt lat="46.2456054687500000" lon="7.8744893074035645"><ele></ele><time>2014-10-15T23:51:39Z</time></trkpt>
<trkpt lat="46.2454948425292969" lon="7.8744854927062988"><ele></ele><time>2014-10-15T23:51:42Z</time></trkpt>
<trkpt lat="46.2454299926757812" lon="7.8744640350341797"><ele></ele><time>2014-10-15T23:51:45Z</time></trkpt>
<trkpt lat="46.2453689575195312" lon="7.8744387626647949"><ele></ele><time>2014-10-15T23:51:48Z</time></trkpt>
<trkpt lat="46.2453117370605469" lon="7.8744106292724609"><ele></ele><time>2014-10-15T23:51:51Z</time></trkpt>
<trkpt lat="46.2452278137207031" lon="7.8743486404418945"><ele></ele><time>2014-10-15T23:51:54Z</time></trkpt>
<trkpt lat="46.2451744079589844" lon="7.8742976188659668"><ele></ele><time>2014-10-15T23:51:57Z</time></trkpt>
<trkpt lat="46.2451171875000000" lon="7.8742518424987793"><ele></ele><time>2014-10-15T23:52:0Z</time></trkpt>
<trkpt lat="46.2450294494628906" lon="7.8741974830627441"><ele></ele><time>2014-10-15T23:52:3Z</time></trkpt>
<trkpt lat="46.2449378967285156" lon="7.8741645812988281"><ele></ele><time>2014-10-15T23:52:6Z</time></trkpt>
<trkpt lat="46.2448768615722656" lon="7.8741307258605957"><ele></ele><time>2014-10-15T23:52:9Z</time></trkpt>
<trkpt lat="46.2447853088378906" lon="7.8740901947021484"><ele></ele><time>2014-10-15T23:52:12Z</time></trkpt>
<trkpt lat="46.2446899414062500" lon="7.8740463256835938"><ele></ele><time>2014-10-15T23:52:15Z</time></trkpt>
<trkpt lat="46.2446327209472656" lon="7.8739953041076660"><ele></ele><time>2014-10-15T23:52:18Z</time></trkpt>
<trkpt lat="46.2445678710937500" lon="7.8739514350891113"><ele></ele><time>2014-10-15T23:52:21Z</time></trkpt>
<trkpt lat="46.2444686889648438" lon="7.8738870620727539"><ele></ele><time>2014-10-15T23:52:24Z</time></trkpt>
<trkpt lat="46.2444076538085938" lon="7.8738403320312500"><ele></ele><time>2014-10-15T23:52:27Z</time></trkpt>
<trkpt lat="46.2443122863769531" lon="7.8737645149230957"><ele></ele><time>2014-10-15T23:52:30Z</time></trkpt>
<trkpt lat="46.2442474365234375" lon="7.8737220764160156"><ele></ele><time>2014-10-15T23:52:33Z</time></trkpt>
<trkpt lat="46.2441482543945312" lon="7.8736591339111328"><ele></ele><time>2014-10-15T23:52:36Z</time></trkpt>
<trkpt lat="46.2440795898437500" lon="7.8736271858215332"><ele></ele><time>2014-10-15T23:52:39Z</time></trkpt>
<trkpt lat="46.2439842224121094" lon="7.8735551834106445"><ele></ele><time>2014-10-15T23:52:42Z</time></trkpt>
<trkpt lat="46.2439002990722656" lon="7.8734588623046875"><ele></ele><time>2014-10-15T23:52:45Z</time></trkpt>
<trkpt lat="46.2438583374023438" lon="7.8733749389648438"><ele></ele><time>2014-10-15T23:52:48Z</time></trkpt>
<trkpt lat="46.2437896728515625" lon="7.8732552528381348"><ele></ele><time>2014-10-15T23:52:51Z</time></trkpt>
<trkpt lat="46.2436943054199219" lon="7.8731799125671387"><ele></ele><time>2014-10-15T23:52:54Z</time></trkpt>
<trkpt lat="46.2435874938964844" lon="7.8731689453125000"><ele></ele><time>2014-10-15T23:52:57Z</time></trkpt>
<trkpt lat="46.2435150146484375" lon="7.8731822967529297"><ele></ele><time>2014-10-15T23:53:0Z</time></trkpt>
<trkpt lat="46.2434463500976562" lon="7.8731985092163086"><ele></ele><time>2014-10-15T23:53:3Z</time></trkpt>
<trkpt lat="46.2433738708496094" lon="7.8732037544250488"><ele></ele><time>2014-10-15T23:53:6Z</time></trkpt>
<trkpt lat="46.2432708740234375" lon="7.8731961250305176"><ele></ele><time>2014-10-15T23:53:9Z</time></trkpt>
<trkpt lat="46.2431983947753906" lon="7.8731684684753418"><ele></ele><time>2014-10-15T23:53:12Z</time></trkpt>
<trkpt lat="46.2430992126464844" lon="7.8731050491333008"><ele></ele><time>2014-10-15T23:53:15Z</time></trkpt>
<trkpt lat="46.2430038452148438" lon="7.8730268478393555"><ele></ele><time>2014-10-15T23:53:18Z</time></trkpt>
<trkpt lat="46.2429428100585938" lon="7.8729681968688965"><ele></ele><time>2014-10-15T23:53:21Z</time></trkpt>
<trkpt lat="46.2428817749023438" lon="7.8729090690612793"><ele></ele><time>2014-10-15T23:53:24Z</time></trkpt>
<trkpt lat="46.2428283691406250" lon="7.8728532791137695"><ele></ele><time>2014-10-15T23:53:27Z</time></trkpt>
<trkpt lat="46.2427482604980469" lon="7.8727397918701172"><ele></ele><time>2014-10-15T23:53:30Z</time></trkpt>
<trkpt lat="46.2426795959472656" lon="7.8726091384887695"><ele></ele><time>2014-10-15T23:53:33Z</time></trkpt>
<trkpt lat="46.2426147460937500" lon="7.8725757598876953"><ele></ele><time>2014-10-15T23:53:36Z</time></trkpt>
<trkpt lat="46.2425041198730469" lon="7.8725833892822266"><ele></ele><time>2014-10-15T23:53:39Z</time></trkpt>
<trkpt lat="46.2423858642578125" lon="7.8725876808166504"><ele></ele><time>2014-10-15T23:53:42Z</time></trkpt>
<trkpt lat="46.2423095703125000" lon="7.8725790977478027"><ele></ele><time>2014-10-15T23:53:45Z</time></trkpt>
<trkpt lat="46.2422065734863281" lon="7.8725600242614746"><ele></ele><time>2014-10-15T23:53:48Z</time></trkpt>
<trkpt lat="46.2421379089355469" lon="7.8725409507751465"><ele></ele><time>2014-10-15T23:53:51Z</time></trkpt>
<trkpt lat="46.2420654296875000" lon="7.8725171089172363"><ele></ele><time>2014-10-15T23:53:54Z</time></trkpt>
<trkpt lat="46.2419929504394531" lon="7.8725004196166992"><ele></ele><time>2014-10-15T23:53:57Z</time></trkpt>
<trkpt lat="46.2418823242187500" lon="7.8724875450134277"><ele></ele><time>2014-10-15T23:54:0Z</time></trkpt>
<trkpt lat="46.2418098449707031" lon="7.8724756240844727"><ele></ele><time>2014-10-15T23:54:3Z</time></trkpt>
<trkpt lat="46.2417411804199219" lon="7.8724722862243652"><ele></ele><time>2014-10-15T23:54:6Z</time></trkpt>
<trkpt lat="46.2416419982910156" lon="7.8724632263183594"><ele></ele><time>2014-10-15T23:54:9Z</time></trkpt>
<trkpt lat="46.2415351867675781" lon="7.8724308013916016"><ele></ele><time>2014-10-15T23:54:12Z</time></trkpt>
<trkpt lat="46.2414245605468750" lon="7.8723959922790527"><ele></ele><time>2014-10-15T23:54:15Z</time></trkpt>
<trkpt lat="46.2413139343261719" lon="7.8723626136779785"><ele></ele><time>2014-10-15T23:54:18Z</time></trkpt>
<trkpt lat="46.2412071228027344" lon="7.8723144531250000"><ele></ele><time>2014-10-15T23:54:21Z</time></trkpt>
<trkpt lat="46.2410964965820312" lon="7.8722620010375977"><ele></ele><time>2014-10-15T23:54:24Z</time></trkpt>
<trkpt lat="46.2409934997558594" lon="7.8722333908081055"><ele></ele><time>2014-10-15T23:54:27Z</time></trkpt>
<trkpt lat="46.2409210205078125" lon="7.8722171783447266"><ele></ele><time>2014-10-15T23:54:30Z</time></trkpt>
<trkpt lat="46.2408103942871094" lon="7.8722057342529297"><ele></ele><time>2014-10-15T23:54:33Z</time></trkpt>
<trkpt lat="46.2407150268554688" lon="7.8721723556518555"><ele></ele><time>2014-10-15T23:54:36Z</time></trkpt>
<trkpt lat="46.2406501770019531" lon="7.8721284866333008"><ele></ele><time>2014-10-15T23:54:39Z</time></trkpt>
<trkpt lat="46.2405509948730469" lon="7.8721032142639160"><ele></ele><time>2014-10-15T23:54:42Z</time></trkpt>
<trkpt lat="46.2404899597167969" lon="7.8721060752868652"><ele></ele><time>2014-10-15T23:54:45Z</time></trkpt>
<trkpt lat="46.2403984069824219" lon="7.8720889091491699"><ele></ele><time>2014-10-15T23:54:48Z</time></trkpt>
<trkpt lat="46.2403297424316406" lon="7.8720774650573730"><ele></ele><time>2014-10-15T23:54:51Z</time></trkpt>
<trkpt lat="46.2402305603027344" lon="7.8720626831054688"><ele></ele><time>2014-10-15T23:54:54Z</time></trkpt>
<trkpt lat="46.2401657104492188" lon="7.8720655441284180"><ele></ele><time>2014-10-15T23:54:57Z</time></trkpt>
<trkpt lat="46.2401008605957031" lon="7.8720645904541016"><ele></ele><time>2014-10-15T23:55:0Z</time></trkpt>
<trkpt lat="46.2399902343750000" lon="7.8720426559448242"><ele></ele><time>2014-10-15T23:55:3Z</time></trkpt>
<trkpt lat="46.2398757934570312" lon="7.8719973564147949"><ele></ele><time>2014-10-15T23:55:6Z</time></trkpt>
<trkpt lat="46.2398033142089844" lon="7.8719639778137207"><ele></ele><time>2014-10-15T23:55:9Z</time></trkpt>
<trkpt lat="46.2397308349609375" lon="7.8719296455383301"><ele></ele><time>2014-10-15T23:55:12Z</time></trkpt>
<trkpt lat="46.2396278381347656" lon="7.8718776702880859"><ele></ele><time>2014-10-15T23:55:15Z</time></trkpt>
<trkpt lat="46.2395515441894531" lon="7.8718461990356445"><ele></ele><time>2014-10-15T23:55:18Z</time></trkpt>
<trkpt lat="46.2394409179687500" lon="7.8717799186706543"><ele></ele><time>2014-10-15T23:55:21Z</time></trkpt>
<trkpt lat="46.2393646240234375" lon="7.8717432022094727"><ele></ele><time>2014-10-15T23:55:24Z</time></trkpt>
<trkpt lat="46.2392539978027344" lon="7.8716921806335449"><ele></ele><time>2014-10-15T23:55:27Z</time></trkpt>
<trkpt lat="46.2391777038574219" lon="7.8716635704040527"><ele></ele><time>2014-10-15T23:55:30Z</time></trkpt>
<trkpt lat="46.2391052246093750" lon="7.8716402053833008"><ele></ele><time>2014-10-15T23:55:33Z</time></trkpt>
<trkpt lat="46.2389984130859375" lon="7.8716077804565430"><ele></ele><time>2014-10-15T23:55:36Z</time></trkpt>
<trkpt lat="46.2389335632324219" lon="7.8716039657592773"><ele></ele><time>2014-10-15T23:55:39Z</time></trkpt>
<trkpt lat="46.2388343811035156" lon="7.8716039657592773"><ele></ele><time>2014-10-15T23:55:42Z</time></trkpt>
<trkpt lat="46.2387695312500000" lon="7.8716073036193848"><ele></ele><time>2014-10-15T23:55:45Z</time></trkpt>
<trkpt lat="46.2387046813964844" lon="7.8716120719909668"><ele></ele><time>2014-10-15T23:55:48Z</time></trkpt>
<trkpt lat="46.2386016845703125" lon="7.8716144561767578"><ele></ele><time>2014-10-15T23:55:51Z</time></trkpt>
<trkpt lat="46.2384910583496094" lon="7.8715982437133789"><ele></ele><time>2014-10-15T23:55:54Z</time></trkpt>
<trkpt lat="46.2383766174316406" lon="7.8715343475341797"><ele></ele><time>2014-10-15T23:55:57Z</time></trkpt>
<trkpt lat="46.2382698059082031" lon="7.8714714050292969"><ele></ele><time>2014-10-15T23:56:0Z</time></trkpt>
<trkpt lat="46.2382011413574219" lon="7.8714418411254883"><ele></ele><time>2014-10-15T23:56:3Z</time></trkpt>
<trkpt lat="46.2381286621093750" lon="7.8714079856872559"><ele></ele><time>2014-10-15T23:56:6Z</time></trkpt>
<trkpt lat="46.2380218505859375" lon="7.8713707923889160"><ele></ele><time>2014-10-15T23:56:9Z</time></trkpt>
<trkpt lat="46.2379074096679688" lon="7.8713564872741699"><ele></ele><time>2014-10-15T23:56:12Z</time></trkpt>
<trkpt lat="46.2378349304199219" lon="7.8713574409484863"><ele></ele><time>2014-10-15T23:56:15Z</time></trkpt>
<trkpt lat="46.2377586364746094" lon="7.8713612556457520"><ele></ele><time>2014-10-15T23:56:18Z</time></trkpt>
<trkpt lat="46.2376518249511719" lon="7.8713831901550293"><ele></ele><time>2014-10-15T23:56:21Z</time></trkpt>
<trkpt lat="46.2375411987304688" lon="7.8713922500610352"><ele></ele><time>2014-10-15T23:56:24Z</time></trkpt>
<trkpt lat="46.2374687194824219" lon="7.8713698387145996"><ele></ele><time>2014-10-15T23:56:27Z</time></trkpt>
<trkpt lat="46.2373657226562500" lon="7.8713226318359375"><ele></ele><time>2014-10-15T23:56:30Z</time></trkpt>
<trkpt lat="46.2372703552246094" lon="7.8712873458862305"><ele></ele><time>2014-10-15T23:56:33Z</time></trkpt>
<trkpt lat="46.2371788024902344" lon="7.8712396621704102"><ele></ele><time>2014-10-15T23:56:36Z</time></trkpt>
<trkpt lat="46.2371139526367188" lon="7.8712100982666016"><ele></ele><time>2014-10-15T23:56:39Z</time></trkpt>
<trkpt lat="46.2370452880859375" lon="7.8711915016174316"><ele></ele><time>2014-10-15T23:56:42Z</time></trkpt>
<trkpt lat="46.2369728088378906" lon="7.8711919784545898"><ele></ele><time>2014-10-15T23:56:45Z</time></trkpt>
<trkpt lat="46.2368545532226562" lon="7.8711934089660645"><ele></ele><time>2014-10-15T23:56:48Z</time></trkpt>
<trkpt lat="46.2367820739746094" lon="7.8711924552917480"><ele></ele><time>2014-10-15T23:56:51Z</time></trkpt>
<trkpt lat="46.2367095947265625" lon="7.8711700439453125"><ele></ele><time>2014-10-15T23:56:54Z</time></trkpt>
<trkpt lat="46.2366142272949219" lon="7.8711152076721191"><ele></ele><time>2014-10-15T23:56:57Z</time></trkpt>
<trkpt lat="46.2365493774414062" lon="7.8710823059082031"><ele></ele><time>2014-10-15T23:57:0Z</time></trkpt>
<trkpt lat="46.2364845275878906" lon="7.8710608482360840"><ele></ele><time>2014-10-15T23:57:3Z</time></trkpt>
<trkpt lat="46.2364196777343750" lon="7.8710536956787109"><ele></ele><time>2014-10-15T23:57:6Z</time></trkpt>
<trkpt lat="46.2363166809082031" lon="7.8710646629333496"><ele></ele><time>2014-10-15T23:57:9Z</time></trkpt>
<trkpt lat="46.2362480163574219" lon="7.8710918426513672"><ele></ele><time>2014-10-15T23:57:12Z</time></trkpt>
<trkpt lat="46.2361335754394531" lon="7.8711214065551758"><ele></ele><time>2014-10-15T23:57:15Z</time></trkpt>
<trkpt lat="46.2360610961914062" lon="7.8711442947387695"><ele></ele><time>2014-10-15T23:57:18Z</time></trkpt>
<trkpt lat="46.2359504699707031" lon="7.8711709976196289"><ele></ele><time>2014-10-15T23:57:21Z</time></trkpt>
<trkpt lat="46.2358779907226562" lon="7.8711776733398438"><ele></ele><time>2014-10-15T23:57:24Z</time></trkpt>
<trkpt lat="46.2357749938964844" lon="7.8711791038513184"><ele></ele><time>2014-10-15T23:57:27Z</time></trkpt>
<trkpt lat="46.2356605529785156" lon="7.8711781501770020"><ele></ele><time>2014-10-15T23:57:30Z</time></trkpt>
<trkpt lat="46.2355499267578125" lon="7.8711628913879395"><ele></ele><time>2014-10-15T23:57:33Z</time></trkpt>
<trkpt lat="46.2354774475097656" lon="7.8711514472961426"><ele></ele><time>2014-10-15T23:57:36Z</time></trkpt>
<trkpt lat="46.2353668212890625" lon="7.8711433410644531"><ele></ele><time>2014-10-15T23:57:39Z</time></trkpt>
<trkpt lat="46.2352561950683594" lon="7.8711481094360352"><ele></ele><time>2014-10-15T23:57:42Z</time></trkpt>
<trkpt lat="46.2351837158203125" lon="7.8711433410644531"><ele></ele><time>2014-10-15T23:57:45Z</time></trkpt>
<trkpt lat="46.2351150512695312" lon="7.8711309432983398"><ele></ele><time>2014-10-15T23:57:48Z</time></trkpt>
<trkpt lat="46.2350463867187500" lon="7.8711209297180176"><ele></ele><time>2014-10-15T23:57:51Z</time></trkpt>
<trkpt lat="46.2349433898925781" lon="7.8710870742797852"><ele></ele><time>2014-10-15T23:57:54Z</time></trkpt>
<trkpt lat="46.2348442077636719" lon="7.8710284233093262"><ele></ele><time>2014-10-15T23:57:57Z</time></trkpt>
<trkpt lat="46.2347450256347656" lon="7.8709444999694824"><ele></ele><time>2014-10-15T23:58:0Z</time></trkpt>
<trkpt lat="46.2346916198730469" lon="7.8708782196044922"><ele></ele><time>2014-10-15T23:58:3Z</time></trkpt>
<trkpt lat="46.2346305847167969" lon="7.8707962036132812"><ele></ele><time>2014-10-15T23:58:6Z</time></trkpt>
<trkpt lat="46.2345848083496094" lon="7.8707380294799805"><ele></ele><time>2014-10-15T23:58:9Z</time></trkpt>
<trkpt lat="46.2345237731933594" lon="7.8706965446472168"><ele></ele><time>2014-10-15T23:58:12Z</time></trkpt>
<trkpt lat="46.2344169616699219" lon="7.8706498146057129"><ele></ele><time>2014-10-15T23:58:15Z</time></trkpt>
<trkpt lat="46.2342987060546875" lon="7.8706307411193848"><ele></ele><time>2014-10-15T23:58:18Z</time></trkpt>
<trkpt lat="46.2342185974121094" lon="7.8706116676330566"><ele></ele><time>2014-10-15T23:58:21Z</time></trkpt>
<trkpt lat="46.2341079711914062" lon="7.8705902099609375"><ele></ele><time>2014-10-15T23:58:24Z</time></trkpt>
<trkpt lat="46.2340011596679688" lon="7.8706002235412598"><ele></ele><time>2014-10-15T23:58:27Z</time></trkpt>
<trkpt lat="46.2339248657226562" lon="7.8706035614013672"><ele></ele><time>2014-10-15T23:58:30Z</time></trkpt>
<trkpt lat="46.2338180541992188" lon="7.8706049919128418"><ele></ele><time>2014-10-15T23:58:33Z</time></trkpt>
<trkpt lat="46.2337532043457031" lon="7.8706135749816895"><ele></ele><time>2014-10-15T23:58:36Z</time></trkpt>
<trkpt lat="46.2336540222167969" lon="7.8706545829772949"><ele></ele><time>2014-10-15T23:58:39Z</time></trkpt>
<trkpt lat="46.2335968017578125" lon="7.8707065582275391"><ele></ele><time>2014-10-15T23:58:42Z</time></trkpt>
<trkpt lat="46.2335319519042969" lon="7.8707656860351562"><ele></ele><time>2014-10-15T23:58:45Z</time></trkpt>
<trkpt lat="46.2334365844726562" lon="7.8708510398864746"><ele></ele><time>2014-10-15T23:58:48Z</time></trkpt>
<trkpt lat="46.2333717346191406" lon="7.8709087371826172"><ele></ele><time>2014-10-15T23:58:51Z</time></trkpt>
<trkpt lat="46.2332992553710938" lon="7.8709869384765625"><ele></ele><time>2014-10-15T23:58:54Z</time></trkpt>
<trkpt lat="46.2332420349121094" lon="7.8710069656372070"><ele></ele><time>2014-10-15T23:58:57Z</time></trkpt>
<trkpt lat="46.2332000732421875" lon="7.8708753585815430"><ele></ele><time>2014-10-15T23:59:0Z</time></trkpt>
<trkpt lat="46.2331771850585938" lon="7.8707804679870605"><ele></ele><time>2014-10-15T23:59:3Z</time></trkpt>
<trkpt lat="46.2331352233886719" lon="7.8706459999084473"><ele></ele><time>2014-10-15T23:59:6Z</time></trkpt>
<trkpt lat="46.2330932617187500" lon="7.8704967498779297"><ele></ele><time>2014-10-15T23:59:9Z</time></trkpt>
<trkpt lat="46.2330284118652344" lon="7.8703756332397461"><ele></ele><time>2014-10-15T23:59:12Z</time></trkpt>
<trkpt lat="46.2329559326171875" lon="7.8702678680419922"><ele></ele><time>2014-10-15T23:59:15Z</time></trkpt>
<trkpt lat="46.2329101562500000" lon="7.8701968193054199"><ele></ele><time>2014-10-15T23:59:18Z</time></trkpt>
<trkpt lat="46.2328529357910156" lon="7.8700828552246094"><ele></ele><time>2014-10-15T23:59:21Z</time></trkpt>
<trkpt lat="46.2327957153320312" lon="7.8699536323547363"><ele></ele><time>2014-10-15T23:59:24Z</time></trkpt>
<trkpt lat="46.2327537536621094" lon="7.8698291778564453"><ele></ele><time>2014-10-15T23:59:27Z</time></trkpt>
<trkpt lat="46.2327842712402344" lon="7.8697414398193359"><ele></ele><time>2014-10-15T23:59:30Z</time></trkpt>
<trkpt lat="46.2328948974609375" lon="7.8697137832641602"><ele></ele><time>2014-10-15T23:59:33Z</time></trkpt>
<trkpt lat="46.2329826354980469" lon="7.8697533607482910"><ele></ele><time>2014-10-15T23:59:36Z</time></trkpt>
<trkpt lat="46.2330398559570312" lon="7.8697876930236816"><ele></ele><time>2014-10-15T23:59:39Z</time></trkpt>
<trkpt lat="46.2330970764160156" lon="7.8698258399963379"><ele></ele><time>2014-10-15T23:59:42Z</time></trkpt>
<trkpt lat="46.2331771850585938" lon="7.8698754310607910"><ele></ele><time>2014-10-15T23:59:45Z</time></trkpt>
<trkpt lat="46.2332344055175781" lon="7.8698983192443848"><ele></ele><time>2014-10-15T23:59:48Z</time></trkpt>
<trkpt lat="46.2333374023437500" lon="7.8699145317077637"><ele></ele><time>2014-10-15T23:59:51Z</time></trkpt>
<trkpt lat="46.2334022521972656" lon="7.8699336051940918"><ele></ele><time>2014-10-15T23:59:54Z</time></trkpt>
<trkpt lat="46.2334632873535156" lon="7.8699541091918945"><ele></ele><time>2014-10-15T23:59:57Z</time></trkpt>
<trkpt lat="46.2335433959960938" lon="7.8699946403503418"><ele></ele><time>2014-10-16T0:0:0Z</time></trkpt>
<trkpt lat="46.2336006164550781" lon="7.8700003623962402"><ele></ele><time>2014-10-16T0:0:3Z</time></trkpt>
<trkpt lat="46.2336921691894531" lon="7.8700075149536133"><ele></ele><time>2014-10-16T0:0:6Z</time></trkpt>
<trkpt lat="46.2337837219238281" lon="7.8700122833251953"><ele></ele><time>2014-10-16T0:0:9Z</time></trkpt>
<trkpt lat="46.2338829040527344" lon="7.8700079917907715"><ele></ele><time>2014-10-16T0:0:12Z</time></trkpt>
<trkpt lat="46.2339897155761719" lon="7.8699989318847656"><ele></ele><time>2014-10-16T0:0:15Z</time></trkpt>
<trkpt lat="46.2340545654296875" lon="7.8699970245361328"><ele></ele><time>2014-10-16T0:0:18Z</time></trkpt>
<trkpt lat="46.2341499328613281" lon="7.8700337409973145"><ele></ele><time>2014-10-16T0:0:21Z</time></trkpt>
<trkpt lat="46.2342529296875000" lon="7.8700976371765137"><ele></ele><time>2014-10-16T0:0:24Z</time></trkpt>
<trkpt lat="46.2343177795410156" lon="7.8701505661010742"><ele></ele><time>2014-10-16T0:0:27Z</time></trkpt>
<trkpt lat="46.2344169616699219" lon="7.8702335357666016"><ele></ele><time>2014-10-16T0:0:30Z</time></trkpt>
<trkpt lat="46.2345237731933594" lon="7.8703098297119141"><ele></ele><time>2014-10-16T0:0:33Z</time></trkpt>
<trkpt lat="46.2345962524414062" lon="7.8703618049621582"><ele></ele><time>2014-10-16T0:0:36Z</time></trkpt>
<trkpt lat="46.2346725463867188" lon="7.8703784942626953"><ele></ele><time>2014-10-16T0:0:39Z</time></trkpt>
<trkpt lat="46.2347373962402344" lon="7.8703188896179199"><ele></ele><time>2014-10-16T0:0:42Z</time></trkpt>
<trkpt lat="46.2347526550292969" lon="7.8702063560485840"><ele></ele><time>2014-10-16T0:0:45Z</time></trkpt>
<trkpt lat="46.2347030639648438" lon="7.8701014518737793"><ele></ele><time>2014-10-16T0:0:48Z</time></trkpt>
<trkpt lat="46.2346267700195312" lon="7.8700389862060547"><ele></ele><time>2014-10-16T0:0:51Z</time></trkpt>
<trkpt lat="46.2345046997070312" lon="7.8699822425842285"><ele></ele><time>2014-10-16T0:0:54Z</time></trkpt>
<trkpt lat="46.2343902587890625" lon="7.8699254989624023"><ele></ele><time>2014-10-16T0:0:57Z</time></trkpt>
<trkpt lat="46.2343177795410156" lon="7.8698859214782715"><ele></ele><time>2014-10-16T0:1:0Z</time></trkpt>
<trkpt lat="46.2342262268066406" lon="7.8698287010192871"><ele></ele><time>2014-10-16T0:1:3Z</time></trkpt>
<trkpt lat="46.2341690063476562" lon="7.8697881698608398"><ele></ele><time>2014-10-16T0:1:6Z</time></trkpt>
<trkpt lat="46.2341156005859375" lon="7.8697390556335449"><ele></ele><time>2014-10-16T0:1:9Z</time></trkpt>
<trkpt lat="46.2340393066406250" lon="7.8696699142456055"><ele></ele><time>2014-10-16T0:1:12Z</time></trkpt>
<trkpt lat="46.2339706420898438" lon="7.8695888519287109"><ele></ele><time>2014-10-16T0:1:15Z</time></trkpt>
<trkpt lat="46.2339057922363281" lon="7.8694996833801270"><ele></ele><time>2014-10-16T0:1:18Z</time></trkpt>
<trkpt lat="46.2338676452636719" lon="7.8694310188293457"><ele></ele><time>2014-10-16T0:1:21Z</time></trkpt>
<trkpt lat="46.2338333129882812" lon="7.8693566322326660"><ele></ele><time>2014-10-16T0:1:24Z</time></trkpt>
<trkpt lat="46.2337913513183594" lon="7.8692331314086914"><ele></ele><time>2014-10-16T0:1:27Z</time></trkpt>
<trkpt lat="46.2337646484375000" lon="7.8691530227661133"><ele></ele><time>2014-10-16T0:1:30Z</time></trkpt>
<trkpt lat="46.2337341308593750" lon="7.8690805435180664"><ele></ele><time>2014-10-16T0:1:33Z</time></trkpt>
<trkpt lat="46.2336883544921875" lon="7.8689713478088379"><ele></ele><time>2014-10-16T0:1:36Z</time></trkpt>
<trkpt lat="46.2336425781250000" lon="7.8688244819641113"><ele></ele><time>2014-10-16T0:1:39Z</time></trkpt>
<trkpt lat="46.2335739135742188" lon="7.8687181472778320"><ele></ele><time>2014-10-16T0:1:42Z</time></trkpt>
<trkpt lat="46.2335243225097656" lon="7.8686857223510742"><ele></ele><time>2014-10-16T0:1:45Z</time></trkpt>
<trkpt lat="46.2334709167480469" lon="7.8686628341674805"><ele></ele><time>2014-10-16T0:1:48Z</time></trkpt>
<trkpt lat="46.2333869934082031" lon="7.8686456680297852"><ele></ele><time>2014-10-16T0:1:51Z</time></trkpt>
<trkpt lat="46.2332954406738281" lon="7.8686165809631348"><ele></ele><time>2014-10-16T0:1:54Z</time></trkpt>
<trkpt lat="46.2332420349121094" lon="7.8685793876647949"><ele></ele><time>2014-10-16T0:1:57Z</time></trkpt>
<trkpt lat="46.2331695556640625" lon="7.8685073852539062"><ele></ele><time>2014-10-16T0:2:0Z</time></trkpt>
<trkpt lat="46.2331008911132812" lon="7.8684144020080566"><ele></ele><time>2014-10-16T0:2:3Z</time></trkpt>
<trkpt lat="46.2330627441406250" lon="7.8683576583862305"><ele></ele><time>2014-10-16T0:2:6Z</time></trkpt>
<trkpt lat="46.2330055236816406" lon="7.8682761192321777"><ele></ele><time>2014-10-16T0:2:9Z</time></trkpt>
<trkpt lat="46.2329673767089844" lon="7.8682227134704590"><ele></ele><time>2014-10-16T0:2:12Z</time></trkpt>
<trkpt lat="46.2329025268554688" lon="7.8681473731994629"><ele></ele><time>2014-10-16T0:2:15Z</time></trkpt>
<trkpt lat="46.2328567504882812" lon="7.8681030273437500"><ele></ele><time>2014-10-16T0:2:18Z</time></trkpt>
<trkpt lat="46.2327766418457031" lon="7.8680410385131836"><ele></ele><time>2014-10-16T0:2:21Z</time></trkpt>
<trkpt lat="46.2327232360839844" lon="7.8679976463317871"><ele></ele><time>2014-10-16T0:2:24Z</time></trkpt>
<trkpt lat="46.2326393127441406" lon="7.8679456710815430"><ele></ele><time>2014-10-16T0:2:27Z</time></trkpt>
<trkpt lat="46.2325477600097656" lon="7.8679304122924805"><ele></ele><time>2014-10-16T0:2:30Z</time></trkpt>
<trkpt lat="46.2324333190917969" lon="7.8679099082946777"><ele></ele><time>2014-10-16T0:2:33Z</time></trkpt>
<trkpt lat="46.2323532104492188" lon="7.8678960800170898"><ele></ele><time>2014-10-16T0:2:36Z</time></trkpt>
<trkpt lat="46.2322731018066406" lon="7.8678851127624512"><ele></ele><time>2014-10-16T0:2:39Z</time></trkpt>
<trkpt lat="46.2321586608886719" lon="7.8678531646728516"><ele></ele><time>2014-10-16T0:2:42Z</time></trkpt>
<trkpt lat="46.2320861816406250" lon="7.8678178787231445"><ele></ele><time>2014-10-16T0:2:45Z</time></trkpt>
<trkpt lat="46.2320175170898438" lon="7.8677687644958496"><ele></ele><time>2014-10-16T0:2:48Z</time></trkpt>
<trkpt lat="46.2319335937500000" lon="7.8676590919494629"><ele></ele><time>2014-10-16T0:2:51Z</time></trkpt>
<trkpt lat="46.2318725585937500" lon="7.8675189018249512"><ele></ele><time>2014-10-16T0:2:54Z</time></trkpt>
<trkpt lat="46.2318458557128906" lon="7.8674116134643555"><ele></ele><time>2014-10-16T0:2:57Z</time></trkpt>
<trkpt lat="46.2317924499511719" lon="7.8672404289245605"><ele></ele><time>2014-10-16T0:3:0Z</time></trkpt>
<trkpt lat="46.2317390441894531" lon="7.8670740127563477"><ele></ele><time>2014-10-16T0:3:3Z</time></trkpt>
<trkpt lat="46.2317008972167969" lon="7.8669662475585938"><ele></ele><time>2014-10-16T0:3:6Z</time></trkpt>
<trkpt lat="46.2316398620605469" lon="7.8668160438537598"><ele></ele><time>2014-10-16T0:3:9Z</time></trkpt>
<trkpt lat="46.2316017150878906" lon="7.8667225837707520"><ele></ele><time>2014-10-16T0:3:12Z</time></trkpt>
<trkpt lat="46.2315673828125000" lon="7.8666267395019531"><ele></ele><time>2014-10-16T0:3:15Z</time></trkpt>
<trkpt lat="46.2314949035644531" lon="7.8664841651916504"><ele></ele><time>2014-10-16T0:3:18Z</time></trkpt>
<trkpt lat="46.2313995361328125" lon="7.8663597106933594"><ele></ele><time>2014-10-16T0:3:21Z</time></trkpt>
<trkpt lat="46.2313385009765625" lon="7.8662824630737305"><ele></ele><time>2014-10-16T0:3:24Z</time></trkpt>
<trkpt lat="46.2312507629394531" lon="7.8661522865295410"><ele></ele><time>2014-10-16T0:3:27Z</time></trkpt>
<trkpt lat="46.2311820983886719" lon="7.8660011291503906"><ele></ele><time>2014-10-16T0:3:30Z</time></trkpt>
<trkpt lat="46.2311515808105469" lon="7.8658890724182129"><ele></ele><time>2014-10-16T0:3:33Z</time></trkpt>
<trkpt lat="46.2311286926269531" lon="7.8657116889953613"><ele></ele><time>2014-10-16T0:3:36Z</time></trkpt>
<trkpt lat="46.2311019897460938" lon="7.8656282424926758"><ele></ele><time>2014-10-16T0:3:39Z</time></trkpt>
<trkpt lat="46.2310447692871094" lon="7.8655390739440918"><ele></ele><time>2014-10-16T0:3:42Z</time></trkpt>
<trkpt lat="46.2309875488281250" lon="7.8654537200927734"><ele></ele><time>2014-10-16T0:3:45Z</time></trkpt>
<trkpt lat="46.2309341430664062" lon="7.8653645515441895"><ele></ele><time>2014-10-16T0:3:48Z</time></trkpt>
<trkpt lat="46.2308883666992188" lon="7.8652687072753906"><ele></ele><time>2014-10-16T0:3:51Z</time></trkpt>
<trkpt lat="46.2308616638183594" lon="7.8652133941650391"><ele></ele><time>2014-10-16T0:3:54Z</time></trkpt>
<trkpt lat="46.2308311462402344" lon="7.8651266098022461"><ele></ele><time>2014-10-16T0:3:57Z</time></trkpt>
<trkpt lat="46.2308006286621094" lon="7.8650393486022949"><ele></ele><time>2014-10-16T0:4:0Z</time></trkpt>
<trkpt lat="46.2307815551757812" lon="7.8649773597717285"><ele></ele><time>2014-10-16T0:4:3Z</time></trkpt>
<trkpt lat="46.2307586669921875" lon="7.8649120330810547"><ele></ele><time>2014-10-16T0:4:6Z</time></trkpt>
<trkpt lat="46.2307281494140625" lon="7.8648219108581543"><ele></ele><time>2014-10-16T0:4:9Z</time></trkpt>
<trkpt lat="46.2307090759277344" lon="7.8647580146789551"><ele></ele><time>2014-10-16T0:4:12Z</time></trkpt>
<trkpt lat="46.2306785583496094" lon="7.8646612167358398"><ele></ele><time>2014-10-16T0:4:15Z</time></trkpt>
<trkpt lat="46.2306594848632812" lon="7.8646011352539062"><ele></ele><time>2014-10-16T0:4:18Z</time></trkpt>
<trkpt lat="46.2306442260742188" lon="7.8645353317260742"><ele></ele><time>2014-10-16T0:4:21Z</time></trkpt>
<trkpt lat="46.2306251525878906" lon="7.8644700050354004"><ele></ele><time>2014-10-16T0:4:24Z</time></trkpt>
<trkpt lat="46.2305946350097656" lon="7.8643679618835449"><ele></ele><time>2014-10-16T0:4:27Z</time></trkpt>
<trkpt lat="46.2305717468261719" lon="7.8642616271972656"><ele></ele><time>2014-10-16T0:4:30Z</time></trkpt>
<trkpt lat="46.2305412292480469" lon="7.8641595840454102"><ele></ele><time>2014-10-16T0:4:33Z</time></trkpt>
<trkpt lat="46.2305221557617188" lon="7.8640923500061035"><ele></ele><time>2014-10-16T0:4:36Z</time></trkpt>
<trkpt lat="46.2304954528808594" lon="7.8639903068542480"><ele></ele><time>2014-10-16T0:4:39Z</time></trkpt>
<trkpt lat="46.2304801940917969" lon="7.8639225959777832"><ele></ele><time>2014-10-16T0:4:42Z</time></trkpt>
<trkpt lat="46.2304496765136719" lon="7.8638296127319336"><ele></ele><time>2014-10-16T0:4:45Z</time></trkpt>
<trkpt lat="46.2304229736328125" lon="7.8637657165527344"><ele></ele><time>2014-10-16T0:4:48Z</time></trkpt>
<trkpt lat="46.2304000854492188" lon="7.8636960983276367"><ele></ele><time>2014-10-16T0:4:51Z</time></trkpt>
<trkpt lat="46.2303733825683594" lon="7.8635869026184082"><ele></ele><time>2014-10-16T0:4:54Z</time></trkpt>
<trkpt lat="46.2303543090820312" lon="7.8635177612304688"><ele></ele><time>2014-10-16T0:4:57Z</time></trkpt>
<trkpt lat="46.2303237915039062" lon="7.8634133338928223"><ele></ele><time>2014-10-16T0:5:0Z</time></trkpt>
<trkpt lat="46.2302970886230469" lon="7.8633475303649902"><ele></ele><time>2014-10-16T0:5:3Z</time></trkpt>
<trkpt lat="46.2302551269531250" lon="7.8632502555847168"><ele></ele><time>2014-10-16T0:5:6Z</time></trkpt>
<trkpt lat="46.2302093505859375" lon="7.8631582260131836"><ele></ele><time>2014-10-16T0:5:9Z</time></trkpt>
<trkpt lat="46.2301750183105469" lon="7.8631043434143066"><ele></ele><time>2014-10-16T0:5:12Z</time></trkpt>
<trkpt lat="46.2301254272460938" lon="7.8630104064941406"><ele></ele><time>2014-10-16T0:5:15Z</time></trkpt>
<trkpt lat="46.2300834655761719" lon="7.8629150390625000"><ele></ele><time>2014-10-16T0:5:18Z</time></trkpt>
<trkpt lat="46.2300415039062500" lon="7.8628201484680176"><ele></ele><time>2014-10-16T0:5:21Z</time></trkpt>
<trkpt lat="46.2300109863281250" lon="7.8627653121948242"><ele></ele><time>2014-10-16T0:5:24Z</time></trkpt>
<trkpt lat="46.2299842834472656" lon="7.8627114295959473"><ele></ele><time>2014-10-16T0:5:27Z</time></trkpt>
<trkpt lat="46.2299499511718750" lon="7.8626542091369629"><ele></ele><time>2014-10-16T0:5:30Z</time></trkpt>
<trkpt lat="46.2299156188964844" lon="7.8626008033752441"><ele></ele><time>2014-10-16T0:5:33Z</time></trkpt>
<trkpt lat="46.2298851013183594" lon="7.8625454902648926"><ele></ele><time>2014-10-16T0:5:36Z</time></trkpt>
<trkpt lat="46.2298355102539062" lon="7.8624639511108398"><ele></ele><time>2014-10-16T0:5:39Z</time></trkpt>
<trkpt lat="46.2298088073730469" lon="7.8624019622802734"><ele></ele><time>2014-10-16T0:5:42Z</time></trkpt>
<trkpt lat="46.2297782897949219" lon="7.8623485565185547"><ele></ele><time>2014-10-16T0:5:45Z</time></trkpt>
<trkpt lat="46.2297172546386719" lon="7.8622775077819824"><ele></ele><time>2014-10-16T0:5:48Z</time></trkpt>
<trkpt lat="46.2296600341796875" lon="7.8622021675109863"><ele></ele><time>2014-10-16T0:5:51Z</time></trkpt>
<trkpt lat="46.2296257019042969" lon="7.8621473312377930"><ele></ele><time>2014-10-16T0:5:54Z</time></trkpt>
<trkpt lat="46.2295837402343750" lon="7.8620929718017578"><ele></ele><time>2014-10-16T0:5:57Z</time></trkpt>
<trkpt lat="46.2295227050781250" lon="7.8620228767395020"><ele></ele><time>2014-10-16T0:6:0Z</time></trkpt>
<trkpt lat="46.2294578552246094" lon="7.8619666099548340"><ele></ele><time>2014-10-16T0:6:3Z</time></trkpt>
<trkpt lat="46.2294044494628906" lon="7.8618879318237305"><ele></ele><time>2014-10-16T0:6:6Z</time></trkpt>
<trkpt lat="46.2293510437011719" lon="7.8617954254150391"><ele></ele><time>2014-10-16T0:6:9Z</time></trkpt>
<trkpt lat="46.2293205261230469" lon="7.8616757392883301"><ele></ele><time>2014-10-16T0:6:12Z</time></trkpt>
<trkpt lat="46.2292976379394531" lon="7.8616032600402832"><ele></ele><time>2014-10-16T0:6:15Z</time></trkpt>
<trkpt lat="46.2292594909667969" lon="7.8615117073059082"><ele></ele><time>2014-10-16T0:6:18Z</time></trkpt>
<trkpt lat="46.2292366027832031" lon="7.8614487648010254"><ele></ele><time>2014-10-16T0:6:21Z</time></trkpt>
<trkpt lat="46.2292098999023438" lon="7.8613467216491699"><ele></ele><time>2014-10-16T0:6:24Z</time></trkpt>
<trkpt lat="46.2291870117187500" lon="7.8612780570983887"><ele></ele><time>2014-10-16T0:6:27Z</time></trkpt>
<trkpt lat="46.2291412353515625" lon="7.8611922264099121"><ele></ele><time>2014-10-16T0:6:30Z</time></trkpt>
<trkpt lat="46.2291107177734375" lon="7.8611330986022949"><ele></ele><time>2014-10-16T0:6:33Z</time></trkpt>
<trkpt lat="46.2290763854980469" lon="7.8610382080078125"><ele></ele><time>2014-10-16T0:6:36Z</time></trkpt>
<trkpt lat="46.2290344238281250" lon="7.8609452247619629"><ele></ele><time>2014-10-16T0:6:39Z</time></trkpt>
<trkpt lat="46.2289962768554688" lon="7.8608546257019043"><ele></ele><time>2014-10-16T0:6:42Z</time></trkpt>
<trkpt lat="46.2289657592773438" lon="7.8607540130615234"><ele></ele><time>2014-10-16T0:6:45Z</time></trkpt>
<trkpt lat="46.2289390563964844" lon="7.8606510162353516"><ele></ele><time>2014-10-16T0:6:48Z</time></trkpt>
<trkpt lat="46.2289047241210938" lon="7.8605375289916992"><ele></ele><time>2014-10-16T0:6:51Z</time></trkpt>
<trkpt lat="46.2288818359375000" lon="7.8604640960693359"><ele></ele><time>2014-10-16T0:6:54Z</time></trkpt>
<trkpt lat="46.2288665771484375" lon="7.8603878021240234"><ele></ele><time>2014-10-16T0:6:57Z</time></trkpt>
<trkpt lat="46.2288322448730469" lon="7.8602814674377441"><ele></ele><time>2014-10-16T0:7:0Z</time></trkpt>
<trkpt lat="46.2288131713867188" lon="7.8602113723754883"><ele></ele><time>2014-10-16T0:7:3Z</time></trkpt>
<trkpt lat="46.2287940979003906" lon="7.8601436614990234"><ele></ele><time>2014-10-16T0:7:6Z</time></trkpt>
<trkpt lat="46.2287673950195312" lon="7.8600311279296875"><ele></ele><time>2014-10-16T0:7:9Z</time></trkpt>
<trkpt lat="46.2287483215332031" lon="7.8599205017089844"><ele></ele><time>2014-10-16T0:7:12Z</time></trkpt>
<trkpt lat="46.2287330627441406" lon="7.8598484992980957"><ele></ele><time>2014-10-16T0:7:15Z</time></trkpt>
<trkpt lat="46.2287139892578125" lon="7.8597779273986816"><ele></ele><time>2014-10-16T0:7:18Z</time></trkpt>
<trkpt lat="46.2286834716796875" lon="7.8596773147583008"><ele></ele><time>2014-10-16T0:7:21Z</time></trkpt>
<trkpt lat="46.2286491394042969" lon="7.8595824241638184"><ele></ele><time>2014-10-16T0:7:24Z</time></trkpt>
<trkpt lat="46.2286186218261719" lon="7.8595290184020996"><ele></ele><time>2014-10-16T0:7:27Z</time></trkpt>
<trkpt lat="46.2285957336425781" lon="7.8594622611999512"><ele></ele><time>2014-10-16T0:7:30Z</time></trkpt>
<trkpt lat="46.2285766601562500" lon="7.8593540191650391"><ele></ele><time>2014-10-16T0:7:33Z</time></trkpt>
<trkpt lat="46.2285728454589844" lon="7.8592743873596191"><ele></ele><time>2014-10-16T0:7:36Z</time></trkpt>
<trkpt lat="46.2285728454589844" lon="7.8591609001159668"><ele></ele><time>2014-10-16T0:7:39Z</time></trkpt>
<trkpt lat="46.2285842895507812" lon="7.8590493202209473"><ele></ele><time>2014-10-16T0:7:42Z</time></trkpt>
<trkpt lat="46.2285881042480469" lon="7.8589720726013184"><ele></ele><time>2014-10-16T0:7:45Z</time></trkpt>
<trkpt lat="46.2285804748535156" lon="7.8588571548461914"><ele></ele><time>2014-10-16T0:7:48Z</time></trkpt>
<trkpt lat="46.2285614013671875" lon="7.8587789535522461"><ele></ele><time>2014-10-16T0:7:51Z</time></trkpt>
<trkpt lat="46.2285270690917969" lon="7.8586635589599609"><ele></ele><time>2014-10-16T0:7:54Z</time></trkpt>
<trkpt lat="46.2284736633300781" lon="7.8585667610168457"><ele></ele><time>2014-10-16T0:7:57Z</time></trkpt>
<trkpt lat="46.2284164428710938" lon="7.8584814071655273"><ele></ele><time>2014-10-16T0:8:0Z</time></trkpt>
<trkpt lat="46.2283782958984375" lon="7.8584280014038086"><ele></ele><time>2014-10-16T0:8:3Z</time></trkpt>
<trkpt lat="46.2283477783203125" lon="7.8583660125732422"><ele></ele><time>2014-10-16T0:8:6Z</time></trkpt>
<trkpt lat="46.2283020019531250" lon="7.8582777976989746"><ele></ele><time>2014-10-16T0:8:9Z</time></trkpt>
<trkpt lat="46.2282791137695312" lon="7.8582129478454590"><ele></ele><time>2014-10-16T0:8:12Z</time></trkpt>
<trkpt lat="46.2282485961914062" lon="7.8581142425537109"><ele></ele><time>2014-10-16T0:8:15Z</time></trkpt>
<trkpt lat="46.2282295227050781" lon="7.8580112457275391"><ele></ele><time>2014-10-16T0:8:18Z</time></trkpt>
<trkpt lat="46.2282104492187500" lon="7.8579468727111816"><ele></ele><time>2014-10-16T0:8:21Z</time></trkpt>
<trkpt lat="46.2281875610351562" lon="7.8578419685363770"><ele></ele><time>2014-10-16T0:8:24Z</time></trkpt>
<trkpt lat="46.2281646728515625" lon="7.8577227592468262"><ele></ele><time>2014-10-16T0:8:27Z</time></trkpt>
<trkpt lat="46.2281455993652344" lon="7.8576054573059082"><ele></ele><time>2014-10-16T0:8:30Z</time></trkpt>
<trkpt lat="46.2281150817871094" lon="7.8574247360229492"><ele></ele><time>2014-10-16T0:8:33Z</time></trkpt>
<trkpt lat="46.2280807495117188" lon="7.8572592735290527"><ele></ele><time>2014-10-16T0:8:36Z</time></trkpt>
<trkpt lat="46.2280426025390625" lon="7.8571071624755859"><ele></ele><time>2014-10-16T0:8:39Z</time></trkpt>
<trkpt lat="46.2280197143554688" lon="7.8569488525390625"><ele></ele><time>2014-10-16T0:8:42Z</time></trkpt>
<trkpt lat="46.2280082702636719" lon="7.8567910194396973"><ele></ele><time>2014-10-16T0:8:45Z</time></trkpt>
<trkpt lat="46.2280044555664062" lon="7.8566288948059082"><ele></ele><time>2014-10-16T0:8:48Z</time></trkpt>
<trkpt lat="46.2280349731445312" lon="7.8564715385437012"><ele></ele><time>2014-10-16T0:8:51Z</time></trkpt>
<trkpt lat="46.2280540466308594" lon="7.8563027381896973"><ele></ele><time>2014-10-16T0:8:54Z</time></trkpt>
<trkpt lat="46.2280044555664062" lon="7.8561615943908691"><ele></ele><time>2014-10-16T0:8:57Z</time></trkpt>
<trkpt lat="46.2279357910156250" lon="7.8560414314270020"><ele></ele><time>2014-10-16T0:9:0Z</time></trkpt>
<trkpt lat="46.2278556823730469" lon="7.8558683395385742"><ele></ele><time>2014-10-16T0:9:3Z</time></trkpt>
<trkpt lat="46.2278099060058594" lon="7.8557553291320801"><ele></ele><time>2014-10-16T0:9:6Z</time></trkpt>
<trkpt lat="46.2277336120605469" lon="7.8555994033813477"><ele></ele><time>2014-10-16T0:9:9Z</time></trkpt>
<trkpt lat="46.2276535034179688" lon="7.8554401397705078"><ele></ele><time>2014-10-16T0:9:12Z</time></trkpt>
<trkpt lat="46.2276000976562500" lon="7.8553166389465332"><ele></ele><time>2014-10-16T0:9:15Z</time></trkpt>
<trkpt lat="46.2275352478027344" lon="7.8551306724548340"><ele></ele><time>2014-10-16T0:9:18Z</time></trkpt>
<trkpt lat="46.2274856567382812" lon="7.8550238609313965"><ele></ele><time>2014-10-16T0:9:21Z</time></trkpt>
<trkpt lat="46.2274322509765625" lon="7.8549332618713379"><ele></ele><time>2014-10-16T0:9:24Z</time></trkpt>
<trkpt lat="46.2273788452148438" lon="7.8548536300659180"><ele></ele><time>2014-10-16T0:9:27Z</time></trkpt>
<trkpt lat="46.2272949218750000" lon="7.8547515869140625"><ele></ele><time>2014-10-16T0:9:30Z</time></trkpt>
<trkpt lat="46.2272071838378906" lon="7.8546576499938965"><ele></ele><time>2014-10-16T0:9:33Z</time></trkpt>
<trkpt lat="46.2271423339843750" lon="7.8546104431152344"><ele></ele><time>2014-10-16T0:9:36Z</time></trkpt>
<trkpt lat="46.2270355224609375" lon="7.8545460700988770"><ele></ele><time>2014-10-16T0:9:39Z</time></trkpt>
<trkpt lat="46.2269554138183594" lon="7.8544778823852539"><ele></ele><time>2014-10-16T0:9:42Z</time></trkpt>
<trkpt lat="46.2268753051757812" lon="7.8543891906738281"><ele></ele><time>2014-10-16T0:9:45Z</time></trkpt>
<trkpt lat="46.2267532348632812" lon="7.8542504310607910"><ele></ele><time>2014-10-16T0:9:48Z</time></trkpt>
<trkpt lat="46.2266311645507812" lon="7.8540997505187988"><ele></ele><time>2014-10-16T0:9:51Z</time></trkpt>
<trkpt lat="46.2265434265136719" lon="7.8539905548095703"><ele></ele><time>2014-10-16T0:9:54Z</time></trkpt>
<trkpt lat="46.2264595031738281" lon="7.8538732528686523"><ele></ele><time>2014-10-16T0:9:57Z</time></trkpt>
<trkpt lat="46.2263298034667969" lon="7.8537344932556152"><ele></ele><time>2014-10-16T0:10:0Z</time></trkpt>
<trkpt lat="46.2262458801269531" lon="7.8536248207092285"><ele></ele><time>2014-10-16T0:10:3Z</time></trkpt>
<trkpt lat="46.2261962890625000" lon="7.8535180091857910"><ele></ele><time>2014-10-16T0:10:6Z</time></trkpt>
<trkpt lat="46.2261772155761719" lon="7.8527855873107910"><ele></ele><time>2014-10-16T0:10:9Z</time></trkpt>
<trkpt lat="46.2261962890625000" lon="7.8525609970092773"><ele></ele><time>2014-10-16T0:10:12Z</time></trkpt>
<trkpt lat="46.2262916564941406" lon="7.8521981239318848"><ele></ele><time>2014-10-16T0:10:15Z</time></trkpt>
<trkpt lat="46.2263069152832031" lon="7.8518772125244141"><ele></ele><time>2014-10-16T0:10:18Z</time></trkpt>
<trkpt lat="46.2262725830078125" lon="7.8517174720764160"><ele></ele><time>2014-10-16T0:10:21Z</time></trkpt>
<trkpt lat="46.2261924743652344" lon="7.8516135215759277"><ele></ele><time>2014-10-16T0:10:24Z</time></trkpt>
<trkpt lat="46.2260894775390625" lon="7.8516817092895508"><ele></ele><time>2014-10-16T0:10:27Z</time></trkpt>
<trkpt lat="46.2260246276855469" lon="7.8517713546752930"><ele></ele><time>2014-10-16T0:10:30Z</time></trkpt>
<trkpt lat="46.2258605957031250" lon="7.8519062995910645"><ele></ele><time>2014-10-16T0:10:33Z</time></trkpt>
<trkpt lat="46.2257347106933594" lon="7.8520178794860840"><ele></ele><time>2014-10-16T0:10:36Z</time></trkpt>
<trkpt lat="46.2256088256835938" lon="7.8522672653198242"><ele></ele><time>2014-10-16T0:10:39Z</time></trkpt>
<trkpt lat="46.2255096435546875" lon="7.8523960113525391"><ele></ele><time>2014-10-16T0:10:42Z</time></trkpt>
<trkpt lat="46.2254142761230469" lon="7.8525319099426270"><ele></ele><time>2014-10-16T0:10:45Z</time></trkpt>
<trkpt lat="46.2253189086914062" lon="7.8525757789611816"><ele></ele><time>2014-10-16T0:10:48Z</time></trkpt>
<trkpt lat="46.2252464294433594" lon="7.8525457382202148"><ele></ele><time>2014-10-16T0:10:51Z</time></trkpt>
<trkpt lat="46.2251510620117188" lon="7.8525338172912598"><ele></ele><time>2014-10-16T0:10:54Z</time></trkpt>
<trkpt lat="46.2250862121582031" lon="7.8524980545043945"><ele></ele><time>2014-10-16T0:10:57Z</time></trkpt>
<trkpt lat="46.2250442504882812" lon="7.8524236679077148"><ele></ele><time>2014-10-16T0:11:0Z</time></trkpt>
<trkpt lat="46.2249717712402344" lon="7.8523030281066895"><ele></ele><time>2014-10-16T0:11:3Z</time></trkpt>
<trkpt lat="46.2249221801757812" lon="7.8522229194641113"><ele></ele><time>2014-10-16T0:11:6Z</time></trkpt>
<trkpt lat="46.2248229980468750" lon="7.8520603179931641"><ele></ele><time>2014-10-16T0:11:9Z</time></trkpt>
<trkpt lat="46.2247085571289062" lon="7.8519320487976074"><ele></ele><time>2014-10-16T0:11:12Z</time></trkpt>
<trkpt lat="46.2246170043945312" lon="7.8518705368041992"><ele></ele><time>2014-10-16T0:11:15Z</time></trkpt>
<trkpt lat="46.2245140075683594" lon="7.8518314361572266"><ele></ele><time>2014-10-16T0:11:18Z</time></trkpt>
<trkpt lat="46.2243728637695312" lon="7.8517808914184570"><ele></ele><time>2014-10-16T0:11:21Z</time></trkpt>
<trkpt lat="46.2243003845214844" lon="7.8517532348632812"><ele></ele><time>2014-10-16T0:11:24Z</time></trkpt>
<trkpt lat="46.2242088317871094" lon="7.8516998291015625"><ele></ele><time>2014-10-16T0:11:27Z</time></trkpt>
<trkpt lat="46.2241134643554688" lon="7.8516387939453125"><ele></ele><time>2014-10-16T0:11:30Z</time></trkpt>
<trkpt lat="46.2240409851074219" lon="7.8515911102294922"><ele></ele><time>2014-10-16T0:11:33Z</time></trkpt>
<trkpt lat="46.2239799499511719" lon="7.8515162467956543"><ele></ele><time>2014-10-16T0:11:36Z</time></trkpt>
<trkpt lat="46.2239494323730469" lon="7.8513846397399902"><ele></ele><time>2014-10-16T0:11:39Z</time></trkpt>
<trkpt lat="46.2239074707031250" lon="7.8512043952941895"><ele></ele><time>2014-10-16T0:11:42Z</time></trkpt>
<trkpt lat="46.2238235473632812" lon="7.8510775566101074"><ele></ele><time>2014-10-16T0:11:45Z</time></trkpt>
<trkpt lat="46.2237701416015625" lon="7.8509883880615234"><ele></ele><time>2014-10-16T0:11:48Z</time></trkpt>
<trkpt lat="46.2237091064453125" lon="7.8508467674255371"><ele></ele><time>2014-10-16T0:11:51Z</time></trkpt>
<trkpt lat="46.2236709594726562" lon="7.8507218360900879"><ele></ele><time>2014-10-16T0:11:54Z</time></trkpt>
<trkpt lat="46.2236251831054688" lon="7.8506412506103516"><ele></ele><time>2014-10-16T0:11:57Z</time></trkpt>
<trkpt lat="46.2235488891601562" lon="7.8505373001098633"><ele></ele><time>2014-10-16T0:12:0Z</time></trkpt>
<trkpt lat="46.2234916687011719" lon="7.8504266738891602"><ele></ele><time>2014-10-16T0:12:3Z</time></trkpt>
<trkpt lat="46.2234725952148438" lon="7.8503289222717285"><ele></ele><time>2014-10-16T0:12:6Z</time></trkpt>
<trkpt lat="46.2234344482421875" lon="7.8502502441406250"><ele></ele><time>2014-10-16T0:12:9Z</time></trkpt>
<trkpt lat="46.2233543395996094" lon="7.8501706123352051"><ele></ele><time>2014-10-16T0:12:12Z</time></trkpt>
<trkpt lat="46.2233123779296875" lon="7.8500938415527344"><ele></ele><time>2014-10-16T0:12:15Z</time></trkpt>
<trkpt lat="46.2232437133789062" lon="7.8499875068664551"><ele></ele><time>2014-10-16T0:12:18Z</time></trkpt>
<trkpt lat="46.2231674194335938" lon="7.8499021530151367"><ele></ele><time>2014-10-16T0:12:21Z</time></trkpt>
<trkpt lat="46.2231216430664062" lon="7.8498330116271973"><ele></ele><time>2014-10-16T0:12:24Z</time></trkpt>
<trkpt lat="46.2230567932128906" lon="7.8496670722961426"><ele></ele><time>2014-10-16T0:12:27Z</time></trkpt>
<trkpt lat="46.2229995727539062" lon="7.8494749069213867"><ele></ele><time>2014-10-16T0:12:30Z</time></trkpt>
<trkpt lat="46.2229843139648438" lon="7.8493256568908691"><ele></ele><time>2014-10-16T0:12:33Z</time></trkpt>
<trkpt lat="46.2229843139648438" lon="7.8490400314331055"><ele></ele><time>2014-10-16T0:12:36Z</time></trkpt>
<trkpt lat="46.2229156494140625" lon="7.8488035202026367"><ele></ele><time>2014-10-16T0:12:39Z</time></trkpt>
<trkpt lat="46.2228393554687500" lon="7.8487348556518555"><ele></ele><time>2014-10-16T0:12:42Z</time></trkpt>
<trkpt lat="46.2227401733398438" lon="7.8485999107360840"><ele></ele><time>2014-10-16T0:12:45Z</time></trkpt>
<trkpt lat="46.2226448059082031" lon="7.8484163284301758"><ele></ele><time>2014-10-16T0:12:48Z</time></trkpt>
<trkpt lat="46.2225875854492188" lon="7.8482699394226074"><ele></ele><time>2014-10-16T0:12:51Z</time></trkpt>
<trkpt lat="46.2225036621093750" lon="7.8480257987976074"><ele></ele><time>2014-10-16T0:12:54Z</time></trkpt>
<trkpt lat="46.2223510742187500" lon="7.8478722572326660"><ele></ele><time>2014-10-16T0:12:57Z</time></trkpt>
<trkpt lat="46.2222633361816406" lon="7.8477511405944824"><ele></ele><time>2014-10-16T0:13:0Z</time></trkpt>
<trkpt lat="46.2222023010253906" lon="7.8476004600524902"><ele></ele><time>2014-10-16T0:13:3Z</time></trkpt>
<trkpt lat="46.2221069335937500" lon="7.8474321365356445"><ele></ele><time>2014-10-16T0:13:6Z</time></trkpt>
<trkpt lat="46.2220535278320312" lon="7.8473467826843262"><ele></ele><time>2014-10-16T0:13:9Z</time></trkpt>
<trkpt lat="46.2220230102539062" lon="7.8472270965576172"><ele></ele><time>2014-10-16T0:13:12Z</time></trkpt>
<trkpt lat="46.2220153808593750" lon="7.8470921516418457"><ele></ele><time>2014-10-16T0:13:15Z</time></trkpt>
<trkpt lat="46.2220153808593750" lon="7.8470339775085449"><ele></ele><time>2014-10-16T0:13:18Z</time></trkpt>
<trkpt lat="46.2219734191894531" lon="7.8469276428222656"><ele></ele><time>2014-10-16T0:13:21Z</time></trkpt>
<trkpt lat="46.2219276428222656" lon="7.8468246459960938"><ele></ele><time>2014-10-16T0:13:24Z</time></trkpt>
<trkpt lat="46.2218894958496094" lon="7.8466892242431641"><ele></ele><time>2014-10-16T0:13:27Z</time></trkpt>
<trkpt lat="46.2218513488769531" lon="7.8464841842651367"><ele></ele><time>2014-10-16T0:13:30Z</time></trkpt>
<trkpt lat="46.2217941284179688" lon="7.8463654518127441"><ele></ele><time>2014-10-16T0:13:33Z</time></trkpt>
<trkpt lat="46.2216911315917969" lon="7.8462090492248535"><ele></ele><time>2014-10-16T0:13:36Z</time></trkpt>
<trkpt lat="46.2215766906738281" lon="7.8460450172424316"><ele></ele><time>2014-10-16T0:13:39Z</time></trkpt>
<trkpt lat="46.2215156555175781" lon="7.8459053039550781"><ele></ele><time>2014-10-16T0:13:42Z</time></trkpt>
<trkpt lat="46.2214012145996094" lon="7.8456835746765137"><ele></ele><time>2014-10-16T0:13:45Z</time></trkpt>
<trkpt lat="46.2213249206542969" lon="7.8455381393432617"><ele></ele><time>2014-10-16T0:13:48Z</time></trkpt>
<trkpt lat="46.2211990356445312" lon="7.8453507423400879"><ele></ele><time>2014-10-16T0:13:51Z</time></trkpt>
<trkpt lat="46.2210998535156250" lon="7.8453202247619629"><ele></ele><time>2014-10-16T0:13:54Z</time></trkpt>
<trkpt lat="46.2209968566894531" lon="7.8452839851379395"><ele></ele><time>2014-10-16T0:13:57Z</time></trkpt>
<trkpt lat="46.2209014892578125" lon="7.8450875282287598"><ele></ele><time>2014-10-16T0:14:0Z</time></trkpt>
<trkpt lat="46.2208633422851562" lon="7.8448457717895508"><ele></ele><time>2014-10-16T0:14:3Z</time></trkpt>
<trkpt lat="46.2208518981933594" lon="7.8446731567382812"><ele></ele><time>2014-10-16T0:14:6Z</time></trkpt>
<trkpt lat="46.2208099365234375" lon="7.8444328308105469"><ele></ele><time>2014-10-16T0:14:9Z</time></trkpt>
<trkpt lat="46.2207183837890625" lon="7.8442592620849609"><ele></ele><time>2014-10-16T0:14:12Z</time></trkpt>
<trkpt lat="46.2206573486328125" lon="7.8441252708435059"><ele></ele><time>2014-10-16T0:14:15Z</time></trkpt>
<trkpt lat="46.2205657958984375" lon="7.8439178466796875"><ele></ele><time>2014-10-16T0:14:18Z</time></trkpt>
<trkpt lat="46.2204437255859375" lon="7.8437356948852539"><ele></ele><time>2014-10-16T0:14:21Z</time></trkpt>
<trkpt lat="46.2202911376953125" lon="7.8435964584350586"><ele></ele><time>2014-10-16T0:14:24Z</time></trkpt>
<trkpt lat="46.2201385498046875" lon="7.8434472084045410"><ele></ele><time>2014-10-16T0:14:27Z</time></trkpt>
<trkpt lat="46.2200584411621094" lon="7.8433094024658203"><ele></ele><time>2014-10-16T0:14:30Z</time></trkpt>
<trkpt lat="46.2199363708496094" lon="7.8430991172790527"><ele></ele><time>2014-10-16T0:14:33Z</time></trkpt>
<trkpt lat="46.2198410034179688" lon="7.8429737091064453"><ele></ele><time>2014-10-16T0:14:36Z</time></trkpt>
<trkpt lat="46.2197456359863281" lon="7.8428549766540527"><ele></ele><time>2014-10-16T0:14:39Z</time></trkpt>
<trkpt lat="46.2196159362792969" lon="7.8426823616027832"><ele></ele><time>2014-10-16T0:14:42Z</time></trkpt>
<trkpt lat="46.2195587158203125" lon="7.8424654006958008"><ele></ele><time>2014-10-16T0:14:45Z</time></trkpt>
<trkpt lat="46.2194862365722656" lon="7.8422808647155762"><ele></ele><time>2014-10-16T0:14:48Z</time></trkpt>
<trkpt lat="46.2194023132324219" lon="7.8421945571899414"><ele></ele><time>2014-10-16T0:14:51Z</time></trkpt>
<trkpt lat="46.2193489074707031" lon="7.8420858383178711"><ele></ele><time>2014-10-16T0:14:54Z</time></trkpt>
<trkpt lat="46.2193222045898438" lon="7.8418598175048828"><ele></ele><time>2014-10-16T0:14:57Z</time></trkpt>
<trkpt lat="46.2192802429199219" lon="7.8416323661804199"><ele></ele><time>2014-10-16T0:15:0Z</time></trkpt>
<trkpt lat="46.2191734313964844" lon="7.8414549827575684"><ele></ele><time>2014-10-16T0:15:3Z</time></trkpt>
<trkpt lat="46.2190818786621094" lon="7.8413610458374023"><ele></ele><time>2014-10-16T0:15:6Z</time></trkpt>
<trkpt lat="46.2189750671386719" lon="7.8412227630615234"><ele></ele><time>2014-10-16T0:15:9Z</time></trkpt>
<trkpt lat="46.2189292907714844" lon="7.8410925865173340"><ele></ele><time>2014-10-16T0:15:12Z</time></trkpt>
<trkpt lat="46.2188835144042969" lon="7.8409543037414551"><ele></ele><time>2014-10-16T0:15:15Z</time></trkpt>
<trkpt lat="46.2188072204589844" lon="7.8407473564147949"><ele></ele><time>2014-10-16T0:15:18Z</time></trkpt>
<trkpt lat="46.2187500000000000" lon="7.8406176567077637"><ele></ele><time>2014-10-16T0:15:21Z</time></trkpt>
<trkpt lat="46.2186584472656250" lon="7.8405609130859375"><ele></ele><time>2014-10-16T0:15:24Z</time></trkpt>
<trkpt lat="46.2185173034667969" lon="7.8405222892761230"><ele></ele><time>2014-10-16T0:15:27Z</time></trkpt>
<trkpt lat="46.2184143066406250" lon="7.8404474258422852"><ele></ele><time>2014-10-16T0:15:30Z</time></trkpt>
<trkpt lat="46.2182769775390625" lon="7.8403000831604004"><ele></ele><time>2014-10-16T0:15:33Z</time></trkpt>
<trkpt lat="46.2182006835937500" lon="7.8401837348937988"><ele></ele><time>2014-10-16T0:15:36Z</time></trkpt>
<trkpt lat="46.2181129455566406" lon="7.8400750160217285"><ele></ele><time>2014-10-16T0:15:39Z</time></trkpt>
<trkpt lat="46.2180328369140625" lon="7.8399496078491211"><ele></ele><time>2014-10-16T0:15:42Z</time></trkpt>
<trkpt lat="46.2179107666015625" lon="7.8397722244262695"><ele></ele><time>2014-10-16T0:15:45Z</time></trkpt>
<trkpt lat="46.2178039550781250" lon="7.8395962715148926"><ele></ele><time>2014-10-16T0:15:48Z</time></trkpt>
<trkpt lat="46.2177009582519531" lon="7.8394293785095215"><ele></ele><time>2014-10-16T0:15:51Z</time></trkpt>
<trkpt lat="46.2176361083984375" lon="7.8393692970275879"><ele></ele><time>2014-10-16T0:15:54Z</time></trkpt>
<trkpt lat="46.2175064086914062" lon="7.8393268585205078"><ele></ele><time>2014-10-16T0:15:57Z</time></trkpt>
<trkpt lat="46.2174148559570312" lon="7.8392381668090820"><ele></ele><time>2014-10-16T0:16:0Z</time></trkpt>
<trkpt lat="46.2172660827636719" lon="7.8390784263610840"><ele></ele><time>2014-10-16T0:16:3Z</time></trkpt>
<trkpt lat="46.2170944213867188" lon="7.8389096260070801"><ele></ele><time>2014-10-16T0:16:6Z</time></trkpt>
<trkpt lat="46.2169685363769531" lon="7.8388276100158691"><ele></ele><time>2014-10-16T0:16:9Z</time></trkpt>
<trkpt lat="46.2168045043945312" lon="7.8386521339416504"><ele></ele><time>2014-10-16T0:16:12Z</time></trkpt>
<trkpt lat="46.2166595458984375" lon="7.8384394645690918"><ele></ele><time>2014-10-16T0:16:15Z</time></trkpt>
<trkpt lat="46.2165718078613281" lon="7.8382978439331055"><ele></ele><time>2014-10-16T0:16:18Z</time></trkpt>
<trkpt lat="46.2164382934570312" lon="7.8380947113037109"><ele></ele><time>2014-10-16T0:16:21Z</time></trkpt>
<trkpt lat="46.2163505554199219" lon="7.8380160331726074"><ele></ele><time>2014-10-16T0:16:24Z</time></trkpt>
<trkpt lat="46.2162322998046875" lon="7.8378462791442871"><ele></ele><time>2014-10-16T0:16:27Z</time></trkpt>
<trkpt lat="46.2161331176757812" lon="7.8376555442810059"><ele></ele><time>2014-10-16T0:16:30Z</time></trkpt>
<trkpt lat="46.2160301208496094" lon="7.8376016616821289"><ele></ele><time>2014-10-16T0:16:33Z</time></trkpt>
<trkpt lat="46.2159347534179688" lon="7.8375229835510254"><ele></ele><time>2014-10-16T0:16:36Z</time></trkpt>
<trkpt lat="46.2158241271972656" lon="7.8373098373413086"><ele></ele><time>2014-10-16T0:16:39Z</time></trkpt>
<trkpt lat="46.2157402038574219" lon="7.8371777534484863"><ele></ele><time>2014-10-16T0:16:42Z</time></trkpt>
<trkpt lat="46.2156524658203125" lon="7.8370409011840820"><ele></ele><time>2014-10-16T0:16:45Z</time></trkpt>
<trkpt lat="46.2155456542968750" lon="7.8368048667907715"><ele></ele><time>2014-10-16T0:16:48Z</time></trkpt>
<trkpt lat="46.2154159545898438" lon="7.8366270065307617"><ele></ele><time>2014-10-16T0:16:51Z</time></trkpt>
<trkpt lat="46.2152137756347656" lon="7.8364500999450684"><ele></ele><time>2014-10-16T0:16:54Z</time></trkpt>
<trkpt lat="46.2149810791015625" lon="7.8361883163452148"><ele></ele><time>2014-10-16T0:16:57Z</time></trkpt>
<trkpt lat="46.2148094177246094" lon="7.8360972404479980"><ele></ele><time>2014-10-16T0:17:0Z</time></trkpt>
<trkpt lat="46.2148170471191406" lon="7.8361229896545410"><ele></ele><time>2014-10-16T0:17:3Z</time></trkpt>
<trkpt lat="46.2148895263671875" lon="7.8362565040588379"><ele></ele><time>2014-10-16T0:17:6Z</time></trkpt>
<trkpt lat="46.2149848937988281" lon="7.8364520072937012"><ele></ele><time>2014-10-16T0:17:9Z</time></trkpt>
<trkpt lat="46.2149200439453125" lon="7.8365020751953125"><ele></ele><time>2014-10-16T0:17:12Z</time></trkpt>
<trkpt lat="46.2147521972656250" lon="7.8364353179931641"><ele></ele><time>2014-10-16T0:17:15Z</time></trkpt>
<trkpt lat="46.2144966125488281" lon="7.8364520072937012"><ele></ele><time>2014-10-16T0:17:18Z</time></trkpt>
<trkpt lat="46.2143363952636719" lon="7.8364300727844238"><ele></ele><time>2014-10-16T0:17:21Z</time></trkpt>
<trkpt lat="46.2142715454101562" lon="7.8364620208740234"><ele></ele><time>2014-10-16T0:17:24Z</time></trkpt>
<trkpt lat="46.2142868041992188" lon="7.8365578651428223"><ele></ele><time>2014-10-16T0:17:27Z</time></trkpt>
<trkpt lat="46.2143554687500000" lon="7.8366017341613770"><ele></ele><time>2014-10-16T0:17:30Z</time></trkpt>
<trkpt lat="46.2144660949707031" lon="7.8367552757263184"><ele></ele><time>2014-10-16T0:17:33Z</time></trkpt>
<trkpt lat="46.2144889831542969" lon="7.8369822502136230"><ele></ele><time>2014-10-16T0:17:36Z</time></trkpt>
<trkpt lat="46.2145080566406250" lon="7.8371691703796387"><ele></ele><time>2014-10-16T0:17:39Z</time></trkpt>
<trkpt lat="46.2145996093750000" lon="7.8373169898986816"><ele></ele><time>2014-10-16T0:17:42Z</time></trkpt>
<trkpt lat="46.2145690917968750" lon="7.8372983932495117"><ele></ele><time>2014-10-16T0:17:45Z</time></trkpt>
<trkpt lat="46.2144737243652344" lon="7.8371949195861816"><ele></ele><time>2014-10-16T0:17:48Z</time></trkpt>
<trkpt lat="46.2144050598144531" lon="7.8371400833129883"><ele></ele><time>2014-10-16T0:17:51Z</time></trkpt>
<trkpt lat="46.2143249511718750" lon="7.8371067047119141"><ele></ele><time>2014-10-16T0:17:54Z</time></trkpt>
<trkpt lat="46.2143135070800781" lon="7.8376636505126953"><ele></ele><time>2014-10-16T0:17:57Z</time></trkpt>
<trkpt lat="46.2142066955566406" lon="7.8376703262329102"><ele></ele><time>2014-10-16T0:18:0Z</time></trkpt>
<trkpt lat="46.2139816284179688" lon="7.8376002311706543"><ele></ele><time>2014-10-16T0:18:3Z</time></trkpt>
<trkpt lat="46.2138366699218750" lon="7.8374829292297363"><ele></ele><time>2014-10-16T0:18:6Z</time></trkpt>
<trkpt lat="46.2136344909667969" lon="7.8372797966003418"><ele></ele><time>2014-10-16T0:18:9Z</time></trkpt>
<trkpt lat="46.2136039733886719" lon="7.8370108604431152"><ele></ele><time>2014-10-16T0:18:12Z</time></trkpt>
<trkpt lat="46.2136306762695312" lon="7.8365902900695801"><ele></ele><time>2014-10-16T0:18:15Z</time></trkpt>
<trkpt lat="46.2135696411132812" lon="7.8363780975341797"><ele></ele><time>2014-10-16T0:18:18Z</time></trkpt>
<trkpt lat="46.2134132385253906" lon="7.8361144065856934"><ele></ele><time>2014-10-16T0:18:21Z</time></trkpt>
<trkpt lat="46.2133026123046875" lon="7.8360610008239746"><ele></ele><time>2014-10-16T0:18:24Z</time></trkpt>
<trkpt lat="46.2132148742675781" lon="7.8362660408020020"><ele></ele><time>2014-10-16T0:18:27Z</time></trkpt>
<trkpt lat="46.2134399414062500" lon="7.8366684913635254"><ele></ele><time>2014-10-16T0:18:30Z</time></trkpt>
<trkpt lat="46.2134628295898438" lon="7.8367390632629395"><ele></ele><time>2014-10-16T0:18:33Z</time></trkpt>
<trkpt lat="46.2133560180664062" lon="7.8365836143493652"><ele></ele><time>2014-10-16T0:18:36Z</time></trkpt>
<trkpt lat="46.2132492065429688" lon="7.8363957405090332"><ele></ele><time>2014-10-16T0:18:39Z</time></trkpt>
<trkpt lat="46.2132110595703125" lon="7.8363723754882812"><ele></ele><time>2014-10-16T0:18:42Z</time></trkpt>
<trkpt lat="46.2132530212402344" lon="7.8364233970642090"><ele></ele><time>2014-10-16T0:18:45Z</time></trkpt>
<trkpt lat="46.2132301330566406" lon="7.8364324569702148"><ele></ele><time>2014-10-16T0:18:48Z</time></trkpt>
<trkpt lat="46.2132568359375000" lon="7.8364019393920898"><ele></ele><time>2014-10-16T0:18:51Z</time></trkpt>
<trkpt lat="46.2132644653320312" lon="7.8364100456237793"><ele></ele><time>2014-10-16T0:18:54Z</time></trkpt>
<trkpt lat="46.2132415771484375" lon="7.8364458084106445"><ele></ele><time>2014-10-16T0:18:57Z</time></trkpt>
<trkpt lat="46.2132492065429688" lon="7.8364663124084473"><ele></ele><time>2014-10-16T0:19:0Z</time></trkpt>
<trkpt lat="46.2132492065429688" lon="7.8364796638488770"><ele></ele><time>2014-10-16T0:19:3Z</time></trkpt>
<trkpt lat="46.2133140563964844" lon="7.8365144729614258"><ele></ele><time>2014-10-16T0:19:6Z</time></trkpt>
<trkpt lat="46.2133178710937500" lon="7.8365364074707031"><ele></ele><time>2014-10-16T0:19:9Z</time></trkpt>
<trkpt lat="46.2133331298828125" lon="7.8365287780761719"><ele></ele><time>2014-10-16T0:19:12Z</time></trkpt>
<trkpt lat="46.2134323120117188" lon="7.8367295265197754"><ele></ele><time>2014-10-16T0:19:15Z</time></trkpt>
<trkpt lat="46.2134513854980469" lon="7.8368515968322754"><ele></ele><time>2014-10-16T0:19:18Z</time></trkpt>
<trkpt lat="46.2133140563964844" lon="7.8372011184692383"><ele></ele><time>2014-10-16T0:19:21Z</time></trkpt>
<trkpt lat="46.2131919860839844" lon="7.8373446464538574"><ele></ele><time>2014-10-16T0:19:24Z</time></trkpt>
<trkpt lat="46.2131080627441406" lon="7.8374257087707520"><ele></ele><time>2014-10-16T0:19:27Z</time></trkpt>
<trkpt lat="46.2129364013671875" lon="7.8372631072998047"><ele></ele><time>2014-10-16T0:19:30Z</time></trkpt>
<trkpt lat="46.2129173278808594" lon="7.8371257781982422"><ele></ele><time>2014-10-16T0:19:33Z</time></trkpt>
<trkpt lat="46.2129020690917969" lon="7.8371081352233887"><ele></ele><time>2014-10-16T0:19:36Z</time></trkpt>
<trkpt lat="46.2128677368164062" lon="7.8371019363403320"><ele></ele><time>2014-10-16T0:19:39Z</time></trkpt>
<trkpt lat="46.2128372192382812" lon="7.8370671272277832"><ele></ele><time>2014-10-16T0:19:42Z</time></trkpt>
<trkpt lat="46.2128067016601562" lon="7.8370671272277832"><ele></ele><time>2014-10-16T0:19:45Z</time></trkpt>
<trkpt lat="46.2127609252929688" lon="7.8370561599731445"><ele></ele><time>2014-10-16T0:19:48Z</time></trkpt>
<trkpt lat="46.2127151489257812" lon="7.8370561599731445"><ele></ele><time>2014-10-16T0:19:51Z</time></trkpt>
<trkpt lat="46.2126808166503906" lon="7.8370723724365234"><ele></ele><time>2014-10-16T0:19:54Z</time></trkpt>
<trkpt lat="46.2126579284667969" lon="7.8370718955993652"><ele></ele><time>2014-10-16T0:19:57Z</time></trkpt>
<trkpt lat="46.2126350402832031" lon="7.8370628356933594"><ele></ele><time>2014-10-16T0:20:0Z</time></trkpt>
<trkpt lat="46.2125854492187500" lon="7.8370447158813477"><ele></ele><time>2014-10-16T0:20:3Z</time></trkpt>
<trkpt lat="46.2125434875488281" lon="7.8370027542114258"><ele></ele><time>2014-10-16T0:20:6Z</time></trkpt>
<trkpt lat="46.2125244140625000" lon="7.8369708061218262"><ele></ele><time>2014-10-16T0:20:9Z</time></trkpt>
<trkpt lat="46.2124862670898438" lon="7.8369574546813965"><ele></ele><time>2014-10-16T0:20:12Z</time></trkpt>
<trkpt lat="46.2124328613281250" lon="7.8369226455688477"><ele></ele><time>2014-10-16T0:20:15Z</time></trkpt>
<trkpt lat="46.2123947143554688" lon="7.8368568420410156"><ele></ele><time>2014-10-16T0:20:18Z</time></trkpt>
<trkpt lat="46.2123565673828125" lon="7.8368053436279297"><ele></ele><time>2014-10-16T0:20:21Z</time></trkpt>
<trkpt lat="46.2123336791992188" lon="7.8367748260498047"><ele></ele><time>2014-10-16T0:20:24Z</time></trkpt>
<trkpt lat="46.2122879028320312" lon="7.8367199897766113"><ele></ele><time>2014-10-16T0:20:27Z</time></trkpt>
<trkpt lat="46.2122497558593750" lon="7.8366932868957520"><ele></ele><time>2014-10-16T0:20:30Z</time></trkpt>
<trkpt lat="46.2121772766113281" lon="7.8366589546203613"><ele></ele><time>2014-10-16T0:20:33Z</time></trkpt>
<trkpt lat="46.2121543884277344" lon="7.8366022109985352"><ele></ele><time>2014-10-16T0:20:36Z</time></trkpt>
<trkpt lat="46.2121162414550781" lon="7.8365287780761719"><ele></ele><time>2014-10-16T0:20:39Z</time></trkpt>
<trkpt lat="46.2120819091796875" lon="7.8364882469177246"><ele></ele><time>2014-10-16T0:20:42Z</time></trkpt>
<trkpt lat="46.2119979858398438" lon="7.8364133834838867"><ele></ele><time>2014-10-16T0:20:45Z</time></trkpt>
<trkpt lat="46.2119102478027344" lon="7.8363714218139648"><ele></ele><time>2014-10-16T0:20:48Z</time></trkpt>
<trkpt lat="46.2118606567382812" lon="7.8363494873046875"><ele></ele><time>2014-10-16T0:20:51Z</time></trkpt>
<trkpt lat="46.2118148803710938" lon="7.8362312316894531"><ele></ele><time>2014-10-16T0:20:54Z</time></trkpt>
<trkpt lat="46.2117729187011719" lon="7.8361258506774902"><ele></ele><time>2014-10-16T0:20:57Z</time></trkpt>
<trkpt lat="46.2117195129394531" lon="7.8360667228698730"><ele></ele><time>2014-10-16T0:21:0Z</time></trkpt>
<trkpt lat="46.2116699218750000" lon="7.8360261917114258"><ele></ele><time>2014-10-16T0:21:3Z</time></trkpt>
<trkpt lat="46.2115783691406250" lon="7.8359255790710449"><ele></ele><time>2014-10-16T0:21:6Z</time></trkpt>
<trkpt lat="46.2115249633789062" lon="7.8358483314514160"><ele></ele><time>2014-10-16T0:21:9Z</time></trkpt>
<trkpt lat="46.2114677429199219" lon="7.8357672691345215"><ele></ele><time>2014-10-16T0:21:12Z</time></trkpt>
<trkpt lat="46.2113761901855469" lon="7.8356776237487793"><ele></ele><time>2014-10-16T0:21:15Z</time></trkpt>
<trkpt lat="46.2112960815429688" lon="7.8355865478515625"><ele></ele><time>2014-10-16T0:21:18Z</time></trkpt>
<trkpt lat="46.2112426757812500" lon="7.8355207443237305"><ele></ele><time>2014-10-16T0:21:21Z</time></trkpt>
<trkpt lat="46.2111320495605469" lon="7.8353481292724609"><ele></ele><time>2014-10-16T0:21:24Z</time></trkpt>
<trkpt lat="46.2110595703125000" lon="7.8352122306823730"><ele></ele><time>2014-10-16T0:21:27Z</time></trkpt>
<trkpt lat="46.2109260559082031" lon="7.8350496292114258"><ele></ele><time>2014-10-16T0:21:30Z</time></trkpt>
<trkpt lat="46.2108345031738281" lon="7.8349351882934570"><ele></ele><time>2014-10-16T0:21:33Z</time></trkpt>
<trkpt lat="46.2107582092285156" lon="7.8348121643066406"><ele></ele><time>2014-10-16T0:21:36Z</time></trkpt>
<trkpt lat="46.2106895446777344" lon="7.8346071243286133"><ele></ele><time>2014-10-16T0:21:39Z</time></trkpt>
<trkpt lat="46.2106437683105469" lon="7.8344588279724121"><ele></ele><time>2014-10-16T0:21:42Z</time></trkpt>
<trkpt lat="46.2105369567871094" lon="7.8342761993408203"><ele></ele><time>2014-10-16T0:21:45Z</time></trkpt>
<trkpt lat="46.2104759216308594" lon="7.8340935707092285"><ele></ele><time>2014-10-16T0:21:48Z</time></trkpt>
<trkpt lat="46.2104072570800781" lon="7.8338336944580078"><ele></ele><time>2014-10-16T0:21:51Z</time></trkpt>
<trkpt lat="46.2103157043457031" lon="7.8335747718811035"><ele></ele><time>2014-10-16T0:21:54Z</time></trkpt>
<trkpt lat="46.2102470397949219" lon="7.8334431648254395"><ele></ele><time>2014-10-16T0:21:57Z</time></trkpt>
<trkpt lat="46.2101707458496094" lon="7.8333253860473633"><ele></ele><time>2014-10-16T0:22:0Z</time></trkpt>
<trkpt lat="46.2101287841796875" lon="7.8332495689392090"><ele></ele><time>2014-10-16T0:22:3Z</time></trkpt>
<trkpt lat="46.2100753784179688" lon="7.8331274986267090"><ele></ele><time>2014-10-16T0:22:6Z</time></trkpt>
<trkpt lat="46.2100486755371094" lon="7.8330092430114746"><ele></ele><time>2014-10-16T0:22:9Z</time></trkpt>
<trkpt lat="46.2100410461425781" lon="7.8329329490661621"><ele></ele><time>2014-10-16T0:22:12Z</time></trkpt>
<trkpt lat="46.2100334167480469" lon="7.8328528404235840"><ele></ele><time>2014-10-16T0:22:15Z</time></trkpt>
<trkpt lat="46.2100181579589844" lon="7.8327198028564453"><ele></ele><time>2014-10-16T0:22:18Z</time></trkpt>
<trkpt lat="46.2099952697753906" lon="7.8325667381286621"><ele></ele><time>2014-10-16T0:22:21Z</time></trkpt>
<trkpt lat="46.2099800109863281" lon="7.8324837684631348"><ele></ele><time>2014-10-16T0:22:24Z</time></trkpt>
<trkpt lat="46.2099533081054688" lon="7.8323955535888672"><ele></ele><time>2014-10-16T0:22:27Z</time></trkpt>
<trkpt lat="46.2099304199218750" lon="7.8323340415954590"><ele></ele><time>2014-10-16T0:22:30Z</time></trkpt>
<trkpt lat="46.2098999023437500" lon="7.8322272300720215"><ele></ele><time>2014-10-16T0:22:33Z</time></trkpt>
<trkpt lat="46.2098693847656250" lon="7.8321204185485840"><ele></ele><time>2014-10-16T0:22:36Z</time></trkpt>
<trkpt lat="46.2098312377929688" lon="7.8320026397705078"><ele></ele><time>2014-10-16T0:22:39Z</time></trkpt>
<trkpt lat="46.2097969055175781" lon="7.8318967819213867"><ele></ele><time>2014-10-16T0:22:42Z</time></trkpt>
<trkpt lat="46.2097663879394531" lon="7.8318333625793457"><ele></ele><time>2014-10-16T0:22:45Z</time></trkpt>
<trkpt lat="46.2097015380859375" lon="7.8317604064941406"><ele></ele><time>2014-10-16T0:22:48Z</time></trkpt>
<trkpt lat="46.2096519470214844" lon="7.8317003250122070"><ele></ele><time>2014-10-16T0:22:51Z</time></trkpt>
<trkpt lat="46.2095718383789062" lon="7.8316230773925781"><ele></ele><time>2014-10-16T0:22:54Z</time></trkpt>
<trkpt lat="46.2095108032226562" lon="7.8315682411193848"><ele></ele><time>2014-10-16T0:22:57Z</time></trkpt>
<trkpt lat="46.2094039916992188" lon="7.8314971923828125"><ele></ele><time>2014-10-16T0:23:0Z</time></trkpt>
<trkpt lat="46.2093391418457031" lon="7.8314404487609863"><ele></ele><time>2014-10-16T0:23:3Z</time></trkpt>
<trkpt lat="46.2092704772949219" lon="7.8313732147216797"><ele></ele><time>2014-10-16T0:23:6Z</time></trkpt>
<trkpt lat="46.2092399597167969" lon="7.8313331604003906"><ele></ele><time>2014-10-16T0:23:9Z</time></trkpt>
<trkpt lat="46.2092094421386719" lon="7.8312740325927734"><ele></ele><time>2014-10-16T0:23:12Z</time></trkpt>
<trkpt lat="46.2091598510742188" lon="7.8311533927917480"><ele></ele><time>2014-10-16T0:23:15Z</time></trkpt>
<trkpt lat="46.2090988159179688" lon="7.8310480117797852"><ele></ele><time>2014-10-16T0:23:18Z</time></trkpt>
<trkpt lat="46.2090530395507812" lon="7.8309931755065918"><ele></ele><time>2014-10-16T0:23:21Z</time></trkpt>
<trkpt lat="46.2089767456054688" lon="7.8309183120727539"><ele></ele><time>2014-10-16T0:23:24Z</time></trkpt>
<trkpt lat="46.2089195251464844" lon="7.8308525085449219"><ele></ele><time>2014-10-16T0:23:27Z</time></trkpt>
<trkpt lat="46.2088203430175781" lon="7.8307633399963379"><ele></ele><time>2014-10-16T0:23:30Z</time></trkpt>
<trkpt lat="46.2087440490722656" lon="7.8306665420532227"><ele></ele><time>2014-10-16T0:23:33Z</time></trkpt>
<trkpt lat="46.2086639404296875" lon="7.8305664062500000"><ele></ele><time>2014-10-16T0:23:36Z</time></trkpt>
<trkpt lat="46.2085266113281250" lon="7.8304038047790527"><ele></ele><time>2014-10-16T0:23:39Z</time></trkpt>
<trkpt lat="46.2083854675292969" lon="7.8302197456359863"><ele></ele><time>2014-10-16T0:23:42Z</time></trkpt>
<trkpt lat="46.2082405090332031" lon="7.8300061225891113"><ele></ele><time>2014-10-16T0:23:45Z</time></trkpt>
<trkpt lat="46.2081756591796875" lon="7.8298521041870117"><ele></ele><time>2014-10-16T0:23:48Z</time></trkpt>
<trkpt lat="46.2080955505371094" lon="7.8296589851379395"><ele></ele><time>2014-10-16T0:23:51Z</time></trkpt>
<trkpt lat="46.2080421447753906" lon="7.8295631408691406"><ele></ele><time>2014-10-16T0:23:54Z</time></trkpt>
<trkpt lat="46.2079811096191406" lon="7.8294849395751953"><ele></ele><time>2014-10-16T0:23:57Z</time></trkpt>
<trkpt lat="46.2078971862792969" lon="7.8293766975402832"><ele></ele><time>2014-10-16T0:24:0Z</time></trkpt>
<trkpt lat="46.2078437805175781" lon="7.8293085098266602"><ele></ele><time>2014-10-16T0:24:3Z</time></trkpt>
<trkpt lat="46.2077903747558594" lon="7.8292102813720703"><ele></ele><time>2014-10-16T0:24:6Z</time></trkpt>
<trkpt lat="46.2077140808105469" lon="7.8290848731994629"><ele></ele><time>2014-10-16T0:24:9Z</time></trkpt>
<trkpt lat="46.2076301574707031" lon="7.8289647102355957"><ele></ele><time>2014-10-16T0:24:12Z</time></trkpt>
<trkpt lat="46.2075386047363281" lon="7.8288631439208984"><ele></ele><time>2014-10-16T0:24:15Z</time></trkpt>
<trkpt lat="46.2074890136718750" lon="7.8288030624389648"><ele></ele><time>2014-10-16T0:24:18Z</time></trkpt>
<trkpt lat="46.2074241638183594" lon="7.8287162780761719"><ele></ele><time>2014-10-16T0:24:21Z</time></trkpt>
<trkpt lat="46.2073974609375000" lon="7.8286733627319336"><ele></ele><time>2014-10-16T0:24:24Z</time></trkpt>
<trkpt lat="46.2073631286621094" lon="7.8285951614379883"><ele></ele><time>2014-10-16T0:24:27Z</time></trkpt>
<trkpt lat="46.2073326110839844" lon="7.8285636901855469"><ele></ele><time>2014-10-16T0:24:30Z</time></trkpt>
<trkpt lat="46.2072868347167969" lon="7.8285169601440430"><ele></ele><time>2014-10-16T0:24:33Z</time></trkpt>
<trkpt lat="46.2072639465332031" lon="7.8284721374511719"><ele></ele><time>2014-10-16T0:24:36Z</time></trkpt>
<trkpt lat="46.2072296142578125" lon="7.8284387588500977"><ele></ele><time>2014-10-16T0:24:39Z</time></trkpt>
<trkpt lat="46.2071838378906250" lon="7.8283929824829102"><ele></ele><time>2014-10-16T0:24:42Z</time></trkpt>
<trkpt lat="46.2071495056152344" lon="7.8283772468566895"><ele></ele><time>2014-10-16T0:24:45Z</time></trkpt>
<trkpt lat="46.2070922851562500" lon="7.8283634185791016"><ele></ele><time>2014-10-16T0:24:48Z</time></trkpt>
<trkpt lat="46.2070236206054688" lon="7.8283586502075195"><ele></ele><time>2014-10-16T0:24:51Z</time></trkpt>
<trkpt lat="46.2069664001464844" lon="7.8283467292785645"><ele></ele><time>2014-10-16T0:24:54Z</time></trkpt>
<trkpt lat="46.2069396972656250" lon="7.8283371925354004"><ele></ele><time>2014-10-16T0:24:57Z</time></trkpt>
<trkpt lat="46.2069091796875000" lon="7.8283281326293945"><ele></ele><time>2014-10-16T0:25:0Z</time></trkpt>
<trkpt lat="46.2068710327148438" lon="7.8283205032348633"><ele></ele><time>2014-10-16T0:25:3Z</time></trkpt>
<trkpt lat="46.2067794799804688" lon="7.8282799720764160"><ele></ele><time>2014-10-16T0:25:6Z</time></trkpt>
<trkpt lat="46.2066841125488281" lon="7.8282356262207031"><ele></ele><time>2014-10-16T0:25:9Z</time></trkpt>
<trkpt lat="46.2066268920898438" lon="7.8282432556152344"><ele></ele><time>2014-10-16T0:25:12Z</time></trkpt>
<trkpt lat="46.2065544128417969" lon="7.8282608985900879"><ele></ele><time>2014-10-16T0:25:15Z</time></trkpt>
<trkpt lat="46.2065124511718750" lon="7.8282527923583984"><ele></ele><time>2014-10-16T0:25:18Z</time></trkpt>
<trkpt lat="46.2064743041992188" lon="7.8282370567321777"><ele></ele><time>2014-10-16T0:25:21Z</time></trkpt>
<trkpt lat="46.2064247131347656" lon="7.8282318115234375"><ele></ele><time>2014-10-16T0:25:24Z</time></trkpt>
<trkpt lat="46.2063674926757812" lon="7.8281974792480469"><ele></ele><time>2014-10-16T0:25:27Z</time></trkpt>
<trkpt lat="46.2063217163085938" lon="7.8281335830688477"><ele></ele><time>2014-10-16T0:25:30Z</time></trkpt>
<trkpt lat="46.2062759399414062" lon="7.8280935287475586"><ele></ele><time>2014-10-16T0:25:33Z</time></trkpt>
<trkpt lat="46.2062225341796875" lon="7.8280467987060547"><ele></ele><time>2014-10-16T0:25:36Z</time></trkpt>
<trkpt lat="46.2061462402343750" lon="7.8279771804809570"><ele></ele><time>2014-10-16T0:25:39Z</time></trkpt>
<trkpt lat="46.2060966491699219" lon="7.8279337882995605"><ele></ele><time>2014-10-16T0:25:42Z</time></trkpt>
<trkpt lat="46.2060508728027344" lon="7.8278832435607910"><ele></ele><time>2014-10-16T0:25:45Z</time></trkpt>
<trkpt lat="46.2060089111328125" lon="7.8278050422668457"><ele></ele><time>2014-10-16T0:25:48Z</time></trkpt>
<trkpt lat="46.2058906555175781" lon="7.8276181221008301"><ele></ele><time>2014-10-16T0:25:51Z</time></trkpt>
<trkpt lat="46.2058181762695312" lon="7.8275332450866699"><ele></ele><time>2014-10-16T0:25:54Z</time></trkpt>
<trkpt lat="46.2057762145996094" lon="7.8274421691894531"><ele></ele><time>2014-10-16T0:25:57Z</time></trkpt>
<trkpt lat="46.2057571411132812" lon="7.8273658752441406"><ele></ele><time>2014-10-16T0:26:0Z</time></trkpt>
<trkpt lat="46.2057189941406250" lon="7.8272643089294434"><ele></ele><time>2014-10-16T0:26:3Z</time></trkpt>
<trkpt lat="46.2056732177734375" lon="7.8271508216857910"><ele></ele><time>2014-10-16T0:26:6Z</time></trkpt>
<trkpt lat="46.2055969238281250" lon="7.8269634246826172"><ele></ele><time>2014-10-16T0:26:9Z</time></trkpt>
<trkpt lat="46.2055282592773438" lon="7.8267769813537598"><ele></ele><time>2014-10-16T0:26:12Z</time></trkpt>
<trkpt lat="46.2054748535156250" lon="7.8265924453735352"><ele></ele><time>2014-10-16T0:26:15Z</time></trkpt>
<trkpt lat="46.2054557800292969" lon="7.8265185356140137"><ele></ele><time>2014-10-16T0:26:18Z</time></trkpt>
<trkpt lat="46.2054443359375000" lon="7.8264694213867188"><ele></ele><time>2014-10-16T0:26:21Z</time></trkpt>
<trkpt lat="46.2054214477539062" lon="7.8264493942260742"><ele></ele><time>2014-10-16T0:26:24Z</time></trkpt>
<trkpt lat="46.2053718566894531" lon="7.8264408111572266"><ele></ele><time>2014-10-16T0:26:27Z</time></trkpt>
<trkpt lat="46.2053413391113281" lon="7.8264255523681641"><ele></ele><time>2014-10-16T0:26:30Z</time></trkpt>
<trkpt lat="46.2052879333496094" lon="7.8264060020446777"><ele></ele><time>2014-10-16T0:26:33Z</time></trkpt>
<trkpt lat="46.2052345275878906" lon="7.8263874053955078"><ele></ele><time>2014-10-16T0:26:36Z</time></trkpt>
<trkpt lat="46.2051963806152344" lon="7.8263745307922363"><ele></ele><time>2014-10-16T0:26:39Z</time></trkpt>
<trkpt lat="46.2051391601562500" lon="7.8263511657714844"><ele></ele><time>2014-10-16T0:26:42Z</time></trkpt>
<trkpt lat="46.2051010131835938" lon="7.8263211250305176"><ele></ele><time>2014-10-16T0:26:45Z</time></trkpt>
<trkpt lat="46.2050704956054688" lon="7.8262987136840820"><ele></ele><time>2014-10-16T0:26:48Z</time></trkpt>
<trkpt lat="46.2050285339355469" lon="7.8262720108032227"><ele></ele><time>2014-10-16T0:26:51Z</time></trkpt>
<trkpt lat="46.2050285339355469" lon="7.8262419700622559"><ele></ele><time>2014-10-16T0:26:54Z</time></trkpt>
<trkpt lat="46.2050247192382812" lon="7.8262629508972168"><ele></ele><time>2014-10-16T0:26:57Z</time></trkpt>
<trkpt lat="46.2050323486328125" lon="7.8263359069824219"><ele></ele><time>2014-10-16T0:27:0Z</time></trkpt>
<trkpt lat="46.2050437927246094" lon="7.8263759613037109"><ele></ele><time>2014-10-16T0:27:3Z</time></trkpt>
<trkpt lat="46.2050704956054688" lon="7.8264079093933105"><ele></ele><time>2014-10-16T0:27:6Z</time></trkpt>
<trkpt lat="46.2050704956054688" lon="7.8264307975769043"><ele></ele><time>2014-10-16T0:27:9Z</time></trkpt>
<trkpt lat="46.2050399780273438" lon="7.8264327049255371"><ele></ele><time>2014-10-16T0:27:12Z</time></trkpt>
<trkpt lat="46.2050209045410156" lon="7.8263807296752930"><ele></ele><time>2014-10-16T0:27:15Z</time></trkpt>
<trkpt lat="46.2050056457519531" lon="7.8263349533081055"><ele></ele><time>2014-10-16T0:27:18Z</time></trkpt>
<trkpt lat="46.2049789428710938" lon="7.8262901306152344"><ele></ele><time>2014-10-16T0:27:21Z</time></trkpt>
<trkpt lat="46.2049560546875000" lon="7.8262691497802734"><ele></ele><time>2014-10-16T0:27:24Z</time></trkpt>
<trkpt lat="46.2048988342285156" lon="7.8262543678283691"><ele></ele><time>2014-10-16T0:27:27Z</time></trkpt>
<trkpt lat="46.2048492431640625" lon="7.8262319564819336"><ele></ele><time>2014-10-16T0:27:30Z</time></trkpt>
<trkpt lat="46.2048110961914062" lon="7.8261866569519043"><ele></ele><time>2014-10-16T0:27:33Z</time></trkpt>
<trkpt lat="46.2047843933105469" lon="7.8261580467224121"><ele></ele><time>2014-10-16T0:27:36Z</time></trkpt>
<trkpt lat="46.2047462463378906" lon="7.8261318206787109"><ele></ele><time>2014-10-16T0:27:39Z</time></trkpt>
<trkpt lat="46.2047042846679688" lon="7.8261308670043945"><ele></ele><time>2014-10-16T0:27:42Z</time></trkpt>
<trkpt lat="46.2046852111816406" lon="7.8260951042175293"><ele></ele><time>2014-10-16T0:27:45Z</time></trkpt>
<trkpt lat="46.2046661376953125" lon="7.8260784149169922"><ele></ele><time>2014-10-16T0:27:48Z</time></trkpt>
<trkpt lat="46.2046470642089844" lon="7.8260669708251953"><ele></ele><time>2014-10-16T0:27:51Z</time></trkpt>
<trkpt lat="46.2046203613281250" lon="7.8260545730590820"><ele></ele><time>2014-10-16T0:27:54Z</time></trkpt>
<trkpt lat="46.2045707702636719" lon="7.8260145187377930"><ele></ele><time>2014-10-16T0:27:57Z</time></trkpt>
<trkpt lat="46.2045402526855469" lon="7.8260030746459961"><ele></ele><time>2014-10-16T0:28:0Z</time></trkpt>
<trkpt lat="46.2045249938964844" lon="7.8260259628295898"><ele></ele><time>2014-10-16T0:28:3Z</time></trkpt>
<trkpt lat="46.2045516967773438" lon="7.8260617256164551"><ele></ele><time>2014-10-16T0:28:6Z</time></trkpt>
<trkpt lat="46.2045783996582031" lon="7.8260750770568848"><ele></ele><time>2014-10-16T0:28:9Z</time></trkpt>
<trkpt lat="46.2046051025390625" lon="7.8261065483093262"><ele></ele><time>2014-10-16T0:28:12Z</time></trkpt>
<trkpt lat="46.2045898437500000" lon="7.8261327743530273"><ele></ele><time>2014-10-16T0:28:15Z</time></trkpt>
<trkpt lat="46.2045249938964844" lon="7.8261213302612305"><ele></ele><time>2014-10-16T0:28:18Z</time></trkpt>
<trkpt lat="46.2044792175292969" lon="7.8260793685913086"><ele></ele><time>2014-10-16T0:28:21Z</time></trkpt>
<trkpt lat="46.2044563293457031" lon="7.8260555267333984"><ele></ele><time>2014-10-16T0:28:24Z</time></trkpt>
<trkpt lat="46.2044181823730469" lon="7.8260741233825684"><ele></ele><time>2014-10-16T0:28:27Z</time></trkpt>
<trkpt lat="46.2044258117675781" lon="7.8261032104492188"><ele></ele><time>2014-10-16T0:28:30Z</time></trkpt>
<trkpt lat="46.2044486999511719" lon="7.8261103630065918"><ele></ele><time>2014-10-16T0:28:33Z</time></trkpt>
<trkpt lat="46.2044601440429688" lon="7.8261318206787109"><ele></ele><time>2014-10-16T0:28:36Z</time></trkpt>
<trkpt lat="46.2044715881347656" lon="7.8261580467224121"><ele></ele><time>2014-10-16T0:28:39Z</time></trkpt>
<trkpt lat="46.2044754028320312" lon="7.8261775970458984"><ele></ele><time>2014-10-16T0:28:42Z</time></trkpt>
<trkpt lat="46.2044754028320312" lon="7.8262038230895996"><ele></ele><time>2014-10-16T0:28:45Z</time></trkpt>
<trkpt lat="46.2044868469238281" lon="7.8262414932250977"><ele></ele><time>2014-10-16T0:28:48Z</time></trkpt>
<trkpt lat="46.2045135498046875" lon="7.8262705802917480"><ele></ele><time>2014-10-16T0:28:51Z</time></trkpt>
<trkpt lat="46.2045440673828125" lon="7.8262906074523926"><ele></ele><time>2014-10-16T0:28:54Z</time></trkpt>
<trkpt lat="46.2045745849609375" lon="7.8262925148010254"><ele></ele><time>2014-10-16T0:28:57Z</time></trkpt>
<trkpt lat="46.2046127319335938" lon="7.8262810707092285"><ele></ele><time>2014-10-16T0:29:0Z</time></trkpt>
<trkpt lat="46.2046470642089844" lon="7.8262705802917480"><ele></ele><time>2014-10-16T0:29:3Z</time></trkpt>
<trkpt lat="46.2046737670898438" lon="7.8262863159179688"><ele></ele><time>2014-10-16T0:29:6Z</time></trkpt>
<trkpt lat="46.2046852111816406" lon="7.8263196945190430"><ele></ele><time>2014-10-16T0:29:9Z</time></trkpt>
<trkpt lat="46.2047042846679688" lon="7.8263931274414062"><ele></ele><time>2014-10-16T0:29:12Z</time></trkpt>
<trkpt lat="46.2047080993652344" lon="7.8264541625976562"><ele></ele><time>2014-10-16T0:29:15Z</time></trkpt>
<trkpt lat="46.2047004699707031" lon="7.8265137672424316"><ele></ele><time>2014-10-16T0:29:18Z</time></trkpt>
<trkpt lat="46.2046813964843750" lon="7.8265943527221680"><ele></ele><time>2014-10-16T0:29:21Z</time></trkpt>
<trkpt lat="46.2046661376953125" lon="7.8266363143920898"><ele></ele><time>2014-10-16T0:29:24Z</time></trkpt>
<trkpt lat="46.2046470642089844" lon="7.8266930580139160"><ele></ele><time>2014-10-16T0:29:27Z</time></trkpt>
<trkpt lat="46.2046546936035156" lon="7.8267235755920410"><ele></ele><time>2014-10-16T0:29:30Z</time></trkpt>
<trkpt lat="46.2046585083007812" lon="7.8268079757690430"><ele></ele><time>2014-10-16T0:29:33Z</time></trkpt>
<trkpt lat="46.2046432495117188" lon="7.8269104957580566"><ele></ele><time>2014-10-16T0:29:36Z</time></trkpt>
<trkpt lat="46.2046623229980469" lon="7.8269658088684082"><ele></ele><time>2014-10-16T0:29:39Z</time></trkpt>
<trkpt lat="46.2046928405761719" lon="7.8270158767700195"><ele></ele><time>2014-10-16T0:29:42Z</time></trkpt>
<trkpt lat="46.2047080993652344" lon="7.8270421028137207"><ele></ele><time>2014-10-16T0:29:45Z</time></trkpt>
<trkpt lat="46.2047195434570312" lon="7.8270726203918457"><ele></ele><time>2014-10-16T0:29:48Z</time></trkpt>
<trkpt lat="46.2047119140625000" lon="7.8270907402038574"><ele></ele><time>2014-10-16T0:29:51Z</time></trkpt>
<trkpt lat="46.2047004699707031" lon="7.8270835876464844"><ele></ele><time>2014-10-16T0:29:54Z</time></trkpt>
<trkpt lat="46.2046928405761719" lon="7.8270759582519531"><ele></ele><time>2014-10-16T0:29:57Z</time></trkpt>
<trkpt lat="46.2046852111816406" lon="7.8270640373229980"><ele></ele><time>2014-10-16T0:30:0Z</time></trkpt>
<trkpt lat="46.2046737670898438" lon="7.8270478248596191"><ele></ele><time>2014-10-16T0:30:3Z</time></trkpt>
<trkpt lat="46.2046585083007812" lon="7.8270134925842285"><ele></ele><time>2014-10-16T0:30:6Z</time></trkpt>
<trkpt lat="46.2046470642089844" lon="7.8269848823547363"><ele></ele><time>2014-10-16T0:30:9Z</time></trkpt>
<trkpt lat="46.2046394348144531" lon="7.8269596099853516"><ele></ele><time>2014-10-16T0:30:12Z</time></trkpt>
<trkpt lat="46.2046127319335938" lon="7.8269453048706055"><ele></ele><time>2014-10-16T0:30:15Z</time></trkpt>
<trkpt lat="46.2045860290527344" lon="7.8269147872924805"><ele></ele><time>2014-10-16T0:30:18Z</time></trkpt>
<trkpt lat="46.2045669555664062" lon="7.8268761634826660"><ele></ele><time>2014-10-16T0:30:21Z</time></trkpt>
<trkpt lat="46.2045326232910156" lon="7.8268618583679199"><ele></ele><time>2014-10-16T0:30:24Z</time></trkpt>
<trkpt lat="46.2045135498046875" lon="7.8268527984619141"><ele></ele><time>2014-10-16T0:30:27Z</time></trkpt>
<trkpt lat="46.2044754028320312" lon="7.8268256187438965"><ele></ele><time>2014-10-16T0:30:30Z</time></trkpt>
<trkpt lat="46.2044258117675781" lon="7.8267846107482910"><ele></ele><time>2014-10-16T0:30:33Z</time></trkpt>
<trkpt lat="46.2043304443359375" lon="7.8267621994018555"><ele></ele><time>2014-10-16T0:30:36Z</time></trkpt>
<trkpt lat="46.2042694091796875" lon="7.8267517089843750"><ele></ele><time>2014-10-16T0:30:39Z</time></trkpt>
<trkpt lat="46.2042198181152344" lon="7.8267340660095215"><ele></ele><time>2014-10-16T0:30:42Z</time></trkpt>
<trkpt lat="46.2041931152343750" lon="7.8267192840576172"><ele></ele><time>2014-10-16T0:30:45Z</time></trkpt>
<trkpt lat="46.2041587829589844" lon="7.8266987800598145"><ele></ele><time>2014-10-16T0:30:48Z</time></trkpt>
<trkpt lat="46.2040901184082031" lon="7.8267221450805664"><ele></ele><time>2014-10-16T0:30:51Z</time></trkpt>
<trkpt lat="46.2040176391601562" lon="7.8267612457275391"><ele></ele><time>2014-10-16T0:30:54Z</time></trkpt>
<trkpt lat="46.2039718627929688" lon="7.8267917633056641"><ele></ele><time>2014-10-16T0:30:57Z</time></trkpt>
<trkpt lat="46.2038879394531250" lon="7.8268165588378906"><ele></ele><time>2014-10-16T0:31:0Z</time></trkpt>
<trkpt lat="46.2038116455078125" lon="7.8268113136291504"><ele></ele><time>2014-10-16T0:31:3Z</time></trkpt>
<trkpt lat="46.2037467956542969" lon="7.8267612457275391"><ele></ele><time>2014-10-16T0:31:6Z</time></trkpt>
<trkpt lat="46.2036933898925781" lon="7.8266401290893555"><ele></ele><time>2014-10-16T0:31:9Z</time></trkpt>
<trkpt lat="46.2036705017089844" lon="7.8265552520751953"><ele></ele><time>2014-10-16T0:31:12Z</time></trkpt>
<trkpt lat="46.2036285400390625" lon="7.8264989852905273"><ele></ele><time>2014-10-16T0:31:15Z</time></trkpt>
<trkpt lat="46.2035675048828125" lon="7.8264369964599609"><ele></ele><time>2014-10-16T0:31:18Z</time></trkpt>
<trkpt lat="46.2035026550292969" lon="7.8263640403747559"><ele></ele><time>2014-10-16T0:31:21Z</time></trkpt>
<trkpt lat="46.2034339904785156" lon="7.8262300491333008"><ele></ele><time>2014-10-16T0:31:24Z</time></trkpt>
<trkpt lat="46.2033882141113281" lon="7.8261332511901855"><ele></ele><time>2014-10-16T0:31:27Z</time></trkpt>
<trkpt lat="46.2033004760742188" lon="7.8259911537170410"><ele></ele><time>2014-10-16T0:31:30Z</time></trkpt>
<trkpt lat="46.2032546997070312" lon="7.8258652687072754"><ele></ele><time>2014-10-16T0:31:33Z</time></trkpt>
<trkpt lat="46.2031784057617188" lon="7.8256902694702148"><ele></ele><time>2014-10-16T0:31:36Z</time></trkpt>
<trkpt lat="46.2031021118164062" lon="7.8255419731140137"><ele></ele><time>2014-10-16T0:31:39Z</time></trkpt>
<trkpt lat="46.2030525207519531" lon="7.8254480361938477"><ele></ele><time>2014-10-16T0:31:42Z</time></trkpt>
<trkpt lat="46.2030067443847656" lon="7.8253607749938965"><ele></ele><time>2014-10-16T0:31:45Z</time></trkpt>
<trkpt lat="46.2029685974121094" lon="7.8253040313720703"><ele></ele><time>2014-10-16T0:31:48Z</time></trkpt>
<trkpt lat="46.2029342651367188" lon="7.8252730369567871"><ele></ele><time>2014-10-16T0:31:51Z</time></trkpt>
<trkpt lat="46.2028999328613281" lon="7.8252453804016113"><ele></ele><time>2014-10-16T0:31:54Z</time></trkpt>
<trkpt lat="46.2028541564941406" lon="7.8252010345458984"><ele></ele><time>2014-10-16T0:31:57Z</time></trkpt>
<trkpt lat="46.2028121948242188" lon="7.8251581192016602"><ele></ele><time>2014-10-16T0:32:0Z</time></trkpt>
<trkpt lat="46.2027854919433594" lon="7.8251194953918457"><ele></ele><time>2014-10-16T0:32:3Z</time></trkpt>
<trkpt lat="46.2027664184570312" lon="7.8250355720520020"><ele></ele><time>2014-10-16T0:32:6Z</time></trkpt>
<trkpt lat="46.2027587890625000" lon="7.8249826431274414"><ele></ele><time>2014-10-16T0:32:9Z</time></trkpt>
<trkpt lat="46.2027473449707031" lon="7.8249373435974121"><ele></ele><time>2014-10-16T0:32:12Z</time></trkpt>
<trkpt lat="46.2027320861816406" lon="7.8249301910400391"><ele></ele><time>2014-10-16T0:32:15Z</time></trkpt>
<trkpt lat="46.2027168273925781" lon="7.8249983787536621"><ele></ele><time>2014-10-16T0:32:18Z</time></trkpt>
<trkpt lat="46.2027091979980469" lon="7.8250517845153809"><ele></ele><time>2014-10-16T0:32:21Z</time></trkpt>
<trkpt lat="46.2027053833007812" lon="7.8250937461853027"><ele></ele><time>2014-10-16T0:32:24Z</time></trkpt>
<trkpt lat="46.2026748657226562" lon="7.8251204490661621"><ele></ele><time>2014-10-16T0:32:27Z</time></trkpt>
<trkpt lat="46.2026596069335938" lon="7.8250856399536133"><ele></ele><time>2014-10-16T0:32:30Z</time></trkpt>
<trkpt lat="46.2026329040527344" lon="7.8250093460083008"><ele></ele><time>2014-10-16T0:32:33Z</time></trkpt>
<trkpt lat="46.2025985717773438" lon="7.8249521255493164"><ele></ele><time>2014-10-16T0:32:36Z</time></trkpt>
<trkpt lat="46.2025718688964844" lon="7.8249349594116211"><ele></ele><time>2014-10-16T0:32:39Z</time></trkpt>
<trkpt lat="46.2025260925292969" lon="7.8249239921569824"><ele></ele><time>2014-10-16T0:32:42Z</time></trkpt>
<trkpt lat="46.2024879455566406" lon="7.8249197006225586"><ele></ele><time>2014-10-16T0:32:45Z</time></trkpt>
<trkpt lat="46.2024383544921875" lon="7.8249011039733887"><ele></ele><time>2014-10-16T0:32:48Z</time></trkpt>
<trkpt lat="46.2023658752441406" lon="7.8248157501220703"><ele></ele><time>2014-10-16T0:32:51Z</time></trkpt>
<trkpt lat="46.2023239135742188" lon="7.8247241973876953"><ele></ele><time>2014-10-16T0:32:54Z</time></trkpt>
<trkpt lat="46.2022552490234375" lon="7.8245558738708496"><ele></ele><time>2014-10-16T0:32:57Z</time></trkpt>
<trkpt lat="46.2022209167480469" lon="7.8244485855102539"><ele></ele><time>2014-10-16T0:33:0Z</time></trkpt>
<trkpt lat="46.2021980285644531" lon="7.8243713378906250"><ele></ele><time>2014-10-16T0:33:3Z</time></trkpt>
<trkpt lat="46.2021636962890625" lon="7.8242654800415039"><ele></ele><time>2014-10-16T0:33:6Z</time></trkpt>
<trkpt lat="46.2021179199218750" lon="7.8241839408874512"><ele></ele><time>2014-10-16T0:33:9Z</time></trkpt>
<trkpt lat="46.2020759582519531" lon="7.8241777420043945"><ele></ele><time>2014-10-16T0:33:12Z</time></trkpt>
<trkpt lat="46.2020416259765625" lon="7.8241329193115234"><ele></ele><time>2014-10-16T0:33:15Z</time></trkpt>
<trkpt lat="46.2020339965820312" lon="7.8240585327148438"><ele></ele><time>2014-10-16T0:33:18Z</time></trkpt>
<trkpt lat="46.2019653320312500" lon="7.8240203857421875"><ele></ele><time>2014-10-16T0:33:21Z</time></trkpt>
<trkpt lat="46.2019119262695312" lon="7.8240332603454590"><ele></ele><time>2014-10-16T0:33:24Z</time></trkpt>
<trkpt lat="46.2018547058105469" lon="7.8240013122558594"><ele></ele><time>2014-10-16T0:33:27Z</time></trkpt>
<trkpt lat="46.2018508911132812" lon="7.8238673210144043"><ele></ele><time>2014-10-16T0:33:30Z</time></trkpt>
<trkpt lat="46.2018661499023438" lon="7.8237729072570801"><ele></ele><time>2014-10-16T0:33:33Z</time></trkpt>
<trkpt lat="46.2018852233886719" lon="7.8236751556396484"><ele></ele><time>2014-10-16T0:33:36Z</time></trkpt>
<trkpt lat="46.2018966674804688" lon="7.8235721588134766"><ele></ele><time>2014-10-16T0:33:39Z</time></trkpt>
<trkpt lat="46.2018852233886719" lon="7.8234543800354004"><ele></ele><time>2014-10-16T0:33:42Z</time></trkpt>
<trkpt lat="46.2018394470214844" lon="7.8233633041381836"><ele></ele><time>2014-10-16T0:33:45Z</time></trkpt>
<trkpt lat="46.2018051147460938" lon="7.8233428001403809"><ele></ele><time>2014-10-16T0:33:48Z</time></trkpt>
<trkpt lat="46.2017517089843750" lon="7.8233175277709961"><ele></ele><time>2014-10-16T0:33:51Z</time></trkpt>
<trkpt lat="46.2016716003417969" lon="7.8232898712158203"><ele></ele><time>2014-10-16T0:33:54Z</time></trkpt>
<trkpt lat="46.2016220092773438" lon="7.8232541084289551"><ele></ele><time>2014-10-16T0:33:57Z</time></trkpt>
<trkpt lat="46.2015304565429688" lon="7.8232183456420898"><ele></ele><time>2014-10-16T0:34:0Z</time></trkpt>
<trkpt lat="46.2014389038085938" lon="7.8231639862060547"><ele></ele><time>2014-10-16T0:34:3Z</time></trkpt>
<trkpt lat="46.2013702392578125" lon="7.8230423927307129"><ele></ele><time>2014-10-16T0:34:6Z</time></trkpt>
<trkpt lat="46.2013397216796875" lon="7.8229422569274902"><ele></ele><time>2014-10-16T0:34:9Z</time></trkpt>
<trkpt lat="46.2013053894042969" lon="7.8228549957275391"><ele></ele><time>2014-10-16T0:34:12Z</time></trkpt>
<trkpt lat="46.2012481689453125" lon="7.8227396011352539"><ele></ele><time>2014-10-16T0:34:15Z</time></trkpt>
<trkpt lat="46.2011871337890625" lon="7.8226485252380371"><ele></ele><time>2014-10-16T0:34:18Z</time></trkpt>
<trkpt lat="46.2011489868164062" lon="7.8225865364074707"><ele></ele><time>2014-10-16T0:34:21Z</time></trkpt>
<trkpt lat="46.2011528015136719" lon="7.8225140571594238"><ele></ele><time>2014-10-16T0:34:24Z</time></trkpt>
<trkpt lat="46.2011337280273438" lon="7.8224658966064453"><ele></ele><time>2014-10-16T0:34:27Z</time></trkpt>
<trkpt lat="46.2010993957519531" lon="7.8224186897277832"><ele></ele><time>2014-10-16T0:34:30Z</time></trkpt>
<trkpt lat="46.2010650634765625" lon="7.8223557472229004"><ele></ele><time>2014-10-16T0:34:33Z</time></trkpt>
<trkpt lat="46.2010269165039062" lon="7.8222737312316895"><ele></ele><time>2014-10-16T0:34:36Z</time></trkpt>
<trkpt lat="46.2009849548339844" lon="7.8221950531005859"><ele></ele><time>2014-10-16T0:34:39Z</time></trkpt>
<trkpt lat="46.2009506225585938" lon="7.8221540451049805"><ele></ele><time>2014-10-16T0:34:42Z</time></trkpt>
<trkpt lat="46.2008972167968750" lon="7.8221025466918945"><ele></ele><time>2014-10-16T0:34:45Z</time></trkpt>
<trkpt lat="46.2007980346679688" lon="7.8219690322875977"><ele></ele><time>2014-10-16T0:34:48Z</time></trkpt>
<trkpt lat="46.2007522583007812" lon="7.8218436241149902"><ele></ele><time>2014-10-16T0:34:51Z</time></trkpt>
<trkpt lat="46.2006759643554688" lon="7.8216276168823242"><ele></ele><time>2014-10-16T0:34:54Z</time></trkpt>
<trkpt lat="46.2005996704101562" lon="7.8215088844299316"><ele></ele><time>2014-10-16T0:34:57Z</time></trkpt>
<trkpt lat="46.2005271911621094" lon="7.8214225769042969"><ele></ele><time>2014-10-16T0:35:0Z</time></trkpt>
<trkpt lat="46.2004814147949219" lon="7.8213310241699219"><ele></ele><time>2014-10-16T0:35:3Z</time></trkpt>
<trkpt lat="46.2004661560058594" lon="7.8212056159973145"><ele></ele><time>2014-10-16T0:35:6Z</time></trkpt>
<trkpt lat="46.2004623413085938" lon="7.8210721015930176"><ele></ele><time>2014-10-16T0:35:9Z</time></trkpt>
<trkpt lat="46.2004318237304688" lon="7.8209800720214844"><ele></ele><time>2014-10-16T0:35:12Z</time></trkpt>
<trkpt lat="46.2003746032714844" lon="7.8209319114685059"><ele></ele><time>2014-10-16T0:35:15Z</time></trkpt>
<trkpt lat="46.2003211975097656" lon="7.8208885192871094"><ele></ele><time>2014-10-16T0:35:18Z</time></trkpt>
<trkpt lat="46.2002792358398438" lon="7.8208289146423340"><ele></ele><time>2014-10-16T0:35:21Z</time></trkpt>
<trkpt lat="46.2002410888671875" lon="7.8208007812500000"><ele></ele><time>2014-10-16T0:35:24Z</time></trkpt>
<trkpt lat="46.2001953125000000" lon="7.8207840919494629"><ele></ele><time>2014-10-16T0:35:27Z</time></trkpt>
<trkpt lat="46.2001724243164062" lon="7.8207540512084961"><ele></ele><time>2014-10-16T0:35:30Z</time></trkpt>
<trkpt lat="46.2001266479492188" lon="7.8207159042358398"><ele></ele><time>2014-10-16T0:35:33Z</time></trkpt>
<trkpt lat="46.2001037597656250" lon="7.8206963539123535"><ele></ele><time>2014-10-16T0:35:36Z</time></trkpt>
<trkpt lat="46.2000770568847656" lon="7.8206772804260254"><ele></ele><time>2014-10-16T0:35:39Z</time></trkpt>
<trkpt lat="46.2000732421875000" lon="7.8206214904785156"><ele></ele><time>2014-10-16T0:35:42Z</time></trkpt>
<trkpt lat="46.2000770568847656" lon="7.8205370903015137"><ele></ele><time>2014-10-16T0:35:45Z</time></trkpt>
<trkpt lat="46.2000427246093750" lon="7.8204860687255859"><ele></ele><time>2014-10-16T0:35:48Z</time></trkpt>
<trkpt lat="46.2000122070312500" lon="7.8204751014709473"><ele></ele><time>2014-10-16T0:35:51Z</time></trkpt>
<trkpt lat="46.1999816894531250" lon="7.8204789161682129"><ele></ele><time>2014-10-16T0:35:54Z</time></trkpt>
<trkpt lat="46.1999359130859375" lon="7.8204665184020996"><ele></ele><time>2014-10-16T0:35:57Z</time></trkpt>
<trkpt lat="46.1999168395996094" lon="7.8204421997070312"><ele></ele><time>2014-10-16T0:36:0Z</time></trkpt>
<trkpt lat="46.1998710632324219" lon="7.8204193115234375"><ele></ele><time>2014-10-16T0:36:3Z</time></trkpt>
<trkpt lat="46.1998329162597656" lon="7.8204140663146973"><ele></ele><time>2014-10-16T0:36:6Z</time></trkpt>
<trkpt lat="46.1997947692871094" lon="7.8204054832458496"><ele></ele><time>2014-10-16T0:36:9Z</time></trkpt>
<trkpt lat="46.1997413635253906" lon="7.8203673362731934"><ele></ele><time>2014-10-16T0:36:12Z</time></trkpt>
<trkpt lat="46.1997032165527344" lon="7.8203487396240234"><ele></ele><time>2014-10-16T0:36:15Z</time></trkpt>
<trkpt lat="46.1996421813964844" lon="7.8203406333923340"><ele></ele><time>2014-10-16T0:36:18Z</time></trkpt>
<trkpt lat="46.1996116638183594" lon="7.8203082084655762"><ele></ele><time>2014-10-16T0:36:21Z</time></trkpt>
<trkpt lat="46.1995735168457031" lon="7.8202466964721680"><ele></ele><time>2014-10-16T0:36:24Z</time></trkpt>
<trkpt lat="46.1995315551757812" lon="7.8201766014099121"><ele></ele><time>2014-10-16T0:36:27Z</time></trkpt>
<trkpt lat="46.1995048522949219" lon="7.8201327323913574"><ele></ele><time>2014-10-16T0:36:30Z</time></trkpt>
<trkpt lat="46.1994667053222656" lon="7.8201074600219727"><ele></ele><time>2014-10-16T0:36:33Z</time></trkpt>
<trkpt lat="46.1994171142578125" lon="7.8200917243957520"><ele></ele><time>2014-10-16T0:36:36Z</time></trkpt>
<trkpt lat="46.1993865966796875" lon="7.8200716972351074"><ele></ele><time>2014-10-16T0:36:39Z</time></trkpt>
<trkpt lat="46.1993560791015625" lon="7.8200173377990723"><ele></ele><time>2014-10-16T0:36:42Z</time></trkpt>
<trkpt lat="46.1993331909179688" lon="7.8199753761291504"><ele></ele><time>2014-10-16T0:36:45Z</time></trkpt>
<trkpt lat="46.1993103027343750" lon="7.8199591636657715"><ele></ele><time>2014-10-16T0:36:48Z</time></trkpt>
<trkpt lat="46.1992797851562500" lon="7.8199129104614258"><ele></ele><time>2014-10-16T0:36:51Z</time></trkpt>
<trkpt lat="46.1992492675781250" lon="7.8198943138122559"><ele></ele><time>2014-10-16T0:36:54Z</time></trkpt>
<trkpt lat="46.1991806030273438" lon="7.8198394775390625"><ele></ele><time>2014-10-16T0:36:57Z</time></trkpt>
<trkpt lat="46.1991271972656250" lon="7.8197412490844727"><ele></ele><time>2014-10-16T0:37:0Z</time></trkpt>
<trkpt lat="46.1990928649902344" lon="7.8197016716003418"><ele></ele><time>2014-10-16T0:37:3Z</time></trkpt>
<trkpt lat="46.1990547180175781" lon="7.8196496963500977"><ele></ele><time>2014-10-16T0:37:6Z</time></trkpt>
<trkpt lat="46.1990280151367188" lon="7.8195948600769043"><ele></ele><time>2014-10-16T0:37:9Z</time></trkpt>
<trkpt lat="46.1990280151367188" lon="7.8194942474365234"><ele></ele><time>2014-10-16T0:37:12Z</time></trkpt>
<trkpt lat="46.1990203857421875" lon="7.8193907737731934"><ele></ele><time>2014-10-16T0:37:15Z</time></trkpt>
<trkpt lat="46.1989974975585938" lon="7.8193507194519043"><ele></ele><time>2014-10-16T0:37:18Z</time></trkpt>
<trkpt lat="46.1989669799804688" lon="7.8192887306213379"><ele></ele><time>2014-10-16T0:37:21Z</time></trkpt>
<trkpt lat="46.1989517211914062" lon="7.8192682266235352"><ele></ele><time>2014-10-16T0:37:24Z</time></trkpt>
<trkpt lat="46.1989250183105469" lon="7.8192501068115234"><ele></ele><time>2014-10-16T0:37:27Z</time></trkpt>
<trkpt lat="46.1988525390625000" lon="7.8192005157470703"><ele></ele><time>2014-10-16T0:37:30Z</time></trkpt>
<trkpt lat="46.1987648010253906" lon="7.8191928863525391"><ele></ele><time>2014-10-16T0:37:33Z</time></trkpt>
<trkpt lat="46.1987228393554688" lon="7.8192019462585449"><ele></ele><time>2014-10-16T0:37:36Z</time></trkpt>
<trkpt lat="46.1986732482910156" lon="7.8192162513732910"><ele></ele><time>2014-10-16T0:37:39Z</time></trkpt>
<trkpt lat="46.1986274719238281" lon="7.8192129135131836"><ele></ele><time>2014-10-16T0:37:42Z</time></trkpt>
<trkpt lat="46.1985855102539062" lon="7.8192143440246582"><ele></ele><time>2014-10-16T0:37:45Z</time></trkpt>
<trkpt lat="46.1984863281250000" lon="7.8191781044006348"><ele></ele><time>2014-10-16T0:37:48Z</time></trkpt>
<trkpt lat="46.1984291076660156" lon="7.8191571235656738"><ele></ele><time>2014-10-16T0:37:51Z</time></trkpt>
<trkpt lat="46.1983566284179688" lon="7.8191361427307129"><ele></ele><time>2014-10-16T0:37:54Z</time></trkpt>
<trkpt lat="46.1982841491699219" lon="7.8191089630126953"><ele></ele><time>2014-10-16T0:37:57Z</time></trkpt>
<trkpt lat="46.1982574462890625" lon="7.8190822601318359"><ele></ele><time>2014-10-16T0:38:0Z</time></trkpt>
<trkpt lat="46.1982421875000000" lon="7.8190402984619141"><ele></ele><time>2014-10-16T0:38:3Z</time></trkpt>
<trkpt lat="46.1982116699218750" lon="7.8189396858215332"><ele></ele><time>2014-10-16T0:38:6Z</time></trkpt>
<trkpt lat="46.1981887817382812" lon="7.8188600540161133"><ele></ele><time>2014-10-16T0:38:9Z</time></trkpt>
<trkpt lat="46.1981582641601562" lon="7.8187737464904785"><ele></ele><time>2014-10-16T0:38:12Z</time></trkpt>
<trkpt lat="46.1981544494628906" lon="7.8187160491943359"><ele></ele><time>2014-10-16T0:38:15Z</time></trkpt>
<trkpt lat="46.1981544494628906" lon="7.8186678886413574"><ele></ele><time>2014-10-16T0:38:18Z</time></trkpt>
<trkpt lat="46.1981811523437500" lon="7.8186793327331543"><ele></ele><time>2014-10-16T0:38:21Z</time></trkpt>
<trkpt lat="46.1981887817382812" lon="7.8187074661254883"><ele></ele><time>2014-10-16T0:38:24Z</time></trkpt>
<trkpt lat="46.1981925964355469" lon="7.8187360763549805"><ele></ele><time>2014-10-16T0:38:27Z</time></trkpt>
<trkpt lat="46.1981849670410156" lon="7.8187642097473145"><ele></ele><time>2014-10-16T0:38:30Z</time></trkpt>
<trkpt lat="46.1981582641601562" lon="7.8187394142150879"><ele></ele><time>2014-10-16T0:38:33Z</time></trkpt>
<trkpt lat="46.1980705261230469" lon="7.8186321258544922"><ele></ele><time>2014-10-16T0:38:36Z</time></trkpt>
<trkpt lat="46.1980361938476562" lon="7.8185439109802246"><ele></ele><time>2014-10-16T0:38:39Z</time></trkpt>
<trkpt lat="46.1980171203613281" lon="7.8184404373168945"><ele></ele><time>2014-10-16T0:38:42Z</time></trkpt>
<trkpt lat="46.1980018615722656" lon="7.8184037208557129"><ele></ele><time>2014-10-16T0:38:45Z</time></trkpt>
<trkpt lat="46.1979866027832031" lon="7.8183736801147461"><ele></ele><time>2014-10-16T0:38:48Z</time></trkpt>
<trkpt lat="46.1979637145996094" lon="7.8183317184448242"><ele></ele><time>2014-10-16T0:38:51Z</time></trkpt>
<trkpt lat="46.1979370117187500" lon="7.8183140754699707"><ele></ele><time>2014-10-16T0:38:54Z</time></trkpt>
<trkpt lat="46.1979026794433594" lon="7.8182954788208008"><ele></ele><time>2014-10-16T0:38:57Z</time></trkpt>
<trkpt lat="46.1978530883789062" lon="7.8182663917541504"><ele></ele><time>2014-10-16T0:39:0Z</time></trkpt>
<trkpt lat="46.1978187561035156" lon="7.8182411193847656"><ele></ele><time>2014-10-16T0:39:3Z</time></trkpt>
<trkpt lat="46.1977882385253906" lon="7.8181877136230469"><ele></ele><time>2014-10-16T0:39:6Z</time></trkpt>
<trkpt lat="46.1977653503417969" lon="7.8181424140930176"><ele></ele><time>2014-10-16T0:39:9Z</time></trkpt>
<trkpt lat="46.1977500915527344" lon="7.8181023597717285"><ele></ele><time>2014-10-16T0:39:12Z</time></trkpt>
<trkpt lat="46.1977348327636719" lon="7.8180346488952637"><ele></ele><time>2014-10-16T0:39:15Z</time></trkpt>
<trkpt lat="46.1977233886718750" lon="7.8179845809936523"><ele></ele><time>2014-10-16T0:39:18Z</time></trkpt>
<trkpt lat="46.1976852416992188" lon="7.8179216384887695"><ele></ele><time>2014-10-16T0:39:21Z</time></trkpt>
<trkpt lat="46.1976432800292969" lon="7.8178791999816895"><ele></ele><time>2014-10-16T0:39:24Z</time></trkpt>
<trkpt lat="46.1976051330566406" lon="7.8178324699401855"><ele></ele><time>2014-10-16T0:39:27Z</time></trkpt>
<trkpt lat="46.1975822448730469" lon="7.8177738189697266"><ele></ele><time>2014-10-16T0:39:30Z</time></trkpt>
<trkpt lat="46.1975479125976562" lon="7.8177142143249512"><ele></ele><time>2014-10-16T0:39:33Z</time></trkpt>
<trkpt lat="46.1975021362304688" lon="7.8176684379577637"><ele></ele><time>2014-10-16T0:39:36Z</time></trkpt>
<trkpt lat="46.1974678039550781" lon="7.8176255226135254"><ele></ele><time>2014-10-16T0:39:39Z</time></trkpt>
<trkpt lat="46.1974105834960938" lon="7.8175683021545410"><ele></ele><time>2014-10-16T0:39:42Z</time></trkpt>
<trkpt lat="46.1973648071289062" lon="7.8175344467163086"><ele></ele><time>2014-10-16T0:39:45Z</time></trkpt>
<trkpt lat="46.1972503662109375" lon="7.8174133300781250"><ele></ele><time>2014-10-16T0:39:48Z</time></trkpt>
<trkpt lat="46.1970520019531250" lon="7.8173241615295410"><ele></ele><time>2014-10-16T0:39:51Z</time></trkpt>
<trkpt lat="46.1968917846679688" lon="7.8172535896301270"><ele></ele><time>2014-10-16T0:39:54Z</time></trkpt>
<trkpt lat="46.1967239379882812" lon="7.8171858787536621"><ele></ele><time>2014-10-16T0:39:57Z</time></trkpt>
<trkpt lat="46.1966133117675781" lon="7.8171458244323730"><ele></ele><time>2014-10-16T0:40:0Z</time></trkpt>
<trkpt lat="46.1965637207031250" lon="7.8171100616455078"><ele></ele><time>2014-10-16T0:40:3Z</time></trkpt>
<trkpt lat="46.1965103149414062" lon="7.8170819282531738"><ele></ele><time>2014-10-16T0:40:6Z</time></trkpt>
<trkpt lat="46.1964607238769531" lon="7.8170447349548340"><ele></ele><time>2014-10-16T0:40:9Z</time></trkpt>
<trkpt lat="46.1964187622070312" lon="7.8169941902160645"><ele></ele><time>2014-10-16T0:40:12Z</time></trkpt>
<trkpt lat="46.1964035034179688" lon="7.8169579505920410"><ele></ele><time>2014-10-16T0:40:15Z</time></trkpt>
<trkpt lat="46.1963958740234375" lon="7.8169150352478027"><ele></ele><time>2014-10-16T0:40:18Z</time></trkpt>
<trkpt lat="46.1963806152343750" lon="7.8168497085571289"><ele></ele><time>2014-10-16T0:40:21Z</time></trkpt>
<trkpt lat="46.1963500976562500" lon="7.8168182373046875"><ele></ele><time>2014-10-16T0:40:24Z</time></trkpt>
<trkpt lat="46.1963272094726562" lon="7.8167676925659180"><ele></ele><time>2014-10-16T0:40:27Z</time></trkpt>
<trkpt lat="46.1962814331054688" lon="7.8166437149047852"><ele></ele><time>2014-10-16T0:40:30Z</time></trkpt>
<trkpt lat="46.1962318420410156" lon="7.8164582252502441"><ele></ele><time>2014-10-16T0:40:33Z</time></trkpt>
<trkpt lat="46.1961593627929688" lon="7.8163132667541504"><ele></ele><time>2014-10-16T0:40:36Z</time></trkpt>
<trkpt lat="46.1960983276367188" lon="7.8162326812744141"><ele></ele><time>2014-10-16T0:40:39Z</time></trkpt>
<trkpt lat="46.1960258483886719" lon="7.8161525726318359"><ele></ele><time>2014-10-16T0:40:42Z</time></trkpt>
<trkpt lat="46.1958885192871094" lon="7.8160200119018555"><ele></ele><time>2014-10-16T0:40:45Z</time></trkpt>
<trkpt lat="46.1957664489746094" lon="7.8159303665161133"><ele></ele><time>2014-10-16T0:40:48Z</time></trkpt>
<trkpt lat="46.1957130432128906" lon="7.8158998489379883"><ele></ele><time>2014-10-16T0:40:51Z</time></trkpt>
<trkpt lat="46.1956253051757812" lon="7.8158473968505859"><ele></ele><time>2014-10-16T0:40:54Z</time></trkpt>
<trkpt lat="46.1955032348632812" lon="7.8157491683959961"><ele></ele><time>2014-10-16T0:40:57Z</time></trkpt>
<trkpt lat="46.1954345703125000" lon="7.8157005310058594"><ele></ele><time>2014-10-16T0:41:0Z</time></trkpt>
<trkpt lat="46.1954154968261719" lon="7.8156952857971191"><ele></ele><time>2014-10-16T0:41:3Z</time></trkpt>
<trkpt lat="46.1954231262207031" lon="7.8156790733337402"><ele></ele><time>2014-10-16T0:41:6Z</time></trkpt>
<trkpt lat="46.1952896118164062" lon="7.8156151771545410"><ele></ele><time>2014-10-16T0:41:9Z</time></trkpt>
<trkpt lat="46.1952514648437500" lon="7.8156013488769531"><ele></ele><time>2014-10-16T0:41:12Z</time></trkpt>
<trkpt lat="46.1952209472656250" lon="7.8155856132507324"><ele></ele><time>2014-10-16T0:41:15Z</time></trkpt>
<trkpt lat="46.1952056884765625" lon="7.8155798912048340"><ele></ele><time>2014-10-16T0:41:18Z</time></trkpt>
<trkpt lat="46.1951980590820312" lon="7.8155889511108398"><ele></ele><time>2014-10-16T0:41:21Z</time></trkpt>
<trkpt lat="46.1951637268066406" lon="7.8155884742736816"><ele></ele><time>2014-10-16T0:41:24Z</time></trkpt>
<trkpt lat="46.1951255798339844" lon="7.8155636787414551"><ele></ele><time>2014-10-16T0:41:27Z</time></trkpt>
<trkpt lat="46.1950950622558594" lon="7.8155431747436523"><ele></ele><time>2014-10-16T0:41:30Z</time></trkpt>
<trkpt lat="46.1950721740722656" lon="7.8155226707458496"><ele></ele><time>2014-10-16T0:41:33Z</time></trkpt>
<trkpt lat="46.1950302124023438" lon="7.8155064582824707"><ele></ele><time>2014-10-16T0:41:36Z</time></trkpt>
<trkpt lat="46.1950187683105469" lon="7.8155016899108887"><ele></ele><time>2014-10-16T0:41:39Z</time></trkpt>
<trkpt lat="46.1950073242187500" lon="7.8154764175415039"><ele></ele><time>2014-10-16T0:41:42Z</time></trkpt>
<trkpt lat="46.1949882507324219" lon="7.8154554367065430"><ele></ele><time>2014-10-16T0:41:45Z</time></trkpt>
<trkpt lat="46.1949768066406250" lon="7.8154406547546387"><ele></ele><time>2014-10-16T0:41:48Z</time></trkpt>
<trkpt lat="46.1949691772460938" lon="7.8154215812683105"><ele></ele><time>2014-10-16T0:41:51Z</time></trkpt>
<trkpt lat="46.1949462890625000" lon="7.8153767585754395"><ele></ele><time>2014-10-16T0:41:54Z</time></trkpt>
<trkpt lat="46.1949119567871094" lon="7.8153529167175293"><ele></ele><time>2014-10-16T0:41:57Z</time></trkpt>
<trkpt lat="46.1948890686035156" lon="7.8153567314147949"><ele></ele><time>2014-10-16T0:42:0Z</time></trkpt>
<trkpt lat="46.1948661804199219" lon="7.8153605461120605"><ele></ele><time>2014-10-16T0:42:3Z</time></trkpt>
<trkpt lat="46.1948623657226562" lon="7.8153748512268066"><ele></ele><time>2014-10-16T0:42:6Z</time></trkpt>
<trkpt lat="46.1948699951171875" lon="7.8153834342956543"><ele></ele><time>2014-10-16T0:42:9Z</time></trkpt>
<trkpt lat="46.1948661804199219" lon="7.8154058456420898"><ele></ele><time>2014-10-16T0:42:12Z</time></trkpt>
<trkpt lat="46.1948509216308594" lon="7.8154201507568359"><ele></ele><time>2014-10-16T0:42:15Z</time></trkpt>
<trkpt lat="46.1948356628417969" lon="7.8154458999633789"><ele></ele><time>2014-10-16T0:42:18Z</time></trkpt>
<trkpt lat="46.1948165893554688" lon="7.8154582977294922"><ele></ele><time>2014-10-16T0:42:21Z</time></trkpt>
<trkpt lat="46.1947975158691406" lon="7.8154554367065430"><ele></ele><time>2014-10-16T0:42:24Z</time></trkpt>
<trkpt lat="46.1947860717773438" lon="7.8154082298278809"><ele></ele><time>2014-10-16T0:42:27Z</time></trkpt>
<trkpt lat="46.1947898864746094" lon="7.8153743743896484"><ele></ele><time>2014-10-16T0:42:30Z</time></trkpt>
<trkpt lat="46.1947860717773438" lon="7.8153328895568848"><ele></ele><time>2014-10-16T0:42:33Z</time></trkpt>
<trkpt lat="46.1947669982910156" lon="7.8153166770935059"><ele></ele><time>2014-10-16T0:42:36Z</time></trkpt>
<trkpt lat="46.1947441101074219" lon="7.8153114318847656"><ele></ele><time>2014-10-16T0:42:39Z</time></trkpt>
<trkpt lat="46.1947250366210938" lon="7.8153138160705566"><ele></ele><time>2014-10-16T0:42:42Z</time></trkpt>
<trkpt lat="46.1946983337402344" lon="7.8153405189514160"><ele></ele><time>2014-10-16T0:42:45Z</time></trkpt>
<trkpt lat="46.1946754455566406" lon="7.8153519630432129"><ele></ele><time>2014-10-16T0:42:48Z</time></trkpt>
<trkpt lat="46.1946182250976562" lon="7.8153538703918457"><ele></ele><time>2014-10-16T0:42:51Z</time></trkpt>
<trkpt lat="46.1945381164550781" lon="7.8153395652770996"><ele></ele><time>2014-10-16T0:42:54Z</time></trkpt>
<trkpt lat="46.1944274902343750" lon="7.8153390884399414"><ele></ele><time>2014-10-16T0:42:57Z</time></trkpt>
<trkpt lat="46.1943244934082031" lon="7.8153648376464844"><ele></ele><time>2014-10-16T0:43:0Z</time></trkpt>
<trkpt lat="46.1942214965820312" lon="7.8153448104858398"><ele></ele><time>2014-10-16T0:43:3Z</time></trkpt>
<trkpt lat="46.1941261291503906" lon="7.8152933120727539"><ele></ele><time>2014-10-16T0:43:6Z</time></trkpt>
<trkpt lat="46.1940002441406250" lon="7.8152318000793457"><ele></ele><time>2014-10-16T0:43:9Z</time></trkpt>
<trkpt lat="46.1939659118652344" lon="7.8152341842651367"><ele></ele><time>2014-10-16T0:43:12Z</time></trkpt>
<trkpt lat="46.1939353942871094" lon="7.8152232170104980"><ele></ele><time>2014-10-16T0:43:15Z</time></trkpt>
<trkpt lat="46.1938896179199219" lon="7.8151874542236328"><ele></ele><time>2014-10-16T0:43:18Z</time></trkpt>
<trkpt lat="46.1938476562500000" lon="7.8151402473449707"><ele></ele><time>2014-10-16T0:43:21Z</time></trkpt>
<trkpt lat="46.1938362121582031" lon="7.8151049613952637"><ele></ele><time>2014-10-16T0:43:24Z</time></trkpt>
<trkpt lat="46.1938247680664062" lon="7.8150787353515625"><ele></ele><time>2014-10-16T0:43:27Z</time></trkpt>
<trkpt lat="46.1937675476074219" lon="7.8150553703308105"><ele></ele><time>2014-10-16T0:43:30Z</time></trkpt>
<trkpt lat="46.1937217712402344" lon="7.8150424957275391"><ele></ele><time>2014-10-16T0:43:33Z</time></trkpt>
<trkpt lat="46.1936836242675781" lon="7.8149895668029785"><ele></ele><time>2014-10-16T0:43:36Z</time></trkpt>
<trkpt lat="46.1936302185058594" lon="7.8148894309997559"><ele></ele><time>2014-10-16T0:43:39Z</time></trkpt>
<trkpt lat="46.1935920715332031" lon="7.8148097991943359"><ele></ele><time>2014-10-16T0:43:42Z</time></trkpt>
<trkpt lat="46.1934890747070312" lon="7.8146681785583496"><ele></ele><time>2014-10-16T0:43:45Z</time></trkpt>
<trkpt lat="46.1934013366699219" lon="7.8145775794982910"><ele></ele><time>2014-10-16T0:43:48Z</time></trkpt>
<trkpt lat="46.1933479309082031" lon="7.8145465850830078"><ele></ele><time>2014-10-16T0:43:51Z</time></trkpt>
<trkpt lat="46.1933135986328125" lon="7.8145198822021484"><ele></ele><time>2014-10-16T0:43:54Z</time></trkpt>
<trkpt lat="46.1932792663574219" lon="7.8144984245300293"><ele></ele><time>2014-10-16T0:43:57Z</time></trkpt>
<trkpt lat="46.1932487487792969" lon="7.8144578933715820"><ele></ele><time>2014-10-16T0:44:0Z</time></trkpt>
<trkpt lat="46.1931877136230469" lon="7.8144211769104004"><ele></ele><time>2014-10-16T0:44:3Z</time></trkpt>
<trkpt lat="46.1931381225585938" lon="7.8144083023071289"><ele></ele><time>2014-10-16T0:44:6Z</time></trkpt>
<trkpt lat="46.1930961608886719" lon="7.8143820762634277"><ele></ele><time>2014-10-16T0:44:9Z</time></trkpt>
<trkpt lat="46.1930274963378906" lon="7.8143301010131836"><ele></ele><time>2014-10-16T0:44:12Z</time></trkpt>
<trkpt lat="46.1929206848144531" lon="7.8142676353454590"><ele></ele><time>2014-10-16T0:44:15Z</time></trkpt>
<trkpt lat="46.1928482055664062" lon="7.8142409324645996"><ele></ele><time>2014-10-16T0:44:18Z</time></trkpt>
<trkpt lat="46.1927719116210938" lon="7.8142166137695312"><ele></ele><time>2014-10-16T0:44:21Z</time></trkpt>
<trkpt lat="46.1927261352539062" lon="7.8142213821411133"><ele></ele><time>2014-10-16T0:44:24Z</time></trkpt>
<trkpt lat="46.1927070617675781" lon="7.8142266273498535"><ele></ele><time>2014-10-16T0:44:27Z</time></trkpt>
<trkpt lat="46.1926765441894531" lon="7.8142027854919434"><ele></ele><time>2014-10-16T0:44:30Z</time></trkpt>
<trkpt lat="46.1926536560058594" lon="7.8141727447509766"><ele></ele><time>2014-10-16T0:44:33Z</time></trkpt>
<trkpt lat="46.1926116943359375" lon="7.8141322135925293"><ele></ele><time>2014-10-16T0:44:36Z</time></trkpt>
<trkpt lat="46.1925582885742188" lon="7.8140807151794434"><ele></ele><time>2014-10-16T0:44:39Z</time></trkpt>
<trkpt lat="46.1924896240234375" lon="7.8140187263488770"><ele></ele><time>2014-10-16T0:44:42Z</time></trkpt>
<trkpt lat="46.1924781799316406" lon="7.8140063285827637"><ele></ele><time>2014-10-16T0:44:45Z</time></trkpt>
<trkpt lat="46.1924667358398438" lon="7.8139820098876953"><ele></ele><time>2014-10-16T0:44:48Z</time></trkpt>
<trkpt lat="46.1924781799316406" lon="7.8139753341674805"><ele></ele><time>2014-10-16T0:44:51Z</time></trkpt>
<trkpt lat="46.1924667358398438" lon="7.8139786720275879"><ele></ele><time>2014-10-16T0:44:54Z</time></trkpt>
<trkpt lat="46.1924285888671875" lon="7.8139796257019043"><ele></ele><time>2014-10-16T0:44:57Z</time></trkpt>
<trkpt lat="46.1923561096191406" lon="7.8139410018920898"><ele></ele><time>2014-10-16T0:45:0Z</time></trkpt>
<trkpt lat="46.1922798156738281" lon="7.8139019012451172"><ele></ele><time>2014-10-16T0:45:3Z</time></trkpt>
<trkpt lat="46.1922225952148438" lon="7.8138790130615234"><ele></ele><time>2014-10-16T0:45:6Z</time></trkpt>
<trkpt lat="46.1921501159667969" lon="7.8138136863708496"><ele></ele><time>2014-10-16T0:45:9Z</time></trkpt>
<trkpt lat="46.1921043395996094" lon="7.8137645721435547"><ele></ele><time>2014-10-16T0:45:12Z</time></trkpt>
<trkpt lat="46.1920433044433594" lon="7.8136968612670898"><ele></ele><time>2014-10-16T0:45:15Z</time></trkpt>
<trkpt lat="46.1920204162597656" lon="7.8136734962463379"><ele></ele><time>2014-10-16T0:45:18Z</time></trkpt>
<trkpt lat="46.1920242309570312" lon="7.8136568069458008"><ele></ele><time>2014-10-16T0:45:21Z</time></trkpt>
<trkpt lat="46.1920051574707031" lon="7.8136210441589355"><ele></ele><time>2014-10-16T0:45:24Z</time></trkpt>
<trkpt lat="46.1919555664062500" lon="7.8135695457458496"><ele></ele><time>2014-10-16T0:45:27Z</time></trkpt>
<trkpt lat="46.1918716430664062" lon="7.8135242462158203"><ele></ele><time>2014-10-16T0:45:30Z</time></trkpt>
<trkpt lat="46.1918220520019531" lon="7.8134732246398926"><ele></ele><time>2014-10-16T0:45:33Z</time></trkpt>
<trkpt lat="46.1917495727539062" lon="7.8133974075317383"><ele></ele><time>2014-10-16T0:45:36Z</time></trkpt>
<trkpt lat="46.1916999816894531" lon="7.8133430480957031"><ele></ele><time>2014-10-16T0:45:39Z</time></trkpt>
<trkpt lat="46.1916275024414062" lon="7.8132586479187012"><ele></ele><time>2014-10-16T0:45:42Z</time></trkpt>
<trkpt lat="46.1915855407714844" lon="7.8132085800170898"><ele></ele><time>2014-10-16T0:45:45Z</time></trkpt>
<trkpt lat="46.1915206909179688" lon="7.8131556510925293"><ele></ele><time>2014-10-16T0:45:48Z</time></trkpt>
<trkpt lat="46.1914710998535156" lon="7.8130917549133301"><ele></ele><time>2014-10-16T0:45:51Z</time></trkpt>
<trkpt lat="46.1914405822753906" lon="7.8130393028259277"><ele></ele><time>2014-10-16T0:45:54Z</time></trkpt>
<trkpt lat="46.1913871765136719" lon="7.8129677772521973"><ele></ele><time>2014-10-16T0:45:57Z</time></trkpt>
<trkpt lat="46.1913261413574219" lon="7.8129215240478516"><ele></ele><time>2014-10-16T0:46:0Z</time></trkpt>
<trkpt lat="46.1912689208984375" lon="7.8128643035888672"><ele></ele><time>2014-10-16T0:46:3Z</time></trkpt>
<trkpt lat="46.1912193298339844" lon="7.8128328323364258"><ele></ele><time>2014-10-16T0:46:6Z</time></trkpt>
<trkpt lat="46.1911888122558594" lon="7.8128051757812500"><ele></ele><time>2014-10-16T0:46:9Z</time></trkpt>
<trkpt lat="46.1911621093750000" lon="7.8127803802490234"><ele></ele><time>2014-10-16T0:46:12Z</time></trkpt>
<trkpt lat="46.1911087036132812" lon="7.8127217292785645"><ele></ele><time>2014-10-16T0:46:15Z</time></trkpt>
<trkpt lat="46.1910591125488281" lon="7.8126807212829590"><ele></ele><time>2014-10-16T0:46:18Z</time></trkpt>
<trkpt lat="46.1910133361816406" lon="7.8126549720764160"><ele></ele><time>2014-10-16T0:46:21Z</time></trkpt>
<trkpt lat="46.1909675598144531" lon="7.8125948905944824"><ele></ele><time>2014-10-16T0:46:24Z</time></trkpt>
<trkpt lat="46.1909179687500000" lon="7.8124947547912598"><ele></ele><time>2014-10-16T0:46:27Z</time></trkpt>
<trkpt lat="46.1908493041992188" lon="7.8123946189880371"><ele></ele><time>2014-10-16T0:46:30Z</time></trkpt>
<trkpt lat="46.1907768249511719" lon="7.8122987747192383"><ele></ele><time>2014-10-16T0:46:33Z</time></trkpt>
<trkpt lat="46.1906166076660156" lon="7.8121528625488281"><ele></ele><time>2014-10-16T0:46:36Z</time></trkpt>
<trkpt lat="46.1904373168945312" lon="7.8120808601379395"><ele></ele><time>2014-10-16T0:46:39Z</time></trkpt>
<trkpt lat="46.1903266906738281" lon="7.8119554519653320"><ele></ele><time>2014-10-16T0:46:42Z</time></trkpt>
<trkpt lat="46.1902656555175781" lon="7.8118214607238770"><ele></ele><time>2014-10-16T0:46:45Z</time></trkpt>
<trkpt lat="46.1901779174804688" lon="7.8115825653076172"><ele></ele><time>2014-10-16T0:46:48Z</time></trkpt>
<trkpt lat="46.1900367736816406" lon="7.8114256858825684"><ele></ele><time>2014-10-16T0:46:51Z</time></trkpt>
<trkpt lat="46.1898651123046875" lon="7.8113107681274414"><ele></ele><time>2014-10-16T0:46:54Z</time></trkpt>
<trkpt lat="46.1897735595703125" lon="7.8112192153930664"><ele></ele><time>2014-10-16T0:46:57Z</time></trkpt>
<trkpt lat="46.1896743774414062" lon="7.8110704421997070"><ele></ele><time>2014-10-16T0:47:0Z</time></trkpt>
<trkpt lat="46.1896324157714844" lon="7.8109993934631348"><ele></ele><time>2014-10-16T0:47:3Z</time></trkpt>
<trkpt lat="46.1895980834960938" lon="7.8109488487243652"><ele></ele><time>2014-10-16T0:47:6Z</time></trkpt>
<trkpt lat="46.1895713806152344" lon="7.8109259605407715"><ele></ele><time>2014-10-16T0:47:9Z</time></trkpt>
<trkpt lat="46.1895523071289062" lon="7.8109078407287598"><ele></ele><time>2014-10-16T0:47:12Z</time></trkpt>
<trkpt lat="46.1895370483398438" lon="7.8108801841735840"><ele></ele><time>2014-10-16T0:47:15Z</time></trkpt>
<trkpt lat="46.1895065307617188" lon="7.8108434677124023"><ele></ele><time>2014-10-16T0:47:18Z</time></trkpt>
<trkpt lat="46.1894912719726562" lon="7.8107981681823730"><ele></ele><time>2014-10-16T0:47:21Z</time></trkpt>
<trkpt lat="46.1894683837890625" lon="7.8107156753540039"><ele></ele><time>2014-10-16T0:47:24Z</time></trkpt>
<trkpt lat="46.1894378662109375" lon="7.8106513023376465"><ele></ele><time>2014-10-16T0:47:27Z</time></trkpt>
<trkpt lat="46.1893806457519531" lon="7.8106360435485840"><ele></ele><time>2014-10-16T0:47:30Z</time></trkpt>
<trkpt lat="46.1893196105957031" lon="7.8106327056884766"><ele></ele><time>2014-10-16T0:47:33Z</time></trkpt>
<trkpt lat="46.1892547607421875" lon="7.8106508255004883"><ele></ele><time>2014-10-16T0:47:36Z</time></trkpt>
<trkpt lat="46.1892089843750000" lon="7.8106689453125000"><ele></ele><time>2014-10-16T0:47:39Z</time></trkpt>
<trkpt lat="46.1891479492187500" lon="7.8106541633605957"><ele></ele><time>2014-10-16T0:47:42Z</time></trkpt>
<trkpt lat="46.1890945434570312" lon="7.8106198310852051"><ele></ele><time>2014-10-16T0:47:45Z</time></trkpt>
<trkpt lat="46.1890335083007812" lon="7.8105902671813965"><ele></ele><time>2014-10-16T0:47:48Z</time></trkpt>
<trkpt lat="46.1889877319335938" lon="7.8105788230895996"><ele></ele><time>2014-10-16T0:47:51Z</time></trkpt>
<trkpt lat="46.1889343261718750" lon="7.8105096817016602"><ele></ele><time>2014-10-16T0:47:54Z</time></trkpt>
<trkpt lat="46.1888771057128906" lon="7.8104424476623535"><ele></ele><time>2014-10-16T0:47:57Z</time></trkpt>
<trkpt lat="46.1888160705566406" lon="7.8103957176208496"><ele></ele><time>2014-10-16T0:48:0Z</time></trkpt>
<trkpt lat="46.1887893676757812" lon="7.8103628158569336"><ele></ele><time>2014-10-16T0:48:3Z</time></trkpt>
<trkpt lat="46.1887855529785156" lon="7.8102860450744629"><ele></ele><time>2014-10-16T0:48:6Z</time></trkpt>
<trkpt lat="46.1887779235839844" lon="7.8102097511291504"><ele></ele><time>2014-10-16T0:48:9Z</time></trkpt>
<trkpt lat="46.1887626647949219" lon="7.8100981712341309"><ele></ele><time>2014-10-16T0:48:12Z</time></trkpt>
<trkpt lat="46.1887435913085938" lon="7.8099956512451172"><ele></ele><time>2014-10-16T0:48:15Z</time></trkpt>
<trkpt lat="46.1887359619140625" lon="7.8099260330200195"><ele></ele><time>2014-10-16T0:48:18Z</time></trkpt>
<trkpt lat="46.1887168884277344" lon="7.8098649978637695"><ele></ele><time>2014-10-16T0:48:21Z</time></trkpt>
<trkpt lat="46.1886901855468750" lon="7.8098192214965820"><ele></ele><time>2014-10-16T0:48:24Z</time></trkpt>
<trkpt lat="46.1886482238769531" lon="7.8097915649414062"><ele></ele><time>2014-10-16T0:48:27Z</time></trkpt>
<trkpt lat="46.1886215209960938" lon="7.8097658157348633"><ele></ele><time>2014-10-16T0:48:30Z</time></trkpt>
<trkpt lat="46.1885719299316406" lon="7.8097572326660156"><ele></ele><time>2014-10-16T0:48:33Z</time></trkpt>
<trkpt lat="46.1885452270507812" lon="7.8097338676452637"><ele></ele><time>2014-10-16T0:48:36Z</time></trkpt>
<trkpt lat="46.1885375976562500" lon="7.8096427917480469"><ele></ele><time>2014-10-16T0:48:39Z</time></trkpt>
<trkpt lat="46.1885223388671875" lon="7.8096060752868652"><ele></ele><time>2014-10-16T0:48:42Z</time></trkpt>
<trkpt lat="46.1885108947753906" lon="7.8095622062683105"><ele></ele><time>2014-10-16T0:48:45Z</time></trkpt>
<trkpt lat="46.1885070800781250" lon="7.8094739913940430"><ele></ele><time>2014-10-16T0:48:48Z</time></trkpt>
<trkpt lat="46.1884994506835938" lon="7.8094258308410645"><ele></ele><time>2014-10-16T0:48:51Z</time></trkpt>
<trkpt lat="46.1884651184082031" lon="7.8093633651733398"><ele></ele><time>2014-10-16T0:48:54Z</time></trkpt>
<trkpt lat="46.1884040832519531" lon="7.8093376159667969"><ele></ele><time>2014-10-16T0:48:57Z</time></trkpt>
<trkpt lat="46.1883277893066406" lon="7.8093438148498535"><ele></ele><time>2014-10-16T0:49:0Z</time></trkpt>
<trkpt lat="46.1882591247558594" lon="7.8093237876892090"><ele></ele><time>2014-10-16T0:49:3Z</time></trkpt>
<trkpt lat="46.1882209777832031" lon="7.8092918395996094"><ele></ele><time>2014-10-16T0:49:6Z</time></trkpt>
<trkpt lat="46.1881904602050781" lon="7.8092451095581055"><ele></ele><time>2014-10-16T0:49:9Z</time></trkpt>
<trkpt lat="46.1881599426269531" lon="7.8091926574707031"><ele></ele><time>2014-10-16T0:49:12Z</time></trkpt>
<trkpt lat="46.1881103515625000" lon="7.8091769218444824"><ele></ele><time>2014-10-16T0:49:15Z</time></trkpt>
<trkpt lat="46.1880378723144531" lon="7.8091344833374023"><ele></ele><time>2014-10-16T0:49:18Z</time></trkpt>
<trkpt lat="46.1879806518554688" lon="7.8090982437133789"><ele></ele><time>2014-10-16T0:49:21Z</time></trkpt>
<trkpt lat="46.1879043579101562" lon="7.8090200424194336"><ele></ele><time>2014-10-16T0:49:24Z</time></trkpt>
<trkpt lat="46.1878051757812500" lon="7.8090062141418457"><ele></ele><time>2014-10-16T0:49:27Z</time></trkpt>
<trkpt lat="46.1876983642578125" lon="7.8090147972106934"><ele></ele><time>2014-10-16T0:49:30Z</time></trkpt>
<trkpt lat="46.1875419616699219" lon="7.8090686798095703"><ele></ele><time>2014-10-16T0:49:33Z</time></trkpt>
<trkpt lat="46.1873931884765625" lon="7.8090977668762207"><ele></ele><time>2014-10-16T0:49:36Z</time></trkpt>
<trkpt lat="46.1872558593750000" lon="7.8091220855712891"><ele></ele><time>2014-10-16T0:49:39Z</time></trkpt>
<trkpt lat="46.1871528625488281" lon="7.8091111183166504"><ele></ele><time>2014-10-16T0:49:42Z</time></trkpt>
<trkpt lat="46.1870803833007812" lon="7.8091030120849609"><ele></ele><time>2014-10-16T0:49:45Z</time></trkpt>
<trkpt lat="46.1869659423828125" lon="7.8090829849243164"><ele></ele><time>2014-10-16T0:49:48Z</time></trkpt>
<trkpt lat="46.1868820190429688" lon="7.8090844154357910"><ele></ele><time>2014-10-16T0:49:51Z</time></trkpt>
<trkpt lat="46.1867599487304688" lon="7.8090877532958984"><ele></ele><time>2014-10-16T0:49:54Z</time></trkpt>
<trkpt lat="46.1866416931152344" lon="7.8090333938598633"><ele></ele><time>2014-10-16T0:49:57Z</time></trkpt>
<trkpt lat="46.1865921020507812" lon="7.8089575767517090"><ele></ele><time>2014-10-16T0:50:0Z</time></trkpt>
<trkpt lat="46.1865234375000000" lon="7.8088469505310059"><ele></ele><time>2014-10-16T0:50:3Z</time></trkpt>
<trkpt lat="46.1864280700683594" lon="7.8088135719299316"><ele></ele><time>2014-10-16T0:50:6Z</time></trkpt>
<trkpt lat="46.1863594055175781" lon="7.8087897300720215"><ele></ele><time>2014-10-16T0:50:9Z</time></trkpt>
<trkpt lat="46.1862449645996094" lon="7.8087234497070312"><ele></ele><time>2014-10-16T0:50:12Z</time></trkpt>
<trkpt lat="46.1861648559570312" lon="7.8086652755737305"><ele></ele><time>2014-10-16T0:50:15Z</time></trkpt>
<trkpt lat="46.1860885620117188" lon="7.8086009025573730"><ele></ele><time>2014-10-16T0:50:18Z</time></trkpt>
<trkpt lat="46.1860160827636719" lon="7.8085350990295410"><ele></ele><time>2014-10-16T0:50:21Z</time></trkpt>
<trkpt lat="46.1858978271484375" lon="7.8084073066711426"><ele></ele><time>2014-10-16T0:50:24Z</time></trkpt>
<trkpt lat="46.1857910156250000" lon="7.8082489967346191"><ele></ele><time>2014-10-16T0:50:27Z</time></trkpt>
<trkpt lat="46.1856994628906250" lon="7.8081955909729004"><ele></ele><time>2014-10-16T0:50:30Z</time></trkpt>
<trkpt lat="46.1856040954589844" lon="7.8080997467041016"><ele></ele><time>2014-10-16T0:50:33Z</time></trkpt>
<trkpt lat="46.1854515075683594" lon="7.8078222274780273"><ele></ele><time>2014-10-16T0:50:36Z</time></trkpt>
<trkpt lat="46.1853446960449219" lon="7.8076381683349609"><ele></ele><time>2014-10-16T0:50:39Z</time></trkpt>
<trkpt lat="46.1851768493652344" lon="7.8074150085449219"><ele></ele><time>2014-10-16T0:50:42Z</time></trkpt>
<trkpt lat="46.1850624084472656" lon="7.8071799278259277"><ele></ele><time>2014-10-16T0:50:45Z</time></trkpt>
<trkpt lat="46.1849479675292969" lon="7.8069467544555664"><ele></ele><time>2014-10-16T0:50:48Z</time></trkpt>
<trkpt lat="46.1848373413085938" lon="7.8067297935485840"><ele></ele><time>2014-10-16T0:50:51Z</time></trkpt>
<trkpt lat="46.1847229003906250" lon="7.8064899444580078"><ele></ele><time>2014-10-16T0:50:54Z</time></trkpt>
<trkpt lat="46.1846618652343750" lon="7.8063249588012695"><ele></ele><time>2014-10-16T0:50:57Z</time></trkpt>
<trkpt lat="46.1845970153808594" lon="7.8061542510986328"><ele></ele><time>2014-10-16T0:51:0Z</time></trkpt>
<trkpt lat="46.1844444274902344" lon="7.8058743476867676"><ele></ele><time>2014-10-16T0:51:3Z</time></trkpt>
<trkpt lat="46.1842765808105469" lon="7.8055715560913086"><ele></ele><time>2014-10-16T0:51:6Z</time></trkpt>
<trkpt lat="46.1841926574707031" lon="7.8053550720214844"><ele></ele><time>2014-10-16T0:51:9Z</time></trkpt>
<trkpt lat="46.1839828491210938" lon="7.8051667213439941"><ele></ele><time>2014-10-16T0:51:12Z</time></trkpt>
<trkpt lat="46.1838455200195312" lon="7.8050646781921387"><ele></ele><time>2014-10-16T0:51:15Z</time></trkpt>
<trkpt lat="46.1836318969726562" lon="7.8050503730773926"><ele></ele><time>2014-10-16T0:51:18Z</time></trkpt>
<trkpt lat="46.1834602355957031" lon="7.8050913810729980"><ele></ele><time>2014-10-16T0:51:21Z</time></trkpt>
<trkpt lat="46.1830825805664062" lon="7.8052153587341309"><ele></ele><time>2014-10-16T0:51:24Z</time></trkpt>
<trkpt lat="46.1829147338867188" lon="7.8052644729614258"><ele></ele><time>2014-10-16T0:51:27Z</time></trkpt>
<trkpt lat="46.1827812194824219" lon="7.8052792549133301"><ele></ele><time>2014-10-16T0:51:30Z</time></trkpt>
<trkpt lat="46.1823730468750000" lon="7.8053464889526367"><ele></ele><time>2014-10-16T0:51:33Z</time></trkpt>
<trkpt lat="46.1821975708007812" lon="7.8053994178771973"><ele></ele><time>2014-10-16T0:51:36Z</time></trkpt>
<trkpt lat="46.1819839477539062" lon="7.8054323196411133"><ele></ele><time>2014-10-16T0:51:39Z</time></trkpt>
<trkpt lat="46.1818847656250000" lon="7.8054561614990234"><ele></ele><time>2014-10-16T0:51:42Z</time></trkpt>
<trkpt lat="46.1817855834960938" lon="7.8055129051208496"><ele></ele><time>2014-10-16T0:51:45Z</time></trkpt>
<trkpt lat="46.1815872192382812" lon="7.8056101799011230"><ele></ele><time>2014-10-16T0:51:48Z</time></trkpt>
<trkpt lat="46.1814270019531250" lon="7.8055624961853027"><ele></ele><time>2014-10-16T0:51:51Z</time></trkpt>
<trkpt lat="46.1813240051269531" lon="7.8055424690246582"><ele></ele><time>2014-10-16T0:51:54Z</time></trkpt>
<trkpt lat="46.1811752319335938" lon="7.8055357933044434"><ele></ele><time>2014-10-16T0:51:57Z</time></trkpt>
<trkpt lat="46.1810760498046875" lon="7.8055887222290039"><ele></ele><time>2014-10-16T0:52:0Z</time></trkpt>
<trkpt lat="46.1810302734375000" lon="7.8055658340454102"><ele></ele><time>2014-10-16T0:52:3Z</time></trkpt>
<trkpt lat="46.1809082031250000" lon="7.8055257797241211"><ele></ele><time>2014-10-16T0:52:6Z</time></trkpt>
<trkpt lat="46.1807785034179688" lon="7.8055119514465332"><ele></ele><time>2014-10-16T0:52:9Z</time></trkpt>
<trkpt lat="46.1806526184082031" lon="7.8055200576782227"><ele></ele><time>2014-10-16T0:52:12Z</time></trkpt>
<trkpt lat="46.1805801391601562" lon="7.8055272102355957"><ele></ele><time>2014-10-16T0:52:15Z</time></trkpt>
<trkpt lat="46.1804695129394531" lon="7.8055033683776855"><ele></ele><time>2014-10-16T0:52:18Z</time></trkpt>
<trkpt lat="46.1804161071777344" lon="7.8054652214050293"><ele></ele><time>2014-10-16T0:52:21Z</time></trkpt>
<trkpt lat="46.1803092956542969" lon="7.8054838180541992"><ele></ele><time>2014-10-16T0:52:24Z</time></trkpt>
<trkpt lat="46.1802520751953125" lon="7.8054671287536621"><ele></ele><time>2014-10-16T0:52:27Z</time></trkpt>
<trkpt lat="46.1801910400390625" lon="7.8054270744323730"><ele></ele><time>2014-10-16T0:52:30Z</time></trkpt>
<trkpt lat="46.1801147460937500" lon="7.8054223060607910"><ele></ele><time>2014-10-16T0:52:33Z</time></trkpt>
<trkpt lat="46.1800041198730469" lon="7.8054218292236328"><ele></ele><time>2014-10-16T0:52:36Z</time></trkpt>
<trkpt lat="46.1798934936523438" lon="7.8054246902465820"><ele></ele><time>2014-10-16T0:52:39Z</time></trkpt>
<trkpt lat="46.1798095703125000" lon="7.8054065704345703"><ele></ele><time>2014-10-16T0:52:42Z</time></trkpt>
<trkpt lat="46.1797523498535156" lon="7.8054051399230957"><ele></ele><time>2014-10-16T0:52:45Z</time></trkpt>
<trkpt lat="46.1796646118164062" lon="7.8053898811340332"><ele></ele><time>2014-10-16T0:52:48Z</time></trkpt>
<trkpt lat="46.1795997619628906" lon="7.8053698539733887"><ele></ele><time>2014-10-16T0:52:51Z</time></trkpt>
<trkpt lat="46.1795349121093750" lon="7.8053722381591797"><ele></ele><time>2014-10-16T0:52:54Z</time></trkpt>
<trkpt lat="46.1794357299804688" lon="7.8053789138793945"><ele></ele><time>2014-10-16T0:52:57Z</time></trkpt>
<trkpt lat="46.1793289184570312" lon="7.8053841590881348"><ele></ele><time>2014-10-16T0:53:0Z</time></trkpt>
<trkpt lat="46.1792640686035156" lon="7.8053808212280273"><ele></ele><time>2014-10-16T0:53:3Z</time></trkpt>
<trkpt lat="46.1791610717773438" lon="7.8053717613220215"><ele></ele><time>2014-10-16T0:53:6Z</time></trkpt>
<trkpt lat="46.1790695190429688" lon="7.8053565025329590"><ele></ele><time>2014-10-16T0:53:9Z</time></trkpt>
<trkpt lat="46.1789588928222656" lon="7.8053283691406250"><ele></ele><time>2014-10-16T0:53:12Z</time></trkpt>
<trkpt lat="46.1788864135742188" lon="7.8053054809570312"><ele></ele><time>2014-10-16T0:53:15Z</time></trkpt>
<trkpt lat="46.1787757873535156" lon="7.8052811622619629"><ele></ele><time>2014-10-16T0:53:18Z</time></trkpt>
<trkpt lat="46.1786575317382812" lon="7.8052530288696289"><ele></ele><time>2014-10-16T0:53:21Z</time></trkpt>
<trkpt lat="46.1785545349121094" lon="7.8052401542663574"><ele></ele><time>2014-10-16T0:53:24Z</time></trkpt>
<trkpt lat="46.1784019470214844" lon="7.8051924705505371"><ele></ele><time>2014-10-16T0:53:27Z</time></trkpt>
<trkpt lat="46.1782379150390625" lon="7.8051037788391113"><ele></ele><time>2014-10-16T0:53:30Z</time></trkpt>
<trkpt lat="46.1781387329101562" lon="7.8050017356872559"><ele></ele><time>2014-10-16T0:53:33Z</time></trkpt>
<trkpt lat="46.1780548095703125" lon="7.8048682212829590"><ele></ele><time>2014-10-16T0:53:36Z</time></trkpt>
<trkpt lat="46.1779823303222656" lon="7.8047256469726562"><ele></ele><time>2014-10-16T0:53:39Z</time></trkpt>
<trkpt lat="46.1779174804687500" lon="7.8045692443847656"><ele></ele><time>2014-10-16T0:53:42Z</time></trkpt>
<trkpt lat="46.1778373718261719" lon="7.8043270111083984"><ele></ele><time>2014-10-16T0:53:45Z</time></trkpt>
<trkpt lat="46.1777725219726562" lon="7.8041715621948242"><ele></ele><time>2014-10-16T0:53:48Z</time></trkpt>
<trkpt lat="46.1776657104492188" lon="7.8039298057556152"><ele></ele><time>2014-10-16T0:53:51Z</time></trkpt>
<trkpt lat="46.1775550842285156" lon="7.8036952018737793"><ele></ele><time>2014-10-16T0:53:54Z</time></trkpt>
<trkpt lat="46.1773910522460938" lon="7.8035144805908203"><ele></ele><time>2014-10-16T0:53:57Z</time></trkpt>
<trkpt lat="46.1772232055664062" lon="7.8033657073974609"><ele></ele><time>2014-10-16T0:54:0Z</time></trkpt>
<trkpt lat="46.1771202087402344" lon="7.8032574653625488"><ele></ele><time>2014-10-16T0:54:3Z</time></trkpt>
<trkpt lat="46.1769828796386719" lon="7.8030962944030762"><ele></ele><time>2014-10-16T0:54:6Z</time></trkpt>
<trkpt lat="46.1768913269042969" lon="7.8030104637145996"><ele></ele><time>2014-10-16T0:54:9Z</time></trkpt>
<trkpt lat="46.1767387390136719" lon="7.8028793334960938"><ele></ele><time>2014-10-16T0:54:12Z</time></trkpt>
<trkpt lat="46.1765899658203125" lon="7.8027553558349609"><ele></ele><time>2014-10-16T0:54:15Z</time></trkpt>
<trkpt lat="46.1764297485351562" lon="7.8026666641235352"><ele></ele><time>2014-10-16T0:54:18Z</time></trkpt>
<trkpt lat="46.1763305664062500" lon="7.8026294708251953"><ele></ele><time>2014-10-16T0:54:21Z</time></trkpt>
<trkpt lat="46.1761932373046875" lon="7.8025865554809570"><ele></ele><time>2014-10-16T0:54:24Z</time></trkpt>
<trkpt lat="46.1761512756347656" lon="7.8027029037475586"><ele></ele><time>2014-10-16T0:54:27Z</time></trkpt>
<trkpt lat="46.1762313842773438" lon="7.8030223846435547"><ele></ele><time>2014-10-16T0:54:30Z</time></trkpt>
<trkpt lat="46.1763267517089844" lon="7.8036437034606934"><ele></ele><time>2014-10-16T0:54:33Z</time></trkpt>
<trkpt lat="46.1763839721679688" lon="7.8039093017578125"><ele></ele><time>2014-10-16T0:54:36Z</time></trkpt>
<trkpt lat="46.1764183044433594" lon="7.8041677474975586"><ele></ele><time>2014-10-16T0:54:39Z</time></trkpt>
<trkpt lat="46.1764793395996094" lon="7.8045797348022461"><ele></ele><time>2014-10-16T0:54:42Z</time></trkpt>
<trkpt lat="46.1765022277832031" lon="7.8048753738403320"><ele></ele><time>2014-10-16T0:54:45Z</time></trkpt>
<trkpt lat="46.1765441894531250" lon="7.8051047325134277"><ele></ele><time>2014-10-16T0:54:48Z</time></trkpt>
<trkpt lat="46.1767578125000000" lon="7.8051381111145020"><ele></ele><time>2014-10-16T0:54:51Z</time></trkpt>
<trkpt lat="46.1768722534179688" lon="7.8052411079406738"><ele></ele><time>2014-10-16T0:54:54Z</time></trkpt>
<trkpt lat="46.1770629882812500" lon="7.8053979873657227"><ele></ele><time>2014-10-16T0:54:57Z</time></trkpt>
<trkpt lat="46.1772651672363281" lon="7.8055648803710938"><ele></ele><time>2014-10-16T0:55:0Z</time></trkpt>
<trkpt lat="46.1773986816406250" lon="7.8056702613830566"><ele></ele><time>2014-10-16T0:55:3Z</time></trkpt>
<trkpt lat="46.1776123046875000" lon="7.8058414459228516"><ele></ele><time>2014-10-16T0:55:6Z</time></trkpt>
<trkpt lat="46.1776962280273438" lon="7.8059101104736328"><ele></ele><time>2014-10-16T0:55:9Z</time></trkpt>
<trkpt lat="46.1778831481933594" lon="7.8065419197082520"><ele></ele><time>2014-10-16T0:55:12Z</time></trkpt>
<trkpt lat="46.1780319213867188" lon="7.8066339492797852"><ele></ele><time>2014-10-16T0:55:15Z</time></trkpt>
<trkpt lat="46.1781692504882812" lon="7.8067312240600586"><ele></ele><time>2014-10-16T0:55:18Z</time></trkpt>
<trkpt lat="46.1784400939941406" lon="7.8068346977233887"><ele></ele><time>2014-10-16T0:55:21Z</time></trkpt>
<trkpt lat="46.1786308288574219" lon="7.8069581985473633"><ele></ele><time>2014-10-16T0:55:24Z</time></trkpt>
<trkpt lat="46.1787796020507812" lon="7.8071084022521973"><ele></ele><time>2014-10-16T0:55:27Z</time></trkpt>
<trkpt lat="46.1789970397949219" lon="7.8072767257690430"><ele></ele><time>2014-10-16T0:55:30Z</time></trkpt>
<trkpt lat="46.1791687011718750" lon="7.8074316978454590"><ele></ele><time>2014-10-16T0:55:33Z</time></trkpt>
<trkpt lat="46.1793251037597656" lon="7.8074893951416016"><ele></ele><time>2014-10-16T0:55:36Z</time></trkpt>
<trkpt lat="46.1794891357421875" lon="7.8075890541076660"><ele></ele><time>2014-10-16T0:55:39Z</time></trkpt>
<trkpt lat="46.1796798706054688" lon="7.8076500892639160"><ele></ele><time>2014-10-16T0:55:42Z</time></trkpt>
<trkpt lat="46.1798286437988281" lon="7.8076539039611816"><ele></ele><time>2014-10-16T0:55:45Z</time></trkpt>
<trkpt lat="46.1799392700195312" lon="7.8075757026672363"><ele></ele><time>2014-10-16T0:55:48Z</time></trkpt>
<trkpt lat="46.1800689697265625" lon="7.8074579238891602"><ele></ele><time>2014-10-16T0:55:51Z</time></trkpt>
<trkpt lat="46.1801071166992188" lon="7.8075518608093262"><ele></ele><time>2014-10-16T0:55:54Z</time></trkpt>
<trkpt lat="46.1799697875976562" lon="7.8076000213623047"><ele></ele><time>2014-10-16T0:55:57Z</time></trkpt>
<trkpt lat="46.1798171997070312" lon="7.8076758384704590"><ele></ele><time>2014-10-16T0:56:0Z</time></trkpt>
<trkpt lat="46.1797599792480469" lon="7.8077015876770020"><ele></ele><time>2014-10-16T0:56:3Z</time></trkpt>
<trkpt lat="46.1796760559082031" lon="7.8077468872070312"><ele></ele><time>2014-10-16T0:56:6Z</time></trkpt>
<trkpt lat="46.1795883178710938" lon="7.8077888488769531"><ele></ele><time>2014-10-16T0:56:9Z</time></trkpt>
<trkpt lat="46.1795272827148438" lon="7.8078174591064453"><ele></ele><time>2014-10-16T0:56:12Z</time></trkpt>
<trkpt lat="46.1794357299804688" lon="7.8078351020812988"><ele></ele><time>2014-10-16T0:56:15Z</time></trkpt>
<trkpt lat="46.1793441772460938" lon="7.8078584671020508"><ele></ele><time>2014-10-16T0:56:18Z</time></trkpt>
<trkpt lat="46.1792793273925781" lon="7.8078646659851074"><ele></ele><time>2014-10-16T0:56:21Z</time></trkpt>
<trkpt lat="46.1791877746582031" lon="7.8078684806823730"><ele></ele><time>2014-10-16T0:56:24Z</time></trkpt>
<trkpt lat="46.1791000366210938" lon="7.8078899383544922"><ele></ele><time>2014-10-16T0:56:27Z</time></trkpt>
<trkpt lat="46.1790351867675781" lon="7.8079051971435547"><ele></ele><time>2014-10-16T0:56:30Z</time></trkpt>
<trkpt lat="46.1789436340332031" lon="7.8079199790954590"><ele></ele><time>2014-10-16T0:56:33Z</time></trkpt>
<trkpt lat="46.1788787841796875" lon="7.8079252243041992"><ele></ele><time>2014-10-16T0:56:36Z</time></trkpt>
<trkpt lat="46.1787986755371094" lon="7.8079276084899902"><ele></ele><time>2014-10-16T0:56:39Z</time></trkpt>
<trkpt lat="46.1787528991699219" lon="7.8079285621643066"><ele></ele><time>2014-10-16T0:56:42Z</time></trkpt>
<trkpt lat="46.1786766052246094" lon="7.8079328536987305"><ele></ele><time>2014-10-16T0:56:45Z</time></trkpt>
<trkpt lat="46.1786193847656250" lon="7.8079271316528320"><ele></ele><time>2014-10-16T0:56:48Z</time></trkpt>
<trkpt lat="46.1785697937011719" lon="7.8079218864440918"><ele></ele><time>2014-10-16T0:56:51Z</time></trkpt>
<trkpt lat="46.1785240173339844" lon="7.8079214096069336"><ele></ele><time>2014-10-16T0:56:54Z</time></trkpt>
<trkpt lat="46.1784553527832031" lon="7.8079228401184082"><ele></ele><time>2014-10-16T0:56:57Z</time></trkpt>
<trkpt lat="46.1783943176269531" lon="7.8079304695129395"><ele></ele><time>2014-10-16T0:57:0Z</time></trkpt>
<trkpt lat="46.1783103942871094" lon="7.8079175949096680"><ele></ele><time>2014-10-16T0:57:3Z</time></trkpt>
<trkpt lat="46.1782226562500000" lon="7.8079347610473633"><ele></ele><time>2014-10-16T0:57:6Z</time></trkpt>
<trkpt lat="46.1781654357910156" lon="7.8079442977905273"><ele></ele><time>2014-10-16T0:57:9Z</time></trkpt>
<trkpt lat="46.1781196594238281" lon="7.8079028129577637"><ele></ele><time>2014-10-16T0:57:12Z</time></trkpt>
<trkpt lat="46.1780662536621094" lon="7.8078765869140625"><ele></ele><time>2014-10-16T0:57:15Z</time></trkpt>
<trkpt lat="46.1780242919921875" lon="7.8078675270080566"><ele></ele><time>2014-10-16T0:57:18Z</time></trkpt>
<trkpt lat="46.1779747009277344" lon="7.8078622817993164"><ele></ele><time>2014-10-16T0:57:21Z</time></trkpt>
<trkpt lat="46.1779174804687500" lon="7.8078360557556152"><ele></ele><time>2014-10-16T0:57:24Z</time></trkpt>
<trkpt lat="46.1778831481933594" lon="7.8078155517578125"><ele></ele><time>2014-10-16T0:57:27Z</time></trkpt>
<trkpt lat="46.1778373718261719" lon="7.8077774047851562"><ele></ele><time>2014-10-16T0:57:30Z</time></trkpt>
<trkpt lat="46.1778030395507812" lon="7.8077530860900879"><ele></ele><time>2014-10-16T0:57:33Z</time></trkpt>
<trkpt lat="46.1777572631835938" lon="7.8076934814453125"><ele></ele><time>2014-10-16T0:57:36Z</time></trkpt>
<trkpt lat="46.1777229309082031" lon="7.8076643943786621"><ele></ele><time>2014-10-16T0:57:39Z</time></trkpt>
<trkpt lat="46.1776618957519531" lon="7.8076171875000000"><ele></ele><time>2014-10-16T0:57:42Z</time></trkpt>
<trkpt lat="46.1775856018066406" lon="7.8075785636901855"><ele></ele><time>2014-10-16T0:57:45Z</time></trkpt>
<trkpt lat="46.1775054931640625" lon="7.8075294494628906"><ele></ele><time>2014-10-16T0:57:48Z</time></trkpt>
<trkpt lat="46.1774253845214844" lon="7.8074703216552734"><ele></ele><time>2014-10-16T0:57:51Z</time></trkpt>
<trkpt lat="46.1773834228515625" lon="7.8074307441711426"><ele></ele><time>2014-10-16T0:57:54Z</time></trkpt>
<trkpt lat="46.1773376464843750" lon="7.8073897361755371"><ele></ele><time>2014-10-16T0:57:57Z</time></trkpt>
<trkpt lat="46.1772766113281250" lon="7.8073201179504395"><ele></ele><time>2014-10-16T0:58:0Z</time></trkpt>
<trkpt lat="46.1772384643554688" lon="7.8072700500488281"><ele></ele><time>2014-10-16T0:58:3Z</time></trkpt>
<trkpt lat="46.1771965026855469" lon="7.8072299957275391"><ele></ele><time>2014-10-16T0:58:6Z</time></trkpt>
<trkpt lat="46.1771278381347656" lon="7.8071660995483398"><ele></ele><time>2014-10-16T0:58:9Z</time></trkpt>
<trkpt lat="46.1770744323730469" lon="7.8071393966674805"><ele></ele><time>2014-10-16T0:58:12Z</time></trkpt>
<trkpt lat="46.1769790649414062" lon="7.8071599006652832"><ele></ele><time>2014-10-16T0:58:15Z</time></trkpt>
<trkpt lat="46.1769104003906250" lon="7.8072013854980469"><ele></ele><time>2014-10-16T0:58:18Z</time></trkpt>
<trkpt lat="46.1768569946289062" lon="7.8072390556335449"><ele></ele><time>2014-10-16T0:58:21Z</time></trkpt>
<trkpt lat="46.1767921447753906" lon="7.8072495460510254"><ele></ele><time>2014-10-16T0:58:24Z</time></trkpt>
<trkpt lat="46.1766967773437500" lon="7.8072214126586914"><ele></ele><time>2014-10-16T0:58:27Z</time></trkpt>
<trkpt lat="46.1766471862792969" lon="7.8071632385253906"><ele></ele><time>2014-10-16T0:58:30Z</time></trkpt>
<trkpt lat="46.1766014099121094" lon="7.8071084022521973"><ele></ele><time>2014-10-16T0:58:33Z</time></trkpt>
<trkpt lat="46.1765594482421875" lon="7.8070449829101562"><ele></ele><time>2014-10-16T0:58:36Z</time></trkpt>
<trkpt lat="46.1764984130859375" lon="7.8069553375244141"><ele></ele><time>2014-10-16T0:58:39Z</time></trkpt>
<trkpt lat="46.1764335632324219" lon="7.8068790435791016"><ele></ele><time>2014-10-16T0:58:42Z</time></trkpt>
<trkpt lat="46.1763954162597656" lon="7.8068385124206543"><ele></ele><time>2014-10-16T0:58:45Z</time></trkpt>
<trkpt lat="46.1763610839843750" lon="7.8067970275878906"><ele></ele><time>2014-10-16T0:58:48Z</time></trkpt>
<trkpt lat="46.1763076782226562" lon="7.8067488670349121"><ele></ele><time>2014-10-16T0:58:51Z</time></trkpt>
<trkpt lat="46.1762657165527344" lon="7.8067064285278320"><ele></ele><time>2014-10-16T0:58:54Z</time></trkpt>
<trkpt lat="46.1762275695800781" lon="7.8066668510437012"><ele></ele><time>2014-10-16T0:58:57Z</time></trkpt>
<trkpt lat="46.1761817932128906" lon="7.8065991401672363"><ele></ele><time>2014-10-16T0:59:0Z</time></trkpt>
<trkpt lat="46.1761322021484375" lon="7.8065299987792969"><ele></ele><time>2014-10-16T0:59:3Z</time></trkpt>
<trkpt lat="46.1760787963867188" lon="7.8064713478088379"><ele></ele><time>2014-10-16T0:59:6Z</time></trkpt>
<trkpt lat="46.1760444641113281" lon="7.8064370155334473"><ele></ele><time>2014-10-16T0:59:9Z</time></trkpt>
<trkpt lat="46.1760139465332031" lon="7.8063931465148926"><ele></ele><time>2014-10-16T0:59:12Z</time></trkpt>
<trkpt lat="46.1759872436523438" lon="7.8063445091247559"><ele></ele><time>2014-10-16T0:59:15Z</time></trkpt>
<trkpt lat="46.1759529113769531" lon="7.8062725067138672"><ele></ele><time>2014-10-16T0:59:18Z</time></trkpt>
<trkpt lat="46.1759223937988281" lon="7.8062276840209961"><ele></ele><time>2014-10-16T0:59:21Z</time></trkpt>
<trkpt lat="46.1758918762207031" lon="7.8061771392822266"><ele></ele><time>2014-10-16T0:59:24Z</time></trkpt>
<trkpt lat="46.1758422851562500" lon="7.8061122894287109"><ele></ele><time>2014-10-16T0:59:27Z</time></trkpt>
<trkpt lat="46.1757965087890625" lon="7.8060646057128906"><ele></ele><time>2014-10-16T0:59:30Z</time></trkpt>
<trkpt lat="46.1757659912109375" lon="7.8060111999511719"><ele></ele><time>2014-10-16T0:59:33Z</time></trkpt>
<trkpt lat="46.1757316589355469" lon="7.8059234619140625"><ele></ele><time>2014-10-16T0:59:36Z</time></trkpt>
<trkpt lat="46.1757125854492188" lon="7.8058748245239258"><ele></ele><time>2014-10-16T0:59:39Z</time></trkpt>
<trkpt lat="46.1756744384765625" lon="7.8058037757873535"><ele></ele><time>2014-10-16T0:59:42Z</time></trkpt>
<trkpt lat="46.1756439208984375" lon="7.8057522773742676"><ele></ele><time>2014-10-16T0:59:45Z</time></trkpt>
<trkpt lat="46.1756134033203125" lon="7.8056969642639160"><ele></ele><time>2014-10-16T0:59:48Z</time></trkpt>
<trkpt lat="46.1755790710449219" lon="7.8056044578552246"><ele></ele><time>2014-10-16T0:59:51Z</time></trkpt>
<trkpt lat="46.1755638122558594" lon="7.8055338859558105"><ele></ele><time>2014-10-16T0:59:54Z</time></trkpt>
<trkpt lat="46.1755294799804688" lon="7.8054294586181641"><ele></ele><time>2014-10-16T0:59:57Z</time></trkpt>
<trkpt lat="46.1754989624023438" lon="7.8053312301635742"><ele></ele><time>2014-10-16T1:0:0Z</time></trkpt>
<trkpt lat="46.1754646301269531" lon="7.8052678108215332"><ele></ele><time>2014-10-16T1:0:3Z</time></trkpt>
<trkpt lat="46.1754341125488281" lon="7.8051552772521973"><ele></ele><time>2014-10-16T1:0:6Z</time></trkpt>
<trkpt lat="46.1754188537597656" lon="7.8050360679626465"><ele></ele><time>2014-10-16T1:0:9Z</time></trkpt>
<trkpt lat="46.1753959655761719" lon="7.8049635887145996"><ele></ele><time>2014-10-16T1:0:12Z</time></trkpt>
<trkpt lat="46.1753540039062500" lon="7.8048539161682129"><ele></ele><time>2014-10-16T1:0:15Z</time></trkpt>
<trkpt lat="46.1753082275390625" lon="7.8047652244567871"><ele></ele><time>2014-10-16T1:0:18Z</time></trkpt>
<trkpt lat="46.1752700805664062" lon="7.8047232627868652"><ele></ele><time>2014-10-16T1:0:21Z</time></trkpt>
<trkpt lat="46.1752281188964844" lon="7.8046846389770508"><ele></ele><time>2014-10-16T1:0:24Z</time></trkpt>
<trkpt lat="46.1751708984375000" lon="7.8046221733093262"><ele></ele><time>2014-10-16T1:0:27Z</time></trkpt>
<trkpt lat="46.1751365661621094" lon="7.8045744895935059"><ele></ele><time>2014-10-16T1:0:30Z</time></trkpt>
<trkpt lat="46.1750831604003906" lon="7.8045101165771484"><ele></ele><time>2014-10-16T1:0:33Z</time></trkpt>
<trkpt lat="46.1750297546386719" lon="7.8044419288635254"><ele></ele><time>2014-10-16T1:0:36Z</time></trkpt>
<trkpt lat="46.1749763488769531" lon="7.8043742179870605"><ele></ele><time>2014-10-16T1:0:39Z</time></trkpt>
<trkpt lat="46.1749382019042969" lon="7.8043365478515625"><ele></ele><time>2014-10-16T1:0:42Z</time></trkpt>
<trkpt lat="46.1749038696289062" lon="7.8042883872985840"><ele></ele><time>2014-10-16T1:0:45Z</time></trkpt>
<trkpt lat="46.1748580932617188" lon="7.8042168617248535"><ele></ele><time>2014-10-16T1:0:48Z</time></trkpt>
<trkpt lat="46.1748199462890625" lon="7.8041744232177734"><ele></ele><time>2014-10-16T1:0:51Z</time></trkpt>
<trkpt lat="46.1747817993164062" lon="7.8041291236877441"><ele></ele><time>2014-10-16T1:0:54Z</time></trkpt>
<trkpt lat="46.1747245788574219" lon="7.8040633201599121"><ele></ele><time>2014-10-16T1:0:57Z</time></trkpt>
<trkpt lat="46.1746940612792969" lon="7.8040156364440918"><ele></ele><time>2014-10-16T1:1:0Z</time></trkpt>
<trkpt lat="46.1746444702148438" lon="7.8039398193359375"><ele></ele><time>2014-10-16T1:1:3Z</time></trkpt>
<trkpt lat="46.1745872497558594" lon="7.8038849830627441"><ele></ele><time>2014-10-16T1:1:6Z</time></trkpt>
<trkpt lat="46.1745147705078125" lon="7.8038511276245117"><ele></ele><time>2014-10-16T1:1:9Z</time></trkpt>
<trkpt lat="46.1744537353515625" lon="7.8038148880004883"><ele></ele><time>2014-10-16T1:1:12Z</time></trkpt>
<trkpt lat="46.1744155883789062" lon="7.8037815093994141"><ele></ele><time>2014-10-16T1:1:15Z</time></trkpt>
<trkpt lat="46.1743583679199219" lon="7.8037481307983398"><ele></ele><time>2014-10-16T1:1:18Z</time></trkpt>
<trkpt lat="46.1743164062500000" lon="7.8037362098693848"><ele></ele><time>2014-10-16T1:1:21Z</time></trkpt>
<trkpt lat="46.1742668151855469" lon="7.8037037849426270"><ele></ele><time>2014-10-16T1:1:24Z</time></trkpt>
<trkpt lat="46.1742324829101562" lon="7.8036694526672363"><ele></ele><time>2014-10-16T1:1:27Z</time></trkpt>
<trkpt lat="46.1741752624511719" lon="7.8036394119262695"><ele></ele><time>2014-10-16T1:1:30Z</time></trkpt>
<trkpt lat="46.1741065979003906" lon="7.8036274909973145"><ele></ele><time>2014-10-16T1:1:33Z</time></trkpt>
<trkpt lat="46.1740531921386719" lon="7.8036170005798340"><ele></ele><time>2014-10-16T1:1:36Z</time></trkpt>
<trkpt lat="46.1740036010742188" lon="7.8035984039306641"><ele></ele><time>2014-10-16T1:1:39Z</time></trkpt>
<trkpt lat="46.1739578247070312" lon="7.8035836219787598"><ele></ele><time>2014-10-16T1:1:42Z</time></trkpt>
<trkpt lat="46.1738891601562500" lon="7.8035697937011719"><ele></ele><time>2014-10-16T1:1:45Z</time></trkpt>
<trkpt lat="46.1738433837890625" lon="7.8035631179809570"><ele></ele><time>2014-10-16T1:1:48Z</time></trkpt>
<trkpt lat="46.1737861633300781" lon="7.8035173416137695"><ele></ele><time>2014-10-16T1:1:51Z</time></trkpt>
<trkpt lat="46.1737442016601562" lon="7.8034858703613281"><ele></ele><time>2014-10-16T1:1:54Z</time></trkpt>
<trkpt lat="46.1737022399902344" lon="7.8034462928771973"><ele></ele><time>2014-10-16T1:1:57Z</time></trkpt>
<trkpt lat="46.1736450195312500" lon="7.8033862113952637"><ele></ele><time>2014-10-16T1:2:0Z</time></trkpt>
<trkpt lat="46.1735839843750000" lon="7.8033256530761719"><ele></ele><time>2014-10-16T1:2:3Z</time></trkpt>
<trkpt lat="46.1735458374023438" lon="7.8032908439636230"><ele></ele><time>2014-10-16T1:2:6Z</time></trkpt>
<trkpt lat="46.1734924316406250" lon="7.8032550811767578"><ele></ele><time>2014-10-16T1:2:9Z</time></trkpt>
<trkpt lat="46.1734542846679688" lon="7.8032355308532715"><ele></ele><time>2014-10-16T1:2:12Z</time></trkpt>
<trkpt lat="46.1734199523925781" lon="7.8032298088073730"><ele></ele><time>2014-10-16T1:2:15Z</time></trkpt>
<trkpt lat="46.1733627319335938" lon="7.8032307624816895"><ele></ele><time>2014-10-16T1:2:18Z</time></trkpt>
<trkpt lat="46.1733055114746094" lon="7.8032612800598145"><ele></ele><time>2014-10-16T1:2:21Z</time></trkpt>
<trkpt lat="46.1732673645019531" lon="7.8032431602478027"><ele></ele><time>2014-10-16T1:2:24Z</time></trkpt>
<trkpt lat="46.1732139587402344" lon="7.8032140731811523"><ele></ele><time>2014-10-16T1:2:27Z</time></trkpt>
<trkpt lat="46.1731605529785156" lon="7.8032064437866211"><ele></ele><time>2014-10-16T1:2:30Z</time></trkpt>
<trkpt lat="46.1731414794921875" lon="7.8032422065734863"><ele></ele><time>2014-10-16T1:2:33Z</time></trkpt>
<trkpt lat="46.1731529235839844" lon="7.8033051490783691"><ele></ele><time>2014-10-16T1:2:36Z</time></trkpt>
<trkpt lat="46.1731758117675781" lon="7.8033280372619629"><ele></ele><time>2014-10-16T1:2:39Z</time></trkpt>
<trkpt lat="46.1732063293457031" lon="7.8033413887023926"><ele></ele><time>2014-10-16T1:2:42Z</time></trkpt>
<trkpt lat="46.1732559204101562" lon="7.8033509254455566"><ele></ele><time>2014-10-16T1:2:45Z</time></trkpt>
<trkpt lat="46.1733131408691406" lon="7.8033504486083984"><ele></ele><time>2014-10-16T1:2:48Z</time></trkpt>
<trkpt lat="46.1733474731445312" lon="7.8033442497253418"><ele></ele><time>2014-10-16T1:2:51Z</time></trkpt>
<trkpt lat="46.1734046936035156" lon="7.8033528327941895"><ele></ele><time>2014-10-16T1:2:54Z</time></trkpt>
<trkpt lat="46.1734390258789062" lon="7.8033504486083984"><ele></ele><time>2014-10-16T1:2:57Z</time></trkpt>
<trkpt lat="46.1734924316406250" lon="7.8033618927001953"><ele></ele><time>2014-10-16T1:3:0Z</time></trkpt>
<trkpt lat="46.1735229492187500" lon="7.8034124374389648"><ele></ele><time>2014-10-16T1:3:3Z</time></trkpt>
<trkpt lat="46.1735572814941406" lon="7.8035120964050293"><ele></ele><time>2014-10-16T1:3:6Z</time></trkpt>
<trkpt lat="46.1735839843750000" lon="7.8036122322082520"><ele></ele><time>2014-10-16T1:3:9Z</time></trkpt>
<trkpt lat="46.1735992431640625" lon="7.8036794662475586"><ele></ele><time>2014-10-16T1:3:12Z</time></trkpt>
<trkpt lat="46.1736145019531250" lon="7.8037586212158203"><ele></ele><time>2014-10-16T1:3:15Z</time></trkpt>
<trkpt lat="46.1736335754394531" lon="7.8038721084594727"><ele></ele><time>2014-10-16T1:3:18Z</time></trkpt>
<trkpt lat="46.1736564636230469" lon="7.8039426803588867"><ele></ele><time>2014-10-16T1:3:21Z</time></trkpt>
<trkpt lat="46.1736869812011719" lon="7.8040065765380859"><ele></ele><time>2014-10-16T1:3:24Z</time></trkpt>
<trkpt lat="46.1737403869628906" lon="7.8041043281555176"><ele></ele><time>2014-10-16T1:3:27Z</time></trkpt>
<trkpt lat="46.1737747192382812" lon="7.8041710853576660"><ele></ele><time>2014-10-16T1:3:30Z</time></trkpt>
<trkpt lat="46.1738128662109375" lon="7.8042321205139160"><ele></ele><time>2014-10-16T1:3:33Z</time></trkpt>
<trkpt lat="46.1738777160644531" lon="7.8043265342712402"><ele></ele><time>2014-10-16T1:3:36Z</time></trkpt>
<trkpt lat="46.1739349365234375" lon="7.8044209480285645"><ele></ele><time>2014-10-16T1:3:39Z</time></trkpt>
<trkpt lat="46.1739730834960938" lon="7.8044757843017578"><ele></ele><time>2014-10-16T1:3:42Z</time></trkpt>
<trkpt lat="46.1740188598632812" lon="7.8045816421508789"><ele></ele><time>2014-10-16T1:3:45Z</time></trkpt>
<trkpt lat="46.1740493774414062" lon="7.8046555519104004"><ele></ele><time>2014-10-16T1:3:48Z</time></trkpt>
<trkpt lat="46.1740951538085938" lon="7.8047604560852051"><ele></ele><time>2014-10-16T1:3:51Z</time></trkpt>
<trkpt lat="46.1741371154785156" lon="7.8048601150512695"><ele></ele><time>2014-10-16T1:3:54Z</time></trkpt>
<trkpt lat="46.1741600036621094" lon="7.8049254417419434"><ele></ele><time>2014-10-16T1:3:57Z</time></trkpt>
<trkpt lat="46.1742057800292969" lon="7.8050127029418945"><ele></ele><time>2014-10-16T1:4:0Z</time></trkpt>
<trkpt lat="46.1742324829101562" lon="7.8050789833068848"><ele></ele><time>2014-10-16T1:4:3Z</time></trkpt>
<trkpt lat="46.1742706298828125" lon="7.8051729202270508"><ele></ele><time>2014-10-16T1:4:6Z</time></trkpt>
<trkpt lat="46.1742897033691406" lon="7.8052382469177246"><ele></ele><time>2014-10-16T1:4:9Z</time></trkpt>
<trkpt lat="46.1743125915527344" lon="7.8053278923034668"><ele></ele><time>2014-10-16T1:4:12Z</time></trkpt>
<trkpt lat="46.1743469238281250" lon="7.8054141998291016"><ele></ele><time>2014-10-16T1:4:15Z</time></trkpt>
<trkpt lat="46.1743736267089844" lon="7.8054742813110352"><ele></ele><time>2014-10-16T1:4:18Z</time></trkpt>
<trkpt lat="46.1744079589843750" lon="7.8055672645568848"><ele></ele><time>2014-10-16T1:4:21Z</time></trkpt>
<trkpt lat="46.1744308471679688" lon="7.8056201934814453"><ele></ele><time>2014-10-16T1:4:24Z</time></trkpt>
<trkpt lat="46.1744651794433594" lon="7.8056964874267578"><ele></ele><time>2014-10-16T1:4:27Z</time></trkpt>
<trkpt lat="46.1744956970214844" lon="7.8057737350463867"><ele></ele><time>2014-10-16T1:4:30Z</time></trkpt>
<trkpt lat="46.1745262145996094" lon="7.8058180809020996"><ele></ele><time>2014-10-16T1:4:33Z</time></trkpt>
<trkpt lat="46.1745643615722656" lon="7.8058595657348633"><ele></ele><time>2014-10-16T1:4:36Z</time></trkpt>
<trkpt lat="46.1746025085449219" lon="7.8059487342834473"><ele></ele><time>2014-10-16T1:4:39Z</time></trkpt>
<trkpt lat="46.1745719909667969" lon="7.8060483932495117"><ele></ele><time>2014-10-16T1:4:42Z</time></trkpt>
<trkpt lat="46.1745223999023438" lon="7.8060307502746582"><ele></ele><time>2014-10-16T1:4:45Z</time></trkpt>
<trkpt lat="46.1744728088378906" lon="7.8059582710266113"><ele></ele><time>2014-10-16T1:4:48Z</time></trkpt>
<trkpt lat="46.1744232177734375" lon="7.8059115409851074"><ele></ele><time>2014-10-16T1:4:51Z</time></trkpt>
<trkpt lat="46.1743812561035156" lon="7.8058624267578125"><ele></ele><time>2014-10-16T1:4:54Z</time></trkpt>
<trkpt lat="46.1743202209472656" lon="7.8058323860168457"><ele></ele><time>2014-10-16T1:4:57Z</time></trkpt>
<trkpt lat="46.1742591857910156" lon="7.8057985305786133"><ele></ele><time>2014-10-16T1:5:0Z</time></trkpt>
<trkpt lat="46.1742248535156250" lon="7.8057632446289062"><ele></ele><time>2014-10-16T1:5:3Z</time></trkpt>
<trkpt lat="46.1741752624511719" lon="7.8056969642639160"><ele></ele><time>2014-10-16T1:5:6Z</time></trkpt>
<trkpt lat="46.1741256713867188" lon="7.8056173324584961"><ele></ele><time>2014-10-16T1:5:9Z</time></trkpt>
<trkpt lat="46.1740608215332031" lon="7.8055634498596191"><ele></ele><time>2014-10-16T1:5:12Z</time></trkpt>
<trkpt lat="46.1740150451660156" lon="7.8055305480957031"><ele></ele><time>2014-10-16T1:5:15Z</time></trkpt>
<trkpt lat="46.1739578247070312" lon="7.8054742813110352"><ele></ele><time>2014-10-16T1:5:18Z</time></trkpt>
<trkpt lat="46.1739006042480469" lon="7.8054232597351074"><ele></ele><time>2014-10-16T1:5:21Z</time></trkpt>
<trkpt lat="46.1738586425781250" lon="7.8053989410400391"><ele></ele><time>2014-10-16T1:5:24Z</time></trkpt>
<trkpt lat="46.1737899780273438" lon="7.8053565025329590"><ele></ele><time>2014-10-16T1:5:27Z</time></trkpt>
<trkpt lat="46.1737480163574219" lon="7.8053159713745117"><ele></ele><time>2014-10-16T1:5:30Z</time></trkpt>
<trkpt lat="46.1737098693847656" lon="7.8052725791931152"><ele></ele><time>2014-10-16T1:5:33Z</time></trkpt>
<trkpt lat="46.1736717224121094" lon="7.8052334785461426"><ele></ele><time>2014-10-16T1:5:36Z</time></trkpt>
<trkpt lat="46.1736106872558594" lon="7.8051934242248535"><ele></ele><time>2014-10-16T1:5:39Z</time></trkpt>
<trkpt lat="46.1735687255859375" lon="7.8051667213439941"><ele></ele><time>2014-10-16T1:5:42Z</time></trkpt>
<trkpt lat="46.1735038757324219" lon="7.8051214218139648"><ele></ele><time>2014-10-16T1:5:45Z</time></trkpt>
<trkpt lat="46.1734619140625000" lon="7.8050923347473145"><ele></ele><time>2014-10-16T1:5:48Z</time></trkpt>
<trkpt lat="46.1734237670898438" lon="7.8050637245178223"><ele></ele><time>2014-10-16T1:5:51Z</time></trkpt>
<trkpt lat="46.1733665466308594" lon="7.8050298690795898"><ele></ele><time>2014-10-16T1:5:54Z</time></trkpt>
<trkpt lat="46.1733283996582031" lon="7.8050136566162109"><ele></ele><time>2014-10-16T1:5:57Z</time></trkpt>
<trkpt lat="46.1732711791992188" lon="7.8049964904785156"><ele></ele><time>2014-10-16T1:6:0Z</time></trkpt>
<trkpt lat="46.1732406616210938" lon="7.8049540519714355"><ele></ele><time>2014-10-16T1:6:3Z</time></trkpt>
<trkpt lat="46.1731986999511719" lon="7.8049073219299316"><ele></ele><time>2014-10-16T1:6:6Z</time></trkpt>
<trkpt lat="46.1731338500976562" lon="7.8048620223999023"><ele></ele><time>2014-10-16T1:6:9Z</time></trkpt>
<trkpt lat="46.1730880737304688" lon="7.8048386573791504"><ele></ele><time>2014-10-16T1:6:12Z</time></trkpt>
<trkpt lat="46.1730461120605469" lon="7.8048133850097656"><ele></ele><time>2014-10-16T1:6:15Z</time></trkpt>
<trkpt lat="46.1730003356933594" lon="7.8047876358032227"><ele></ele><time>2014-10-16T1:6:18Z</time></trkpt>
<trkpt lat="46.1729583740234375" lon="7.8047671318054199"><ele></ele><time>2014-10-16T1:6:21Z</time></trkpt>
<trkpt lat="46.1728897094726562" lon="7.8047380447387695"><ele></ele><time>2014-10-16T1:6:24Z</time></trkpt>
<trkpt lat="46.1728439331054688" lon="7.8047270774841309"><ele></ele><time>2014-10-16T1:6:27Z</time></trkpt>
<trkpt lat="46.1727790832519531" lon="7.8047032356262207"><ele></ele><time>2014-10-16T1:6:30Z</time></trkpt>
<trkpt lat="46.1727333068847656" lon="7.8046927452087402"><ele></ele><time>2014-10-16T1:6:33Z</time></trkpt>
<trkpt lat="46.1726951599121094" lon="7.8046741485595703"><ele></ele><time>2014-10-16T1:6:36Z</time></trkpt>
<trkpt lat="46.1726493835449219" lon="7.8046479225158691"><ele></ele><time>2014-10-16T1:6:39Z</time></trkpt>
<trkpt lat="46.1726036071777344" lon="7.8046355247497559"><ele></ele><time>2014-10-16T1:6:42Z</time></trkpt>
<trkpt lat="46.1725540161132812" lon="7.8046326637268066"><ele></ele><time>2014-10-16T1:6:45Z</time></trkpt>
<trkpt lat="46.1724853515625000" lon="7.8046207427978516"><ele></ele><time>2014-10-16T1:6:48Z</time></trkpt>
<trkpt lat="46.1724205017089844" lon="7.8045701980590820"><ele></ele><time>2014-10-16T1:6:51Z</time></trkpt>
<trkpt lat="46.1723899841308594" lon="7.8045554161071777"><ele></ele><time>2014-10-16T1:6:54Z</time></trkpt>
<trkpt lat="46.1723213195800781" lon="7.8045339584350586"><ele></ele><time>2014-10-16T1:6:57Z</time></trkpt>
<trkpt lat="46.1721878051757812" lon="7.8045086860656738"><ele></ele><time>2014-10-16T1:7:0Z</time></trkpt>
<trkpt lat="46.1721420288085938" lon="7.8045134544372559"><ele></ele><time>2014-10-16T1:7:3Z</time></trkpt>
<trkpt lat="46.1721000671386719" lon="7.8044929504394531"><ele></ele><time>2014-10-16T1:7:6Z</time></trkpt>
<trkpt lat="46.1720428466796875" lon="7.8044538497924805"><ele></ele><time>2014-10-16T1:7:9Z</time></trkpt>
<trkpt lat="46.1719932556152344" lon="7.8044362068176270"><ele></ele><time>2014-10-16T1:7:12Z</time></trkpt>
<trkpt lat="46.1719360351562500" lon="7.8044075965881348"><ele></ele><time>2014-10-16T1:7:15Z</time></trkpt>
<trkpt lat="46.1718940734863281" lon="7.8043794631958008"><ele></ele><time>2014-10-16T1:7:18Z</time></trkpt>
<trkpt lat="46.1718482971191406" lon="7.8043546676635742"><ele></ele><time>2014-10-16T1:7:21Z</time></trkpt>
<trkpt lat="46.1717987060546875" lon="7.8043308258056641"><ele></ele><time>2014-10-16T1:7:24Z</time></trkpt>
<trkpt lat="46.1717414855957031" lon="7.8043036460876465"><ele></ele><time>2014-10-16T1:7:27Z</time></trkpt>
<trkpt lat="46.1716613769531250" lon="7.8042678833007812"><ele></ele><time>2014-10-16T1:7:30Z</time></trkpt>
<trkpt lat="46.1715888977050781" lon="7.8042478561401367"><ele></ele><time>2014-10-16T1:7:33Z</time></trkpt>
<trkpt lat="46.1715431213378906" lon="7.8042440414428711"><ele></ele><time>2014-10-16T1:7:36Z</time></trkpt>
<trkpt lat="46.1714744567871094" lon="7.8042140007019043"><ele></ele><time>2014-10-16T1:7:39Z</time></trkpt>
<trkpt lat="46.1714286804199219" lon="7.8041887283325195"><ele></ele><time>2014-10-16T1:7:42Z</time></trkpt>
<trkpt lat="46.1713409423828125" lon="7.8041534423828125"><ele></ele><time>2014-10-16T1:7:45Z</time></trkpt>
<trkpt lat="46.1712760925292969" lon="7.8041181564331055"><ele></ele><time>2014-10-16T1:7:48Z</time></trkpt>
<trkpt lat="46.1711997985839844" lon="7.8041152954101562"><ele></ele><time>2014-10-16T1:7:51Z</time></trkpt>
<trkpt lat="46.1711044311523438" lon="7.8041791915893555"><ele></ele><time>2014-10-16T1:7:54Z</time></trkpt>
<trkpt lat="46.1710243225097656" lon="7.8042149543762207"><ele></ele><time>2014-10-16T1:7:57Z</time></trkpt>
<trkpt lat="46.1709556579589844" lon="7.8042378425598145"><ele></ele><time>2014-10-16T1:8:0Z</time></trkpt>
<trkpt lat="46.1708946228027344" lon="7.8042573928833008"><ele></ele><time>2014-10-16T1:8:3Z</time></trkpt>
<trkpt lat="46.1708412170410156" lon="7.8042817115783691"><ele></ele><time>2014-10-16T1:8:6Z</time></trkpt>
<trkpt lat="46.1707954406738281" lon="7.8042860031127930"><ele></ele><time>2014-10-16T1:8:9Z</time></trkpt>
<trkpt lat="46.1707305908203125" lon="7.8042759895324707"><ele></ele><time>2014-10-16T1:8:12Z</time></trkpt>
<trkpt lat="46.1706886291503906" lon="7.8042750358581543"><ele></ele><time>2014-10-16T1:8:15Z</time></trkpt>
<trkpt lat="46.1706199645996094" lon="7.8043003082275391"><ele></ele><time>2014-10-16T1:8:18Z</time></trkpt>
<trkpt lat="46.1705856323242188" lon="7.8042964935302734"><ele></ele><time>2014-10-16T1:8:21Z</time></trkpt>
<trkpt lat="46.1705055236816406" lon="7.8042678833007812"><ele></ele><time>2014-10-16T1:8:24Z</time></trkpt>
<trkpt lat="46.1704254150390625" lon="7.8041996955871582"><ele></ele><time>2014-10-16T1:8:27Z</time></trkpt>
<trkpt lat="46.1703453063964844" lon="7.8041486740112305"><ele></ele><time>2014-10-16T1:8:30Z</time></trkpt>
<trkpt lat="46.1703071594238281" lon="7.8041543960571289"><ele></ele><time>2014-10-16T1:8:33Z</time></trkpt>
<trkpt lat="46.1702880859375000" lon="7.8041481971740723"><ele></ele><time>2014-10-16T1:8:36Z</time></trkpt>
<trkpt lat="46.1702270507812500" lon="7.8041248321533203"><ele></ele><time>2014-10-16T1:8:39Z</time></trkpt>
<trkpt lat="46.1701431274414062" lon="7.8041372299194336"><ele></ele><time>2014-10-16T1:8:42Z</time></trkpt>
<trkpt lat="46.1700744628906250" lon="7.8041534423828125"><ele></ele><time>2014-10-16T1:8:45Z</time></trkpt>
<trkpt lat="46.1699600219726562" lon="7.8041419982910156"><ele></ele><time>2014-10-16T1:8:48Z</time></trkpt>
<trkpt lat="46.1698837280273438" lon="7.8041129112243652"><ele></ele><time>2014-10-16T1:8:51Z</time></trkpt>
<trkpt lat="46.1698265075683594" lon="7.8041076660156250"><ele></ele><time>2014-10-16T1:8:54Z</time></trkpt>
<trkpt lat="46.1697921752929688" lon="7.8041305541992188"><ele></ele><time>2014-10-16T1:8:57Z</time></trkpt>
<trkpt lat="46.1697616577148438" lon="7.8041915893554688"><ele></ele><time>2014-10-16T1:9:0Z</time></trkpt>
<trkpt lat="46.1697807312011719" lon="7.8042659759521484"><ele></ele><time>2014-10-16T1:9:3Z</time></trkpt>
<trkpt lat="46.1698379516601562" lon="7.8042340278625488"><ele></ele><time>2014-10-16T1:9:6Z</time></trkpt>
<trkpt lat="46.1699104309082031" lon="7.8041858673095703"><ele></ele><time>2014-10-16T1:9:9Z</time></trkpt>
<trkpt lat="46.1699523925781250" lon="7.8041486740112305"><ele></ele><time>2014-10-16T1:9:12Z</time></trkpt>
<trkpt lat="46.1700019836425781" lon="7.8041296005249023"><ele></ele><time>2014-10-16T1:9:15Z</time></trkpt>
<trkpt lat="46.1700668334960938" lon="7.8040795326232910"><ele></ele><time>2014-10-16T1:9:18Z</time></trkpt>
<trkpt lat="46.1701354980468750" lon="7.8040528297424316"><ele></ele><time>2014-10-16T1:9:21Z</time></trkpt>
<trkpt lat="46.1702079772949219" lon="7.8041057586669922"><ele></ele><time>2014-10-16T1:9:24Z</time></trkpt>
<trkpt lat="46.1702690124511719" lon="7.8041944503784180"><ele></ele><time>2014-10-16T1:9:27Z</time></trkpt>
<trkpt lat="46.1703224182128906" lon="7.8043308258056641"><ele></ele><time>2014-10-16T1:9:30Z</time></trkpt>
<trkpt lat="46.1703605651855469" lon="7.8044052124023438"><ele></ele><time>2014-10-16T1:9:33Z</time></trkpt>
<trkpt lat="46.1704101562500000" lon="7.8044939041137695"><ele></ele><time>2014-10-16T1:9:36Z</time></trkpt>
<trkpt lat="46.1704483032226562" lon="7.8045387268066406"><ele></ele><time>2014-10-16T1:9:39Z</time></trkpt>
<trkpt lat="46.1704902648925781" lon="7.8045887947082520"><ele></ele><time>2014-10-16T1:9:42Z</time></trkpt>
<trkpt lat="46.1705551147460938" lon="7.8046145439147949"><ele></ele><time>2014-10-16T1:9:45Z</time></trkpt>
<trkpt lat="46.1705970764160156" lon="7.8046274185180664"><ele></ele><time>2014-10-16T1:9:48Z</time></trkpt>
<trkpt lat="46.1706657409667969" lon="7.8046674728393555"><ele></ele><time>2014-10-16T1:9:51Z</time></trkpt>
<trkpt lat="46.1707305908203125" lon="7.8046894073486328"><ele></ele><time>2014-10-16T1:9:54Z</time></trkpt>
<trkpt lat="46.1707763671875000" lon="7.8046941757202148"><ele></ele><time>2014-10-16T1:9:57Z</time></trkpt>
<trkpt lat="46.1708221435546875" lon="7.8046875000000000"><ele></ele><time>2014-10-16T1:10:0Z</time></trkpt>
<trkpt lat="46.1708946228027344" lon="7.8046970367431641"><ele></ele><time>2014-10-16T1:10:3Z</time></trkpt>
<trkpt lat="46.1709480285644531" lon="7.8047227859497070"><ele></ele><time>2014-10-16T1:10:6Z</time></trkpt>
<trkpt lat="46.1710014343261719" lon="7.8047480583190918"><ele></ele><time>2014-10-16T1:10:9Z</time></trkpt>
<trkpt lat="46.1710777282714844" lon="7.8047509193420410"><ele></ele><time>2014-10-16T1:10:12Z</time></trkpt>
<trkpt lat="46.1711654663085938" lon="7.8047976493835449"><ele></ele><time>2014-10-16T1:10:15Z</time></trkpt>
<trkpt lat="46.1712226867675781" lon="7.8048343658447266"><ele></ele><time>2014-10-16T1:10:18Z</time></trkpt>
<trkpt lat="46.1712722778320312" lon="7.8048758506774902"><ele></ele><time>2014-10-16T1:10:21Z</time></trkpt>
<trkpt lat="46.1713066101074219" lon="7.8049583435058594"><ele></ele><time>2014-10-16T1:10:24Z</time></trkpt>
<trkpt lat="46.1713409423828125" lon="7.8050389289855957"><ele></ele><time>2014-10-16T1:10:27Z</time></trkpt>
<trkpt lat="46.1713790893554688" lon="7.8051228523254395"><ele></ele><time>2014-10-16T1:10:30Z</time></trkpt>
<trkpt lat="46.1714172363281250" lon="7.8052034378051758"><ele></ele><time>2014-10-16T1:10:33Z</time></trkpt>
<trkpt lat="46.1714363098144531" lon="7.8052663803100586"><ele></ele><time>2014-10-16T1:10:36Z</time></trkpt>
<trkpt lat="46.1714820861816406" lon="7.8053283691406250"><ele></ele><time>2014-10-16T1:10:39Z</time></trkpt>
<trkpt lat="46.1715126037597656" lon="7.8053684234619141"><ele></ele><time>2014-10-16T1:10:42Z</time></trkpt>
<trkpt lat="46.1715469360351562" lon="7.8054070472717285"><ele></ele><time>2014-10-16T1:10:45Z</time></trkpt>
<trkpt lat="46.1716003417968750" lon="7.8054251670837402"><ele></ele><time>2014-10-16T1:10:48Z</time></trkpt>
<trkpt lat="46.1716384887695312" lon="7.8054375648498535"><ele></ele><time>2014-10-16T1:10:51Z</time></trkpt>
<trkpt lat="46.1716918945312500" lon="7.8054847717285156"><ele></ele><time>2014-10-16T1:10:54Z</time></trkpt>
<trkpt lat="46.1717491149902344" lon="7.8055515289306641"><ele></ele><time>2014-10-16T1:10:57Z</time></trkpt>
<trkpt lat="46.1717948913574219" lon="7.8056001663208008"><ele></ele><time>2014-10-16T1:11:0Z</time></trkpt>
<trkpt lat="46.1718597412109375" lon="7.8056826591491699"><ele></ele><time>2014-10-16T1:11:3Z</time></trkpt>
<trkpt lat="46.1719017028808594" lon="7.8057169914245605"><ele></ele><time>2014-10-16T1:11:6Z</time></trkpt>
<trkpt lat="46.1719589233398438" lon="7.8057823181152344"><ele></ele><time>2014-10-16T1:11:9Z</time></trkpt>
<trkpt lat="46.1720161437988281" lon="7.8058261871337891"><ele></ele><time>2014-10-16T1:11:12Z</time></trkpt>
<trkpt lat="46.1720504760742188" lon="7.8058614730834961"><ele></ele><time>2014-10-16T1:11:15Z</time></trkpt>
<trkpt lat="46.1720962524414062" lon="7.8059244155883789"><ele></ele><time>2014-10-16T1:11:18Z</time></trkpt>
<trkpt lat="46.1721458435058594" lon="7.8059754371643066"><ele></ele><time>2014-10-16T1:11:21Z</time></trkpt>
<trkpt lat="46.1721801757812500" lon="7.8060154914855957"><ele></ele><time>2014-10-16T1:11:24Z</time></trkpt>
<trkpt lat="46.1722297668457031" lon="7.8060917854309082"><ele></ele><time>2014-10-16T1:11:27Z</time></trkpt>
<trkpt lat="46.1722755432128906" lon="7.8061590194702148"><ele></ele><time>2014-10-16T1:11:30Z</time></trkpt>
<trkpt lat="46.1723289489746094" lon="7.8062205314636230"><ele></ele><time>2014-10-16T1:11:33Z</time></trkpt>
<trkpt lat="46.1723632812500000" lon="7.8062615394592285"><ele></ele><time>2014-10-16T1:11:36Z</time></trkpt>
<trkpt lat="46.1724128723144531" lon="7.8063344955444336"><ele></ele><time>2014-10-16T1:11:39Z</time></trkpt>
<trkpt lat="46.1724472045898438" lon="7.8063707351684570"><ele></ele><time>2014-10-16T1:11:42Z</time></trkpt>
<trkpt lat="46.1725006103515625" lon="7.8064322471618652"><ele></ele><time>2014-10-16T1:11:45Z</time></trkpt>
<trkpt lat="46.1725387573242188" lon="7.8064789772033691"><ele></ele><time>2014-10-16T1:11:48Z</time></trkpt>
<trkpt lat="46.1725730895996094" lon="7.8065252304077148"><ele></ele><time>2014-10-16T1:11:51Z</time></trkpt>
<trkpt lat="46.1726226806640625" lon="7.8066215515136719"><ele></ele><time>2014-10-16T1:11:54Z</time></trkpt>
<trkpt lat="46.1726531982421875" lon="7.8066730499267578"><ele></ele><time>2014-10-16T1:11:57Z</time></trkpt>
<trkpt lat="46.1726913452148438" lon="7.8067398071289062"><ele></ele><time>2014-10-16T1:12:0Z</time></trkpt>
<trkpt lat="46.1727180480957031" lon="7.8068017959594727"><ele></ele><time>2014-10-16T1:12:3Z</time></trkpt>
<trkpt lat="46.1727600097656250" lon="7.8068857192993164"><ele></ele><time>2014-10-16T1:12:6Z</time></trkpt>
<trkpt lat="46.1727867126464844" lon="7.8069443702697754"><ele></ele><time>2014-10-16T1:12:9Z</time></trkpt>
<trkpt lat="46.1728210449218750" lon="7.8070001602172852"><ele></ele><time>2014-10-16T1:12:12Z</time></trkpt>
<trkpt lat="46.1728515625000000" lon="7.8070597648620605"><ele></ele><time>2014-10-16T1:12:15Z</time></trkpt>
<trkpt lat="46.1728935241699219" lon="7.8071575164794922"><ele></ele><time>2014-10-16T1:12:18Z</time></trkpt>
<trkpt lat="46.1729240417480469" lon="7.8072085380554199"><ele></ele><time>2014-10-16T1:12:21Z</time></trkpt>
<trkpt lat="46.1729507446289062" lon="7.8072571754455566"><ele></ele><time>2014-10-16T1:12:24Z</time></trkpt>
<trkpt lat="46.1730003356933594" lon="7.8073258399963379"><ele></ele><time>2014-10-16T1:12:27Z</time></trkpt>
<trkpt lat="46.1730308532714844" lon="7.8073744773864746"><ele></ele><time>2014-10-16T1:12:30Z</time></trkpt>
<trkpt lat="46.1730575561523438" lon="7.8074607849121094"><ele></ele><time>2014-10-16T1:12:33Z</time></trkpt>
<trkpt lat="46.1730880737304688" lon="7.8075399398803711"><ele></ele><time>2014-10-16T1:12:36Z</time></trkpt>
<trkpt lat="46.1731109619140625" lon="7.8075904846191406"><ele></ele><time>2014-10-16T1:12:39Z</time></trkpt>
<trkpt lat="46.1731414794921875" lon="7.8076457977294922"><ele></ele><time>2014-10-16T1:12:42Z</time></trkpt>
<trkpt lat="46.1731872558593750" lon="7.8077478408813477"><ele></ele><time>2014-10-16T1:12:45Z</time></trkpt>
<trkpt lat="46.1732292175292969" lon="7.8078584671020508"><ele></ele><time>2014-10-16T1:12:48Z</time></trkpt>
<trkpt lat="46.1732711791992188" lon="7.8079686164855957"><ele></ele><time>2014-10-16T1:12:51Z</time></trkpt>
<trkpt lat="46.1733016967773438" lon="7.8080449104309082"><ele></ele><time>2014-10-16T1:12:54Z</time></trkpt>
<trkpt lat="46.1733551025390625" lon="7.8081297874450684"><ele></ele><time>2014-10-16T1:12:57Z</time></trkpt>
<trkpt lat="46.1733856201171875" lon="7.8082103729248047"><ele></ele><time>2014-10-16T1:13:0Z</time></trkpt>
<trkpt lat="46.1734161376953125" lon="7.8083038330078125"><ele></ele><time>2014-10-16T1:13:3Z</time></trkpt>
<trkpt lat="46.1734466552734375" lon="7.8083939552307129"><ele></ele><time>2014-10-16T1:13:6Z</time></trkpt>
<trkpt lat="46.1734733581542969" lon="7.8084511756896973"><ele></ele><time>2014-10-16T1:13:9Z</time></trkpt>
<trkpt lat="46.1735076904296875" lon="7.8085460662841797"><ele></ele><time>2014-10-16T1:13:12Z</time></trkpt>
<trkpt lat="46.1735458374023438" lon="7.8086318969726562"><ele></ele><time>2014-10-16T1:13:15Z</time></trkpt>
<trkpt lat="46.1735801696777344" lon="7.8087086677551270"><ele></ele><time>2014-10-16T1:13:18Z</time></trkpt>
<trkpt lat="46.1736030578613281" lon="7.8087801933288574"><ele></ele><time>2014-10-16T1:13:21Z</time></trkpt>
<trkpt lat="46.1736221313476562" lon="7.8088321685791016"><ele></ele><time>2014-10-16T1:13:24Z</time></trkpt>
<trkpt lat="46.1736640930175781" lon="7.8089041709899902"><ele></ele><time>2014-10-16T1:13:27Z</time></trkpt>
<trkpt lat="46.1736869812011719" lon="7.8089957237243652"><ele></ele><time>2014-10-16T1:13:30Z</time></trkpt>
<trkpt lat="46.1736984252929688" lon="7.8090639114379883"><ele></ele><time>2014-10-16T1:13:33Z</time></trkpt>
<trkpt lat="46.1737365722656250" lon="7.8091549873352051"><ele></ele><time>2014-10-16T1:13:36Z</time></trkpt>
<trkpt lat="46.1737785339355469" lon="7.8092460632324219"><ele></ele><time>2014-10-16T1:13:39Z</time></trkpt>
<trkpt lat="46.1738090515136719" lon="7.8092999458312988"><ele></ele><time>2014-10-16T1:13:42Z</time></trkpt>
<trkpt lat="46.1738662719726562" lon="7.8093762397766113"><ele></ele><time>2014-10-16T1:13:45Z</time></trkpt>
<trkpt lat="46.1739120483398438" lon="7.8094744682312012"><ele></ele><time>2014-10-16T1:13:48Z</time></trkpt>
<trkpt lat="46.1739425659179688" lon="7.8095350265502930"><ele></ele><time>2014-10-16T1:13:51Z</time></trkpt>
<trkpt lat="46.1739730834960938" lon="7.8096237182617188"><ele></ele><time>2014-10-16T1:13:54Z</time></trkpt>
<trkpt lat="46.1739921569824219" lon="7.8096871376037598"><ele></ele><time>2014-10-16T1:13:57Z</time></trkpt>
<trkpt lat="46.1740188598632812" lon="7.8097572326660156"><ele></ele><time>2014-10-16T1:14:0Z</time></trkpt>
<trkpt lat="46.1740684509277344" lon="7.8098435401916504"><ele></ele><time>2014-10-16T1:14:3Z</time></trkpt>
<trkpt lat="46.1741180419921875" lon="7.8099160194396973"><ele></ele><time>2014-10-16T1:14:6Z</time></trkpt>
<trkpt lat="46.1741523742675781" lon="7.8099560737609863"><ele></ele><time>2014-10-16T1:14:9Z</time></trkpt>
<trkpt lat="46.1741867065429688" lon="7.8099937438964844"><ele></ele><time>2014-10-16T1:14:12Z</time></trkpt>
<trkpt lat="46.1742401123046875" lon="7.8100538253784180"><ele></ele><time>2014-10-16T1:14:15Z</time></trkpt>
<trkpt lat="46.1742858886718750" lon="7.8101363182067871"><ele></ele><time>2014-10-16T1:14:18Z</time></trkpt>
<trkpt lat="46.1743125915527344" lon="7.8101963996887207"><ele></ele><time>2014-10-16T1:14:21Z</time></trkpt>
<trkpt lat="46.1743545532226562" lon="7.8103070259094238"><ele></ele><time>2014-10-16T1:14:24Z</time></trkpt>
<trkpt lat="46.1743927001953125" lon="7.8104138374328613"><ele></ele><time>2014-10-16T1:14:27Z</time></trkpt>
<trkpt lat="46.1744384765625000" lon="7.8105344772338867"><ele></ele><time>2014-10-16T1:14:30Z</time></trkpt>
<trkpt lat="46.1745109558105469" lon="7.8106822967529297"><ele></ele><time>2014-10-16T1:14:33Z</time></trkpt>
<trkpt lat="46.1745681762695312" lon="7.8107881546020508"><ele></ele><time>2014-10-16T1:14:36Z</time></trkpt>
<trkpt lat="46.1746559143066406" lon="7.8108921051025391"><ele></ele><time>2014-10-16T1:14:39Z</time></trkpt>
<trkpt lat="46.1747093200683594" lon="7.8109011650085449"><ele></ele><time>2014-10-16T1:14:42Z</time></trkpt>
<trkpt lat="46.1747550964355469" lon="7.8108372688293457"><ele></ele><time>2014-10-16T1:14:45Z</time></trkpt>
<trkpt lat="46.1748085021972656" lon="7.8106989860534668"><ele></ele><time>2014-10-16T1:14:48Z</time></trkpt>
<trkpt lat="46.1748657226562500" lon="7.8105602264404297"><ele></ele><time>2014-10-16T1:14:51Z</time></trkpt>
<trkpt lat="46.1749458312988281" lon="7.8105072975158691"><ele></ele><time>2014-10-16T1:14:54Z</time></trkpt>
<trkpt lat="46.1749992370605469" lon="7.8105006217956543"><ele></ele><time>2014-10-16T1:14:57Z</time></trkpt>
<trkpt lat="46.1750755310058594" lon="7.8104772567749023"><ele></ele><time>2014-10-16T1:15:0Z</time></trkpt>
<trkpt lat="46.1751289367675781" lon="7.8105154037475586"><ele></ele><time>2014-10-16T1:15:3Z</time></trkpt>
<trkpt lat="46.1751785278320312" lon="7.8106074333190918"><ele></ele><time>2014-10-16T1:15:6Z</time></trkpt>
<trkpt lat="46.1752433776855469" lon="7.8107185363769531"><ele></ele><time>2014-10-16T1:15:9Z</time></trkpt>
<trkpt lat="46.1752853393554688" lon="7.8107852935791016"><ele></ele><time>2014-10-16T1:15:12Z</time></trkpt>
<trkpt lat="46.1753463745117188" lon="7.8108687400817871"><ele></ele><time>2014-10-16T1:15:15Z</time></trkpt>
<trkpt lat="46.1754074096679688" lon="7.8109650611877441"><ele></ele><time>2014-10-16T1:15:18Z</time></trkpt>
<trkpt lat="46.1754646301269531" lon="7.8110532760620117"><ele></ele><time>2014-10-16T1:15:21Z</time></trkpt>
<trkpt lat="46.1755027770996094" lon="7.8111114501953125"><ele></ele><time>2014-10-16T1:15:24Z</time></trkpt>
<trkpt lat="46.1755294799804688" lon="7.8112158775329590"><ele></ele><time>2014-10-16T1:15:27Z</time></trkpt>
<trkpt lat="46.1755218505859375" lon="7.8112950325012207"><ele></ele><time>2014-10-16T1:15:30Z</time></trkpt>
<trkpt lat="46.1755180358886719" lon="7.8113632202148438"><ele></ele><time>2014-10-16T1:15:33Z</time></trkpt>
<trkpt lat="46.1755332946777344" lon="7.8114290237426758"><ele></ele><time>2014-10-16T1:15:36Z</time></trkpt>
<trkpt lat="46.1755676269531250" lon="7.8115196228027344"><ele></ele><time>2014-10-16T1:15:39Z</time></trkpt>
<trkpt lat="46.1755905151367188" lon="7.8115801811218262"><ele></ele><time>2014-10-16T1:15:42Z</time></trkpt>
<trkpt lat="46.1756019592285156" lon="7.8116569519042969"><ele></ele><time>2014-10-16T1:15:45Z</time></trkpt>
<trkpt lat="46.1756172180175781" lon="7.8117685317993164"><ele></ele><time>2014-10-16T1:15:48Z</time></trkpt>
<trkpt lat="46.1756668090820312" lon="7.8118786811828613"><ele></ele><time>2014-10-16T1:15:51Z</time></trkpt>
<trkpt lat="46.1757431030273438" lon="7.8119521141052246"><ele></ele><time>2014-10-16T1:15:54Z</time></trkpt>
<trkpt lat="46.1758308410644531" lon="7.8120198249816895"><ele></ele><time>2014-10-16T1:15:57Z</time></trkpt>
<trkpt lat="46.1759109497070312" lon="7.8120799064636230"><ele></ele><time>2014-10-16T1:16:0Z</time></trkpt>
<trkpt lat="46.1759605407714844" lon="7.8121204376220703"><ele></ele><time>2014-10-16T1:16:3Z</time></trkpt>
<trkpt lat="46.1760063171386719" lon="7.8121595382690430"><ele></ele><time>2014-10-16T1:16:6Z</time></trkpt>
<trkpt lat="46.1760711669921875" lon="7.8122367858886719"><ele></ele><time>2014-10-16T1:16:9Z</time></trkpt>
<trkpt lat="46.1761131286621094" lon="7.8123192787170410"><ele></ele><time>2014-10-16T1:16:12Z</time></trkpt>
<trkpt lat="46.1761512756347656" lon="7.8123865127563477"><ele></ele><time>2014-10-16T1:16:15Z</time></trkpt>
<trkpt lat="46.1762046813964844" lon="7.8124413490295410"><ele></ele><time>2014-10-16T1:16:18Z</time></trkpt>
<trkpt lat="46.1763801574707031" lon="7.8125672340393066"><ele></ele><time>2014-10-16T1:16:21Z</time></trkpt>
<trkpt lat="46.1764411926269531" lon="7.8126816749572754"><ele></ele><time>2014-10-16T1:16:24Z</time></trkpt>
<trkpt lat="46.1764640808105469" lon="7.8127741813659668"><ele></ele><time>2014-10-16T1:16:27Z</time></trkpt>
<trkpt lat="46.1765136718750000" lon="7.8128967285156250"><ele></ele><time>2014-10-16T1:16:30Z</time></trkpt>
<trkpt lat="46.1765556335449219" lon="7.8129458427429199"><ele></ele><time>2014-10-16T1:16:33Z</time></trkpt>
<trkpt lat="46.1766014099121094" lon="7.8129682540893555"><ele></ele><time>2014-10-16T1:16:36Z</time></trkpt>
<trkpt lat="46.1766738891601562" lon="7.8129634857177734"><ele></ele><time>2014-10-16T1:16:39Z</time></trkpt>
<trkpt lat="46.1767501831054688" lon="7.8129439353942871"><ele></ele><time>2014-10-16T1:16:42Z</time></trkpt>
<trkpt lat="46.1768226623535156" lon="7.8129677772521973"><ele></ele><time>2014-10-16T1:16:45Z</time></trkpt>
<trkpt lat="46.1768760681152344" lon="7.8129901885986328"><ele></ele><time>2014-10-16T1:16:48Z</time></trkpt>
<trkpt lat="46.1769256591796875" lon="7.8130121231079102"><ele></ele><time>2014-10-16T1:16:51Z</time></trkpt>
<trkpt lat="46.1770019531250000" lon="7.8130421638488770"><ele></ele><time>2014-10-16T1:16:54Z</time></trkpt>
<trkpt lat="46.1770515441894531" lon="7.8130555152893066"><ele></ele><time>2014-10-16T1:16:57Z</time></trkpt>
<trkpt lat="46.1771316528320312" lon="7.8130884170532227"><ele></ele><time>2014-10-16T1:17:0Z</time></trkpt>
<trkpt lat="46.1771965026855469" lon="7.8131809234619141"><ele></ele><time>2014-10-16T1:17:3Z</time></trkpt>
<trkpt lat="46.1772384643554688" lon="7.8132753372192383"><ele></ele><time>2014-10-16T1:17:6Z</time></trkpt>
<trkpt lat="46.1772613525390625" lon="7.8133358955383301"><ele></ele><time>2014-10-16T1:17:9Z</time></trkpt>
<trkpt lat="46.1773033142089844" lon="7.8134303092956543"><ele></ele><time>2014-10-16T1:17:12Z</time></trkpt>
<trkpt lat="46.1773567199707031" lon="7.8135056495666504"><ele></ele><time>2014-10-16T1:17:15Z</time></trkpt>
<trkpt lat="46.1774215698242188" lon="7.8135457038879395"><ele></ele><time>2014-10-16T1:17:18Z</time></trkpt>
<trkpt lat="46.1774673461914062" lon="7.8135762214660645"><ele></ele><time>2014-10-16T1:17:21Z</time></trkpt>
<trkpt lat="46.1775131225585938" lon="7.8136034011840820"><ele></ele><time>2014-10-16T1:17:24Z</time></trkpt>
<trkpt lat="46.1775894165039062" lon="7.8136491775512695"><ele></ele><time>2014-10-16T1:17:27Z</time></trkpt>
<trkpt lat="46.1776237487792969" lon="7.8136873245239258"><ele></ele><time>2014-10-16T1:17:30Z</time></trkpt>
<trkpt lat="46.1776733398437500" lon="7.8137683868408203"><ele></ele><time>2014-10-16T1:17:33Z</time></trkpt>
<trkpt lat="46.1776885986328125" lon="7.8138508796691895"><ele></ele><time>2014-10-16T1:17:36Z</time></trkpt>
<trkpt lat="46.1777267456054688" lon="7.8139710426330566"><ele></ele><time>2014-10-16T1:17:39Z</time></trkpt>
<trkpt lat="46.1777725219726562" lon="7.8140711784362793"><ele></ele><time>2014-10-16T1:17:42Z</time></trkpt>
<trkpt lat="46.1778221130371094" lon="7.8141617774963379"><ele></ele><time>2014-10-16T1:17:45Z</time></trkpt>
<trkpt lat="46.1778450012207031" lon="7.8142285346984863"><ele></ele><time>2014-10-16T1:17:48Z</time></trkpt>
<trkpt lat="46.1778526306152344" lon="7.8143019676208496"><ele></ele><time>2014-10-16T1:17:51Z</time></trkpt>
<trkpt lat="46.1778678894042969" lon="7.8144397735595703"><ele></ele><time>2014-10-16T1:17:54Z</time></trkpt>
<trkpt lat="46.1778678894042969" lon="7.8145394325256348"><ele></ele><time>2014-10-16T1:17:57Z</time></trkpt>
<trkpt lat="46.1778182983398438" lon="7.8146471977233887"><ele></ele><time>2014-10-16T1:18:0Z</time></trkpt>
<trkpt lat="46.1777534484863281" lon="7.8146052360534668"><ele></ele><time>2014-10-16T1:18:3Z</time></trkpt>
<trkpt lat="46.1777191162109375" lon="7.8145275115966797"><ele></ele><time>2014-10-16T1:18:6Z</time></trkpt>
<trkpt lat="46.1776924133300781" lon="7.8144040107727051"><ele></ele><time>2014-10-16T1:18:9Z</time></trkpt>
<trkpt lat="46.1776885986328125" lon="7.8143258094787598"><ele></ele><time>2014-10-16T1:18:12Z</time></trkpt>
<trkpt lat="46.1776542663574219" lon="7.8142347335815430"><ele></ele><time>2014-10-16T1:18:15Z</time></trkpt>
<trkpt lat="46.1775970458984375" lon="7.8141722679138184"><ele></ele><time>2014-10-16T1:18:18Z</time></trkpt>
<trkpt lat="46.1775321960449219" lon="7.8141074180603027"><ele></ele><time>2014-10-16T1:18:21Z</time></trkpt>
<trkpt lat="46.1774940490722656" lon="7.8140578269958496"><ele></ele><time>2014-10-16T1:18:24Z</time></trkpt>
<trkpt lat="46.1774444580078125" lon="7.8139920234680176"><ele></ele><time>2014-10-16T1:18:27Z</time></trkpt>
<trkpt lat="46.1774024963378906" lon="7.8139595985412598"><ele></ele><time>2014-10-16T1:18:30Z</time></trkpt>
<trkpt lat="46.1773300170898438" lon="7.8139553070068359"><ele></ele><time>2014-10-16T1:18:33Z</time></trkpt>
<trkpt lat="46.1772613525390625" lon="7.8139877319335938"><ele></ele><time>2014-10-16T1:18:36Z</time></trkpt>
<trkpt lat="46.1772079467773438" lon="7.8139934539794922"><ele></ele><time>2014-10-16T1:18:39Z</time></trkpt>
<trkpt lat="46.1771392822265625" lon="7.8139739036560059"><ele></ele><time>2014-10-16T1:18:42Z</time></trkpt>
<trkpt lat="46.1770858764648438" lon="7.8139467239379883"><ele></ele><time>2014-10-16T1:18:45Z</time></trkpt>
<trkpt lat="46.1770133972167969" lon="7.8138904571533203"><ele></ele><time>2014-10-16T1:18:48Z</time></trkpt>
<trkpt lat="46.1769676208496094" lon="7.8138518333435059"><ele></ele><time>2014-10-16T1:18:51Z</time></trkpt>
<trkpt lat="46.1768951416015625" lon="7.8138170242309570"><ele></ele><time>2014-10-16T1:18:54Z</time></trkpt>
<trkpt lat="46.1768455505371094" lon="7.8138027191162109"><ele></ele><time>2014-10-16T1:18:57Z</time></trkpt>
<trkpt lat="46.1767959594726562" lon="7.8137927055358887"><ele></ele><time>2014-10-16T1:19:0Z</time></trkpt>
<trkpt lat="46.1767234802246094" lon="7.8137817382812500"><ele></ele><time>2014-10-16T1:19:3Z</time></trkpt>
<trkpt lat="46.1766777038574219" lon="7.8137817382812500"><ele></ele><time>2014-10-16T1:19:6Z</time></trkpt>
<trkpt lat="46.1766281127929688" lon="7.8137855529785156"><ele></ele><time>2014-10-16T1:19:9Z</time></trkpt>
<trkpt lat="46.1765708923339844" lon="7.8137912750244141"><ele></ele><time>2014-10-16T1:19:12Z</time></trkpt>
<trkpt lat="46.1765289306640625" lon="7.8138041496276855"><ele></ele><time>2014-10-16T1:19:15Z</time></trkpt>
<trkpt lat="46.1765136718750000" lon="7.8138017654418945"><ele></ele><time>2014-10-16T1:19:18Z</time></trkpt>
<trkpt lat="46.1764640808105469" lon="7.8137965202331543"><ele></ele><time>2014-10-16T1:19:21Z</time></trkpt>
<trkpt lat="46.1763801574707031" lon="7.8137927055358887"><ele></ele><time>2014-10-16T1:19:24Z</time></trkpt>
<trkpt lat="46.1763229370117188" lon="7.8137917518615723"><ele></ele><time>2014-10-16T1:19:27Z</time></trkpt>
<trkpt lat="46.1762390136718750" lon="7.8137912750244141"><ele></ele><time>2014-10-16T1:19:30Z</time></trkpt>
<trkpt lat="46.1761741638183594" lon="7.8137955665588379"><ele></ele><time>2014-10-16T1:19:33Z</time></trkpt>
<trkpt lat="46.1761283874511719" lon="7.8137893676757812"><ele></ele><time>2014-10-16T1:19:36Z</time></trkpt>
<trkpt lat="46.1760330200195312" lon="7.8137750625610352"><ele></ele><time>2014-10-16T1:19:39Z</time></trkpt>
<trkpt lat="46.1759681701660156" lon="7.8137660026550293"><ele></ele><time>2014-10-16T1:19:42Z</time></trkpt>
<trkpt lat="46.1758995056152344" lon="7.8137664794921875"><ele></ele><time>2014-10-16T1:19:45Z</time></trkpt>
<trkpt lat="46.1758537292480469" lon="7.8137674331665039"><ele></ele><time>2014-10-16T1:19:48Z</time></trkpt>
<trkpt lat="46.1757698059082031" lon="7.8137626647949219"><ele></ele><time>2014-10-16T1:19:51Z</time></trkpt>
<trkpt lat="46.1757240295410156" lon="7.8137621879577637"><ele></ele><time>2014-10-16T1:19:54Z</time></trkpt>
<trkpt lat="46.1756591796875000" lon="7.8137593269348145"><ele></ele><time>2014-10-16T1:19:57Z</time></trkpt>
<trkpt lat="46.1755867004394531" lon="7.8137531280517578"><ele></ele><time>2014-10-16T1:20:0Z</time></trkpt>
<trkpt lat="46.1755409240722656" lon="7.8137569427490234"><ele></ele><time>2014-10-16T1:20:3Z</time></trkpt>
<trkpt lat="46.1754417419433594" lon="7.8137655258178711"><ele></ele><time>2014-10-16T1:20:6Z</time></trkpt>
<trkpt lat="46.1753921508789062" lon="7.8137531280517578"><ele></ele><time>2014-10-16T1:20:9Z</time></trkpt>
<trkpt lat="46.1753387451171875" lon="7.8137373924255371"><ele></ele><time>2014-10-16T1:20:12Z</time></trkpt>
<trkpt lat="46.1752929687500000" lon="7.8137149810791016"><ele></ele><time>2014-10-16T1:20:15Z</time></trkpt>
<trkpt lat="46.1752319335937500" lon="7.8136687278747559"><ele></ele><time>2014-10-16T1:20:18Z</time></trkpt>
<trkpt lat="46.1751670837402344" lon="7.8136324882507324"><ele></ele><time>2014-10-16T1:20:21Z</time></trkpt>
<trkpt lat="46.1751251220703125" lon="7.8136153221130371"><ele></ele><time>2014-10-16T1:20:24Z</time></trkpt>
<trkpt lat="46.1750564575195312" lon="7.8135957717895508"><ele></ele><time>2014-10-16T1:20:27Z</time></trkpt>
<trkpt lat="46.1750106811523438" lon="7.8135795593261719"><ele></ele><time>2014-10-16T1:20:30Z</time></trkpt>
<trkpt lat="46.1749382019042969" lon="7.8135581016540527"><ele></ele><time>2014-10-16T1:20:33Z</time></trkpt>
<trkpt lat="46.1748847961425781" lon="7.8135380744934082"><ele></ele><time>2014-10-16T1:20:36Z</time></trkpt>
<trkpt lat="46.1748275756835938" lon="7.8135147094726562"><ele></ele><time>2014-10-16T1:20:39Z</time></trkpt>
<trkpt lat="46.1747512817382812" lon="7.8134818077087402"><ele></ele><time>2014-10-16T1:20:42Z</time></trkpt>
<trkpt lat="46.1747016906738281" lon="7.8134574890136719"><ele></ele><time>2014-10-16T1:20:45Z</time></trkpt>
<trkpt lat="46.1746406555175781" lon="7.8134102821350098"><ele></ele><time>2014-10-16T1:20:48Z</time></trkpt>
<trkpt lat="46.1745910644531250" lon="7.8133802413940430"><ele></ele><time>2014-10-16T1:20:51Z</time></trkpt>
<trkpt lat="46.1745414733886719" lon="7.8133549690246582"><ele></ele><time>2014-10-16T1:20:54Z</time></trkpt>
<trkpt lat="46.1744575500488281" lon="7.8133091926574707"><ele></ele><time>2014-10-16T1:20:57Z</time></trkpt>
<trkpt lat="46.1744041442871094" lon="7.8132653236389160"><ele></ele><time>2014-10-16T1:21:0Z</time></trkpt>
<trkpt lat="46.1743392944335938" lon="7.8131790161132812"><ele></ele><time>2014-10-16T1:21:3Z</time></trkpt>
<trkpt lat="46.1743049621582031" lon="7.8130655288696289"><ele></ele><time>2014-10-16T1:21:6Z</time></trkpt>
<trkpt lat="46.1742553710937500" lon="7.8129692077636719"><ele></ele><time>2014-10-16T1:21:9Z</time></trkpt>
<trkpt lat="46.1742248535156250" lon="7.8129057884216309"><ele></ele><time>2014-10-16T1:21:12Z</time></trkpt>
<trkpt lat="46.1741828918457031" lon="7.8128108978271484"><ele></ele><time>2014-10-16T1:21:15Z</time></trkpt>
<trkpt lat="46.1741523742675781" lon="7.8127484321594238"><ele></ele><time>2014-10-16T1:21:18Z</time></trkpt>
<trkpt lat="46.1741256713867188" lon="7.8126873970031738"><ele></ele><time>2014-10-16T1:21:21Z</time></trkpt>
<trkpt lat="46.1740570068359375" lon="7.8125886917114258"><ele></ele><time>2014-10-16T1:21:24Z</time></trkpt>
<trkpt lat="46.1740188598632812" lon="7.8125309944152832"><ele></ele><time>2014-10-16T1:21:27Z</time></trkpt>
<trkpt lat="46.1739578247070312" lon="7.8125190734863281"><ele></ele><time>2014-10-16T1:21:30Z</time></trkpt>
<trkpt lat="46.1739387512207031" lon="7.8126425743103027"><ele></ele><time>2014-10-16T1:21:33Z</time></trkpt>
<trkpt lat="46.1739654541015625" lon="7.8127441406250000"><ele></ele><time>2014-10-16T1:21:36Z</time></trkpt>
<trkpt lat="46.1739997863769531" lon="7.8128328323364258"><ele></ele><time>2014-10-16T1:21:39Z</time></trkpt>
<trkpt lat="46.1740341186523438" lon="7.8129305839538574"><ele></ele><time>2014-10-16T1:21:42Z</time></trkpt>
<trkpt lat="46.1740646362304688" lon="7.8129887580871582"><ele></ele><time>2014-10-16T1:21:45Z</time></trkpt>
<trkpt lat="46.1740837097167969" lon="7.8130393028259277"><ele></ele><time>2014-10-16T1:21:48Z</time></trkpt>
<trkpt lat="46.1741142272949219" lon="7.8131117820739746"><ele></ele><time>2014-10-16T1:21:51Z</time></trkpt>
<trkpt lat="46.1741371154785156" lon="7.8131780624389648"><ele></ele><time>2014-10-16T1:21:54Z</time></trkpt>
<trkpt lat="46.1741714477539062" lon="7.8132686614990234"><ele></ele><time>2014-10-16T1:21:57Z</time></trkpt>
<trkpt lat="46.1741943359375000" lon="7.8133373260498047"><ele></ele><time>2014-10-16T1:22:0Z</time></trkpt>
<trkpt lat="46.1742172241210938" lon="7.8134021759033203"><ele></ele><time>2014-10-16T1:22:3Z</time></trkpt>
<trkpt lat="46.1742668151855469" lon="7.8134665489196777"><ele></ele><time>2014-10-16T1:22:6Z</time></trkpt>
<trkpt lat="46.1743087768554688" lon="7.8134922981262207"><ele></ele><time>2014-10-16T1:22:9Z</time></trkpt>
<trkpt lat="46.1743354797363281" lon="7.8135280609130859"><ele></ele><time>2014-10-16T1:22:12Z</time></trkpt>
<trkpt lat="46.1743659973144531" lon="7.8135590553283691"><ele></ele><time>2014-10-16T1:22:15Z</time></trkpt>
<trkpt lat="46.1744117736816406" lon="7.8136110305786133"><ele></ele><time>2014-10-16T1:22:18Z</time></trkpt>
<trkpt lat="46.1744346618652344" lon="7.8136620521545410"><ele></ele><time>2014-10-16T1:22:21Z</time></trkpt>
<trkpt lat="46.1744766235351562" lon="7.8137063980102539"><ele></ele><time>2014-10-16T1:22:24Z</time></trkpt>
<trkpt lat="46.1745033264160156" lon="7.8137359619140625"><ele></ele><time>2014-10-16T1:22:27Z</time></trkpt>
<trkpt lat="46.1745643615722656" lon="7.8138017654418945"><ele></ele><time>2014-10-16T1:22:30Z</time></trkpt>
<trkpt lat="46.1746025085449219" lon="7.8138437271118164"><ele></ele><time>2014-10-16T1:22:33Z</time></trkpt>
<trkpt lat="46.1746482849121094" lon="7.8138742446899414"><ele></ele><time>2014-10-16T1:22:36Z</time></trkpt>
<trkpt lat="46.1747055053710938" lon="7.8139410018920898"><ele></ele><time>2014-10-16T1:22:39Z</time></trkpt>
<trkpt lat="46.1747474670410156" lon="7.8140063285827637"><ele></ele><time>2014-10-16T1:22:42Z</time></trkpt>
<trkpt lat="46.1747932434082031" lon="7.8140506744384766"><ele></ele><time>2014-10-16T1:22:45Z</time></trkpt>
<trkpt lat="46.1748352050781250" lon="7.8141093254089355"><ele></ele><time>2014-10-16T1:22:48Z</time></trkpt>
<trkpt lat="46.1748695373535156" lon="7.8141627311706543"><ele></ele><time>2014-10-16T1:22:51Z</time></trkpt>
<trkpt lat="46.1749000549316406" lon="7.8142118453979492"><ele></ele><time>2014-10-16T1:22:54Z</time></trkpt>
<trkpt lat="46.1749267578125000" lon="7.8142642974853516"><ele></ele><time>2014-10-16T1:22:57Z</time></trkpt>
<trkpt lat="46.1749649047851562" lon="7.8143458366394043"><ele></ele><time>2014-10-16T1:23:0Z</time></trkpt>
<trkpt lat="46.1749992370605469" lon="7.8143992424011230"><ele></ele><time>2014-10-16T1:23:3Z</time></trkpt>
<trkpt lat="46.1750602722167969" lon="7.8144664764404297"><ele></ele><time>2014-10-16T1:23:6Z</time></trkpt>
<trkpt lat="46.1750984191894531" lon="7.8145174980163574"><ele></ele><time>2014-10-16T1:23:9Z</time></trkpt>
<trkpt lat="46.1751327514648438" lon="7.8145852088928223"><ele></ele><time>2014-10-16T1:23:12Z</time></trkpt>
<trkpt lat="46.1751747131347656" lon="7.8146843910217285"><ele></ele><time>2014-10-16T1:23:15Z</time></trkpt>
<trkpt lat="46.1752014160156250" lon="7.8147430419921875"><ele></ele><time>2014-10-16T1:23:18Z</time></trkpt>
<trkpt lat="46.1752510070800781" lon="7.8148221969604492"><ele></ele><time>2014-10-16T1:23:21Z</time></trkpt>
<trkpt lat="46.1753044128417969" lon="7.8148860931396484"><ele></ele><time>2014-10-16T1:23:24Z</time></trkpt>
<trkpt lat="46.1753616333007812" lon="7.8149476051330566"><ele></ele><time>2014-10-16T1:23:27Z</time></trkpt>
<trkpt lat="46.1753997802734375" lon="7.8149871826171875"><ele></ele><time>2014-10-16T1:23:30Z</time></trkpt>
<trkpt lat="46.1754379272460938" lon="7.8150210380554199"><ele></ele><time>2014-10-16T1:23:33Z</time></trkpt>
<trkpt lat="46.1755027770996094" lon="7.8150739669799805"><ele></ele><time>2014-10-16T1:23:36Z</time></trkpt>
<trkpt lat="46.1755485534667969" lon="7.8151211738586426"><ele></ele><time>2014-10-16T1:23:39Z</time></trkpt>
<trkpt lat="46.1756057739257812" lon="7.8151664733886719"><ele></ele><time>2014-10-16T1:23:42Z</time></trkpt>
<trkpt lat="46.1756439208984375" lon="7.8152036666870117"><ele></ele><time>2014-10-16T1:23:45Z</time></trkpt>
<trkpt lat="46.1756706237792969" lon="7.8152508735656738"><ele></ele><time>2014-10-16T1:23:48Z</time></trkpt>
<trkpt lat="46.1757164001464844" lon="7.8153200149536133"><ele></ele><time>2014-10-16T1:23:51Z</time></trkpt>
<trkpt lat="46.1757545471191406" lon="7.8153638839721680"><ele></ele><time>2014-10-16T1:23:54Z</time></trkpt>
<trkpt lat="46.1758155822753906" lon="7.8154234886169434"><ele></ele><time>2014-10-16T1:23:57Z</time></trkpt>
<trkpt lat="46.1758728027343750" lon="7.8154835700988770"><ele></ele><time>2014-10-16T1:24:0Z</time></trkpt>
<trkpt lat="46.1759109497070312" lon="7.8155274391174316"><ele></ele><time>2014-10-16T1:24:3Z</time></trkpt>
<trkpt lat="46.1759452819824219" lon="7.8155703544616699"><ele></ele><time>2014-10-16T1:24:6Z</time></trkpt>
<trkpt lat="46.1759872436523438" lon="7.8156318664550781"><ele></ele><time>2014-10-16T1:24:9Z</time></trkpt>
<trkpt lat="46.1760215759277344" lon="7.8156628608703613"><ele></ele><time>2014-10-16T1:24:12Z</time></trkpt>
<trkpt lat="46.1760711669921875" lon="7.8157181739807129"><ele></ele><time>2014-10-16T1:24:15Z</time></trkpt>
<trkpt lat="46.1761054992675781" lon="7.8157539367675781"><ele></ele><time>2014-10-16T1:24:18Z</time></trkpt>
<trkpt lat="46.1761436462402344" lon="7.8157925605773926"><ele></ele><time>2014-10-16T1:24:21Z</time></trkpt>
<trkpt lat="46.1761970520019531" lon="7.8158559799194336"><ele></ele><time>2014-10-16T1:24:24Z</time></trkpt>
<trkpt lat="46.1762351989746094" lon="7.8158931732177734"><ele></ele><time>2014-10-16T1:24:27Z</time></trkpt>
<trkpt lat="46.1762886047363281" lon="7.8159465789794922"><ele></ele><time>2014-10-16T1:24:30Z</time></trkpt>
<trkpt lat="46.1763305664062500" lon="7.8159856796264648"><ele></ele><time>2014-10-16T1:24:33Z</time></trkpt>
<trkpt lat="46.1763648986816406" lon="7.8160195350646973"><ele></ele><time>2014-10-16T1:24:36Z</time></trkpt>
<trkpt lat="46.1764030456542969" lon="7.8160557746887207"><ele></ele><time>2014-10-16T1:24:39Z</time></trkpt>
<trkpt lat="46.1764640808105469" lon="7.8160977363586426"><ele></ele><time>2014-10-16T1:24:42Z</time></trkpt>
<trkpt lat="46.1765022277832031" lon="7.8161158561706543"><ele></ele><time>2014-10-16T1:24:45Z</time></trkpt>
<trkpt lat="46.1765403747558594" lon="7.8161225318908691"><ele></ele><time>2014-10-16T1:24:48Z</time></trkpt>
<trkpt lat="46.1766014099121094" lon="7.8161497116088867"><ele></ele><time>2014-10-16T1:24:51Z</time></trkpt>
<trkpt lat="46.1766624450683594" lon="7.8161911964416504"><ele></ele><time>2014-10-16T1:24:54Z</time></trkpt>
<trkpt lat="46.1767196655273438" lon="7.8162794113159180"><ele></ele><time>2014-10-16T1:24:57Z</time></trkpt>
<trkpt lat="46.1767463684082031" lon="7.8163356781005859"><ele></ele><time>2014-10-16T1:25:0Z</time></trkpt>
<trkpt lat="46.1767692565917969" lon="7.8163928985595703"><ele></ele><time>2014-10-16T1:25:3Z</time></trkpt>
<trkpt lat="46.1767883300781250" lon="7.8164944648742676"><ele></ele><time>2014-10-16T1:25:6Z</time></trkpt>
<trkpt lat="46.1767959594726562" lon="7.8165674209594727"><ele></ele><time>2014-10-16T1:25:9Z</time></trkpt>
<trkpt lat="46.1767845153808594" lon="7.8166356086730957"><ele></ele><time>2014-10-16T1:25:12Z</time></trkpt>
<trkpt lat="46.1767501831054688" lon="7.8167257308959961"><ele></ele><time>2014-10-16T1:25:15Z</time></trkpt>
<trkpt lat="46.1767272949218750" lon="7.8168168067932129"><ele></ele><time>2014-10-16T1:25:18Z</time></trkpt>
<trkpt lat="46.1767082214355469" lon="7.8168988227844238"><ele></ele><time>2014-10-16T1:25:21Z</time></trkpt>
<trkpt lat="46.1767120361328125" lon="7.8169574737548828"><ele></ele><time>2014-10-16T1:25:24Z</time></trkpt>
<trkpt lat="46.1767196655273438" lon="7.8170471191406250"><ele></ele><time>2014-10-16T1:25:27Z</time></trkpt>
<trkpt lat="46.1767158508300781" lon="7.8171100616455078"><ele></ele><time>2014-10-16T1:25:30Z</time></trkpt>
<trkpt lat="46.1766777038574219" lon="7.8171143531799316"><ele></ele><time>2014-10-16T1:25:33Z</time></trkpt>
<trkpt lat="46.1766395568847656" lon="7.8170585632324219"><ele></ele><time>2014-10-16T1:25:36Z</time></trkpt>
<trkpt lat="46.1766014099121094" lon="7.8169603347778320"><ele></ele><time>2014-10-16T1:25:39Z</time></trkpt>
<trkpt lat="46.1765937805175781" lon="7.8168778419494629"><ele></ele><time>2014-10-16T1:25:42Z</time></trkpt>
<trkpt lat="46.1765785217285156" lon="7.8167757987976074"><ele></ele><time>2014-10-16T1:25:45Z</time></trkpt>
<trkpt lat="46.1765365600585938" lon="7.8167028427124023"><ele></ele><time>2014-10-16T1:25:48Z</time></trkpt>
<trkpt lat="46.1764907836914062" lon="7.8166513442993164"><ele></ele><time>2014-10-16T1:25:51Z</time></trkpt>
<trkpt lat="46.1764297485351562" lon="7.8166079521179199"><ele></ele><time>2014-10-16T1:25:54Z</time></trkpt>
<trkpt lat="46.1763763427734375" lon="7.8166055679321289"><ele></ele><time>2014-10-16T1:25:57Z</time></trkpt>
<trkpt lat="46.1763076782226562" lon="7.8166155815124512"><ele></ele><time>2014-10-16T1:26:0Z</time></trkpt>
<trkpt lat="46.1762733459472656" lon="7.8166146278381348"><ele></ele><time>2014-10-16T1:26:3Z</time></trkpt>
<trkpt lat="46.1762428283691406" lon="7.8166103363037109"><ele></ele><time>2014-10-16T1:26:6Z</time></trkpt>
<trkpt lat="46.1761932373046875" lon="7.8165893554687500"><ele></ele><time>2014-10-16T1:26:9Z</time></trkpt>
<trkpt lat="46.1761436462402344" lon="7.8165636062622070"><ele></ele><time>2014-10-16T1:26:12Z</time></trkpt>
<trkpt lat="46.1760635375976562" lon="7.8165073394775391"><ele></ele><time>2014-10-16T1:26:15Z</time></trkpt>
<trkpt lat="46.1759986877441406" lon="7.8164243698120117"><ele></ele><time>2014-10-16T1:26:18Z</time></trkpt>
<trkpt lat="46.1759147644042969" lon="7.8163795471191406"><ele></ele><time>2014-10-16T1:26:21Z</time></trkpt>
<trkpt lat="46.1758537292480469" lon="7.8163561820983887"><ele></ele><time>2014-10-16T1:26:24Z</time></trkpt>
<trkpt lat="46.1758003234863281" lon="7.8163318634033203"><ele></ele><time>2014-10-16T1:26:27Z</time></trkpt>
<trkpt lat="46.1757240295410156" lon="7.8162946701049805"><ele></ele><time>2014-10-16T1:26:30Z</time></trkpt>
<trkpt lat="46.1756820678710938" lon="7.8162746429443359"><ele></ele><time>2014-10-16T1:26:33Z</time></trkpt>
<trkpt lat="46.1756134033203125" lon="7.8162355422973633"><ele></ele><time>2014-10-16T1:26:36Z</time></trkpt>
<trkpt lat="46.1755409240722656" lon="7.8162035942077637"><ele></ele><time>2014-10-16T1:26:39Z</time></trkpt>
<trkpt lat="46.1754722595214844" lon="7.8161807060241699"><ele></ele><time>2014-10-16T1:26:42Z</time></trkpt>
<trkpt lat="46.1754302978515625" lon="7.8161687850952148"><ele></ele><time>2014-10-16T1:26:45Z</time></trkpt>
<trkpt lat="46.1753845214843750" lon="7.8161559104919434"><ele></ele><time>2014-10-16T1:26:48Z</time></trkpt>
<trkpt lat="46.1753120422363281" lon="7.8161339759826660"><ele></ele><time>2014-10-16T1:26:51Z</time></trkpt>
<trkpt lat="46.1752662658691406" lon="7.8161149024963379"><ele></ele><time>2014-10-16T1:26:54Z</time></trkpt>
<trkpt lat="46.1751937866210938" lon="7.8160724639892578"><ele></ele><time>2014-10-16T1:26:57Z</time></trkpt>
<trkpt lat="46.1751518249511719" lon="7.8160357475280762"><ele></ele><time>2014-10-16T1:27:0Z</time></trkpt>
<trkpt lat="46.1751060485839844" lon="7.8159985542297363"><ele></ele><time>2014-10-16T1:27:3Z</time></trkpt>
<trkpt lat="46.1750488281250000" lon="7.8159270286560059"><ele></ele><time>2014-10-16T1:27:6Z</time></trkpt>
<trkpt lat="46.1750106811523438" lon="7.8158926963806152"><ele></ele><time>2014-10-16T1:27:9Z</time></trkpt>
<trkpt lat="46.1749534606933594" lon="7.8158426284790039"><ele></ele><time>2014-10-16T1:27:12Z</time></trkpt>
<trkpt lat="46.1749000549316406" lon="7.8157863616943359"><ele></ele><time>2014-10-16T1:27:15Z</time></trkpt>
<trkpt lat="46.1748428344726562" lon="7.8157367706298828"><ele></ele><time>2014-10-16T1:27:18Z</time></trkpt>
<trkpt lat="46.1748046875000000" lon="7.8157033920288086"><ele></ele><time>2014-10-16T1:27:21Z</time></trkpt>
<trkpt lat="46.1747474670410156" lon="7.8156590461730957"><ele></ele><time>2014-10-16T1:27:24Z</time></trkpt>
<trkpt lat="46.1747093200683594" lon="7.8156471252441406"><ele></ele><time>2014-10-16T1:27:27Z</time></trkpt>
<trkpt lat="46.1746673583984375" lon="7.8156352043151855"><ele></ele><time>2014-10-16T1:27:30Z</time></trkpt>
<trkpt lat="46.1746292114257812" lon="7.8156127929687500"><ele></ele><time>2014-10-16T1:27:33Z</time></trkpt>
<trkpt lat="46.1745948791503906" lon="7.8155779838562012"><ele></ele><time>2014-10-16T1:27:36Z</time></trkpt>
<trkpt lat="46.1745605468750000" lon="7.8155384063720703"><ele></ele><time>2014-10-16T1:27:39Z</time></trkpt>
<trkpt lat="46.1745033264160156" lon="7.8154835700988770"><ele></ele><time>2014-10-16T1:27:42Z</time></trkpt>
<trkpt lat="46.1744422912597656" lon="7.8154444694519043"><ele></ele><time>2014-10-16T1:27:45Z</time></trkpt>
<trkpt lat="46.1744079589843750" lon="7.8154129981994629"><ele></ele><time>2014-10-16T1:27:48Z</time></trkpt>
<trkpt lat="46.1743583679199219" lon="7.8153524398803711"><ele></ele><time>2014-10-16T1:27:51Z</time></trkpt>
<trkpt lat="46.1743049621582031" lon="7.8153076171875000"><ele></ele><time>2014-10-16T1:27:54Z</time></trkpt>
<trkpt lat="46.1742630004882812" lon="7.8152837753295898"><ele></ele><time>2014-10-16T1:27:57Z</time></trkpt>
<trkpt lat="46.1742172241210938" lon="7.8152604103088379"><ele></ele><time>2014-10-16T1:28:0Z</time></trkpt>
<trkpt lat="46.1741485595703125" lon="7.8152189254760742"><ele></ele><time>2014-10-16T1:28:3Z</time></trkpt>
<trkpt lat="46.1741027832031250" lon="7.8151926994323730"><ele></ele><time>2014-10-16T1:28:6Z</time></trkpt>
<trkpt lat="46.1740264892578125" lon="7.8151664733886719"><ele></ele><time>2014-10-16T1:28:9Z</time></trkpt>
<trkpt lat="46.1739807128906250" lon="7.8151535987854004"><ele></ele><time>2014-10-16T1:28:12Z</time></trkpt>
<trkpt lat="46.1739158630371094" lon="7.8151206970214844"><ele></ele><time>2014-10-16T1:28:15Z</time></trkpt>
<trkpt lat="46.1738777160644531" lon="7.8151049613952637"><ele></ele><time>2014-10-16T1:28:18Z</time></trkpt>
<trkpt lat="46.1738395690917969" lon="7.8151326179504395"><ele></ele><time>2014-10-16T1:28:21Z</time></trkpt>
<trkpt lat="46.1738395690917969" lon="7.8151779174804688"><ele></ele><time>2014-10-16T1:28:24Z</time></trkpt>
<trkpt lat="46.1738853454589844" lon="7.8151698112487793"><ele></ele><time>2014-10-16T1:28:27Z</time></trkpt>
<trkpt lat="46.1739273071289062" lon="7.8151531219482422"><ele></ele><time>2014-10-16T1:28:30Z</time></trkpt>
<trkpt lat="46.1740188598632812" lon="7.8151550292968750"><ele></ele><time>2014-10-16T1:28:33Z</time></trkpt>
<trkpt lat="46.1741714477539062" lon="7.8151798248291016"><ele></ele><time>2014-10-16T1:28:36Z</time></trkpt>
<trkpt lat="46.1742095947265625" lon="7.8152604103088379"><ele></ele><time>2014-10-16T1:28:39Z</time></trkpt>
<trkpt lat="46.1742286682128906" lon="7.8153352737426758"><ele></ele><time>2014-10-16T1:28:42Z</time></trkpt>
<trkpt lat="46.1742591857910156" lon="7.8154258728027344"><ele></ele><time>2014-10-16T1:28:45Z</time></trkpt>
<trkpt lat="46.1742897033691406" lon="7.8154983520507812"><ele></ele><time>2014-10-16T1:28:48Z</time></trkpt>
<trkpt lat="46.1743202209472656" lon="7.8155660629272461"><ele></ele><time>2014-10-16T1:28:51Z</time></trkpt>
<trkpt lat="46.1743698120117188" lon="7.8156538009643555"><ele></ele><time>2014-10-16T1:28:54Z</time></trkpt>
<trkpt lat="46.1744003295898438" lon="7.8156995773315430"><ele></ele><time>2014-10-16T1:28:57Z</time></trkpt>
<trkpt lat="46.1744461059570312" lon="7.8157658576965332"><ele></ele><time>2014-10-16T1:29:0Z</time></trkpt>
<trkpt lat="46.1744728088378906" lon="7.8158006668090820"><ele></ele><time>2014-10-16T1:29:3Z</time></trkpt>
<trkpt lat="46.1744918823242188" lon="7.8158388137817383"><ele></ele><time>2014-10-16T1:29:6Z</time></trkpt>
<trkpt lat="46.1745147705078125" lon="7.8159112930297852"><ele></ele><time>2014-10-16T1:29:9Z</time></trkpt>
<trkpt lat="46.1745147705078125" lon="7.8159790039062500"><ele></ele><time>2014-10-16T1:29:12Z</time></trkpt>
<trkpt lat="46.1745147705078125" lon="7.8160548210144043"><ele></ele><time>2014-10-16T1:29:15Z</time></trkpt>
<trkpt lat="46.1745223999023438" lon="7.8161263465881348"><ele></ele><time>2014-10-16T1:29:18Z</time></trkpt>
<trkpt lat="46.1745338439941406" lon="7.8162283897399902"><ele></ele><time>2014-10-16T1:29:21Z</time></trkpt>
<trkpt lat="46.1745452880859375" lon="7.8163342475891113"><ele></ele><time>2014-10-16T1:29:24Z</time></trkpt>
<trkpt lat="46.1745452880859375" lon="7.8164014816284180"><ele></ele><time>2014-10-16T1:29:27Z</time></trkpt>
<trkpt lat="46.1745452880859375" lon="7.8165006637573242"><ele></ele><time>2014-10-16T1:29:30Z</time></trkpt>
<trkpt lat="46.1745376586914062" lon="7.8166017532348633"><ele></ele><time>2014-10-16T1:29:33Z</time></trkpt>
<trkpt lat="46.1745223999023438" lon="7.8166737556457520"><ele></ele><time>2014-10-16T1:29:36Z</time></trkpt>
<trkpt lat="46.1744804382324219" lon="7.8167686462402344"><ele></ele><time>2014-10-16T1:29:39Z</time></trkpt>
<trkpt lat="46.1744537353515625" lon="7.8168711662292480"><ele></ele><time>2014-10-16T1:29:42Z</time></trkpt>
<trkpt lat="46.1745071411132812" lon="7.8169279098510742"><ele></ele><time>2014-10-16T1:29:45Z</time></trkpt>
<trkpt lat="46.1745452880859375" lon="7.8169651031494141"><ele></ele><time>2014-10-16T1:29:48Z</time></trkpt>
<trkpt lat="46.1745719909667969" lon="7.8170318603515625"><ele></ele><time>2014-10-16T1:29:51Z</time></trkpt>
<trkpt lat="46.1746025085449219" lon="7.8171515464782715"><ele></ele><time>2014-10-16T1:29:54Z</time></trkpt>
<trkpt lat="46.1746215820312500" lon="7.8172221183776855"><ele></ele><time>2014-10-16T1:29:57Z</time></trkpt>
<trkpt lat="46.1747093200683594" lon="7.8172821998596191"><ele></ele><time>2014-10-16T1:30:0Z</time></trkpt>
<trkpt lat="46.1748123168945312" lon="7.8173222541809082"><ele></ele><time>2014-10-16T1:30:3Z</time></trkpt>
<trkpt lat="46.1749458312988281" lon="7.8173675537109375"><ele></ele><time>2014-10-16T1:30:6Z</time></trkpt>
<trkpt lat="46.1751823425292969" lon="7.8173713684082031"><ele></ele><time>2014-10-16T1:30:9Z</time></trkpt>
<trkpt lat="46.1753921508789062" lon="7.8173446655273438"><ele></ele><time>2014-10-16T1:30:12Z</time></trkpt>
<trkpt lat="46.1755409240722656" lon="7.8173370361328125"><ele></ele><time>2014-10-16T1:30:15Z</time></trkpt>
<trkpt lat="46.1756896972656250" lon="7.8174085617065430"><ele></ele><time>2014-10-16T1:30:18Z</time></trkpt>
<trkpt lat="46.1758384704589844" lon="7.8175973892211914"><ele></ele><time>2014-10-16T1:30:21Z</time></trkpt>
<trkpt lat="46.1758499145507812" lon="7.8177123069763184"><ele></ele><time>2014-10-16T1:30:24Z</time></trkpt>
<trkpt lat="46.1758232116699219" lon="7.8179140090942383"><ele></ele><time>2014-10-16T1:30:27Z</time></trkpt>
<trkpt lat="46.1757774353027344" lon="7.8180232048034668"><ele></ele><time>2014-10-16T1:30:30Z</time></trkpt>
<trkpt lat="46.1757507324218750" lon="7.8180804252624512"><ele></ele><time>2014-10-16T1:30:33Z</time></trkpt>
<trkpt lat="46.1757125854492188" lon="7.8181109428405762"><ele></ele><time>2014-10-16T1:30:36Z</time></trkpt>
<trkpt lat="46.1756935119628906" lon="7.8181347846984863"><ele></ele><time>2014-10-16T1:30:39Z</time></trkpt>
<trkpt lat="46.1756744384765625" lon="7.8181753158569336"><ele></ele><time>2014-10-16T1:30:42Z</time></trkpt>
<trkpt lat="46.1756248474121094" lon="7.8182373046875000"><ele></ele><time>2014-10-16T1:30:45Z</time></trkpt>
<trkpt lat="46.1755867004394531" lon="7.8182873725891113"><ele></ele><time>2014-10-16T1:30:48Z</time></trkpt>
<trkpt lat="46.1755104064941406" lon="7.8183283805847168"><ele></ele><time>2014-10-16T1:30:51Z</time></trkpt>
<trkpt lat="46.1754608154296875" lon="7.8183345794677734"><ele></ele><time>2014-10-16T1:30:54Z</time></trkpt>
<trkpt lat="46.1753883361816406" lon="7.8183326721191406"><ele></ele><time>2014-10-16T1:30:57Z</time></trkpt>
<trkpt lat="46.1753387451171875" lon="7.8183293342590332"><ele></ele><time>2014-10-16T1:31:0Z</time></trkpt>
<trkpt lat="46.1752891540527344" lon="7.8183293342590332"><ele></ele><time>2014-10-16T1:31:3Z</time></trkpt>
<trkpt lat="46.1752433776855469" lon="7.8183393478393555"><ele></ele><time>2014-10-16T1:31:6Z</time></trkpt>
<trkpt lat="46.1752128601074219" lon="7.8183627128601074"><ele></ele><time>2014-10-16T1:31:9Z</time></trkpt>
<trkpt lat="46.1751518249511719" lon="7.8184061050415039"><ele></ele><time>2014-10-16T1:31:12Z</time></trkpt>
<trkpt lat="46.1751022338867188" lon="7.8184390068054199"><ele></ele><time>2014-10-16T1:31:15Z</time></trkpt>
<trkpt lat="46.1750602722167969" lon="7.8184914588928223"><ele></ele><time>2014-10-16T1:31:18Z</time></trkpt>
<trkpt lat="46.1750411987304688" lon="7.8185811042785645"><ele></ele><time>2014-10-16T1:31:21Z</time></trkpt>
<trkpt lat="46.1750030517578125" lon="7.8186249732971191"><ele></ele><time>2014-10-16T1:31:24Z</time></trkpt>
<trkpt lat="46.1749572753906250" lon="7.8186469078063965"><ele></ele><time>2014-10-16T1:31:27Z</time></trkpt>
<trkpt lat="46.1748847961425781" lon="7.8187036514282227"><ele></ele><time>2014-10-16T1:31:30Z</time></trkpt>
<trkpt lat="46.1748542785644531" lon="7.8187327384948730"><ele></ele><time>2014-10-16T1:31:33Z</time></trkpt>
<trkpt lat="46.1748046875000000" lon="7.8187637329101562"><ele></ele><time>2014-10-16T1:31:36Z</time></trkpt>
<trkpt lat="46.1747665405273438" lon="7.8187789916992188"><ele></ele><time>2014-10-16T1:31:39Z</time></trkpt>
<trkpt lat="46.1747245788574219" lon="7.8187928199768066"><ele></ele><time>2014-10-16T1:31:42Z</time></trkpt>
<trkpt lat="46.1746940612792969" lon="7.8188548088073730"><ele></ele><time>2014-10-16T1:31:45Z</time></trkpt>
<trkpt lat="46.1746788024902344" lon="7.8188939094543457"><ele></ele><time>2014-10-16T1:31:48Z</time></trkpt>
<trkpt lat="46.1746597290039062" lon="7.8189606666564941"><ele></ele><time>2014-10-16T1:31:51Z</time></trkpt>
<trkpt lat="46.1746215820312500" lon="7.8189864158630371"><ele></ele><time>2014-10-16T1:31:54Z</time></trkpt>
<trkpt lat="46.1745910644531250" lon="7.8190102577209473"><ele></ele><time>2014-10-16T1:31:57Z</time></trkpt>
<trkpt lat="46.1745758056640625" lon="7.8190274238586426"><ele></ele><time>2014-10-16T1:32:0Z</time></trkpt>
<trkpt lat="46.1745681762695312" lon="7.8190488815307617"><ele></ele><time>2014-10-16T1:32:3Z</time></trkpt>
<trkpt lat="46.1745567321777344" lon="7.8190617561340332"><ele></ele><time>2014-10-16T1:32:6Z</time></trkpt>
<trkpt lat="46.1745376586914062" lon="7.8190765380859375"><ele></ele><time>2014-10-16T1:32:9Z</time></trkpt>
<trkpt lat="46.1745376586914062" lon="7.8190932273864746"><ele></ele><time>2014-10-16T1:32:12Z</time></trkpt>
<trkpt lat="46.1745376586914062" lon="7.8191194534301758"><ele></ele><time>2014-10-16T1:32:15Z</time></trkpt>
<trkpt lat="46.1745491027832031" lon="7.8191428184509277"><ele></ele><time>2014-10-16T1:32:18Z</time></trkpt>
<trkpt lat="46.1745529174804688" lon="7.8191699981689453"><ele></ele><time>2014-10-16T1:32:21Z</time></trkpt>
<trkpt lat="46.1745338439941406" lon="7.8191976547241211"><ele></ele><time>2014-10-16T1:32:24Z</time></trkpt>
<trkpt lat="46.1745109558105469" lon="7.8192172050476074"><ele></ele><time>2014-10-16T1:32:27Z</time></trkpt>
<trkpt lat="46.1744995117187500" lon="7.8192300796508789"><ele></ele><time>2014-10-16T1:32:30Z</time></trkpt>
<trkpt lat="46.1744842529296875" lon="7.8192491531372070"><ele></ele><time>2014-10-16T1:32:33Z</time></trkpt>
<trkpt lat="46.1744728088378906" lon="7.8192567825317383"><ele></ele><time>2014-10-16T1:32:36Z</time></trkpt>
<trkpt lat="46.1744651794433594" lon="7.8192815780639648"><ele></ele><time>2014-10-16T1:32:39Z</time></trkpt>
<trkpt lat="46.1744766235351562" lon="7.8192992210388184"><ele></ele><time>2014-10-16T1:32:42Z</time></trkpt>
<trkpt lat="46.1744766235351562" lon="7.8193154335021973"><ele></ele><time>2014-10-16T1:32:45Z</time></trkpt>
<trkpt lat="46.1744537353515625" lon="7.8193273544311523"><ele></ele><time>2014-10-16T1:32:48Z</time></trkpt>
<trkpt lat="46.1744461059570312" lon="7.8193473815917969"><ele></ele><time>2014-10-16T1:32:51Z</time></trkpt>
<trkpt lat="46.1744155883789062" lon="7.8193717002868652"><ele></ele><time>2014-10-16T1:32:54Z</time></trkpt>
<trkpt lat="46.1744079589843750" lon="7.8193922042846680"><ele></ele><time>2014-10-16T1:32:57Z</time></trkpt>
<trkpt lat="46.1744117736816406" lon="7.8194141387939453"><ele></ele><time>2014-10-16T1:33:0Z</time></trkpt>
<trkpt lat="46.1744308471679688" lon="7.8194432258605957"><ele></ele><time>2014-10-16T1:33:3Z</time></trkpt>
<trkpt lat="46.1744346618652344" lon="7.8194556236267090"><ele></ele><time>2014-10-16T1:33:6Z</time></trkpt>
<trkpt lat="46.1743850708007812" lon="7.8196110725402832"><ele></ele><time>2014-10-16T1:33:9Z</time></trkpt>
<trkpt lat="46.1743507385253906" lon="7.8196210861206055"><ele></ele><time>2014-10-16T1:33:12Z</time></trkpt>
<trkpt lat="46.1743354797363281" lon="7.8196363449096680"><ele></ele><time>2014-10-16T1:33:15Z</time></trkpt>
<trkpt lat="46.1742973327636719" lon="7.8198137283325195"><ele></ele><time>2014-10-16T1:33:18Z</time></trkpt>
<trkpt lat="46.1742973327636719" lon="7.8198518753051758"><ele></ele><time>2014-10-16T1:33:21Z</time></trkpt>
<trkpt lat="46.1742858886718750" lon="7.8198647499084473"><ele></ele><time>2014-10-16T1:33:24Z</time></trkpt>
<trkpt lat="46.1742630004882812" lon="7.8198847770690918"><ele></ele><time>2014-10-16T1:33:27Z</time></trkpt>
<trkpt lat="46.1742362976074219" lon="7.8198881149291992"><ele></ele><time>2014-10-16T1:33:30Z</time></trkpt>
<trkpt lat="46.1742019653320312" lon="7.8199067115783691"><ele></ele><time>2014-10-16T1:33:33Z</time></trkpt>
<trkpt lat="46.1741981506347656" lon="7.8199172019958496"><ele></ele><time>2014-10-16T1:33:36Z</time></trkpt>
<trkpt lat="46.1741867065429688" lon="7.8199224472045898"><ele></ele><time>2014-10-16T1:33:39Z</time></trkpt>
<trkpt lat="46.1741714477539062" lon="7.8199462890625000"><ele></ele><time>2014-10-16T1:33:42Z</time></trkpt>
<trkpt lat="46.1741485595703125" lon="7.8199653625488281"><ele></ele><time>2014-10-16T1:33:45Z</time></trkpt>
<trkpt lat="46.1741218566894531" lon="7.8199734687805176"><ele></ele><time>2014-10-16T1:33:48Z</time></trkpt>
<trkpt lat="46.1741065979003906" lon="7.8199801445007324"><ele></ele><time>2014-10-16T1:33:51Z</time></trkpt>
<trkpt lat="46.1740951538085938" lon="7.8199868202209473"><ele></ele><time>2014-10-16T1:33:54Z</time></trkpt>
<trkpt lat="46.1740875244140625" lon="7.8200192451477051"><ele></ele><time>2014-10-16T1:33:57Z</time></trkpt>
<trkpt lat="46.1740913391113281" lon="7.8200521469116211"><ele></ele><time>2014-10-16T1:34:0Z</time></trkpt>
<trkpt lat="46.1740760803222656" lon="7.8200902938842773"><ele></ele><time>2014-10-16T1:34:3Z</time></trkpt>
<trkpt lat="46.1740646362304688" lon="7.8201203346252441"><ele></ele><time>2014-10-16T1:34:6Z</time></trkpt>
<trkpt lat="46.1740608215332031" lon="7.8201470375061035"><ele></ele><time>2014-10-16T1:34:9Z</time></trkpt>
<trkpt lat="46.1740531921386719" lon="7.8201756477355957"><ele></ele><time>2014-10-16T1:34:12Z</time></trkpt>
<trkpt lat="46.1740531921386719" lon="7.8202004432678223"><ele></ele><time>2014-10-16T1:34:15Z</time></trkpt>
<trkpt lat="46.1740570068359375" lon="7.8202471733093262"><ele></ele><time>2014-10-16T1:34:18Z</time></trkpt>
<trkpt lat="46.1740531921386719" lon="7.8202815055847168"><ele></ele><time>2014-10-16T1:34:21Z</time></trkpt>
<trkpt lat="46.1740570068359375" lon="7.8203196525573730"><ele></ele><time>2014-10-16T1:34:24Z</time></trkpt>
<trkpt lat="46.1740455627441406" lon="7.8203473091125488"><ele></ele><time>2014-10-16T1:34:27Z</time></trkpt>
<trkpt lat="46.1740379333496094" lon="7.8203840255737305"><ele></ele><time>2014-10-16T1:34:30Z</time></trkpt>
<trkpt lat="46.1740341186523438" lon="7.8204107284545898"><ele></ele><time>2014-10-16T1:34:33Z</time></trkpt>
<trkpt lat="46.1740264892578125" lon="7.8204383850097656"><ele></ele><time>2014-10-16T1:34:36Z</time></trkpt>
<trkpt lat="46.1740264892578125" lon="7.8204627037048340"><ele></ele><time>2014-10-16T1:34:39Z</time></trkpt>
<trkpt lat="46.1740074157714844" lon="7.8204908370971680"><ele></ele><time>2014-10-16T1:34:42Z</time></trkpt>
<trkpt lat="46.1739807128906250" lon="7.8205060958862305"><ele></ele><time>2014-10-16T1:34:45Z</time></trkpt>
<trkpt lat="46.1739463806152344" lon="7.8205265998840332"><ele></ele><time>2014-10-16T1:34:48Z</time></trkpt>
<trkpt lat="46.1739158630371094" lon="7.8205585479736328"><ele></ele><time>2014-10-16T1:34:51Z</time></trkpt>
<trkpt lat="46.1739044189453125" lon="7.8205857276916504"><ele></ele><time>2014-10-16T1:34:54Z</time></trkpt>
<trkpt lat="46.1738929748535156" lon="7.8206200599670410"><ele></ele><time>2014-10-16T1:34:57Z</time></trkpt>
<trkpt lat="46.1738700866699219" lon="7.8206357955932617"><ele></ele><time>2014-10-16T1:35:0Z</time></trkpt>
<trkpt lat="46.1738395690917969" lon="7.8206510543823242"><ele></ele><time>2014-10-16T1:35:3Z</time></trkpt>
<trkpt lat="46.1738243103027344" lon="7.8206524848937988"><ele></ele><time>2014-10-16T1:35:6Z</time></trkpt>
<trkpt lat="46.1738166809082031" lon="7.8206672668457031"><ele></ele><time>2014-10-16T1:35:9Z</time></trkpt>
<trkpt lat="46.1737937927246094" lon="7.8206815719604492"><ele></ele><time>2014-10-16T1:35:12Z</time></trkpt>
<trkpt lat="46.1737709045410156" lon="7.8206896781921387"><ele></ele><time>2014-10-16T1:35:15Z</time></trkpt>
<trkpt lat="46.1737442016601562" lon="7.8206949234008789"><ele></ele><time>2014-10-16T1:35:18Z</time></trkpt>
<trkpt lat="46.1737213134765625" lon="7.8207082748413086"><ele></ele><time>2014-10-16T1:35:21Z</time></trkpt>
<trkpt lat="46.1737060546875000" lon="7.8207216262817383"><ele></ele><time>2014-10-16T1:35:24Z</time></trkpt>
<trkpt lat="46.1736717224121094" lon="7.8207421302795410"><ele></ele><time>2014-10-16T1:35:27Z</time></trkpt>
<trkpt lat="46.1736450195312500" lon="7.8207530975341797"><ele></ele><time>2014-10-16T1:35:30Z</time></trkpt>
<trkpt lat="46.1736183166503906" lon="7.8207640647888184"><ele></ele><time>2014-10-16T1:35:33Z</time></trkpt>
<trkpt lat="46.1735839843750000" lon="7.8207764625549316"><ele></ele><time>2014-10-16T1:35:36Z</time></trkpt>
<trkpt lat="46.1735649108886719" lon="7.8207931518554688"><ele></ele><time>2014-10-16T1:35:39Z</time></trkpt>
<trkpt lat="46.1735382080078125" lon="7.8208045959472656"><ele></ele><time>2014-10-16T1:35:42Z</time></trkpt>
<trkpt lat="46.1735076904296875" lon="7.8208174705505371"><ele></ele><time>2014-10-16T1:35:45Z</time></trkpt>
<trkpt lat="46.1734886169433594" lon="7.8208413124084473"><ele></ele><time>2014-10-16T1:35:48Z</time></trkpt>
<trkpt lat="46.1734580993652344" lon="7.8208627700805664"><ele></ele><time>2014-10-16T1:35:51Z</time></trkpt>
<trkpt lat="46.1734580993652344" lon="7.8208875656127930"><ele></ele><time>2014-10-16T1:35:54Z</time></trkpt>
<trkpt lat="46.1734657287597656" lon="7.8209052085876465"><ele></ele><time>2014-10-16T1:35:57Z</time></trkpt>
<trkpt lat="46.1734733581542969" lon="7.8209123611450195"><ele></ele><time>2014-10-16T1:36:0Z</time></trkpt>
<trkpt lat="46.1732978820800781" lon="7.8209538459777832"><ele></ele><time>2014-10-16T1:36:3Z</time></trkpt>
<trkpt lat="46.1732826232910156" lon="7.8209581375122070"><ele></ele><time>2014-10-16T1:36:6Z</time></trkpt>
<trkpt lat="46.1732711791992188" lon="7.8209590911865234"><ele></ele><time>2014-10-16T1:36:9Z</time></trkpt>
<trkpt lat="46.1732559204101562" lon="7.8209619522094727"><ele></ele><time>2014-10-16T1:36:12Z</time></trkpt>
<trkpt lat="46.1732368469238281" lon="7.8209691047668457"><ele></ele><time>2014-10-16T1:36:15Z</time></trkpt>
<trkpt lat="46.1732139587402344" lon="7.8209853172302246"><ele></ele><time>2014-10-16T1:36:18Z</time></trkpt>
<trkpt lat="46.1731910705566406" lon="7.8210196495056152"><ele></ele><time>2014-10-16T1:36:21Z</time></trkpt>
<trkpt lat="46.1731643676757812" lon="7.8210926055908203"><ele></ele><time>2014-10-16T1:36:24Z</time></trkpt>
<trkpt lat="46.1731605529785156" lon="7.8211445808410645"><ele></ele><time>2014-10-16T1:36:27Z</time></trkpt>
<trkpt lat="46.1731605529785156" lon="7.8211979866027832"><ele></ele><time>2014-10-16T1:36:30Z</time></trkpt>
<trkpt lat="46.1731605529785156" lon="7.8212757110595703"><ele></ele><time>2014-10-16T1:36:33Z</time></trkpt>
<trkpt lat="46.1731643676757812" lon="7.8213162422180176"><ele></ele><time>2014-10-16T1:36:36Z</time></trkpt>
<trkpt lat="46.1731414794921875" lon="7.8213176727294922"><ele></ele><time>2014-10-16T1:36:39Z</time></trkpt>
<trkpt lat="46.1731109619140625" lon="7.8213191032409668"><ele></ele><time>2014-10-16T1:36:42Z</time></trkpt>
<trkpt lat="46.1730842590332031" lon="7.8213243484497070"><ele></ele><time>2014-10-16T1:36:45Z</time></trkpt>
<trkpt lat="46.1730804443359375" lon="7.8213100433349609"><ele></ele><time>2014-10-16T1:36:48Z</time></trkpt>
<trkpt lat="46.1730537414550781" lon="7.8213038444519043"><ele></ele><time>2014-10-16T1:36:51Z</time></trkpt>
<trkpt lat="46.1730117797851562" lon="7.8212976455688477"><ele></ele><time>2014-10-16T1:36:54Z</time></trkpt>
<trkpt lat="46.1729812622070312" lon="7.8212976455688477"><ele></ele><time>2014-10-16T1:36:57Z</time></trkpt>
<trkpt lat="46.1729507446289062" lon="7.8213071823120117"><ele></ele><time>2014-10-16T1:37:0Z</time></trkpt>
<trkpt lat="46.1729164123535156" lon="7.8213167190551758"><ele></ele><time>2014-10-16T1:37:3Z</time></trkpt>
<trkpt lat="46.1728935241699219" lon="7.8213324546813965"><ele></ele><time>2014-10-16T1:37:6Z</time></trkpt>
<trkpt lat="46.1728897094726562" lon="7.8213477134704590"><ele></ele><time>2014-10-16T1:37:9Z</time></trkpt>
<trkpt lat="46.1728897094726562" lon="7.8213729858398438"><ele></ele><time>2014-10-16T1:37:12Z</time></trkpt>
<trkpt lat="46.1728973388671875" lon="7.8213996887207031"><ele></ele><time>2014-10-16T1:37:15Z</time></trkpt>
<trkpt lat="46.1726570129394531" lon="7.8215880393981934"><ele></ele><time>2014-10-16T1:37:18Z</time></trkpt>
<trkpt lat="46.1726417541503906" lon="7.8216104507446289"><ele></ele><time>2014-10-16T1:37:21Z</time></trkpt>
<trkpt lat="46.1726188659667969" lon="7.8216519355773926"><ele></ele><time>2014-10-16T1:37:24Z</time></trkpt>
<trkpt lat="46.1726074218750000" lon="7.8216681480407715"><ele></ele><time>2014-10-16T1:37:27Z</time></trkpt>
<trkpt lat="46.1725616455078125" lon="7.8216743469238281"><ele></ele><time>2014-10-16T1:37:30Z</time></trkpt>
<trkpt lat="46.1725273132324219" lon="7.8216886520385742"><ele></ele><time>2014-10-16T1:37:33Z</time></trkpt>
<trkpt lat="46.1724853515625000" lon="7.8216938972473145"><ele></ele><time>2014-10-16T1:37:36Z</time></trkpt>
<trkpt lat="46.1724662780761719" lon="7.8217225074768066"><ele></ele><time>2014-10-16T1:37:39Z</time></trkpt>
<trkpt lat="46.1724586486816406" lon="7.8217391967773438"><ele></ele><time>2014-10-16T1:37:42Z</time></trkpt>
<trkpt lat="46.1724472045898438" lon="7.8217782974243164"><ele></ele><time>2014-10-16T1:37:45Z</time></trkpt>
<trkpt lat="46.1724281311035156" lon="7.8218135833740234"><ele></ele><time>2014-10-16T1:37:48Z</time></trkpt>
<trkpt lat="46.1724205017089844" lon="7.8218407630920410"><ele></ele><time>2014-10-16T1:37:51Z</time></trkpt>
<trkpt lat="46.1724128723144531" lon="7.8218507766723633"><ele></ele><time>2014-10-16T1:37:54Z</time></trkpt>
<trkpt lat="46.1724014282226562" lon="7.8218760490417480"><ele></ele><time>2014-10-16T1:37:57Z</time></trkpt>
<trkpt lat="46.1724166870117188" lon="7.8219175338745117"><ele></ele><time>2014-10-16T1:38:0Z</time></trkpt>
<trkpt lat="46.1724433898925781" lon="7.8219709396362305"><ele></ele><time>2014-10-16T1:38:3Z</time></trkpt>
<trkpt lat="46.1724548339843750" lon="7.8220119476318359"><ele></ele><time>2014-10-16T1:38:6Z</time></trkpt>
<trkpt lat="46.1724472045898438" lon="7.8220610618591309"><ele></ele><time>2014-10-16T1:38:9Z</time></trkpt>
<trkpt lat="46.1724510192871094" lon="7.8220953941345215"><ele></ele><time>2014-10-16T1:38:12Z</time></trkpt>
<trkpt lat="46.1724357604980469" lon="7.8221139907836914"><ele></ele><time>2014-10-16T1:38:15Z</time></trkpt>
<trkpt lat="46.1724052429199219" lon="7.8221278190612793"><ele></ele><time>2014-10-16T1:38:18Z</time></trkpt>
<trkpt lat="46.1723861694335938" lon="7.8221497535705566"><ele></ele><time>2014-10-16T1:38:21Z</time></trkpt>
<trkpt lat="46.1723556518554688" lon="7.8221855163574219"><ele></ele><time>2014-10-16T1:38:24Z</time></trkpt>
<trkpt lat="46.1723365783691406" lon="7.8222112655639648"><ele></ele><time>2014-10-16T1:38:27Z</time></trkpt>
<trkpt lat="46.1723060607910156" lon="7.8222417831420898"><ele></ele><time>2014-10-16T1:38:30Z</time></trkpt>
<trkpt lat="46.1722908020019531" lon="7.8222560882568359"><ele></ele><time>2014-10-16T1:38:33Z</time></trkpt>
<trkpt lat="46.1722831726074219" lon="7.8222932815551758"><ele></ele><time>2014-10-16T1:38:36Z</time></trkpt>
<trkpt lat="46.1722869873046875" lon="7.8223309516906738"><ele></ele><time>2014-10-16T1:38:39Z</time></trkpt>
<trkpt lat="46.1722679138183594" lon="7.8223900794982910"><ele></ele><time>2014-10-16T1:38:42Z</time></trkpt>
<trkpt lat="46.1722526550292969" lon="7.8224267959594727"><ele></ele><time>2014-10-16T1:38:45Z</time></trkpt>
<trkpt lat="46.1722450256347656" lon="7.8224644660949707"><ele></ele><time>2014-10-16T1:38:48Z</time></trkpt>
<trkpt lat="46.1722412109375000" lon="7.8225169181823730"><ele></ele><time>2014-10-16T1:38:51Z</time></trkpt>
<trkpt lat="46.1722335815429688" lon="7.8225474357604980"><ele></ele><time>2014-10-16T1:38:54Z</time></trkpt>
<trkpt lat="46.1722183227539062" lon="7.8225779533386230"><ele></ele><time>2014-10-16T1:38:57Z</time></trkpt>
<trkpt lat="46.1722183227539062" lon="7.8226232528686523"><ele></ele><time>2014-10-16T1:39:0Z</time></trkpt>
<trkpt lat="46.1722068786621094" lon="7.8226661682128906"><ele></ele><time>2014-10-16T1:39:3Z</time></trkpt>
<trkpt lat="46.1721916198730469" lon="7.8227014541625977"><ele></ele><time>2014-10-16T1:39:6Z</time></trkpt>
<trkpt lat="46.1722030639648438" lon="7.8227124214172363"><ele></ele><time>2014-10-16T1:39:9Z</time></trkpt>
<trkpt lat="46.1722106933593750" lon="7.8227400779724121"><ele></ele><time>2014-10-16T1:39:12Z</time></trkpt>
<trkpt lat="46.1722068786621094" lon="7.8228611946105957"><ele></ele><time>2014-10-16T1:39:15Z</time></trkpt>
<trkpt lat="46.1721992492675781" lon="7.8229608535766602"><ele></ele><time>2014-10-16T1:39:18Z</time></trkpt>
<trkpt lat="46.1721878051757812" lon="7.8231310844421387"><ele></ele><time>2014-10-16T1:39:21Z</time></trkpt>
<trkpt lat="46.1721763610839844" lon="7.8233461380004883"><ele></ele><time>2014-10-16T1:39:24Z</time></trkpt>
<trkpt lat="46.1721267700195312" lon="7.8236212730407715"><ele></ele><time>2014-10-16T1:39:27Z</time></trkpt>
<trkpt lat="46.1720504760742188" lon="7.8238377571105957"><ele></ele><time>2014-10-16T1:39:30Z</time></trkpt>
<trkpt lat="46.1719512939453125" lon="7.8239917755126953"><ele></ele><time>2014-10-16T1:39:33Z</time></trkpt>
<trkpt lat="46.1718254089355469" lon="7.8242096900939941"><ele></ele><time>2014-10-16T1:39:36Z</time></trkpt>
<trkpt lat="46.1717720031738281" lon="7.8243436813354492"><ele></ele><time>2014-10-16T1:39:39Z</time></trkpt>
<trkpt lat="46.1716842651367188" lon="7.8245153427124023"><ele></ele><time>2014-10-16T1:39:42Z</time></trkpt>
<trkpt lat="46.1716194152832031" lon="7.8247289657592773"><ele></ele><time>2014-10-16T1:39:45Z</time></trkpt>
<trkpt lat="46.1715660095214844" lon="7.8249487876892090"><ele></ele><time>2014-10-16T1:39:48Z</time></trkpt>
<trkpt lat="46.1715202331542969" lon="7.8250880241394043"><ele></ele><time>2014-10-16T1:39:51Z</time></trkpt>
<trkpt lat="46.1714401245117188" lon="7.8252878189086914"><ele></ele><time>2014-10-16T1:39:54Z</time></trkpt>
<trkpt lat="46.1714096069335938" lon="7.8254032135009766"><ele></ele><time>2014-10-16T1:39:57Z</time></trkpt>
<trkpt lat="46.1713790893554688" lon="7.8255228996276855"><ele></ele><time>2014-10-16T1:40:0Z</time></trkpt>
<trkpt lat="46.1713294982910156" lon="7.8257002830505371"><ele></ele><time>2014-10-16T1:40:3Z</time></trkpt>
<trkpt lat="46.1712875366210938" lon="7.8258147239685059"><ele></ele><time>2014-10-16T1:40:6Z</time></trkpt>
<trkpt lat="46.1712417602539062" lon="7.8259735107421875"><ele></ele><time>2014-10-16T1:40:9Z</time></trkpt>
<trkpt lat="46.1711959838867188" lon="7.8260331153869629"><ele></ele><time>2014-10-16T1:40:12Z</time></trkpt>
<trkpt lat="46.1711463928222656" lon="7.8261408805847168"><ele></ele><time>2014-10-16T1:40:15Z</time></trkpt>
<trkpt lat="46.1711349487304688" lon="7.8262081146240234"><ele></ele><time>2014-10-16T1:40:18Z</time></trkpt>
<trkpt lat="46.1711044311523438" lon="7.8263082504272461"><ele></ele><time>2014-10-16T1:40:21Z</time></trkpt>
<trkpt lat="46.1710472106933594" lon="7.8264284133911133"><ele></ele><time>2014-10-16T1:40:24Z</time></trkpt>
<trkpt lat="46.1709785461425781" lon="7.8265714645385742"><ele></ele><time>2014-10-16T1:40:27Z</time></trkpt>
<trkpt lat="46.1709327697753906" lon="7.8266711235046387"><ele></ele><time>2014-10-16T1:40:30Z</time></trkpt>
<trkpt lat="46.1708755493164062" lon="7.8267712593078613"><ele></ele><time>2014-10-16T1:40:33Z</time></trkpt>
<trkpt lat="46.1707839965820312" lon="7.8269104957580566"><ele></ele><time>2014-10-16T1:40:36Z</time></trkpt>
<trkpt lat="46.1707000732421875" lon="7.8270368576049805"><ele></ele><time>2014-10-16T1:40:39Z</time></trkpt>
<trkpt lat="46.1706581115722656" lon="7.8271236419677734"><ele></ele><time>2014-10-16T1:40:42Z</time></trkpt>
<trkpt lat="46.1706275939941406" lon="7.8272185325622559"><ele></ele><time>2014-10-16T1:40:45Z</time></trkpt>
<trkpt lat="46.1705970764160156" lon="7.8273787498474121"><ele></ele><time>2014-10-16T1:40:48Z</time></trkpt>
<trkpt lat="46.1706085205078125" lon="7.8275508880615234"><ele></ele><time>2014-10-16T1:40:51Z</time></trkpt>
<trkpt lat="46.1706237792968750" lon="7.8277173042297363"><ele></ele><time>2014-10-16T1:40:54Z</time></trkpt>
<trkpt lat="46.1706199645996094" lon="7.8278236389160156"><ele></ele><time>2014-10-16T1:40:57Z</time></trkpt>
<trkpt lat="46.1706161499023438" lon="7.8279113769531250"><ele></ele><time>2014-10-16T1:41:0Z</time></trkpt>
<trkpt lat="46.1706161499023438" lon="7.8279967308044434"><ele></ele><time>2014-10-16T1:41:3Z</time></trkpt>
<trkpt lat="46.1706314086914062" lon="7.8281164169311523"><ele></ele><time>2014-10-16T1:41:6Z</time></trkpt>
<trkpt lat="46.1706466674804688" lon="7.8282470703125000"><ele></ele><time>2014-10-16T1:41:9Z</time></trkpt>
<trkpt lat="46.1706962585449219" lon="7.8283576965332031"><ele></ele><time>2014-10-16T1:41:12Z</time></trkpt>
<trkpt lat="46.1707534790039062" lon="7.8284001350402832"><ele></ele><time>2014-10-16T1:41:15Z</time></trkpt>
<trkpt lat="46.1708183288574219" lon="7.8284230232238770"><ele></ele><time>2014-10-16T1:41:18Z</time></trkpt>
<trkpt lat="46.1709175109863281" lon="7.8284301757812500"><ele></ele><time>2014-10-16T1:41:21Z</time></trkpt>
<trkpt lat="46.1709899902343750" lon="7.8284153938293457"><ele></ele><time>2014-10-16T1:41:24Z</time></trkpt>
<trkpt lat="46.1711425781250000" lon="7.8283705711364746"><ele></ele><time>2014-10-16T1:41:27Z</time></trkpt>
<trkpt lat="46.1712837219238281" lon="7.8283143043518066"><ele></ele><time>2014-10-16T1:41:30Z</time></trkpt>
<trkpt lat="46.1713790893554688" lon="7.8282780647277832"><ele></ele><time>2014-10-16T1:41:33Z</time></trkpt>
<trkpt lat="46.1714706420898438" lon="7.8282794952392578"><ele></ele><time>2014-10-16T1:41:36Z</time></trkpt>
<trkpt lat="46.1716156005859375" lon="7.8283071517944336"><ele></ele><time>2014-10-16T1:41:39Z</time></trkpt>
<trkpt lat="46.1716880798339844" lon="7.8283276557922363"><ele></ele><time>2014-10-16T1:41:42Z</time></trkpt>
<trkpt lat="46.1717491149902344" lon="7.8283305168151855"><ele></ele><time>2014-10-16T1:41:45Z</time></trkpt>
<trkpt lat="46.1718750000000000" lon="7.8282256126403809"><ele></ele><time>2014-10-16T1:41:48Z</time></trkpt>
<trkpt lat="46.1719856262207031" lon="7.8281488418579102"><ele></ele><time>2014-10-16T1:41:51Z</time></trkpt>
<trkpt lat="46.1720809936523438" lon="7.8280677795410156"><ele></ele><time>2014-10-16T1:41:54Z</time></trkpt>
<trkpt lat="46.1721382141113281" lon="7.8280367851257324"><ele></ele><time>2014-10-16T1:41:57Z</time></trkpt>
<trkpt lat="46.1721992492675781" lon="7.8280100822448730"><ele></ele><time>2014-10-16T1:42:0Z</time></trkpt>
<trkpt lat="46.1723060607910156" lon="7.8279538154602051"><ele></ele><time>2014-10-16T1:42:3Z</time></trkpt>
<trkpt lat="46.1724281311035156" lon="7.8278436660766602"><ele></ele><time>2014-10-16T1:42:6Z</time></trkpt>
<trkpt lat="46.1725387573242188" lon="7.8276915550231934"><ele></ele><time>2014-10-16T1:42:9Z</time></trkpt>
<trkpt lat="46.1726303100585938" lon="7.8275985717773438"><ele></ele><time>2014-10-16T1:42:12Z</time></trkpt>
<trkpt lat="46.1727905273437500" lon="7.8274855613708496"><ele></ele><time>2014-10-16T1:42:15Z</time></trkpt>
<trkpt lat="46.1728858947753906" lon="7.8274207115173340"><ele></ele><time>2014-10-16T1:42:18Z</time></trkpt>
<trkpt lat="46.1729888916015625" lon="7.8273444175720215"><ele></ele><time>2014-10-16T1:42:21Z</time></trkpt>
<trkpt lat="46.1731643676757812" lon="7.8272128105163574"><ele></ele><time>2014-10-16T1:42:24Z</time></trkpt>
<trkpt lat="46.1732902526855469" lon="7.8271079063415527"><ele></ele><time>2014-10-16T1:42:27Z</time></trkpt>
<trkpt lat="46.1735038757324219" lon="7.8269367218017578"><ele></ele><time>2014-10-16T1:42:30Z</time></trkpt>
<trkpt lat="46.1737861633300781" lon="7.8267202377319336"><ele></ele><time>2014-10-16T1:42:33Z</time></trkpt>
<trkpt lat="46.1739463806152344" lon="7.8266048431396484"><ele></ele><time>2014-10-16T1:42:36Z</time></trkpt>
<trkpt lat="46.1743164062500000" lon="7.8264312744140625"><ele></ele><time>2014-10-16T1:42:39Z</time></trkpt>
<trkpt lat="46.1744461059570312" lon="7.8263430595397949"><ele></ele><time>2014-10-16T1:42:42Z</time></trkpt>
<trkpt lat="46.1747055053710938" lon="7.8262171745300293"><ele></ele><time>2014-10-16T1:42:45Z</time></trkpt>
<trkpt lat="46.1749801635742188" lon="7.8261160850524902"><ele></ele><time>2014-10-16T1:42:48Z</time></trkpt>
<trkpt lat="46.1751670837402344" lon="7.8260626792907715"><ele></ele><time>2014-10-16T1:42:51Z</time></trkpt>
<trkpt lat="46.1754379272460938" lon="7.8260254859924316"><ele></ele><time>2014-10-16T1:42:54Z</time></trkpt>
<trkpt lat="46.1757316589355469" lon="7.8260545730590820"><ele></ele><time>2014-10-16T1:42:57Z</time></trkpt>
<trkpt lat="46.1760444641113281" lon="7.8259644508361816"><ele></ele><time>2014-10-16T1:43:0Z</time></trkpt>
<trkpt lat="46.1762771606445312" lon="7.8258142471313477"><ele></ele><time>2014-10-16T1:43:3Z</time></trkpt>
<trkpt lat="46.1764526367187500" lon="7.8257150650024414"><ele></ele><time>2014-10-16T1:43:6Z</time></trkpt>
<trkpt lat="46.1766166687011719" lon="7.8256378173828125"><ele></ele><time>2014-10-16T1:43:9Z</time></trkpt>
<trkpt lat="46.1768951416015625" lon="7.8255305290222168"><ele></ele><time>2014-10-16T1:43:12Z</time></trkpt>
<trkpt lat="46.1770858764648438" lon="7.8254485130310059"><ele></ele><time>2014-10-16T1:43:15Z</time></trkpt>
<trkpt lat="46.1772651672363281" lon="7.8253540992736816"><ele></ele><time>2014-10-16T1:43:18Z</time></trkpt>
<trkpt lat="46.1775550842285156" lon="7.8252248764038086"><ele></ele><time>2014-10-16T1:43:21Z</time></trkpt>
<trkpt lat="46.1777610778808594" lon="7.8251242637634277"><ele></ele><time>2014-10-16T1:43:24Z</time></trkpt>
<trkpt lat="46.1779403686523438" lon="7.8249769210815430"><ele></ele><time>2014-10-16T1:43:27Z</time></trkpt>
<trkpt lat="46.1781158447265625" lon="7.8247504234313965"><ele></ele><time>2014-10-16T1:43:30Z</time></trkpt>
<trkpt lat="46.1782646179199219" lon="7.8245587348937988"><ele></ele><time>2014-10-16T1:43:33Z</time></trkpt>
<trkpt lat="46.1784934997558594" lon="7.8244767189025879"><ele></ele><time>2014-10-16T1:43:36Z</time></trkpt>
<trkpt lat="46.1786651611328125" lon="7.8244976997375488"><ele></ele><time>2014-10-16T1:43:39Z</time></trkpt>
<trkpt lat="46.1789550781250000" lon="7.8244876861572266"><ele></ele><time>2014-10-16T1:43:42Z</time></trkpt>
<trkpt lat="46.1792449951171875" lon="7.8245773315429688"><ele></ele><time>2014-10-16T1:43:45Z</time></trkpt>
<trkpt lat="46.1794509887695312" lon="7.8246011734008789"><ele></ele><time>2014-10-16T1:43:48Z</time></trkpt>
<trkpt lat="46.1797981262207031" lon="7.8246355056762695"><ele></ele><time>2014-10-16T1:43:51Z</time></trkpt>
<trkpt lat="46.1800117492675781" lon="7.8246879577636719"><ele></ele><time>2014-10-16T1:43:54Z</time></trkpt>
<trkpt lat="46.1802864074707031" lon="7.8248615264892578"><ele></ele><time>2014-10-16T1:43:57Z</time></trkpt>
<trkpt lat="46.1809616088867188" lon="7.8251686096191406"><ele></ele><time>2014-10-16T1:44:0Z</time></trkpt>
<trkpt lat="46.1811485290527344" lon="7.8252439498901367"><ele></ele><time>2014-10-16T1:44:3Z</time></trkpt>
<trkpt lat="46.1814537048339844" lon="7.8255343437194824"><ele></ele><time>2014-10-16T1:44:6Z</time></trkpt>
<trkpt lat="46.1816406250000000" lon="7.8259663581848145"><ele></ele><time>2014-10-16T1:44:9Z</time></trkpt>
<trkpt lat="46.1816444396972656" lon="7.8262653350830078"><ele></ele><time>2014-10-16T1:44:12Z</time></trkpt>
<trkpt lat="46.1816902160644531" lon="7.8264112472534180"><ele></ele><time>2014-10-16T1:44:15Z</time></trkpt>
<trkpt lat="46.1817893981933594" lon="7.8266019821166992"><ele></ele><time>2014-10-16T1:44:18Z</time></trkpt>
<trkpt lat="46.1818237304687500" lon="7.8267312049865723"><ele></ele><time>2014-10-16T1:44:21Z</time></trkpt>
<trkpt lat="46.1818847656250000" lon="7.8270540237426758"><ele></ele><time>2014-10-16T1:44:24Z</time></trkpt>
<trkpt lat="46.1819190979003906" lon="7.8272447586059570"><ele></ele><time>2014-10-16T1:44:27Z</time></trkpt>
<trkpt lat="46.1819534301757812" lon="7.8275189399719238"><ele></ele><time>2014-10-16T1:44:30Z</time></trkpt>
<trkpt lat="46.1820030212402344" lon="7.8278346061706543"><ele></ele><time>2014-10-16T1:44:33Z</time></trkpt>
<trkpt lat="46.1820602416992188" lon="7.8280596733093262"><ele></ele><time>2014-10-16T1:44:36Z</time></trkpt>
<trkpt lat="46.1821517944335938" lon="7.8281626701354980"><ele></ele><time>2014-10-16T1:44:39Z</time></trkpt>
<trkpt lat="46.1821937561035156" lon="7.8282046318054199"><ele></ele><time>2014-10-16T1:44:42Z</time></trkpt>
<trkpt lat="46.1823196411132812" lon="7.8283081054687500"><ele></ele><time>2014-10-16T1:44:45Z</time></trkpt>
<trkpt lat="46.1824531555175781" lon="7.8283390998840332"><ele></ele><time>2014-10-16T1:44:48Z</time></trkpt>
<trkpt lat="46.1826248168945312" lon="7.8283534049987793"><ele></ele><time>2014-10-16T1:44:51Z</time></trkpt>
<trkpt lat="46.1827583312988281" lon="7.8283672332763672"><ele></ele><time>2014-10-16T1:44:54Z</time></trkpt>
<trkpt lat="46.1829452514648438" lon="7.8283953666687012"><ele></ele><time>2014-10-16T1:44:57Z</time></trkpt>
<trkpt lat="46.1830825805664062" lon="7.8284573554992676"><ele></ele><time>2014-10-16T1:45:0Z</time></trkpt>
<trkpt lat="46.1831626892089844" lon="7.8285288810729980"><ele></ele><time>2014-10-16T1:45:3Z</time></trkpt>
<trkpt lat="46.1832809448242188" lon="7.8290157318115234"><ele></ele><time>2014-10-16T1:45:6Z</time></trkpt>
<trkpt lat="46.1833686828613281" lon="7.8291201591491699"><ele></ele><time>2014-10-16T1:45:9Z</time></trkpt>
<trkpt lat="46.1834220886230469" lon="7.8292431831359863"><ele></ele><time>2014-10-16T1:45:12Z</time></trkpt>
<trkpt lat="46.1834869384765625" lon="7.8294057846069336"><ele></ele><time>2014-10-16T1:45:15Z</time></trkpt>
<trkpt lat="46.1836357116699219" lon="7.8294568061828613"><ele></ele><time>2014-10-16T1:45:18Z</time></trkpt>
<trkpt lat="46.1837120056152344" lon="7.8294291496276855"><ele></ele><time>2014-10-16T1:45:21Z</time></trkpt>
<trkpt lat="46.1837844848632812" lon="7.8294072151184082"><ele></ele><time>2014-10-16T1:45:24Z</time></trkpt>
<trkpt lat="46.1838378906250000" lon="7.8294148445129395"><ele></ele><time>2014-10-16T1:45:27Z</time></trkpt>
<trkpt lat="46.1838951110839844" lon="7.8294210433959961"><ele></ele><time>2014-10-16T1:45:30Z</time></trkpt>
<trkpt lat="46.1839752197265625" lon="7.8294253349304199"><ele></ele><time>2014-10-16T1:45:33Z</time></trkpt>
<trkpt lat="46.1840744018554688" lon="7.8294920921325684"><ele></ele><time>2014-10-16T1:45:36Z</time></trkpt>
<trkpt lat="46.1841545104980469" lon="7.8295779228210449"><ele></ele><time>2014-10-16T1:45:39Z</time></trkpt>
<trkpt lat="46.1841964721679688" lon="7.8296880722045898"><ele></ele><time>2014-10-16T1:45:42Z</time></trkpt>
<trkpt lat="46.1842880249023438" lon="7.8298330307006836"><ele></ele><time>2014-10-16T1:45:45Z</time></trkpt>
<trkpt lat="46.1843833923339844" lon="7.8298926353454590"><ele></ele><time>2014-10-16T1:45:48Z</time></trkpt>
<trkpt lat="46.1845169067382812" lon="7.8299150466918945"><ele></ele><time>2014-10-16T1:45:51Z</time></trkpt>
<trkpt lat="46.1846542358398438" lon="7.8299431800842285"><ele></ele><time>2014-10-16T1:45:54Z</time></trkpt>
<trkpt lat="46.1847991943359375" lon="7.8300313949584961"><ele></ele><time>2014-10-16T1:45:57Z</time></trkpt>
<trkpt lat="46.1850090026855469" lon="7.8301596641540527"><ele></ele><time>2014-10-16T1:46:0Z</time></trkpt>
<trkpt lat="46.1851768493652344" lon="7.8307247161865234"><ele></ele><time>2014-10-16T1:46:3Z</time></trkpt>
<trkpt lat="46.1852149963378906" lon="7.8307709693908691"><ele></ele><time>2014-10-16T1:46:6Z</time></trkpt>
<trkpt lat="46.1852836608886719" lon="7.8307118415832520"><ele></ele><time>2014-10-16T1:46:9Z</time></trkpt>
<trkpt lat="46.1852989196777344" lon="7.8306298255920410"><ele></ele><time>2014-10-16T1:46:12Z</time></trkpt>
<trkpt lat="46.1853370666503906" lon="7.8305444717407227"><ele></ele><time>2014-10-16T1:46:15Z</time></trkpt>
<trkpt lat="46.1854743957519531" lon="7.8303632736206055"><ele></ele><time>2014-10-16T1:46:18Z</time></trkpt>
<trkpt lat="46.1855926513671875" lon="7.8302912712097168"><ele></ele><time>2014-10-16T1:46:21Z</time></trkpt>
<trkpt lat="46.1857376098632812" lon="7.8305120468139648"><ele></ele><time>2014-10-16T1:46:24Z</time></trkpt>
<trkpt lat="46.1858177185058594" lon="7.8308067321777344"><ele></ele><time>2014-10-16T1:46:27Z</time></trkpt>
<trkpt lat="46.1858558654785156" lon="7.8310027122497559"><ele></ele><time>2014-10-16T1:46:30Z</time></trkpt>
<trkpt lat="46.1859054565429688" lon="7.8312768936157227"><ele></ele><time>2014-10-16T1:46:33Z</time></trkpt>
<trkpt lat="46.1859588623046875" lon="7.8314332962036133"><ele></ele><time>2014-10-16T1:46:36Z</time></trkpt>
<trkpt lat="46.1860122680664062" lon="7.8316550254821777"><ele></ele><time>2014-10-16T1:46:39Z</time></trkpt>
<trkpt lat="46.1860237121582031" lon="7.8318181037902832"><ele></ele><time>2014-10-16T1:46:42Z</time></trkpt>
<trkpt lat="46.1860504150390625" lon="7.8320641517639160"><ele></ele><time>2014-10-16T1:46:45Z</time></trkpt>
<trkpt lat="46.1861648559570312" lon="7.8323130607604980"><ele></ele><time>2014-10-16T1:46:48Z</time></trkpt>
<trkpt lat="46.1863594055175781" lon="7.8325781822204590"><ele></ele><time>2014-10-16T1:46:51Z</time></trkpt>
<trkpt lat="46.1866188049316406" lon="7.8328070640563965"><ele></ele><time>2014-10-16T1:46:54Z</time></trkpt>
<trkpt lat="46.1868019104003906" lon="7.8328566551208496"><ele></ele><time>2014-10-16T1:46:57Z</time></trkpt>
<trkpt lat="46.1870689392089844" lon="7.8328814506530762"><ele></ele><time>2014-10-16T1:47:0Z</time></trkpt>
<trkpt lat="46.1872520446777344" lon="7.8329277038574219"><ele></ele><time>2014-10-16T1:47:3Z</time></trkpt>
<trkpt lat="46.1875610351562500" lon="7.8330583572387695"><ele></ele><time>2014-10-16T1:47:6Z</time></trkpt>
<trkpt lat="46.1877365112304688" lon="7.8330931663513184"><ele></ele><time>2014-10-16T1:47:9Z</time></trkpt>
<trkpt lat="46.1879348754882812" lon="7.8331842422485352"><ele></ele><time>2014-10-16T1:47:12Z</time></trkpt>
<trkpt lat="46.1881904602050781" lon="7.8334193229675293"><ele></ele><time>2014-10-16T1:47:15Z</time></trkpt>
<trkpt lat="46.1884422302246094" lon="7.8336315155029297"><ele></ele><time>2014-10-16T1:47:18Z</time></trkpt>
<trkpt lat="46.1885948181152344" lon="7.8337502479553223"><ele></ele><time>2014-10-16T1:47:21Z</time></trkpt>
<trkpt lat="46.1887245178222656" lon="7.8341922760009766"><ele></ele><time>2014-10-16T1:47:24Z</time></trkpt>
<trkpt lat="46.1888771057128906" lon="7.8343620300292969"><ele></ele><time>2014-10-16T1:47:27Z</time></trkpt>
<trkpt lat="46.1890411376953125" lon="7.8344573974609375"><ele></ele><time>2014-10-16T1:47:30Z</time></trkpt>
<trkpt lat="46.1892280578613281" lon="7.8347072601318359"><ele></ele><time>2014-10-16T1:47:33Z</time></trkpt>
<trkpt lat="46.1893424987792969" lon="7.8348898887634277"><ele></ele><time>2014-10-16T1:47:36Z</time></trkpt>
<trkpt lat="46.1894798278808594" lon="7.8349943161010742"><ele></ele><time>2014-10-16T1:47:39Z</time></trkpt>
<trkpt lat="46.1897392272949219" lon="7.8349723815917969"><ele></ele><time>2014-10-16T1:47:42Z</time></trkpt>
<trkpt lat="46.1899223327636719" lon="7.8349967002868652"><ele></ele><time>2014-10-16T1:47:45Z</time></trkpt>
<trkpt lat="46.1900939941406250" lon="7.8352756500244141"><ele></ele><time>2014-10-16T1:47:48Z</time></trkpt>
<trkpt lat="46.1902885437011719" lon="7.8353896141052246"><ele></ele><time>2014-10-16T1:47:51Z</time></trkpt>
<trkpt lat="46.1905479431152344" lon="7.8351869583129883"><ele></ele><time>2014-10-16T1:47:54Z</time></trkpt>
<trkpt lat="46.1906929016113281" lon="7.8351187705993652"><ele></ele><time>2014-10-16T1:47:57Z</time></trkpt>
<trkpt lat="46.1909675598144531" lon="7.8352570533752441"><ele></ele><time>2014-10-16T1:48:0Z</time></trkpt>
<trkpt lat="46.1911392211914062" lon="7.8352594375610352"><ele></ele><time>2014-10-16T1:48:3Z</time></trkpt>
<trkpt lat="46.1913833618164062" lon="7.8352937698364258"><ele></ele><time>2014-10-16T1:48:6Z</time></trkpt>
<trkpt lat="46.1916503906250000" lon="7.8353457450866699"><ele></ele><time>2014-10-16T1:48:9Z</time></trkpt>
<trkpt lat="46.1917991638183594" lon="7.8354263305664062"><ele></ele><time>2014-10-16T1:48:12Z</time></trkpt>
<trkpt lat="46.1920623779296875" lon="7.8355503082275391"><ele></ele><time>2014-10-16T1:48:15Z</time></trkpt>
<trkpt lat="46.1923255920410156" lon="7.8357229232788086"><ele></ele><time>2014-10-16T1:48:18Z</time></trkpt>
<trkpt lat="46.1925697326660156" lon="7.8359823226928711"><ele></ele><time>2014-10-16T1:48:21Z</time></trkpt>
<trkpt lat="46.1927375793457031" lon="7.8361668586730957"><ele></ele><time>2014-10-16T1:48:24Z</time></trkpt>
<trkpt lat="46.1929893493652344" lon="7.8364286422729492"><ele></ele><time>2014-10-16T1:48:27Z</time></trkpt>
<trkpt lat="46.1932411193847656" lon="7.8366365432739258"><ele></ele><time>2014-10-16T1:48:30Z</time></trkpt>
<trkpt lat="46.1934089660644531" lon="7.8367433547973633"><ele></ele><time>2014-10-16T1:48:33Z</time></trkpt>
<trkpt lat="46.1936950683593750" lon="7.8369364738464355"><ele></ele><time>2014-10-16T1:48:36Z</time></trkpt>
<trkpt lat="46.1938705444335938" lon="7.8370485305786133"><ele></ele><time>2014-10-16T1:48:39Z</time></trkpt>
<trkpt lat="46.1940498352050781" lon="7.8371629714965820"><ele></ele><time>2014-10-16T1:48:42Z</time></trkpt>
<trkpt lat="46.1942634582519531" lon="7.8373074531555176"><ele></ele><time>2014-10-16T1:48:45Z</time></trkpt>
<trkpt lat="46.1943473815917969" lon="7.8373789787292480"><ele></ele><time>2014-10-16T1:48:48Z</time></trkpt>
<trkpt lat="46.1946678161621094" lon="7.8377742767333984"><ele></ele><time>2014-10-16T1:48:51Z</time></trkpt>
<trkpt lat="46.1948165893554688" lon="7.8377966880798340"><ele></ele><time>2014-10-16T1:48:54Z</time></trkpt>
<trkpt lat="46.1949577331542969" lon="7.8380193710327148"><ele></ele><time>2014-10-16T1:48:57Z</time></trkpt>
<trkpt lat="46.1950569152832031" lon="7.8382883071899414"><ele></ele><time>2014-10-16T1:49:0Z</time></trkpt>
<trkpt lat="46.1951179504394531" lon="7.8384871482849121"><ele></ele><time>2014-10-16T1:49:3Z</time></trkpt>
<trkpt lat="46.1951904296875000" lon="7.8386702537536621"><ele></ele><time>2014-10-16T1:49:6Z</time></trkpt>
<trkpt lat="46.1952896118164062" lon="7.8387770652770996"><ele></ele><time>2014-10-16T1:49:9Z</time></trkpt>
<trkpt lat="46.1954078674316406" lon="7.8389697074890137"><ele></ele><time>2014-10-16T1:49:12Z</time></trkpt>
<trkpt lat="46.1954650878906250" lon="7.8391108512878418"><ele></ele><time>2014-10-16T1:49:15Z</time></trkpt>
<trkpt lat="46.1955223083496094" lon="7.8392324447631836"><ele></ele><time>2014-10-16T1:49:18Z</time></trkpt>
<trkpt lat="46.1956176757812500" lon="7.8393182754516602"><ele></ele><time>2014-10-16T1:49:21Z</time></trkpt>
<trkpt lat="46.1957664489746094" lon="7.8391785621643066"><ele></ele><time>2014-10-16T1:49:24Z</time></trkpt>
<trkpt lat="46.1959304809570312" lon="7.8391089439392090"><ele></ele><time>2014-10-16T1:49:27Z</time></trkpt>
<trkpt lat="46.1960182189941406" lon="7.8391027450561523"><ele></ele><time>2014-10-16T1:49:30Z</time></trkpt>
<trkpt lat="46.1959381103515625" lon="7.8390727043151855"><ele></ele><time>2014-10-16T1:49:33Z</time></trkpt>
<trkpt lat="46.1958312988281250" lon="7.8390765190124512"><ele></ele><time>2014-10-16T1:49:36Z</time></trkpt>
<trkpt lat="46.1957283020019531" lon="7.8390870094299316"><ele></ele><time>2014-10-16T1:49:39Z</time></trkpt>
<trkpt lat="46.1956672668457031" lon="7.8390274047851562"><ele></ele><time>2014-10-16T1:49:42Z</time></trkpt>
<trkpt lat="46.1955642700195312" lon="7.8389282226562500"><ele></ele><time>2014-10-16T1:49:45Z</time></trkpt>
<trkpt lat="46.1955032348632812" lon="7.8388433456420898"><ele></ele><time>2014-10-16T1:49:48Z</time></trkpt>
<trkpt lat="46.1955032348632812" lon="7.8388171195983887"><ele></ele><time>2014-10-16T1:49:51Z</time></trkpt>
<trkpt lat="46.1954956054687500" lon="7.8387918472290039"><ele></ele><time>2014-10-16T1:49:54Z</time></trkpt>
<trkpt lat="46.1954956054687500" lon="7.8387918472290039"><ele></ele><time>2014-10-16T1:49:57Z</time></trkpt>
</trkseg></trk></gpx>